<?xml version='1.0' encoding='UTF-8'?><gpx version="1.1" creator="JPX - https://github.com/jenetics/jpx" xmlns="http://www.topografix.com/GPX/1/1"><trk><trkseg><trkpt lat="43.8433016874163" lon="6.221479694705746"><ele>607.0</ele><time>2026-04-07T12:52:59.999Z</time></trkpt><trkpt lat="43.84336637916291" lon="6.221506850779763"><ele>607.0</ele><time>2026-04-07T12:53:05.999Z</time></trkpt><trkpt lat="43.84332571632951" lon="6.221516983372264"><ele>607.0</ele><time>2026-04-07T12:57:38Z</time></trkpt><trkpt lat="43.84323148955578" lon="6.221594001306936"><ele>607.0</ele><time>2026-04-07T12:58:26Z</time></trkpt><trkpt lat="43.84316635283755" lon="6.221575947267709"><ele>607.0</ele><time>2026-04-07T12:58:27Z</time></trkpt><trkpt lat="43.843067584465324" lon="6.221518738830147"><ele>607.0</ele><time>2026-04-07T12:58:29Z</time></trkpt><trkpt lat="43.84300521732367" lon="6.221477365089795"><ele>607.0</ele><time>2026-04-07T12:58:30Z</time></trkpt><trkpt lat="43.842953842668805" lon="6.221423929437885"><ele>607.0</ele><time>2026-04-07T12:58:31Z</time></trkpt><trkpt lat="43.84290868323034" lon="6.2213586233423115"><ele>607.0</ele><time>2026-04-07T12:58:32Z</time></trkpt><trkpt lat="43.8428435623611" lon="6.221247365273956"><ele>607.0</ele><time>2026-04-07T12:58:34Z</time></trkpt><trkpt lat="43.84276471880123" lon="6.221155513886072"><ele>607.0</ele><time>2026-04-07T12:58:36Z</time></trkpt><trkpt lat="43.84271109551939" lon="6.221102361198665"><ele>607.0</ele><time>2026-04-07T12:58:37Z</time></trkpt><trkpt lat="43.842649235882575" lon="6.221060705549327"><ele>606.8333333333334</ele><time>2026-04-07T12:58:38Z</time></trkpt><trkpt lat="43.84260112199459" lon="6.221000849722402"><ele>606.6666666666667</ele><time>2026-04-07T12:58:39Z</time></trkpt><trkpt lat="43.842501182456004" lon="6.221044665176861"><ele>606.5</ele><time>2026-04-07T12:58:40Z</time></trkpt><trkpt lat="43.84241918106489" lon="6.2210473235986"><ele>606.3333333333334</ele><time>2026-04-07T12:58:41Z</time></trkpt><trkpt lat="43.84233572114939" lon="6.221047489740142"><ele>606.1666666666666</ele><time>2026-04-07T12:58:42Z</time></trkpt><trkpt lat="43.84226090674368" lon="6.221055838512107"><ele>606.0</ele><time>2026-04-07T12:58:43Z</time></trkpt><trkpt lat="43.84218545661413" lon="6.2210807113461914"><ele>606.0</ele><time>2026-04-07T12:58:44Z</time></trkpt><trkpt lat="43.842119357293456" lon="6.221104963908505"><ele>606.0</ele><time>2026-04-07T12:58:45Z</time></trkpt><trkpt lat="43.8420518510126" lon="6.221124840936514"><ele>606.0</ele><time>2026-04-07T12:58:46Z</time></trkpt><trkpt lat="43.8419861638288" lon="6.221149500313232"><ele>606.0</ele><time>2026-04-07T12:58:47Z</time></trkpt><trkpt lat="43.841891959521924" lon="6.221193006563697"><ele>606.0</ele><time>2026-04-07T12:58:49Z</time></trkpt><trkpt lat="43.84180985615504" lon="6.221205755897894"><ele>606.0</ele><time>2026-04-07T12:58:51Z</time></trkpt><trkpt lat="43.84172558199696" lon="6.221305042547193"><ele>604.6666666666666</ele><time>2026-04-07T12:58:53Z</time></trkpt><trkpt lat="43.84164564937578" lon="6.221373551724869"><ele>603.3333333333334</ele><time>2026-04-07T12:58:55Z</time></trkpt><trkpt lat="43.841573692995375" lon="6.221423413888507"><ele>602.0</ele><time>2026-04-07T12:58:59Z</time></trkpt><trkpt lat="43.84150752929087" lon="6.2214432855055355"><ele>600.6666666666667</ele><time>2026-04-07T12:59:01Z</time></trkpt><trkpt lat="43.84142473150028" lon="6.221409116849215"><ele>599.3333333333334</ele><time>2026-04-07T12:59:04Z</time></trkpt><trkpt lat="43.841386260854094" lon="6.221339592066371"><ele>598.0</ele><time>2026-04-07T12:59:06Z</time></trkpt><trkpt lat="43.84136548051434" lon="6.221235444411419"><ele>598.0</ele><time>2026-04-07T12:59:08Z</time></trkpt><trkpt lat="43.84139168021579" lon="6.221106672687262"><ele>598.0</ele><time>2026-04-07T12:59:10Z</time></trkpt><trkpt lat="43.8414440611645" lon="6.220979857932552"><ele>598.0</ele><time>2026-04-07T12:59:12Z</time></trkpt><trkpt lat="43.84153238208004" lon="6.220849165464313"><ele>598.0</ele><time>2026-04-07T12:59:14Z</time></trkpt><trkpt lat="43.841580490611825" lon="6.220771660336394"><ele>598.0</ele><time>2026-04-07T12:59:15Z</time></trkpt><trkpt lat="43.84164932817478" lon="6.220699264348437"><ele>596.5</ele><time>2026-04-07T12:59:16Z</time></trkpt><trkpt lat="43.841687325552286" lon="6.220611271481283"><ele>595.0</ele><time>2026-04-07T12:59:17Z</time></trkpt><trkpt lat="43.84174284178346" lon="6.220535027236767"><ele>593.5</ele><time>2026-04-07T12:59:18Z</time></trkpt><trkpt lat="43.84179393817448" lon="6.220467448932982"><ele>592.0</ele><time>2026-04-07T12:59:19Z</time></trkpt><trkpt lat="43.841850838378" lon="6.220410828325086"><ele>590.5</ele><time>2026-04-07T12:59:20Z</time></trkpt><trkpt lat="43.841931644538455" lon="6.220327729829159"><ele>589.0</ele><time>2026-04-07T12:59:22Z</time></trkpt><trkpt lat="43.84199759787109" lon="6.220251799082968"><ele>589.0</ele><time>2026-04-07T12:59:24Z</time></trkpt><trkpt lat="43.84207249391021" lon="6.220173867688969"><ele>589.0</ele><time>2026-04-07T12:59:26Z</time></trkpt><trkpt lat="43.84214692453314" lon="6.220107525989282"><ele>589.0</ele><time>2026-04-07T12:59:28Z</time></trkpt><trkpt lat="43.84222530531163" lon="6.220038286918804"><ele>589.0</ele><time>2026-04-07T12:59:30Z</time></trkpt><trkpt lat="43.842348675785445" lon="6.219929629064354"><ele>589.0</ele><time>2026-04-07T12:59:32Z</time></trkpt><trkpt lat="43.84245589121349" lon="6.21987950687233"><ele>586.0</ele><time>2026-04-07T12:59:33Z</time></trkpt><trkpt lat="43.84257286098378" lon="6.219804098130665"><ele>583.0</ele><time>2026-04-07T12:59:34Z</time></trkpt><trkpt lat="43.842706171169674" lon="6.219764602329025"><ele>580.0</ele><time>2026-04-07T12:59:35Z</time></trkpt><trkpt lat="43.842834123501035" lon="6.219741560127172"><ele>577.0</ele><time>2026-04-07T12:59:36Z</time></trkpt><trkpt lat="43.84295688418458" lon="6.219707963510073"><ele>577.0</ele><time>2026-04-07T12:59:37Z</time></trkpt><trkpt lat="43.843077093969015" lon="6.219674107522971"><ele>577.0</ele><time>2026-04-07T12:59:38Z</time></trkpt><trkpt lat="43.843192561487484" lon="6.2196378711849825"><ele>577.0</ele><time>2026-04-07T12:59:39Z</time></trkpt><trkpt lat="43.84330955492785" lon="6.219599152108159"><ele>577.0</ele><time>2026-04-07T12:59:40Z</time></trkpt><trkpt lat="43.84342241900486" lon="6.2195652991600205"><ele>578.3333333333334</ele><time>2026-04-07T12:59:41Z</time></trkpt><trkpt lat="43.84353870038087" lon="6.219531265532786"><ele>579.6666666666666</ele><time>2026-04-07T12:59:42Z</time></trkpt><trkpt lat="43.84377241684375" lon="6.219448586156063"><ele>581.0</ele><time>2026-04-07T12:59:44Z</time></trkpt><trkpt lat="43.84389204970756" lon="6.219398147778906"><ele>581.0</ele><time>2026-04-07T12:59:45Z</time></trkpt><trkpt lat="43.84401284963061" lon="6.21934037786167"><ele>581.0</ele><time>2026-04-07T12:59:46Z</time></trkpt><trkpt lat="43.8441342352858" lon="6.219266819559947"><ele>581.0</ele><time>2026-04-07T12:59:47Z</time></trkpt><trkpt lat="43.84424462422938" lon="6.2191782147147"><ele>581.0</ele><time>2026-04-07T12:59:48Z</time></trkpt><trkpt lat="43.84434552610657" lon="6.2190844549142765"><ele>579.0</ele><time>2026-04-07T12:59:49Z</time></trkpt><trkpt lat="43.84443443496309" lon="6.218978548548822"><ele>577.0</ele><time>2026-04-07T12:59:50Z</time></trkpt><trkpt lat="43.84451774074082" lon="6.218862454780651"><ele>575.0</ele><time>2026-04-07T12:59:51Z</time></trkpt><trkpt lat="43.844600396305765" lon="6.218738405166115"><ele>573.0</ele><time>2026-04-07T12:59:52Z</time></trkpt><trkpt lat="43.84467915056213" lon="6.218605774208347"><ele>573.0</ele><time>2026-04-07T12:59:53Z</time></trkpt><trkpt lat="43.84474793341535" lon="6.218459448924384"><ele>573.0</ele><time>2026-04-07T12:59:54Z</time></trkpt><trkpt lat="43.844808859463534" lon="6.218296245457607"><ele>573.0</ele><time>2026-04-07T12:59:55Z</time></trkpt><trkpt lat="43.8448615432987" lon="6.21812790554073"><ele>573.0</ele><time>2026-04-07T12:59:56Z</time></trkpt><trkpt lat="43.84491355028903" lon="6.2179454980404145"><ele>572.0</ele><time>2026-04-07T12:59:57Z</time></trkpt><trkpt lat="43.844955825248825" lon="6.217751504111727"><ele>571.0</ele><time>2026-04-07T12:59:58Z</time></trkpt><trkpt lat="43.84498086435296" lon="6.2175301430913885"><ele>570.0</ele><time>2026-04-07T12:59:59Z</time></trkpt><trkpt lat="43.84499369916736" lon="6.217304810454906"><ele>569.6666666666666</ele><time>2026-04-07T13:00:00Z</time></trkpt><trkpt lat="43.84498835835302" lon="6.217074916058629"><ele>569.3333333333333</ele><time>2026-04-07T13:00:01Z</time></trkpt><trkpt lat="43.84495869043092" lon="6.216849973422236"><ele>569.0</ele><time>2026-04-07T13:00:02Z</time></trkpt><trkpt lat="43.84491711512244" lon="6.216637515516117"><ele>569.8</ele><time>2026-04-07T13:00:03Z</time></trkpt><trkpt lat="43.84487388183528" lon="6.216446304993525"><ele>570.5999999999999</ele><time>2026-04-07T13:00:04Z</time></trkpt><trkpt lat="43.84482225435482" lon="6.216285595243138"><ele>571.4</ele><time>2026-04-07T13:00:05Z</time></trkpt><trkpt lat="43.844771660916855" lon="6.216168148244341"><ele>572.1999999999999</ele><time>2026-04-07T13:00:06Z</time></trkpt><trkpt lat="43.844725719595154" lon="6.216083172366918"><ele>573.0</ele><time>2026-04-07T13:00:07Z</time></trkpt><trkpt lat="43.844684839894406" lon="6.216010135842564"><ele>573.0</ele><time>2026-04-07T13:00:08Z</time></trkpt><trkpt lat="43.844650686994704" lon="6.215910914387286"><ele>573.0</ele><time>2026-04-07T13:00:09Z</time></trkpt><trkpt lat="43.84462657216413" lon="6.21578971496778"><ele>573.0</ele><time>2026-04-07T13:00:10Z</time></trkpt><trkpt lat="43.844578186060254" lon="6.215661995896916"><ele>573.0</ele><time>2026-04-07T13:00:11Z</time></trkpt><trkpt lat="43.844476299916806" lon="6.215569510532378"><ele>573.0</ele><time>2026-04-07T13:00:12Z</time></trkpt><trkpt lat="43.84437281418502" lon="6.215487580507525"><ele>572.8333333333334</ele><time>2026-04-07T13:00:13Z</time></trkpt><trkpt lat="43.84432529272812" lon="6.215384295070914"><ele>572.6666666666666</ele><time>2026-04-07T13:00:14Z</time></trkpt><trkpt lat="43.84427147877532" lon="6.215318043111533"><ele>572.5</ele><time>2026-04-07T13:00:15Z</time></trkpt><trkpt lat="43.84422605599225" lon="6.2152544825510905"><ele>572.3333333333333</ele><time>2026-04-07T13:00:16Z</time></trkpt><trkpt lat="43.84416048784041" lon="6.215121180717462"><ele>572.1666666666666</ele><time>2026-04-07T13:00:18Z</time></trkpt><trkpt lat="43.844142718729174" lon="6.215008205149543"><ele>572.0</ele><time>2026-04-07T13:00:20Z</time></trkpt><trkpt lat="43.84412508718806" lon="6.21489838489099"><ele>572.5</ele><time>2026-04-07T13:00:23Z</time></trkpt><trkpt lat="43.844149421595425" lon="6.214803328156661"><ele>573.0</ele><time>2026-04-07T13:00:26Z</time></trkpt><trkpt lat="43.84408900068843" lon="6.214711061905228"><ele>573.5</ele><time>2026-04-07T13:00:29Z</time></trkpt><trkpt lat="43.84401072556201" lon="6.214698245059655"><ele>574.0</ele><time>2026-04-07T13:00:34Z</time></trkpt><trkpt lat="43.844096671300875" lon="6.214778190557367"><ele>574.5</ele><time>2026-04-07T13:04:46Z</time></trkpt><trkpt lat="43.844111358350034" lon="6.214683321604538"><ele>575.0</ele><time>2026-04-07T13:05:00Z</time></trkpt><trkpt lat="43.84404791838802" lon="6.2146627020910055"><ele>575.0</ele><time>2026-04-07T13:05:03Z</time></trkpt><trkpt lat="43.84396378472936" lon="6.214653933143821"><ele>575.0</ele><time>2026-04-07T13:05:45.001Z</time></trkpt><trkpt lat="43.84386718053842" lon="6.214695039510404"><ele>575.0</ele><time>2026-04-07T13:05:48.001Z</time></trkpt><trkpt lat="43.84374969915748" lon="6.214641397104646"><ele>575.0</ele><time>2026-04-07T13:05:50.001Z</time></trkpt><trkpt lat="43.843682663922145" lon="6.2146023297007424"><ele>575.0</ele><time>2026-04-07T13:05:51.001Z</time></trkpt><trkpt lat="43.8436066406794" lon="6.214564810892955"><ele>575.0</ele><time>2026-04-07T13:05:52.001Z</time></trkpt><trkpt lat="43.84352876054548" lon="6.214534394835244"><ele>575.0</ele><time>2026-04-07T13:05:53.001Z</time></trkpt><trkpt lat="43.84345150307675" lon="6.214506104439387"><ele>575.0</ele><time>2026-04-07T13:05:54.001Z</time></trkpt><trkpt lat="43.84337121919275" lon="6.214484304561694"><ele>575.0</ele><time>2026-04-07T13:05:55.001Z</time></trkpt><trkpt lat="43.8432932739084" lon="6.214465886833123"><ele>575.0</ele><time>2026-04-07T13:05:56.001Z</time></trkpt><trkpt lat="43.84321570662343" lon="6.214445914733119"><ele>575.0</ele><time>2026-04-07T13:05:57.001Z</time></trkpt><trkpt lat="43.84314625719136" lon="6.214422808816088"><ele>574.75</ele><time>2026-04-07T13:05:58Z</time></trkpt><trkpt lat="43.843084215536514" lon="6.21439844742671"><ele>574.5</ele><time>2026-04-07T13:05:59Z</time></trkpt><trkpt lat="43.84291159301952" lon="6.214353079003962"><ele>574.25</ele><time>2026-04-07T13:06:00Z</time></trkpt><trkpt lat="43.84280942642074" lon="6.214297259498618"><ele>574.0</ele><time>2026-04-07T13:06:01Z</time></trkpt><trkpt lat="43.8427043555576" lon="6.214241686354739"><ele>574.2</ele><time>2026-04-07T13:06:02Z</time></trkpt><trkpt lat="43.84260596864499" lon="6.214183774798242"><ele>574.4</ele><time>2026-04-07T13:06:03Z</time></trkpt><trkpt lat="43.84250628182521" lon="6.214123715246248"><ele>574.6</ele><time>2026-04-07T13:06:04Z</time></trkpt><trkpt lat="43.84241221170814" lon="6.21406886114449"><ele>574.8</ele><time>2026-04-07T13:06:05Z</time></trkpt><trkpt lat="43.84232043878369" lon="6.214006377964594"><ele>575.0</ele><time>2026-04-07T13:06:06Z</time></trkpt><trkpt lat="43.842236591308115" lon="6.213909244244151"><ele>575.0</ele><time>2026-04-07T13:06:07Z</time></trkpt><trkpt lat="43.842171707429884" lon="6.21376648068506"><ele>575.0</ele><time>2026-04-07T13:06:08Z</time></trkpt><trkpt lat="43.842133432360136" lon="6.213596208876598"><ele>575.0</ele><time>2026-04-07T13:06:09Z</time></trkpt><trkpt lat="43.84213945044195" lon="6.213408420512046"><ele>575.0</ele><time>2026-04-07T13:06:10Z</time></trkpt><trkpt lat="43.84215806629365" lon="6.213208549127241"><ele>575.75</ele><time>2026-04-07T13:06:11Z</time></trkpt><trkpt lat="43.842190844871375" lon="6.213007988275249"><ele>576.5</ele><time>2026-04-07T13:06:12Z</time></trkpt><trkpt lat="43.84222774092881" lon="6.212803739847601"><ele>577.25</ele><time>2026-04-07T13:06:13Z</time></trkpt><trkpt lat="43.84226785596615" lon="6.212606241979355"><ele>578.0</ele><time>2026-04-07T13:06:14Z</time></trkpt><trkpt lat="43.8423065574006" lon="6.212414322608199"><ele>577.0</ele><time>2026-04-07T13:06:15Z</time></trkpt><trkpt lat="43.84236775381353" lon="6.212241285453199"><ele>576.0</ele><time>2026-04-07T13:06:16Z</time></trkpt><trkpt lat="43.84242632914505" lon="6.212064100157062"><ele>575.0</ele><time>2026-04-07T13:06:17Z</time></trkpt><trkpt lat="43.8424917689995" lon="6.211895279399137"><ele>574.0</ele><time>2026-04-07T13:06:18Z</time></trkpt><trkpt lat="43.84255474885614" lon="6.211723963548369"><ele>574.0</ele><time>2026-04-07T13:06:19Z</time></trkpt><trkpt lat="43.84261329629317" lon="6.211550514398765"><ele>574.0</ele><time>2026-04-07T13:06:20Z</time></trkpt><trkpt lat="43.84266488972545" lon="6.211370041056062"><ele>574.0</ele><time>2026-04-07T13:06:21Z</time></trkpt><trkpt lat="43.84271556967286" lon="6.211188105395969"><ele>574.0</ele><time>2026-04-07T13:06:22Z</time></trkpt><trkpt lat="43.8427616685562" lon="6.211002495239445"><ele>576.0</ele><time>2026-04-07T13:06:23Z</time></trkpt><trkpt lat="43.84281310566347" lon="6.210811092309939"><ele>578.0</ele><time>2026-04-07T13:06:24Z</time></trkpt><trkpt lat="43.84286498826958" lon="6.210603409175646"><ele>580.0</ele><time>2026-04-07T13:06:25Z</time></trkpt><trkpt lat="43.842922652227585" lon="6.210400258505773"><ele>580.0</ele><time>2026-04-07T13:06:26Z</time></trkpt><trkpt lat="43.842986485316075" lon="6.210191567433867"><ele>580.0</ele><time>2026-04-07T13:06:27Z</time></trkpt><trkpt lat="43.84304906473136" lon="6.209980890347519"><ele>580.0</ele><time>2026-04-07T13:06:28Z</time></trkpt><trkpt lat="43.843108761682146" lon="6.209770707191455"><ele>578.6666666666667</ele><time>2026-04-07T13:06:29Z</time></trkpt><trkpt lat="43.84318110704683" lon="6.209569400266652"><ele>577.3333333333334</ele><time>2026-04-07T13:06:30Z</time></trkpt><trkpt lat="43.843249918503254" lon="6.209370246039239"><ele>576.0</ele><time>2026-04-07T13:06:31Z</time></trkpt><trkpt lat="43.84331618360573" lon="6.209182499882293"><ele>576.0</ele><time>2026-04-07T13:06:32Z</time></trkpt><trkpt lat="43.843382963224435" lon="6.208996155443793"><ele>576.0</ele><time>2026-04-07T13:06:33Z</time></trkpt><trkpt lat="43.84344455046951" lon="6.208814839134997"><ele>576.0</ele><time>2026-04-07T13:06:34Z</time></trkpt><trkpt lat="43.84356389804847" lon="6.208424818564241"><ele>576.75</ele><time>2026-04-07T13:06:36Z</time></trkpt><trkpt lat="43.84362122202775" lon="6.208232583898947"><ele>577.5</ele><time>2026-04-07T13:06:37Z</time></trkpt><trkpt lat="43.84367746222655" lon="6.208047055619292"><ele>578.25</ele><time>2026-04-07T13:06:38Z</time></trkpt><trkpt lat="43.84373585348846" lon="6.207856955297551"><ele>579.0</ele><time>2026-04-07T13:06:39Z</time></trkpt><trkpt lat="43.84380901879933" lon="6.207676132077778"><ele>579.0</ele><time>2026-04-07T13:06:40Z</time></trkpt><trkpt lat="43.843883293369494" lon="6.2074964196383995"><ele>579.0</ele><time>2026-04-07T13:06:41Z</time></trkpt><trkpt lat="43.84395621296366" lon="6.207323165673382"><ele>579.0</ele><time>2026-04-07T13:06:42Z</time></trkpt><trkpt lat="43.844028585388884" lon="6.207154275661903"><ele>579.0</ele><time>2026-04-07T13:06:43Z</time></trkpt><trkpt lat="43.84410200251955" lon="6.2069796023459"><ele>579.0</ele><time>2026-04-07T13:06:44Z</time></trkpt><trkpt lat="43.844169264677795" lon="6.206794735880235"><ele>579.0</ele><time>2026-04-07T13:06:45Z</time></trkpt><trkpt lat="43.844231409139" lon="6.206605263240005"><ele>579.0</ele><time>2026-04-07T13:06:46Z</time></trkpt><trkpt lat="43.84428996754342" lon="6.206419693277827"><ele>579.0</ele><time>2026-04-07T13:06:47Z</time></trkpt><trkpt lat="43.84434855889819" lon="6.206217411473679"><ele>580.6666666666666</ele><time>2026-04-07T13:06:48Z</time></trkpt><trkpt lat="43.84441176281219" lon="6.206017942182947"><ele>582.3333333333333</ele><time>2026-04-07T13:06:49Z</time></trkpt><trkpt lat="43.84447782992478" lon="6.205829488269239"><ele>584.0</ele><time>2026-04-07T13:06:50Z</time></trkpt><trkpt lat="43.84455980749695" lon="6.205652126407228"><ele>584.0</ele><time>2026-04-07T13:06:51Z</time></trkpt><trkpt lat="43.84465962703991" lon="6.205491727935645"><ele>584.0</ele><time>2026-04-07T13:06:52Z</time></trkpt><trkpt lat="43.84476681887087" lon="6.205337816288523"><ele>584.0</ele><time>2026-04-07T13:06:53Z</time></trkpt><trkpt lat="43.84487594145476" lon="6.2051848409683386"><ele>584.0</ele><time>2026-04-07T13:06:54Z</time></trkpt><trkpt lat="43.84498611457756" lon="6.205030662870504"><ele>584.0</ele><time>2026-04-07T13:06:55Z</time></trkpt><trkpt lat="43.8451045343918" lon="6.204883433834001"><ele>584.0</ele><time>2026-04-07T13:06:56Z</time></trkpt><trkpt lat="43.845230359344136" lon="6.2047544112161885"><ele>586.0</ele><time>2026-04-07T13:06:57Z</time></trkpt><trkpt lat="43.84536670574885" lon="6.204633841855739"><ele>588.0</ele><time>2026-04-07T13:06:58Z</time></trkpt><trkpt lat="43.845499110450156" lon="6.204510749587515"><ele>590.0</ele><time>2026-04-07T13:06:59Z</time></trkpt><trkpt lat="43.845630025838645" lon="6.204382921023503"><ele>590.0</ele><time>2026-04-07T13:07:00Z</time></trkpt><trkpt lat="43.84576061439506" lon="6.204258037461493"><ele>590.0</ele><time>2026-04-07T13:07:01Z</time></trkpt><trkpt lat="43.84589302197298" lon="6.204143467990677"><ele>590.0</ele><time>2026-04-07T13:07:02Z</time></trkpt><trkpt lat="43.84601896930158" lon="6.204032649841186"><ele>590.75</ele><time>2026-04-07T13:07:03Z</time></trkpt><trkpt lat="43.84612112172273" lon="6.203922900140385"><ele>591.5</ele><time>2026-04-07T13:07:04.001Z</time></trkpt><trkpt lat="43.84619954997809" lon="6.203785143855309"><ele>592.25</ele><time>2026-04-07T13:07:05.001Z</time></trkpt><trkpt lat="43.846235220020155" lon="6.203627015345828"><ele>593.0</ele><time>2026-04-07T13:07:06.001Z</time></trkpt><trkpt lat="43.84622391249103" lon="6.203468289117105"><ele>593.0</ele><time>2026-04-07T13:07:07.001Z</time></trkpt><trkpt lat="43.84617345490071" lon="6.203310104326399"><ele>593.0</ele><time>2026-04-07T13:07:08.001Z</time></trkpt><trkpt lat="43.84611897151651" lon="6.203157233475784"><ele>593.0</ele><time>2026-04-07T13:07:09.001Z</time></trkpt><trkpt lat="43.84613267938721" lon="6.203011527197301"><ele>593.0</ele><time>2026-04-07T13:07:10.001Z</time></trkpt><trkpt lat="43.8462076341164" lon="6.202878679674037"><ele>593.0</ele><time>2026-04-07T13:07:11.001Z</time></trkpt><trkpt lat="43.84629345293526" lon="6.202711754690894"><ele>593.0</ele><time>2026-04-07T13:07:12.001Z</time></trkpt><trkpt lat="43.84642157987101" lon="6.2025373703082956"><ele>593.0</ele><time>2026-04-07T13:07:13.001Z</time></trkpt><trkpt lat="43.84652971554347" lon="6.202379311798737"><ele>593.75</ele><time>2026-04-07T13:07:14.001Z</time></trkpt><trkpt lat="43.846624107854474" lon="6.202211690775669"><ele>594.5</ele><time>2026-04-07T13:07:15.001Z</time></trkpt><trkpt lat="43.84671390262306" lon="6.2020525779105204"><ele>595.25</ele><time>2026-04-07T13:07:16.001Z</time></trkpt><trkpt lat="43.84680657895059" lon="6.201891734600223"><ele>596.0</ele><time>2026-04-07T13:07:17.001Z</time></trkpt><trkpt lat="43.84690350963591" lon="6.201738104869105"><ele>596.25</ele><time>2026-04-07T13:07:18.001Z</time></trkpt><trkpt lat="43.846993716522995" lon="6.20158817561588"><ele>596.5</ele><time>2026-04-07T13:07:19.001Z</time></trkpt><trkpt lat="43.84708333135519" lon="6.201436895932326"><ele>596.75</ele><time>2026-04-07T13:07:20.001Z</time></trkpt><trkpt lat="43.8471748504361" lon="6.2012905370017375"><ele>597.0</ele><time>2026-04-07T13:07:21.001Z</time></trkpt><trkpt lat="43.847267179497734" lon="6.201136702277903"><ele>597.0</ele><time>2026-04-07T13:07:22.001Z</time></trkpt><trkpt lat="43.84736061710195" lon="6.2009776028458345"><ele>597.0</ele><time>2026-04-07T13:07:23.001Z</time></trkpt><trkpt lat="43.847456578945895" lon="6.200817143434545"><ele>597.0</ele><time>2026-04-07T13:07:24.001Z</time></trkpt><trkpt lat="43.847555052383775" lon="6.200644977567768"><ele>599.3333333333334</ele><time>2026-04-07T13:07:25.001Z</time></trkpt><trkpt lat="43.847650300319195" lon="6.200461257540089"><ele>601.6666666666667</ele><time>2026-04-07T13:07:26.001Z</time></trkpt><trkpt lat="43.847749915678" lon="6.200265262854313"><ele>604.0</ele><time>2026-04-07T13:07:27.001Z</time></trkpt><trkpt lat="43.847855029281845" lon="6.200069016014026"><ele>604.0</ele><time>2026-04-07T13:07:28.001Z</time></trkpt><trkpt lat="43.847962411864074" lon="6.1998736986210705"><ele>604.0</ele><time>2026-04-07T13:07:29.001Z</time></trkpt><trkpt lat="43.84806835877682" lon="6.199673464818335"><ele>604.0</ele><time>2026-04-07T13:07:30.001Z</time></trkpt><trkpt lat="43.848166690280244" lon="6.199485131321402"><ele>605.3333333333334</ele><time>2026-04-07T13:07:31.001Z</time></trkpt><trkpt lat="43.848268313648035" lon="6.1992912955032144"><ele>606.6666666666666</ele><time>2026-04-07T13:07:32.001Z</time></trkpt><trkpt lat="43.84836437096298" lon="6.199094962253076"><ele>608.0</ele><time>2026-04-07T13:07:33.001Z</time></trkpt><trkpt lat="43.84845069413034" lon="6.198887557131336"><ele>608.3333333333333</ele><time>2026-04-07T13:07:34.001Z</time></trkpt><trkpt lat="43.84852621626211" lon="6.198667691284347"><ele>608.6666666666666</ele><time>2026-04-07T13:07:35.001Z</time></trkpt><trkpt lat="43.84860186471837" lon="6.1984549565128315"><ele>609.0</ele><time>2026-04-07T13:07:36.001Z</time></trkpt><trkpt lat="43.848683887649145" lon="6.198258227156609"><ele>611.3333333333334</ele><time>2026-04-07T13:07:37.001Z</time></trkpt><trkpt lat="43.848779739016244" lon="6.198065961446274"><ele>613.6666666666667</ele><time>2026-04-07T13:07:38.001Z</time></trkpt><trkpt lat="43.84888863831802" lon="6.197889776569812"><ele>616.0</ele><time>2026-04-07T13:07:39.001Z</time></trkpt><trkpt lat="43.84901174265943" lon="6.197738469894641"><ele>616.0</ele><time>2026-04-07T13:07:40.001Z</time></trkpt><trkpt lat="43.849126813577016" lon="6.197585202318906"><ele>616.0</ele><time>2026-04-07T13:07:41.001Z</time></trkpt><trkpt lat="43.84920475940534" lon="6.197399048468597"><ele>616.0</ele><time>2026-04-07T13:07:42.001Z</time></trkpt><trkpt lat="43.849258850172916" lon="6.197183482625851"><ele>615.3333333333334</ele><time>2026-04-07T13:07:43.001Z</time></trkpt><trkpt lat="43.849328946859146" lon="6.196987238396966"><ele>614.6666666666666</ele><time>2026-04-07T13:07:44.001Z</time></trkpt><trkpt lat="43.84943654737985" lon="6.196818067165359"><ele>614.0</ele><time>2026-04-07T13:07:45.001Z</time></trkpt><trkpt lat="43.849570395869314" lon="6.196671043435821"><ele>614.0</ele><time>2026-04-07T13:07:46.001Z</time></trkpt><trkpt lat="43.849707098143675" lon="6.196541621441714"><ele>614.0</ele><time>2026-04-07T13:07:47.001Z</time></trkpt><trkpt lat="43.849842486985004" lon="6.196426205108012"><ele>614.0</ele><time>2026-04-07T13:07:48.001Z</time></trkpt><trkpt lat="43.849968418961794" lon="6.196311073588041"><ele>618.0</ele><time>2026-04-07T13:07:49.001Z</time></trkpt><trkpt lat="43.850089916011555" lon="6.196197746744116"><ele>622.0</ele><time>2026-04-07T13:07:50.001Z</time></trkpt><trkpt lat="43.850223404848805" lon="6.196097552004633"><ele>626.0</ele><time>2026-04-07T13:07:51.001Z</time></trkpt><trkpt lat="43.85036775112266" lon="6.196013412632166"><ele>626.0</ele><time>2026-04-07T13:07:52.001Z</time></trkpt><trkpt lat="43.85050693666649" lon="6.1959463228964315"><ele>626.0</ele><time>2026-04-07T13:07:53.001Z</time></trkpt><trkpt lat="43.85065189257017" lon="6.195876708543317"><ele>626.0</ele><time>2026-04-07T13:07:54.001Z</time></trkpt><trkpt lat="43.850803678090784" lon="6.1958099812331415"><ele>626.0</ele><time>2026-04-07T13:07:55.001Z</time></trkpt><trkpt lat="43.85095342161108" lon="6.195745150558828"><ele>626.0</ele><time>2026-04-07T13:07:56.001Z</time></trkpt><trkpt lat="43.85109882011251" lon="6.195673042583701"><ele>626.0</ele><time>2026-04-07T13:07:57.001Z</time></trkpt><trkpt lat="43.851239051589" lon="6.195610010795164"><ele>627.5</ele><time>2026-04-07T13:07:58.001Z</time></trkpt><trkpt lat="43.851381236441455" lon="6.195565311573249"><ele>629.0</ele><time>2026-04-07T13:07:59.001Z</time></trkpt><trkpt lat="43.851522021552626" lon="6.195540730546558"><ele>630.5</ele><time>2026-04-07T13:08:00.001Z</time></trkpt><trkpt lat="43.851671125630205" lon="6.195566334996394"><ele>632.0</ele><time>2026-04-07T13:08:01.001Z</time></trkpt><trkpt lat="43.85182393582281" lon="6.195618917148164"><ele>632.0</ele><time>2026-04-07T13:08:02.001Z</time></trkpt><trkpt lat="43.85199233246567" lon="6.195664109578522"><ele>632.0</ele><time>2026-04-07T13:08:03.001Z</time></trkpt><trkpt lat="43.85217385635599" lon="6.195649308134768"><ele>632.0</ele><time>2026-04-07T13:08:04Z</time></trkpt><trkpt lat="43.8523673957203" lon="6.195597914993754"><ele>632.0</ele><time>2026-04-07T13:08:05Z</time></trkpt><trkpt lat="43.85255528748322" lon="6.195537603479084"><ele>632.0</ele><time>2026-04-07T13:08:06Z</time></trkpt><trkpt lat="43.85272834416854" lon="6.195488062386847"><ele>632.0</ele><time>2026-04-07T13:08:07Z</time></trkpt><trkpt lat="43.8528887957664" lon="6.195442098067485"><ele>634.25</ele><time>2026-04-07T13:08:08Z</time></trkpt><trkpt lat="43.85303358421756" lon="6.195401738788494"><ele>636.5</ele><time>2026-04-07T13:08:09Z</time></trkpt><trkpt lat="43.853170948759576" lon="6.19537125092632"><ele>638.75</ele><time>2026-04-07T13:08:10Z</time></trkpt><trkpt lat="43.85331053036854" lon="6.195368359827533"><ele>641.0</ele><time>2026-04-07T13:08:11Z</time></trkpt><trkpt lat="43.853451184129234" lon="6.19541312928445"><ele>641.6666666666666</ele><time>2026-04-07T13:08:12Z</time></trkpt><trkpt lat="43.8535909489255" lon="6.195525469305283"><ele>642.3333333333334</ele><time>2026-04-07T13:08:13Z</time></trkpt><trkpt lat="43.85372614385659" lon="6.195656509942961"><ele>643.0</ele><time>2026-04-07T13:08:14Z</time></trkpt><trkpt lat="43.853877195992496" lon="6.1957747866132555"><ele>643.0</ele><time>2026-04-07T13:08:15Z</time></trkpt><trkpt lat="43.854034790540965" lon="6.1958644620705385"><ele>643.0</ele><time>2026-04-07T13:08:16Z</time></trkpt><trkpt lat="43.85419165848596" lon="6.1959338324780076"><ele>643.0</ele><time>2026-04-07T13:08:17Z</time></trkpt><trkpt lat="43.85433803035456" lon="6.1960282414964"><ele>643.6666666666667</ele><time>2026-04-07T13:08:18Z</time></trkpt><trkpt lat="43.85447070287431" lon="6.196199788282105"><ele>644.3333333333334</ele><time>2026-04-07T13:08:19Z</time></trkpt><trkpt lat="43.85459386938945" lon="6.196386193573885"><ele>645.0</ele><time>2026-04-07T13:08:20Z</time></trkpt><trkpt lat="43.854724908254695" lon="6.196544676128529"><ele>645.0</ele><time>2026-04-07T13:08:21Z</time></trkpt><trkpt lat="43.85486394899746" lon="6.196664518594416"><ele>645.0</ele><time>2026-04-07T13:08:22Z</time></trkpt><trkpt lat="43.855018244786244" lon="6.196769191129612"><ele>645.0</ele><time>2026-04-07T13:08:23Z</time></trkpt><trkpt lat="43.85516556690323" lon="6.196869151846077"><ele>650.3333333333334</ele><time>2026-04-07T13:08:24Z</time></trkpt><trkpt lat="43.855311732045514" lon="6.196976971843263"><ele>655.6666666666667</ele><time>2026-04-07T13:08:25Z</time></trkpt><trkpt lat="43.85545570713374" lon="6.1970843115593155"><ele>661.0</ele><time>2026-04-07T13:08:26Z</time></trkpt><trkpt lat="43.85559808495286" lon="6.197195549170661"><ele>661.0</ele><time>2026-04-07T13:08:27Z</time></trkpt><trkpt lat="43.85573684762477" lon="6.197313033915796"><ele>661.0</ele><time>2026-04-07T13:08:28Z</time></trkpt><trkpt lat="43.85587878481044" lon="6.197434970548925"><ele>661.0</ele><time>2026-04-07T13:08:29Z</time></trkpt><trkpt lat="43.856014197361674" lon="6.197552673630374"><ele>663.5</ele><time>2026-04-07T13:08:30Z</time></trkpt><trkpt lat="43.85613183804454" lon="6.1976658952082255"><ele>666.0</ele><time>2026-04-07T13:08:31Z</time></trkpt><trkpt lat="43.85622370231241" lon="6.197798773150457"><ele>668.5</ele><time>2026-04-07T13:08:32Z</time></trkpt><trkpt lat="43.85627876435923" lon="6.1979475056952245"><ele>671.0</ele><time>2026-04-07T13:08:33Z</time></trkpt><trkpt lat="43.85630884386188" lon="6.198093739956876"><ele>671.0</ele><time>2026-04-07T13:08:34Z</time></trkpt><trkpt lat="43.856356041411786" lon="6.198196000753113"><ele>671.0</ele><time>2026-04-07T13:08:35Z</time></trkpt><trkpt lat="43.85642721931908" lon="6.198234275307138"><ele>671.0</ele><time>2026-04-07T13:08:36Z</time></trkpt><trkpt lat="43.856507000678825" lon="6.198197384677903"><ele>671.0</ele><time>2026-04-07T13:08:37Z</time></trkpt><trkpt lat="43.85654828072428" lon="6.197985085037724"><ele>671.0</ele><time>2026-04-07T13:08:39Z</time></trkpt><trkpt lat="43.856426067662525" lon="6.197738901714904"><ele>671.0</ele><time>2026-04-07T13:08:41Z</time></trkpt><trkpt lat="43.856340527744386" lon="6.197551655200008"><ele>671.0</ele><time>2026-04-07T13:08:42Z</time></trkpt><trkpt lat="43.856259298087046" lon="6.197318416253376"><ele>671.0</ele><time>2026-04-07T13:08:43Z</time></trkpt><trkpt lat="43.856192586338224" lon="6.197098556976224"><ele>667.6666666666666</ele><time>2026-04-07T13:08:44Z</time></trkpt><trkpt lat="43.85611255216533" lon="6.196911965633641"><ele>664.3333333333334</ele><time>2026-04-07T13:08:45Z</time></trkpt><trkpt lat="43.85601024582209" lon="6.196740816366282"><ele>661.0</ele><time>2026-04-07T13:08:46Z</time></trkpt><trkpt lat="43.85590159393981" lon="6.196580685870656"><ele>666.3333333333334</ele><time>2026-04-07T13:08:47Z</time></trkpt><trkpt lat="43.855814305160095" lon="6.196399784374432"><ele>671.6666666666666</ele><time>2026-04-07T13:08:48Z</time></trkpt><trkpt lat="43.85571613523645" lon="6.196235692349698"><ele>677.0</ele><time>2026-04-07T13:08:49Z</time></trkpt><trkpt lat="43.855613773449434" lon="6.196095952428703"><ele>677.0</ele><time>2026-04-07T13:08:50Z</time></trkpt><trkpt lat="43.8555299604109" lon="6.195950089429921"><ele>677.0</ele><time>2026-04-07T13:08:51Z</time></trkpt><trkpt lat="43.85545261813094" lon="6.1958386779684815"><ele>677.0</ele><time>2026-04-07T13:08:52Z</time></trkpt><trkpt lat="43.85538090223298" lon="6.195747355118896"><ele>677.0</ele><time>2026-04-07T13:08:53Z</time></trkpt><trkpt lat="43.85531735483367" lon="6.195658839766477"><ele>677.0</ele><time>2026-04-07T13:08:54Z</time></trkpt><trkpt lat="43.855295701103294" lon="6.195572179605268"><ele>677.0</ele><time>2026-04-07T13:08:55Z</time></trkpt><trkpt lat="43.85535020769725" lon="6.195492510489944"><ele>677.0</ele><time>2026-04-07T13:08:57Z</time></trkpt><trkpt lat="43.85547707733394" lon="6.1955116531464025"><ele>677.0</ele><time>2026-04-07T13:08:58Z</time></trkpt><trkpt lat="43.855534784591896" lon="6.195645076190603"><ele>677.0</ele><time>2026-04-07T13:08:59Z</time></trkpt><trkpt lat="43.8556281089388" lon="6.195763929205492"><ele>677.0</ele><time>2026-04-07T13:09:00Z</time></trkpt><trkpt lat="43.85572101613771" lon="6.195896295454317"><ele>677.0</ele><time>2026-04-07T13:09:01Z</time></trkpt><trkpt lat="43.85583412457001" lon="6.196012268647323"><ele>677.0</ele><time>2026-04-07T13:09:02Z</time></trkpt><trkpt lat="43.855957707694806" lon="6.196122595235836"><ele>677.0</ele><time>2026-04-07T13:09:03Z</time></trkpt><trkpt lat="43.85607004139091" lon="6.1962442751759195"><ele>677.0</ele><time>2026-04-07T13:09:04Z</time></trkpt><trkpt lat="43.85618364299712" lon="6.196368565755296"><ele>679.25</ele><time>2026-04-07T13:09:05Z</time></trkpt><trkpt lat="43.85629121926815" lon="6.196491021130391"><ele>681.5</ele><time>2026-04-07T13:09:06Z</time></trkpt><trkpt lat="43.856392253645915" lon="6.19663506838315"><ele>683.75</ele><time>2026-04-07T13:09:07Z</time></trkpt><trkpt lat="43.856476013133225" lon="6.19680560330734"><ele>686.0</ele><time>2026-04-07T13:09:08Z</time></trkpt><trkpt lat="43.85653195521016" lon="6.196990272721411"><ele>686.0</ele><time>2026-04-07T13:09:09Z</time></trkpt><trkpt lat="43.856590408956784" lon="6.197178649092974"><ele>686.0</ele><time>2026-04-07T13:09:10Z</time></trkpt><trkpt lat="43.85667380753843" lon="6.197351837098543"><ele>686.0</ele><time>2026-04-07T13:09:11Z</time></trkpt><trkpt lat="43.85678063403969" lon="6.197493138798147"><ele>686.0</ele><time>2026-04-07T13:09:12Z</time></trkpt><trkpt lat="43.85690193860669" lon="6.197615383480221"><ele>687.5</ele><time>2026-04-07T13:09:13Z</time></trkpt><trkpt lat="43.85702805241141" lon="6.197711125353815"><ele>689.0</ele><time>2026-04-07T13:09:14Z</time></trkpt><trkpt lat="43.857161967593825" lon="6.1977945801781695"><ele>690.5</ele><time>2026-04-07T13:09:15Z</time></trkpt><trkpt lat="43.85730239964136" lon="6.19785400459397"><ele>692.0</ele><time>2026-04-07T13:09:16Z</time></trkpt><trkpt lat="43.85745615327641" lon="6.197881389997217"><ele>692.0</ele><time>2026-04-07T13:09:17Z</time></trkpt><trkpt lat="43.857600620440586" lon="6.197911453114478"><ele>692.0</ele><time>2026-04-07T13:09:18Z</time></trkpt><trkpt lat="43.85771658513314" lon="6.1980295117840365"><ele>692.0</ele><time>2026-04-07T13:09:19Z</time></trkpt><trkpt lat="43.8578385872809" lon="6.19815176883374"><ele>692.0</ele><time>2026-04-07T13:09:20Z</time></trkpt><trkpt lat="43.85796692252871" lon="6.198267057830294"><ele>692.6</ele><time>2026-04-07T13:09:21Z</time></trkpt><trkpt lat="43.85806542295537" lon="6.1983841387004555"><ele>693.2</ele><time>2026-04-07T13:09:22Z</time></trkpt><trkpt lat="43.858153634050275" lon="6.198489438287604"><ele>693.8</ele><time>2026-04-07T13:09:23.001Z</time></trkpt><trkpt lat="43.858233476628136" lon="6.198584625563493"><ele>694.4</ele><time>2026-04-07T13:09:24.001Z</time></trkpt><trkpt lat="43.85829946835206" lon="6.198673393914316"><ele>695.0</ele><time>2026-04-07T13:09:25.001Z</time></trkpt><trkpt lat="43.85835728435533" lon="6.19875973938139"><ele>695.0</ele><time>2026-04-07T13:09:26.001Z</time></trkpt><trkpt lat="43.85842948221817" lon="6.198787461183379"><ele>695.0</ele><time>2026-04-07T13:09:27.001Z</time></trkpt><trkpt lat="43.85851999490943" lon="6.198738382522771"><ele>695.0</ele><time>2026-04-07T13:09:28.001Z</time></trkpt><trkpt lat="43.85861556103654" lon="6.198690995145272"><ele>695.0</ele><time>2026-04-07T13:09:29.001Z</time></trkpt><trkpt lat="43.858564930686505" lon="6.198539135915887"><ele>695.0</ele><time>2026-04-07T13:09:30.001Z</time></trkpt><trkpt lat="43.85852267592577" lon="6.198416127250671"><ele>695.0</ele><time>2026-04-07T13:09:31.001Z</time></trkpt><trkpt lat="43.858448886394775" lon="6.198316954844352"><ele>695.0</ele><time>2026-04-07T13:09:32.001Z</time></trkpt><trkpt lat="43.858342432713286" lon="6.198238491306994"><ele>695.0</ele><time>2026-04-07T13:09:33.001Z</time></trkpt><trkpt lat="43.858242550573465" lon="6.198131416602513"><ele>695.0</ele><time>2026-04-07T13:09:34.001Z</time></trkpt><trkpt lat="43.858160633793695" lon="6.197984441635807"><ele>699.0</ele><time>2026-04-07T13:09:35.001Z</time></trkpt><trkpt lat="43.85807579970513" lon="6.197814860677763"><ele>703.0</ele><time>2026-04-07T13:09:36.001Z</time></trkpt><trkpt lat="43.85798769553834" lon="6.197657041494911"><ele>707.0</ele><time>2026-04-07T13:09:37.001Z</time></trkpt><trkpt lat="43.85786702326219" lon="6.197453810520588"><ele>708.3333333333333</ele><time>2026-04-07T13:09:38.001Z</time></trkpt><trkpt lat="43.85769499220315" lon="6.197308591542071"><ele>709.6666666666666</ele><time>2026-04-07T13:09:39.001Z</time></trkpt><trkpt lat="43.85750830807983" lon="6.197207571572917"><ele>711.0</ele><time>2026-04-07T13:09:40.001Z</time></trkpt><trkpt lat="43.85735456284033" lon="6.197080463252416"><ele>711.0</ele><time>2026-04-07T13:09:41.001Z</time></trkpt><trkpt lat="43.857272612929066" lon="6.1968826801304155"><ele>711.0</ele><time>2026-04-07T13:09:42.001Z</time></trkpt><trkpt lat="43.857171048987226" lon="6.196702531005776"><ele>711.0</ele><time>2026-04-07T13:09:43.001Z</time></trkpt><trkpt lat="43.85709564545646" lon="6.196522189032959"><ele>716.0</ele><time>2026-04-07T13:09:44.001Z</time></trkpt><trkpt lat="43.857016739084244" lon="6.19633518057434"><ele>721.0</ele><time>2026-04-07T13:09:45.001Z</time></trkpt><trkpt lat="43.856984901560125" lon="6.196120309083698"><ele>726.0</ele><time>2026-04-07T13:09:46.001Z</time></trkpt><trkpt lat="43.85691730862057" lon="6.195913019526674"><ele>726.0</ele><time>2026-04-07T13:09:47.001Z</time></trkpt><trkpt lat="43.85684046724594" lon="6.1956892677984445"><ele>726.0</ele><time>2026-04-07T13:09:48.001Z</time></trkpt><trkpt lat="43.85671885818249" lon="6.195461184496549"><ele>726.0</ele><time>2026-04-07T13:09:49.001Z</time></trkpt><trkpt lat="43.85659961136729" lon="6.195202189429732"><ele>729.0</ele><time>2026-04-07T13:09:50.001Z</time></trkpt><trkpt lat="43.856460975272356" lon="6.194926698178344"><ele>732.0</ele><time>2026-04-07T13:09:51.001Z</time></trkpt><trkpt lat="43.85633834884489" lon="6.194686055499655"><ele>732.0</ele><time>2026-04-07T13:09:52.001Z</time></trkpt><trkpt lat="43.856212707437344" lon="6.194457391041178"><ele>732.0</ele><time>2026-04-07T13:09:53.001Z</time></trkpt><trkpt lat="43.85611074519406" lon="6.194228535687784"><ele>732.0</ele><time>2026-04-07T13:09:54.001Z</time></trkpt><trkpt lat="43.85601744393205" lon="6.194020016745635"><ele>729.6666666666666</ele><time>2026-04-07T13:09:55.001Z</time></trkpt><trkpt lat="43.85593247698147" lon="6.19382804461853"><ele>727.3333333333333</ele><time>2026-04-07T13:09:56.001Z</time></trkpt><trkpt lat="43.855848366319854" lon="6.193643045979575"><ele>725.0</ele><time>2026-04-07T13:09:57.001Z</time></trkpt><trkpt lat="43.855773474829945" lon="6.193466306702956"><ele>725.0</ele><time>2026-04-07T13:09:58.001Z</time></trkpt><trkpt lat="43.855695499865284" lon="6.193286649709946"><ele>725.0</ele><time>2026-04-07T13:09:59.001Z</time></trkpt><trkpt lat="43.855616462023136" lon="6.193105979401242"><ele>725.0</ele><time>2026-04-07T13:10:00.001Z</time></trkpt><trkpt lat="43.85553665185136" lon="6.192918702225669"><ele>727.6666666666666</ele><time>2026-04-07T13:10:01.001Z</time></trkpt><trkpt lat="43.85545342400541" lon="6.192731963906032"><ele>730.3333333333334</ele><time>2026-04-07T13:10:02.001Z</time></trkpt><trkpt lat="43.85536994914734" lon="6.192543972274772"><ele>733.0</ele><time>2026-04-07T13:10:03.001Z</time></trkpt><trkpt lat="43.85528717196133" lon="6.19235236630803"><ele>733.0</ele><time>2026-04-07T13:10:04.001Z</time></trkpt><trkpt lat="43.85520387071429" lon="6.192169020726897"><ele>733.0</ele><time>2026-04-07T13:10:05.001Z</time></trkpt><trkpt lat="43.85512072756913" lon="6.191991691226069"><ele>733.0</ele><time>2026-04-07T13:10:06.001Z</time></trkpt><trkpt lat="43.85503961525608" lon="6.191819022843295"><ele>729.3333333333334</ele><time>2026-04-07T13:10:07.001Z</time></trkpt><trkpt lat="43.85496102449965" lon="6.191649048064064"><ele>725.6666666666666</ele><time>2026-04-07T13:10:08.001Z</time></trkpt><trkpt lat="43.85487657811954" lon="6.191471453596452"><ele>722.0</ele><time>2026-04-07T13:10:09.001Z</time></trkpt><trkpt lat="43.85470051260002" lon="6.191103730246924"><ele>721.75</ele><time>2026-04-07T13:10:11Z</time></trkpt><trkpt lat="43.854612055564814" lon="6.190934627552997"><ele>721.5</ele><time>2026-04-07T13:10:12Z</time></trkpt><trkpt lat="43.85453365882399" lon="6.190757866438857"><ele>721.25</ele><time>2026-04-07T13:10:13Z</time></trkpt><trkpt lat="43.85446482850964" lon="6.190585324918905"><ele>721.0</ele><time>2026-04-07T13:10:14Z</time></trkpt><trkpt lat="43.854387891680815" lon="6.190419457554564"><ele>720.6666666666667</ele><time>2026-04-07T13:10:15Z</time></trkpt><trkpt lat="43.854310602911305" lon="6.190252449462488"><ele>720.3333333333334</ele><time>2026-04-07T13:10:16Z</time></trkpt><trkpt lat="43.85422668474369" lon="6.190071116071365"><ele>720.0</ele><time>2026-04-07T13:10:17Z</time></trkpt><trkpt lat="43.85414030996491" lon="6.1898844747318424"><ele>718.0</ele><time>2026-04-07T13:10:18Z</time></trkpt><trkpt lat="43.854050621482976" lon="6.189690673058619"><ele>716.0</ele><time>2026-04-07T13:10:19Z</time></trkpt><trkpt lat="43.85395781146482" lon="6.18949012614997"><ele>714.0</ele><time>2026-04-07T13:10:20Z</time></trkpt><trkpt lat="43.85387051925118" lon="6.189301502220454"><ele>714.0</ele><time>2026-04-07T13:10:21Z</time></trkpt><trkpt lat="43.8537835831478" lon="6.189113647893094"><ele>714.0</ele><time>2026-04-07T13:10:22Z</time></trkpt><trkpt lat="43.85369177645198" lon="6.188915268902863"><ele>714.0</ele><time>2026-04-07T13:10:23Z</time></trkpt><trkpt lat="43.8535986373268" lon="6.188716451513072"><ele>712.3333333333334</ele><time>2026-04-07T13:10:24Z</time></trkpt><trkpt lat="43.85349846989605" lon="6.188531768063619"><ele>710.6666666666667</ele><time>2026-04-07T13:10:25Z</time></trkpt><trkpt lat="43.85342124630071" lon="6.188329606452027"><ele>709.0</ele><time>2026-04-07T13:10:26Z</time></trkpt><trkpt lat="43.853336627211284" lon="6.18812554298964"><ele>708.6666666666667</ele><time>2026-04-07T13:10:27Z</time></trkpt><trkpt lat="43.853242735046244" lon="6.187920404886919"><ele>708.3333333333334</ele><time>2026-04-07T13:10:28Z</time></trkpt><trkpt lat="43.85314840411537" lon="6.1877189403700665"><ele>708.0</ele><time>2026-04-07T13:10:29Z</time></trkpt><trkpt lat="43.85305495345763" lon="6.187518796524391"><ele>707.0</ele><time>2026-04-07T13:10:30Z</time></trkpt><trkpt lat="43.8529634546486" lon="6.187319848293444"><ele>706.0</ele><time>2026-04-07T13:10:31Z</time></trkpt><trkpt lat="43.8528747248688" lon="6.187118216496716"><ele>705.0</ele><time>2026-04-07T13:10:32Z</time></trkpt><trkpt lat="43.8527852033307" lon="6.186919217556538"><ele>705.0</ele><time>2026-04-07T13:10:33Z</time></trkpt><trkpt lat="43.85269266260337" lon="6.186719145703057"><ele>705.0</ele><time>2026-04-07T13:10:34Z</time></trkpt><trkpt lat="43.852600506270605" lon="6.186525222395466"><ele>705.0</ele><time>2026-04-07T13:10:35Z</time></trkpt><trkpt lat="43.852507831018734" lon="6.186332498877526"><ele>703.6666666666666</ele><time>2026-04-07T13:10:36Z</time></trkpt><trkpt lat="43.852412223689825" lon="6.186136079382471"><ele>702.3333333333333</ele><time>2026-04-07T13:10:37Z</time></trkpt><trkpt lat="43.85231293177429" lon="6.1859224944845765"><ele>701.0</ele><time>2026-04-07T13:10:38Z</time></trkpt><trkpt lat="43.85221244240517" lon="6.185697011123052"><ele>701.0</ele><time>2026-04-07T13:10:39Z</time></trkpt><trkpt lat="43.85212096375815" lon="6.185460494454497"><ele>701.0</ele><time>2026-04-07T13:10:40Z</time></trkpt><trkpt lat="43.85204210869569" lon="6.185214454656463"><ele>701.0</ele><time>2026-04-07T13:10:41Z</time></trkpt><trkpt lat="43.851975348651365" lon="6.184965548062864"><ele>701.0</ele><time>2026-04-07T13:10:42Z</time></trkpt><trkpt lat="43.851918278729514" lon="6.184714177474143"><ele>701.0</ele><time>2026-04-07T13:10:43Z</time></trkpt><trkpt lat="43.85188113044282" lon="6.184452237811923"><ele>701.0</ele><time>2026-04-07T13:10:44Z</time></trkpt><trkpt lat="43.85186138206289" lon="6.184193967067069"><ele>699.6666666666666</ele><time>2026-04-07T13:10:45Z</time></trkpt><trkpt lat="43.85185448992117" lon="6.183939963727223"><ele>698.3333333333334</ele><time>2026-04-07T13:10:46Z</time></trkpt><trkpt lat="43.851858670105116" lon="6.183679530786217"><ele>697.0</ele><time>2026-04-07T13:10:47Z</time></trkpt><trkpt lat="43.85187509376725" lon="6.1834195234333915"><ele>696.6666666666667</ele><time>2026-04-07T13:10:48Z</time></trkpt><trkpt lat="43.85190291138621" lon="6.183172104161042"><ele>696.3333333333334</ele><time>2026-04-07T13:10:49Z</time></trkpt><trkpt lat="43.851943771735584" lon="6.182929757548782"><ele>696.0</ele><time>2026-04-07T13:10:50Z</time></trkpt><trkpt lat="43.851993043514284" lon="6.1826903770515464"><ele>696.0</ele><time>2026-04-07T13:10:51Z</time></trkpt><trkpt lat="43.852054219062765" lon="6.182448645405156"><ele>696.0</ele><time>2026-04-07T13:10:52Z</time></trkpt><trkpt lat="43.85212010879735" lon="6.182214383058809"><ele>696.0</ele><time>2026-04-07T13:10:53Z</time></trkpt><trkpt lat="43.85218843579903" lon="6.181981265193045"><ele>695.3333333333334</ele><time>2026-04-07T13:10:54Z</time></trkpt><trkpt lat="43.85225519326429" lon="6.181743754717479"><ele>694.6666666666667</ele><time>2026-04-07T13:10:55Z</time></trkpt><trkpt lat="43.85232373294949" lon="6.181500856700235"><ele>694.0</ele><time>2026-04-07T13:10:56Z</time></trkpt><trkpt lat="43.85239297337962" lon="6.1812437670411"><ele>694.0</ele><time>2026-04-07T13:10:57Z</time></trkpt><trkpt lat="43.852456062007064" lon="6.180991643596359"><ele>694.0</ele><time>2026-04-07T13:10:58Z</time></trkpt><trkpt lat="43.852509629006555" lon="6.1807387187353475"><ele>694.0</ele><time>2026-04-07T13:10:59Z</time></trkpt><trkpt lat="43.85254185381706" lon="6.180488924101737"><ele>693.3333333333334</ele><time>2026-04-07T13:11:00Z</time></trkpt><trkpt lat="43.85255190185662" lon="6.180230002075148"><ele>692.6666666666666</ele><time>2026-04-07T13:11:01Z</time></trkpt><trkpt lat="43.852539137201994" lon="6.179971570785545"><ele>692.0</ele><time>2026-04-07T13:11:02Z</time></trkpt><trkpt lat="43.852504792942014" lon="6.179723247872919"><ele>692.0</ele><time>2026-04-07T13:11:03Z</time></trkpt><trkpt lat="43.852461250870505" lon="6.179477518884566"><ele>692.0</ele><time>2026-04-07T13:11:04Z</time></trkpt><trkpt lat="43.852403040286504" lon="6.179227140606551"><ele>692.0</ele><time>2026-04-07T13:11:05Z</time></trkpt><trkpt lat="43.85233163655131" lon="6.178986007885425"><ele>692.0</ele><time>2026-04-07T13:11:06Z</time></trkpt><trkpt lat="43.85225004548221" lon="6.178742463264027"><ele>692.0</ele><time>2026-04-07T13:11:07Z</time></trkpt><trkpt lat="43.85216523725301" lon="6.178507074632472"><ele>692.0</ele><time>2026-04-07T13:11:08Z</time></trkpt><trkpt lat="43.85208158144557" lon="6.178288791363067"><ele>691.6666666666666</ele><time>2026-04-07T13:11:09Z</time></trkpt><trkpt lat="43.85199814375826" lon="6.1780693622859655"><ele>691.3333333333334</ele><time>2026-04-07T13:11:10Z</time></trkpt><trkpt lat="43.851914853657746" lon="6.177850061014757"><ele>691.0</ele><time>2026-04-07T13:11:11Z</time></trkpt><trkpt lat="43.85183488484167" lon="6.177628291054339"><ele>688.6666666666667</ele><time>2026-04-07T13:11:12Z</time></trkpt><trkpt lat="43.851757604185785" lon="6.177403020730062"><ele>686.3333333333334</ele><time>2026-04-07T13:11:13Z</time></trkpt><trkpt lat="43.85167906144517" lon="6.177180317144455"><ele>684.0</ele><time>2026-04-07T13:11:14Z</time></trkpt><trkpt lat="43.85159789477494" lon="6.17696299969836"><ele>684.0</ele><time>2026-04-07T13:11:15Z</time></trkpt><trkpt lat="43.85151441297639" lon="6.176744001368142"><ele>684.0</ele><time>2026-04-07T13:11:16Z</time></trkpt><trkpt lat="43.851431483641996" lon="6.176518784287088"><ele>684.0</ele><time>2026-04-07T13:11:17Z</time></trkpt><trkpt lat="43.85134754899708" lon="6.176293226189176"><ele>685.0</ele><time>2026-04-07T13:11:18Z</time></trkpt><trkpt lat="43.851266903269334" lon="6.176064970279905"><ele>686.0</ele><time>2026-04-07T13:11:19Z</time></trkpt><trkpt lat="43.85119303065489" lon="6.175840925550956"><ele>687.0</ele><time>2026-04-07T13:11:20Z</time></trkpt><trkpt lat="43.85112142495984" lon="6.175598496078573"><ele>687.0</ele><time>2026-04-07T13:11:21Z</time></trkpt><trkpt lat="43.8510663028455" lon="6.17533827540589"><ele>687.0</ele><time>2026-04-07T13:11:22Z</time></trkpt><trkpt lat="43.85102061083365" lon="6.175078139701186"><ele>687.0</ele><time>2026-04-07T13:11:23Z</time></trkpt><trkpt lat="43.850987105699616" lon="6.174811235672118"><ele>687.3333333333334</ele><time>2026-04-07T13:11:24Z</time></trkpt><trkpt lat="43.85096245729357" lon="6.174542552655652"><ele>687.6666666666667</ele><time>2026-04-07T13:11:25Z</time></trkpt><trkpt lat="43.85093754729904" lon="6.174287316555245"><ele>688.0</ele><time>2026-04-07T13:11:26Z</time></trkpt><trkpt lat="43.850910514101855" lon="6.1740361927209815"><ele>683.6666666666667</ele><time>2026-04-07T13:11:27Z</time></trkpt><trkpt lat="43.85088420921013" lon="6.1737774037578586"><ele>679.3333333333334</ele><time>2026-04-07T13:11:28Z</time></trkpt><trkpt lat="43.85085286063673" lon="6.173503359373042"><ele>675.0</ele><time>2026-04-07T13:11:29Z</time></trkpt><trkpt lat="43.8508179057499" lon="6.1732421736491485"><ele>674.3333333333334</ele><time>2026-04-07T13:11:30Z</time></trkpt><trkpt lat="43.85077638301254" lon="6.172980678597008"><ele>673.6666666666667</ele><time>2026-04-07T13:11:31Z</time></trkpt><trkpt lat="43.85072360336031" lon="6.172730084638645"><ele>673.0</ele><time>2026-04-07T13:11:32Z</time></trkpt><trkpt lat="43.85064551400908" lon="6.172501663107755"><ele>673.3333333333334</ele><time>2026-04-07T13:11:33Z</time></trkpt><trkpt lat="43.85055133925941" lon="6.172266904083428"><ele>673.6666666666666</ele><time>2026-04-07T13:11:34Z</time></trkpt><trkpt lat="43.85043664850476" lon="6.172051517234283"><ele>674.0</ele><time>2026-04-07T13:11:35Z</time></trkpt><trkpt lat="43.85030998399027" lon="6.17185314442735"><ele>674.0</ele><time>2026-04-07T13:11:36Z</time></trkpt><trkpt lat="43.850167484791335" lon="6.171676859263067"><ele>674.0</ele><time>2026-04-07T13:11:37Z</time></trkpt><trkpt lat="43.849838458187094" lon="6.171364693362075"><ele>674.0</ele><time>2026-04-07T13:11:39Z</time></trkpt><trkpt lat="43.849665376295455" lon="6.17122039186667"><ele>674.0</ele><time>2026-04-07T13:11:40Z</time></trkpt><trkpt lat="43.849498441357404" lon="6.171065738451678"><ele>674.0</ele><time>2026-04-07T13:11:41Z</time></trkpt><trkpt lat="43.849350361918255" lon="6.170884046037053"><ele>671.6666666666666</ele><time>2026-04-07T13:11:42Z</time></trkpt><trkpt lat="43.84921784112537" lon="6.170680665211094"><ele>669.3333333333334</ele><time>2026-04-07T13:11:43Z</time></trkpt><trkpt lat="43.849109904364795" lon="6.170455973772627"><ele>667.0</ele><time>2026-04-07T13:11:44Z</time></trkpt><trkpt lat="43.84901872209892" lon="6.170217604027142"><ele>667.0</ele><time>2026-04-07T13:11:45Z</time></trkpt><trkpt lat="43.84894117114438" lon="6.1699699877773675"><ele>667.0</ele><time>2026-04-07T13:11:46Z</time></trkpt><trkpt lat="43.84887534972583" lon="6.169714831756373"><ele>667.0</ele><time>2026-04-07T13:11:47Z</time></trkpt><trkpt lat="43.84881965354031" lon="6.169455925794706"><ele>667.3333333333334</ele><time>2026-04-07T13:11:48Z</time></trkpt><trkpt lat="43.84875893460787" lon="6.169200599569128"><ele>667.6666666666666</ele><time>2026-04-07T13:11:49Z</time></trkpt><trkpt lat="43.84868147630567" lon="6.168955777267255"><ele>668.0</ele><time>2026-04-07T13:11:50Z</time></trkpt><trkpt lat="43.84858738169869" lon="6.168723767901042"><ele>668.6666666666666</ele><time>2026-04-07T13:11:51Z</time></trkpt><trkpt lat="43.84847596886187" lon="6.168502398039456"><ele>669.3333333333334</ele><time>2026-04-07T13:11:52Z</time></trkpt><trkpt lat="43.84835432625035" lon="6.168286329610779"><ele>670.0</ele><time>2026-04-07T13:11:53Z</time></trkpt><trkpt lat="43.848233378944286" lon="6.168073119427341"><ele>667.6666666666667</ele><time>2026-04-07T13:11:54Z</time></trkpt><trkpt lat="43.848110926495245" lon="6.167855021290706"><ele>665.3333333333334</ele><time>2026-04-07T13:11:55Z</time></trkpt><trkpt lat="43.84799575776894" lon="6.167636175143211"><ele>663.0</ele><time>2026-04-07T13:11:56Z</time></trkpt><trkpt lat="43.84788361999864" lon="6.167412553986766"><ele>663.6666666666666</ele><time>2026-04-07T13:11:57Z</time></trkpt><trkpt lat="43.84777047252032" lon="6.167200671980841"><ele>664.3333333333333</ele><time>2026-04-07T13:11:58Z</time></trkpt><trkpt lat="43.84765185526668" lon="6.166991528418975"><ele>665.0</ele><time>2026-04-07T13:11:59Z</time></trkpt><trkpt lat="43.84753259640953" lon="6.166778721476117"><ele>662.3333333333333</ele><time>2026-04-07T13:12:00Z</time></trkpt><trkpt lat="43.84741561246987" lon="6.166565979967886"><ele>659.6666666666666</ele><time>2026-04-07T13:12:01Z</time></trkpt><trkpt lat="43.84729721359794" lon="6.16635053207308"><ele>657.0</ele><time>2026-04-07T13:12:02Z</time></trkpt><trkpt lat="43.84717950941001" lon="6.166137602560234"><ele>657.0</ele><time>2026-04-07T13:12:03Z</time></trkpt><trkpt lat="43.84706252175543" lon="6.165926997736891"><ele>657.0</ele><time>2026-04-07T13:12:04Z</time></trkpt><trkpt lat="43.84695343202714" lon="6.165723165994986"><ele>657.0</ele><time>2026-04-07T13:12:05Z</time></trkpt><trkpt lat="43.84686062464086" lon="6.165534036692896"><ele>655.3333333333334</ele><time>2026-04-07T13:12:06Z</time></trkpt><trkpt lat="43.84672471186958" lon="6.165305145256699"><ele>653.6666666666667</ele><time>2026-04-07T13:12:07Z</time></trkpt><trkpt lat="43.84661636685208" lon="6.16509360972199"><ele>652.0</ele><time>2026-04-07T13:12:08Z</time></trkpt><trkpt lat="43.84650619124099" lon="6.164890214392403"><ele>654.5</ele><time>2026-04-07T13:12:09Z</time></trkpt><trkpt lat="43.84628538331249" lon="6.164481090895794"><ele>657.0</ele><time>2026-04-07T13:12:11Z</time></trkpt><trkpt lat="43.84617419057484" lon="6.164275129909522"><ele>657.0</ele><time>2026-04-07T13:12:12.001Z</time></trkpt><trkpt lat="43.84606518376104" lon="6.164068235146712"><ele>657.0</ele><time>2026-04-07T13:12:13.001Z</time></trkpt><trkpt lat="43.84595471789457" lon="6.163865145344062"><ele>657.0</ele><time>2026-04-07T13:12:14.001Z</time></trkpt><trkpt lat="43.8458417645321" lon="6.163661395749851"><ele>657.3333333333334</ele><time>2026-04-07T13:12:15.001Z</time></trkpt><trkpt lat="43.84572770358412" lon="6.16345940128014"><ele>657.6666666666667</ele><time>2026-04-07T13:12:16Z</time></trkpt><trkpt lat="43.845611335185204" lon="6.163250153116376"><ele>658.0</ele><time>2026-04-07T13:12:17Z</time></trkpt><trkpt lat="43.84550244731892" lon="6.1630440701660865"><ele>658.0</ele><time>2026-04-07T13:12:18Z</time></trkpt><trkpt lat="43.84539131038844" lon="6.162839011466426"><ele>658.0</ele><time>2026-04-07T13:12:19Z</time></trkpt><trkpt lat="43.845274173040806" lon="6.16264001513088"><ele>658.0</ele><time>2026-04-07T13:12:20Z</time></trkpt><trkpt lat="43.84516077655282" lon="6.162445991298681"><ele>656.0</ele><time>2026-04-07T13:12:21Z</time></trkpt><trkpt lat="43.84505281500577" lon="6.162256886772502"><ele>654.0</ele><time>2026-04-07T13:12:22Z</time></trkpt><trkpt lat="43.84494838079061" lon="6.1620683190433265"><ele>652.0</ele><time>2026-04-07T13:12:23Z</time></trkpt><trkpt lat="43.84483789609506" lon="6.161883183458025"><ele>652.0</ele><time>2026-04-07T13:12:24Z</time></trkpt><trkpt lat="43.8447288427609" lon="6.161709106839387"><ele>652.0</ele><time>2026-04-07T13:12:25Z</time></trkpt><trkpt lat="43.84462687650865" lon="6.161572326565534"><ele>652.0</ele><time>2026-04-07T13:12:26Z</time></trkpt><trkpt lat="43.84452783606323" lon="6.161486363555581"><ele>652.0</ele><time>2026-04-07T13:12:27Z</time></trkpt><trkpt lat="43.84442756291285" lon="6.161440442925554"><ele>653.0</ele><time>2026-04-07T13:12:28Z</time></trkpt><trkpt lat="43.84432036535555" lon="6.161410033837145"><ele>654.0</ele><time>2026-04-07T13:12:29Z</time></trkpt><trkpt lat="43.844209408583296" lon="6.161392305655732"><ele>655.0</ele><time>2026-04-07T13:12:30Z</time></trkpt><trkpt lat="43.84410104372039" lon="6.16133211996303"><ele>656.0</ele><time>2026-04-07T13:12:31Z</time></trkpt><trkpt lat="43.84400437694847" lon="6.161234876787156"><ele>654.0</ele><time>2026-04-07T13:12:32Z</time></trkpt><trkpt lat="43.84389206286359" lon="6.161142501710445"><ele>652.0</ele><time>2026-04-07T13:12:33Z</time></trkpt><trkpt lat="43.84385256884069" lon="6.160898742570777"><ele>650.0</ele><time>2026-04-07T13:12:34Z</time></trkpt><trkpt lat="43.843774690521016" lon="6.160685351216328"><ele>650.0</ele><time>2026-04-07T13:12:35Z</time></trkpt><trkpt lat="43.843682974658876" lon="6.160473345064139"><ele>650.0</ele><time>2026-04-07T13:12:36Z</time></trkpt><trkpt lat="43.84361054901171" lon="6.160254741797505"><ele>650.0</ele><time>2026-04-07T13:12:37Z</time></trkpt><trkpt lat="43.84353180492978" lon="6.160038915657094"><ele>648.6666666666666</ele><time>2026-04-07T13:12:38Z</time></trkpt><trkpt lat="43.84344681765809" lon="6.159833008597232"><ele>647.3333333333334</ele><time>2026-04-07T13:12:39Z</time></trkpt><trkpt lat="43.84336012049841" lon="6.15962595652798"><ele>646.0</ele><time>2026-04-07T13:12:40Z</time></trkpt><trkpt lat="43.84328347564385" lon="6.159420688732979"><ele>646.0</ele><time>2026-04-07T13:12:41Z</time></trkpt><trkpt lat="43.84325961902357" lon="6.159202982648294"><ele>646.0</ele><time>2026-04-07T13:12:42Z</time></trkpt><trkpt lat="43.84327479366282" lon="6.159001053406645"><ele>646.0</ele><time>2026-04-07T13:12:43Z</time></trkpt><trkpt lat="43.84334402696686" lon="6.1588121914829586"><ele>646.0</ele><time>2026-04-07T13:12:44Z</time></trkpt><trkpt lat="43.84343439302529" lon="6.158612472451873"><ele>646.0</ele><time>2026-04-07T13:12:45Z</time></trkpt><trkpt lat="43.84352559305856" lon="6.1584074856005095"><ele>646.0</ele><time>2026-04-07T13:12:46Z</time></trkpt><trkpt lat="43.84363129647728" lon="6.158204796269332"><ele>647.0</ele><time>2026-04-07T13:12:47Z</time></trkpt><trkpt lat="43.843729174945175" lon="6.158004966369772"><ele>648.0</ele><time>2026-04-07T13:12:48Z</time></trkpt><trkpt lat="43.84382987918237" lon="6.15780619474153"><ele>649.0</ele><time>2026-04-07T13:12:49Z</time></trkpt><trkpt lat="43.84391611094875" lon="6.157608549112021"><ele>649.0</ele><time>2026-04-07T13:12:50Z</time></trkpt><trkpt lat="43.843967750113684" lon="6.157398143622086"><ele>649.0</ele><time>2026-04-07T13:12:51Z</time></trkpt><trkpt lat="43.84398502341499" lon="6.157178830156911"><ele>649.0</ele><time>2026-04-07T13:12:52Z</time></trkpt><trkpt lat="43.84397625367159" lon="6.156949544763945"><ele>648.75</ele><time>2026-04-07T13:12:53Z</time></trkpt><trkpt lat="43.844005761410294" lon="6.156761513610953"><ele>648.5</ele><time>2026-04-07T13:12:54Z</time></trkpt><trkpt lat="43.84407767035939" lon="6.156612272117362"><ele>648.25</ele><time>2026-04-07T13:12:55Z</time></trkpt><trkpt lat="43.84418298018327" lon="6.156476881507157"><ele>648.0</ele><time>2026-04-07T13:12:56Z</time></trkpt><trkpt lat="43.84433600198633" lon="6.1564184543379685"><ele>648.0</ele><time>2026-04-07T13:12:57Z</time></trkpt><trkpt lat="43.84450098765757" lon="6.156362830265638"><ele>648.0</ele><time>2026-04-07T13:12:58Z</time></trkpt><trkpt lat="43.84467571029511" lon="6.156301595019558"><ele>648.0</ele><time>2026-04-07T13:12:59Z</time></trkpt><trkpt lat="43.84483924807052" lon="6.156253527378531"><ele>648.0</ele><time>2026-04-07T13:13:00Z</time></trkpt><trkpt lat="43.8449884630631" lon="6.156184188435953"><ele>648.0</ele><time>2026-04-07T13:13:01Z</time></trkpt><trkpt lat="43.84511793572977" lon="6.156058107307105"><ele>648.0</ele><time>2026-04-07T13:13:02Z</time></trkpt><trkpt lat="43.84523343413212" lon="6.155883705974677"><ele>648.0</ele><time>2026-04-07T13:13:03Z</time></trkpt><trkpt lat="43.84532331678197" lon="6.155666776676722"><ele>648.0</ele><time>2026-04-07T13:13:04Z</time></trkpt><trkpt lat="43.845406861654155" lon="6.1554478263089125"><ele>648.0</ele><time>2026-04-07T13:13:05Z</time></trkpt><trkpt lat="43.84548795263557" lon="6.155233399609091"><ele>648.0</ele><time>2026-04-07T13:13:06Z</time></trkpt><trkpt lat="43.845572489326884" lon="6.155029230943354"><ele>648.0</ele><time>2026-04-07T13:13:07Z</time></trkpt><trkpt lat="43.845660250077486" lon="6.1548141464950685"><ele>648.0</ele><time>2026-04-07T13:13:08Z</time></trkpt><trkpt lat="43.84574454950251" lon="6.1546038870857105"><ele>648.0</ele><time>2026-04-07T13:13:09Z</time></trkpt><trkpt lat="43.845820271552775" lon="6.1543876267921505"><ele>648.0</ele><time>2026-04-07T13:13:10Z</time></trkpt><trkpt lat="43.84587426295467" lon="6.154164252058982"><ele>648.0</ele><time>2026-04-07T13:13:11Z</time></trkpt><trkpt lat="43.84590652534228" lon="6.153919602651041"><ele>648.0</ele><time>2026-04-07T13:13:12Z</time></trkpt><trkpt lat="43.845932230189604" lon="6.15367365914772"><ele>648.0</ele><time>2026-04-07T13:13:13Z</time></trkpt><trkpt lat="43.84599403195189" lon="6.15344750378849"><ele>648.0</ele><time>2026-04-07T13:13:14Z</time></trkpt><trkpt lat="43.84608273476294" lon="6.153246276395684"><ele>650.3333333333334</ele><time>2026-04-07T13:13:15Z</time></trkpt><trkpt lat="43.84619011888462" lon="6.153031917894206"><ele>652.6666666666667</ele><time>2026-04-07T13:13:16Z</time></trkpt><trkpt lat="43.846293122335254" lon="6.152825025331095"><ele>655.0</ele><time>2026-04-07T13:13:17Z</time></trkpt><trkpt lat="43.846400781224766" lon="6.15262545443065"><ele>655.0</ele><time>2026-04-07T13:13:18Z</time></trkpt><trkpt lat="43.84649499156785" lon="6.152432787857589"><ele>655.0</ele><time>2026-04-07T13:13:19Z</time></trkpt><trkpt lat="43.8465854689273" lon="6.152240230502503"><ele>655.0</ele><time>2026-04-07T13:13:20Z</time></trkpt><trkpt lat="43.846686335749006" lon="6.152046715631455"><ele>654.3333333333334</ele><time>2026-04-07T13:13:21Z</time></trkpt><trkpt lat="43.846788160919075" lon="6.151861699632067"><ele>653.6666666666666</ele><time>2026-04-07T13:13:22Z</time></trkpt><trkpt lat="43.84689737931081" lon="6.151678571427542"><ele>653.0</ele><time>2026-04-07T13:13:23Z</time></trkpt><trkpt lat="43.84703665256908" lon="6.15155457446108"><ele>653.6666666666666</ele><time>2026-04-07T13:13:24Z</time></trkpt><trkpt lat="43.84718037612881" lon="6.1514799031636915"><ele>654.3333333333334</ele><time>2026-04-07T13:13:25Z</time></trkpt><trkpt lat="43.847348627355174" lon="6.151442621337165"><ele>655.0</ele><time>2026-04-07T13:13:26Z</time></trkpt><trkpt lat="43.847528023459056" lon="6.1513858960415835"><ele>655.6666666666667</ele><time>2026-04-07T13:13:27Z</time></trkpt><trkpt lat="43.847716609394325" lon="6.151363058724151"><ele>656.3333333333334</ele><time>2026-04-07T13:13:28Z</time></trkpt><trkpt lat="43.847898331243286" lon="6.151334095840619"><ele>657.0</ele><time>2026-04-07T13:13:29Z</time></trkpt><trkpt lat="43.848072037361206" lon="6.15129908378046"><ele>657.0</ele><time>2026-04-07T13:13:30Z</time></trkpt><trkpt lat="43.84824242665387" lon="6.151266132843033"><ele>657.0</ele><time>2026-04-07T13:13:31Z</time></trkpt><trkpt lat="43.84842147462723" lon="6.151228387691959"><ele>657.0</ele><time>2026-04-07T13:13:32Z</time></trkpt><trkpt lat="43.848596572534774" lon="6.151198782362917"><ele>656.3333333333334</ele><time>2026-04-07T13:13:33Z</time></trkpt><trkpt lat="43.84877445841559" lon="6.151170568417549"><ele>655.6666666666667</ele><time>2026-04-07T13:13:34Z</time></trkpt><trkpt lat="43.84895678381454" lon="6.151139763198303"><ele>655.0</ele><time>2026-04-07T13:13:35Z</time></trkpt><trkpt lat="43.849139977406665" lon="6.151104016919533"><ele>656.3333333333334</ele><time>2026-04-07T13:13:36Z</time></trkpt><trkpt lat="43.849323156304784" lon="6.151069398749222"><ele>657.6666666666666</ele><time>2026-04-07T13:13:37Z</time></trkpt><trkpt lat="43.849500253595544" lon="6.15104188479069"><ele>659.0</ele><time>2026-04-07T13:13:38Z</time></trkpt><trkpt lat="43.84967039193885" lon="6.151013008012452"><ele>659.0</ele><time>2026-04-07T13:13:39Z</time></trkpt><trkpt lat="43.84983476056592" lon="6.150980624163086"><ele>659.0</ele><time>2026-04-07T13:13:40Z</time></trkpt><trkpt lat="43.849985975591466" lon="6.150954298919903"><ele>659.0</ele><time>2026-04-07T13:13:41Z</time></trkpt><trkpt lat="43.85012003886014" lon="6.150937635826717"><ele>658.25</ele><time>2026-04-07T13:13:42Z</time></trkpt><trkpt lat="43.85022771733347" lon="6.150898364625381"><ele>657.5</ele><time>2026-04-07T13:13:43Z</time></trkpt><trkpt lat="43.850303091070394" lon="6.150785743788246"><ele>656.75</ele><time>2026-04-07T13:13:44Z</time></trkpt><trkpt lat="43.85035019063504" lon="6.150635058421187"><ele>656.0</ele><time>2026-04-07T13:13:45Z</time></trkpt><trkpt lat="43.85035401372036" lon="6.150438677285931"><ele>653.6666666666666</ele><time>2026-04-07T13:13:46Z</time></trkpt><trkpt lat="43.85032616092549" lon="6.15023029587831"><ele>651.3333333333334</ele><time>2026-04-07T13:13:47Z</time></trkpt><trkpt lat="43.85028417220074" lon="6.150010912349415"><ele>649.0</ele><time>2026-04-07T13:13:48Z</time></trkpt><trkpt lat="43.850268901630066" lon="6.149779676288789"><ele>649.0</ele><time>2026-04-07T13:13:49Z</time></trkpt><trkpt lat="43.85023196509578" lon="6.149562975884986"><ele>649.0</ele><time>2026-04-07T13:13:50Z</time></trkpt><trkpt lat="43.850211730481995" lon="6.1493398027630475"><ele>649.0</ele><time>2026-04-07T13:13:51Z</time></trkpt><trkpt lat="43.850182033767474" lon="6.149123975329944"><ele>649.0</ele><time>2026-04-07T13:13:52Z</time></trkpt><trkpt lat="43.85014358041926" lon="6.148914430148775"><ele>649.0</ele><time>2026-04-07T13:13:53Z</time></trkpt><trkpt lat="43.85012715572149" lon="6.148710508366116"><ele>649.0</ele><time>2026-04-07T13:13:54Z</time></trkpt><trkpt lat="43.85010401039698" lon="6.1485226053345"><ele>649.0</ele><time>2026-04-07T13:13:55Z</time></trkpt><trkpt lat="43.850116908019714" lon="6.148350754310845"><ele>649.3333333333334</ele><time>2026-04-07T13:13:56Z</time></trkpt><trkpt lat="43.85019101226193" lon="6.148193488356974"><ele>649.6666666666666</ele><time>2026-04-07T13:13:57Z</time></trkpt><trkpt lat="43.85024280588961" lon="6.147991136226653"><ele>650.0</ele><time>2026-04-07T13:13:58.001Z</time></trkpt><trkpt lat="43.85034314026746" lon="6.147795049661197"><ele>650.0</ele><time>2026-04-07T13:13:59.001Z</time></trkpt><trkpt lat="43.85042300767351" lon="6.147584831962042"><ele>650.0</ele><time>2026-04-07T13:14:00.001Z</time></trkpt><trkpt lat="43.85048437299825" lon="6.147379031856816"><ele>650.0</ele><time>2026-04-07T13:14:01.001Z</time></trkpt><trkpt lat="43.850523595718464" lon="6.147177715064508"><ele>651.0</ele><time>2026-04-07T13:14:02.001Z</time></trkpt><trkpt lat="43.850512243842154" lon="6.146988981893747"><ele>652.0</ele><time>2026-04-07T13:14:03.001Z</time></trkpt><trkpt lat="43.8504655010705" lon="6.146814964381401"><ele>653.0</ele><time>2026-04-07T13:14:04.001Z</time></trkpt><trkpt lat="43.850375108752154" lon="6.146658754579317"><ele>654.0</ele><time>2026-04-07T13:14:05.001Z</time></trkpt><trkpt lat="43.85026228719351" lon="6.146526553580212"><ele>655.5</ele><time>2026-04-07T13:14:06.001Z</time></trkpt><trkpt lat="43.850181611710646" lon="6.14638061045535"><ele>657.0</ele><time>2026-04-07T13:14:07.001Z</time></trkpt><trkpt lat="43.85015169619945" lon="6.146196026521876"><ele>658.5</ele><time>2026-04-07T13:14:08.001Z</time></trkpt><trkpt lat="43.850162005891285" lon="6.145969545694862"><ele>660.0</ele><time>2026-04-07T13:14:09.001Z</time></trkpt><trkpt lat="43.850187353522344" lon="6.145733763451005"><ele>661.3333333333334</ele><time>2026-04-07T13:14:10.001Z</time></trkpt><trkpt lat="43.850211591646264" lon="6.145488110098173"><ele>662.6666666666667</ele><time>2026-04-07T13:14:11.001Z</time></trkpt><trkpt lat="43.85022785173174" lon="6.1452387921211615"><ele>664.0</ele><time>2026-04-07T13:14:12.001Z</time></trkpt><trkpt lat="43.85024131463427" lon="6.1449912063702055"><ele>664.3333333333334</ele><time>2026-04-07T13:14:13.001Z</time></trkpt><trkpt lat="43.85025983453192" lon="6.144754811526524"><ele>664.6666666666666</ele><time>2026-04-07T13:14:14.001Z</time></trkpt><trkpt lat="43.85027427546295" lon="6.144532280296144"><ele>665.0</ele><time>2026-04-07T13:14:15.001Z</time></trkpt><trkpt lat="43.8502821209761" lon="6.14431242075108"><ele>665.0</ele><time>2026-04-07T13:14:16.001Z</time></trkpt><trkpt lat="43.850293715933205" lon="6.144101230200357"><ele>665.0</ele><time>2026-04-07T13:14:17.001Z</time></trkpt><trkpt lat="43.85032605999911" lon="6.143909087705881"><ele>665.0</ele><time>2026-04-07T13:14:18.001Z</time></trkpt><trkpt lat="43.850384870963715" lon="6.143720847740438"><ele>665.0</ele><time>2026-04-07T13:14:19.001Z</time></trkpt><trkpt lat="43.850470414006836" lon="6.143537321532599"><ele>665.3333333333333</ele><time>2026-04-07T13:14:20.001Z</time></trkpt><trkpt lat="43.85057483965055" lon="6.1433696680694965"><ele>665.6666666666666</ele><time>2026-04-07T13:14:21.001Z</time></trkpt><trkpt lat="43.85069630529767" lon="6.143205878011416"><ele>666.0</ele><time>2026-04-07T13:14:22.001Z</time></trkpt><trkpt lat="43.85083058425643" lon="6.143060488541988"><ele>665.6666666666666</ele><time>2026-04-07T13:14:23.001Z</time></trkpt><trkpt lat="43.85097752673208" lon="6.142949484621643"><ele>665.3333333333333</ele><time>2026-04-07T13:14:24.001Z</time></trkpt><trkpt lat="43.85112529612178" lon="6.142857790978627"><ele>665.0</ele><time>2026-04-07T13:14:25.001Z</time></trkpt><trkpt lat="43.85126972662271" lon="6.142740661114896"><ele>665.0</ele><time>2026-04-07T13:14:26.001Z</time></trkpt><trkpt lat="43.85139217313289" lon="6.142567338615749"><ele>665.0</ele><time>2026-04-07T13:14:27.001Z</time></trkpt><trkpt lat="43.85150687599962" lon="6.142382089641436"><ele>665.0</ele><time>2026-04-07T13:14:28.001Z</time></trkpt><trkpt lat="43.85163005016287" lon="6.142195342489842"><ele>663.3333333333333</ele><time>2026-04-07T13:14:29.001Z</time></trkpt><trkpt lat="43.851761192091104" lon="6.142015473829962"><ele>661.6666666666666</ele><time>2026-04-07T13:14:30.001Z</time></trkpt><trkpt lat="43.85189020738186" lon="6.141842914374284"><ele>660.0</ele><time>2026-04-07T13:14:31.001Z</time></trkpt><trkpt lat="43.85201976257139" lon="6.141685540128575"><ele>659.6666666666666</ele><time>2026-04-07T13:14:32.001Z</time></trkpt><trkpt lat="43.85215595914029" lon="6.141541547881081"><ele>659.3333333333333</ele><time>2026-04-07T13:14:33.001Z</time></trkpt><trkpt lat="43.852298918886035" lon="6.141405226093525"><ele>659.0</ele><time>2026-04-07T13:14:34Z</time></trkpt><trkpt lat="43.85243769670013" lon="6.141264395083422"><ele>659.0</ele><time>2026-04-07T13:14:35Z</time></trkpt><trkpt lat="43.852566012185406" lon="6.141102540360811"><ele>659.0</ele><time>2026-04-07T13:14:36Z</time></trkpt><trkpt lat="43.85267827072234" lon="6.140931271441791"><ele>659.0</ele><time>2026-04-07T13:14:37Z</time></trkpt><trkpt lat="43.85278703249453" lon="6.140761797841592"><ele>657.3333333333333</ele><time>2026-04-07T13:14:38Z</time></trkpt><trkpt lat="43.852894115164766" lon="6.140592406562718"><ele>655.6666666666666</ele><time>2026-04-07T13:14:39Z</time></trkpt><trkpt lat="43.8529976716922" lon="6.140434248275548"><ele>654.0</ele><time>2026-04-07T13:14:40Z</time></trkpt><trkpt lat="43.85312015436461" lon="6.140335144464354"><ele>654.0</ele><time>2026-04-07T13:14:41Z</time></trkpt><trkpt lat="43.85324098866284" lon="6.140272517976857"><ele>654.0</ele><time>2026-04-07T13:14:42Z</time></trkpt><trkpt lat="43.85338273313379" lon="6.140297171509773"><ele>654.0</ele><time>2026-04-07T13:14:43Z</time></trkpt><trkpt lat="43.853551988737756" lon="6.140335002033488"><ele>654.0</ele><time>2026-04-07T13:14:44Z</time></trkpt><trkpt lat="43.85373464064301" lon="6.140359381207063"><ele>652.0</ele><time>2026-04-07T13:14:45Z</time></trkpt><trkpt lat="43.85392961026821" lon="6.140412436655502"><ele>650.0</ele><time>2026-04-07T13:14:46Z</time></trkpt><trkpt lat="43.854134852768816" lon="6.140455541910637"><ele>648.0</ele><time>2026-04-07T13:14:47Z</time></trkpt><trkpt lat="43.854330267482695" lon="6.1404994706769"><ele>648.0</ele><time>2026-04-07T13:14:48Z</time></trkpt><trkpt lat="43.854519970914026" lon="6.140546651393764"><ele>648.0</ele><time>2026-04-07T13:14:49Z</time></trkpt><trkpt lat="43.854711107386684" lon="6.140590963240629"><ele>648.0</ele><time>2026-04-07T13:14:50Z</time></trkpt><trkpt lat="43.85490669939579" lon="6.140632503424958"><ele>648.0</ele><time>2026-04-07T13:14:51Z</time></trkpt><trkpt lat="43.855101237941184" lon="6.140668349053665"><ele>648.0</ele><time>2026-04-07T13:14:52Z</time></trkpt><trkpt lat="43.855283836645924" lon="6.14070967199627"><ele>648.0</ele><time>2026-04-07T13:14:53Z</time></trkpt><trkpt lat="43.85545852844498" lon="6.140751370222449"><ele>647.0</ele><time>2026-04-07T13:14:54Z</time></trkpt><trkpt lat="43.855631113675884" lon="6.140776338382255"><ele>646.0</ele><time>2026-04-07T13:14:55Z</time></trkpt><trkpt lat="43.855810249137384" lon="6.140761073548357"><ele>645.0</ele><time>2026-04-07T13:14:56Z</time></trkpt><trkpt lat="43.855987779791185" lon="6.140700456660684"><ele>645.0</ele><time>2026-04-07T13:14:57Z</time></trkpt><trkpt lat="43.856172310257584" lon="6.140622794576693"><ele>645.0</ele><time>2026-04-07T13:14:58Z</time></trkpt><trkpt lat="43.85635165044682" lon="6.140555377245559"><ele>645.0</ele><time>2026-04-07T13:14:59Z</time></trkpt><trkpt lat="43.856525391376024" lon="6.14049415225353"><ele>645.0</ele><time>2026-04-07T13:15:00Z</time></trkpt><trkpt lat="43.85669740339486" lon="6.140437056022951"><ele>645.0</ele><time>2026-04-07T13:15:01Z</time></trkpt><trkpt lat="43.85686393707046" lon="6.1403836726284675"><ele>645.0</ele><time>2026-04-07T13:15:02Z</time></trkpt><trkpt lat="43.85702714684655" lon="6.140324883844004"><ele>640.3333333333334</ele><time>2026-04-07T13:15:03Z</time></trkpt><trkpt lat="43.85718153409081" lon="6.140224695275022"><ele>635.6666666666667</ele><time>2026-04-07T13:15:04Z</time></trkpt><trkpt lat="43.85733966008324" lon="6.140079615097296"><ele>631.0</ele><time>2026-04-07T13:15:05Z</time></trkpt><trkpt lat="43.85749100857085" lon="6.1398969890958"><ele>630.0</ele><time>2026-04-07T13:15:06Z</time></trkpt><trkpt lat="43.85764966474939" lon="6.1397115755499065"><ele>629.0</ele><time>2026-04-07T13:15:07Z</time></trkpt><trkpt lat="43.8578114357971" lon="6.1395389754058325"><ele>628.0</ele><time>2026-04-07T13:15:08Z</time></trkpt><trkpt lat="43.85797617754621" lon="6.1393888342524185"><ele>628.0</ele><time>2026-04-07T13:15:09Z</time></trkpt><trkpt lat="43.858156793309874" lon="6.1393002606565075"><ele>628.0</ele><time>2026-04-07T13:15:10Z</time></trkpt><trkpt lat="43.85832520998299" lon="6.139186237340981"><ele>628.0</ele><time>2026-04-07T13:15:11Z</time></trkpt><trkpt lat="43.85849207125544" lon="6.139087320121482"><ele>627.3333333333334</ele><time>2026-04-07T13:15:12Z</time></trkpt><trkpt lat="43.85865445761661" lon="6.138961035696937"><ele>626.6666666666666</ele><time>2026-04-07T13:15:13Z</time></trkpt><trkpt lat="43.85879871891845" lon="6.138824768544633"><ele>626.0</ele><time>2026-04-07T13:15:14Z</time></trkpt><trkpt lat="43.85893163434396" lon="6.138696422281102"><ele>626.0</ele><time>2026-04-07T13:15:15Z</time></trkpt><trkpt lat="43.859060068314015" lon="6.138568199484337"><ele>626.0</ele><time>2026-04-07T13:15:16Z</time></trkpt><trkpt lat="43.85917469797781" lon="6.138430587766059"><ele>626.0</ele><time>2026-04-07T13:15:17Z</time></trkpt><trkpt lat="43.85926933888058" lon="6.138277342945738"><ele>624.5</ele><time>2026-04-07T13:15:18Z</time></trkpt><trkpt lat="43.85935174083858" lon="6.138118414974554"><ele>623.0</ele><time>2026-04-07T13:15:19Z</time></trkpt><trkpt lat="43.85944235278847" lon="6.137968498412349"><ele>621.5</ele><time>2026-04-07T13:15:20Z</time></trkpt><trkpt lat="43.85956037944098" lon="6.137852055683214"><ele>620.0</ele><time>2026-04-07T13:15:21Z</time></trkpt><trkpt lat="43.85970227088156" lon="6.137826639936573"><ele>620.0</ele><time>2026-04-07T13:15:22Z</time></trkpt><trkpt lat="43.85986427901326" lon="6.13782340742879"><ele>620.0</ele><time>2026-04-07T13:15:23Z</time></trkpt><trkpt lat="43.86003981372021" lon="6.13784011084443"><ele>620.0</ele><time>2026-04-07T13:15:24Z</time></trkpt><trkpt lat="43.8602151356759" lon="6.137850577556272"><ele>619.6666666666666</ele><time>2026-04-07T13:15:25Z</time></trkpt><trkpt lat="43.86038064762465" lon="6.137882605141264"><ele>619.3333333333334</ele><time>2026-04-07T13:15:26Z</time></trkpt><trkpt lat="43.860531153872266" lon="6.137903395474803"><ele>619.0</ele><time>2026-04-07T13:15:27Z</time></trkpt><trkpt lat="43.86067493027859" lon="6.137900385226409"><ele>619.0</ele><time>2026-04-07T13:15:28Z</time></trkpt><trkpt lat="43.86080071753304" lon="6.13784927133697"><ele>619.0</ele><time>2026-04-07T13:15:29Z</time></trkpt><trkpt lat="43.860916987718696" lon="6.137758379449197"><ele>619.0</ele><time>2026-04-07T13:15:30Z</time></trkpt><trkpt lat="43.86101476819626" lon="6.137622522591624"><ele>619.0</ele><time>2026-04-07T13:15:31Z</time></trkpt><trkpt lat="43.8611175131207" lon="6.137473502474871"><ele>618.6666666666667</ele><time>2026-04-07T13:15:32Z</time></trkpt><trkpt lat="43.86122615546712" lon="6.137328169550824"><ele>618.3333333333334</ele><time>2026-04-07T13:15:33Z</time></trkpt><trkpt lat="43.86134300924891" lon="6.137184224579336"><ele>618.0</ele><time>2026-04-07T13:15:34Z</time></trkpt><trkpt lat="43.8614568958441" lon="6.137035465338847"><ele>618.0</ele><time>2026-04-07T13:15:35Z</time></trkpt><trkpt lat="43.861570254226216" lon="6.136892982429047"><ele>618.0</ele><time>2026-04-07T13:15:36Z</time></trkpt><trkpt lat="43.86167852363444" lon="6.136754298894711"><ele>618.0</ele><time>2026-04-07T13:15:37Z</time></trkpt><trkpt lat="43.86177996983006" lon="6.13661448712139"><ele>618.0</ele><time>2026-04-07T13:15:38Z</time></trkpt><trkpt lat="43.86187503787067" lon="6.136484540785259"><ele>619.75</ele><time>2026-04-07T13:15:39Z</time></trkpt><trkpt lat="43.86196916612953" lon="6.136365285453421"><ele>621.5</ele><time>2026-04-07T13:15:40Z</time></trkpt><trkpt lat="43.862052525481666" lon="6.136261893571205"><ele>623.25</ele><time>2026-04-07T13:15:41Z</time></trkpt><trkpt lat="43.862147760464815" lon="6.136174759278515"><ele>625.0</ele><time>2026-04-07T13:15:42Z</time></trkpt><trkpt lat="43.86226531954851" lon="6.136148616393843"><ele>625.0</ele><time>2026-04-07T13:15:43Z</time></trkpt><trkpt lat="43.86238628256159" lon="6.136234272263297"><ele>625.0</ele><time>2026-04-07T13:15:44Z</time></trkpt><trkpt lat="43.862501915263394" lon="6.136344906073205"><ele>625.0</ele><time>2026-04-07T13:15:45Z</time></trkpt><trkpt lat="43.86263652602576" lon="6.136462294789767"><ele>625.0</ele><time>2026-04-07T13:15:46Z</time></trkpt><trkpt lat="43.86276525683541" lon="6.136602103768377"><ele>625.6666666666667</ele><time>2026-04-07T13:15:47Z</time></trkpt><trkpt lat="43.86290919552591" lon="6.136690220898867"><ele>626.3333333333334</ele><time>2026-04-07T13:15:48Z</time></trkpt><trkpt lat="43.86306217173226" lon="6.136688784112368"><ele>627.0</ele><time>2026-04-07T13:15:49Z</time></trkpt><trkpt lat="43.863218962911" lon="6.1366405472371826"><ele>628.6666666666666</ele><time>2026-04-07T13:15:50Z</time></trkpt><trkpt lat="43.86338244395445" lon="6.136544266701841"><ele>630.3333333333333</ele><time>2026-04-07T13:15:51Z</time></trkpt><trkpt lat="43.86353905444703" lon="6.136449990946401"><ele>632.0</ele><time>2026-04-07T13:15:52Z</time></trkpt><trkpt lat="43.86369402170146" lon="6.136368262353829"><ele>633.3333333333333</ele><time>2026-04-07T13:15:53Z</time></trkpt><trkpt lat="43.863841981106155" lon="6.13628645165494"><ele>634.6666666666666</ele><time>2026-04-07T13:15:54Z</time></trkpt><trkpt lat="43.863989293931056" lon="6.136212739562384"><ele>636.0</ele><time>2026-04-07T13:15:55Z</time></trkpt><trkpt lat="43.86413123877736" lon="6.136152708143601"><ele>636.0</ele><time>2026-04-07T13:15:56Z</time></trkpt><trkpt lat="43.86427378150552" lon="6.136114791699913"><ele>636.0</ele><time>2026-04-07T13:15:57Z</time></trkpt><trkpt lat="43.86442358103397" lon="6.1361277067878754"><ele>636.0</ele><time>2026-04-07T13:15:58Z</time></trkpt><trkpt lat="43.864585448630166" lon="6.136126811963696"><ele>637.3333333333334</ele><time>2026-04-07T13:15:59Z</time></trkpt><trkpt lat="43.86475493908313" lon="6.1361651988130745"><ele>638.6666666666667</ele><time>2026-04-07T13:16:00Z</time></trkpt><trkpt lat="43.86492335495736" lon="6.136200706103517"><ele>640.0</ele><time>2026-04-07T13:16:01.001Z</time></trkpt><trkpt lat="43.8650856461957" lon="6.136225528068589"><ele>640.6666666666667</ele><time>2026-04-07T13:16:02.001Z</time></trkpt><trkpt lat="43.86525455911769" lon="6.136242956983963"><ele>641.3333333333334</ele><time>2026-04-07T13:16:03.001Z</time></trkpt><trkpt lat="43.86542084692973" lon="6.1362625163685"><ele>642.0</ele><time>2026-04-07T13:16:04.001Z</time></trkpt><trkpt lat="43.865587208834015" lon="6.136286614629094"><ele>642.0</ele><time>2026-04-07T13:16:05.001Z</time></trkpt><trkpt lat="43.86575436727201" lon="6.136313995936841"><ele>642.0</ele><time>2026-04-07T13:16:06.001Z</time></trkpt><trkpt lat="43.8659125762413" lon="6.136335353855915"><ele>642.0</ele><time>2026-04-07T13:16:07.001Z</time></trkpt><trkpt lat="43.86607359155112" lon="6.136348700335098"><ele>643.6666666666666</ele><time>2026-04-07T13:16:08.001Z</time></trkpt><trkpt lat="43.8662255506611" lon="6.136362494936961"><ele>645.3333333333333</ele><time>2026-04-07T13:16:09.001Z</time></trkpt><trkpt lat="43.86637147190381" lon="6.1363846162114895"><ele>647.0</ele><time>2026-04-07T13:16:10.001Z</time></trkpt><trkpt lat="43.86652128247249" lon="6.136413812816448"><ele>647.0</ele><time>2026-04-07T13:16:11.001Z</time></trkpt><trkpt lat="43.866669935763134" lon="6.136433161370341"><ele>647.0</ele><time>2026-04-07T13:16:12.001Z</time></trkpt><trkpt lat="43.866806087279194" lon="6.136456166404868"><ele>647.0</ele><time>2026-04-07T13:16:13.001Z</time></trkpt><trkpt lat="43.86695091403485" lon="6.13647697860664"><ele>647.0</ele><time>2026-04-07T13:16:14.001Z</time></trkpt><trkpt lat="43.86708708547168" lon="6.136489183231142"><ele>649.0</ele><time>2026-04-07T13:16:15.001Z</time></trkpt><trkpt lat="43.86720047335678" lon="6.136461631813651"><ele>651.0</ele><time>2026-04-07T13:16:16.001Z</time></trkpt><trkpt lat="43.867316194149836" lon="6.136404623532146"><ele>653.0</ele><time>2026-04-07T13:16:17.001Z</time></trkpt><trkpt lat="43.867387786356474" lon="6.136309408403782"><ele>655.0</ele><time>2026-04-07T13:16:18.001Z</time></trkpt><trkpt lat="43.8674197276704" lon="6.13615075452577"><ele>655.0</ele><time>2026-04-07T13:16:19.001Z</time></trkpt><trkpt lat="43.86742790931979" lon="6.135968502844517"><ele>655.0</ele><time>2026-04-07T13:16:20.001Z</time></trkpt><trkpt lat="43.86743233623353" lon="6.135768686736403"><ele>655.0</ele><time>2026-04-07T13:16:21.001Z</time></trkpt><trkpt lat="43.86745817008694" lon="6.135579245564968"><ele>655.0</ele><time>2026-04-07T13:16:22.001Z</time></trkpt><trkpt lat="43.867560749026914" lon="6.1354234844575375"><ele>657.6666666666667</ele><time>2026-04-07T13:16:23.001Z</time></trkpt><trkpt lat="43.86767969770198" lon="6.1352823352501415"><ele>660.3333333333334</ele><time>2026-04-07T13:16:24.001Z</time></trkpt><trkpt lat="43.86779078191449" lon="6.1351396359617985"><ele>663.0</ele><time>2026-04-07T13:16:25.001Z</time></trkpt><trkpt lat="43.86791324177666" lon="6.135040944764543"><ele>663.0</ele><time>2026-04-07T13:16:26.001Z</time></trkpt><trkpt lat="43.868007766633475" lon="6.134929532110272"><ele>663.0</ele><time>2026-04-07T13:16:27.001Z</time></trkpt><trkpt lat="43.86807429108364" lon="6.134799502655798"><ele>663.0</ele><time>2026-04-07T13:16:28.001Z</time></trkpt><trkpt lat="43.86810393490156" lon="6.134649426091919"><ele>663.0</ele><time>2026-04-07T13:16:29.001Z</time></trkpt><trkpt lat="43.86808529496538" lon="6.134481002967577"><ele>664.25</ele><time>2026-04-07T13:16:30.001Z</time></trkpt><trkpt lat="43.86802855289718" lon="6.134319388120377"><ele>665.5</ele><time>2026-04-07T13:16:31.001Z</time></trkpt><trkpt lat="43.86793721261237" lon="6.134173336586696"><ele>666.75</ele><time>2026-04-07T13:16:32.001Z</time></trkpt><trkpt lat="43.86782375364515" lon="6.1340505575994575"><ele>668.0</ele><time>2026-04-07T13:16:33.001Z</time></trkpt><trkpt lat="43.8677048266726" lon="6.133922459916073"><ele>668.6666666666666</ele><time>2026-04-07T13:16:34.001Z</time></trkpt><trkpt lat="43.86758794580291" lon="6.133782223558407"><ele>669.3333333333334</ele><time>2026-04-07T13:16:35Z</time></trkpt><trkpt lat="43.86747519367612" lon="6.133632848748745"><ele>670.0</ele><time>2026-04-07T13:16:36Z</time></trkpt><trkpt lat="43.867365325790544" lon="6.1334926645626195"><ele>670.0</ele><time>2026-04-07T13:16:37Z</time></trkpt><trkpt lat="43.86724227769278" lon="6.1333880037432875"><ele>670.0</ele><time>2026-04-07T13:16:38Z</time></trkpt><trkpt lat="43.86710530350033" lon="6.133325066606909"><ele>670.0</ele><time>2026-04-07T13:16:39Z</time></trkpt><trkpt lat="43.866958980099426" lon="6.133320752123164"><ele>670.0</ele><time>2026-04-07T13:16:40Z</time></trkpt><trkpt lat="43.866821561245466" lon="6.133284595513439"><ele>673.0</ele><time>2026-04-07T13:16:41Z</time></trkpt><trkpt lat="43.86669801573533" lon="6.133193792173114"><ele>676.0</ele><time>2026-04-07T13:16:42Z</time></trkpt><trkpt lat="43.86656378697121" lon="6.133123066557136"><ele>679.0</ele><time>2026-04-07T13:16:43Z</time></trkpt><trkpt lat="43.866436287701646" lon="6.133018478290025"><ele>682.0</ele><time>2026-04-07T13:16:44Z</time></trkpt><trkpt lat="43.86631338508562" lon="6.1329203855506975"><ele>682.0</ele><time>2026-04-07T13:16:45Z</time></trkpt><trkpt lat="43.866188141141855" lon="6.132831046658369"><ele>682.0</ele><time>2026-04-07T13:16:46Z</time></trkpt><trkpt lat="43.86605999863251" lon="6.13274616744194"><ele>682.0</ele><time>2026-04-07T13:16:47Z</time></trkpt><trkpt lat="43.86592999871525" lon="6.1326573934624244"><ele>682.0</ele><time>2026-04-07T13:16:48Z</time></trkpt><trkpt lat="43.86580118943674" lon="6.132554320996867"><ele>681.25</ele><time>2026-04-07T13:16:49Z</time></trkpt><trkpt lat="43.865679674287996" lon="6.132434474470609"><ele>680.5</ele><time>2026-04-07T13:16:50Z</time></trkpt><trkpt lat="43.86556375120204" lon="6.132313587006744"><ele>679.75</ele><time>2026-04-07T13:16:51Z</time></trkpt><trkpt lat="43.865461307951904" lon="6.132202521011961"><ele>679.0</ele><time>2026-04-07T13:16:52Z</time></trkpt><trkpt lat="43.86537322630595" lon="6.13207178531918"><ele>682.0</ele><time>2026-04-07T13:16:53Z</time></trkpt><trkpt lat="43.86529752122896" lon="6.131934321517839"><ele>685.0</ele><time>2026-04-07T13:16:54Z</time></trkpt><trkpt lat="43.865299763812416" lon="6.1317432149122375"><ele>688.0</ele><time>2026-04-07T13:16:55Z</time></trkpt><trkpt lat="43.86528400372677" lon="6.131546578900723"><ele>691.0</ele><time>2026-04-07T13:16:56Z</time></trkpt><trkpt lat="43.86530388558975" lon="6.131355487554375"><ele>692.25</ele><time>2026-04-07T13:16:57Z</time></trkpt><trkpt lat="43.86531029398165" lon="6.131163897781503"><ele>693.5</ele><time>2026-04-07T13:16:58Z</time></trkpt><trkpt lat="43.86528712823322" lon="6.130984283825706"><ele>694.75</ele><time>2026-04-07T13:16:59Z</time></trkpt><trkpt lat="43.86523224338593" lon="6.130812126695808"><ele>696.0</ele><time>2026-04-07T13:17:00Z</time></trkpt><trkpt lat="43.865151443215744" lon="6.130649043481597"><ele>695.25</ele><time>2026-04-07T13:17:01Z</time></trkpt><trkpt lat="43.865059215341" lon="6.13050019695647"><ele>694.5</ele><time>2026-04-07T13:17:02Z</time></trkpt><trkpt lat="43.86497262533369" lon="6.130341745106574"><ele>693.75</ele><time>2026-04-07T13:17:03Z</time></trkpt><trkpt lat="43.86489653727297" lon="6.13018674790701"><ele>693.0</ele><time>2026-04-07T13:17:04Z</time></trkpt><trkpt lat="43.86482400839857" lon="6.1300291913185685"><ele>693.0</ele><time>2026-04-07T13:17:05Z</time></trkpt><trkpt lat="43.86475035521383" lon="6.12989185159407"><ele>693.0</ele><time>2026-04-07T13:17:06Z</time></trkpt><trkpt lat="43.86466305124156" lon="6.1297679887189185"><ele>693.0</ele><time>2026-04-07T13:17:07Z</time></trkpt><trkpt lat="43.86456860133632" lon="6.129651668033983"><ele>693.0</ele><time>2026-04-07T13:17:08Z</time></trkpt><trkpt lat="43.864472370987876" lon="6.129547094137122"><ele>693.0</ele><time>2026-04-07T13:17:09Z</time></trkpt><trkpt lat="43.864381485241225" lon="6.129438941748882"><ele>693.0</ele><time>2026-04-07T13:17:10Z</time></trkpt><trkpt lat="43.86429657651523" lon="6.129337547510651"><ele>693.0</ele><time>2026-04-07T13:17:11Z</time></trkpt><trkpt lat="43.86421046357256" lon="6.129245686905338"><ele>693.0</ele><time>2026-04-07T13:17:12Z</time></trkpt><trkpt lat="43.864128029625974" lon="6.12915594467267"><ele>693.0</ele><time>2026-04-07T13:17:13Z</time></trkpt><trkpt lat="43.864051817245816" lon="6.129060453617469"><ele>693.6666666666666</ele><time>2026-04-07T13:17:14Z</time></trkpt><trkpt lat="43.8639838179091" lon="6.1289665833510565"><ele>694.3333333333334</ele><time>2026-04-07T13:17:15Z</time></trkpt><trkpt lat="43.86392299841002" lon="6.128875029400324"><ele>695.0</ele><time>2026-04-07T13:17:16Z</time></trkpt><trkpt lat="43.863877609920976" lon="6.128774303974187"><ele>695.6666666666667</ele><time>2026-04-07T13:17:17Z</time></trkpt><trkpt lat="43.863868639679076" lon="6.128667174092402"><ele>696.3333333333334</ele><time>2026-04-07T13:17:18Z</time></trkpt><trkpt lat="43.863908836358014" lon="6.128559783855656"><ele>697.0</ele><time>2026-04-07T13:17:19Z</time></trkpt><trkpt lat="43.86396110264044" lon="6.128475866975531"><ele>697.0</ele><time>2026-04-07T13:17:20Z</time></trkpt><trkpt lat="43.864007297941576" lon="6.128389404178483"><ele>697.0</ele><time>2026-04-07T13:17:21Z</time></trkpt><trkpt lat="43.86404783944537" lon="6.128289929388538"><ele>697.0</ele><time>2026-04-07T13:17:22Z</time></trkpt><trkpt lat="43.86409287961561" lon="6.128189582911619"><ele>697.0</ele><time>2026-04-07T13:17:23Z</time></trkpt><trkpt lat="43.864155823353556" lon="6.128105555562491"><ele>697.0</ele><time>2026-04-07T13:17:24Z</time></trkpt><trkpt lat="43.8642350383386" lon="6.128046254272649"><ele>697.0</ele><time>2026-04-07T13:17:25Z</time></trkpt><trkpt lat="43.8643112444771" lon="6.12801860221921"><ele>697.2</ele><time>2026-04-07T13:17:26Z</time></trkpt><trkpt lat="43.8643908936281" lon="6.127988023646508"><ele>697.4000000000001</ele><time>2026-04-07T13:17:28Z</time></trkpt><trkpt lat="43.86445430816166" lon="6.12791192713006"><ele>697.5999999999999</ele><time>2026-04-07T13:17:32Z</time></trkpt><trkpt lat="43.86453734822802" lon="6.1279050585063715"><ele>697.8</ele><time>2026-04-07T13:17:34Z</time></trkpt><trkpt lat="43.86470500479994" lon="6.12793954583373"><ele>698.0</ele><time>2026-04-07T13:17:36Z</time></trkpt><trkpt lat="43.864788418942666" lon="6.12794839764322"><ele>698.0</ele><time>2026-04-07T13:17:37Z</time></trkpt><trkpt lat="43.86488090611504" lon="6.127941136463803"><ele>698.0</ele><time>2026-04-07T13:17:38Z</time></trkpt><trkpt lat="43.86497329992616" lon="6.127934689552737"><ele>698.0</ele><time>2026-04-07T13:17:39Z</time></trkpt><trkpt lat="43.86506209286951" lon="6.127929796051934"><ele>698.0</ele><time>2026-04-07T13:17:40Z</time></trkpt><trkpt lat="43.8651626237581" lon="6.127925370086424"><ele>698.0</ele><time>2026-04-07T13:17:41Z</time></trkpt><trkpt lat="43.865271010174496" lon="6.127929569816664"><ele>698.0</ele><time>2026-04-07T13:17:42Z</time></trkpt><trkpt lat="43.86538714135584" lon="6.127936020381131"><ele>698.0</ele><time>2026-04-07T13:17:43Z</time></trkpt><trkpt lat="43.86550262805258" lon="6.127947880400882"><ele>698.0</ele><time>2026-04-07T13:17:44Z</time></trkpt><trkpt lat="43.86561681942716" lon="6.127957331863597"><ele>698.0</ele><time>2026-04-07T13:17:45Z</time></trkpt><trkpt lat="43.86572282608" lon="6.127969602701228"><ele>698.0</ele><time>2026-04-07T13:17:46Z</time></trkpt><trkpt lat="43.865830294870236" lon="6.1279826995850195"><ele>698.0</ele><time>2026-04-07T13:17:47Z</time></trkpt><trkpt lat="43.865935710750655" lon="6.128011220339302"><ele>698.0</ele><time>2026-04-07T13:17:48Z</time></trkpt><trkpt lat="43.86604958304328" lon="6.128047625441337"><ele>698.0</ele><time>2026-04-07T13:17:49Z</time></trkpt><trkpt lat="43.866165687221674" lon="6.12808594136169"><ele>697.75</ele><time>2026-04-07T13:17:50Z</time></trkpt><trkpt lat="43.86628713461785" lon="6.128117346998666"><ele>697.5</ele><time>2026-04-07T13:17:51Z</time></trkpt><trkpt lat="43.86641658672176" lon="6.128144651554415"><ele>697.25</ele><time>2026-04-07T13:17:52Z</time></trkpt><trkpt lat="43.86655342155612" lon="6.128185228192566"><ele>697.0</ele><time>2026-04-07T13:17:53Z</time></trkpt><trkpt lat="43.866687966058734" lon="6.1282287674121"><ele>698.0</ele><time>2026-04-07T13:17:54Z</time></trkpt><trkpt lat="43.866835463219445" lon="6.128276951684453"><ele>699.0</ele><time>2026-04-07T13:17:55Z</time></trkpt><trkpt lat="43.8669883850019" lon="6.128332526553272"><ele>700.0</ele><time>2026-04-07T13:17:56Z</time></trkpt><trkpt lat="43.867139219775574" lon="6.128381956770982"><ele>700.0</ele><time>2026-04-07T13:17:57Z</time></trkpt><trkpt lat="43.86729995891406" lon="6.1284366141522115"><ele>700.0</ele><time>2026-04-07T13:17:58Z</time></trkpt><trkpt lat="43.867457302751184" lon="6.128495074622421"><ele>700.0</ele><time>2026-04-07T13:17:59Z</time></trkpt><trkpt lat="43.86761881579039" lon="6.128563781770022"><ele>699.6666666666667</ele><time>2026-04-07T13:18:00Z</time></trkpt><trkpt lat="43.867778397453044" lon="6.128635434409267"><ele>699.3333333333334</ele><time>2026-04-07T13:18:01Z</time></trkpt><trkpt lat="43.86794065869198" lon="6.12870271246082"><ele>699.0</ele><time>2026-04-07T13:18:02Z</time></trkpt><trkpt lat="43.86810620172404" lon="6.128762868886616"><ele>699.0</ele><time>2026-04-07T13:18:03Z</time></trkpt><trkpt lat="43.86827091086616" lon="6.128827740022347"><ele>699.0</ele><time>2026-04-07T13:18:04Z</time></trkpt><trkpt lat="43.86844270332633" lon="6.128902754652992"><ele>699.0</ele><time>2026-04-07T13:18:05Z</time></trkpt><trkpt lat="43.86861414837079" lon="6.128967018068626"><ele>699.3333333333334</ele><time>2026-04-07T13:18:06Z</time></trkpt><trkpt lat="43.86878784057305" lon="6.129023734116957"><ele>699.6666666666667</ele><time>2026-04-07T13:18:07Z</time></trkpt><trkpt lat="43.86896420547643" lon="6.129069704105404"><ele>700.0</ele><time>2026-04-07T13:18:08Z</time></trkpt><trkpt lat="43.86914297709023" lon="6.129102027876567"><ele>700.3333333333334</ele><time>2026-04-07T13:18:09Z</time></trkpt><trkpt lat="43.86932399458122" lon="6.1291133627493295"><ele>700.6666666666666</ele><time>2026-04-07T13:18:10Z</time></trkpt><trkpt lat="43.869504680625354" lon="6.129093836307203"><ele>701.0</ele><time>2026-04-07T13:18:11Z</time></trkpt><trkpt lat="43.869683030806414" lon="6.129058624889133"><ele>701.0</ele><time>2026-04-07T13:18:12Z</time></trkpt><trkpt lat="43.86985454475166" lon="6.129016578008306"><ele>701.0</ele><time>2026-04-07T13:18:13Z</time></trkpt><trkpt lat="43.87002528521979" lon="6.128981603799203"><ele>701.0</ele><time>2026-04-07T13:18:14Z</time></trkpt><trkpt lat="43.870197866358374" lon="6.12897210267921"><ele>701.0</ele><time>2026-04-07T13:18:15Z</time></trkpt><trkpt lat="43.870372190643295" lon="6.1289950568884155"><ele>701.0</ele><time>2026-04-07T13:18:16Z</time></trkpt><trkpt lat="43.870550323955776" lon="6.129039850720247"><ele>701.0</ele><time>2026-04-07T13:18:17Z</time></trkpt><trkpt lat="43.87072873269733" lon="6.129093986973314"><ele>701.6666666666666</ele><time>2026-04-07T13:18:18Z</time></trkpt><trkpt lat="43.870907595312175" lon="6.129143821533324"><ele>702.3333333333334</ele><time>2026-04-07T13:18:19Z</time></trkpt><trkpt lat="43.87108625373989" lon="6.129193060422838"><ele>703.0</ele><time>2026-04-07T13:18:20Z</time></trkpt><trkpt lat="43.87125881974929" lon="6.129248482685546"><ele>703.0</ele><time>2026-04-07T13:18:21Z</time></trkpt><trkpt lat="43.871425220901116" lon="6.129304507507209"><ele>703.0</ele><time>2026-04-07T13:18:22Z</time></trkpt><trkpt lat="43.87158751171233" lon="6.129359476862991"><ele>703.0</ele><time>2026-04-07T13:18:23Z</time></trkpt><trkpt lat="43.87175824821963" lon="6.129412899144049"><ele>703.0</ele><time>2026-04-07T13:18:24Z</time></trkpt><trkpt lat="43.871924408895595" lon="6.129462627450983"><ele>703.0</ele><time>2026-04-07T13:18:25Z</time></trkpt><trkpt lat="43.872098412046526" lon="6.129515370859579"><ele>703.0</ele><time>2026-04-07T13:18:26Z</time></trkpt><trkpt lat="43.87227222038308" lon="6.129561046534976"><ele>703.0</ele><time>2026-04-07T13:18:27Z</time></trkpt><trkpt lat="43.87245270137689" lon="6.129603857786567"><ele>703.0</ele><time>2026-04-07T13:18:28Z</time></trkpt><trkpt lat="43.872638719660586" lon="6.129620205708685"><ele>703.0</ele><time>2026-04-07T13:18:29Z</time></trkpt><trkpt lat="43.87282447718181" lon="6.1296375901201"><ele>703.3333333333334</ele><time>2026-04-07T13:18:30Z</time></trkpt><trkpt lat="43.87301075832132" lon="6.12966268968368"><ele>703.6666666666666</ele><time>2026-04-07T13:18:31Z</time></trkpt><trkpt lat="43.87320037923286" lon="6.129696873019085"><ele>704.0</ele><time>2026-04-07T13:18:32Z</time></trkpt><trkpt lat="43.87338458209666" lon="6.1297228379432305"><ele>705.3333333333333</ele><time>2026-04-07T13:18:33Z</time></trkpt><trkpt lat="43.87357090620468" lon="6.1297368400031935"><ele>706.6666666666666</ele><time>2026-04-07T13:18:34Z</time></trkpt><trkpt lat="43.873761090524674" lon="6.129754505792892"><ele>708.0</ele><time>2026-04-07T13:18:35Z</time></trkpt><trkpt lat="43.873942307874366" lon="6.1297851994231864"><ele>708.0</ele><time>2026-04-07T13:18:36Z</time></trkpt><trkpt lat="43.87412436455898" lon="6.129825148812535"><ele>708.0</ele><time>2026-04-07T13:18:37Z</time></trkpt><trkpt lat="43.87430492342749" lon="6.129863283699095"><ele>708.0</ele><time>2026-04-07T13:18:38Z</time></trkpt><trkpt lat="43.874480943955405" lon="6.1299063056476655"><ele>708.0</ele><time>2026-04-07T13:18:39Z</time></trkpt><trkpt lat="43.87465662581274" lon="6.129955225892101"><ele>708.0</ele><time>2026-04-07T13:18:40Z</time></trkpt><trkpt lat="43.87483691911137" lon="6.130000299720702"><ele>708.0</ele><time>2026-04-07T13:18:41Z</time></trkpt><trkpt lat="43.8750197093057" lon="6.130045201678109"><ele>708.3333333333334</ele><time>2026-04-07T13:18:42Z</time></trkpt><trkpt lat="43.87520413333018" lon="6.130092516940687"><ele>708.6666666666667</ele><time>2026-04-07T13:18:43Z</time></trkpt><trkpt lat="43.87538776703578" lon="6.1301488152628405"><ele>709.0</ele><time>2026-04-07T13:18:44Z</time></trkpt><trkpt lat="43.87556821652401" lon="6.130201984095497"><ele>709.0</ele><time>2026-04-07T13:18:45Z</time></trkpt><trkpt lat="43.87575466524635" lon="6.130249014157153"><ele>709.0</ele><time>2026-04-07T13:18:46Z</time></trkpt><trkpt lat="43.87593858570143" lon="6.130292714586372"><ele>709.0</ele><time>2026-04-07T13:18:47Z</time></trkpt><trkpt lat="43.8761248426623" lon="6.130331757040908"><ele>708.6666666666667</ele><time>2026-04-07T13:18:48Z</time></trkpt><trkpt lat="43.876316533121646" lon="6.130374748878971"><ele>708.3333333333334</ele><time>2026-04-07T13:18:49Z</time></trkpt><trkpt lat="43.87650727696746" lon="6.130415688629878"><ele>708.0</ele><time>2026-04-07T13:18:50Z</time></trkpt><trkpt lat="43.87669847323198" lon="6.130453472649127"><ele>709.0</ele><time>2026-04-07T13:18:51Z</time></trkpt><trkpt lat="43.87688951679319" lon="6.1304909915326125"><ele>710.0</ele><time>2026-04-07T13:18:52Z</time></trkpt><trkpt lat="43.87708099656598" lon="6.130543210074402"><ele>711.0</ele><time>2026-04-07T13:18:53Z</time></trkpt><trkpt lat="43.877273519777454" lon="6.130603836887126"><ele>711.0</ele><time>2026-04-07T13:18:54Z</time></trkpt><trkpt lat="43.87746072269277" lon="6.130662494314219"><ele>711.0</ele><time>2026-04-07T13:18:55Z</time></trkpt><trkpt lat="43.87765123298742" lon="6.130721872997799"><ele>711.0</ele><time>2026-04-07T13:18:56Z</time></trkpt><trkpt lat="43.87783895763064" lon="6.1307859654785775"><ele>711.3333333333334</ele><time>2026-04-07T13:18:57Z</time></trkpt><trkpt lat="43.87802821907029" lon="6.130853188544562"><ele>711.6666666666667</ele><time>2026-04-07T13:18:58Z</time></trkpt><trkpt lat="43.878215363947106" lon="6.130916190443517"><ele>712.0</ele><time>2026-04-07T13:18:59Z</time></trkpt><trkpt lat="43.878402162024145" lon="6.130988156700311"><ele>712.3333333333334</ele><time>2026-04-07T13:19:00Z</time></trkpt><trkpt lat="43.878586461466554" lon="6.131068676948111"><ele>712.6666666666666</ele><time>2026-04-07T13:19:01Z</time></trkpt><trkpt lat="43.878773695514305" lon="6.131148252962133"><ele>713.0</ele><time>2026-04-07T13:19:02Z</time></trkpt><trkpt lat="43.87895864372963" lon="6.1312170120566325"><ele>713.0</ele><time>2026-04-07T13:19:03Z</time></trkpt><trkpt lat="43.87914791040153" lon="6.131283626828306"><ele>713.0</ele><time>2026-04-07T13:19:04Z</time></trkpt><trkpt lat="43.87933515788245" lon="6.131342614627001"><ele>713.0</ele><time>2026-04-07T13:19:05Z</time></trkpt><trkpt lat="43.87952220716402" lon="6.13139242918185"><ele>712.3333333333333</ele><time>2026-04-07T13:19:06Z</time></trkpt><trkpt lat="43.879708767392444" lon="6.131439712282722"><ele>711.6666666666666</ele><time>2026-04-07T13:19:07Z</time></trkpt><trkpt lat="43.87989748164666" lon="6.131484583434052"><ele>711.0</ele><time>2026-04-07T13:19:08Z</time></trkpt><trkpt lat="43.880083167079164" lon="6.1315283365703"><ele>712.3333333333334</ele><time>2026-04-07T13:19:09Z</time></trkpt><trkpt lat="43.880270921162584" lon="6.131573735544631"><ele>713.6666666666667</ele><time>2026-04-07T13:19:10Z</time></trkpt><trkpt lat="43.88045627630815" lon="6.131616178440852"><ele>715.0</ele><time>2026-04-07T13:19:11Z</time></trkpt><trkpt lat="43.880640130988176" lon="6.131660053271299"><ele>715.0</ele><time>2026-04-07T13:19:12Z</time></trkpt><trkpt lat="43.880823957129465" lon="6.131711220777057"><ele>715.0</ele><time>2026-04-07T13:19:13Z</time></trkpt><trkpt lat="43.88100671067826" lon="6.131766600195551"><ele>715.0</ele><time>2026-04-07T13:19:14Z</time></trkpt><trkpt lat="43.881192582679134" lon="6.131813325244131"><ele>715.3333333333334</ele><time>2026-04-07T13:19:15Z</time></trkpt><trkpt lat="43.881376450802605" lon="6.131822744253823"><ele>715.6666666666666</ele><time>2026-04-07T13:19:16Z</time></trkpt><trkpt lat="43.88156755198961" lon="6.131787672712538"><ele>716.0</ele><time>2026-04-07T13:19:17Z</time></trkpt><trkpt lat="43.88175298662465" lon="6.131754972292837"><ele>717.0</ele><time>2026-04-07T13:19:18Z</time></trkpt><trkpt lat="43.88194138710332" lon="6.131755507963926"><ele>718.0</ele><time>2026-04-07T13:19:19Z</time></trkpt><trkpt lat="43.88212538743052" lon="6.131781463194174"><ele>719.0</ele><time>2026-04-07T13:19:20Z</time></trkpt><trkpt lat="43.88230824373672" lon="6.131815142891017"><ele>719.0</ele><time>2026-04-07T13:19:21Z</time></trkpt><trkpt lat="43.882487151520806" lon="6.131841056902512"><ele>719.0</ele><time>2026-04-07T13:19:22Z</time></trkpt><trkpt lat="43.8826671689867" lon="6.131860674858855"><ele>719.0</ele><time>2026-04-07T13:19:23Z</time></trkpt><trkpt lat="43.88284072809769" lon="6.131884562524644"><ele>719.3333333333333</ele><time>2026-04-07T13:19:24Z</time></trkpt><trkpt lat="43.883011777179256" lon="6.131912723330741"><ele>719.6666666666666</ele><time>2026-04-07T13:19:25Z</time></trkpt><trkpt lat="43.88318294153869" lon="6.131935015250717"><ele>720.0</ele><time>2026-04-07T13:19:26Z</time></trkpt><trkpt lat="43.88335377619586" lon="6.131950262073562"><ele>719.6666666666666</ele><time>2026-04-07T13:19:27Z</time></trkpt><trkpt lat="43.88352088110793" lon="6.131965444454204"><ele>719.3333333333333</ele><time>2026-04-07T13:19:28Z</time></trkpt><trkpt lat="43.883686788905294" lon="6.131987226135962"><ele>719.0</ele><time>2026-04-07T13:19:29Z</time></trkpt><trkpt lat="43.883851365260284" lon="6.1320199152304795"><ele>719.0</ele><time>2026-04-07T13:19:30Z</time></trkpt><trkpt lat="43.88401265773223" lon="6.132051484974625"><ele>719.0</ele><time>2026-04-07T13:19:31Z</time></trkpt><trkpt lat="43.88416695226699" lon="6.132079550956111"><ele>719.0</ele><time>2026-04-07T13:19:32Z</time></trkpt><trkpt lat="43.8843203458189" lon="6.132103090697505"><ele>716.3333333333333</ele><time>2026-04-07T13:19:33Z</time></trkpt><trkpt lat="43.88446543800949" lon="6.132134708916501"><ele>713.6666666666666</ele><time>2026-04-07T13:19:34Z</time></trkpt><trkpt lat="43.88462939671487" lon="6.132199978483685"><ele>711.0</ele><time>2026-04-07T13:19:35Z</time></trkpt><trkpt lat="43.88479371972791" lon="6.132317079087796"><ele>711.0</ele><time>2026-04-07T13:19:36Z</time></trkpt><trkpt lat="43.88494389200275" lon="6.132498428834409"><ele>711.0</ele><time>2026-04-07T13:19:37Z</time></trkpt><trkpt lat="43.8851041229404" lon="6.132639054190696"><ele>711.0</ele><time>2026-04-07T13:19:38Z</time></trkpt><trkpt lat="43.885266852187996" lon="6.132761145296593"><ele>711.0</ele><time>2026-04-07T13:19:39Z</time></trkpt><trkpt lat="43.88543660553656" lon="6.132835277525606"><ele>711.0</ele><time>2026-04-07T13:19:40Z</time></trkpt><trkpt lat="43.8856120461938" lon="6.132857655645562"><ele>711.0</ele><time>2026-04-07T13:19:41Z</time></trkpt><trkpt lat="43.88578419960828" lon="6.132841581712142"><ele>711.3333333333334</ele><time>2026-04-07T13:19:42Z</time></trkpt><trkpt lat="43.88595992576977" lon="6.132806049624378"><ele>711.6666666666667</ele><time>2026-04-07T13:19:43Z</time></trkpt><trkpt lat="43.88612982798623" lon="6.1327476028095225"><ele>712.0</ele><time>2026-04-07T13:19:44Z</time></trkpt><trkpt lat="43.88630564434505" lon="6.132688297324022"><ele>712.0</ele><time>2026-04-07T13:19:45Z</time></trkpt><trkpt lat="43.88647575943317" lon="6.132638164847381"><ele>712.0</ele><time>2026-04-07T13:19:46Z</time></trkpt><trkpt lat="43.886660455853736" lon="6.13263241556933"><ele>712.0</ele><time>2026-04-07T13:19:47Z</time></trkpt><trkpt lat="43.886851359590516" lon="6.13261433086564"><ele>710.0</ele><time>2026-04-07T13:19:48Z</time></trkpt><trkpt lat="43.88703588424751" lon="6.1326230098858945"><ele>708.0</ele><time>2026-04-07T13:19:49Z</time></trkpt><trkpt lat="43.88723143957437" lon="6.132592397934154"><ele>706.0</ele><time>2026-04-07T13:19:50Z</time></trkpt><trkpt lat="43.88743075747363" lon="6.132527668721205"><ele>704.0</ele><time>2026-04-07T13:19:51Z</time></trkpt><trkpt lat="43.887619156888235" lon="6.1324353225572965"><ele>702.0</ele><time>2026-04-07T13:19:52Z</time></trkpt><trkpt lat="43.88779622624606" lon="6.132337994988895"><ele>700.0</ele><time>2026-04-07T13:19:53Z</time></trkpt><trkpt lat="43.88796992277283" lon="6.132248868527926"><ele>699.6666666666667</ele><time>2026-04-07T13:19:54Z</time></trkpt><trkpt lat="43.88813948318956" lon="6.132176039812462"><ele>699.3333333333334</ele><time>2026-04-07T13:19:55Z</time></trkpt><trkpt lat="43.888314921916404" lon="6.132115287318167"><ele>699.0</ele><time>2026-04-07T13:19:56Z</time></trkpt><trkpt lat="43.88848453178644" lon="6.132049830653839"><ele>701.6666666666666</ele><time>2026-04-07T13:19:57Z</time></trkpt><trkpt lat="43.88863866528573" lon="6.131985050455569"><ele>704.3333333333333</ele><time>2026-04-07T13:19:58Z</time></trkpt><trkpt lat="43.888790931830926" lon="6.131934608817384"><ele>707.0</ele><time>2026-04-07T13:19:59Z</time></trkpt><trkpt lat="43.88893622729989" lon="6.1319335385957086"><ele>707.0</ele><time>2026-04-07T13:20:00Z</time></trkpt><trkpt lat="43.88906962325368" lon="6.1320046099804815"><ele>707.0</ele><time>2026-04-07T13:20:01Z</time></trkpt><trkpt lat="43.889181990972126" lon="6.132128273446508"><ele>707.0</ele><time>2026-04-07T13:20:02Z</time></trkpt><trkpt lat="43.889283810969275" lon="6.132298826687786"><ele>707.0</ele><time>2026-04-07T13:20:03Z</time></trkpt><trkpt lat="43.889395232605004" lon="6.1324696201611"><ele>709.0</ele><time>2026-04-07T13:20:04Z</time></trkpt><trkpt lat="43.889540458676514" lon="6.132605194165491"><ele>711.0</ele><time>2026-04-07T13:20:05Z</time></trkpt><trkpt lat="43.88970605202279" lon="6.132707451959568"><ele>713.0</ele><time>2026-04-07T13:20:06Z</time></trkpt><trkpt lat="43.88987288243023" lon="6.132799394140815"><ele>713.0</ele><time>2026-04-07T13:20:07Z</time></trkpt><trkpt lat="43.89003384010293" lon="6.132902952824529"><ele>713.0</ele><time>2026-04-07T13:20:08Z</time></trkpt><trkpt lat="43.89018303420216" lon="6.1330307633661"><ele>713.0</ele><time>2026-04-07T13:20:09Z</time></trkpt><trkpt lat="43.89032564795413" lon="6.133169852683949"><ele>714.25</ele><time>2026-04-07T13:20:10Z</time></trkpt><trkpt lat="43.8904421917281" lon="6.133312911489615"><ele>715.5</ele><time>2026-04-07T13:20:11Z</time></trkpt><trkpt lat="43.89052994169403" lon="6.133457212169949"><ele>716.75</ele><time>2026-04-07T13:20:12Z</time></trkpt><trkpt lat="43.890604787416514" lon="6.1335910044863144"><ele>718.0</ele><time>2026-04-07T13:20:13Z</time></trkpt><trkpt lat="43.890679917892925" lon="6.133670302028735"><ele>718.0</ele><time>2026-04-07T13:20:14Z</time></trkpt><trkpt lat="43.89074509209978" lon="6.133661764673291"><ele>718.0</ele><time>2026-04-07T13:20:15Z</time></trkpt><trkpt lat="43.89081671344792" lon="6.133619724185193"><ele>718.0</ele><time>2026-04-07T13:20:16Z</time></trkpt><trkpt lat="43.890868770506415" lon="6.1334900779007535"><ele>718.0</ele><time>2026-04-07T13:20:17Z</time></trkpt><trkpt lat="43.89084351131636" lon="6.133297985292961"><ele>718.0</ele><time>2026-04-07T13:20:19Z</time></trkpt><trkpt lat="43.89074743502965" lon="6.133197291089638"><ele>720.0</ele><time>2026-04-07T13:20:20Z</time></trkpt><trkpt lat="43.89061534608807" lon="6.133114584760548"><ele>722.0</ele><time>2026-04-07T13:20:21Z</time></trkpt><trkpt lat="43.89049140553881" lon="6.132990414489318"><ele>724.0</ele><time>2026-04-07T13:20:22Z</time></trkpt><trkpt lat="43.89037301383147" lon="6.132821400312046"><ele>724.0</ele><time>2026-04-07T13:20:23Z</time></trkpt><trkpt lat="43.8902708804372" lon="6.1326385295511985"><ele>724.0</ele><time>2026-04-07T13:20:24Z</time></trkpt><trkpt lat="43.890173146344544" lon="6.132474320942375"><ele>724.0</ele><time>2026-04-07T13:20:25Z</time></trkpt><trkpt lat="43.89008287999949" lon="6.132330673210149"><ele>724.4000000000001</ele><time>2026-04-07T13:20:26Z</time></trkpt><trkpt lat="43.89001693109754" lon="6.132186523810106"><ele>724.8</ele><time>2026-04-07T13:20:27Z</time></trkpt><trkpt lat="43.889996378425806" lon="6.13204413301456"><ele>725.2</ele><time>2026-04-07T13:20:28Z</time></trkpt><trkpt lat="43.89001753176989" lon="6.131909098965192"><ele>725.5999999999999</ele><time>2026-04-07T13:20:29Z</time></trkpt><trkpt lat="43.89009384014725" lon="6.131792481728801"><ele>726.0</ele><time>2026-04-07T13:20:30Z</time></trkpt><trkpt lat="43.890212703258186" lon="6.131732482046588"><ele>726.0</ele><time>2026-04-07T13:20:31Z</time></trkpt><trkpt lat="43.89036921274683" lon="6.131680595229579"><ele>726.0</ele><time>2026-04-07T13:20:32Z</time></trkpt><trkpt lat="43.890556321972596" lon="6.1316171533861334"><ele>726.0</ele><time>2026-04-07T13:20:33Z</time></trkpt><trkpt lat="43.89075070033479" lon="6.131543990626846"><ele>727.0</ele><time>2026-04-07T13:20:34Z</time></trkpt><trkpt lat="43.89092973658355" lon="6.131500841936421"><ele>728.0</ele><time>2026-04-07T13:20:35Z</time></trkpt><trkpt lat="43.89110592708176" lon="6.1314615203519"><ele>729.0</ele><time>2026-04-07T13:20:36Z</time></trkpt><trkpt lat="43.89127674960061" lon="6.131426483644234"><ele>729.0</ele><time>2026-04-07T13:20:37Z</time></trkpt><trkpt lat="43.89144631026149" lon="6.131374790093447"><ele>729.0</ele><time>2026-04-07T13:20:38Z</time></trkpt><trkpt lat="43.89161362510338" lon="6.131282917628647"><ele>729.0</ele><time>2026-04-07T13:20:39Z</time></trkpt><trkpt lat="43.89177818720524" lon="6.131171792932959"><ele>729.6666666666666</ele><time>2026-04-07T13:20:40Z</time></trkpt><trkpt lat="43.8919409052202" lon="6.131057798423215"><ele>730.3333333333333</ele><time>2026-04-07T13:20:41Z</time></trkpt><trkpt lat="43.89210297653352" lon="6.130967088392556"><ele>731.0</ele><time>2026-04-07T13:20:42Z</time></trkpt><trkpt lat="43.89226465736753" lon="6.130878890055357"><ele>731.0</ele><time>2026-04-07T13:20:43Z</time></trkpt><trkpt lat="43.8924295251804" lon="6.1307861595924384"><ele>731.0</ele><time>2026-04-07T13:20:44Z</time></trkpt><trkpt lat="43.89259317097418" lon="6.130695715059721"><ele>731.0</ele><time>2026-04-07T13:20:45Z</time></trkpt><trkpt lat="43.892759653196144" lon="6.130607842380231"><ele>731.3333333333333</ele><time>2026-04-07T13:20:46Z</time></trkpt><trkpt lat="43.89292490399137" lon="6.1305204778899185"><ele>731.6666666666666</ele><time>2026-04-07T13:20:47Z</time></trkpt><trkpt lat="43.89308755798508" lon="6.130433185560824"><ele>732.0</ele><time>2026-04-07T13:20:48Z</time></trkpt><trkpt lat="43.89325265475856" lon="6.130344200894151"><ele>732.0</ele><time>2026-04-07T13:20:49Z</time></trkpt><trkpt lat="43.8934172007005" lon="6.130254900179818"><ele>732.0</ele><time>2026-04-07T13:20:50Z</time></trkpt><trkpt lat="43.89358320654019" lon="6.1301665309166005"><ele>732.0</ele><time>2026-04-07T13:20:51Z</time></trkpt><trkpt lat="43.89374930032342" lon="6.130078025873137"><ele>732.3333333333334</ele><time>2026-04-07T13:20:52Z</time></trkpt><trkpt lat="43.89391567335556" lon="6.129988073586136"><ele>732.6666666666667</ele><time>2026-04-07T13:20:53Z</time></trkpt><trkpt lat="43.89408449231412" lon="6.129894951081572"><ele>733.0</ele><time>2026-04-07T13:20:54Z</time></trkpt><trkpt lat="43.894255720655394" lon="6.12980294824749"><ele>733.0</ele><time>2026-04-07T13:20:55Z</time></trkpt><trkpt lat="43.89442405307736" lon="6.12971419329469"><ele>733.0</ele><time>2026-04-07T13:20:56Z</time></trkpt><trkpt lat="43.894594793141486" lon="6.129623779899983"><ele>733.0</ele><time>2026-04-07T13:20:57Z</time></trkpt><trkpt lat="43.8947641101959" lon="6.12953258822435"><ele>733.0</ele><time>2026-04-07T13:20:58Z</time></trkpt><trkpt lat="43.89492810688554" lon="6.129441198674711"><ele>733.0</ele><time>2026-04-07T13:20:59Z</time></trkpt><trkpt lat="43.89508613985962" lon="6.129353818802618"><ele>733.0</ele><time>2026-04-07T13:21:00Z</time></trkpt><trkpt lat="43.89523407710215" lon="6.12928023445291"><ele>733.0</ele><time>2026-04-07T13:21:01Z</time></trkpt><trkpt lat="43.895391073600564" lon="6.129200549891298"><ele>733.0</ele><time>2026-04-07T13:21:02Z</time></trkpt><trkpt lat="43.89553401686929" lon="6.129123198964502"><ele>733.0</ele><time>2026-04-07T13:21:03Z</time></trkpt><trkpt lat="43.89567471247913" lon="6.129042510056904"><ele>729.6666666666667</ele><time>2026-04-07T13:21:04Z</time></trkpt><trkpt lat="43.895930327204184" lon="6.128899694298695"><ele>726.3333333333334</ele><time>2026-04-07T13:21:06Z</time></trkpt><trkpt lat="43.89603567867454" lon="6.1288491645779395"><ele>723.0</ele><time>2026-04-07T13:21:07Z</time></trkpt><trkpt lat="43.89612915560407" lon="6.128809096840244"><ele>723.0</ele><time>2026-04-07T13:21:08Z</time></trkpt><trkpt lat="43.89621181193864" lon="6.128783959657594"><ele>723.0</ele><time>2026-04-07T13:21:09Z</time></trkpt><trkpt lat="43.89628971073223" lon="6.128800215261084"><ele>723.0</ele><time>2026-04-07T13:21:10Z</time></trkpt><trkpt lat="43.896345058395774" lon="6.128892790362201"><ele>723.0</ele><time>2026-04-07T13:21:11Z</time></trkpt><trkpt lat="43.89634528346015" lon="6.129040464861054"><ele>723.0</ele><time>2026-04-07T13:21:12Z</time></trkpt><trkpt lat="43.89635560872944" lon="6.12921601890186"><ele>722.5</ele><time>2026-04-07T13:21:13Z</time></trkpt><trkpt lat="43.8963829888093" lon="6.129415004385882"><ele>722.0</ele><time>2026-04-07T13:21:14Z</time></trkpt><trkpt lat="43.896384523723576" lon="6.129623440662811"><ele>721.5</ele><time>2026-04-07T13:21:15Z</time></trkpt><trkpt lat="43.89635332542313" lon="6.129823713301437"><ele>721.0</ele><time>2026-04-07T13:21:16Z</time></trkpt><trkpt lat="43.89627202631192" lon="6.129997457338393"><ele>719.6666666666667</ele><time>2026-04-07T13:21:17Z</time></trkpt><trkpt lat="43.89616270620102" lon="6.130138616544172"><ele>718.3333333333334</ele><time>2026-04-07T13:21:18Z</time></trkpt><trkpt lat="43.89604833336508" lon="6.1302902345960675"><ele>717.0</ele><time>2026-04-07T13:21:19Z</time></trkpt><trkpt lat="43.89595340336844" lon="6.130446066741751"><ele>719.5</ele><time>2026-04-07T13:21:20Z</time></trkpt><trkpt lat="43.89586953479885" lon="6.130604184766347"><ele>722.0</ele><time>2026-04-07T13:21:21Z</time></trkpt><trkpt lat="43.89581534818195" lon="6.13079112348915"><ele>724.5</ele><time>2026-04-07T13:21:22Z</time></trkpt><trkpt lat="43.895778523053345" lon="6.130980317446699"><ele>727.0</ele><time>2026-04-07T13:21:23Z</time></trkpt><trkpt lat="43.895768282043846" lon="6.131179349468657"><ele>727.0</ele><time>2026-04-07T13:21:24Z</time></trkpt><trkpt lat="43.89578965908218" lon="6.131388773092398"><ele>727.0</ele><time>2026-04-07T13:21:25Z</time></trkpt><trkpt lat="43.895836629968464" lon="6.131589613090007"><ele>727.0</ele><time>2026-04-07T13:21:26Z</time></trkpt><trkpt lat="43.89588630093632" lon="6.131775604664592"><ele>727.0</ele><time>2026-04-07T13:21:27Z</time></trkpt><trkpt lat="43.89594396120242" lon="6.131955722832195"><ele>726.75</ele><time>2026-04-07T13:21:28Z</time></trkpt><trkpt lat="43.895997836740115" lon="6.132132237678119"><ele>726.5</ele><time>2026-04-07T13:21:29Z</time></trkpt><trkpt lat="43.89601659230338" lon="6.132310187278745"><ele>726.25</ele><time>2026-04-07T13:21:30Z</time></trkpt><trkpt lat="43.89598695898876" lon="6.132486952249603"><ele>726.0</ele><time>2026-04-07T13:21:31Z</time></trkpt><trkpt lat="43.895883984576564" lon="6.132610281770672"><ele>726.0</ele><time>2026-04-07T13:21:32Z</time></trkpt><trkpt lat="43.89580088848754" lon="6.132736654589633"><ele>726.0</ele><time>2026-04-07T13:21:33Z</time></trkpt><trkpt lat="43.89573575564577" lon="6.132862304393404"><ele>726.0</ele><time>2026-04-07T13:21:34Z</time></trkpt><trkpt lat="43.89572651455388" lon="6.13299162740648"><ele>726.0</ele><time>2026-04-07T13:21:35Z</time></trkpt><trkpt lat="43.89577561899547" lon="6.133104755397487"><ele>726.0</ele><time>2026-04-07T13:21:36Z</time></trkpt><trkpt lat="43.89587965151282" lon="6.133181124492151"><ele>721.25</ele><time>2026-04-07T13:21:37Z</time></trkpt><trkpt lat="43.89600599344543" lon="6.13323612275365"><ele>716.5</ele><time>2026-04-07T13:21:38Z</time></trkpt><trkpt lat="43.896144881520414" lon="6.133285480539079"><ele>711.75</ele><time>2026-04-07T13:21:39Z</time></trkpt><trkpt lat="43.89628538336739" lon="6.133338717238372"><ele>707.0</ele><time>2026-04-07T13:21:40Z</time></trkpt><trkpt lat="43.896436232934384" lon="6.133402838529229"><ele>707.0</ele><time>2026-04-07T13:21:41Z</time></trkpt><trkpt lat="43.89658344548011" lon="6.133445694617911"><ele>707.0</ele><time>2026-04-07T13:21:42Z</time></trkpt><trkpt lat="43.89670927441214" lon="6.133545230272377"><ele>707.0</ele><time>2026-04-07T13:21:43Z</time></trkpt><trkpt lat="43.89682615028934" lon="6.133659251189105"><ele>707.0</ele><time>2026-04-07T13:21:44Z</time></trkpt><trkpt lat="43.89688712777832" lon="6.133850987329937"><ele>702.6666666666666</ele><time>2026-04-07T13:21:45Z</time></trkpt><trkpt lat="43.89694481021539" lon="6.134040539446266"><ele>698.3333333333334</ele><time>2026-04-07T13:21:46Z</time></trkpt><trkpt lat="43.89698654957566" lon="6.134248167070604"><ele>694.0</ele><time>2026-04-07T13:21:47Z</time></trkpt><trkpt lat="43.897057848094626" lon="6.134441839574228"><ele>694.0</ele><time>2026-04-07T13:21:48Z</time></trkpt><trkpt lat="43.89717043647105" lon="6.134605551422964"><ele>694.0</ele><time>2026-04-07T13:21:49Z</time></trkpt><trkpt lat="43.8973019860194" lon="6.134750809832479"><ele>694.0</ele><time>2026-04-07T13:21:50Z</time></trkpt><trkpt lat="43.897428438741805" lon="6.13486313984734"><ele>689.6666666666667</ele><time>2026-04-07T13:21:51Z</time></trkpt><trkpt lat="43.89754594649177" lon="6.135008654898655"><ele>685.3333333333334</ele><time>2026-04-07T13:21:52Z</time></trkpt><trkpt lat="43.89765720022258" lon="6.135168362570641"><ele>681.0</ele><time>2026-04-07T13:21:53Z</time></trkpt><trkpt lat="43.89776549028993" lon="6.135340943621852"><ele>681.0</ele><time>2026-04-07T13:21:54Z</time></trkpt><trkpt lat="43.89785087354711" lon="6.135527670306677"><ele>681.0</ele><time>2026-04-07T13:21:55Z</time></trkpt><trkpt lat="43.89793166885517" lon="6.135709209038072"><ele>681.0</ele><time>2026-04-07T13:21:56Z</time></trkpt><trkpt lat="43.89802593609489" lon="6.135861229788663"><ele>678.5</ele><time>2026-04-07T13:21:57Z</time></trkpt><trkpt lat="43.89814949935053" lon="6.13596899566989"><ele>676.0</ele><time>2026-04-07T13:21:58Z</time></trkpt><trkpt lat="43.89828639099223" lon="6.1360384020270615"><ele>673.5</ele><time>2026-04-07T13:21:59Z</time></trkpt><trkpt lat="43.89842895112429" lon="6.136098535938171"><ele>671.0</ele><time>2026-04-07T13:22:00Z</time></trkpt><trkpt lat="43.89854075263478" lon="6.136202842149075"><ele>671.0</ele><time>2026-04-07T13:22:01Z</time></trkpt><trkpt lat="43.89863261879824" lon="6.136346719452245"><ele>671.0</ele><time>2026-04-07T13:22:02Z</time></trkpt><trkpt lat="43.89864679022675" lon="6.136561363769944"><ele>671.0</ele><time>2026-04-07T13:22:03Z</time></trkpt><trkpt lat="43.89868741228979" lon="6.13676675156693"><ele>671.0</ele><time>2026-04-07T13:22:04Z</time></trkpt><trkpt lat="43.89871559648653" lon="6.136956521807909"><ele>673.0</ele><time>2026-04-07T13:22:05Z</time></trkpt><trkpt lat="43.89878922944814" lon="6.137114839573046"><ele>675.0</ele><time>2026-04-07T13:22:06Z</time></trkpt><trkpt lat="43.89890083842375" lon="6.137248058372448"><ele>677.0</ele><time>2026-04-07T13:22:07Z</time></trkpt><trkpt lat="43.899030811956166" lon="6.137370168633931"><ele>679.0</ele><time>2026-04-07T13:22:08Z</time></trkpt><trkpt lat="43.899131340807195" lon="6.137518578257193"><ele>681.25</ele><time>2026-04-07T13:22:09Z</time></trkpt><trkpt lat="43.89920107152685" lon="6.137694131181641"><ele>683.5</ele><time>2026-04-07T13:22:10Z</time></trkpt><trkpt lat="43.89927050012787" lon="6.137867157631333"><ele>685.75</ele><time>2026-04-07T13:22:11Z</time></trkpt><trkpt lat="43.89933072372463" lon="6.13803369214872"><ele>688.0</ele><time>2026-04-07T13:22:12Z</time></trkpt><trkpt lat="43.89941158835128" lon="6.138144907969378"><ele>686.0</ele><time>2026-04-07T13:22:13Z</time></trkpt><trkpt lat="43.89952271102722" lon="6.138211390647055"><ele>684.0</ele><time>2026-04-07T13:22:14Z</time></trkpt><trkpt lat="43.89966478414971" lon="6.138224348574771"><ele>682.0</ele><time>2026-04-07T13:22:15Z</time></trkpt><trkpt lat="43.89980373208718" lon="6.138224037272557"><ele>680.0</ele><time>2026-04-07T13:22:16Z</time></trkpt><trkpt lat="43.89992564332443" lon="6.138306989711104"><ele>680.0</ele><time>2026-04-07T13:22:17Z</time></trkpt><trkpt lat="43.90003284885182" lon="6.138434140945837"><ele>680.0</ele><time>2026-04-07T13:22:18Z</time></trkpt><trkpt lat="43.900144619938935" lon="6.1385752695466245"><ele>680.0</ele><time>2026-04-07T13:22:19Z</time></trkpt><trkpt lat="43.90024075659942" lon="6.138735682435126"><ele>680.0</ele><time>2026-04-07T13:22:20Z</time></trkpt><trkpt lat="43.90034993021904" lon="6.13887322803176"><ele>675.75</ele><time>2026-04-07T13:22:21Z</time></trkpt><trkpt lat="43.9004696919027" lon="6.138977310706146"><ele>671.5</ele><time>2026-04-07T13:22:22Z</time></trkpt><trkpt lat="43.900602654878504" lon="6.139042817517575"><ele>667.25</ele><time>2026-04-07T13:22:23Z</time></trkpt><trkpt lat="43.90074204733246" lon="6.139045858471503"><ele>663.0</ele><time>2026-04-07T13:22:24Z</time></trkpt><trkpt lat="43.90087915370411" lon="6.13898183983969"><ele>660.75</ele><time>2026-04-07T13:22:25Z</time></trkpt><trkpt lat="43.901005125731075" lon="6.138882960739009"><ele>658.5</ele><time>2026-04-07T13:22:26Z</time></trkpt><trkpt lat="43.90112332661778" lon="6.138769405423971"><ele>656.25</ele><time>2026-04-07T13:22:27Z</time></trkpt><trkpt lat="43.90125046737264" lon="6.138747071608759"><ele>654.0</ele><time>2026-04-07T13:22:28Z</time></trkpt><trkpt lat="43.90136692169083" lon="6.138791663253874"><ele>654.0</ele><time>2026-04-07T13:22:29Z</time></trkpt><trkpt lat="43.90144664582521" lon="6.138878504794255"><ele>654.0</ele><time>2026-04-07T13:22:30Z</time></trkpt><trkpt lat="43.90146807272652" lon="6.139013174855996"><ele>654.0</ele><time>2026-04-07T13:22:31Z</time></trkpt><trkpt lat="43.90147253062836" lon="6.139198774020727"><ele>654.0</ele><time>2026-04-07T13:22:32Z</time></trkpt><trkpt lat="43.90149562333111" lon="6.139420466939222"><ele>656.0</ele><time>2026-04-07T13:22:33Z</time></trkpt><trkpt lat="43.90155178387038" lon="6.139637492459018"><ele>658.0</ele><time>2026-04-07T13:22:34Z</time></trkpt><trkpt lat="43.90161424742266" lon="6.139793956761026"><ele>660.0</ele><time>2026-04-07T13:22:35Z</time></trkpt><trkpt lat="43.901658082541005" lon="6.139917047925222"><ele>662.0</ele><time>2026-04-07T13:22:36Z</time></trkpt><trkpt lat="43.90170781887065" lon="6.140012802142146"><ele>663.25</ele><time>2026-04-07T13:22:37Z</time></trkpt><trkpt lat="43.90178618490854" lon="6.140077798972044"><ele>664.5</ele><time>2026-04-07T13:22:38Z</time></trkpt><trkpt lat="43.90190190297115" lon="6.140068458374471"><ele>665.75</ele><time>2026-04-07T13:22:39Z</time></trkpt><trkpt lat="43.90202515204743" lon="6.140011742183611"><ele>667.0</ele><time>2026-04-07T13:22:40Z</time></trkpt><trkpt lat="43.90216037192482" lon="6.139939330624567"><ele>661.6666666666667</ele><time>2026-04-07T13:22:41Z</time></trkpt><trkpt lat="43.9022994765521" lon="6.13987111743272"><ele>656.3333333333334</ele><time>2026-04-07T13:22:42Z</time></trkpt><trkpt lat="43.90243951871663" lon="6.139794671997013"><ele>651.0</ele><time>2026-04-07T13:22:43Z</time></trkpt><trkpt lat="43.902573647867264" lon="6.139688714248982"><ele>651.0</ele><time>2026-04-07T13:22:44Z</time></trkpt><trkpt lat="43.90270217852315" lon="6.139554413612838"><ele>651.0</ele><time>2026-04-07T13:22:45Z</time></trkpt><trkpt lat="43.90282951567355" lon="6.139411510770692"><ele>651.0</ele><time>2026-04-07T13:22:46Z</time></trkpt><trkpt lat="43.902973010995204" lon="6.139308675014287"><ele>651.0</ele><time>2026-04-07T13:22:47Z</time></trkpt><trkpt lat="43.903143165416765" lon="6.139281165112695"><ele>651.0</ele><time>2026-04-07T13:22:48Z</time></trkpt><trkpt lat="43.90328901857679" lon="6.139201992577699"><ele>651.0</ele><time>2026-04-07T13:22:49Z</time></trkpt><trkpt lat="43.90343453850696" lon="6.139104249542907"><ele>646.0</ele><time>2026-04-07T13:22:50Z</time></trkpt><trkpt lat="43.90356269318323" lon="6.138959347833179"><ele>641.0</ele><time>2026-04-07T13:22:51Z</time></trkpt><trkpt lat="43.90369988090071" lon="6.138853707514843"><ele>636.0</ele><time>2026-04-07T13:22:52Z</time></trkpt><trkpt lat="43.90384296912381" lon="6.1387666375010435"><ele>636.0</ele><time>2026-04-07T13:22:53Z</time></trkpt><trkpt lat="43.903979102865584" lon="6.1387203004027215"><ele>636.0</ele><time>2026-04-07T13:22:54Z</time></trkpt><trkpt lat="43.90410027403928" lon="6.138725359333432"><ele>636.0</ele><time>2026-04-07T13:22:55Z</time></trkpt><trkpt lat="43.90421348300165" lon="6.138769850043692"><ele>636.0</ele><time>2026-04-07T13:22:56Z</time></trkpt><trkpt lat="43.904316545503065" lon="6.138801714285001"><ele>635.2</ele><time>2026-04-07T13:22:57Z</time></trkpt><trkpt lat="43.90434262509521" lon="6.138925496664658"><ele>634.4000000000001</ele><time>2026-04-07T13:22:58Z</time></trkpt><trkpt lat="43.90434530834219" lon="6.139030811427145"><ele>633.6</ele><time>2026-04-07T13:22:59Z</time></trkpt><trkpt lat="43.904240122720985" lon="6.139130162827669"><ele>632.8000000000001</ele><time>2026-04-07T13:23:00Z</time></trkpt><trkpt lat="43.90415143508943" lon="6.139292902061285"><ele>632.0</ele><time>2026-04-07T13:23:01Z</time></trkpt><trkpt lat="43.90406393634488" lon="6.139485553442156"><ele>634.5</ele><time>2026-04-07T13:23:02Z</time></trkpt><trkpt lat="43.9039906592239" lon="6.139681411689169"><ele>637.0</ele><time>2026-04-07T13:23:03Z</time></trkpt><trkpt lat="43.90395864169187" lon="6.139842393724626"><ele>639.5</ele><time>2026-04-07T13:23:04Z</time></trkpt><trkpt lat="43.90396271639427" lon="6.139972411876743"><ele>642.0</ele><time>2026-04-07T13:23:05Z</time></trkpt><trkpt lat="43.90400583739267" lon="6.140078168566409"><ele>642.4000000000001</ele><time>2026-04-07T13:23:06Z</time></trkpt><trkpt lat="43.90408605749314" lon="6.140160434697635"><ele>642.8000000000001</ele><time>2026-04-07T13:23:07Z</time></trkpt><trkpt lat="43.90419801149277" lon="6.1401929889030455"><ele>643.2</ele><time>2026-04-07T13:23:08Z</time></trkpt><trkpt lat="43.90429281531312" lon="6.1401320252940925"><ele>643.6</ele><time>2026-04-07T13:23:09Z</time></trkpt><trkpt lat="43.90439531599155" lon="6.1400316200747325"><ele>644.0</ele><time>2026-04-07T13:23:10Z</time></trkpt><trkpt lat="43.90451337005143" lon="6.1399388306601885"><ele>640.5</ele><time>2026-04-07T13:23:11Z</time></trkpt><trkpt lat="43.90464556507342" lon="6.139882564707163"><ele>637.0</ele><time>2026-04-07T13:23:12Z</time></trkpt><trkpt lat="43.90478439617373" lon="6.139893024907309"><ele>633.5</ele><time>2026-04-07T13:23:13Z</time></trkpt><trkpt lat="43.904911637129" lon="6.1399463863896955"><ele>630.0</ele><time>2026-04-07T13:23:14Z</time></trkpt><trkpt lat="43.90502714934892" lon="6.140049259523761"><ele>624.75</ele><time>2026-04-07T13:23:15Z</time></trkpt><trkpt lat="43.90513698960944" lon="6.140184000073589"><ele>619.5</ele><time>2026-04-07T13:23:16Z</time></trkpt><trkpt lat="43.90522306072361" lon="6.140336153349455"><ele>614.25</ele><time>2026-04-07T13:23:17Z</time></trkpt><trkpt lat="43.90526606624665" lon="6.140512334376205"><ele>609.0</ele><time>2026-04-07T13:23:18Z</time></trkpt><trkpt lat="43.90527631593781" lon="6.140696991239888"><ele>610.75</ele><time>2026-04-07T13:23:19Z</time></trkpt><trkpt lat="43.90528814413192" lon="6.140896688553792"><ele>612.5</ele><time>2026-04-07T13:23:20Z</time></trkpt><trkpt lat="43.90525575669398" lon="6.141074226886079"><ele>614.25</ele><time>2026-04-07T13:23:21Z</time></trkpt><trkpt lat="43.90520300748096" lon="6.141237102153178"><ele>616.0</ele><time>2026-04-07T13:23:22Z</time></trkpt><trkpt lat="43.905133161818924" lon="6.14138059478827"><ele>618.6</ele><time>2026-04-07T13:23:23Z</time></trkpt><trkpt lat="43.90507803976794" lon="6.141505408388432"><ele>621.2</ele><time>2026-04-07T13:23:24Z</time></trkpt><trkpt lat="43.90506814586302" lon="6.141628497241419"><ele>623.8</ele><time>2026-04-07T13:23:25Z</time></trkpt><trkpt lat="43.90511793131985" lon="6.141732772356094"><ele>626.4</ele><time>2026-04-07T13:23:26Z</time></trkpt><trkpt lat="43.90520369032544" lon="6.141816812666243"><ele>629.0</ele><time>2026-04-07T13:23:27Z</time></trkpt><trkpt lat="43.905297136511855" lon="6.141859086584052"><ele>629.0</ele><time>2026-04-07T13:23:28Z</time></trkpt><trkpt lat="43.905397645119734" lon="6.141871802272446"><ele>629.0</ele><time>2026-04-07T13:23:29Z</time></trkpt><trkpt lat="43.905504413198486" lon="6.141824247407825"><ele>629.0</ele><time>2026-04-07T13:23:30Z</time></trkpt><trkpt lat="43.90560492309074" lon="6.141713375481315"><ele>629.0</ele><time>2026-04-07T13:23:31Z</time></trkpt><trkpt lat="43.90570395828263" lon="6.14155971250564"><ele>627.0</ele><time>2026-04-07T13:23:32Z</time></trkpt><trkpt lat="43.90580853900762" lon="6.141386392724478"><ele>625.0</ele><time>2026-04-07T13:23:33Z</time></trkpt><trkpt lat="43.90591588261776" lon="6.141204312902445"><ele>623.0</ele><time>2026-04-07T13:23:34Z</time></trkpt><trkpt lat="43.906016748362504" lon="6.141005115259504"><ele>623.0</ele><time>2026-04-07T13:23:35Z</time></trkpt><trkpt lat="43.906118428102275" lon="6.140786661915634"><ele>623.0</ele><time>2026-04-07T13:23:36Z</time></trkpt><trkpt lat="43.906248026620325" lon="6.140611104087058"><ele>623.0</ele><time>2026-04-07T13:23:37Z</time></trkpt><trkpt lat="43.90637434454003" lon="6.140437016645383"><ele>618.0</ele><time>2026-04-07T13:23:38Z</time></trkpt><trkpt lat="43.9065108983274" lon="6.14029680136072"><ele>613.0</ele><time>2026-04-07T13:23:39Z</time></trkpt><trkpt lat="43.9066522645749" lon="6.140165242164806"><ele>608.0</ele><time>2026-04-07T13:23:40Z</time></trkpt><trkpt lat="43.906810416843776" lon="6.140081213630944"><ele>608.0</ele><time>2026-04-07T13:23:41Z</time></trkpt><trkpt lat="43.90697626794322" lon="6.140027858827819"><ele>608.0</ele><time>2026-04-07T13:23:42Z</time></trkpt><trkpt lat="43.90714851393029" lon="6.140017724620157"><ele>608.0</ele><time>2026-04-07T13:23:43Z</time></trkpt><trkpt lat="43.90730899793752" lon="6.13997482601824"><ele>608.0</ele><time>2026-04-07T13:23:44Z</time></trkpt><trkpt lat="43.90746340941746" lon="6.139906572314803"><ele>608.0</ele><time>2026-04-07T13:23:45Z</time></trkpt><trkpt lat="43.90760263936518" lon="6.1397866596732955"><ele>608.0</ele><time>2026-04-07T13:23:46Z</time></trkpt><trkpt lat="43.90772686706323" lon="6.139623682483485"><ele>603.6666666666666</ele><time>2026-04-07T13:23:47Z</time></trkpt><trkpt lat="43.907845441893755" lon="6.139450467227931"><ele>599.3333333333334</ele><time>2026-04-07T13:23:48Z</time></trkpt><trkpt lat="43.90797847734554" lon="6.139292699073876"><ele>595.0</ele><time>2026-04-07T13:23:49Z</time></trkpt><trkpt lat="43.90812683887113" lon="6.139154346894366"><ele>593.3333333333334</ele><time>2026-04-07T13:23:50Z</time></trkpt><trkpt lat="43.908272836064086" lon="6.1390237620713"><ele>591.6666666666666</ele><time>2026-04-07T13:23:51Z</time></trkpt><trkpt lat="43.90841991962084" lon="6.138899515995287"><ele>590.0</ele><time>2026-04-07T13:23:52Z</time></trkpt><trkpt lat="43.9085593432791" lon="6.138778675594443"><ele>590.0</ele><time>2026-04-07T13:23:53Z</time></trkpt><trkpt lat="43.90868747633614" lon="6.1386319533177796"><ele>590.0</ele><time>2026-04-07T13:23:54Z</time></trkpt><trkpt lat="43.90879782420314" lon="6.138445703315506"><ele>590.0</ele><time>2026-04-07T13:23:55Z</time></trkpt><trkpt lat="43.908888063538136" lon="6.138242318358248"><ele>587.3333333333333</ele><time>2026-04-07T13:23:56Z</time></trkpt><trkpt lat="43.908972867274926" lon="6.1380453878613555"><ele>584.6666666666666</ele><time>2026-04-07T13:23:57Z</time></trkpt><trkpt lat="43.90906311028238" lon="6.137857468767441"><ele>582.0</ele><time>2026-04-07T13:23:58Z</time></trkpt><trkpt lat="43.909151762218634" lon="6.137678362552689"><ele>582.0</ele><time>2026-04-07T13:23:59Z</time></trkpt><trkpt lat="43.90923868267992" lon="6.137502235573128"><ele>582.0</ele><time>2026-04-07T13:24:00Z</time></trkpt><trkpt lat="43.90932222523995" lon="6.137326363892021"><ele>582.0</ele><time>2026-04-07T13:24:01Z</time></trkpt><trkpt lat="43.90940744655349" lon="6.13716757499398"><ele>582.0</ele><time>2026-04-07T13:24:02Z</time></trkpt><trkpt lat="43.90950234818275" lon="6.137051555159039"><ele>580.0</ele><time>2026-04-07T13:24:03Z</time></trkpt><trkpt lat="43.90960464077824" lon="6.136972556396378"><ele>578.0</ele><time>2026-04-07T13:24:04Z</time></trkpt><trkpt lat="43.909714265452514" lon="6.136952926856394"><ele>576.0</ele><time>2026-04-07T13:24:05Z</time></trkpt><trkpt lat="43.909812284270934" lon="6.137001044066485"><ele>574.0</ele><time>2026-04-07T13:24:06Z</time></trkpt><trkpt lat="43.90988841492479" lon="6.137132343378327"><ele>574.0</ele><time>2026-04-07T13:24:07Z</time></trkpt><trkpt lat="43.90997980089258" lon="6.137274896079795"><ele>574.0</ele><time>2026-04-07T13:24:08Z</time></trkpt><trkpt lat="43.91006252290608" lon="6.137428098277164"><ele>574.0</ele><time>2026-04-07T13:24:09Z</time></trkpt><trkpt lat="43.91011273728031" lon="6.137616149233912"><ele>574.0</ele><time>2026-04-07T13:24:10Z</time></trkpt><trkpt lat="43.91015073364392" lon="6.137808762491675"><ele>568.6666666666667</ele><time>2026-04-07T13:24:11Z</time></trkpt><trkpt lat="43.91014403279504" lon="6.1380158782599334"><ele>563.3333333333334</ele><time>2026-04-07T13:24:12Z</time></trkpt><trkpt lat="43.910121406976685" lon="6.138225479936614"><ele>558.0</ele><time>2026-04-07T13:24:13Z</time></trkpt><trkpt lat="43.91010080713679" lon="6.138450496090068"><ele>562.6666666666666</ele><time>2026-04-07T13:24:14Z</time></trkpt><trkpt lat="43.91005304889784" lon="6.138668589281158"><ele>567.3333333333333</ele><time>2026-04-07T13:24:15Z</time></trkpt><trkpt lat="43.910015638149694" lon="6.138881821675299"><ele>572.0</ele><time>2026-04-07T13:24:16Z</time></trkpt><trkpt lat="43.909983290334566" lon="6.139087587020517"><ele>572.0</ele><time>2026-04-07T13:24:17Z</time></trkpt><trkpt lat="43.90995247249054" lon="6.139273931956583"><ele>572.0</ele><time>2026-04-07T13:24:18Z</time></trkpt><trkpt lat="43.90992324683973" lon="6.139437557627596"><ele>572.0</ele><time>2026-04-07T13:24:19Z</time></trkpt><trkpt lat="43.90991486479185" lon="6.13958469643814"><ele>572.0</ele><time>2026-04-07T13:24:20Z</time></trkpt><trkpt lat="43.9099499904713" lon="6.139718342487156"><ele>572.0</ele><time>2026-04-07T13:24:21Z</time></trkpt><trkpt lat="43.9100235980385" lon="6.139821493712444"><ele>572.0</ele><time>2026-04-07T13:24:22Z</time></trkpt><trkpt lat="43.91012441608259" lon="6.139886641268714"><ele>572.0</ele><time>2026-04-07T13:24:23Z</time></trkpt><trkpt lat="43.91023272188261" lon="6.1398988240633185"><ele>572.0</ele><time>2026-04-07T13:24:24Z</time></trkpt><trkpt lat="43.91034836833012" lon="6.1398500617688665"><ele>572.0</ele><time>2026-04-07T13:24:25Z</time></trkpt><trkpt lat="43.91047196831822" lon="6.139765149687355"><ele>569.0</ele><time>2026-04-07T13:24:26Z</time></trkpt><trkpt lat="43.91060384770875" lon="6.139675800456585"><ele>566.0</ele><time>2026-04-07T13:24:27Z</time></trkpt><trkpt lat="43.91072823981005" lon="6.139600263268547"><ele>563.0</ele><time>2026-04-07T13:24:28Z</time></trkpt><trkpt lat="43.91086046804658" lon="6.139532623300737"><ele>560.0</ele><time>2026-04-07T13:24:29Z</time></trkpt><trkpt lat="43.91098788499093" lon="6.13946791979371"><ele>558.5</ele><time>2026-04-07T13:24:30Z</time></trkpt><trkpt lat="43.91111242758598" lon="6.139404558134544"><ele>557.0</ele><time>2026-04-07T13:24:31Z</time></trkpt><trkpt lat="43.911238697096195" lon="6.139355618073827"><ele>555.5</ele><time>2026-04-07T13:24:32Z</time></trkpt><trkpt lat="43.9113648918576" lon="6.139334355741309"><ele>554.0</ele><time>2026-04-07T13:24:33Z</time></trkpt><trkpt lat="43.91148663925665" lon="6.13934557038269"><ele>554.0</ele><time>2026-04-07T13:24:34Z</time></trkpt><trkpt lat="43.91158340917712" lon="6.139339235751324"><ele>554.0</ele><time>2026-04-07T13:24:35Z</time></trkpt><trkpt lat="43.91163717150181" lon="6.13927233946023"><ele>554.0</ele><time>2026-04-07T13:24:36Z</time></trkpt><trkpt lat="43.91164716057219" lon="6.139169849850655"><ele>554.0</ele><time>2026-04-07T13:24:37Z</time></trkpt><trkpt lat="43.91160891078967" lon="6.139067046280944"><ele>554.0</ele><time>2026-04-07T13:24:38Z</time></trkpt><trkpt lat="43.91153303258685" lon="6.13901392747873"><ele>554.0</ele><time>2026-04-07T13:24:39Z</time></trkpt><trkpt lat="43.91143696798226" lon="6.139017408375676"><ele>554.0</ele><time>2026-04-07T13:24:40Z</time></trkpt><trkpt lat="43.911332912485" lon="6.139053313775337"><ele>554.0</ele><time>2026-04-07T13:24:41Z</time></trkpt><trkpt lat="43.9112387316443" lon="6.139104213464445"><ele>554.0</ele><time>2026-04-07T13:24:42Z</time></trkpt><trkpt lat="43.91115539539082" lon="6.139140713391855"><ele>554.0</ele><time>2026-04-07T13:24:43Z</time></trkpt><trkpt lat="43.9110877338275" lon="6.139119117842875"><ele>554.0</ele><time>2026-04-07T13:24:44Z</time></trkpt><trkpt lat="43.91105005861839" lon="6.139041438226865"><ele>554.0</ele><time>2026-04-07T13:24:45Z</time></trkpt><trkpt lat="43.91106628430812" lon="6.138929761578367"><ele>551.75</ele><time>2026-04-07T13:24:46Z</time></trkpt><trkpt lat="43.91113892802027" lon="6.138833893129828"><ele>549.5</ele><time>2026-04-07T13:24:47Z</time></trkpt><trkpt lat="43.911251519987765" lon="6.138760746642474"><ele>547.25</ele><time>2026-04-07T13:24:48Z</time></trkpt><trkpt lat="43.911375516296935" lon="6.138682159169815"><ele>545.0</ele><time>2026-04-07T13:24:49Z</time></trkpt><trkpt lat="43.911494096489406" lon="6.138570191372634"><ele>545.0</ele><time>2026-04-07T13:24:50Z</time></trkpt><trkpt lat="43.911604907903794" lon="6.138454605919815"><ele>545.0</ele><time>2026-04-07T13:24:51Z</time></trkpt><trkpt lat="43.9117153219714" lon="6.138339259181171"><ele>545.0</ele><time>2026-04-07T13:24:52Z</time></trkpt><trkpt lat="43.911824587703485" lon="6.138225045835857"><ele>545.0</ele><time>2026-04-07T13:24:53Z</time></trkpt><trkpt lat="43.91192147227614" lon="6.138129338402534"><ele>543.4</ele><time>2026-04-07T13:24:54Z</time></trkpt><trkpt lat="43.912013902902366" lon="6.13809531729511"><ele>541.8</ele><time>2026-04-07T13:24:55Z</time></trkpt><trkpt lat="43.912109424646715" lon="6.138130992721668"><ele>540.2</ele><time>2026-04-07T13:24:56Z</time></trkpt><trkpt lat="43.91220672493536" lon="6.138220238425936"><ele>538.6</ele><time>2026-04-07T13:24:57Z</time></trkpt><trkpt lat="43.91228232036407" lon="6.138362948256909"><ele>537.0</ele><time>2026-04-07T13:24:58Z</time></trkpt><trkpt lat="43.912359167639714" lon="6.138501074876679"><ele>537.0</ele><time>2026-04-07T13:24:59Z</time></trkpt><trkpt lat="43.91247179222675" lon="6.1385650668214815"><ele>537.0</ele><time>2026-04-07T13:25:00Z</time></trkpt><trkpt lat="43.91260452129141" lon="6.13854449317585"><ele>537.0</ele><time>2026-04-07T13:25:01Z</time></trkpt><trkpt lat="43.91274546085713" lon="6.1384658847283955"><ele>537.0</ele><time>2026-04-07T13:25:02Z</time></trkpt><trkpt lat="43.912879190118055" lon="6.138371154475611"><ele>535.6666666666666</ele><time>2026-04-07T13:25:03Z</time></trkpt><trkpt lat="43.9130229474623" lon="6.138284571556032"><ele>534.3333333333333</ele><time>2026-04-07T13:25:04Z</time></trkpt><trkpt lat="43.91317099986422" lon="6.138223856958513"><ele>533.0</ele><time>2026-04-07T13:25:05Z</time></trkpt><trkpt lat="43.91332404684339" lon="6.1381796585372195"><ele>530.3333333333333</ele><time>2026-04-07T13:25:06Z</time></trkpt><trkpt lat="43.91347851966144" lon="6.138134195319158"><ele>527.6666666666666</ele><time>2026-04-07T13:25:07Z</time></trkpt><trkpt lat="43.913632236359234" lon="6.138071066475648"><ele>525.0</ele><time>2026-04-07T13:25:08Z</time></trkpt><trkpt lat="43.913775090643036" lon="6.137998692041938"><ele>525.0</ele><time>2026-04-07T13:25:09Z</time></trkpt><trkpt lat="43.91391466072171" lon="6.13792705389186"><ele>525.0</ele><time>2026-04-07T13:25:10Z</time></trkpt><trkpt lat="43.914049768232545" lon="6.137840920961946"><ele>525.0</ele><time>2026-04-07T13:25:11Z</time></trkpt><trkpt lat="43.914169768258375" lon="6.137725555346238"><ele>525.0</ele><time>2026-04-07T13:25:12Z</time></trkpt><trkpt lat="43.91426666996567" lon="6.137566312568189"><ele>529.3333333333334</ele><time>2026-04-07T13:25:13Z</time></trkpt><trkpt lat="43.91433337848107" lon="6.137368437039619"><ele>533.6666666666667</ele><time>2026-04-07T13:25:14Z</time></trkpt><trkpt lat="43.9143705124378" lon="6.137138992161388"><ele>538.0</ele><time>2026-04-07T13:25:15Z</time></trkpt><trkpt lat="43.914383512780034" lon="6.1369014224518095"><ele>538.0</ele><time>2026-04-07T13:25:16Z</time></trkpt><trkpt lat="43.9143940580065" lon="6.136661539408752"><ele>538.0</ele><time>2026-04-07T13:25:17Z</time></trkpt><trkpt lat="43.91441214480237" lon="6.136413420710801"><ele>538.0</ele><time>2026-04-07T13:25:18Z</time></trkpt><trkpt lat="43.91444965878789" lon="6.13617003070727"><ele>534.6666666666667</ele><time>2026-04-07T13:25:19Z</time></trkpt><trkpt lat="43.91450256106443" lon="6.135945594139816"><ele>531.3333333333334</ele><time>2026-04-07T13:25:20Z</time></trkpt><trkpt lat="43.914566258492215" lon="6.135737679889107"><ele>528.0</ele><time>2026-04-07T13:25:21Z</time></trkpt><trkpt lat="43.91464403045468" lon="6.135525304934106"><ele>523.3333333333334</ele><time>2026-04-07T13:25:22Z</time></trkpt><trkpt lat="43.914734240586384" lon="6.135329384231878"><ele>518.6666666666667</ele><time>2026-04-07T13:25:23Z</time></trkpt><trkpt lat="43.91484196334691" lon="6.135148773546505"><ele>514.0</ele><time>2026-04-07T13:25:24Z</time></trkpt><trkpt lat="43.91495928817706" lon="6.1349869336502785"><ele>510.33333333333337</ele><time>2026-04-07T13:25:25Z</time></trkpt><trkpt lat="43.91510149121425" lon="6.13487691085381"><ele>506.66666666666663</ele><time>2026-04-07T13:25:26Z</time></trkpt><trkpt lat="43.915244364908304" lon="6.134763373552911"><ele>503.0</ele><time>2026-04-07T13:25:27Z</time></trkpt><trkpt lat="43.91540145145732" lon="6.13470084524798"><ele>503.0</ele><time>2026-04-07T13:25:28Z</time></trkpt><trkpt lat="43.91556837091469" lon="6.1346509828692595"><ele>503.0</ele><time>2026-04-07T13:25:29Z</time></trkpt><trkpt lat="43.91573458950107" lon="6.1346220207041195"><ele>503.0</ele><time>2026-04-07T13:25:30Z</time></trkpt><trkpt lat="43.91590612520557" lon="6.134598404785846"><ele>502.3333333333333</ele><time>2026-04-07T13:25:31Z</time></trkpt><trkpt lat="43.916069174883944" lon="6.134559737407286"><ele>501.66666666666663</ele><time>2026-04-07T13:25:32Z</time></trkpt><trkpt lat="43.916219775988466" lon="6.134485405044912"><ele>501.0</ele><time>2026-04-07T13:25:33Z</time></trkpt><trkpt lat="43.9163576799719" lon="6.134385595277925"><ele>501.0</ele><time>2026-04-07T13:25:34Z</time></trkpt><trkpt lat="43.9164780623459" lon="6.134282253804277"><ele>501.0</ele><time>2026-04-07T13:25:35Z</time></trkpt><trkpt lat="43.916596598920094" lon="6.134203945497256"><ele>501.0</ele><time>2026-04-07T13:25:36Z</time></trkpt><trkpt lat="43.916720622115314" lon="6.1341972011023715"><ele>501.0</ele><time>2026-04-07T13:25:37Z</time></trkpt><trkpt lat="43.916835371010635" lon="6.134264901324951"><ele>498.66666666666663</ele><time>2026-04-07T13:25:38Z</time></trkpt><trkpt lat="43.9169408745588" lon="6.134376661619336"><ele>496.3333333333333</ele><time>2026-04-07T13:25:39Z</time></trkpt><trkpt lat="43.91707027581348" lon="6.134501932304016"><ele>494.0</ele><time>2026-04-07T13:25:40Z</time></trkpt><trkpt lat="43.917191726793234" lon="6.134647270554489"><ele>494.0</ele><time>2026-04-07T13:25:41Z</time></trkpt><trkpt lat="43.91732979132278" lon="6.134766636238982"><ele>494.0</ele><time>2026-04-07T13:25:42Z</time></trkpt><trkpt lat="43.91748972821831" lon="6.134853170876643"><ele>494.0</ele><time>2026-04-07T13:25:43Z</time></trkpt><trkpt lat="43.91765418592363" lon="6.134913601471312"><ele>495.66666666666663</ele><time>2026-04-07T13:25:44Z</time></trkpt><trkpt lat="43.917815668697095" lon="6.134969411558723"><ele>497.33333333333337</ele><time>2026-04-07T13:25:45Z</time></trkpt><trkpt lat="43.917974178071525" lon="6.135028674837201"><ele>499.0</ele><time>2026-04-07T13:25:46Z</time></trkpt><trkpt lat="43.91812045347311" lon="6.135082361702815"><ele>499.0</ele><time>2026-04-07T13:25:47Z</time></trkpt><trkpt lat="43.91826550642954" lon="6.1351265135027555"><ele>499.0</ele><time>2026-04-07T13:25:48Z</time></trkpt><trkpt lat="43.918409490129925" lon="6.135159013768012"><ele>499.0</ele><time>2026-04-07T13:25:49Z</time></trkpt><trkpt lat="43.918558425578716" lon="6.135174195276933"><ele>499.0</ele><time>2026-04-07T13:25:50Z</time></trkpt><trkpt lat="43.91871235589415" lon="6.135152901567443"><ele>497.75</ele><time>2026-04-07T13:25:51Z</time></trkpt><trkpt lat="43.91885916408404" lon="6.1350979794674"><ele>496.5</ele><time>2026-04-07T13:25:52Z</time></trkpt><trkpt lat="43.91899901998926" lon="6.1350237213771806"><ele>495.25</ele><time>2026-04-07T13:25:53Z</time></trkpt><trkpt lat="43.919124162745256" lon="6.134940265446661"><ele>494.0</ele><time>2026-04-07T13:25:54Z</time></trkpt><trkpt lat="43.91924171400917" lon="6.134837378590336"><ele>492.25</ele><time>2026-04-07T13:25:55Z</time></trkpt><trkpt lat="43.91933590230444" lon="6.1347050170493"><ele>490.5</ele><time>2026-04-07T13:25:56Z</time></trkpt><trkpt lat="43.919426766417374" lon="6.134569525129391"><ele>488.75</ele><time>2026-04-07T13:25:57Z</time></trkpt><trkpt lat="43.91951421451639" lon="6.134444416950287"><ele>487.0</ele><time>2026-04-07T13:25:58Z</time></trkpt><trkpt lat="43.919609354840375" lon="6.13431429269891"><ele>487.0</ele><time>2026-04-07T13:25:59Z</time></trkpt><trkpt lat="43.91969665475941" lon="6.134186975383494"><ele>487.0</ele><time>2026-04-07T13:26:00Z</time></trkpt><trkpt lat="43.91978137064709" lon="6.134066721169133"><ele>487.0</ele><time>2026-04-07T13:26:01Z</time></trkpt><trkpt lat="43.91986790240576" lon="6.133947750456354"><ele>487.0</ele><time>2026-04-07T13:26:02Z</time></trkpt><trkpt lat="43.91996432191952" lon="6.133834811765798"><ele>486.0</ele><time>2026-04-07T13:26:03Z</time></trkpt><trkpt lat="43.92006241379683" lon="6.133778214154014"><ele>485.00000000000006</ele><time>2026-04-07T13:26:04Z</time></trkpt><trkpt lat="43.92015923194385" lon="6.133842502878388"><ele>484.00000000000006</ele><time>2026-04-07T13:26:05Z</time></trkpt><trkpt lat="43.92022461426907" lon="6.133905604069941"><ele>483.0</ele><time>2026-04-07T13:26:06Z</time></trkpt><trkpt lat="43.92029072758993" lon="6.133961342637544"><ele>482.0</ele><time>2026-04-07T13:26:07Z</time></trkpt><trkpt lat="43.92036437372328" lon="6.134001390867003"><ele>482.66666666666663</ele><time>2026-04-07T13:26:08Z</time></trkpt><trkpt lat="43.920418442438205" lon="6.134063509676824"><ele>483.3333333333333</ele><time>2026-04-07T13:26:09Z</time></trkpt><trkpt lat="43.92048703909758" lon="6.134116555956307"><ele>484.0</ele><time>2026-04-07T13:26:10Z</time></trkpt><trkpt lat="43.920557188104176" lon="6.134165872952329"><ele>484.66666666666663</ele><time>2026-04-07T13:26:11Z</time></trkpt><trkpt lat="43.92062900872881" lon="6.134222465973707"><ele>485.3333333333333</ele><time>2026-04-07T13:26:12Z</time></trkpt><trkpt lat="43.9206983259238" lon="6.13428291442605"><ele>486.0</ele><time>2026-04-07T13:26:13Z</time></trkpt><trkpt lat="43.920757521196364" lon="6.13436533576237"><ele>486.0</ele><time>2026-04-07T13:26:14Z</time></trkpt><trkpt lat="43.92081745574766" lon="6.13443696433646"><ele>486.0</ele><time>2026-04-07T13:26:15Z</time></trkpt><trkpt lat="43.92089085678916" lon="6.134481121287508"><ele>486.0</ele><time>2026-04-07T13:26:16Z</time></trkpt><trkpt lat="43.920962507497485" lon="6.134523685542728"><ele>486.0</ele><time>2026-04-07T13:26:17Z</time></trkpt><trkpt lat="43.921033681242704" lon="6.1345662137736685"><ele>486.0</ele><time>2026-04-07T13:26:18Z</time></trkpt><trkpt lat="43.921106546788785" lon="6.134606731033196"><ele>486.0</ele><time>2026-04-07T13:26:19Z</time></trkpt><trkpt lat="43.921170124969066" lon="6.134661910103829"><ele>486.1666666666667</ele><time>2026-04-07T13:26:20Z</time></trkpt><trkpt lat="43.92124519101871" lon="6.13470883179646"><ele>486.33333333333337</ele><time>2026-04-07T13:26:21Z</time></trkpt><trkpt lat="43.92131808508973" lon="6.1347725121934005"><ele>486.5</ele><time>2026-04-07T13:26:22Z</time></trkpt><trkpt lat="43.9213851473517" lon="6.134844282990016"><ele>486.6666666666667</ele><time>2026-04-07T13:26:23Z</time></trkpt><trkpt lat="43.92146462665247" lon="6.134881558826303"><ele>486.83333333333337</ele><time>2026-04-07T13:26:24Z</time></trkpt><trkpt lat="43.92155199549793" lon="6.13490722624231"><ele>487.0</ele><time>2026-04-07T13:26:25Z</time></trkpt><trkpt lat="43.92163323995303" lon="6.13496662961157"><ele>487.0</ele><time>2026-04-07T13:26:26Z</time></trkpt><trkpt lat="43.92167465955404" lon="6.135085135926113"><ele>487.00000000000006</ele><time>2026-04-07T13:26:27Z</time></trkpt><trkpt lat="43.92171826426699" lon="6.135189977383784"><ele>487.00000000000006</ele><time>2026-04-07T13:26:28Z</time></trkpt><trkpt lat="43.9217534447652" lon="6.135321420470111"><ele>487.0</ele><time>2026-04-07T13:26:29Z</time></trkpt><trkpt lat="43.92178545550104" lon="6.135464617028436"><ele>487.0</ele><time>2026-04-07T13:26:30Z</time></trkpt><trkpt lat="43.92181795867712" lon="6.135621009239236"><ele>486.0</ele><time>2026-04-07T13:26:31Z</time></trkpt><trkpt lat="43.92184792978305" lon="6.135785420791689"><ele>485.0</ele><time>2026-04-07T13:26:32Z</time></trkpt><trkpt lat="43.92187367689047" lon="6.135956956803833"><ele>484.0</ele><time>2026-04-07T13:26:33Z</time></trkpt><trkpt lat="43.921906314999866" lon="6.136126432637069"><ele>483.0</ele><time>2026-04-07T13:26:34Z</time></trkpt><trkpt lat="43.92194026302752" lon="6.1363046202120275"><ele>483.0</ele><time>2026-04-07T13:26:35Z</time></trkpt><trkpt lat="43.921982328137226" lon="6.136477796288891"><ele>483.0</ele><time>2026-04-07T13:26:36Z</time></trkpt><trkpt lat="43.9220066608987" lon="6.136659603057881"><ele>483.0</ele><time>2026-04-07T13:26:37Z</time></trkpt><trkpt lat="43.922029406610605" lon="6.136834678557239"><ele>483.0</ele><time>2026-04-07T13:26:38Z</time></trkpt><trkpt lat="43.922055415038464" lon="6.137006503659448"><ele>483.0</ele><time>2026-04-07T13:26:39Z</time></trkpt><trkpt lat="43.922081205841316" lon="6.1371732297543975"><ele>483.0</ele><time>2026-04-07T13:26:40Z</time></trkpt><trkpt lat="43.92210406039365" lon="6.137333688374566"><ele>483.0</ele><time>2026-04-07T13:26:41Z</time></trkpt><trkpt lat="43.92212064371063" lon="6.137484500970318"><ele>483.0</ele><time>2026-04-07T13:26:42Z</time></trkpt><trkpt lat="43.922146872307174" lon="6.1376419838523155"><ele>483.5</ele><time>2026-04-07T13:26:43Z</time></trkpt><trkpt lat="43.92217015298137" lon="6.137797891731597"><ele>484.0</ele><time>2026-04-07T13:26:44Z</time></trkpt><trkpt lat="43.922188549853495" lon="6.137957713692688"><ele>484.5</ele><time>2026-04-07T13:26:45Z</time></trkpt><trkpt lat="43.922218121870074" lon="6.138123263813689"><ele>485.0</ele><time>2026-04-07T13:26:46Z</time></trkpt><trkpt lat="43.92226306921683" lon="6.138275613174887"><ele>485.0</ele><time>2026-04-07T13:26:47Z</time></trkpt><trkpt lat="43.922337558117725" lon="6.138428371236841"><ele>485.0</ele><time>2026-04-07T13:26:48Z</time></trkpt><trkpt lat="43.922432130569206" lon="6.138578027581919"><ele>485.0</ele><time>2026-04-07T13:26:49Z</time></trkpt><trkpt lat="43.9225491888055" lon="6.138707483371866"><ele>485.0</ele><time>2026-04-07T13:26:50Z</time></trkpt><trkpt lat="43.92267516799099" lon="6.138839597983974"><ele>484.66666666666663</ele><time>2026-04-07T13:26:51Z</time></trkpt><trkpt lat="43.92280408390218" lon="6.138979707444949"><ele>484.33333333333337</ele><time>2026-04-07T13:26:52Z</time></trkpt><trkpt lat="43.92293516817334" lon="6.13912648701118"><ele>484.0</ele><time>2026-04-07T13:26:53Z</time></trkpt><trkpt lat="43.92307595261636" lon="6.13928020817163"><ele>484.6666666666667</ele><time>2026-04-07T13:26:54Z</time></trkpt><trkpt lat="43.92321850143553" lon="6.139436404820009"><ele>485.33333333333337</ele><time>2026-04-07T13:26:55Z</time></trkpt><trkpt lat="43.92335269068425" lon="6.139592358108014"><ele>486.0</ele><time>2026-04-07T13:26:56Z</time></trkpt><trkpt lat="43.92349229646818" lon="6.139757173964707"><ele>486.33333333333337</ele><time>2026-04-07T13:26:57Z</time></trkpt><trkpt lat="43.92362794678607" lon="6.139928679725743"><ele>486.6666666666667</ele><time>2026-04-07T13:26:58Z</time></trkpt><trkpt lat="43.92375776240994" lon="6.140106306779338"><ele>487.0</ele><time>2026-04-07T13:26:59Z</time></trkpt><trkpt lat="43.92388254725762" lon="6.140287981132196"><ele>487.0</ele><time>2026-04-07T13:27:00Z</time></trkpt><trkpt lat="43.92400634966714" lon="6.140458689205055"><ele>487.0</ele><time>2026-04-07T13:27:01Z</time></trkpt><trkpt lat="43.92413018557454" lon="6.140608661211257"><ele>487.0</ele><time>2026-04-07T13:27:02Z</time></trkpt><trkpt lat="43.92427209773956" lon="6.140751765771617"><ele>487.33333333333337</ele><time>2026-04-07T13:27:03Z</time></trkpt><trkpt lat="43.924431222057194" lon="6.140870569449101"><ele>487.66666666666663</ele><time>2026-04-07T13:27:04Z</time></trkpt><trkpt lat="43.92460760285602" lon="6.140978344335175"><ele>488.0</ele><time>2026-04-07T13:27:05Z</time></trkpt><trkpt lat="43.92482602035224" lon="6.140997065575668"><ele>488.0</ele><time>2026-04-07T13:27:06Z</time></trkpt><trkpt lat="43.925047140677016" lon="6.141017944786632"><ele>488.0</ele><time>2026-04-07T13:27:07Z</time></trkpt><trkpt lat="43.92524890792566" lon="6.1410318770260455"><ele>488.0</ele><time>2026-04-07T13:27:08Z</time></trkpt><trkpt lat="43.9254419802084" lon="6.1410492417537315"><ele>488.3333333333333</ele><time>2026-04-07T13:27:09Z</time></trkpt><trkpt lat="43.92563346610065" lon="6.141063407276372"><ele>488.66666666666663</ele><time>2026-04-07T13:27:10Z</time></trkpt><trkpt lat="43.92581458880033" lon="6.141080859937524"><ele>489.0</ele><time>2026-04-07T13:27:11Z</time></trkpt><trkpt lat="43.9259958939815" lon="6.141101888907479"><ele>489.33333333333337</ele><time>2026-04-07T13:27:12Z</time></trkpt><trkpt lat="43.926181091531674" lon="6.141124996811881"><ele>489.6666666666667</ele><time>2026-04-07T13:27:13Z</time></trkpt><trkpt lat="43.926362785426406" lon="6.141153418984191"><ele>490.0</ele><time>2026-04-07T13:27:14Z</time></trkpt><trkpt lat="43.92654105687907" lon="6.141190695811075"><ele>490.0</ele><time>2026-04-07T13:27:15Z</time></trkpt><trkpt lat="43.926712573134765" lon="6.141255727507452"><ele>490.0</ele><time>2026-04-07T13:27:16Z</time></trkpt><trkpt lat="43.926877287321695" lon="6.141345750973374"><ele>490.0</ele><time>2026-04-07T13:27:17Z</time></trkpt><trkpt lat="43.927041297193064" lon="6.1414636212007165"><ele>491.33333333333337</ele><time>2026-04-07T13:27:18Z</time></trkpt><trkpt lat="43.92719510037418" lon="6.141592234233966"><ele>492.66666666666663</ele><time>2026-04-07T13:27:19Z</time></trkpt><trkpt lat="43.92734315632262" lon="6.141728190804312"><ele>494.0</ele><time>2026-04-07T13:27:20Z</time></trkpt><trkpt lat="43.92748361456351" lon="6.141855995678545"><ele>493.0</ele><time>2026-04-07T13:27:21Z</time></trkpt><trkpt lat="43.92762020688862" lon="6.1419725131047525"><ele>492.0</ele><time>2026-04-07T13:27:22Z</time></trkpt><trkpt lat="43.9277616087189" lon="6.142099090473027"><ele>491.0</ele><time>2026-04-07T13:27:23Z</time></trkpt><trkpt lat="43.92790212137772" lon="6.142245486968996"><ele>492.66666666666663</ele><time>2026-04-07T13:27:24Z</time></trkpt><trkpt lat="43.92802690724372" lon="6.142398305692005"><ele>494.33333333333337</ele><time>2026-04-07T13:27:25Z</time></trkpt><trkpt lat="43.92814770513886" lon="6.14257758389027"><ele>496.0</ele><time>2026-04-07T13:27:26Z</time></trkpt><trkpt lat="43.92825751062992" lon="6.142782716446015"><ele>496.0</ele><time>2026-04-07T13:27:27Z</time></trkpt><trkpt lat="43.928355646699075" lon="6.143005873310636"><ele>496.0</ele><time>2026-04-07T13:27:28Z</time></trkpt><trkpt lat="43.92843723929114" lon="6.1432393189482255"><ele>496.0</ele><time>2026-04-07T13:27:29Z</time></trkpt><trkpt lat="43.928501224904096" lon="6.143475459739763"><ele>495.33333333333337</ele><time>2026-04-07T13:27:30Z</time></trkpt><trkpt lat="43.9285441433989" lon="6.143729969124146"><ele>494.66666666666663</ele><time>2026-04-07T13:27:31Z</time></trkpt><trkpt lat="43.928564613257734" lon="6.143986014131155"><ele>494.0</ele><time>2026-04-07T13:27:32Z</time></trkpt><trkpt lat="43.928579082332455" lon="6.144247181803142"><ele>494.0</ele><time>2026-04-07T13:27:33Z</time></trkpt><trkpt lat="43.92859186541819" lon="6.144511950187751"><ele>494.0</ele><time>2026-04-07T13:27:34Z</time></trkpt><trkpt lat="43.92860456813459" lon="6.144767401064614"><ele>494.0</ele><time>2026-04-07T13:27:35Z</time></trkpt><trkpt lat="43.92862518707829" lon="6.145025541086607"><ele>493.66666666666663</ele><time>2026-04-07T13:27:36Z</time></trkpt><trkpt lat="43.92864830635019" lon="6.145286116714475"><ele>493.33333333333337</ele><time>2026-04-07T13:27:37Z</time></trkpt><trkpt lat="43.92867479847379" lon="6.14554280680029"><ele>493.0</ele><time>2026-04-07T13:27:38Z</time></trkpt><trkpt lat="43.9287224916685" lon="6.1457912055092105"><ele>494.0</ele><time>2026-04-07T13:27:39Z</time></trkpt><trkpt lat="43.928797311615185" lon="6.146032263106504"><ele>495.0</ele><time>2026-04-07T13:27:40Z</time></trkpt><trkpt lat="43.928891313609086" lon="6.14625399542035"><ele>496.0</ele><time>2026-04-07T13:27:41Z</time></trkpt><trkpt lat="43.929001204505866" lon="6.146461402636997"><ele>495.6666666666667</ele><time>2026-04-07T13:27:42Z</time></trkpt><trkpt lat="43.92912812497194" lon="6.146661661662761"><ele>495.33333333333337</ele><time>2026-04-07T13:27:43Z</time></trkpt><trkpt lat="43.929260731734516" lon="6.146849822945437"><ele>495.0</ele><time>2026-04-07T13:27:44Z</time></trkpt><trkpt lat="43.92939649653951" lon="6.147032457168667"><ele>495.0</ele><time>2026-04-07T13:27:45Z</time></trkpt><trkpt lat="43.92952090910585" lon="6.1472095839286105"><ele>495.0</ele><time>2026-04-07T13:27:46Z</time></trkpt><trkpt lat="43.92963358445077" lon="6.147391710024138"><ele>495.0</ele><time>2026-04-07T13:27:47Z</time></trkpt><trkpt lat="43.929735703849516" lon="6.14758201867863"><ele>495.0</ele><time>2026-04-07T13:27:48Z</time></trkpt><trkpt lat="43.929820845671635" lon="6.147798454374284"><ele>495.0</ele><time>2026-04-07T13:27:49Z</time></trkpt><trkpt lat="43.92988299944113" lon="6.148035507402279"><ele>495.0</ele><time>2026-04-07T13:27:50Z</time></trkpt><trkpt lat="43.929932955924244" lon="6.148278577165817"><ele>494.33333333333337</ele><time>2026-04-07T13:27:51Z</time></trkpt><trkpt lat="43.929977262668864" lon="6.148511870488344"><ele>493.6666666666667</ele><time>2026-04-07T13:27:52Z</time></trkpt><trkpt lat="43.930024051197684" lon="6.148750555188274"><ele>493.0</ele><time>2026-04-07T13:27:53Z</time></trkpt><trkpt lat="43.93007744174177" lon="6.148981065822481"><ele>492.6666666666667</ele><time>2026-04-07T13:27:54Z</time></trkpt><trkpt lat="43.930135140839184" lon="6.149208999596501"><ele>492.33333333333337</ele><time>2026-04-07T13:27:55Z</time></trkpt><trkpt lat="43.93019060486413" lon="6.149441403141183"><ele>492.0</ele><time>2026-04-07T13:27:56Z</time></trkpt><trkpt lat="43.930238469328316" lon="6.149684302868448"><ele>492.0</ele><time>2026-04-07T13:27:57Z</time></trkpt><trkpt lat="43.93028134221694" lon="6.149921471165219"><ele>492.0</ele><time>2026-04-07T13:27:58Z</time></trkpt><trkpt lat="43.93033302387037" lon="6.150161711127036"><ele>492.0</ele><time>2026-04-07T13:27:59Z</time></trkpt><trkpt lat="43.93038822503356" lon="6.150405481590143"><ele>492.0</ele><time>2026-04-07T13:28:00Z</time></trkpt><trkpt lat="43.930440784974074" lon="6.150648424428698"><ele>492.0</ele><time>2026-04-07T13:28:01Z</time></trkpt><trkpt lat="43.93049604384249" lon="6.150897931816773"><ele>492.0</ele><time>2026-04-07T13:28:02Z</time></trkpt><trkpt lat="43.930554110224584" lon="6.151150153587067"><ele>492.66666666666663</ele><time>2026-04-07T13:28:03Z</time></trkpt><trkpt lat="43.930616371600216" lon="6.151405524303291"><ele>493.3333333333333</ele><time>2026-04-07T13:28:04Z</time></trkpt><trkpt lat="43.93067980732635" lon="6.151662547997748"><ele>494.0</ele><time>2026-04-07T13:28:05Z</time></trkpt><trkpt lat="43.9307483369884" lon="6.151918874139794"><ele>494.3333333333333</ele><time>2026-04-07T13:28:06Z</time></trkpt><trkpt lat="43.93082540031568" lon="6.152171248798723"><ele>494.66666666666663</ele><time>2026-04-07T13:28:07Z</time></trkpt><trkpt lat="43.93092599968746" lon="6.1524098067465545"><ele>495.0</ele><time>2026-04-07T13:28:08Z</time></trkpt><trkpt lat="43.931044024992325" lon="6.152628844690666"><ele>496.0</ele><time>2026-04-07T13:28:09Z</time></trkpt><trkpt lat="43.93117775743756" lon="6.152834573555689"><ele>497.0</ele><time>2026-04-07T13:28:10Z</time></trkpt><trkpt lat="43.931299406195336" lon="6.153038887438501"><ele>498.0</ele><time>2026-04-07T13:28:11Z</time></trkpt><trkpt lat="43.93142371365107" lon="6.153246773430083"><ele>498.0</ele><time>2026-04-07T13:28:12Z</time></trkpt><trkpt lat="43.93154801630157" lon="6.153441624457308"><ele>498.0</ele><time>2026-04-07T13:28:13Z</time></trkpt><trkpt lat="43.93168146174434" lon="6.153628099842381"><ele>498.0</ele><time>2026-04-07T13:28:14Z</time></trkpt><trkpt lat="43.93181902566365" lon="6.153810934711378"><ele>497.33333333333337</ele><time>2026-04-07T13:28:15Z</time></trkpt><trkpt lat="43.931959585181055" lon="6.153986406421376"><ele>496.6666666666667</ele><time>2026-04-07T13:28:16Z</time></trkpt><trkpt lat="43.93211121013911" lon="6.154140922210907"><ele>496.0</ele><time>2026-04-07T13:28:17Z</time></trkpt><trkpt lat="43.9322744013158" lon="6.154289196861127"><ele>496.0</ele><time>2026-04-07T13:28:18Z</time></trkpt><trkpt lat="43.93242643719082" lon="6.154441999176928"><ele>496.0</ele><time>2026-04-07T13:28:19Z</time></trkpt><trkpt lat="43.932572129335846" lon="6.154599193689663"><ele>496.0</ele><time>2026-04-07T13:28:20Z</time></trkpt><trkpt lat="43.93271787556491" lon="6.154761799896324"><ele>496.0</ele><time>2026-04-07T13:28:21Z</time></trkpt><trkpt lat="43.93286020241682" lon="6.1549405319254"><ele>496.0</ele><time>2026-04-07T13:28:22Z</time></trkpt><trkpt lat="43.932991179848145" lon="6.155141730591609"><ele>496.0</ele><time>2026-04-07T13:28:23Z</time></trkpt><trkpt lat="43.93312323725386" lon="6.155351135206661"><ele>496.0</ele><time>2026-04-07T13:28:24Z</time></trkpt><trkpt lat="43.9332608980244" lon="6.155548650541634"><ele>496.0</ele><time>2026-04-07T13:28:25Z</time></trkpt><trkpt lat="43.93341643954135" lon="6.155738671291471"><ele>496.0</ele><time>2026-04-07T13:28:26Z</time></trkpt><trkpt lat="43.93357951195675" lon="6.15592116328249"><ele>496.0</ele><time>2026-04-07T13:28:27Z</time></trkpt><trkpt lat="43.93374668655439" lon="6.156084725584441"><ele>496.0</ele><time>2026-04-07T13:28:28Z</time></trkpt><trkpt lat="43.93392706250773" lon="6.1562367559972735"><ele>496.0</ele><time>2026-04-07T13:28:29Z</time></trkpt><trkpt lat="43.93409893616178" lon="6.156374333954823"><ele>495.33333333333337</ele><time>2026-04-07T13:28:30Z</time></trkpt><trkpt lat="43.934263517114935" lon="6.156514066106711"><ele>494.66666666666663</ele><time>2026-04-07T13:28:31Z</time></trkpt><trkpt lat="43.93442225970237" lon="6.156655718256386"><ele>494.0</ele><time>2026-04-07T13:28:32Z</time></trkpt><trkpt lat="43.934573879823276" lon="6.1568004008475885"><ele>496.0</ele><time>2026-04-07T13:28:33Z</time></trkpt><trkpt lat="43.93471845193797" lon="6.156955051846571"><ele>498.0</ele><time>2026-04-07T13:28:34Z</time></trkpt><trkpt lat="43.934851404025196" lon="6.157124929944236"><ele>500.0</ele><time>2026-04-07T13:28:35Z</time></trkpt><trkpt lat="43.93497705704561" lon="6.1573231015555345"><ele>499.3333333333333</ele><time>2026-04-07T13:28:36Z</time></trkpt><trkpt lat="43.93508792725785" lon="6.15753902109895"><ele>498.66666666666663</ele><time>2026-04-07T13:28:37Z</time></trkpt><trkpt lat="43.93519476826487" lon="6.15777127295525"><ele>498.0</ele><time>2026-04-07T13:28:38Z</time></trkpt><trkpt lat="43.93530228247021" lon="6.158004661646641"><ele>499.0</ele><time>2026-04-07T13:28:39Z</time></trkpt><trkpt lat="43.93541299538974" lon="6.158231651983381"><ele>500.0</ele><time>2026-04-07T13:28:40Z</time></trkpt><trkpt lat="43.935520733914984" lon="6.1584493018572894"><ele>501.0</ele><time>2026-04-07T13:28:41Z</time></trkpt><trkpt lat="43.935623785869794" lon="6.158661972697601"><ele>501.0</ele><time>2026-04-07T13:28:42Z</time></trkpt><trkpt lat="43.93571814177427" lon="6.158876109876635"><ele>501.0</ele><time>2026-04-07T13:28:43Z</time></trkpt><trkpt lat="43.9358083370471" lon="6.159090126427689"><ele>501.0</ele><time>2026-04-07T13:28:44Z</time></trkpt><trkpt lat="43.93590136615313" lon="6.159297120347823"><ele>500.33333333333337</ele><time>2026-04-07T13:28:45Z</time></trkpt><trkpt lat="43.936002158643376" lon="6.15951389516668"><ele>499.6666666666667</ele><time>2026-04-07T13:28:46Z</time></trkpt><trkpt lat="43.93611132695675" lon="6.1597312905072705"><ele>499.0</ele><time>2026-04-07T13:28:47Z</time></trkpt><trkpt lat="43.93623621681109" lon="6.159933702782419"><ele>499.0</ele><time>2026-04-07T13:28:48Z</time></trkpt><trkpt lat="43.93637185498726" lon="6.160137493378149"><ele>499.0</ele><time>2026-04-07T13:28:49Z</time></trkpt><trkpt lat="43.93650594214881" lon="6.160346578362301"><ele>499.0</ele><time>2026-04-07T13:28:50Z</time></trkpt><trkpt lat="43.93663807433371" lon="6.1605568557882115"><ele>499.0</ele><time>2026-04-07T13:28:51Z</time></trkpt><trkpt lat="43.936772903727615" lon="6.1607650787978905"><ele>499.0</ele><time>2026-04-07T13:28:52Z</time></trkpt><trkpt lat="43.93690626814635" lon="6.160965583915736"><ele>499.0</ele><time>2026-04-07T13:28:53Z</time></trkpt><trkpt lat="43.93704179384558" lon="6.161167084332003"><ele>499.0</ele><time>2026-04-07T13:28:54Z</time></trkpt><trkpt lat="43.93716955480945" lon="6.161367388981438"><ele>499.0</ele><time>2026-04-07T13:28:55Z</time></trkpt><trkpt lat="43.93729843324056" lon="6.16156676988832"><ele>499.0</ele><time>2026-04-07T13:28:56Z</time></trkpt><trkpt lat="43.93742956425123" lon="6.161762270756589"><ele>499.33333333333337</ele><time>2026-04-07T13:28:57Z</time></trkpt><trkpt lat="43.93755867905099" lon="6.161958207244304"><ele>499.66666666666663</ele><time>2026-04-07T13:28:58Z</time></trkpt><trkpt lat="43.93768410519078" lon="6.162148569847755"><ele>500.0</ele><time>2026-04-07T13:28:59Z</time></trkpt><trkpt lat="43.93781701382104" lon="6.1623451814139765"><ele>502.0</ele><time>2026-04-07T13:29:00Z</time></trkpt><trkpt lat="43.93795375572838" lon="6.16253441456372"><ele>504.0</ele><time>2026-04-07T13:29:01Z</time></trkpt><trkpt lat="43.938106839576925" lon="6.162707948653168"><ele>506.0</ele><time>2026-04-07T13:29:02Z</time></trkpt><trkpt lat="43.93827309102136" lon="6.162872021088523"><ele>506.0</ele><time>2026-04-07T13:29:02.999Z</time></trkpt><trkpt lat="43.938446139616204" lon="6.1630261887170965"><ele>506.0</ele><time>2026-04-07T13:29:03.999Z</time></trkpt><trkpt lat="43.93861872438096" lon="6.163176185982564"><ele>506.0</ele><time>2026-04-07T13:29:04.999Z</time></trkpt><trkpt lat="43.93878735996128" lon="6.163326409738515"><ele>506.0</ele><time>2026-04-07T13:29:05.999Z</time></trkpt><trkpt lat="43.93895123770389" lon="6.163476509166518"><ele>506.0</ele><time>2026-04-07T13:29:06.999Z</time></trkpt><trkpt lat="43.93910871983683" lon="6.163627393338498"><ele>506.0</ele><time>2026-04-07T13:29:07.999Z</time></trkpt><trkpt lat="43.93926337382638" lon="6.1637784778682985"><ele>506.0</ele><time>2026-04-07T13:29:08.999Z</time></trkpt><trkpt lat="43.93940893841064" lon="6.163934359599813"><ele>506.0</ele><time>2026-04-07T13:29:09.999Z</time></trkpt><trkpt lat="43.9395472329621" lon="6.164105017134834"><ele>506.0</ele><time>2026-04-07T13:29:10.999Z</time></trkpt><trkpt lat="43.93967515907823" lon="6.164297252129904"><ele>506.0</ele><time>2026-04-07T13:29:11.999Z</time></trkpt><trkpt lat="43.93979674750443" lon="6.164505736964446"><ele>506.0</ele><time>2026-04-07T13:29:12.999Z</time></trkpt><trkpt lat="43.9399129023938" lon="6.164716203862333"><ele>506.0</ele><time>2026-04-07T13:29:13.999Z</time></trkpt><trkpt lat="43.940030033249315" lon="6.164934235790163"><ele>505.3333333333333</ele><time>2026-04-07T13:29:14.999Z</time></trkpt><trkpt lat="43.94014096490575" lon="6.16515226386532"><ele>504.66666666666663</ele><time>2026-04-07T13:29:15.999Z</time></trkpt><trkpt lat="43.940240022559024" lon="6.165372836003797"><ele>504.0</ele><time>2026-04-07T13:29:16.999Z</time></trkpt><trkpt lat="43.94032341044414" lon="6.1656029322049415"><ele>505.33333333333337</ele><time>2026-04-07T13:29:17.999Z</time></trkpt><trkpt lat="43.9403914672939" lon="6.165837545367667"><ele>506.6666666666667</ele><time>2026-04-07T13:29:18.999Z</time></trkpt><trkpt lat="43.940451668194264" lon="6.166081013758647"><ele>508.0</ele><time>2026-04-07T13:29:19.999Z</time></trkpt><trkpt lat="43.940504823329796" lon="6.16632367273904"><ele>508.33333333333337</ele><time>2026-04-07T13:29:20.999Z</time></trkpt><trkpt lat="43.94056034243219" lon="6.166565725747157"><ele>508.66666666666663</ele><time>2026-04-07T13:29:21.999Z</time></trkpt><trkpt lat="43.940621028015045" lon="6.166798892742449"><ele>509.0</ele><time>2026-04-07T13:29:22.999Z</time></trkpt><trkpt lat="43.94069467913779" lon="6.167023092011501"><ele>509.0</ele><time>2026-04-07T13:29:23.999Z</time></trkpt><trkpt lat="43.940778841434586" lon="6.167242108238573"><ele>509.0</ele><time>2026-04-07T13:29:24.999Z</time></trkpt><trkpt lat="43.940868755533906" lon="6.167457937109453"><ele>509.0</ele><time>2026-04-07T13:29:25.999Z</time></trkpt><trkpt lat="43.94095763063852" lon="6.167670546709707"><ele>509.66666666666663</ele><time>2026-04-07T13:29:26.999Z</time></trkpt><trkpt lat="43.94103585068716" lon="6.167873292718746"><ele>510.33333333333337</ele><time>2026-04-07T13:29:27.999Z</time></trkpt><trkpt lat="43.94109965129987" lon="6.168068401287048"><ele>511.0</ele><time>2026-04-07T13:29:28.999Z</time></trkpt><trkpt lat="43.94114497440906" lon="6.168242256983313"><ele>511.4</ele><time>2026-04-07T13:29:29.999Z</time></trkpt><trkpt lat="43.94116494934898" lon="6.168391102718181"><ele>511.8</ele><time>2026-04-07T13:29:30.999Z</time></trkpt><trkpt lat="43.941173359301565" lon="6.168544602079881"><ele>512.1999999999999</ele><time>2026-04-07T13:29:31.999Z</time></trkpt><trkpt lat="43.941184119860054" lon="6.168693746667093"><ele>512.6</ele><time>2026-04-07T13:29:32.999Z</time></trkpt><trkpt lat="43.94121077751964" lon="6.168848551230152"><ele>513.0</ele><time>2026-04-07T13:29:33.999Z</time></trkpt><trkpt lat="43.94126049320823" lon="6.168996032866333"><ele>513.1999999999999</ele><time>2026-04-07T13:29:35Z</time></trkpt><trkpt lat="43.94132806278273" lon="6.169132045173297"><ele>513.4</ele><time>2026-04-07T13:29:36Z</time></trkpt><trkpt lat="43.941401839558885" lon="6.16924581932262"><ele>513.5999999999999</ele><time>2026-04-07T13:29:37Z</time></trkpt><trkpt lat="43.9414772664236" lon="6.169343030659333"><ele>513.8</ele><time>2026-04-07T13:29:38Z</time></trkpt><trkpt lat="43.941548265664736" lon="6.16941561649956"><ele>514.0</ele><time>2026-04-07T13:29:39Z</time></trkpt><trkpt lat="43.94164044743149" lon="6.169479170627899"><ele>513.5</ele><time>2026-04-07T13:29:41Z</time></trkpt><trkpt lat="43.94171591683876" lon="6.169523633116142"><ele>513.0</ele><time>2026-04-07T13:29:43Z</time></trkpt><trkpt lat="43.94180224659377" lon="6.169551491825957"><ele>512.5</ele><time>2026-04-07T13:29:45Z</time></trkpt><trkpt lat="43.94190726173353" lon="6.1695830129379745"><ele>512.0</ele><time>2026-04-07T13:29:47Z</time></trkpt><trkpt lat="43.94200339378698" lon="6.169606865230822"><ele>511.50000000000006</ele><time>2026-04-07T13:29:48Z</time></trkpt><trkpt lat="43.942073292524654" lon="6.169627998133608"><ele>511.0</ele><time>2026-04-07T13:29:50Z</time></trkpt><trkpt lat="43.94212514993697" lon="6.169704868777605"><ele>511.0</ele><time>2026-04-07T13:29:52Z</time></trkpt><trkpt lat="43.942032115177575" lon="6.169783855743337"><ele>511.0</ele><time>2026-04-07T13:29:55Z</time></trkpt><trkpt lat="43.94198398844139" lon="6.169884260380892"><ele>511.0</ele><time>2026-04-07T13:29:57Z</time></trkpt><trkpt lat="43.94193107645781" lon="6.169974119392204"><ele>511.0</ele><time>2026-04-07T13:29:59Z</time></trkpt><trkpt lat="43.94187403778315" lon="6.170074619554704"><ele>511.0</ele><time>2026-04-07T13:30:01Z</time></trkpt><trkpt lat="43.94180291984666" lon="6.170199807501075"><ele>511.4</ele><time>2026-04-07T13:30:03Z</time></trkpt><trkpt lat="43.941735031587285" lon="6.170312491627637"><ele>511.8</ele><time>2026-04-07T13:30:05Z</time></trkpt><trkpt lat="43.941694202338574" lon="6.170380236545912"><ele>512.1999999999999</ele><time>2026-04-07T13:30:06Z</time></trkpt><trkpt lat="43.94165323904351" lon="6.170452213706979"><ele>512.6</ele><time>2026-04-07T13:30:07Z</time></trkpt><trkpt lat="43.941583049209726" lon="6.170585975026405"><ele>513.0</ele><time>2026-04-07T13:30:09Z</time></trkpt><trkpt lat="43.941507771309816" lon="6.170721148882021"><ele>513.4</ele><time>2026-04-07T13:30:11Z</time></trkpt><trkpt lat="43.94143164678276" lon="6.1708527559758055"><ele>513.8</ele><time>2026-04-07T13:30:13Z</time></trkpt><trkpt lat="43.941361652437664" lon="6.17097430226401"><ele>514.2</ele><time>2026-04-07T13:30:15Z</time></trkpt><trkpt lat="43.941283175996354" lon="6.171064388810971"><ele>514.6</ele><time>2026-04-07T13:30:17Z</time></trkpt><trkpt lat="43.941246608931664" lon="6.171136535304272"><ele>515.0</ele><time>2026-04-07T13:30:20Z</time></trkpt><trkpt lat="43.941250885911515" lon="6.171229073533737"><ele>515.0</ele><time>2026-04-07T13:32:18Z</time></trkpt><trkpt lat="43.94131413766483" lon="6.171279482357693"><ele>515.0</ele><time>2026-04-07T13:32:20Z</time></trkpt><trkpt lat="43.94141262035781" lon="6.17136699399513"><ele>515.0</ele><time>2026-04-07T13:32:22Z</time></trkpt><trkpt lat="43.94146433668937" lon="6.171430275490403"><ele>515.0</ele><time>2026-04-07T13:32:23Z</time></trkpt><trkpt lat="43.941526275475134" lon="6.171507377838886"><ele>515.0</ele><time>2026-04-07T13:32:24Z</time></trkpt><trkpt lat="43.941579973538495" lon="6.171581827838097"><ele>515.0</ele><time>2026-04-07T13:32:25Z</time></trkpt><trkpt lat="43.94163418190799" lon="6.171646974668084"><ele>515.1666666666666</ele><time>2026-04-07T13:32:26Z</time></trkpt><trkpt lat="43.94169556089804" lon="6.171711097151986"><ele>515.3333333333333</ele><time>2026-04-07T13:32:27Z</time></trkpt><trkpt lat="43.941752240581906" lon="6.171766233015302"><ele>515.5</ele><time>2026-04-07T13:32:28Z</time></trkpt><trkpt lat="43.94183624740903" lon="6.171866856483329"><ele>515.6666666666666</ele><time>2026-04-07T13:32:30Z</time></trkpt><trkpt lat="43.94188370908399" lon="6.171947729388568"><ele>515.8333333333334</ele><time>2026-04-07T13:32:32Z</time></trkpt><trkpt lat="43.941944026042485" lon="6.171998433100787"><ele>516.0</ele><time>2026-04-07T13:32:34Z</time></trkpt><trkpt lat="43.942032836797146" lon="6.172074671822157"><ele>516.1666666666666</ele><time>2026-04-07T13:32:36Z</time></trkpt><trkpt lat="43.94212381075903" lon="6.172129564442771"><ele>516.3333333333334</ele><time>2026-04-07T13:32:38Z</time></trkpt><trkpt lat="43.942214709425755" lon="6.172158532895067"><ele>516.5</ele><time>2026-04-07T13:32:40Z</time></trkpt><trkpt lat="43.942226200507044" lon="6.172260055647004"><ele>516.6666666666667</ele><time>2026-04-07T13:32:42Z</time></trkpt><trkpt lat="43.942133657229625" lon="6.172334437520383"><ele>516.8333333333334</ele><time>2026-04-07T13:32:44Z</time></trkpt><trkpt lat="43.942086705293406" lon="6.172393860086147"><ele>517.0</ele><time>2026-04-07T13:32:45Z</time></trkpt><trkpt lat="43.94203566579997" lon="6.172464988561093"><ele>519.0</ele><time>2026-04-07T13:32:46Z</time></trkpt><trkpt lat="43.94194613946943" lon="6.172602074122206"><ele>521.0</ele><time>2026-04-07T13:32:48Z</time></trkpt><trkpt lat="43.94189495262202" lon="6.1726811453615"><ele>523.0</ele><time>2026-04-07T13:32:49Z</time></trkpt><trkpt lat="43.941837806461116" lon="6.172771850952663"><ele>525.0</ele><time>2026-04-07T13:32:50Z</time></trkpt><trkpt lat="43.94178098061997" lon="6.172866967144962"><ele>527.0</ele><time>2026-04-07T13:32:51Z</time></trkpt><trkpt lat="43.94174212650553" lon="6.172969140813561"><ele>526.8333333333333</ele><time>2026-04-07T13:32:52Z</time></trkpt><trkpt lat="43.94168875993994" lon="6.1730573947705425"><ele>526.6666666666666</ele><time>2026-04-07T13:32:53Z</time></trkpt><trkpt lat="43.941642454940684" lon="6.173150263924316"><ele>526.5</ele><time>2026-04-07T13:32:54Z</time></trkpt><trkpt lat="43.94159097729118" lon="6.173238854651904"><ele>526.3333333333334</ele><time>2026-04-07T13:32:55Z</time></trkpt><trkpt lat="43.941549188054005" lon="6.173330082881916"><ele>526.1666666666667</ele><time>2026-04-07T13:32:56Z</time></trkpt><trkpt lat="43.94150890276141" lon="6.173437015268205"><ele>526.0</ele><time>2026-04-07T13:32:57Z</time></trkpt><trkpt lat="43.94148354870134" lon="6.173557838535966"><ele>526.0</ele><time>2026-04-07T13:32:58Z</time></trkpt><trkpt lat="43.94145890024919" lon="6.173689007469575"><ele>526.0</ele><time>2026-04-07T13:32:59Z</time></trkpt><trkpt lat="43.941438098932124" lon="6.173833210454105"><ele>526.0</ele><time>2026-04-07T13:33:00Z</time></trkpt><trkpt lat="43.94142786502145" lon="6.173989689685982"><ele>526.0</ele><time>2026-04-07T13:33:01Z</time></trkpt><trkpt lat="43.94142234433399" lon="6.174148055974994"><ele>526.0</ele><time>2026-04-07T13:33:02Z</time></trkpt><trkpt lat="43.94140797637036" lon="6.174311220882297"><ele>527.5</ele><time>2026-04-07T13:33:03Z</time></trkpt><trkpt lat="43.94139208511981" lon="6.1744738776334"><ele>529.0</ele><time>2026-04-07T13:33:04Z</time></trkpt><trkpt lat="43.941377859565605" lon="6.174625249607586"><ele>530.5</ele><time>2026-04-07T13:33:05Z</time></trkpt><trkpt lat="43.941366756817665" lon="6.174778486893328"><ele>532.0</ele><time>2026-04-07T13:33:06Z</time></trkpt><trkpt lat="43.94135069062329" lon="6.1749323802326614"><ele>533.0</ele><time>2026-04-07T13:33:07Z</time></trkpt><trkpt lat="43.94133617440801" lon="6.175094788004869"><ele>534.0</ele><time>2026-04-07T13:33:08Z</time></trkpt><trkpt lat="43.94130721821355" lon="6.175258049763349"><ele>535.0</ele><time>2026-04-07T13:33:09Z</time></trkpt><trkpt lat="43.941312012287206" lon="6.175436657879489"><ele>536.0</ele><time>2026-04-07T13:33:10Z</time></trkpt><trkpt lat="43.94129658135164" lon="6.175613942812443"><ele>537.0</ele><time>2026-04-07T13:33:11Z</time></trkpt><trkpt lat="43.94128847044515" lon="6.1757993562687465"><ele>538.0</ele><time>2026-04-07T13:33:12Z</time></trkpt><trkpt lat="43.94129270543413" lon="6.175982146053379"><ele>539.0</ele><time>2026-04-07T13:33:13Z</time></trkpt><trkpt lat="43.941296232411084" lon="6.176162569659375"><ele>540.0</ele><time>2026-04-07T13:33:14Z</time></trkpt><trkpt lat="43.941294261898186" lon="6.176338606740413"><ele>540.0</ele><time>2026-04-07T13:33:14.999Z</time></trkpt><trkpt lat="43.94128496281716" lon="6.176514173301921"><ele>540.0</ele><time>2026-04-07T13:33:15.999Z</time></trkpt><trkpt lat="43.94127185961811" lon="6.176701654576565"><ele>540.0</ele><time>2026-04-07T13:33:16.999Z</time></trkpt><trkpt lat="43.94126192246515" lon="6.176885141439068"><ele>540.0</ele><time>2026-04-07T13:33:17.999Z</time></trkpt><trkpt lat="43.9412505699726" lon="6.177077601011826"><ele>540.0</ele><time>2026-04-07T13:33:18.999Z</time></trkpt><trkpt lat="43.94123631729169" lon="6.177271645630007"><ele>540.0</ele><time>2026-04-07T13:33:19.999Z</time></trkpt><trkpt lat="43.941223804737795" lon="6.177459179144251"><ele>540.0</ele><time>2026-04-07T13:33:20.999Z</time></trkpt><trkpt lat="43.941206953945176" lon="6.177641307121408"><ele>540.0</ele><time>2026-04-07T13:33:21.999Z</time></trkpt><trkpt lat="43.94118818262937" lon="6.177825066627162"><ele>540.0</ele><time>2026-04-07T13:33:22.999Z</time></trkpt><trkpt lat="43.941177712181386" lon="6.178001429656912"><ele>540.0</ele><time>2026-04-07T13:33:23.999Z</time></trkpt><trkpt lat="43.941165149671036" lon="6.178182909596136"><ele>540.0</ele><time>2026-04-07T13:33:24.999Z</time></trkpt><trkpt lat="43.94114556782371" lon="6.178364568218457"><ele>540.0</ele><time>2026-04-07T13:33:25.999Z</time></trkpt><trkpt lat="43.94112724424462" lon="6.178546806937269"><ele>539.25</ele><time>2026-04-07T13:33:26.999Z</time></trkpt><trkpt lat="43.94109125731427" lon="6.178720204562334"><ele>538.5</ele><time>2026-04-07T13:33:27.999Z</time></trkpt><trkpt lat="43.94105856566752" lon="6.178896419832655"><ele>537.75</ele><time>2026-04-07T13:33:28.999Z</time></trkpt><trkpt lat="43.94103582289434" lon="6.179077181893518"><ele>537.0</ele><time>2026-04-07T13:33:29.999Z</time></trkpt><trkpt lat="43.9409764688033" lon="6.179251044266191"><ele>537.0</ele><time>2026-04-07T13:33:30.999Z</time></trkpt><trkpt lat="43.940930150757296" lon="6.179418511920921"><ele>537.0</ele><time>2026-04-07T13:33:31.999Z</time></trkpt><trkpt lat="43.94090058154633" lon="6.1795894251617"><ele>537.0</ele><time>2026-04-07T13:33:32.999Z</time></trkpt><trkpt lat="43.940862519963986" lon="6.179738113523019"><ele>537.0</ele><time>2026-04-07T13:33:33.999Z</time></trkpt><trkpt lat="43.94083407652951" lon="6.1798819014869535"><ele>535.4</ele><time>2026-04-07T13:33:34.999Z</time></trkpt><trkpt lat="43.94081114908952" lon="6.179978026137722"><ele>533.8000000000001</ele><time>2026-04-07T13:33:35.999Z</time></trkpt><trkpt lat="43.940795960411265" lon="6.180076230760905"><ele>532.2</ele><time>2026-04-07T13:33:37.999Z</time></trkpt><trkpt lat="43.940647729420604" lon="6.180054208675626"><ele>530.6</ele><time>2026-04-07T13:33:43.999Z</time></trkpt><trkpt lat="43.94059853264915" lon="6.17999888519555"><ele>529.0</ele><time>2026-04-07T13:33:44.999Z</time></trkpt><trkpt lat="43.94050586292419" lon="6.1799249082739465"><ele>529.0</ele><time>2026-04-07T13:33:47Z</time></trkpt><trkpt lat="43.94045148072314" lon="6.179863726114227"><ele>529.0</ele><time>2026-04-07T13:34:15Z</time></trkpt><trkpt lat="43.940380507087454" lon="6.179900642747134"><ele>529.0</ele><time>2026-04-07T13:34:24Z</time></trkpt><trkpt lat="43.940312411921724" lon="6.179863976963577"><ele>529.0</ele><time>2026-04-07T13:34:27Z</time></trkpt><trkpt lat="43.9404154306435" lon="6.1799124672679415"><ele>529.0</ele><time>2026-04-07T13:34:51Z</time></trkpt><trkpt lat="43.94049199606868" lon="6.1799394205974"><ele>529.0</ele><time>2026-04-07T13:34:54Z</time></trkpt><trkpt lat="43.940566263691046" lon="6.180007358139897"><ele>529.0</ele><time>2026-04-07T13:34:57Z</time></trkpt><trkpt lat="43.94062540850179" lon="6.180094830062013"><ele>529.0</ele><time>2026-04-07T13:35:05Z</time></trkpt><trkpt lat="43.94064112253358" lon="6.180289989544674"><ele>529.0</ele><time>2026-04-07T13:35:07Z</time></trkpt><trkpt lat="43.94071099489181" lon="6.1804323311314855"><ele>529.0</ele><time>2026-04-07T13:35:08Z</time></trkpt><trkpt lat="43.940694569548945" lon="6.1805430856662875"><ele>529.0</ele><time>2026-04-07T13:35:09Z</time></trkpt><trkpt lat="43.94070265598922" lon="6.180674561201677"><ele>529.5</ele><time>2026-04-07T13:35:10Z</time></trkpt><trkpt lat="43.94075138021839" lon="6.18084129526125"><ele>530.0</ele><time>2026-04-07T13:35:11Z</time></trkpt><trkpt lat="43.940816376216425" lon="6.181065947781275"><ele>530.5</ele><time>2026-04-07T13:35:12Z</time></trkpt><trkpt lat="43.94086773203335" lon="6.181251882101042"><ele>531.0</ele><time>2026-04-07T13:35:13Z</time></trkpt><trkpt lat="43.940919959136494" lon="6.181369061247548"><ele>532.6</ele><time>2026-04-07T13:35:14Z</time></trkpt><trkpt lat="43.940949718785376" lon="6.181477207765331"><ele>534.2</ele><time>2026-04-07T13:35:15Z</time></trkpt><trkpt lat="43.94101597038279" lon="6.181541447920701"><ele>535.8</ele><time>2026-04-07T13:35:16Z</time></trkpt><trkpt lat="43.94112041927977" lon="6.181614746702783"><ele>537.4</ele><time>2026-04-07T13:35:18Z</time></trkpt><trkpt lat="43.94119975380111" lon="6.181720417576322"><ele>539.0</ele><time>2026-04-07T13:35:20Z</time></trkpt><trkpt lat="43.94126609455703" lon="6.181855838251741"><ele>539.3333333333333</ele><time>2026-04-07T13:35:21.999Z</time></trkpt><trkpt lat="43.94127816900242" lon="6.181942950513497"><ele>539.6666666666666</ele><time>2026-04-07T13:35:22.999Z</time></trkpt><trkpt lat="43.94127720791424" lon="6.182039395905441"><ele>540.0</ele><time>2026-04-07T13:35:23.999Z</time></trkpt><trkpt lat="43.941266427464484" lon="6.182155556621784"><ele>540.3333333333334</ele><time>2026-04-07T13:35:24.999Z</time></trkpt><trkpt lat="43.94126096113625" lon="6.182298168752397"><ele>540.6666666666667</ele><time>2026-04-07T13:35:25.999Z</time></trkpt><trkpt lat="43.94125661824627" lon="6.182438359542469"><ele>541.0</ele><time>2026-04-07T13:35:26.999Z</time></trkpt><trkpt lat="43.94125061064434" lon="6.182606843996365"><ele>541.3333333333334</ele><time>2026-04-07T13:35:27.999Z</time></trkpt><trkpt lat="43.94123776474392" lon="6.182818546565144"><ele>541.6666666666666</ele><time>2026-04-07T13:35:28.999Z</time></trkpt><trkpt lat="43.94124383794247" lon="6.183043821818599"><ele>542.0</ele><time>2026-04-07T13:35:29.999Z</time></trkpt><trkpt lat="43.94126516702873" lon="6.183256803502142"><ele>542.0</ele><time>2026-04-07T13:35:30.999Z</time></trkpt><trkpt lat="43.94124999867949" lon="6.183456859738197"><ele>542.0</ele><time>2026-04-07T13:35:31.999Z</time></trkpt><trkpt lat="43.941238204494866" lon="6.183648201316649"><ele>542.0</ele><time>2026-04-07T13:35:32.999Z</time></trkpt><trkpt lat="43.94122618626653" lon="6.183789828336683"><ele>542.0</ele><time>2026-04-07T13:35:33.999Z</time></trkpt><trkpt lat="43.94119902669447" lon="6.183918930747102"><ele>542.6</ele><time>2026-04-07T13:35:34.999Z</time></trkpt><trkpt lat="43.941190809005725" lon="6.184046606814901"><ele>543.2</ele><time>2026-04-07T13:35:35.999Z</time></trkpt><trkpt lat="43.94121597092821" lon="6.184185512900243"><ele>543.8</ele><time>2026-04-07T13:35:36.999Z</time></trkpt><trkpt lat="43.94126192092984" lon="6.184334451952549"><ele>544.4</ele><time>2026-04-07T13:35:37.999Z</time></trkpt><trkpt lat="43.941299396708416" lon="6.184464707358674"><ele>545.0</ele><time>2026-04-07T13:35:38.999Z</time></trkpt><trkpt lat="43.94131891539456" lon="6.184584828565654"><ele>545.0</ele><time>2026-04-07T13:35:39.999Z</time></trkpt><trkpt lat="43.9413158135006" lon="6.1847077827844235"><ele>545.0</ele><time>2026-04-07T13:35:40.999Z</time></trkpt><trkpt lat="43.941233393856216" lon="6.18479707449169"><ele>545.0</ele><time>2026-04-07T13:35:41.999Z</time></trkpt><trkpt lat="43.941189215124055" lon="6.184947556738315"><ele>545.0</ele><time>2026-04-07T13:35:42.999Z</time></trkpt><trkpt lat="43.94117783036528" lon="6.185126829749444"><ele>545.0</ele><time>2026-04-07T13:35:43.999Z</time></trkpt><trkpt lat="43.941165092220366" lon="6.185325541391736"><ele>547.0</ele><time>2026-04-07T13:35:44.999Z</time></trkpt><trkpt lat="43.94115630170435" lon="6.185500222581117"><ele>549.0</ele><time>2026-04-07T13:35:45.999Z</time></trkpt><trkpt lat="43.941156867491756" lon="6.185647961037675"><ele>551.0</ele><time>2026-04-07T13:35:46.999Z</time></trkpt><trkpt lat="43.941146557287055" lon="6.185761872840713"><ele>553.0</ele><time>2026-04-07T13:35:47.999Z</time></trkpt><trkpt lat="43.94110533683597" lon="6.185926939667089"><ele>555.0</ele><time>2026-04-07T13:35:50Z</time></trkpt><trkpt lat="43.941051835517285" lon="6.1860243327533055"><ele>553.2</ele><time>2026-04-07T13:35:51Z</time></trkpt><trkpt lat="43.94098907857488" lon="6.186087115939415"><ele>551.4</ele><time>2026-04-07T13:35:52Z</time></trkpt><trkpt lat="43.94091724212933" lon="6.186211870368183"><ele>549.6</ele><time>2026-04-07T13:35:54Z</time></trkpt><trkpt lat="43.94087458893435" lon="6.1863412885135185"><ele>547.8</ele><time>2026-04-07T13:35:56Z</time></trkpt><trkpt lat="43.9408333419295" lon="6.18646626450729"><ele>546.0</ele><time>2026-04-07T13:35:58Z</time></trkpt><trkpt lat="43.94077959587159" lon="6.186564572309842"><ele>546.0</ele><time>2026-04-07T13:36:00Z</time></trkpt><trkpt lat="43.94072966192264" lon="6.186702045347904"><ele>546.0</ele><time>2026-04-07T13:36:02Z</time></trkpt><trkpt lat="43.94069903499008" lon="6.18678018071678"><ele>546.0</ele><time>2026-04-07T13:36:03Z</time></trkpt><trkpt lat="43.9406655270907" lon="6.186862594965067"><ele>546.0</ele><time>2026-04-07T13:36:19Z</time></trkpt><trkpt lat="43.940643910822224" lon="6.186956904679164"><ele>546.0</ele><time>2026-04-07T13:36:33Z</time></trkpt><trkpt lat="43.940602853639795" lon="6.187052215974042"><ele>546.0</ele><time>2026-04-07T13:36:34Z</time></trkpt><trkpt lat="43.94057530281836" lon="6.1871525402688885"><ele>546.0</ele><time>2026-04-07T13:36:35Z</time></trkpt><trkpt lat="43.94055430073121" lon="6.187246469675525"><ele>546.0</ele><time>2026-04-07T13:36:36Z</time></trkpt><trkpt lat="43.94058539399444" lon="6.187365010742667"><ele>546.0</ele><time>2026-04-07T13:36:37Z</time></trkpt><trkpt lat="43.940596736692186" lon="6.187484930571902"><ele>546.0</ele><time>2026-04-07T13:36:38Z</time></trkpt><trkpt lat="43.94062734182841" lon="6.187607751419113"><ele>546.0</ele><time>2026-04-07T13:36:39Z</time></trkpt><trkpt lat="43.940657038106735" lon="6.187729679916572"><ele>546.0</ele><time>2026-04-07T13:36:40Z</time></trkpt><trkpt lat="43.94067080513457" lon="6.187848720521191"><ele>547.2</ele><time>2026-04-07T13:36:41Z</time></trkpt><trkpt lat="43.940663987721514" lon="6.187979810017228"><ele>548.4000000000001</ele><time>2026-04-07T13:36:42Z</time></trkpt><trkpt lat="43.94062274810642" lon="6.188082650373222"><ele>549.6</ele><time>2026-04-07T13:36:43Z</time></trkpt><trkpt lat="43.94058474044339" lon="6.188201261954989"><ele>550.8000000000001</ele><time>2026-04-07T13:36:44Z</time></trkpt><trkpt lat="43.94054259057847" lon="6.188323248600722"><ele>552.0</ele><time>2026-04-07T13:36:45Z</time></trkpt><trkpt lat="43.94050051653994" lon="6.188445645185925"><ele>554.0</ele><time>2026-04-07T13:36:46Z</time></trkpt><trkpt lat="43.94045342436344" lon="6.188570453681128"><ele>556.0</ele><time>2026-04-07T13:36:47Z</time></trkpt><trkpt lat="43.940400091614706" lon="6.1887027439514455"><ele>558.0</ele><time>2026-04-07T13:36:48Z</time></trkpt><trkpt lat="43.94033167508342" lon="6.188846135012944"><ele>560.0</ele><time>2026-04-07T13:36:49Z</time></trkpt><trkpt lat="43.940258768556056" lon="6.188998433356328"><ele>563.25</ele><time>2026-04-07T13:36:50Z</time></trkpt><trkpt lat="43.94017474930829" lon="6.189122454541102"><ele>566.5</ele><time>2026-04-07T13:36:51Z</time></trkpt><trkpt lat="43.940075263147385" lon="6.189251848802694"><ele>569.75</ele><time>2026-04-07T13:36:52Z</time></trkpt><trkpt lat="43.93999052861152" lon="6.189407770027916"><ele>573.0</ele><time>2026-04-07T13:36:53Z</time></trkpt><trkpt lat="43.93990194055205" lon="6.189546676821344"><ele>567.75</ele><time>2026-04-07T13:36:54Z</time></trkpt><trkpt lat="43.93979575297778" lon="6.189642871044128"><ele>562.5</ele><time>2026-04-07T13:36:55Z</time></trkpt><trkpt lat="43.93969113336043" lon="6.189747108464236"><ele>557.25</ele><time>2026-04-07T13:36:56Z</time></trkpt><trkpt lat="43.939590936449875" lon="6.18985702049167"><ele>552.0</ele><time>2026-04-07T13:36:57Z</time></trkpt><trkpt lat="43.939509025536765" lon="6.18998263598615"><ele>552.0</ele><time>2026-04-07T13:36:58Z</time></trkpt><trkpt lat="43.93941941123509" lon="6.190125405993952"><ele>552.0</ele><time>2026-04-07T13:36:59Z</time></trkpt><trkpt lat="43.939340683245064" lon="6.19029814822899"><ele>552.0</ele><time>2026-04-07T13:37:00Z</time></trkpt><trkpt lat="43.939249863412606" lon="6.190481000871481"><ele>552.0</ele><time>2026-04-07T13:37:01Z</time></trkpt><trkpt lat="43.93917199021645" lon="6.190682432804364"><ele>549.0</ele><time>2026-04-07T13:37:02Z</time></trkpt><trkpt lat="43.93910158220553" lon="6.190895031614975"><ele>546.0</ele><time>2026-04-07T13:37:03Z</time></trkpt><trkpt lat="43.93904561711802" lon="6.191116452852277"><ele>543.0</ele><time>2026-04-07T13:37:04Z</time></trkpt><trkpt lat="43.939006464360396" lon="6.19133919595167"><ele>543.0</ele><time>2026-04-07T13:37:05Z</time></trkpt><trkpt lat="43.93897858244311" lon="6.19156727373221"><ele>543.0</ele><time>2026-04-07T13:37:06Z</time></trkpt><trkpt lat="43.93895963761876" lon="6.191805234476731"><ele>543.0</ele><time>2026-04-07T13:37:07Z</time></trkpt><trkpt lat="43.938972987028734" lon="6.1920351098603"><ele>543.0</ele><time>2026-04-07T13:37:08Z</time></trkpt><trkpt lat="43.93899714925906" lon="6.192262685606088"><ele>543.0</ele><time>2026-04-07T13:37:09Z</time></trkpt><trkpt lat="43.93905296709613" lon="6.19249946800998"><ele>543.0</ele><time>2026-04-07T13:37:10Z</time></trkpt><trkpt lat="43.939125928897326" lon="6.192716591307098"><ele>547.0</ele><time>2026-04-07T13:37:11Z</time></trkpt><trkpt lat="43.93922234199968" lon="6.1929334671819785"><ele>551.0</ele><time>2026-04-07T13:37:12Z</time></trkpt><trkpt lat="43.93930722376752" lon="6.193141595507812"><ele>555.0</ele><time>2026-04-07T13:37:13Z</time></trkpt><trkpt lat="43.93938053907142" lon="6.193341369295953"><ele>555.0</ele><time>2026-04-07T13:37:14Z</time></trkpt><trkpt lat="43.939422434205134" lon="6.193569345474546"><ele>555.0</ele><time>2026-04-07T13:37:15Z</time></trkpt><trkpt lat="43.93945520706058" lon="6.193807914678782"><ele>555.0</ele><time>2026-04-07T13:37:16Z</time></trkpt><trkpt lat="43.93947558036042" lon="6.1940386751071745"><ele>555.3333333333334</ele><time>2026-04-07T13:37:17Z</time></trkpt><trkpt lat="43.93947394311722" lon="6.194245394474921"><ele>555.6666666666667</ele><time>2026-04-07T13:37:18Z</time></trkpt><trkpt lat="43.9394442735191" lon="6.19445991408434"><ele>556.0</ele><time>2026-04-07T13:37:19Z</time></trkpt><trkpt lat="43.939409266881455" lon="6.194687909174875"><ele>557.6666666666667</ele><time>2026-04-07T13:37:20Z</time></trkpt><trkpt lat="43.93936821962796" lon="6.194937269627863"><ele>559.3333333333334</ele><time>2026-04-07T13:37:21Z</time></trkpt><trkpt lat="43.93932766866583" lon="6.1951856182382725"><ele>561.0</ele><time>2026-04-07T13:37:22Z</time></trkpt><trkpt lat="43.939289630378205" lon="6.195440295088608"><ele>562.3333333333334</ele><time>2026-04-07T13:37:23Z</time></trkpt><trkpt lat="43.93926754881755" lon="6.195678330225728"><ele>563.6666666666667</ele><time>2026-04-07T13:37:24Z</time></trkpt><trkpt lat="43.93923218693599" lon="6.195888887498427"><ele>565.0</ele><time>2026-04-07T13:37:25Z</time></trkpt><trkpt lat="43.93917215094287" lon="6.196083567168103"><ele>560.3333333333334</ele><time>2026-04-07T13:37:26Z</time></trkpt><trkpt lat="43.939100499918645" lon="6.196281086155118"><ele>555.6666666666666</ele><time>2026-04-07T13:37:26.999Z</time></trkpt><trkpt lat="43.939025780522066" lon="6.196478658352418"><ele>551.0</ele><time>2026-04-07T13:37:27.999Z</time></trkpt><trkpt lat="43.93898839357536" lon="6.196672535362046"><ele>551.0</ele><time>2026-04-07T13:37:28.999Z</time></trkpt><trkpt lat="43.938999786821434" lon="6.196878499211301"><ele>551.0</ele><time>2026-04-07T13:37:29.999Z</time></trkpt><trkpt lat="43.93902893534454" lon="6.197065245250452"><ele>551.0</ele><time>2026-04-07T13:37:30.999Z</time></trkpt><trkpt lat="43.93905834112766" lon="6.197260578723822"><ele>551.0</ele><time>2026-04-07T13:37:32Z</time></trkpt><trkpt lat="43.93909826846609" lon="6.197464013321778"><ele>551.75</ele><time>2026-04-07T13:37:33Z</time></trkpt><trkpt lat="43.93914660760709" lon="6.197644820661434"><ele>552.5</ele><time>2026-04-07T13:37:34Z</time></trkpt><trkpt lat="43.93921158105441" lon="6.197803506089216"><ele>553.25</ele><time>2026-04-07T13:37:35Z</time></trkpt><trkpt lat="43.93929672873132" lon="6.197952576604354"><ele>554.0</ele><time>2026-04-07T13:37:36Z</time></trkpt><trkpt lat="43.93937812770674" lon="6.198071204211596"><ele>555.0</ele><time>2026-04-07T13:37:37Z</time></trkpt><trkpt lat="43.939477331862356" lon="6.198183721276328"><ele>556.0</ele><time>2026-04-07T13:37:38Z</time></trkpt><trkpt lat="43.93958138807376" lon="6.19830324419691"><ele>557.0</ele><time>2026-04-07T13:37:39Z</time></trkpt><trkpt lat="43.939699788326344" lon="6.198417141699103"><ele>558.0</ele><time>2026-04-07T13:37:40Z</time></trkpt><trkpt lat="43.93982816216211" lon="6.198494922041557"><ele>558.0</ele><time>2026-04-07T13:37:41Z</time></trkpt><trkpt lat="43.939977955696634" lon="6.198539082118479"><ele>558.0</ele><time>2026-04-07T13:37:42Z</time></trkpt><trkpt lat="43.940122488569884" lon="6.198568103500114"><ele>558.0</ele><time>2026-04-07T13:37:43Z</time></trkpt><trkpt lat="43.94026501498181" lon="6.19858830194588"><ele>558.0</ele><time>2026-04-07T13:37:44Z</time></trkpt><trkpt lat="43.94039365779241" lon="6.198610972502742"><ele>560.1999999999999</ele><time>2026-04-07T13:37:45Z</time></trkpt><trkpt lat="43.94050495438361" lon="6.198623554539717"><ele>562.4</ele><time>2026-04-07T13:37:46Z</time></trkpt><trkpt lat="43.94060884418376" lon="6.198625093350692"><ele>564.5999999999999</ele><time>2026-04-07T13:37:47Z</time></trkpt><trkpt lat="43.94071624704525" lon="6.198629449232245"><ele>566.8</ele><time>2026-04-07T13:37:48Z</time></trkpt><trkpt lat="43.9408352457338" lon="6.198629502183203"><ele>569.0</ele><time>2026-04-07T13:37:49Z</time></trkpt><trkpt lat="43.940956695795194" lon="6.19863985321724"><ele>569.75</ele><time>2026-04-07T13:37:50Z</time></trkpt><trkpt lat="43.94108525310261" lon="6.1986821226677105"><ele>570.5</ele><time>2026-04-07T13:37:51Z</time></trkpt><trkpt lat="43.9412495305679" lon="6.198738496317861"><ele>571.25</ele><time>2026-04-07T13:37:52Z</time></trkpt><trkpt lat="43.94132676748558" lon="6.198760820704582"><ele>572.0</ele><time>2026-04-07T13:37:53Z</time></trkpt><trkpt lat="43.941431167214176" lon="6.198813995816634"><ele>572.0</ele><time>2026-04-07T13:37:54Z</time></trkpt><trkpt lat="43.941555368802" lon="6.198880071854614"><ele>572.0</ele><time>2026-04-07T13:37:55Z</time></trkpt><trkpt lat="43.94169764790254" lon="6.198974797836433"><ele>572.0</ele><time>2026-04-07T13:37:56Z</time></trkpt><trkpt lat="43.941832895608066" lon="6.19896763963572"><ele>572.0</ele><time>2026-04-07T13:37:58Z</time></trkpt><trkpt lat="43.94191022700714" lon="6.198995871274177"><ele>571.8333333333333</ele><time>2026-04-07T13:37:59Z</time></trkpt><trkpt lat="43.94199004695251" lon="6.1990425504889926"><ele>571.6666666666666</ele><time>2026-04-07T13:38:00Z</time></trkpt><trkpt lat="43.942068044171364" lon="6.199088568089939"><ele>571.5</ele><time>2026-04-07T13:38:01Z</time></trkpt><trkpt lat="43.9421432775746" lon="6.199150254573015"><ele>571.3333333333334</ele><time>2026-04-07T13:38:02Z</time></trkpt><trkpt lat="43.942223972688794" lon="6.199221514450789"><ele>571.1666666666667</ele><time>2026-04-07T13:38:03Z</time></trkpt><trkpt lat="43.94229848025719" lon="6.199301395243956"><ele>571.0</ele><time>2026-04-07T13:38:04Z</time></trkpt><trkpt lat="43.94240213240175" lon="6.199339963153626"><ele>571.0</ele><time>2026-04-07T13:38:05Z</time></trkpt><trkpt lat="43.94239534721838" lon="6.199518214045863"><ele>571.0</ele><time>2026-04-07T13:38:06Z</time></trkpt><trkpt lat="43.942420613095685" lon="6.199670486512312"><ele>571.0</ele><time>2026-04-07T13:38:07Z</time></trkpt><trkpt lat="43.94243761032161" lon="6.19982244319373"><ele>571.0</ele><time>2026-04-07T13:38:08Z</time></trkpt><trkpt lat="43.94244109979091" lon="6.199980629218493"><ele>569.5</ele><time>2026-04-07T13:38:09Z</time></trkpt><trkpt lat="43.942437633286495" lon="6.200140983788596"><ele>568.0</ele><time>2026-04-07T13:38:10Z</time></trkpt><trkpt lat="43.94244526332141" lon="6.20030108482556"><ele>566.5</ele><time>2026-04-07T13:38:11Z</time></trkpt><trkpt lat="43.942462000212075" lon="6.200466929980285"><ele>565.0</ele><time>2026-04-07T13:38:12Z</time></trkpt><trkpt lat="43.94245303893191" lon="6.200652643259491"><ele>564.4</ele><time>2026-04-07T13:38:13Z</time></trkpt><trkpt lat="43.94245446490314" lon="6.200822333730432"><ele>563.8</ele><time>2026-04-07T13:38:14Z</time></trkpt><trkpt lat="43.942462883435525" lon="6.201006615990753"><ele>563.2</ele><time>2026-04-07T13:38:15Z</time></trkpt><trkpt lat="43.94246580422927" lon="6.201141576621194"><ele>562.6</ele><time>2026-04-07T13:38:16Z</time></trkpt><trkpt lat="43.942474277375545" lon="6.201247124625531"><ele>562.0</ele><time>2026-04-07T13:38:18Z</time></trkpt><trkpt lat="43.94247742185242" lon="6.201352630571802"><ele>562.0</ele><time>2026-04-07T13:38:20Z</time></trkpt><trkpt lat="43.94247570140283" lon="6.201443648975758"><ele>562.0</ele><time>2026-04-07T13:38:22Z</time></trkpt><trkpt lat="43.942473422018224" lon="6.20156419584188"><ele>562.0</ele><time>2026-04-07T13:39:29Z</time></trkpt><trkpt lat="43.942488964604756" lon="6.201726488119924"><ele>562.0</ele><time>2026-04-07T13:39:31Z</time></trkpt><trkpt lat="43.94249033022531" lon="6.201848731866157"><ele>562.0</ele><time>2026-04-07T13:39:32Z</time></trkpt><trkpt lat="43.94249358667417" lon="6.201994316154422"><ele>561.75</ele><time>2026-04-07T13:39:33Z</time></trkpt><trkpt lat="43.94249905421243" lon="6.202153395942354"><ele>561.5</ele><time>2026-04-07T13:39:34Z</time></trkpt><trkpt lat="43.94250519006016" lon="6.202323898550644"><ele>561.25</ele><time>2026-04-07T13:39:35Z</time></trkpt><trkpt lat="43.94251482792716" lon="6.202503542519527"><ele>561.0</ele><time>2026-04-07T13:39:36Z</time></trkpt><trkpt lat="43.94252083225131" lon="6.202704404427455"><ele>562.0</ele><time>2026-04-07T13:39:37Z</time></trkpt><trkpt lat="43.94252417178104" lon="6.202909888931558"><ele>563.0</ele><time>2026-04-07T13:39:38Z</time></trkpt><trkpt lat="43.94253075261464" lon="6.2031119482523716"><ele>564.0</ele><time>2026-04-07T13:39:39Z</time></trkpt><trkpt lat="43.9425430981752" lon="6.203298447622571"><ele>565.0</ele><time>2026-04-07T13:39:40Z</time></trkpt><trkpt lat="43.94256168980255" lon="6.203476818488297"><ele>565.5</ele><time>2026-04-07T13:39:41Z</time></trkpt><trkpt lat="43.94259072027896" lon="6.203639582953583"><ele>566.0</ele><time>2026-04-07T13:39:42Z</time></trkpt><trkpt lat="43.94263352820294" lon="6.203782687449988"><ele>566.5</ele><time>2026-04-07T13:39:43Z</time></trkpt><trkpt lat="43.942663000885226" lon="6.203937140143102"><ele>567.0</ele><time>2026-04-07T13:39:44Z</time></trkpt><trkpt lat="43.94272413078279" lon="6.204067581464834"><ele>567.0</ele><time>2026-04-07T13:39:45Z</time></trkpt><trkpt lat="43.94277269252134" lon="6.204193590850752"><ele>567.0</ele><time>2026-04-07T13:39:46Z</time></trkpt><trkpt lat="43.942834105968444" lon="6.204303584953054"><ele>567.0</ele><time>2026-04-07T13:39:47Z</time></trkpt><trkpt lat="43.94291929825406" lon="6.204409869216861"><ele>567.0</ele><time>2026-04-07T13:39:48Z</time></trkpt><trkpt lat="43.94302301978895" lon="6.204501302206489"><ele>567.0</ele><time>2026-04-07T13:39:49Z</time></trkpt><trkpt lat="43.94313050100563" lon="6.2045789095424295"><ele>567.0</ele><time>2026-04-07T13:39:50Z</time></trkpt><trkpt lat="43.94324340345191" lon="6.204631413569942"><ele>567.0</ele><time>2026-04-07T13:39:51Z</time></trkpt><trkpt lat="43.94336587905051" lon="6.204636845795977"><ele>567.0</ele><time>2026-04-07T13:39:52Z</time></trkpt><trkpt lat="43.94352426508576" lon="6.204614401253046"><ele>567.0</ele><time>2026-04-07T13:39:53Z</time></trkpt><trkpt lat="43.943674866795526" lon="6.204588457579019"><ele>569.25</ele><time>2026-04-07T13:39:54Z</time></trkpt><trkpt lat="43.94380375662488" lon="6.204583873361863"><ele>571.5</ele><time>2026-04-07T13:39:55Z</time></trkpt><trkpt lat="43.94392857592996" lon="6.204591485772904"><ele>573.75</ele><time>2026-04-07T13:39:56Z</time></trkpt><trkpt lat="43.944041537378695" lon="6.204622429055314"><ele>576.0</ele><time>2026-04-07T13:39:57Z</time></trkpt><trkpt lat="43.94413143034336" lon="6.204728720764671"><ele>579.5</ele><time>2026-04-07T13:39:58Z</time></trkpt><trkpt lat="43.94421545075098" lon="6.20484571908929"><ele>583.0</ele><time>2026-04-07T13:39:59Z</time></trkpt><trkpt lat="43.944308249764184" lon="6.204972964719599"><ele>586.5</ele><time>2026-04-07T13:40:00Z</time></trkpt><trkpt lat="43.9444111991959" lon="6.205101798571109"><ele>590.0</ele><time>2026-04-07T13:40:01Z</time></trkpt><trkpt lat="43.94451587422857" lon="6.2052447796111725"><ele>590.0</ele><time>2026-04-07T13:40:02Z</time></trkpt><trkpt lat="43.944617600048545" lon="6.205366130662643"><ele>590.0</ele><time>2026-04-07T13:40:03Z</time></trkpt><trkpt lat="43.94473661348131" lon="6.205464550753849"><ele>590.0</ele><time>2026-04-07T13:40:04Z</time></trkpt><trkpt lat="43.94486471705076" lon="6.20551836516984"><ele>590.0</ele><time>2026-04-07T13:40:05Z</time></trkpt><trkpt lat="43.94496905626645" lon="6.20559861436802"><ele>594.0</ele><time>2026-04-07T13:40:06Z</time></trkpt><trkpt lat="43.94506418854348" lon="6.205683618341567"><ele>598.0</ele><time>2026-04-07T13:40:07Z</time></trkpt><trkpt lat="43.94510663196409" lon="6.205860670268916"><ele>602.0</ele><time>2026-04-07T13:40:08Z</time></trkpt><trkpt lat="43.94514302403467" lon="6.206050405785621"><ele>606.0</ele><time>2026-04-07T13:40:09Z</time></trkpt><trkpt lat="43.945187313970735" lon="6.206261133222507"><ele>606.0</ele><time>2026-04-07T13:40:10Z</time></trkpt><trkpt lat="43.94521417281761" lon="6.206493097628671"><ele>606.0</ele><time>2026-04-07T13:40:11Z</time></trkpt><trkpt lat="43.945242992004836" lon="6.206704166848944"><ele>606.0</ele><time>2026-04-07T13:40:12Z</time></trkpt><trkpt lat="43.94526559238243" lon="6.206900440656366"><ele>603.25</ele><time>2026-04-07T13:40:13Z</time></trkpt><trkpt lat="43.94523779631439" lon="6.2070891528947865"><ele>600.5</ele><time>2026-04-07T13:40:14Z</time></trkpt><trkpt lat="43.94521248768385" lon="6.207277768991829"><ele>597.75</ele><time>2026-04-07T13:40:15Z</time></trkpt><trkpt lat="43.94522233372185" lon="6.207458145477854"><ele>595.0</ele><time>2026-04-07T13:40:16Z</time></trkpt><trkpt lat="43.94524431547394" lon="6.207638656846559"><ele>592.0</ele><time>2026-04-07T13:40:17Z</time></trkpt><trkpt lat="43.94530639596972" lon="6.207837775392733"><ele>589.0</ele><time>2026-04-07T13:40:18Z</time></trkpt><trkpt lat="43.94539216325238" lon="6.208081809560046"><ele>586.0</ele><time>2026-04-07T13:40:19Z</time></trkpt><trkpt lat="43.9454733892931" lon="6.208290613612429"><ele>584.3333333333334</ele><time>2026-04-07T13:40:20Z</time></trkpt><trkpt lat="43.94553591288445" lon="6.208489293911642"><ele>582.6666666666666</ele><time>2026-04-07T13:40:21Z</time></trkpt><trkpt lat="43.945577735130506" lon="6.20869253800648"><ele>581.0</ele><time>2026-04-07T13:40:22Z</time></trkpt><trkpt lat="43.94562556979322" lon="6.208881230299333"><ele>580.25</ele><time>2026-04-07T13:40:23Z</time></trkpt><trkpt lat="43.94567789342018" lon="6.209048449411711"><ele>579.5</ele><time>2026-04-07T13:40:24Z</time></trkpt><trkpt lat="43.945714455833944" lon="6.209244423713165"><ele>578.75</ele><time>2026-04-07T13:40:25Z</time></trkpt><trkpt lat="43.94575424680619" lon="6.209425775199509"><ele>578.0</ele><time>2026-04-07T13:40:26Z</time></trkpt><trkpt lat="43.94581118031528" lon="6.209583257461318"><ele>582.0</ele><time>2026-04-07T13:40:27Z</time></trkpt><trkpt lat="43.94589514056066" lon="6.2097081606128715"><ele>586.0</ele><time>2026-04-07T13:40:28Z</time></trkpt><trkpt lat="43.94600142972236" lon="6.209812836590761"><ele>590.0</ele><time>2026-04-07T13:40:29Z</time></trkpt><trkpt lat="43.94610884570893" lon="6.209913016455226"><ele>594.0</ele><time>2026-04-07T13:40:30Z</time></trkpt><trkpt lat="43.94619926128389" lon="6.210039122073814"><ele>594.0</ele><time>2026-04-07T13:40:31Z</time></trkpt><trkpt lat="43.946264572555734" lon="6.210203562599084"><ele>594.0</ele><time>2026-04-07T13:40:32Z</time></trkpt><trkpt lat="43.94633345129868" lon="6.210363747178104"><ele>594.0</ele><time>2026-04-07T13:40:33Z</time></trkpt><trkpt lat="43.94641400915555" lon="6.210518158151092"><ele>594.0</ele><time>2026-04-07T13:40:34Z</time></trkpt><trkpt lat="43.94647695694034" lon="6.210699540006548"><ele>592.75</ele><time>2026-04-07T13:40:35Z</time></trkpt><trkpt lat="43.94654130347502" lon="6.2108749928440945"><ele>591.5</ele><time>2026-04-07T13:40:36Z</time></trkpt><trkpt lat="43.94660434026286" lon="6.211053606898107"><ele>590.25</ele><time>2026-04-07T13:40:37Z</time></trkpt><trkpt lat="43.94665826527664" lon="6.211235403600995"><ele>589.0</ele><time>2026-04-07T13:40:38Z</time></trkpt><trkpt lat="43.94670450165432" lon="6.211415793396239"><ele>594.75</ele><time>2026-04-07T13:40:39Z</time></trkpt><trkpt lat="43.94675560560433" lon="6.211600093942457"><ele>600.5</ele><time>2026-04-07T13:40:40Z</time></trkpt><trkpt lat="43.94679044963002" lon="6.211784975839043"><ele>606.25</ele><time>2026-04-07T13:40:41Z</time></trkpt><trkpt lat="43.9468127923251" lon="6.211978542847288"><ele>612.0</ele><time>2026-04-07T13:40:42Z</time></trkpt><trkpt lat="43.946823357220424" lon="6.2121741075002"><ele>610.75</ele><time>2026-04-07T13:40:43Z</time></trkpt><trkpt lat="43.94682709244787" lon="6.212375666385206"><ele>609.5</ele><time>2026-04-07T13:40:44Z</time></trkpt><trkpt lat="43.94682656636086" lon="6.212576091858049"><ele>608.25</ele><time>2026-04-07T13:40:45Z</time></trkpt><trkpt lat="43.946832646998566" lon="6.212775281171351"><ele>607.0</ele><time>2026-04-07T13:40:46Z</time></trkpt><trkpt lat="43.94684387980565" lon="6.212968073694467"><ele>607.0</ele><time>2026-04-07T13:40:47Z</time></trkpt><trkpt lat="43.946850900410375" lon="6.213155499834977"><ele>607.0</ele><time>2026-04-07T13:40:48Z</time></trkpt><trkpt lat="43.946853157569514" lon="6.213342793503946"><ele>607.0</ele><time>2026-04-07T13:40:49Z</time></trkpt><trkpt lat="43.94685233212657" lon="6.213535051408091"><ele>607.0</ele><time>2026-04-07T13:40:50Z</time></trkpt><trkpt lat="43.94685364374687" lon="6.213724490311389"><ele>605.5</ele><time>2026-04-07T13:40:51Z</time></trkpt><trkpt lat="43.94686840479359" lon="6.213910259548605"><ele>604.0</ele><time>2026-04-07T13:40:52Z</time></trkpt><trkpt lat="43.94691486827092" lon="6.214099271742525"><ele>602.5</ele><time>2026-04-07T13:40:53Z</time></trkpt><trkpt lat="43.94698810577439" lon="6.214281482357462"><ele>601.0</ele><time>2026-04-07T13:40:54Z</time></trkpt><trkpt lat="43.9470602713653" lon="6.214469587757437"><ele>600.3333333333334</ele><time>2026-04-07T13:40:55Z</time></trkpt><trkpt lat="43.947131382511756" lon="6.214659731491411"><ele>599.6666666666666</ele><time>2026-04-07T13:40:56Z</time></trkpt><trkpt lat="43.94720104561563" lon="6.214854449527293"><ele>599.0</ele><time>2026-04-07T13:40:57Z</time></trkpt><trkpt lat="43.94726148360698" lon="6.215044494562578"><ele>598.0</ele><time>2026-04-07T13:40:58Z</time></trkpt><trkpt lat="43.947313393319064" lon="6.2152354259397775"><ele>597.0</ele><time>2026-04-07T13:40:59Z</time></trkpt><trkpt lat="43.94736409161529" lon="6.215434561776452"><ele>596.0</ele><time>2026-04-07T13:41:00Z</time></trkpt><trkpt lat="43.94741829512621" lon="6.215642280160946"><ele>595.3333333333333</ele><time>2026-04-07T13:41:01Z</time></trkpt><trkpt lat="43.94747284969577" lon="6.2158595047448175"><ele>594.6666666666666</ele><time>2026-04-07T13:41:02Z</time></trkpt><trkpt lat="43.947520623533144" lon="6.216066676035251"><ele>594.0</ele><time>2026-04-07T13:41:03Z</time></trkpt><trkpt lat="43.94756922407197" lon="6.216294665261238"><ele>603.0</ele><time>2026-04-07T13:41:04Z</time></trkpt><trkpt lat="43.94760820728073" lon="6.2165159806539245"><ele>612.0</ele><time>2026-04-07T13:41:05Z</time></trkpt><trkpt lat="43.947635830390574" lon="6.216743101851927"><ele>621.0</ele><time>2026-04-07T13:41:06Z</time></trkpt><trkpt lat="43.94765192196593" lon="6.2169798814982276"><ele>621.0</ele><time>2026-04-07T13:41:07Z</time></trkpt><trkpt lat="43.94766320346116" lon="6.217216141710291"><ele>621.0</ele><time>2026-04-07T13:41:08Z</time></trkpt><trkpt lat="43.94768068764146" lon="6.217456157328064"><ele>621.0</ele><time>2026-04-07T13:41:09Z</time></trkpt><trkpt lat="43.94770291278511" lon="6.217697896156597"><ele>617.3333333333334</ele><time>2026-04-07T13:41:10Z</time></trkpt><trkpt lat="43.94772779286734" lon="6.217932604738878"><ele>613.6666666666667</ele><time>2026-04-07T13:41:11Z</time></trkpt><trkpt lat="43.947750735966856" lon="6.218162052226722"><ele>610.0</ele><time>2026-04-07T13:41:12Z</time></trkpt><trkpt lat="43.947764923317656" lon="6.218376419676564"><ele>610.0</ele><time>2026-04-07T13:41:13Z</time></trkpt><trkpt lat="43.94777740464524" lon="6.218596585876517"><ele>610.0</ele><time>2026-04-07T13:41:14Z</time></trkpt><trkpt lat="43.9477932010276" lon="6.218816416109442"><ele>610.0</ele><time>2026-04-07T13:41:15Z</time></trkpt><trkpt lat="43.94781154270932" lon="6.219034898850844"><ele>610.0</ele><time>2026-04-07T13:41:16Z</time></trkpt><trkpt lat="43.94782301543562" lon="6.2192530736606635"><ele>610.0</ele><time>2026-04-07T13:41:17Z</time></trkpt><trkpt lat="43.947826488091664" lon="6.219455762635708"><ele>610.0</ele><time>2026-04-07T13:41:18Z</time></trkpt><trkpt lat="43.94782780690446" lon="6.219637531542091"><ele>610.0</ele><time>2026-04-07T13:41:19Z</time></trkpt><trkpt lat="43.947801749298556" lon="6.219805273205305"><ele>612.75</ele><time>2026-04-07T13:41:20Z</time></trkpt><trkpt lat="43.9478011676317" lon="6.2199613483974225"><ele>615.5</ele><time>2026-04-07T13:41:21Z</time></trkpt><trkpt lat="43.947772859330435" lon="6.220136759757381"><ele>618.25</ele><time>2026-04-07T13:41:22Z</time></trkpt><trkpt lat="43.94774734938634" lon="6.220307972989366"><ele>621.0</ele><time>2026-04-07T13:41:23Z</time></trkpt><trkpt lat="43.94772301533095" lon="6.220465476889462"><ele>621.0</ele><time>2026-04-07T13:41:24Z</time></trkpt><trkpt lat="43.94769573622829" lon="6.220619090208763"><ele>621.0</ele><time>2026-04-07T13:41:25Z</time></trkpt><trkpt lat="43.947667622285856" lon="6.220769083455977"><ele>621.0</ele><time>2026-04-07T13:41:26Z</time></trkpt><trkpt lat="43.9476467173868" lon="6.220916908162687"><ele>621.0</ele><time>2026-04-07T13:41:27Z</time></trkpt><trkpt lat="43.94764912199677" lon="6.2210546998054435"><ele>621.0</ele><time>2026-04-07T13:41:28Z</time></trkpt><trkpt lat="43.947663734843815" lon="6.22117896092155"><ele>621.2</ele><time>2026-04-07T13:41:29Z</time></trkpt><trkpt lat="43.94768919351002" lon="6.221287528839183"><ele>621.4000000000001</ele><time>2026-04-07T13:41:30Z</time></trkpt><trkpt lat="43.9477163938632" lon="6.221380837790561"><ele>621.6</ele><time>2026-04-07T13:41:31Z</time></trkpt><trkpt lat="43.9477366574418" lon="6.221464318371665"><ele>621.8000000000001</ele><time>2026-04-07T13:41:32Z</time></trkpt><trkpt lat="43.94776934769006" lon="6.221616131758388"><ele>622.0</ele><time>2026-04-07T13:41:34Z</time></trkpt><trkpt lat="43.94786718074595" lon="6.221756007058497"><ele>620.3333333333334</ele><time>2026-04-07T13:41:36Z</time></trkpt><trkpt lat="43.947967059011134" lon="6.221793016013772"><ele>618.6666666666667</ele><time>2026-04-07T13:41:37Z</time></trkpt><trkpt lat="43.94806987929178" lon="6.221798360429982"><ele>617.0</ele><time>2026-04-07T13:41:38Z</time></trkpt><trkpt lat="43.94814955341507" lon="6.221813560567251"><ele>615.3333333333334</ele><time>2026-04-07T13:41:39Z</time></trkpt><trkpt lat="43.94821173144064" lon="6.221866568786498"><ele>613.6666666666666</ele><time>2026-04-07T13:41:40Z</time></trkpt><trkpt lat="43.94823661762709" lon="6.221958918166423"><ele>612.0</ele><time>2026-04-07T13:41:41Z</time></trkpt><trkpt lat="43.94834048606469" lon="6.222037103168988"><ele>612.8333333333334</ele><time>2026-04-07T13:41:43Z</time></trkpt><trkpt lat="43.94841110512755" lon="6.222016877209864"><ele>613.6666666666666</ele><time>2026-04-07T13:41:44Z</time></trkpt><trkpt lat="43.948484983311396" lon="6.221975907563499"><ele>614.5</ele><time>2026-04-07T13:41:45Z</time></trkpt><trkpt lat="43.948563999472206" lon="6.221944693004995"><ele>615.3333333333333</ele><time>2026-04-07T13:41:46Z</time></trkpt><trkpt lat="43.94862797882511" lon="6.221928713714975"><ele>616.1666666666666</ele><time>2026-04-07T13:41:47Z</time></trkpt><trkpt lat="43.94872611986765" lon="6.221903518349972"><ele>617.0</ele><time>2026-04-07T13:41:49Z</time></trkpt><trkpt lat="43.948806239209304" lon="6.221872876910287"><ele>617.0</ele><time>2026-04-07T13:41:51Z</time></trkpt><trkpt lat="43.948893452123876" lon="6.221841043021237"><ele>617.0</ele><time>2026-04-07T13:41:53Z</time></trkpt><trkpt lat="43.94903453519761" lon="6.221828911339948"><ele>617.0</ele><time>2026-04-07T13:41:55Z</time></trkpt><trkpt lat="43.94911225820087" lon="6.221828430935205"><ele>617.0</ele><time>2026-04-07T13:41:56Z</time></trkpt><trkpt lat="43.94918730259255" lon="6.221845803207309"><ele>617.0</ele><time>2026-04-07T13:41:57Z</time></trkpt><trkpt lat="43.94927786759591" lon="6.221873213051856"><ele>618.5</ele><time>2026-04-07T13:41:58Z</time></trkpt><trkpt lat="43.949368576725355" lon="6.221896350912707"><ele>620.0</ele><time>2026-04-07T13:41:59Z</time></trkpt><trkpt lat="43.94945944531968" lon="6.221912131444115"><ele>621.5</ele><time>2026-04-07T13:42:00Z</time></trkpt><trkpt lat="43.94954110928627" lon="6.221923273046551"><ele>623.0</ele><time>2026-04-07T13:42:01Z</time></trkpt><trkpt lat="43.949623835365585" lon="6.2219238940666495"><ele>624.5</ele><time>2026-04-07T13:42:02Z</time></trkpt><trkpt lat="43.949717618574944" lon="6.2219261344786245"><ele>626.0</ele><time>2026-04-07T13:42:03Z</time></trkpt><trkpt lat="43.94981486106091" lon="6.221934729586968"><ele>626.0</ele><time>2026-04-07T13:42:04Z</time></trkpt><trkpt lat="43.94990769340517" lon="6.2219526612970135"><ele>626.0</ele><time>2026-04-07T13:42:05Z</time></trkpt><trkpt lat="43.94999985108907" lon="6.2219930776897385"><ele>626.0</ele><time>2026-04-07T13:42:06Z</time></trkpt><trkpt lat="43.95008590672712" lon="6.222046027822286"><ele>626.0</ele><time>2026-04-07T13:42:07Z</time></trkpt><trkpt lat="43.95017519534926" lon="6.222099351928888"><ele>626.0</ele><time>2026-04-07T13:42:08Z</time></trkpt><trkpt lat="43.95026840808821" lon="6.22215146420685"><ele>627.5</ele><time>2026-04-07T13:42:09Z</time></trkpt><trkpt lat="43.9503603457871" lon="6.222245219147534"><ele>629.0</ele><time>2026-04-07T13:42:10Z</time></trkpt><trkpt lat="43.950427171857015" lon="6.222369909646222"><ele>630.5</ele><time>2026-04-07T13:42:11Z</time></trkpt><trkpt lat="43.9504805613814" lon="6.222500809839504"><ele>632.0</ele><time>2026-04-07T13:42:12Z</time></trkpt><trkpt lat="43.95053466946391" lon="6.222657294529286"><ele>632.0</ele><time>2026-04-07T13:42:13Z</time></trkpt><trkpt lat="43.95058812650912" lon="6.2228561720732465"><ele>632.0</ele><time>2026-04-07T13:42:14Z</time></trkpt><trkpt lat="43.95062434509495" lon="6.223057145441405"><ele>632.0</ele><time>2026-04-07T13:42:15Z</time></trkpt><trkpt lat="43.95064383498487" lon="6.223242930246872"><ele>632.0</ele><time>2026-04-07T13:42:16Z</time></trkpt><trkpt lat="43.950646602762106" lon="6.2234107725802925"><ele>633.0</ele><time>2026-04-07T13:42:17Z</time></trkpt><trkpt lat="43.95063875414323" lon="6.223574775886668"><ele>634.0</ele><time>2026-04-07T13:42:18Z</time></trkpt><trkpt lat="43.95062917858662" lon="6.223706782536762"><ele>635.0</ele><time>2026-04-07T13:42:19Z</time></trkpt><trkpt lat="43.95064463624092" lon="6.223827542967169"><ele>636.0</ele><time>2026-04-07T13:42:20Z</time></trkpt><trkpt lat="43.95068931704079" lon="6.223920790381646"><ele>637.0</ele><time>2026-04-07T13:42:21Z</time></trkpt><trkpt lat="43.9507367858378" lon="6.224023041861965"><ele>638.0</ele><time>2026-04-07T13:42:22Z</time></trkpt><trkpt lat="43.95082019346972" lon="6.224116412397953"><ele>639.0</ele><time>2026-04-07T13:42:23Z</time></trkpt><trkpt lat="43.950888690622854" lon="6.22421898872247"><ele>640.0</ele><time>2026-04-07T13:42:24Z</time></trkpt><trkpt lat="43.95096081135778" lon="6.224308189439657"><ele>641.0</ele><time>2026-04-07T13:42:25Z</time></trkpt><trkpt lat="43.95101553082158" lon="6.224425260951101"><ele>642.0</ele><time>2026-04-07T13:42:26Z</time></trkpt><trkpt lat="43.951052310074296" lon="6.224546184970129"><ele>644.1666666666666</ele><time>2026-04-07T13:42:27Z</time></trkpt><trkpt lat="43.951057798737196" lon="6.224666265544319"><ele>646.3333333333334</ele><time>2026-04-07T13:42:28Z</time></trkpt><trkpt lat="43.95104979230517" lon="6.224782344759393"><ele>648.5</ele><time>2026-04-07T13:42:29Z</time></trkpt><trkpt lat="43.9510505153933" lon="6.224885951851698"><ele>650.6666666666667</ele><time>2026-04-07T13:42:30Z</time></trkpt><trkpt lat="43.95108082035203" lon="6.224997226547936"><ele>652.8333333333334</ele><time>2026-04-07T13:42:31Z</time></trkpt><trkpt lat="43.95112581618324" lon="6.225107771936809"><ele>655.0</ele><time>2026-04-07T13:42:32Z</time></trkpt><trkpt lat="43.95118189715041" lon="6.225193459566881"><ele>655.6</ele><time>2026-04-07T13:42:33Z</time></trkpt><trkpt lat="43.95122799867198" lon="6.225284650821992"><ele>656.2</ele><time>2026-04-07T13:42:34Z</time></trkpt><trkpt lat="43.951332102299475" lon="6.225353933800634"><ele>656.8</ele><time>2026-04-07T13:42:36Z</time></trkpt><trkpt lat="43.95144793752625" lon="6.225301439522202"><ele>657.4</ele><time>2026-04-07T13:42:38Z</time></trkpt><trkpt lat="43.9514821427927" lon="6.225183596084228"><ele>658.0</ele><time>2026-04-07T13:42:39Z</time></trkpt><trkpt lat="43.95146246270462" lon="6.225020090242477"><ele>658.0</ele><time>2026-04-07T13:42:40Z</time></trkpt><trkpt lat="43.95149510399018" lon="6.224861724998797"><ele>658.0</ele><time>2026-04-07T13:42:41Z</time></trkpt><trkpt lat="43.95154447363133" lon="6.224702109845392"><ele>658.0</ele><time>2026-04-07T13:42:42Z</time></trkpt><trkpt lat="43.9515860533951" lon="6.224561106563544"><ele>658.0</ele><time>2026-04-07T13:42:43Z</time></trkpt><trkpt lat="43.951603326742244" lon="6.224435303032472"><ele>658.0</ele><time>2026-04-07T13:42:44Z</time></trkpt><trkpt lat="43.951639905387616" lon="6.224334914439714"><ele>658.4</ele><time>2026-04-07T13:42:45Z</time></trkpt><trkpt lat="43.95168535309093" lon="6.224259044544325"><ele>658.8</ele><time>2026-04-07T13:42:46Z</time></trkpt><trkpt lat="43.951755385645896" lon="6.224180512286658"><ele>659.2</ele><time>2026-04-07T13:42:47Z</time></trkpt><trkpt lat="43.951835565184055" lon="6.224095426164711"><ele>659.6</ele><time>2026-04-07T13:42:48Z</time></trkpt><trkpt lat="43.951906723551744" lon="6.224010455062305"><ele>660.0</ele><time>2026-04-07T13:42:49Z</time></trkpt><trkpt lat="43.95197666589863" lon="6.223922295980804"><ele>660.0</ele><time>2026-04-07T13:42:50Z</time></trkpt><trkpt lat="43.95204325069932" lon="6.22383746486553"><ele>660.0</ele><time>2026-04-07T13:42:51Z</time></trkpt><trkpt lat="43.95211551945327" lon="6.223740016840753"><ele>660.0</ele><time>2026-04-07T13:42:52Z</time></trkpt><trkpt lat="43.952191916257796" lon="6.223635897166182"><ele>660.0</ele><time>2026-04-07T13:42:53Z</time></trkpt><trkpt lat="43.952266230738374" lon="6.223537791536902"><ele>660.0</ele><time>2026-04-07T13:42:54Z</time></trkpt><trkpt lat="43.952338315384274" lon="6.223436371728577"><ele>660.0</ele><time>2026-04-07T13:42:55Z</time></trkpt><trkpt lat="43.95238143284929" lon="6.223335782223252"><ele>660.0</ele><time>2026-04-07T13:42:56Z</time></trkpt><trkpt lat="43.952415284625395" lon="6.223249648203646"><ele>660.0</ele><time>2026-04-07T13:42:57Z</time></trkpt><trkpt lat="43.95248657985812" lon="6.2232447149912815"><ele>660.0</ele><time>2026-04-07T13:42:59Z</time></trkpt><trkpt lat="43.952458834080225" lon="6.223369062908645"><ele>660.0</ele><time>2026-04-07T13:43:01Z</time></trkpt><trkpt lat="43.95241822304894" lon="6.2234685663139535"><ele>660.0</ele><time>2026-04-07T13:43:02Z</time></trkpt><trkpt lat="43.95237348773903" lon="6.223582438375"><ele>660.0</ele><time>2026-04-07T13:43:03Z</time></trkpt><trkpt lat="43.95234667248629" lon="6.22369839220875"><ele>660.0</ele><time>2026-04-07T13:43:04Z</time></trkpt><trkpt lat="43.952332138247115" lon="6.223820028097467"><ele>660.0</ele><time>2026-04-07T13:43:05Z</time></trkpt><trkpt lat="43.952327840120844" lon="6.22393712906568"><ele>660.0</ele><time>2026-04-07T13:43:06Z</time></trkpt><trkpt lat="43.952328244663256" lon="6.224053182550869"><ele>660.0</ele><time>2026-04-07T13:43:07Z</time></trkpt><trkpt lat="43.95232840740825" lon="6.224160228785676"><ele>660.0</ele><time>2026-04-07T13:43:08Z</time></trkpt><trkpt lat="43.95232522164278" lon="6.224269140455147"><ele>663.2</ele><time>2026-04-07T13:43:09Z</time></trkpt><trkpt lat="43.95231624152002" lon="6.2243611795467135"><ele>666.4</ele><time>2026-04-07T13:43:10Z</time></trkpt><trkpt lat="43.95230779742783" lon="6.224448003153207"><ele>669.5999999999999</ele><time>2026-04-07T13:43:11Z</time></trkpt><trkpt lat="43.952300405319775" lon="6.224606371647817"><ele>672.8</ele><time>2026-04-07T13:43:13Z</time></trkpt><trkpt lat="43.95235728102493" lon="6.224709827761607"><ele>676.0</ele><time>2026-04-07T13:43:15Z</time></trkpt><trkpt lat="43.95245611798991" lon="6.224603959206258"><ele>676.0</ele><time>2026-04-07T13:43:16Z</time></trkpt><trkpt lat="43.952518342892105" lon="6.224495118036866"><ele>676.0</ele><time>2026-04-07T13:43:17Z</time></trkpt><trkpt lat="43.952571044865394" lon="6.224369655471594"><ele>676.0</ele><time>2026-04-07T13:43:18Z</time></trkpt><trkpt lat="43.952568279519156" lon="6.224244936694062"><ele>676.0</ele><time>2026-04-07T13:43:19Z</time></trkpt><trkpt lat="43.952607457249236" lon="6.224163005270342"><ele>676.0</ele><time>2026-04-07T13:43:20Z</time></trkpt><trkpt lat="43.95271486312658" lon="6.224064162984502"><ele>676.6666666666667</ele><time>2026-04-07T13:43:22Z</time></trkpt><trkpt lat="43.95278091136739" lon="6.22401491612633"><ele>677.3333333333334</ele><time>2026-04-07T13:43:23Z</time></trkpt><trkpt lat="43.95285141807994" lon="6.223963515866503"><ele>678.0</ele><time>2026-04-07T13:43:24Z</time></trkpt><trkpt lat="43.95292294902302" lon="6.223890563413719"><ele>678.6666666666666</ele><time>2026-04-07T13:43:25Z</time></trkpt><trkpt lat="43.953000070852475" lon="6.223850016291415"><ele>679.3333333333333</ele><time>2026-04-07T13:43:26Z</time></trkpt><trkpt lat="43.95308711143973" lon="6.223808733999781"><ele>680.0</ele><time>2026-04-07T13:43:27Z</time></trkpt><trkpt lat="43.953177864068856" lon="6.223779631813945"><ele>680.0</ele><time>2026-04-07T13:43:28Z</time></trkpt><trkpt lat="43.95327169311126" lon="6.223757629461247"><ele>680.0</ele><time>2026-04-07T13:43:29Z</time></trkpt><trkpt lat="43.95335799213263" lon="6.223735601636953"><ele>680.0</ele><time>2026-04-07T13:43:30Z</time></trkpt><trkpt lat="43.95343393554553" lon="6.223702029120906"><ele>680.0</ele><time>2026-04-07T13:43:31Z</time></trkpt><trkpt lat="43.95351513541405" lon="6.223682834116195"><ele>680.0</ele><time>2026-04-07T13:43:32Z</time></trkpt><trkpt lat="43.95357665309922" lon="6.223627140054317"><ele>680.0</ele><time>2026-04-07T13:43:33Z</time></trkpt><trkpt lat="43.953665534785564" lon="6.223571662260738"><ele>684.6</ele><time>2026-04-07T13:43:35Z</time></trkpt><trkpt lat="43.95370927527103" lon="6.22366203866072"><ele>689.2</ele><time>2026-04-07T13:43:37Z</time></trkpt><trkpt lat="43.95361572079251" lon="6.223798125728865"><ele>693.8</ele><time>2026-04-07T13:43:39Z</time></trkpt><trkpt lat="43.95356531818196" lon="6.22391187981952"><ele>698.4</ele><time>2026-04-07T13:43:40Z</time></trkpt><trkpt lat="43.953504572513815" lon="6.2239947601852075"><ele>703.0</ele><time>2026-04-07T13:43:41Z</time></trkpt><trkpt lat="43.95346109613869" lon="6.224064452022802"><ele>702.0</ele><time>2026-04-07T13:43:42Z</time></trkpt><trkpt lat="43.953390584773864" lon="6.224184553985716"><ele>701.0</ele><time>2026-04-07T13:43:44Z</time></trkpt><trkpt lat="43.95332150326037" lon="6.224287417718317"><ele>700.0</ele><time>2026-04-07T13:43:46Z</time></trkpt><trkpt lat="43.953263437131916" lon="6.2244032825794235"><ele>699.0</ele><time>2026-04-07T13:43:48Z</time></trkpt><trkpt lat="43.95323558766511" lon="6.224545503941569"><ele>698.0</ele><time>2026-04-07T13:43:50Z</time></trkpt><trkpt lat="43.953265238639965" lon="6.224685681562746"><ele>698.0</ele><time>2026-04-07T13:43:52Z</time></trkpt><trkpt lat="43.95331419333008" lon="6.2247524564242065"><ele>698.0</ele><time>2026-04-07T13:43:55Z</time></trkpt><trkpt lat="43.95340067939953" lon="6.2247695544088675"><ele>698.0</ele><time>2026-04-07T13:56:50Z</time></trkpt><trkpt lat="43.95347966706442" lon="6.224764596949847"><ele>698.0</ele><time>2026-04-07T13:56:52Z</time></trkpt><trkpt lat="43.95356620541958" lon="6.224789865671737"><ele>698.0</ele><time>2026-04-07T13:56:54Z</time></trkpt><trkpt lat="43.95365575653611" lon="6.22482957519733"><ele>698.0</ele><time>2026-04-07T13:56:56Z</time></trkpt><trkpt lat="43.95374536376163" lon="6.224822963875662"><ele>701.5999999999999</ele><time>2026-04-07T13:56:58Z</time></trkpt><trkpt lat="43.95380299254158" lon="6.224757673599504"><ele>705.1999999999999</ele><time>2026-04-07T13:57:00Z</time></trkpt><trkpt lat="43.95381016452903" lon="6.224637423495061"><ele>708.8</ele><time>2026-04-07T13:57:02Z</time></trkpt><trkpt lat="43.95385579795725" lon="6.224501748822386"><ele>712.4</ele><time>2026-04-07T13:57:04Z</time></trkpt><trkpt lat="43.95394556814577" lon="6.224393083174919"><ele>716.0</ele><time>2026-04-07T13:57:06Z</time></trkpt><trkpt lat="43.95400353488517" lon="6.224313617519438"><ele>716.0</ele><time>2026-04-07T13:57:08Z</time></trkpt><trkpt lat="43.95405612346843" lon="6.2242330368394"><ele>716.0</ele><time>2026-04-07T13:57:10Z</time></trkpt><trkpt lat="43.95411195890104" lon="6.224135814246811"><ele>716.0</ele><time>2026-04-07T13:57:12Z</time></trkpt><trkpt lat="43.954169469762064" lon="6.22404127553103"><ele>716.0</ele><time>2026-04-07T13:57:14Z</time></trkpt><trkpt lat="43.95422436961616" lon="6.2239291733886155"><ele>716.0</ele><time>2026-04-07T13:57:16Z</time></trkpt><trkpt lat="43.95427103010541" lon="6.223792183501741"><ele>718.0</ele><time>2026-04-07T13:57:18Z</time></trkpt><trkpt lat="43.95430993662763" lon="6.223626787186726"><ele>720.0</ele><time>2026-04-07T13:57:20Z</time></trkpt><trkpt lat="43.95436035006048" lon="6.223507782200483"><ele>722.0</ele><time>2026-04-07T13:57:22Z</time></trkpt><trkpt lat="43.95441155067828" lon="6.223372919868117"><ele>724.0</ele><time>2026-04-07T13:57:24Z</time></trkpt><trkpt lat="43.95444046511056" lon="6.2232887893682785"><ele>726.0</ele><time>2026-04-07T13:57:25Z</time></trkpt><trkpt lat="43.95450509947267" lon="6.2232171386389465"><ele>726.0</ele><time>2026-04-07T13:57:27Z</time></trkpt><trkpt lat="43.954584908922484" lon="6.2232199709478015"><ele>726.0</ele><time>2026-04-07T13:57:29Z</time></trkpt><trkpt lat="43.9546523065958" lon="6.223319250236269"><ele>726.0</ele><time>2026-04-07T13:57:31Z</time></trkpt><trkpt lat="43.95466898643485" lon="6.2234049441286805"><ele>726.0</ele><time>2026-04-07T13:57:32Z</time></trkpt><trkpt lat="43.95465164703933" lon="6.223516637177177"><ele>726.0</ele><time>2026-04-07T13:57:33Z</time></trkpt><trkpt lat="43.95462741769129" lon="6.223619252595991"><ele>726.0</ele><time>2026-04-07T13:57:34Z</time></trkpt><trkpt lat="43.954605955157184" lon="6.223711779398703"><ele>726.0</ele><time>2026-04-07T13:57:35Z</time></trkpt><trkpt lat="43.95457978909802" lon="6.223805116345987"><ele>726.0</ele><time>2026-04-07T13:57:36Z</time></trkpt><trkpt lat="43.95455179002256" lon="6.223891328276454"><ele>726.0</ele><time>2026-04-07T13:57:37Z</time></trkpt><trkpt lat="43.954504734279546" lon="6.2240453744329285"><ele>726.0</ele><time>2026-04-07T13:57:39Z</time></trkpt><trkpt lat="43.954468439066545" lon="6.224198749816118"><ele>726.0</ele><time>2026-04-07T13:57:41Z</time></trkpt><trkpt lat="43.954455314662354" lon="6.224356929822008"><ele>728.5999999999999</ele><time>2026-04-07T13:57:43Z</time></trkpt><trkpt lat="43.95444883185355" lon="6.2244848936517645"><ele>731.2</ele><time>2026-04-07T13:57:45Z</time></trkpt><trkpt lat="43.95443666477795" lon="6.224642536061111"><ele>733.8</ele><time>2026-04-07T13:57:47Z</time></trkpt><trkpt lat="43.95435423238071" lon="6.224797778451541"><ele>736.4000000000001</ele><time>2026-04-07T13:57:49Z</time></trkpt><trkpt lat="43.9542818727665" lon="6.224898708677234"><ele>739.0</ele><time>2026-04-07T13:57:51Z</time></trkpt><trkpt lat="43.954288659090885" lon="6.224987441511888"><ele>739.0</ele><time>2026-04-07T13:57:55Z</time></trkpt><trkpt lat="43.954374501675005" lon="6.224943397935956"><ele>739.0</ele><time>2026-04-07T13:57:59Z</time></trkpt><trkpt lat="43.95440963040987" lon="6.224859669727558"><ele>739.0</ele><time>2026-04-07T13:58:01Z</time></trkpt><trkpt lat="43.95446672398245" lon="6.224821925773987"><ele>739.0</ele><time>2026-04-07T13:58:03Z</time></trkpt><trkpt lat="43.954536884790755" lon="6.224831613597713"><ele>739.0</ele><time>2026-04-07T13:58:05Z</time></trkpt><trkpt lat="43.95462220527441" lon="6.224828808984765"><ele>739.0</ele><time>2026-04-07T13:58:07Z</time></trkpt><trkpt lat="43.95470054474571" lon="6.2248039058123075"><ele>739.0</ele><time>2026-04-07T13:58:09Z</time></trkpt><trkpt lat="43.954800187496204" lon="6.224767889667419"><ele>739.0</ele><time>2026-04-07T13:58:11Z</time></trkpt><trkpt lat="43.95488407520792" lon="6.224726458742026"><ele>739.0</ele><time>2026-04-07T13:58:13.001Z</time></trkpt><trkpt lat="43.95494833385433" lon="6.22468337217566"><ele>739.0</ele><time>2026-04-07T13:58:15.001Z</time></trkpt><trkpt lat="43.95502269421163" lon="6.224651423000103"><ele>739.0</ele><time>2026-04-07T13:58:17.001Z</time></trkpt><trkpt lat="43.95510241640718" lon="6.224607195377968"><ele>739.0</ele><time>2026-04-07T13:58:19.001Z</time></trkpt><trkpt lat="43.95519231951225" lon="6.224528527143636"><ele>742.6666666666667</ele><time>2026-04-07T13:58:21.001Z</time></trkpt><trkpt lat="43.95525205552315" lon="6.2244100958538375"><ele>746.3333333333334</ele><time>2026-04-07T13:58:23.001Z</time></trkpt><trkpt lat="43.95529536254036" lon="6.224304184857378"><ele>750.0</ele><time>2026-04-07T13:58:25.001Z</time></trkpt><trkpt lat="43.955353413047646" lon="6.224210972065437"><ele>753.6666666666666</ele><time>2026-04-07T13:58:26.999Z</time></trkpt><trkpt lat="43.95540952402395" lon="6.2241429004769735"><ele>757.3333333333333</ele><time>2026-04-07T13:58:28.999Z</time></trkpt><trkpt lat="43.95548507323929" lon="6.224068662091854"><ele>761.0</ele><time>2026-04-07T13:58:30.999Z</time></trkpt><trkpt lat="43.955561313354714" lon="6.22399970969234"><ele>760.0</ele><time>2026-04-07T13:58:32.999Z</time></trkpt><trkpt lat="43.95563220792016" lon="6.223956481891174"><ele>759.0</ele><time>2026-04-07T13:58:34.999Z</time></trkpt><trkpt lat="43.95571471038698" lon="6.223926143913019"><ele>758.0</ele><time>2026-04-07T13:58:42Z</time></trkpt><trkpt lat="43.95581289417377" lon="6.223860815085694"><ele>757.0</ele><time>2026-04-07T13:58:44Z</time></trkpt><trkpt lat="43.95592728584272" lon="6.223792544070276"><ele>756.0</ele><time>2026-04-07T13:58:46Z</time></trkpt><trkpt lat="43.95601600841998" lon="6.223761242117062"><ele>756.0</ele><time>2026-04-07T13:58:48Z</time></trkpt><trkpt lat="43.956085305247655" lon="6.22370623012773"><ele>756.0</ele><time>2026-04-07T13:58:50Z</time></trkpt><trkpt lat="43.95616313728134" lon="6.223787916692698"><ele>756.0</ele><time>2026-04-07T13:58:53Z</time></trkpt><trkpt lat="43.95616222315418" lon="6.223904872451073"><ele>756.0</ele><time>2026-04-07T13:58:55Z</time></trkpt><trkpt lat="43.95609033849491" lon="6.223977314271859"><ele>756.0</ele><time>2026-04-07T13:58:57Z</time></trkpt><trkpt lat="43.95599773740037" lon="6.224020294539616"><ele>756.0</ele><time>2026-04-07T13:58:59Z</time></trkpt><trkpt lat="43.95598076980196" lon="6.224108989266581"><ele>760.1999999999999</ele><time>2026-04-07T13:59:01Z</time></trkpt><trkpt lat="43.95608072971711" lon="6.224135776058084"><ele>764.4</ele><time>2026-04-07T13:59:03Z</time></trkpt><trkpt lat="43.95616630792357" lon="6.224085447443143"><ele>768.6</ele><time>2026-04-07T13:59:05Z</time></trkpt><trkpt lat="43.95628316774911" lon="6.224067357037447"><ele>772.8</ele><time>2026-04-07T13:59:07Z</time></trkpt><trkpt lat="43.95635424823989" lon="6.224069251172433"><ele>777.0</ele><time>2026-04-07T13:59:09Z</time></trkpt><trkpt lat="43.956409182324556" lon="6.224160534314653"><ele>777.0</ele><time>2026-04-07T13:59:11Z</time></trkpt><trkpt lat="43.956510632282956" lon="6.224229239137336"><ele>777.0</ele><time>2026-04-07T13:59:13Z</time></trkpt><trkpt lat="43.956624583695124" lon="6.224230288621469"><ele>777.0</ele><time>2026-04-07T13:59:15Z</time></trkpt><trkpt lat="43.95668894585006" lon="6.22417323835969"><ele>777.0</ele><time>2026-04-07T13:59:16Z</time></trkpt><trkpt lat="43.95675177438819" lon="6.224102288990993"><ele>777.0</ele><time>2026-04-07T13:59:17Z</time></trkpt><trkpt lat="43.95681369746573" lon="6.224024549951946"><ele>776.6666666666666</ele><time>2026-04-07T13:59:18Z</time></trkpt><trkpt lat="43.95685538896108" lon="6.2239566891002225"><ele>776.3333333333333</ele><time>2026-04-07T13:59:19Z</time></trkpt><trkpt lat="43.956940606450985" lon="6.2238839795597904"><ele>776.0</ele><time>2026-04-07T13:59:21Z</time></trkpt><trkpt lat="43.95704578751083" lon="6.223854213797726"><ele>775.6666666666666</ele><time>2026-04-07T13:59:23Z</time></trkpt><trkpt lat="43.957120836053214" lon="6.223847047299135"><ele>775.3333333333333</ele><time>2026-04-07T13:59:24Z</time></trkpt><trkpt lat="43.957187061234" lon="6.223859955255526"><ele>775.0</ele><time>2026-04-07T13:59:25Z</time></trkpt><trkpt lat="43.95725366469475" lon="6.223976807788893"><ele>778.4</ele><time>2026-04-07T13:59:27Z</time></trkpt><trkpt lat="43.957255373507074" lon="6.224109805693452"><ele>781.8</ele><time>2026-04-07T13:59:29Z</time></trkpt><trkpt lat="43.957185105953506" lon="6.224271593359181"><ele>785.2</ele><time>2026-04-07T13:59:31Z</time></trkpt><trkpt lat="43.95713548289211" lon="6.224373324495483"><ele>788.6</ele><time>2026-04-07T13:59:32Z</time></trkpt><trkpt lat="43.95707640670001" lon="6.22445809442459"><ele>792.0</ele><time>2026-04-07T13:59:33Z</time></trkpt><trkpt lat="43.95701474748809" lon="6.22453983532253"><ele>792.0</ele><time>2026-04-07T13:59:34Z</time></trkpt><trkpt lat="43.956971449769256" lon="6.224627147519896"><ele>792.0</ele><time>2026-04-07T13:59:35Z</time></trkpt><trkpt lat="43.95693419411689" lon="6.224738726064989"><ele>792.0</ele><time>2026-04-07T13:59:36Z</time></trkpt><trkpt lat="43.95691733009202" lon="6.224827742112694"><ele>792.0</ele><time>2026-04-07T13:59:37Z</time></trkpt><trkpt lat="43.95688995170659" lon="6.224907350353068"><ele>792.0</ele><time>2026-04-07T13:59:38Z</time></trkpt><trkpt lat="43.95685859183502" lon="6.225047583682718"><ele>792.0</ele><time>2026-04-07T13:59:40Z</time></trkpt><trkpt lat="43.95682161571092" lon="6.225192734374652"><ele>794.0</ele><time>2026-04-07T13:59:42Z</time></trkpt><trkpt lat="43.95679487300333" lon="6.225273751349652"><ele>796.0</ele><time>2026-04-07T13:59:43Z</time></trkpt><trkpt lat="43.95677186882183" lon="6.225360520043535"><ele>798.0</ele><time>2026-04-07T13:59:44Z</time></trkpt><trkpt lat="43.9567485043312" lon="6.225544048542409"><ele>800.0</ele><time>2026-04-07T13:59:46Z</time></trkpt><trkpt lat="43.95674252762845" lon="6.225631312745489"><ele>802.0</ele><time>2026-04-07T13:59:47Z</time></trkpt><trkpt lat="43.95673794529242" lon="6.225720952620047"><ele>804.0</ele><time>2026-04-07T13:59:48Z</time></trkpt><trkpt lat="43.956739238960395" lon="6.225847201159804"><ele>804.8333333333334</ele><time>2026-04-07T13:59:50Z</time></trkpt><trkpt lat="43.95675183321548" lon="6.225943385511203"><ele>805.6666666666667</ele><time>2026-04-07T13:59:52Z</time></trkpt><trkpt lat="43.95681031973137" lon="6.226012169553846"><ele>806.5</ele><time>2026-04-07T13:59:54Z</time></trkpt><trkpt lat="43.956896479417324" lon="6.226014447465759"><ele>807.3333333333334</ele><time>2026-04-07T13:59:56Z</time></trkpt><trkpt lat="43.95697197936469" lon="6.225944211892894"><ele>808.1666666666667</ele><time>2026-04-07T13:59:58Z</time></trkpt><trkpt lat="43.95701710089459" lon="6.225874636366523"><ele>809.0</ele><time>2026-04-07T14:00:00Z</time></trkpt><trkpt lat="43.95708213705987" lon="6.225767643735396"><ele>809.0</ele><time>2026-04-07T14:00:02Z</time></trkpt><trkpt lat="43.95719383013854" lon="6.225701549163245"><ele>809.0</ele><time>2026-04-07T14:00:04.001Z</time></trkpt><trkpt lat="43.95726766627147" lon="6.225666404619016"><ele>809.0</ele><time>2026-04-07T14:00:05.001Z</time></trkpt><trkpt lat="43.9573272334843" lon="6.225610253339877"><ele>809.0</ele><time>2026-04-07T14:00:06.001Z</time></trkpt><trkpt lat="43.95738663014228" lon="6.225576043260964"><ele>809.0</ele><time>2026-04-07T14:00:07.001Z</time></trkpt><trkpt lat="43.95748684346128" lon="6.225500355210016"><ele>811.2</ele><time>2026-04-07T14:00:09.001Z</time></trkpt><trkpt lat="43.95754837436053" lon="6.225353731136182"><ele>813.4000000000001</ele><time>2026-04-07T14:00:11.001Z</time></trkpt><trkpt lat="43.957578729467755" lon="6.225272113819761"><ele>815.6</ele><time>2026-04-07T14:00:12.001Z</time></trkpt><trkpt lat="43.957631112241565" lon="6.225151004953013"><ele>817.8</ele><time>2026-04-07T14:00:14.001Z</time></trkpt><trkpt lat="43.95772584100237" lon="6.225058119483262"><ele>820.0</ele><time>2026-04-07T14:00:16.001Z</time></trkpt><trkpt lat="43.95778577814179" lon="6.225019611484232"><ele>819.9999999999999</ele><time>2026-04-07T14:00:17.001Z</time></trkpt><trkpt lat="43.95786454158454" lon="6.22498446053449"><ele>820.0</ele><time>2026-04-07T14:00:18.001Z</time></trkpt><trkpt lat="43.95792855687139" lon="6.224936450127659"><ele>820.0</ele><time>2026-04-07T14:00:19.001Z</time></trkpt><trkpt lat="43.95798425585237" lon="6.22488261828533"><ele>820.0</ele><time>2026-04-07T14:00:20.001Z</time></trkpt><trkpt lat="43.958063980044265" lon="6.224811295382654"><ele>819.9999999999999</ele><time>2026-04-07T14:00:22.001Z</time></trkpt><trkpt lat="43.95814099611378" lon="6.224843000469866"><ele>820.0</ele><time>2026-04-07T14:00:24.001Z</time></trkpt><trkpt lat="43.95821638639439" lon="6.224865270892351"><ele>819.9999999999999</ele><time>2026-04-07T14:00:25.001Z</time></trkpt><trkpt lat="43.95828575203198" lon="6.224879772046694"><ele>820.0</ele><time>2026-04-07T14:00:26.001Z</time></trkpt><trkpt lat="43.958364348759744" lon="6.224867422599476"><ele>820.0</ele><time>2026-04-07T14:00:27.001Z</time></trkpt><trkpt lat="43.95844531524045" lon="6.224848102719647"><ele>820.0</ele><time>2026-04-07T14:00:28.001Z</time></trkpt><trkpt lat="43.95850946823941" lon="6.224850289916869"><ele>819.9999999999999</ele><time>2026-04-07T14:00:29.001Z</time></trkpt><trkpt lat="43.95864284777412" lon="6.224890746295592"><ele>820.0</ele><time>2026-04-07T14:00:31.001Z</time></trkpt><trkpt lat="43.95875903781439" lon="6.22486514239026"><ele>819.8</ele><time>2026-04-07T14:00:33Z</time></trkpt><trkpt lat="43.95884201469154" lon="6.224773846596897"><ele>819.6</ele><time>2026-04-07T14:00:35Z</time></trkpt><trkpt lat="43.95891528055048" lon="6.2246854071163815"><ele>819.4000000000001</ele><time>2026-04-07T14:00:37Z</time></trkpt><trkpt lat="43.95899864672153" lon="6.22463028745041"><ele>819.2</ele><time>2026-04-07T14:00:39Z</time></trkpt><trkpt lat="43.95909892797816" lon="6.224636434254779"><ele>819.0</ele><time>2026-04-07T14:00:41Z</time></trkpt><trkpt lat="43.959220984659524" lon="6.224684717759486"><ele>819.0</ele><time>2026-04-07T14:00:43Z</time></trkpt><trkpt lat="43.95928438070095" lon="6.224710704628804"><ele>819.0</ele><time>2026-04-07T14:00:44Z</time></trkpt><trkpt lat="43.959377536323025" lon="6.224737631394932"><ele>819.0</ele><time>2026-04-07T14:00:46Z</time></trkpt><trkpt lat="43.959479666857995" lon="6.224793169499195"><ele>819.0</ele><time>2026-04-07T14:00:48Z</time></trkpt><trkpt lat="43.95956655912386" lon="6.22487676871719"><ele>819.0</ele><time>2026-04-07T14:00:50Z</time></trkpt><trkpt lat="43.95962960076263" lon="6.224977705001857"><ele>822.1666666666666</ele><time>2026-04-07T14:00:52Z</time></trkpt><trkpt lat="43.959676672537206" lon="6.225125888848896"><ele>825.3333333333333</ele><time>2026-04-07T14:00:54Z</time></trkpt><trkpt lat="43.95973245182251" lon="6.2251883602224005"><ele>828.5</ele><time>2026-04-07T14:00:55Z</time></trkpt><trkpt lat="43.95978579703716" lon="6.225257189850988"><ele>831.6666666666666</ele><time>2026-04-07T14:00:56Z</time></trkpt><trkpt lat="43.959833347498076" lon="6.22532002258641"><ele>834.8333333333333</ele><time>2026-04-07T14:00:57Z</time></trkpt><trkpt lat="43.95987341641992" lon="6.225389580350107"><ele>838.0</ele><time>2026-04-07T14:00:58Z</time></trkpt><trkpt lat="43.95991021107116" lon="6.225462978163912"><ele>838.0</ele><time>2026-04-07T14:00:59Z</time></trkpt><trkpt lat="43.9599632446836" lon="6.225529567061036"><ele>838.0</ele><time>2026-04-07T14:01:01Z</time></trkpt><trkpt lat="43.96006202583596" lon="6.225556167976576"><ele>838.0</ele><time>2026-04-07T14:01:03Z</time></trkpt><trkpt lat="43.96016731271806" lon="6.225554363096303"><ele>838.0</ele><time>2026-04-07T14:01:05Z</time></trkpt><trkpt lat="43.96028917780375" lon="6.225553640331766"><ele>838.0</ele><time>2026-04-07T14:01:07Z</time></trkpt><trkpt lat="43.960411077664176" lon="6.225558609119777"><ele>839.0</ele><time>2026-04-07T14:01:09Z</time></trkpt><trkpt lat="43.960510660543044" lon="6.225559946644937"><ele>840.0</ele><time>2026-04-07T14:01:11Z</time></trkpt><trkpt lat="43.96060064720982" lon="6.22554233726773"><ele>841.0</ele><time>2026-04-07T14:01:13Z</time></trkpt><trkpt lat="43.96070954964461" lon="6.225515980546669"><ele>842.0</ele><time>2026-04-07T14:01:15Z</time></trkpt><trkpt lat="43.96083521757974" lon="6.225533468989418"><ele>843.0</ele><time>2026-04-07T14:01:17Z</time></trkpt><trkpt lat="43.960915156327154" lon="6.225551592668912"><ele>843.75</ele><time>2026-04-07T14:01:18Z</time></trkpt><trkpt lat="43.9609790399187" lon="6.225561303986113"><ele>844.5</ele><time>2026-04-07T14:01:19Z</time></trkpt><trkpt lat="43.961081179238235" lon="6.225579397647316"><ele>845.25</ele><time>2026-04-07T14:01:21Z</time></trkpt><trkpt lat="43.96119036456475" lon="6.225573663324573"><ele>846.0</ele><time>2026-04-07T14:01:23Z</time></trkpt><trkpt lat="43.96130121090358" lon="6.225872581388999"><ele>848.25</ele><time>2026-04-07T14:01:24Z</time></trkpt><trkpt lat="43.961519154037546" lon="6.225808715661466"><ele>850.5</ele><time>2026-04-07T14:01:27Z</time></trkpt><trkpt lat="43.961624765964" lon="6.225777328899842"><ele>852.75</ele><time>2026-04-07T14:01:29Z</time></trkpt><trkpt lat="43.96172853562408" lon="6.225762347064758"><ele>855.0</ele><time>2026-04-07T14:01:31.001Z</time></trkpt><trkpt lat="43.96181921226071" lon="6.2257753298220875"><ele>855.0</ele><time>2026-04-07T14:01:33.001Z</time></trkpt><trkpt lat="43.96189027738856" lon="6.225795467668825"><ele>855.0</ele><time>2026-04-07T14:01:36.001Z</time></trkpt><trkpt lat="43.96195644909827" lon="6.225803616068181"><ele>855.0</ele><time>2026-04-07T14:01:39.001Z</time></trkpt><trkpt lat="43.96204473845773" lon="6.225876416780768"><ele>855.0</ele><time>2026-04-07T14:04:49Z</time></trkpt><trkpt lat="43.96208725245139" lon="6.225949513410666"><ele>855.0</ele><time>2026-04-07T14:04:50Z</time></trkpt><trkpt lat="43.962125672099845" lon="6.226049309104469"><ele>855.0</ele><time>2026-04-07T14:04:51Z</time></trkpt><trkpt lat="43.962157116288395" lon="6.226138697710029"><ele>855.0</ele><time>2026-04-07T14:04:52Z</time></trkpt><trkpt lat="43.96219716879798" lon="6.2262297021051936"><ele>855.0</ele><time>2026-04-07T14:04:53Z</time></trkpt><trkpt lat="43.9622265688795" lon="6.226316589044246"><ele>855.0</ele><time>2026-04-07T14:04:54Z</time></trkpt><trkpt lat="43.962271180932895" lon="6.226394326548449"><ele>855.0</ele><time>2026-04-07T14:04:55Z</time></trkpt><trkpt lat="43.962334434098366" lon="6.226451372679575"><ele>855.0</ele><time>2026-04-07T14:04:56Z</time></trkpt><trkpt lat="43.96243148224929" lon="6.2265093981748585"><ele>855.0</ele><time>2026-04-07T14:04:57Z</time></trkpt><trkpt lat="43.96252073727089" lon="6.226567385096765"><ele>856.3333333333334</ele><time>2026-04-07T14:04:58Z</time></trkpt><trkpt lat="43.962592394803465" lon="6.226635032386978"><ele>857.6666666666667</ele><time>2026-04-07T14:04:59Z</time></trkpt><trkpt lat="43.962655160528314" lon="6.2267100269150575"><ele>859.0</ele><time>2026-04-07T14:05:00Z</time></trkpt><trkpt lat="43.9626875631959" lon="6.226822079697193"><ele>860.3333333333334</ele><time>2026-04-07T14:05:01Z</time></trkpt><trkpt lat="43.962737543520454" lon="6.2269279882757465"><ele>861.6666666666667</ele><time>2026-04-07T14:05:02Z</time></trkpt><trkpt lat="43.96279207358314" lon="6.227033483866507"><ele>863.0</ele><time>2026-04-07T14:05:03Z</time></trkpt><trkpt lat="43.96283169532737" lon="6.2271597478395035"><ele>863.0</ele><time>2026-04-07T14:05:04Z</time></trkpt><trkpt lat="43.96288499814914" lon="6.227280354124476"><ele>863.0</ele><time>2026-04-07T14:05:05Z</time></trkpt><trkpt lat="43.96295288918907" lon="6.2273963610840815"><ele>863.0</ele><time>2026-04-07T14:05:06Z</time></trkpt><trkpt lat="43.963034460346236" lon="6.2274994354460596"><ele>863.0</ele><time>2026-04-07T14:05:07Z</time></trkpt><trkpt lat="43.96310566117104" lon="6.227600816676622"><ele>863.0</ele><time>2026-04-07T14:05:08Z</time></trkpt><trkpt lat="43.96318878499323" lon="6.227636111477923"><ele>865.1666666666667</ele><time>2026-04-07T14:05:09Z</time></trkpt><trkpt lat="43.96327173689161" lon="6.227655485173566"><ele>867.3333333333334</ele><time>2026-04-07T14:05:10Z</time></trkpt><trkpt lat="43.96335286598848" lon="6.227661038684285"><ele>869.5</ele><time>2026-04-07T14:05:11Z</time></trkpt><trkpt lat="43.96342835267369" lon="6.227624158586792"><ele>871.6666666666667</ele><time>2026-04-07T14:05:12Z</time></trkpt><trkpt lat="43.96349480217478" lon="6.227537593393495"><ele>873.8333333333334</ele><time>2026-04-07T14:05:13Z</time></trkpt><trkpt lat="43.96350090590922" lon="6.227403863698286"><ele>876.0</ele><time>2026-04-07T14:05:14Z</time></trkpt><trkpt lat="43.96345090994014" lon="6.227303177995386"><ele>876.0</ele><time>2026-04-07T14:05:15Z</time></trkpt><trkpt lat="43.963429699949394" lon="6.227187993648085"><ele>876.0</ele><time>2026-04-07T14:05:16Z</time></trkpt><trkpt lat="43.96341881294567" lon="6.227076434830753"><ele>876.0</ele><time>2026-04-07T14:05:17Z</time></trkpt><trkpt lat="43.96342694708031" lon="6.226976160417647"><ele>876.0</ele><time>2026-04-07T14:05:18Z</time></trkpt><trkpt lat="43.963467049594556" lon="6.226895937455826"><ele>876.0</ele><time>2026-04-07T14:05:19Z</time></trkpt><trkpt lat="43.96352702726794" lon="6.226826557432809"><ele>876.0</ele><time>2026-04-07T14:05:20Z</time></trkpt><trkpt lat="43.96358960047264" lon="6.226729606171012"><ele>876.0</ele><time>2026-04-07T14:05:21Z</time></trkpt><trkpt lat="43.963662610373895" lon="6.226614971966156"><ele>875.9999999999999</ele><time>2026-04-07T14:05:22Z</time></trkpt><trkpt lat="43.963723404274226" lon="6.22650867903003"><ele>875.9999999999999</ele><time>2026-04-07T14:05:23Z</time></trkpt><trkpt lat="43.96380186065515" lon="6.226440194545561"><ele>876.0</ele><time>2026-04-07T14:05:24Z</time></trkpt><trkpt lat="43.963893121693744" lon="6.226379630448713"><ele>876.0</ele><time>2026-04-07T14:05:25Z</time></trkpt><trkpt lat="43.9639973298525" lon="6.226336327592346"><ele>873.75</ele><time>2026-04-07T14:05:26Z</time></trkpt><trkpt lat="43.96411435267452" lon="6.22631999010687"><ele>871.5</ele><time>2026-04-07T14:05:27Z</time></trkpt><trkpt lat="43.96423990358821" lon="6.226295171443146"><ele>869.25</ele><time>2026-04-07T14:05:28.001Z</time></trkpt><trkpt lat="43.964373199928296" lon="6.226248239253798"><ele>867.0</ele><time>2026-04-07T14:05:29.001Z</time></trkpt><trkpt lat="43.964502599166345" lon="6.226189631421046"><ele>867.0</ele><time>2026-04-07T14:05:30.001Z</time></trkpt><trkpt lat="43.964628366942165" lon="6.226133651638113"><ele>867.0</ele><time>2026-04-07T14:05:31.001Z</time></trkpt><trkpt lat="43.96473567371222" lon="6.2260962205483805"><ele>867.0</ele><time>2026-04-07T14:05:32.001Z</time></trkpt><trkpt lat="43.96482185994374" lon="6.226054483328922"><ele>867.0</ele><time>2026-04-07T14:05:33.001Z</time></trkpt><trkpt lat="43.96489740842805" lon="6.2260104942152585"><ele>867.0</ele><time>2026-04-07T14:05:34.001Z</time></trkpt><trkpt lat="43.96498154768168" lon="6.226028108553754"><ele>869.0</ele><time>2026-04-07T14:05:35.001Z</time></trkpt><trkpt lat="43.96506111974765" lon="6.226010545710263"><ele>871.0</ele><time>2026-04-07T14:05:36.001Z</time></trkpt><trkpt lat="43.965122623864424" lon="6.225958958594304"><ele>873.0</ele><time>2026-04-07T14:05:37.001Z</time></trkpt><trkpt lat="43.96520311260793" lon="6.2259337628263856"><ele>875.0</ele><time>2026-04-07T14:05:38.001Z</time></trkpt><trkpt lat="43.96529336702126" lon="6.225908284330267"><ele>877.0</ele><time>2026-04-07T14:05:39.001Z</time></trkpt><trkpt lat="43.96540130670171" lon="6.225895842710581"><ele>879.0</ele><time>2026-04-07T14:05:40.001Z</time></trkpt><trkpt lat="43.96552032063578" lon="6.225884667421752"><ele>879.0</ele><time>2026-04-07T14:05:41.001Z</time></trkpt><trkpt lat="43.96563441001461" lon="6.225861091891819"><ele>879.0000000000001</ele><time>2026-04-07T14:05:42.001Z</time></trkpt><trkpt lat="43.96574065937092" lon="6.2258187634390065"><ele>879.0000000000001</ele><time>2026-04-07T14:05:43.001Z</time></trkpt><trkpt lat="43.96582938883165" lon="6.225770090601611"><ele>879.0</ele><time>2026-04-07T14:05:44.001Z</time></trkpt><trkpt lat="43.965929767873774" lon="6.225700343797872"><ele>879.0</ele><time>2026-04-07T14:05:46.001Z</time></trkpt><trkpt lat="43.96593974765132" lon="6.225559688762046"><ele>879.0</ele><time>2026-04-07T14:05:47.001Z</time></trkpt><trkpt lat="43.96580860877633" lon="6.22545032537745"><ele>879.0</ele><time>2026-04-07T14:05:48.001Z</time></trkpt><trkpt lat="43.96575020315145" lon="6.22532066176445"><ele>879.0</ele><time>2026-04-07T14:05:49.001Z</time></trkpt><trkpt lat="43.96567951479374" lon="6.2251661279738215"><ele>879.0</ele><time>2026-04-07T14:05:50.001Z</time></trkpt><trkpt lat="43.96559167007077" lon="6.225049211844206"><ele>879.0</ele><time>2026-04-07T14:05:51.001Z</time></trkpt><trkpt lat="43.96554300408417" lon="6.224913849273737"><ele>879.0000000000001</ele><time>2026-04-07T14:05:52.001Z</time></trkpt><trkpt lat="43.96551177812455" lon="6.224797553282755"><ele>879.0000000000001</ele><time>2026-04-07T14:05:53.001Z</time></trkpt><trkpt lat="43.96550262307276" lon="6.224648624440025"><ele>879.0</ele><time>2026-04-07T14:05:54.001Z</time></trkpt><trkpt lat="43.96548213340679" lon="6.224491348630709"><ele>879.0</ele><time>2026-04-07T14:05:55.001Z</time></trkpt><trkpt lat="43.96544884149888" lon="6.224337707283279"><ele>879.2</ele><time>2026-04-07T14:05:56.001Z</time></trkpt><trkpt lat="43.96546017375537" lon="6.2241835549065945"><ele>879.4000000000001</ele><time>2026-04-07T14:05:57.001Z</time></trkpt><trkpt lat="43.965467425369994" lon="6.224037384446337"><ele>879.6</ele><time>2026-04-07T14:05:58.001Z</time></trkpt><trkpt lat="43.96548675298751" lon="6.223896635165313"><ele>879.8</ele><time>2026-04-07T14:05:59.001Z</time></trkpt><trkpt lat="43.9655300735779" lon="6.223786690617921"><ele>880.0</ele><time>2026-04-07T14:06:00.001Z</time></trkpt><trkpt lat="43.965564990297224" lon="6.2236675499914105"><ele>880.0</ele><time>2026-04-07T14:06:01.001Z</time></trkpt><trkpt lat="43.96561658010616" lon="6.223536088016327"><ele>880.0</ele><time>2026-04-07T14:06:02.001Z</time></trkpt><trkpt lat="43.96561882658897" lon="6.223376782165462"><ele>880.0</ele><time>2026-04-07T14:06:03.001Z</time></trkpt><trkpt lat="43.9655929619671" lon="6.22320818548553"><ele>880.0</ele><time>2026-04-07T14:06:04.001Z</time></trkpt><trkpt lat="43.96559473522695" lon="6.223029036850936"><ele>879.6</ele><time>2026-04-07T14:06:05.001Z</time></trkpt><trkpt lat="43.965587195645625" lon="6.222868452661259"><ele>879.2</ele><time>2026-04-07T14:06:06.001Z</time></trkpt><trkpt lat="43.965581990970016" lon="6.222709969070467"><ele>878.8</ele><time>2026-04-07T14:06:07.001Z</time></trkpt><trkpt lat="43.965564156433764" lon="6.222559173842592"><ele>878.4</ele><time>2026-04-07T14:06:08.001Z</time></trkpt><trkpt lat="43.965592040618326" lon="6.222413258574417"><ele>878.0</ele><time>2026-04-07T14:06:09.001Z</time></trkpt><trkpt lat="43.96561793519685" lon="6.22227549717796"><ele>877.0</ele><time>2026-04-07T14:06:10.001Z</time></trkpt><trkpt lat="43.965658908976195" lon="6.22213650252455"><ele>876.0</ele><time>2026-04-07T14:06:11.001Z</time></trkpt><trkpt lat="43.96569606381789" lon="6.221983342642537"><ele>875.0</ele><time>2026-04-07T14:06:12.001Z</time></trkpt><trkpt lat="43.965703265160954" lon="6.221817974658713"><ele>874.0</ele><time>2026-04-07T14:06:13.001Z</time></trkpt><trkpt lat="43.96572076647032" lon="6.221646159888044"><ele>873.25</ele><time>2026-04-07T14:06:14.001Z</time></trkpt><trkpt lat="43.96572102798949" lon="6.221464299786176"><ele>872.5</ele><time>2026-04-07T14:06:15.001Z</time></trkpt><trkpt lat="43.96573590271819" lon="6.221292481777208"><ele>871.75</ele><time>2026-04-07T14:06:16.001Z</time></trkpt><trkpt lat="43.96574003142395" lon="6.221119156614664"><ele>871.0</ele><time>2026-04-07T14:06:17.001Z</time></trkpt><trkpt lat="43.96572726216117" lon="6.220972712868569"><ele>870.9999999999999</ele><time>2026-04-07T14:06:18.001Z</time></trkpt><trkpt lat="43.96573258234906" lon="6.220832856358186"><ele>871.0</ele><time>2026-04-07T14:06:19.001Z</time></trkpt><trkpt lat="43.96573792510583" lon="6.22069878361832"><ele>871.0</ele><time>2026-04-07T14:06:20.001Z</time></trkpt><trkpt lat="43.96574133500592" lon="6.220573491958082"><ele>871.0</ele><time>2026-04-07T14:06:21.001Z</time></trkpt><trkpt lat="43.96576334200498" lon="6.220459711844507"><ele>870.9999999999999</ele><time>2026-04-07T14:06:22.001Z</time></trkpt><trkpt lat="43.9657739117897" lon="6.2203690498061714"><ele>871.0</ele><time>2026-04-07T14:06:23.001Z</time></trkpt><trkpt lat="43.9658038500469" lon="6.220221448778235"><ele>868.5</ele><time>2026-04-07T14:06:25.001Z</time></trkpt><trkpt lat="43.96586849113906" lon="6.220163050900482"><ele>866.0</ele><time>2026-04-07T14:06:27.001Z</time></trkpt><trkpt lat="43.96599311672787" lon="6.220406960939403"><ele>863.5</ele><time>2026-04-07T14:06:32.001Z</time></trkpt><trkpt lat="43.96608623009158" lon="6.220453996425534"><ele>861.0</ele><time>2026-04-07T14:06:34.001Z</time></trkpt><trkpt lat="43.966181714232206" lon="6.220440517288258"><ele>861.0</ele><time>2026-04-07T14:06:36.001Z</time></trkpt><trkpt lat="43.966262703418494" lon="6.22048313855961"><ele>861.0</ele><time>2026-04-07T14:06:38.001Z</time></trkpt><trkpt lat="43.96631880660249" lon="6.220605161330363"><ele>861.0</ele><time>2026-04-07T14:06:40.001Z</time></trkpt><trkpt lat="43.96634793283964" lon="6.220687248162856"><ele>861.0</ele><time>2026-04-07T14:06:41.001Z</time></trkpt><trkpt lat="43.966389921699815" lon="6.220763296358516"><ele>861.0</ele><time>2026-04-07T14:06:42.001Z</time></trkpt><trkpt lat="43.96642763112084" lon="6.220852857143348"><ele>861.0</ele><time>2026-04-07T14:06:43.001Z</time></trkpt><trkpt lat="43.96650914976948" lon="6.220996136358205"><ele>862.3333333333334</ele><time>2026-04-07T14:06:45.001Z</time></trkpt><trkpt lat="43.966559138619004" lon="6.221056587107369"><ele>863.6666666666667</ele><time>2026-04-07T14:06:46.001Z</time></trkpt><trkpt lat="43.96661051571906" lon="6.221115330442103"><ele>865.0</ele><time>2026-04-07T14:06:47.001Z</time></trkpt><trkpt lat="43.96666323721595" lon="6.221168823687761"><ele>866.3333333333334</ele><time>2026-04-07T14:06:48.001Z</time></trkpt><trkpt lat="43.9667849600806" lon="6.221256441261248"><ele>867.6666666666667</ele><time>2026-04-07T14:06:50.001Z</time></trkpt><trkpt lat="43.9668434156313" lon="6.221300585064501"><ele>869.0</ele><time>2026-04-07T14:06:51.001Z</time></trkpt><trkpt lat="43.96691156308324" lon="6.221347406969546"><ele>869.0</ele><time>2026-04-07T14:06:52.001Z</time></trkpt><trkpt lat="43.96697955734087" lon="6.2213897389944846"><ele>869.0</ele><time>2026-04-07T14:06:53.001Z</time></trkpt><trkpt lat="43.967050480468096" lon="6.22140992513703"><ele>869.0</ele><time>2026-04-07T14:06:54.001Z</time></trkpt><trkpt lat="43.96712287988392" lon="6.221439596766591"><ele>869.0</ele><time>2026-04-07T14:06:55.001Z</time></trkpt><trkpt lat="43.96718238841388" lon="6.221481785931588"><ele>869.0</ele><time>2026-04-07T14:06:56.001Z</time></trkpt><trkpt lat="43.967242891313205" lon="6.221545342840075"><ele>869.0</ele><time>2026-04-07T14:06:57.001Z</time></trkpt><trkpt lat="43.967293431002524" lon="6.221605551120405"><ele>869.0</ele><time>2026-04-07T14:06:58.001Z</time></trkpt><trkpt lat="43.96735309027649" lon="6.221702835373692"><ele>871.8333333333334</ele><time>2026-04-07T14:07:00.001Z</time></trkpt><trkpt lat="43.96737125178239" lon="6.221848728010715"><ele>874.6666666666667</ele><time>2026-04-07T14:07:02.001Z</time></trkpt><trkpt lat="43.96734964940879" lon="6.221986689851483"><ele>877.5</ele><time>2026-04-07T14:07:04.001Z</time></trkpt><trkpt lat="43.96733814015415" lon="6.222083585796836"><ele>880.3333333333333</ele><time>2026-04-07T14:07:05.001Z</time></trkpt><trkpt lat="43.967334197706315" lon="6.222188232943848"><ele>883.1666666666666</ele><time>2026-04-07T14:07:06.001Z</time></trkpt><trkpt lat="43.96732590433977" lon="6.222284659505289"><ele>886.0</ele><time>2026-04-07T14:07:07.001Z</time></trkpt><trkpt lat="43.96733881063942" lon="6.222390762250138"><ele>887.8333333333333</ele><time>2026-04-07T14:07:08.001Z</time></trkpt><trkpt lat="43.967339686487904" lon="6.222492249753044"><ele>889.6666666666666</ele><time>2026-04-07T14:07:09.001Z</time></trkpt><trkpt lat="43.96735573771567" lon="6.222606729761304"><ele>891.5</ele><time>2026-04-07T14:07:10.001Z</time></trkpt><trkpt lat="43.96736662338542" lon="6.222699746548663"><ele>893.3333333333333</ele><time>2026-04-07T14:07:11.001Z</time></trkpt><trkpt lat="43.96738978148765" lon="6.222795833249389"><ele>895.1666666666666</ele><time>2026-04-07T14:07:12.001Z</time></trkpt><trkpt lat="43.96741764273793" lon="6.222882839583566"><ele>897.0</ele><time>2026-04-07T14:07:13.001Z</time></trkpt><trkpt lat="43.9674451598424" lon="6.223029694367766"><ele>899.3333333333334</ele><time>2026-04-07T14:07:15.001Z</time></trkpt><trkpt lat="43.96741663962126" lon="6.223189857410378"><ele>901.6666666666667</ele><time>2026-04-07T14:07:17.001Z</time></trkpt><trkpt lat="43.967391276888904" lon="6.223297222457588"><ele>904.0</ele><time>2026-04-07T14:07:18.001Z</time></trkpt><trkpt lat="43.96735570740979" lon="6.223398869707528"><ele>906.3333333333334</ele><time>2026-04-07T14:07:19.001Z</time></trkpt><trkpt lat="43.96732868593975" lon="6.223490586939233"><ele>908.6666666666667</ele><time>2026-04-07T14:07:20.001Z</time></trkpt><trkpt lat="43.96731247696238" lon="6.223582592413136"><ele>911.0</ele><time>2026-04-07T14:07:21.001Z</time></trkpt><trkpt lat="43.96730522656336" lon="6.223670331994431"><ele>911.0</ele><time>2026-04-07T14:07:22.001Z</time></trkpt><trkpt lat="43.96732774315687" lon="6.2238266347086935"><ele>910.9999999999999</ele><time>2026-04-07T14:07:24.001Z</time></trkpt><trkpt lat="43.967424267722734" lon="6.2239092497402355"><ele>910.9999999999999</ele><time>2026-04-07T14:07:26.001Z</time></trkpt><trkpt lat="43.967493977484445" lon="6.223921596559499"><ele>911.0</ele><time>2026-04-07T14:07:27.001Z</time></trkpt><trkpt lat="43.967611320559065" lon="6.223920330545603"><ele>911.0</ele><time>2026-04-07T14:07:29.001Z</time></trkpt><trkpt lat="43.96770445244682" lon="6.223977881219938"><ele>911.3333333333334</ele><time>2026-04-07T14:07:31.001Z</time></trkpt><trkpt lat="43.96777127364256" lon="6.224021356565636"><ele>911.6666666666667</ele><time>2026-04-07T14:07:32.001Z</time></trkpt><trkpt lat="43.96786479448875" lon="6.224077416016108"><ele>912.0</ele><time>2026-04-07T14:07:34.001Z</time></trkpt><trkpt lat="43.96790161858098" lon="6.224172604483448"><ele>912.3333333333333</ele><time>2026-04-07T14:07:36.001Z</time></trkpt><trkpt lat="43.967922759443454" lon="6.224323786699479"><ele>912.6666666666666</ele><time>2026-04-07T14:07:38.001Z</time></trkpt><trkpt lat="43.96793995255649" lon="6.22442250388746"><ele>913.0</ele><time>2026-04-07T14:07:39.001Z</time></trkpt><trkpt lat="43.96795696253643" lon="6.224518051689832"><ele>912.9999999999999</ele><time>2026-04-07T14:07:40.001Z</time></trkpt><trkpt lat="43.96797031006123" lon="6.224616233860764"><ele>913.0</ele><time>2026-04-07T14:07:41.001Z</time></trkpt><trkpt lat="43.96797843872216" lon="6.224705930868534"><ele>912.9999999999999</ele><time>2026-04-07T14:07:42.001Z</time></trkpt><trkpt lat="43.96800443473059" lon="6.224798696936263"><ele>912.9999999999999</ele><time>2026-04-07T14:07:43.001Z</time></trkpt><trkpt lat="43.96801258991201" lon="6.224896330941877"><ele>913.0</ele><time>2026-04-07T14:07:44.001Z</time></trkpt><trkpt lat="43.968036933978894" lon="6.224996483216108"><ele>912.9999999999999</ele><time>2026-04-07T14:07:45.001Z</time></trkpt><trkpt lat="43.9680572158537" lon="6.22508831517143"><ele>912.9999999999999</ele><time>2026-04-07T14:07:46.001Z</time></trkpt><trkpt lat="43.96807644553891" lon="6.225181572746589"><ele>915.142857142857</ele><time>2026-04-07T14:07:47.001Z</time></trkpt><trkpt lat="43.968095342848976" lon="6.225288488935944"><ele>917.2857142857142</ele><time>2026-04-07T14:07:48.001Z</time></trkpt><trkpt lat="43.968103256551075" lon="6.225393136157095"><ele>919.4285714285714</ele><time>2026-04-07T14:07:49.001Z</time></trkpt><trkpt lat="43.9681206660702" lon="6.225495783867396"><ele>921.5714285714286</ele><time>2026-04-07T14:07:50.001Z</time></trkpt><trkpt lat="43.968141077933396" lon="6.225579815382394"><ele>923.7142857142858</ele><time>2026-04-07T14:07:51.001Z</time></trkpt><trkpt lat="43.968145548818256" lon="6.225682781759846"><ele>925.857142857143</ele><time>2026-04-07T14:07:52.001Z</time></trkpt><trkpt lat="43.96814736855043" lon="6.225784200048295"><ele>928.0000000000001</ele><time>2026-04-07T14:07:53.001Z</time></trkpt><trkpt lat="43.96815531030226" lon="6.225887037510818"><ele>929.1666666666666</ele><time>2026-04-07T14:07:54.001Z</time></trkpt><trkpt lat="43.96815559789743" lon="6.225990542459252"><ele>930.3333333333333</ele><time>2026-04-07T14:07:55.001Z</time></trkpt><trkpt lat="43.96814996517323" lon="6.226085939797851"><ele>931.5</ele><time>2026-04-07T14:07:56.001Z</time></trkpt><trkpt lat="43.968140497201254" lon="6.2261806153839805"><ele>932.6666666666667</ele><time>2026-04-07T14:07:57.001Z</time></trkpt><trkpt lat="43.96814055139002" lon="6.226277217938765"><ele>933.8333333333334</ele><time>2026-04-07T14:07:58.001Z</time></trkpt><trkpt lat="43.968133200723564" lon="6.22642826046682"><ele>935.0</ele><time>2026-04-07T14:08:00.001Z</time></trkpt><trkpt lat="43.968124788553745" lon="6.226529526082995"><ele>935.8</ele><time>2026-04-07T14:08:02.001Z</time></trkpt><trkpt lat="43.96813430185934" lon="6.226669001265879"><ele>936.6</ele><time>2026-04-07T14:09:07.001Z</time></trkpt><trkpt lat="43.968138707293754" lon="6.2268126964868955"><ele>937.4000000000001</ele><time>2026-04-07T14:09:09.001Z</time></trkpt><trkpt lat="43.968063294897775" lon="6.226958626202238"><ele>938.2</ele><time>2026-04-07T14:09:11.001Z</time></trkpt><trkpt lat="43.96805239543797" lon="6.227048874002878"><ele>939.0</ele><time>2026-04-07T14:09:12.001Z</time></trkpt><trkpt lat="43.968025776473105" lon="6.227130075428512"><ele>939.0</ele><time>2026-04-07T14:09:13.001Z</time></trkpt><trkpt lat="43.96799737487243" lon="6.227223217349654"><ele>939.0</ele><time>2026-04-07T14:09:14.001Z</time></trkpt><trkpt lat="43.96795646927152" lon="6.2273282020205425"><ele>939.0</ele><time>2026-04-07T14:09:15.001Z</time></trkpt><trkpt lat="43.96791809220936" lon="6.227424969531967"><ele>939.0</ele><time>2026-04-07T14:09:16.001Z</time></trkpt><trkpt lat="43.96788408859576" lon="6.227506415721466"><ele>939.0</ele><time>2026-04-07T14:09:17.001Z</time></trkpt><trkpt lat="43.967855042608754" lon="6.22759809121916"><ele>939.0</ele><time>2026-04-07T14:09:18.001Z</time></trkpt><trkpt lat="43.96781600691686" lon="6.227674206749137"><ele>939.0</ele><time>2026-04-07T14:09:19.001Z</time></trkpt><trkpt lat="43.9677714180671" lon="6.227745472288506"><ele>938.6666666666666</ele><time>2026-04-07T14:09:20.001Z</time></trkpt><trkpt lat="43.967729180575965" lon="6.227814882782502"><ele>938.3333333333333</ele><time>2026-04-07T14:09:21.001Z</time></trkpt><trkpt lat="43.967647515549835" lon="6.227929025472703"><ele>938.0</ele><time>2026-04-07T14:09:23.001Z</time></trkpt><trkpt lat="43.967580187219255" lon="6.2279691824277545"><ele>937.6666666666666</ele><time>2026-04-07T14:09:24.001Z</time></trkpt><trkpt lat="43.967503719709036" lon="6.2279962204154184"><ele>937.3333333333333</ele><time>2026-04-07T14:09:25.001Z</time></trkpt><trkpt lat="43.967430977723005" lon="6.228008156491011"><ele>937.0</ele><time>2026-04-07T14:09:26.001Z</time></trkpt><trkpt lat="43.967356048209716" lon="6.228029666665114"><ele>936.9999999999999</ele><time>2026-04-07T14:09:27.001Z</time></trkpt><trkpt lat="43.967284727872276" lon="6.228052660697466"><ele>937.0</ele><time>2026-04-07T14:09:28.001Z</time></trkpt><trkpt lat="43.96721677573328" lon="6.228083525589643"><ele>937.0</ele><time>2026-04-07T14:09:29.001Z</time></trkpt><trkpt lat="43.96710825799938" lon="6.228168870821349"><ele>937.0</ele><time>2026-04-07T14:09:31.001Z</time></trkpt><trkpt lat="43.96706737016274" lon="6.2282386721894145"><ele>936.9999999999999</ele><time>2026-04-07T14:09:32.001Z</time></trkpt><trkpt lat="43.96703950293972" lon="6.228369335601284"><ele>937.0</ele><time>2026-04-07T14:09:34.001Z</time></trkpt><trkpt lat="43.96688322197402" lon="6.228396420452792"><ele>938.7142857142857</ele><time>2026-04-07T14:09:36.001Z</time></trkpt><trkpt lat="43.966818753897556" lon="6.228385934544225"><ele>940.4285714285716</ele><time>2026-04-07T14:09:37.001Z</time></trkpt><trkpt lat="43.96673607236973" lon="6.2284004660882"><ele>942.1428571428572</ele><time>2026-04-07T14:09:38.001Z</time></trkpt><trkpt lat="43.96666528506601" lon="6.228413994229932"><ele>943.8571428571429</ele><time>2026-04-07T14:09:39.001Z</time></trkpt><trkpt lat="43.966597246230336" lon="6.228449997998152"><ele>945.5714285714287</ele><time>2026-04-07T14:09:40.001Z</time></trkpt><trkpt lat="43.96654084197778" lon="6.228489402765937"><ele>947.2857142857144</ele><time>2026-04-07T14:09:41.001Z</time></trkpt><trkpt lat="43.966480242683396" lon="6.228532279614369"><ele>949.0000000000001</ele><time>2026-04-07T14:09:42.001Z</time></trkpt><trkpt lat="43.966425644670416" lon="6.228589318990114"><ele>948.9999999999999</ele><time>2026-04-07T14:09:43.001Z</time></trkpt><trkpt lat="43.96634729115985" lon="6.228702287714415"><ele>949.0</ele><time>2026-04-07T14:09:45.001Z</time></trkpt><trkpt lat="43.966289084870596" lon="6.228754278728276"><ele>949.0</ele><time>2026-04-07T14:09:46.001Z</time></trkpt><trkpt lat="43.96622893502215" lon="6.2288123807108"><ele>949.0</ele><time>2026-04-07T14:09:47.001Z</time></trkpt><trkpt lat="43.96616129349948" lon="6.228856334628681"><ele>948.9999999999999</ele><time>2026-04-07T14:09:48.001Z</time></trkpt><trkpt lat="43.96610720239006" lon="6.228905068163732"><ele>949.0</ele><time>2026-04-07T14:09:49.001Z</time></trkpt><trkpt lat="43.96600809855593" lon="6.229001197058049"><ele>951.4999999999999</ele><time>2026-04-07T14:09:51.001Z</time></trkpt><trkpt lat="43.965955592569685" lon="6.229080488482767"><ele>954.0</ele><time>2026-04-07T14:09:52.001Z</time></trkpt><trkpt lat="43.96590220646796" lon="6.229173945557604"><ele>956.5</ele><time>2026-04-07T14:09:53.001Z</time></trkpt><trkpt lat="43.96584410593156" lon="6.229273529555803"><ele>959.0</ele><time>2026-04-07T14:09:54.001Z</time></trkpt><trkpt lat="43.96577882229463" lon="6.22936789852734"><ele>961.4999999999999</ele><time>2026-04-07T14:09:55.001Z</time></trkpt><trkpt lat="43.96570822363891" lon="6.229459755958645"><ele>964.0</ele><time>2026-04-07T14:09:56.001Z</time></trkpt><trkpt lat="43.9656382002876" lon="6.229543408630955"><ele>963.9999999999999</ele><time>2026-04-07T14:09:57.001Z</time></trkpt><trkpt lat="43.96557031729243" lon="6.229619268995303"><ele>964.0</ele><time>2026-04-07T14:09:58.001Z</time></trkpt><trkpt lat="43.965507124128415" lon="6.229689021540213"><ele>964.0</ele><time>2026-04-07T14:09:59.001Z</time></trkpt><trkpt lat="43.96545207827117" lon="6.229755692799839"><ele>964.0</ele><time>2026-04-07T14:10:00.001Z</time></trkpt><trkpt lat="43.96538453201908" lon="6.229828438487846"><ele>963.9999999999999</ele><time>2026-04-07T14:10:01.001Z</time></trkpt><trkpt lat="43.96532861603695" lon="6.229899119626591"><ele>964.0</ele><time>2026-04-07T14:10:02.001Z</time></trkpt><trkpt lat="43.965282480196386" lon="6.229982115319613"><ele>963.8333333333333</ele><time>2026-04-07T14:10:03.001Z</time></trkpt><trkpt lat="43.96523216209405" lon="6.230069178698635"><ele>963.6666666666666</ele><time>2026-04-07T14:10:04.001Z</time></trkpt><trkpt lat="43.9651795036893" lon="6.230162341942321"><ele>963.5</ele><time>2026-04-07T14:10:05.001Z</time></trkpt><trkpt lat="43.96511625058701" lon="6.230253120378487"><ele>963.3333333333333</ele><time>2026-04-07T14:10:06.001Z</time></trkpt><trkpt lat="43.96505800140506" lon="6.2303478023708045"><ele>963.1666666666666</ele><time>2026-04-07T14:10:07.001Z</time></trkpt><trkpt lat="43.96501460470717" lon="6.230439481673754"><ele>963.0</ele><time>2026-04-07T14:10:08.001Z</time></trkpt><trkpt lat="43.965005064458666" lon="6.230527741565044"><ele>971.0</ele><time>2026-04-07T14:10:09.001Z</time></trkpt><trkpt lat="43.96503695281222" lon="6.230691966971562"><ele>979.0</ele><time>2026-04-07T14:10:11.001Z</time></trkpt><trkpt lat="43.965049071577546" lon="6.230789208941022"><ele>987.0</ele><time>2026-04-07T14:10:12.001Z</time></trkpt><trkpt lat="43.96506249903648" lon="6.2309207930136346"><ele>995.0</ele><time>2026-04-07T14:10:13.001Z</time></trkpt><trkpt lat="43.96507629241326" lon="6.231036732915041"><ele>1003.0</ele><time>2026-04-07T14:10:14.001Z</time></trkpt><trkpt lat="43.96509434173952" lon="6.231154963627843"><ele>1002.9999999999999</ele><time>2026-04-07T14:10:15.001Z</time></trkpt><trkpt lat="43.965118880803814" lon="6.231258217370724"><ele>1003.0</ele><time>2026-04-07T14:10:16.001Z</time></trkpt><trkpt lat="43.96514450286267" lon="6.231357818666022"><ele>1003.0</ele><time>2026-04-07T14:10:17.001Z</time></trkpt><trkpt lat="43.96515601110515" lon="6.231458811081275"><ele>1003.0</ele><time>2026-04-07T14:10:18.001Z</time></trkpt><trkpt lat="43.96509877170373" lon="6.231598889081656"><ele>1002.9999999999999</ele><time>2026-04-07T14:10:20.001Z</time></trkpt><trkpt lat="43.96504356412119" lon="6.231674935402056"><ele>1003.0</ele><time>2026-04-07T14:10:21.001Z</time></trkpt><trkpt lat="43.96495974052337" lon="6.231750560283063"><ele>1002.1666666666666</ele><time>2026-04-07T14:10:22.001Z</time></trkpt><trkpt lat="43.964886699632665" lon="6.231832622663554"><ele>1001.3333333333333</ele><time>2026-04-07T14:10:23.001Z</time></trkpt><trkpt lat="43.96483139699247" lon="6.231912474513953"><ele>1000.5</ele><time>2026-04-07T14:10:24.001Z</time></trkpt><trkpt lat="43.96477251455956" lon="6.231993408637447"><ele>999.6666666666667</ele><time>2026-04-07T14:10:25.001Z</time></trkpt><trkpt lat="43.964704222103414" lon="6.232087407883998"><ele>998.8333333333334</ele><time>2026-04-07T14:10:26.001Z</time></trkpt><trkpt lat="43.96463189606445" lon="6.232163694311556"><ele>998.0</ele><time>2026-04-07T14:10:27.001Z</time></trkpt><trkpt lat="43.964576351061766" lon="6.232214405940792"><ele>998.0000000000001</ele><time>2026-04-07T14:10:28.001Z</time></trkpt><trkpt lat="43.964512015301224" lon="6.232246934372589"><ele>998.0</ele><time>2026-04-07T14:10:31.001Z</time></trkpt><trkpt lat="43.96445823234767" lon="6.232295620314174"><ele>998.0000000000001</ele><time>2026-04-07T14:10:36.001Z</time></trkpt><trkpt lat="43.96439282755415" lon="6.232327010266101"><ele>998.0000000000001</ele><time>2026-04-07T14:10:42.001Z</time></trkpt><trkpt lat="43.96434865637981" lon="6.2324160623029226"><ele>998.0</ele><time>2026-04-07T14:10:45.001Z</time></trkpt><trkpt lat="43.96432317715662" lon="6.232499919342028"><ele>998.0000000000001</ele><time>2026-04-07T14:10:48.001Z</time></trkpt><trkpt lat="43.96426656797975" lon="6.2325475448543655"><ele>998.0000000000001</ele><time>2026-04-07T14:10:52.001Z</time></trkpt><trkpt lat="43.964197627977434" lon="6.232523847003579"><ele>999.8</ele><time>2026-04-07T14:10:54.001Z</time></trkpt><trkpt lat="43.96411195515296" lon="6.23247620788134"><ele>1001.5999999999999</ele><time>2026-04-07T14:10:57.001Z</time></trkpt><trkpt lat="43.964017478585056" lon="6.232425660205384"><ele>1003.4000000000001</ele><time>2026-04-07T14:10:59.001Z</time></trkpt><trkpt lat="43.9639134015779" lon="6.2324092888054405"><ele>1005.2</ele><time>2026-04-07T14:11:01.001Z</time></trkpt><trkpt lat="43.96378969551838" lon="6.232430013331494"><ele>1007.0</ele><time>2026-04-07T14:11:03.001Z</time></trkpt><trkpt lat="43.96369747280767" lon="6.232445568773847"><ele>1007.0</ele><time>2026-04-07T14:11:05.001Z</time></trkpt><trkpt lat="43.96363484901515" lon="6.2324920710488145"><ele>1007.0</ele><time>2026-04-07T14:11:07.001Z</time></trkpt><trkpt lat="43.963571343066405" lon="6.232571329153883"><ele>1007.0</ele><time>2026-04-07T14:11:09.001Z</time></trkpt><trkpt lat="43.963609842952046" lon="6.232668875899147"><ele>1007.0</ele><time>2026-04-07T14:11:13.001Z</time></trkpt><trkpt lat="43.96372463435899" lon="6.2327057624135875"><ele>1007.0</ele><time>2026-04-07T14:11:15.001Z</time></trkpt><trkpt lat="43.96385626209563" lon="6.232737237970716"><ele>1007.0000000000001</ele><time>2026-04-07T14:11:17.001Z</time></trkpt><trkpt lat="43.96393450155857" lon="6.232752447602898"><ele>1007.0</ele><time>2026-04-07T14:11:18.001Z</time></trkpt><trkpt lat="43.964010435538064" lon="6.232768437150932"><ele>1007.0</ele><time>2026-04-07T14:11:19.001Z</time></trkpt><trkpt lat="43.964082443460235" lon="6.232781664595245"><ele>1007.0</ele><time>2026-04-07T14:11:20.001Z</time></trkpt><trkpt lat="43.96420142504096" lon="6.232830179572889"><ele>1007.0000000000001</ele><time>2026-04-07T14:11:22.001Z</time></trkpt><trkpt lat="43.96426406924051" lon="6.232869633846591"><ele>1007.0</ele><time>2026-04-07T14:11:23.001Z</time></trkpt><trkpt lat="43.964322131513256" lon="6.2329089743826405"><ele>1010.6</ele><time>2026-04-07T14:11:24.001Z</time></trkpt><trkpt lat="43.9643887620049" lon="6.232941971157906"><ele>1014.2</ele><time>2026-04-07T14:11:25.001Z</time></trkpt><trkpt lat="43.964489843188595" lon="6.233011987402078"><ele>1017.8</ele><time>2026-04-07T14:11:27.001Z</time></trkpt><trkpt lat="43.9645863948393" lon="6.2329465363081225"><ele>1021.4</ele><time>2026-04-07T14:11:30.001Z</time></trkpt><trkpt lat="43.96463456860625" lon="6.23282222805342"><ele>1025.0</ele><time>2026-04-07T14:11:32.001Z</time></trkpt><trkpt lat="43.96472053149943" lon="6.232773599052425"><ele>1025.0</ele><time>2026-04-07T14:11:35.001Z</time></trkpt><trkpt lat="43.96479364566748" lon="6.2327034941674375"><ele>1025.0</ele><time>2026-04-07T14:11:37.001Z</time></trkpt><trkpt lat="43.964874123612226" lon="6.232713322300495"><ele>1025.0</ele><time>2026-04-07T14:11:40.001Z</time></trkpt><trkpt lat="43.96490426519035" lon="6.232831247621832"><ele>1025.0</ele><time>2026-04-07T14:11:43.001Z</time></trkpt><trkpt lat="43.964874287121766" lon="6.232987380602222"><ele>1025.0</ele><time>2026-04-07T14:11:45.001Z</time></trkpt><trkpt lat="43.96485115338576" lon="6.233090708699052"><ele>1028.0</ele><time>2026-04-07T14:11:46.001Z</time></trkpt><trkpt lat="43.96484241012413" lon="6.233179724522701"><ele>1031.0</ele><time>2026-04-07T14:11:47.001Z</time></trkpt><trkpt lat="43.964839530959644" lon="6.233293540314779"><ele>1034.0</ele><time>2026-04-07T14:11:48.001Z</time></trkpt><trkpt lat="43.96483979145903" lon="6.233405407389666"><ele>1037.0</ele><time>2026-04-07T14:11:49.001Z</time></trkpt><trkpt lat="43.964820377965914" lon="6.23352345177898"><ele>1040.0</ele><time>2026-04-07T14:11:50.001Z</time></trkpt><trkpt lat="43.964801592016585" lon="6.233640068445008"><ele>1043.0</ele><time>2026-04-07T14:11:51.001Z</time></trkpt><trkpt lat="43.96477374881633" lon="6.2337565981771395"><ele>1043.0</ele><time>2026-04-07T14:11:52.001Z</time></trkpt><trkpt lat="43.96474158481871" lon="6.233857703219608"><ele>1043.0</ele><time>2026-04-07T14:11:53.001Z</time></trkpt><trkpt lat="43.96470524604628" lon="6.233943795165206"><ele>1043.0</ele><time>2026-04-07T14:11:54.001Z</time></trkpt><trkpt lat="43.96466510325151" lon="6.234017374175465"><ele>1043.0</ele><time>2026-04-07T14:11:56.001Z</time></trkpt><trkpt lat="43.96465750183333" lon="6.234104764985737"><ele>1043.0</ele><time>2026-04-07T14:11:59.001Z</time></trkpt><trkpt lat="43.96473433552804" lon="6.234141847084054"><ele>1043.0</ele><time>2026-04-07T14:12:01.001Z</time></trkpt><trkpt lat="43.96480479395792" lon="6.234127594447069"><ele>1043.0</ele><time>2026-04-07T14:12:02.001Z</time></trkpt><trkpt lat="43.964873124848594" lon="6.2340943107554"><ele>1045.5</ele><time>2026-04-07T14:12:03.001Z</time></trkpt><trkpt lat="43.96494595717273" lon="6.234064433969063"><ele>1048.0</ele><time>2026-04-07T14:12:04.001Z</time></trkpt><trkpt lat="43.96502988082301" lon="6.234027066373086"><ele>1050.5</ele><time>2026-04-07T14:12:05.001Z</time></trkpt><trkpt lat="43.965120340602574" lon="6.233967731919567"><ele>1053.0</ele><time>2026-04-07T14:12:06.001Z</time></trkpt><trkpt lat="43.965195042057644" lon="6.233894756412292"><ele>1055.5</ele><time>2026-04-07T14:12:07.001Z</time></trkpt><trkpt lat="43.96525350031373" lon="6.233796330367211"><ele>1058.0</ele><time>2026-04-07T14:12:08.001Z</time></trkpt><trkpt lat="43.965305228034254" lon="6.23369452393748"><ele>1059.6666666666667</ele><time>2026-04-07T14:12:09.001Z</time></trkpt><trkpt lat="43.96534223897968" lon="6.233597649075904"><ele>1061.3333333333335</ele><time>2026-04-07T14:12:10.001Z</time></trkpt><trkpt lat="43.965379727766305" lon="6.233499073731492"><ele>1063.0</ele><time>2026-04-07T14:12:11.001Z</time></trkpt><trkpt lat="43.96541050848644" lon="6.233408973790988"><ele>1064.6666666666667</ele><time>2026-04-07T14:12:12.001Z</time></trkpt><trkpt lat="43.96544185583074" lon="6.2333138981707625"><ele>1066.3333333333333</ele><time>2026-04-07T14:12:13.001Z</time></trkpt><trkpt lat="43.96546054725298" lon="6.233216296773483"><ele>1068.0</ele><time>2026-04-07T14:12:14.001Z</time></trkpt><trkpt lat="43.96550718934204" lon="6.233090526762177"><ele>1068.0</ele><time>2026-04-07T14:12:16.001Z</time></trkpt><trkpt lat="43.965587501585766" lon="6.233092686185603"><ele>1068.0</ele><time>2026-04-07T14:12:19.001Z</time></trkpt><trkpt lat="43.96560153262944" lon="6.233253216273038"><ele>1068.0</ele><time>2026-04-07T14:12:32.001Z</time></trkpt><trkpt lat="43.96561528880481" lon="6.233386552328669"><ele>1068.0</ele><time>2026-04-07T14:12:34.001Z</time></trkpt><trkpt lat="43.96561487576311" lon="6.233563024725858"><ele>1068.0</ele><time>2026-04-07T14:12:35.001Z</time></trkpt><trkpt lat="43.96562194832468" lon="6.233701339252201"><ele>1068.0</ele><time>2026-04-07T14:12:36.001Z</time></trkpt><trkpt lat="43.96561957644012" lon="6.233841018441412"><ele>1068.0</ele><time>2026-04-07T14:12:37.001Z</time></trkpt><trkpt lat="43.9656093280853" lon="6.2339588142856375"><ele>1068.0</ele><time>2026-04-07T14:12:38.001Z</time></trkpt><trkpt lat="43.9656317804663" lon="6.23405258929882"><ele>1068.0</ele><time>2026-04-07T14:12:40.001Z</time></trkpt><trkpt lat="43.96572662009877" lon="6.23403811440657"><ele>1068.0</ele><time>2026-04-07T14:12:42.001Z</time></trkpt><trkpt lat="43.96579212329462" lon="6.233890571325702"><ele>1068.0</ele><time>2026-04-07T14:12:44.001Z</time></trkpt><trkpt lat="43.965845283218464" lon="6.233804452512409"><ele>1068.0</ele><time>2026-04-07T14:12:45.001Z</time></trkpt><trkpt lat="43.96591584792293" lon="6.233723930781053"><ele>1068.0</ele><time>2026-04-07T14:12:46.001Z</time></trkpt><trkpt lat="43.96599662487835" lon="6.233666201088423"><ele>1068.0</ele><time>2026-04-07T14:12:47.001Z</time></trkpt><trkpt lat="43.96607947928445" lon="6.2336308437798325"><ele>1068.0</ele><time>2026-04-07T14:12:48.001Z</time></trkpt><trkpt lat="43.96617427762397" lon="6.23360596339843"><ele>1068.0</ele><time>2026-04-07T14:12:49.001Z</time></trkpt><trkpt lat="43.96626611348663" lon="6.2335830041468725"><ele>1069.8333333333333</ele><time>2026-04-07T14:12:50.001Z</time></trkpt><trkpt lat="43.96635576296277" lon="6.233560334124303"><ele>1071.6666666666667</ele><time>2026-04-07T14:12:51.001Z</time></trkpt><trkpt lat="43.966429192795395" lon="6.233546977571684"><ele>1073.5</ele><time>2026-04-07T14:12:52.001Z</time></trkpt><trkpt lat="43.96654473881151" lon="6.233521935086769"><ele>1075.3333333333335</ele><time>2026-04-07T14:12:54.001Z</time></trkpt><trkpt lat="43.96662463658417" lon="6.2335446354596336"><ele>1077.1666666666667</ele><time>2026-04-07T14:12:56.001Z</time></trkpt><trkpt lat="43.96661992144719" lon="6.233650472590555"><ele>1079.0</ele><time>2026-04-07T14:12:58.001Z</time></trkpt><trkpt lat="43.966553226039714" lon="6.233728210268122"><ele>1079.0</ele><time>2026-04-07T14:13:00.001Z</time></trkpt><trkpt lat="43.966417982923275" lon="6.233783764454605"><ele>1079.0</ele><time>2026-04-07T14:13:02.001Z</time></trkpt><trkpt lat="43.96633783725681" lon="6.233842176964826"><ele>1079.0</ele><time>2026-04-07T14:13:03.001Z</time></trkpt><trkpt lat="43.96627800623694" lon="6.233912504300775"><ele>1079.0</ele><time>2026-04-07T14:13:04.001Z</time></trkpt><trkpt lat="43.96622535573957" lon="6.233980966297072"><ele>1079.0</ele><time>2026-04-07T14:13:05.001Z</time></trkpt><trkpt lat="43.9661836379181" lon="6.234055186014448"><ele>1082.2</ele><time>2026-04-07T14:13:06.001Z</time></trkpt><trkpt lat="43.96613827427336" lon="6.234142386884028"><ele>1085.4</ele><time>2026-04-07T14:13:08.001Z</time></trkpt><trkpt lat="43.96611316740858" lon="6.234238414506346"><ele>1088.6</ele><time>2026-04-07T14:15:13.001Z</time></trkpt><trkpt lat="43.966097820420714" lon="6.234386903540193"><ele>1091.8</ele><time>2026-04-07T14:15:15Z</time></trkpt><trkpt lat="43.96608648589355" lon="6.234553395394972"><ele>1095.0</ele><time>2026-04-07T14:15:17Z</time></trkpt><trkpt lat="43.96607292579058" lon="6.234662259728332"><ele>1095.0</ele><time>2026-04-07T14:15:18Z</time></trkpt><trkpt lat="43.966050985209705" lon="6.234749213042811"><ele>1095.0</ele><time>2026-04-07T14:15:19Z</time></trkpt><trkpt lat="43.965990709112965" lon="6.234877727216112"><ele>1095.0</ele><time>2026-04-07T14:15:21Z</time></trkpt><trkpt lat="43.965883488280376" lon="6.234968669748123"><ele>1095.0</ele><time>2026-04-07T14:15:23Z</time></trkpt><trkpt lat="43.965826841873" lon="6.2350156847197935"><ele>1095.0</ele><time>2026-04-07T14:15:24Z</time></trkpt><trkpt lat="43.96577151790558" lon="6.235060086020665"><ele>1095.0</ele><time>2026-04-07T14:15:25Z</time></trkpt><trkpt lat="43.965651926036706" lon="6.235122262246591"><ele>1095.1666666666667</ele><time>2026-04-07T14:15:27Z</time></trkpt><trkpt lat="43.965568052001586" lon="6.235150303201071"><ele>1095.3333333333333</ele><time>2026-04-07T14:15:28Z</time></trkpt><trkpt lat="43.9654962746176" lon="6.2351685884403425"><ele>1095.5</ele><time>2026-04-07T14:15:29Z</time></trkpt><trkpt lat="43.96542905012105" lon="6.235196902631354"><ele>1095.6666666666665</ele><time>2026-04-07T14:15:30Z</time></trkpt><trkpt lat="43.96535884375612" lon="6.235234104247089"><ele>1095.8333333333333</ele><time>2026-04-07T14:15:31Z</time></trkpt><trkpt lat="43.965295491033594" lon="6.235260884583786"><ele>1096.0</ele><time>2026-04-07T14:15:32Z</time></trkpt><trkpt lat="43.965171934958704" lon="6.235322558995731"><ele>1096.0</ele><time>2026-04-07T14:15:34Z</time></trkpt><trkpt lat="43.96511139596112" lon="6.235360133542641"><ele>1096.0</ele><time>2026-04-07T14:15:35Z</time></trkpt><trkpt lat="43.96504438507448" lon="6.235418884811"><ele>1096.0</ele><time>2026-04-07T14:15:36Z</time></trkpt><trkpt lat="43.964990524043586" lon="6.23548096236966"><ele>1096.0</ele><time>2026-04-07T14:15:37Z</time></trkpt><trkpt lat="43.96489803303379" lon="6.235565260806175"><ele>1096.0</ele><time>2026-04-07T14:15:39Z</time></trkpt><trkpt lat="43.96480696825507" lon="6.235616904406114"><ele>1096.0</ele><time>2026-04-07T14:15:41Z</time></trkpt><trkpt lat="43.9646956691329" lon="6.235568949151889"><ele>1096.4285714285716</ele><time>2026-04-07T14:15:43Z</time></trkpt><trkpt lat="43.964627453791906" lon="6.235545426720883"><ele>1096.857142857143</ele><time>2026-04-07T14:15:44Z</time></trkpt><trkpt lat="43.964557334584875" lon="6.235545858893531"><ele>1097.2857142857142</ele><time>2026-04-07T14:15:45Z</time></trkpt><trkpt lat="43.9644763393166" lon="6.235569244697561"><ele>1097.7142857142858</ele><time>2026-04-07T14:15:46Z</time></trkpt><trkpt lat="43.96441098663013" lon="6.235587237308614"><ele>1098.142857142857</ele><time>2026-04-07T14:15:47Z</time></trkpt><trkpt lat="43.964342960056435" lon="6.235630754896484"><ele>1098.5714285714287</ele><time>2026-04-07T14:15:48Z</time></trkpt><trkpt lat="43.9642897640399" lon="6.235688521032548"><ele>1099.0</ele><time>2026-04-07T14:15:49Z</time></trkpt><trkpt lat="43.96422780701234" lon="6.235760934023411"><ele>1096.6666666666665</ele><time>2026-04-07T14:15:50Z</time></trkpt><trkpt lat="43.96417014821292" lon="6.235817788384999"><ele>1094.3333333333333</ele><time>2026-04-07T14:15:51Z</time></trkpt><trkpt lat="43.96410461752075" lon="6.235855646767573"><ele>1092.0</ele><time>2026-04-07T14:15:52Z</time></trkpt><trkpt lat="43.96398968963414" lon="6.235829561709947"><ele>1089.6666666666667</ele><time>2026-04-07T14:15:54Z</time></trkpt><trkpt lat="43.9639165572591" lon="6.235788486369808"><ele>1087.3333333333335</ele><time>2026-04-07T14:15:55Z</time></trkpt><trkpt lat="43.96384031595651" lon="6.235741486290379"><ele>1085.0</ele><time>2026-04-07T14:15:56Z</time></trkpt><trkpt lat="43.96376089799327" lon="6.235710880299919"><ele>1085.0</ele><time>2026-04-07T14:15:57Z</time></trkpt><trkpt lat="43.963687659520126" lon="6.235715530034502"><ele>1085.0</ele><time>2026-04-07T14:16:00Z</time></trkpt><trkpt lat="43.963598555165184" lon="6.235781340833526"><ele>1085.0</ele><time>2026-04-07T14:16:03Z</time></trkpt><trkpt lat="43.96353348508094" lon="6.235832328470318"><ele>1085.0</ele><time>2026-04-07T14:16:05Z</time></trkpt><trkpt lat="43.963474791633644" lon="6.235869536780017"><ele>1085.0</ele><time>2026-04-07T14:16:08Z</time></trkpt><trkpt lat="43.96339115556173" lon="6.235915953412792"><ele>1085.0</ele><time>2026-04-07T14:16:10Z</time></trkpt><trkpt lat="43.96332502410159" lon="6.23593493264787"><ele>1081.0</ele><time>2026-04-07T14:16:11Z</time></trkpt><trkpt lat="43.96322174216547" lon="6.235982894435594"><ele>1077.0</ele><time>2026-04-07T14:16:13Z</time></trkpt><trkpt lat="43.96313909635056" lon="6.236074225341057"><ele>1073.0</ele><time>2026-04-07T14:16:15Z</time></trkpt><trkpt lat="43.96305811592508" lon="6.236194258457764"><ele>1069.0</ele><time>2026-04-07T14:16:17Z</time></trkpt><trkpt lat="43.96296617624742" lon="6.236306253100727"><ele>1069.0</ele><time>2026-04-07T14:16:19Z</time></trkpt><trkpt lat="43.96291840713363" lon="6.236374562274318"><ele>1069.0</ele><time>2026-04-07T14:16:20Z</time></trkpt><trkpt lat="43.96286569319282" lon="6.236499611036483"><ele>1069.0</ele><time>2026-04-07T14:16:23Z</time></trkpt><trkpt lat="43.96279821488663" lon="6.236618583955529"><ele>1069.0</ele><time>2026-04-07T14:16:25Z</time></trkpt><trkpt lat="43.96269513637704" lon="6.236626386248296"><ele>1069.0</ele><time>2026-04-07T14:16:27Z</time></trkpt><trkpt lat="43.96264632274785" lon="6.236568162801461"><ele>1069.0</ele><time>2026-04-07T14:16:28Z</time></trkpt><trkpt lat="43.96256640962367" lon="6.236471253666017"><ele>1065.1666666666665</ele><time>2026-04-07T14:16:30Z</time></trkpt><trkpt lat="43.962515275985695" lon="6.236418283286346"><ele>1061.3333333333333</ele><time>2026-04-07T14:16:31Z</time></trkpt><trkpt lat="43.96246594003775" lon="6.236360973788002"><ele>1057.5</ele><time>2026-04-07T14:16:32Z</time></trkpt><trkpt lat="43.96237639787413" lon="6.236291682759451"><ele>1053.6666666666667</ele><time>2026-04-07T14:16:34Z</time></trkpt><trkpt lat="43.962296105256804" lon="6.236241273730121"><ele>1049.8333333333335</ele><time>2026-04-07T14:16:35Z</time></trkpt><trkpt lat="43.96222959676859" lon="6.23619893084125"><ele>1046.0</ele><time>2026-04-07T14:16:36Z</time></trkpt><trkpt lat="43.962165211289545" lon="6.236181085272255"><ele>1045.9999999999998</ele><time>2026-04-07T14:16:37Z</time></trkpt><trkpt lat="43.96206222430778" lon="6.236171542829728"><ele>1046.0</ele><time>2026-04-07T14:16:39Z</time></trkpt><trkpt lat="43.961990987141846" lon="6.236190372766379"><ele>1046.0</ele><time>2026-04-07T14:16:40Z</time></trkpt><trkpt lat="43.9619279475931" lon="6.236227255813528"><ele>1046.0</ele><time>2026-04-07T14:16:41Z</time></trkpt><trkpt lat="43.961869969353096" lon="6.236276784627902"><ele>1046.0</ele><time>2026-04-07T14:16:42Z</time></trkpt><trkpt lat="43.961810160978" lon="6.2363053788933165"><ele>1045.9999999999998</ele><time>2026-04-07T14:16:43Z</time></trkpt><trkpt lat="43.96174165112149" lon="6.236307053320997"><ele>1046.0</ele><time>2026-04-07T14:16:44Z</time></trkpt><trkpt lat="43.9616686957935" lon="6.236293579968156"><ele>1046.0</ele><time>2026-04-07T14:16:45Z</time></trkpt><trkpt lat="43.961594214857215" lon="6.236289476660365"><ele>1046.0</ele><time>2026-04-07T14:16:46Z</time></trkpt><trkpt lat="43.96149805297525" lon="6.236237723021198"><ele>1046.0</ele><time>2026-04-07T14:16:48Z</time></trkpt><trkpt lat="43.961452977309165" lon="6.2360862396718355"><ele>1046.0</ele><time>2026-04-07T14:16:50Z</time></trkpt><trkpt lat="43.961319428485425" lon="6.23596404808107"><ele>1046.0</ele><time>2026-04-07T14:16:53Z</time></trkpt><trkpt lat="43.961191722697066" lon="6.236012791796105"><ele>1046.0</ele><time>2026-04-07T14:16:55Z</time></trkpt><trkpt lat="43.96112031943494" lon="6.236049002081143"><ele>1046.0</ele><time>2026-04-07T14:16:56Z</time></trkpt><trkpt lat="43.96099106436753" lon="6.236128244151867"><ele>1046.0</ele><time>2026-04-07T14:16:58Z</time></trkpt><trkpt lat="43.960929944181785" lon="6.236155786089365"><ele>1046.0</ele><time>2026-04-07T14:16:59Z</time></trkpt><trkpt lat="43.960863035983394" lon="6.236165072396548"><ele>1044.3333333333335</ele><time>2026-04-07T14:17:00Z</time></trkpt><trkpt lat="43.96078494663582" lon="6.236154230322528"><ele>1042.6666666666667</ele><time>2026-04-07T14:17:01Z</time></trkpt><trkpt lat="43.960729287184826" lon="6.236072307068097"><ele>1041.0</ele><time>2026-04-07T14:17:03Z</time></trkpt><trkpt lat="43.96061153894552" lon="6.235992895297132"><ele>1039.3333333333333</ele><time>2026-04-07T14:17:05Z</time></trkpt><trkpt lat="43.96055281886816" lon="6.2359452406090945"><ele>1037.6666666666665</ele><time>2026-04-07T14:17:06Z</time></trkpt><trkpt lat="43.9604958261973" lon="6.235902650838985"><ele>1036.0</ele><time>2026-04-07T14:17:07Z</time></trkpt><trkpt lat="43.96042938212915" lon="6.23588998775475"><ele>1036.0</ele><time>2026-04-07T14:17:09Z</time></trkpt><trkpt lat="43.96037915374632" lon="6.2359704389777075"><ele>1036.0</ele><time>2026-04-07T14:17:11Z</time></trkpt><trkpt lat="43.96034903667002" lon="6.23610005670708"><ele>1036.0</ele><time>2026-04-07T14:17:13Z</time></trkpt><trkpt lat="43.96029372131125" lon="6.236218441436863"><ele>1036.0</ele><time>2026-04-07T14:17:15Z</time></trkpt><trkpt lat="43.96023053652267" lon="6.236332440181015"><ele>1036.0</ele><time>2026-04-07T14:17:17Z</time></trkpt><trkpt lat="43.96012936824731" lon="6.236403168413372"><ele>1036.0</ele><time>2026-04-07T14:17:19Z</time></trkpt><trkpt lat="43.960058573215306" lon="6.236430910825895"><ele>1036.0</ele><time>2026-04-07T14:17:20Z</time></trkpt><trkpt lat="43.95998771802828" lon="6.236464370354392"><ele>1036.0</ele><time>2026-04-07T14:17:20.999Z</time></trkpt><trkpt lat="43.95992647780294" lon="6.23649104664236"><ele>1036.0</ele><time>2026-04-07T14:17:21.999Z</time></trkpt><trkpt lat="43.95985766090598" lon="6.23649510917532"><ele>1036.0</ele><time>2026-04-07T14:17:22.999Z</time></trkpt><trkpt lat="43.959756707335025" lon="6.23653665450061"><ele>1036.0</ele><time>2026-04-07T14:17:24.999Z</time></trkpt><trkpt lat="43.95970622431643" lon="6.236590015753344"><ele>1037.2</ele><time>2026-04-07T14:17:25.999Z</time></trkpt><trkpt lat="43.95965545689926" lon="6.23665307425026"><ele>1038.3999999999999</ele><time>2026-04-07T14:17:26.999Z</time></trkpt><trkpt lat="43.959533079493525" lon="6.236710158938315"><ele>1039.6</ele><time>2026-04-07T14:17:28.999Z</time></trkpt><trkpt lat="43.95945887033198" lon="6.236702723576498"><ele>1040.8</ele><time>2026-04-07T14:17:29.999Z</time></trkpt><trkpt lat="43.959351905746345" lon="6.236739353047654"><ele>1042.0</ele><time>2026-04-07T14:17:31.999Z</time></trkpt><trkpt lat="43.95928581120097" lon="6.236786183749638"><ele>1042.0</ele><time>2026-04-07T14:17:32.999Z</time></trkpt><trkpt lat="43.959211455427265" lon="6.236830206042433"><ele>1042.0</ele><time>2026-04-07T14:17:33.999Z</time></trkpt><trkpt lat="43.9591234869449" lon="6.236875140427278"><ele>1042.0</ele><time>2026-04-07T14:17:34.999Z</time></trkpt><trkpt lat="43.95902187974683" lon="6.236979534842825"><ele>1042.0</ele><time>2026-04-07T14:17:36.999Z</time></trkpt><trkpt lat="43.95896232059881" lon="6.237060865451759"><ele>1042.0</ele><time>2026-04-07T14:17:38Z</time></trkpt><trkpt lat="43.95890694547026" lon="6.237139045615772"><ele>1042.5</ele><time>2026-04-07T14:17:39Z</time></trkpt><trkpt lat="43.95884568403914" lon="6.237217615107107"><ele>1043.0</ele><time>2026-04-07T14:17:40Z</time></trkpt><trkpt lat="43.958780368957186" lon="6.237316946535105"><ele>1043.5</ele><time>2026-04-07T14:17:41Z</time></trkpt><trkpt lat="43.9587296700836" lon="6.237405062900279"><ele>1044.0</ele><time>2026-04-07T14:17:42Z</time></trkpt><trkpt lat="43.95866350179898" lon="6.237479376222239"><ele>1044.5</ele><time>2026-04-07T14:17:43Z</time></trkpt><trkpt lat="43.95858516127443" lon="6.237541972720784"><ele>1045.0</ele><time>2026-04-07T14:17:44Z</time></trkpt><trkpt lat="43.95852352019626" lon="6.237615968910657"><ele>1045.0</ele><time>2026-04-07T14:17:45Z</time></trkpt><trkpt lat="43.95847111225114" lon="6.2376896893970635"><ele>1045.0</ele><time>2026-04-07T14:17:46Z</time></trkpt><trkpt lat="43.95841068709388" lon="6.237753947374196"><ele>1045.0</ele><time>2026-04-07T14:17:47Z</time></trkpt><trkpt lat="43.95834530134935" lon="6.2377967396894345"><ele>1045.0</ele><time>2026-04-07T14:17:48Z</time></trkpt><trkpt lat="43.958274405853565" lon="6.237825536946993"><ele>1045.0</ele><time>2026-04-07T14:17:49Z</time></trkpt><trkpt lat="43.958199172720214" lon="6.2378738372916365"><ele>1045.0</ele><time>2026-04-07T14:17:50Z</time></trkpt><trkpt lat="43.95805494994532" lon="6.23791543878664"><ele>1042.6</ele><time>2026-04-07T14:17:52Z</time></trkpt><trkpt lat="43.957986494872024" lon="6.237929862460719"><ele>1040.2</ele><time>2026-04-07T14:17:53Z</time></trkpt><trkpt lat="43.95793019513985" lon="6.237986957405325"><ele>1037.8</ele><time>2026-04-07T14:17:55Z</time></trkpt><trkpt lat="43.95792761838934" lon="6.238118753744926"><ele>1035.4</ele><time>2026-04-07T14:17:57Z</time></trkpt><trkpt lat="43.95793652135946" lon="6.238313478363445"><ele>1033.0</ele><time>2026-04-07T14:17:59Z</time></trkpt><trkpt lat="43.95793139255539" lon="6.2384391554709895"><ele>1033.0</ele><time>2026-04-07T14:18:00Z</time></trkpt><trkpt lat="43.957923318367776" lon="6.238554403586394"><ele>1033.0</ele><time>2026-04-07T14:18:01Z</time></trkpt><trkpt lat="43.957908670568685" lon="6.238659628076569"><ele>1033.0</ele><time>2026-04-07T14:18:02Z</time></trkpt><trkpt lat="43.957902210250055" lon="6.238765446635927"><ele>1033.0</ele><time>2026-04-07T14:18:03Z</time></trkpt><trkpt lat="43.95788514552099" lon="6.238870197149648"><ele>1033.0</ele><time>2026-04-07T14:18:04Z</time></trkpt><trkpt lat="43.957857801873644" lon="6.238967499990452"><ele>1033.0</ele><time>2026-04-07T14:18:05Z</time></trkpt><trkpt lat="43.957810282163926" lon="6.239070296914202"><ele>1033.7142857142858</ele><time>2026-04-07T14:18:06Z</time></trkpt><trkpt lat="43.957769942625816" lon="6.239170538527314"><ele>1034.4285714285716</ele><time>2026-04-07T14:18:07Z</time></trkpt><trkpt lat="43.95774384210986" lon="6.239253804184104"><ele>1035.142857142857</ele><time>2026-04-07T14:18:08Z</time></trkpt><trkpt lat="43.95772666634173" lon="6.239351815367632"><ele>1035.857142857143</ele><time>2026-04-07T14:18:10Z</time></trkpt><trkpt lat="43.95765317540749" lon="6.239345828522257"><ele>1036.5714285714284</ele><time>2026-04-07T14:18:14Z</time></trkpt><trkpt lat="43.957623809635116" lon="6.2392472452064505"><ele>1037.2857142857142</ele><time>2026-04-07T14:18:16Z</time></trkpt><trkpt lat="43.9576268835307" lon="6.23915239758823"><ele>1038.0</ele><time>2026-04-07T14:18:17Z</time></trkpt><trkpt lat="43.95764363210988" lon="6.239014756271297"><ele>1038.0</ele><time>2026-04-07T14:18:19Z</time></trkpt><trkpt lat="43.95755327290216" lon="6.239008997912072"><ele>1038.0</ele><time>2026-04-07T14:18:22Z</time></trkpt><trkpt lat="43.957506647094114" lon="6.239153227889629"><ele>1038.0</ele><time>2026-04-07T14:18:24Z</time></trkpt><trkpt lat="43.957495110359595" lon="6.2392902292546255"><ele>1038.0</ele><time>2026-04-07T14:18:26Z</time></trkpt><trkpt lat="43.95749715387057" lon="6.239465464803095"><ele>1038.0</ele><time>2026-04-07T14:18:28Z</time></trkpt><trkpt lat="43.957504982009795" lon="6.239614134785852"><ele>1038.0</ele><time>2026-04-07T14:18:30Z</time></trkpt><trkpt lat="43.95755819495338" lon="6.239724403999468"><ele>1038.0</ele><time>2026-04-07T14:18:32Z</time></trkpt><trkpt lat="43.95757101958641" lon="6.239830366067652"><ele>1038.0</ele><time>2026-04-07T14:18:34Z</time></trkpt><trkpt lat="43.9575334735109" lon="6.23990950054504"><ele>1038.0</ele><time>2026-04-07T14:18:35Z</time></trkpt><trkpt lat="43.95747260879299" lon="6.239970043329581"><ele>1038.0</ele><time>2026-04-07T14:18:36Z</time></trkpt><trkpt lat="43.957416992308026" lon="6.240029842267787"><ele>1038.0</ele><time>2026-04-07T14:18:37Z</time></trkpt><trkpt lat="43.95736906210569" lon="6.240097899158467"><ele>1030.8</ele><time>2026-04-07T14:18:38Z</time></trkpt><trkpt lat="43.957326250127885" lon="6.240164565547818"><ele>1023.5999999999999</ele><time>2026-04-07T14:18:39Z</time></trkpt><trkpt lat="43.95725665228537" lon="6.240327720996713"><ele>1016.4000000000001</ele><time>2026-04-07T14:18:41Z</time></trkpt><trkpt lat="43.957171223427196" lon="6.240479524398281"><ele>1009.2</ele><time>2026-04-07T14:18:43Z</time></trkpt><trkpt lat="43.95712315847622" lon="6.240555868527134"><ele>1002.0</ele><time>2026-04-07T14:18:44Z</time></trkpt><trkpt lat="43.957069796164866" lon="6.240624292398613"><ele>1004.3333333333334</ele><time>2026-04-07T14:18:45Z</time></trkpt><trkpt lat="43.95701418108589" lon="6.240692920610698"><ele>1006.6666666666667</ele><time>2026-04-07T14:18:46Z</time></trkpt><trkpt lat="43.9569531483799" lon="6.240752503065375"><ele>1009.0</ele><time>2026-04-07T14:18:47Z</time></trkpt><trkpt lat="43.95689282904756" lon="6.2407993089146325"><ele>1011.3333333333334</ele><time>2026-04-07T14:18:48Z</time></trkpt><trkpt lat="43.956822592003064" lon="6.2408507505130855"><ele>1013.6666666666667</ele><time>2026-04-07T14:18:49Z</time></trkpt><trkpt lat="43.95675269105331" lon="6.240900142180825"><ele>1016.0</ele><time>2026-04-07T14:18:50Z</time></trkpt><trkpt lat="43.95667886940306" lon="6.240953443014067"><ele>1013.0000000000001</ele><time>2026-04-07T14:18:51Z</time></trkpt><trkpt lat="43.956605708159785" lon="6.240998081974153"><ele>1010.0</ele><time>2026-04-07T14:18:52Z</time></trkpt><trkpt lat="43.95652953914127" lon="6.241059591309604"><ele>1007.0</ele><time>2026-04-07T14:18:53Z</time></trkpt><trkpt lat="43.95647296544788" lon="6.241124901931483"><ele>1004.0</ele><time>2026-04-07T14:18:54Z</time></trkpt><trkpt lat="43.956428373969935" lon="6.2411902177574685"><ele>1001.0000000000001</ele><time>2026-04-07T14:18:55Z</time></trkpt><trkpt lat="43.95640668923825" lon="6.241364219990579"><ele>998.0</ele><time>2026-04-07T14:18:57Z</time></trkpt><trkpt lat="43.95639226458633" lon="6.241471186770098"><ele>998.0000000000001</ele><time>2026-04-07T14:18:58Z</time></trkpt><trkpt lat="43.956363514905476" lon="6.241580471182064"><ele>998.0</ele><time>2026-04-07T14:18:59Z</time></trkpt><trkpt lat="43.95632477010583" lon="6.241678253000683"><ele>998.0</ele><time>2026-04-07T14:19:00Z</time></trkpt><trkpt lat="43.95630455804185" lon="6.241781094180773"><ele>998.0</ele><time>2026-04-07T14:19:01Z</time></trkpt><trkpt lat="43.95629516391864" lon="6.241883447151356"><ele>998.0000000000001</ele><time>2026-04-07T14:19:02Z</time></trkpt><trkpt lat="43.956262703285034" lon="6.241964236964728"><ele>998.0</ele><time>2026-04-07T14:19:03Z</time></trkpt><trkpt lat="43.95620088447371" lon="6.24207469460386"><ele>998.0000000000001</ele><time>2026-04-07T14:19:05Z</time></trkpt><trkpt lat="43.95618447018891" lon="6.242224934098868"><ele>998.0</ele><time>2026-04-07T14:19:07Z</time></trkpt><trkpt lat="43.956192364385906" lon="6.242331934781626"><ele>998.0</ele><time>2026-04-07T14:19:08Z</time></trkpt><trkpt lat="43.956207517172395" lon="6.242430083663464"><ele>998.0</ele><time>2026-04-07T14:19:09Z</time></trkpt><trkpt lat="43.95623039492216" lon="6.242545424648936"><ele>998.0000000000001</ele><time>2026-04-07T14:19:10Z</time></trkpt><trkpt lat="43.956235157193134" lon="6.242648454773753"><ele>998.0</ele><time>2026-04-07T14:19:11Z</time></trkpt><trkpt lat="43.95625845910831" lon="6.242807652791499"><ele>997.5000000000001</ele><time>2026-04-07T14:19:13Z</time></trkpt><trkpt lat="43.95634073048809" lon="6.242931917663143"><ele>997.0</ele><time>2026-04-07T14:19:15Z</time></trkpt><trkpt lat="43.95640197971524" lon="6.242987714460128"><ele>996.5</ele><time>2026-04-07T14:19:16Z</time></trkpt><trkpt lat="43.95645223844162" lon="6.243059364587979"><ele>996.0</ele><time>2026-04-07T14:19:17Z</time></trkpt><trkpt lat="43.956484264556536" lon="6.243136040973124"><ele>995.5000000000001</ele><time>2026-04-07T14:19:18Z</time></trkpt><trkpt lat="43.95649300157365" lon="6.24323393216792"><ele>995.0</ele><time>2026-04-07T14:19:19Z</time></trkpt><trkpt lat="43.95647328943047" lon="6.243323576517405"><ele>993.6666666666667</ele><time>2026-04-07T14:19:20Z</time></trkpt><trkpt lat="43.956443833652976" lon="6.243416839500813"><ele>992.3333333333334</ele><time>2026-04-07T14:19:21Z</time></trkpt><trkpt lat="43.956418292337965" lon="6.24352701792904"><ele>991.0</ele><time>2026-04-07T14:19:22Z</time></trkpt><trkpt lat="43.95639731031941" lon="6.243651483176254"><ele>989.6666666666667</ele><time>2026-04-07T14:19:23Z</time></trkpt><trkpt lat="43.9563803908596" lon="6.243767661749825"><ele>988.3333333333334</ele><time>2026-04-07T14:19:24Z</time></trkpt><trkpt lat="43.95636989744886" lon="6.243874526889647"><ele>987.0</ele><time>2026-04-07T14:19:25Z</time></trkpt><trkpt lat="43.95636736873245" lon="6.244017210181715"><ele>986.1666666666666</ele><time>2026-04-07T14:19:26Z</time></trkpt><trkpt lat="43.95637755726581" lon="6.244137507372639"><ele>985.3333333333333</ele><time>2026-04-07T14:19:27Z</time></trkpt><trkpt lat="43.956392717538776" lon="6.244253671372704"><ele>984.5</ele><time>2026-04-07T14:19:28Z</time></trkpt><trkpt lat="43.95641837300934" lon="6.244368727875442"><ele>983.6666666666666</ele><time>2026-04-07T14:19:29Z</time></trkpt><trkpt lat="43.95643628286344" lon="6.244470180715386"><ele>982.8333333333333</ele><time>2026-04-07T14:19:30Z</time></trkpt><trkpt lat="43.95642806883307" lon="6.244559882984785"><ele>982.0</ele><time>2026-04-07T14:19:31Z</time></trkpt><trkpt lat="43.956409606966105" lon="6.244651589015121"><ele>981.9999999999999</ele><time>2026-04-07T14:19:32Z</time></trkpt><trkpt lat="43.956372197028934" lon="6.244752039041907"><ele>982.0</ele><time>2026-04-07T14:19:33Z</time></trkpt><trkpt lat="43.956322144694504" lon="6.244829556929376"><ele>982.0</ele><time>2026-04-07T14:19:34Z</time></trkpt><trkpt lat="43.956257033065306" lon="6.244893021806557"><ele>982.0</ele><time>2026-04-07T14:19:35Z</time></trkpt><trkpt lat="43.956188334448214" lon="6.244955759678664"><ele>981.9999999999999</ele><time>2026-04-07T14:19:36Z</time></trkpt><trkpt lat="43.95610988603151" lon="6.24501372991263"><ele>982.0</ele><time>2026-04-07T14:19:37Z</time></trkpt><trkpt lat="43.95602367191605" lon="6.245079319974928"><ele>982.3333333333333</ele><time>2026-04-07T14:19:38Z</time></trkpt><trkpt lat="43.95595539484056" lon="6.245132248981044"><ele>982.6666666666666</ele><time>2026-04-07T14:19:39Z</time></trkpt><trkpt lat="43.95588638420793" lon="6.245182666845826"><ele>983.0</ele><time>2026-04-07T14:19:40Z</time></trkpt><trkpt lat="43.95581984696265" lon="6.24525221151544"><ele>983.3333333333333</ele><time>2026-04-07T14:19:41Z</time></trkpt><trkpt lat="43.95575777219001" lon="6.245318393246441"><ele>983.6666666666666</ele><time>2026-04-07T14:19:42Z</time></trkpt><trkpt lat="43.955712139908904" lon="6.245388592394989"><ele>984.0</ele><time>2026-04-07T14:19:43Z</time></trkpt><trkpt lat="43.95569037390305" lon="6.245475217999202"><ele>979.5</ele><time>2026-04-07T14:19:44Z</time></trkpt><trkpt lat="43.9556780878574" lon="6.245561019941682"><ele>975.0</ele><time>2026-04-07T14:19:45Z</time></trkpt><trkpt lat="43.95561105268374" lon="6.2455349670922615"><ele>970.5</ele><time>2026-04-07T14:19:46Z</time></trkpt><trkpt lat="43.95562833281073" lon="6.245673343250762"><ele>966.0</ele><time>2026-04-07T14:19:48Z</time></trkpt><trkpt lat="43.95564632231453" lon="6.2457638701290294"><ele>961.5</ele><time>2026-04-07T14:19:49Z</time></trkpt><trkpt lat="43.95567601737603" lon="6.245873305075209"><ele>957.0</ele><time>2026-04-07T14:19:50Z</time></trkpt><trkpt lat="43.95570477114016" lon="6.245975184309879"><ele>957.0</ele><time>2026-04-07T14:19:51Z</time></trkpt><trkpt lat="43.95575106582504" lon="6.246108680524138"><ele>957.0</ele><time>2026-04-07T14:19:53Z</time></trkpt><trkpt lat="43.95582259288577" lon="6.246209520113095"><ele>957.0</ele><time>2026-04-07T14:19:55Z</time></trkpt><trkpt lat="43.95586670015133" lon="6.246294060718344"><ele>957.0</ele><time>2026-04-07T14:19:57Z</time></trkpt><trkpt lat="43.955837661481716" lon="6.246421708636012"><ele>957.0</ele><time>2026-04-07T14:19:59Z</time></trkpt><trkpt lat="43.95579532598901" lon="6.246508041874886"><ele>956.8333333333334</ele><time>2026-04-07T14:20:00Z</time></trkpt><trkpt lat="43.95574450526973" lon="6.246587742524931"><ele>956.6666666666667</ele><time>2026-04-07T14:20:01Z</time></trkpt><trkpt lat="43.95568102593589" lon="6.2466455431166965"><ele>956.5</ele><time>2026-04-07T14:20:02Z</time></trkpt><trkpt lat="43.95561243526817" lon="6.246687361518589"><ele>956.3333333333334</ele><time>2026-04-07T14:20:03Z</time></trkpt><trkpt lat="43.95553968898276" lon="6.24669068916748"><ele>956.1666666666667</ele><time>2026-04-07T14:20:04Z</time></trkpt><trkpt lat="43.95547268835312" lon="6.2466727017617245"><ele>956.0</ele><time>2026-04-07T14:20:05Z</time></trkpt><trkpt lat="43.95540628227159" lon="6.24657885455123"><ele>956.1999999999999</ele><time>2026-04-07T14:20:07Z</time></trkpt><trkpt lat="43.95543528770547" lon="6.246459811799604"><ele>956.3999999999999</ele><time>2026-04-07T14:20:09Z</time></trkpt><trkpt lat="43.95552687780494" lon="6.246408169848627"><ele>956.6</ele><time>2026-04-07T14:20:11Z</time></trkpt><trkpt lat="43.9555928962143" lon="6.246366803990117"><ele>956.8</ele><time>2026-04-07T14:20:13Z</time></trkpt><trkpt lat="43.95554779033563" lon="6.246261970884214"><ele>957.0</ele><time>2026-04-07T14:20:15Z</time></trkpt><trkpt lat="43.95544189805437" lon="6.246208252048488"><ele>957.0</ele><time>2026-04-07T14:20:17Z</time></trkpt><trkpt lat="43.95538058520366" lon="6.246175838869776"><ele>957.0</ele><time>2026-04-07T14:20:18Z</time></trkpt><trkpt lat="43.9552675690837" lon="6.246120648034626"><ele>957.0</ele><time>2026-04-07T14:20:20Z</time></trkpt><trkpt lat="43.95517176527953" lon="6.24601964895549"><ele>957.0</ele><time>2026-04-07T14:20:22Z</time></trkpt><trkpt lat="43.95512931047634" lon="6.245943245867826"><ele>957.0</ele><time>2026-04-07T14:20:23Z</time></trkpt><trkpt lat="43.95509193512142" lon="6.2458710055922495"><ele>957.0</ele><time>2026-04-07T14:20:24Z</time></trkpt><trkpt lat="43.95499224612998" lon="6.245810036142753"><ele>953.6666666666666</ele><time>2026-04-07T14:20:26Z</time></trkpt><trkpt lat="43.95488500386274" lon="6.24582256312884"><ele>950.3333333333333</ele><time>2026-04-07T14:20:28Z</time></trkpt><trkpt lat="43.954817715935285" lon="6.24587736628804"><ele>947.0</ele><time>2026-04-07T14:20:29Z</time></trkpt><trkpt lat="43.95474814135238" lon="6.245920010769884"><ele>943.6666666666666</ele><time>2026-04-07T14:20:30Z</time></trkpt><trkpt lat="43.95468972153885" lon="6.2459577297257844"><ele>940.3333333333333</ele><time>2026-04-07T14:20:31Z</time></trkpt><trkpt lat="43.95463603538733" lon="6.246004396234813"><ele>937.0</ele><time>2026-04-07T14:20:33Z</time></trkpt><trkpt lat="43.95459546208303" lon="6.246091772541335"><ele>937.0</ele><time>2026-04-07T14:20:35Z</time></trkpt><trkpt lat="43.95455605161367" lon="6.246257669714157"><ele>937.0</ele><time>2026-04-07T14:20:37Z</time></trkpt><trkpt lat="43.95454305597176" lon="6.246354994278839"><ele>937.0</ele><time>2026-04-07T14:20:38Z</time></trkpt><trkpt lat="43.95453574781865" lon="6.246445038715344"><ele>937.0</ele><time>2026-04-07T14:20:39Z</time></trkpt><trkpt lat="43.95454332963192" lon="6.2465887747144215"><ele>937.0</ele><time>2026-04-07T14:20:41Z</time></trkpt><trkpt lat="43.954515003244964" lon="6.246738915017859"><ele>937.3333333333333</ele><time>2026-04-07T14:20:43Z</time></trkpt><trkpt lat="43.95448561558189" lon="6.246824648318633"><ele>937.6666666666666</ele><time>2026-04-07T14:20:44Z</time></trkpt><trkpt lat="43.95445521051755" lon="6.2469073284717345"><ele>938.0</ele><time>2026-04-07T14:20:45Z</time></trkpt><trkpt lat="43.95442012912892" lon="6.246998156978229"><ele>938.3333333333333</ele><time>2026-04-07T14:20:46Z</time></trkpt><trkpt lat="43.95433563529369" lon="6.247129228302246"><ele>938.6666666666666</ele><time>2026-04-07T14:20:48Z</time></trkpt><trkpt lat="43.95430351770753" lon="6.247206982858712"><ele>939.0</ele><time>2026-04-07T14:20:49Z</time></trkpt><trkpt lat="43.954279422909444" lon="6.247373770596825"><ele>939.0</ele><time>2026-04-07T14:20:51Z</time></trkpt><trkpt lat="43.95426762887276" lon="6.2474993243900405"><ele>939.0000000000001</ele><time>2026-04-07T14:20:53Z</time></trkpt><trkpt lat="43.95424485924025" lon="6.247620794935723"><ele>939.0000000000001</ele><time>2026-04-07T14:20:55Z</time></trkpt><trkpt lat="43.95428066155549" lon="6.247719470556769"><ele>939.0</ele><time>2026-04-07T14:20:57Z</time></trkpt><trkpt lat="43.954341129118504" lon="6.247818311097542"><ele>939.0</ele><time>2026-04-07T14:20:59Z</time></trkpt><trkpt lat="43.95442787308787" lon="6.247911711990687"><ele>939.0</ele><time>2026-04-07T14:21:01Z</time></trkpt><trkpt lat="43.95448239427278" lon="6.247964837911195"><ele>939.0000000000001</ele><time>2026-04-07T14:21:02Z</time></trkpt><trkpt lat="43.954584362412184" lon="6.248058817490929"><ele>939.0000000000001</ele><time>2026-04-07T14:21:04Z</time></trkpt><trkpt lat="43.95467438549033" lon="6.248138805746243"><ele>939.0</ele><time>2026-04-07T14:21:06Z</time></trkpt><trkpt lat="43.95475195886244" lon="6.248245279609448"><ele>939.0</ele><time>2026-04-07T14:21:08Z</time></trkpt><trkpt lat="43.95482551882996" lon="6.2483723106494455"><ele>935.8000000000001</ele><time>2026-04-07T14:21:10Z</time></trkpt><trkpt lat="43.95489751697755" lon="6.248461313381468"><ele>932.6000000000001</ele><time>2026-04-07T14:21:12Z</time></trkpt><trkpt lat="43.95491591837699" lon="6.248582721125182"><ele>929.4</ele><time>2026-04-07T14:21:14Z</time></trkpt><trkpt lat="43.95490411597921" lon="6.248722393192327"><ele>926.2</ele><time>2026-04-07T14:21:16Z</time></trkpt><trkpt lat="43.9548517739106" lon="6.24885026040682"><ele>923.0</ele><time>2026-04-07T14:21:18Z</time></trkpt><trkpt lat="43.95478170939155" lon="6.24897988724392"><ele>923.0</ele><time>2026-04-07T14:21:20Z</time></trkpt><trkpt lat="43.95471017603527" lon="6.249095460917213"><ele>923.0</ele><time>2026-04-07T14:21:22Z</time></trkpt><trkpt lat="43.954674155196706" lon="6.249229317769591"><ele>923.0</ele><time>2026-04-07T14:21:24Z</time></trkpt><trkpt lat="43.95465565811604" lon="6.249313300557271"><ele>923.0</ele><time>2026-04-07T14:21:25Z</time></trkpt><trkpt lat="43.95462070794856" lon="6.249458584971426"><ele>923.0</ele><time>2026-04-07T14:21:27Z</time></trkpt><trkpt lat="43.95460828174137" lon="6.249582029953624"><ele>923.0000000000001</ele><time>2026-04-07T14:21:29Z</time></trkpt><trkpt lat="43.95462727056466" lon="6.249685697337166"><ele>923.0</ele><time>2026-04-07T14:21:31Z</time></trkpt><trkpt lat="43.95463580494458" lon="6.249784609389921"><ele>923.0</ele><time>2026-04-07T14:21:33Z</time></trkpt><trkpt lat="43.95460218333558" lon="6.249881713443942"><ele>923.0</ele><time>2026-04-07T14:21:35Z</time></trkpt><trkpt lat="43.95456333244503" lon="6.2499679940831525"><ele>923.0000000000001</ele><time>2026-04-07T14:21:37Z</time></trkpt><trkpt lat="43.95454557122135" lon="6.2500824141934235"><ele>923.0</ele><time>2026-04-07T14:21:40Z</time></trkpt><trkpt lat="43.95451335380354" lon="6.250221935547623"><ele>923.0000000000001</ele><time>2026-04-07T14:26:12Z</time></trkpt><trkpt lat="43.95451163047427" lon="6.250330400444806"><ele>923.0</ele><time>2026-04-07T14:26:55Z</time></trkpt><trkpt lat="43.95450633294048" lon="6.2504518557288264"><ele>923.0</ele><time>2026-04-07T14:26:58Z</time></trkpt><trkpt lat="43.95448521374335" lon="6.250534468213818"><ele>923.0</ele><time>2026-04-07T14:27:01Z</time></trkpt><trkpt lat="43.954422261542625" lon="6.250499958647251"><ele>923.0000000000001</ele><time>2026-04-07T14:27:05Z</time></trkpt><trkpt lat="43.95441334094409" lon="6.250382697002847"><ele>923.0</ele><time>2026-04-07T14:27:07Z</time></trkpt><trkpt lat="43.95441979542811" lon="6.250277250855575"><ele>923.0000000000001</ele><time>2026-04-07T14:27:10Z</time></trkpt><trkpt lat="43.95443488966153" lon="6.250132820511359"><ele>923.0</ele><time>2026-04-07T14:27:13Z</time></trkpt><trkpt lat="43.95442956703062" lon="6.249992912299405"><ele>923.0</ele><time>2026-04-07T14:27:15Z</time></trkpt><trkpt lat="43.954422015370895" lon="6.249891855784637"><ele>923.0</ele><time>2026-04-07T14:27:17Z</time></trkpt><trkpt lat="43.95441859340928" lon="6.249800192353672"><ele>923.0000000000001</ele><time>2026-04-07T14:27:20Z</time></trkpt><trkpt lat="43.95438211279094" lon="6.249876907836905"><ele>923.0</ele><time>2026-04-07T14:27:24.001Z</time></trkpt><trkpt lat="43.95441516757236" lon="6.250002362218526"><ele>923.0</ele><time>2026-04-07T14:27:27.001Z</time></trkpt><trkpt lat="43.954424849737265" lon="6.250150596536809"><ele>923.0</ele><time>2026-04-07T14:27:29.001Z</time></trkpt><trkpt lat="43.954408658388125" lon="6.25031535569744"><ele>923.0</ele><time>2026-04-07T14:27:31.001Z</time></trkpt><trkpt lat="43.95439991139547" lon="6.250459278466102"><ele>923.0</ele><time>2026-04-07T14:27:33.001Z</time></trkpt><trkpt lat="43.95440499118241" lon="6.250577707668861"><ele>923.0</ele><time>2026-04-07T14:27:42.001Z</time></trkpt><trkpt lat="43.9544895738212" lon="6.250641475223609"><ele>923.0000000000001</ele><time>2026-04-07T14:29:34Z</time></trkpt><trkpt lat="43.954561766541445" lon="6.250729729323591"><ele>923.0</ele><time>2026-04-07T14:29:36Z</time></trkpt><trkpt lat="43.95461414172297" lon="6.250780667055808"><ele>923.0</ele><time>2026-04-07T14:29:37Z</time></trkpt><trkpt lat="43.95467073380492" lon="6.250833247842182"><ele>923.0</ele><time>2026-04-07T14:29:38Z</time></trkpt><trkpt lat="43.95471246908791" lon="6.250913072895925"><ele>923.0000000000001</ele><time>2026-04-07T14:29:39Z</time></trkpt><trkpt lat="43.95471061136482" lon="6.251045254752148"><ele>923.0</ele><time>2026-04-07T14:29:40Z</time></trkpt><trkpt lat="43.95476369257776" lon="6.251149266441483"><ele>923.0</ele><time>2026-04-07T14:29:41Z</time></trkpt><trkpt lat="43.95480778181738" lon="6.2512741422149025"><ele>923.0</ele><time>2026-04-07T14:29:42Z</time></trkpt><trkpt lat="43.954867786413814" lon="6.2513887602613885"><ele>923.0</ele><time>2026-04-07T14:29:43Z</time></trkpt><trkpt lat="43.954924237465214" lon="6.2515021768034655"><ele>923.0</ele><time>2026-04-07T14:29:44Z</time></trkpt><trkpt lat="43.954941489442454" lon="6.251618921835562"><ele>923.0</ele><time>2026-04-07T14:29:45Z</time></trkpt><trkpt lat="43.95493502681271" lon="6.251725946569678"><ele>923.0000000000001</ele><time>2026-04-07T14:29:46Z</time></trkpt><trkpt lat="43.95496574852826" lon="6.251806630846228"><ele>923.0</ele><time>2026-04-07T14:29:47Z</time></trkpt><trkpt lat="43.95504230909823" lon="6.251926356096364"><ele>923.0</ele><time>2026-04-07T14:29:49Z</time></trkpt><trkpt lat="43.95510720113236" lon="6.251975917508149"><ele>923.0</ele><time>2026-04-07T14:29:50Z</time></trkpt><trkpt lat="43.955196421580595" lon="6.25202655437565"><ele>923.0000000000001</ele><time>2026-04-07T14:29:51Z</time></trkpt><trkpt lat="43.95527984444174" lon="6.252085300899609"><ele>923.0</ele><time>2026-04-07T14:29:52Z</time></trkpt><trkpt lat="43.955371407075276" lon="6.252164074380175"><ele>923.0</ele><time>2026-04-07T14:29:53Z</time></trkpt><trkpt lat="43.955458918315514" lon="6.252246475554276"><ele>923.0</ele><time>2026-04-07T14:29:54Z</time></trkpt><trkpt lat="43.95554612860369" lon="6.252331124211561"><ele>923.0</ele><time>2026-04-07T14:29:55Z</time></trkpt><trkpt lat="43.95563304846111" lon="6.252412270799507"><ele>923.0</ele><time>2026-04-07T14:29:56Z</time></trkpt><trkpt lat="43.95570368495576" lon="6.252512326786959"><ele>923.0</ele><time>2026-04-07T14:29:57Z</time></trkpt><trkpt lat="43.95578437067577" lon="6.252579556526397"><ele>923.0</ele><time>2026-04-07T14:29:58Z</time></trkpt><trkpt lat="43.95584790244385" lon="6.252680005721873"><ele>923.0</ele><time>2026-04-07T14:29:59Z</time></trkpt><trkpt lat="43.955899881981786" lon="6.252798150150012"><ele>923.0</ele><time>2026-04-07T14:30:00Z</time></trkpt><trkpt lat="43.955940076239116" lon="6.252939300751266"><ele>923.0</ele><time>2026-04-07T14:30:01Z</time></trkpt><trkpt lat="43.955976731220815" lon="6.25310166648994"><ele>923.0</ele><time>2026-04-07T14:30:02Z</time></trkpt><trkpt lat="43.95601280286959" lon="6.253266368075128"><ele>923.0</ele><time>2026-04-07T14:30:03Z</time></trkpt><trkpt lat="43.956051037788235" lon="6.253443923535985"><ele>923.0</ele><time>2026-04-07T14:30:04Z</time></trkpt><trkpt lat="43.956081050595856" lon="6.253609478732841"><ele>923.0</ele><time>2026-04-07T14:30:05Z</time></trkpt><trkpt lat="43.9561007982532" lon="6.253783806334897"><ele>923.0</ele><time>2026-04-07T14:30:06Z</time></trkpt><trkpt lat="43.95611133754205" lon="6.253947372320238"><ele>923.0</ele><time>2026-04-07T14:30:07Z</time></trkpt><trkpt lat="43.956116787891546" lon="6.254096452831546"><ele>923.0</ele><time>2026-04-07T14:30:08Z</time></trkpt><trkpt lat="43.95612185682625" lon="6.254240641365827"><ele>923.0</ele><time>2026-04-07T14:30:09Z</time></trkpt><trkpt lat="43.95610044161554" lon="6.25438545473853"><ele>923.0</ele><time>2026-04-07T14:30:10Z</time></trkpt><trkpt lat="43.956094835790516" lon="6.2545435157107105"><ele>923.0</ele><time>2026-04-07T14:30:11Z</time></trkpt><trkpt lat="43.95610627396579" lon="6.2547015698627755"><ele>923.0</ele><time>2026-04-07T14:30:12Z</time></trkpt><trkpt lat="43.95610370954673" lon="6.254850815210806"><ele>923.0</ele><time>2026-04-07T14:30:13Z</time></trkpt><trkpt lat="43.95611641249902" lon="6.254991836599582"><ele>923.0</ele><time>2026-04-07T14:30:14Z</time></trkpt><trkpt lat="43.95615127148528" lon="6.255128351037951"><ele>923.0</ele><time>2026-04-07T14:30:15Z</time></trkpt><trkpt lat="43.956182169511806" lon="6.255267459793545"><ele>923.0</ele><time>2026-04-07T14:30:16Z</time></trkpt><trkpt lat="43.9561659503559" lon="6.255389651038511"><ele>923.0000000000001</ele><time>2026-04-07T14:30:17Z</time></trkpt><trkpt lat="43.956138736535344" lon="6.255492142189847"><ele>923.0</ele><time>2026-04-07T14:30:18Z</time></trkpt><trkpt lat="43.9560679999899" lon="6.255547266801523"><ele>923.0</ele><time>2026-04-07T14:30:19Z</time></trkpt><trkpt lat="43.95601499511011" lon="6.255631322271046"><ele>923.0</ele><time>2026-04-07T14:30:20Z</time></trkpt><trkpt lat="43.95598468586275" lon="6.255742120095326"><ele>923.0000000000001</ele><time>2026-04-07T14:30:21Z</time></trkpt><trkpt lat="43.95596243716994" lon="6.255835540429374"><ele>923.0</ele><time>2026-04-07T14:30:22Z</time></trkpt><trkpt lat="43.955921966141204" lon="6.255923410334161"><ele>911.5999999999999</ele><time>2026-04-07T14:30:23Z</time></trkpt><trkpt lat="43.955838071393224" lon="6.255945947188338"><ele>900.1999999999999</ele><time>2026-04-07T14:30:24Z</time></trkpt><trkpt lat="43.955777045834544" lon="6.256027906076125"><ele>888.8</ele><time>2026-04-07T14:30:25Z</time></trkpt><trkpt lat="43.95571579064867" lon="6.256076601003931"><ele>877.4</ele><time>2026-04-07T14:30:26Z</time></trkpt><trkpt lat="43.95563805190317" lon="6.256224997889832"><ele>866.0</ele><time>2026-04-07T14:30:28Z</time></trkpt><trkpt lat="43.95563236988755" lon="6.2563529695956674"><ele>871.4</ele><time>2026-04-07T14:30:29Z</time></trkpt><trkpt lat="43.95563261656659" lon="6.256485696563552"><ele>876.8</ele><time>2026-04-07T14:30:30Z</time></trkpt><trkpt lat="43.95558081752095" lon="6.256600169250429"><ele>882.1999999999999</ele><time>2026-04-07T14:30:31Z</time></trkpt><trkpt lat="43.95551450449013" lon="6.256712697414461"><ele>887.5999999999999</ele><time>2026-04-07T14:30:32Z</time></trkpt><trkpt lat="43.95548192179486" lon="6.256870787111882"><ele>893.0</ele><time>2026-04-07T14:30:33Z</time></trkpt><trkpt lat="43.95541206305003" lon="6.256985103519537"><ele>893.0</ele><time>2026-04-07T14:30:34Z</time></trkpt><trkpt lat="43.955366903416994" lon="6.25710783061192"><ele>893.0</ele><time>2026-04-07T14:30:35Z</time></trkpt><trkpt lat="43.95535366264343" lon="6.257251869843134"><ele>893.0</ele><time>2026-04-07T14:30:36Z</time></trkpt><trkpt lat="43.955314091844244" lon="6.257395466645455"><ele>893.0</ele><time>2026-04-07T14:30:37Z</time></trkpt><trkpt lat="43.955277142904364" lon="6.257534831589914"><ele>893.0</ele><time>2026-04-07T14:30:38Z</time></trkpt><trkpt lat="43.95523125724376" lon="6.257664184542008"><ele>889.0</ele><time>2026-04-07T14:30:39Z</time></trkpt><trkpt lat="43.955173494168456" lon="6.257773530967569"><ele>885.0</ele><time>2026-04-07T14:30:40Z</time></trkpt><trkpt lat="43.95512821767012" lon="6.257878720454366"><ele>881.0</ele><time>2026-04-07T14:30:41Z</time></trkpt><trkpt lat="43.95510697603145" lon="6.258001101456333"><ele>877.0</ele><time>2026-04-07T14:30:42Z</time></trkpt><trkpt lat="43.9550766192918" lon="6.258134447797683"><ele>873.0</ele><time>2026-04-07T14:30:43Z</time></trkpt><trkpt lat="43.95500770979298" lon="6.258247903128186"><ele>873.0</ele><time>2026-04-07T14:30:44Z</time></trkpt><trkpt lat="43.95493480885704" lon="6.258371679627177"><ele>873.0</ele><time>2026-04-07T14:30:45Z</time></trkpt><trkpt lat="43.95486120555085" lon="6.258487434968651"><ele>873.0</ele><time>2026-04-07T14:30:46Z</time></trkpt><trkpt lat="43.95476801814701" lon="6.258600736099636"><ele>873.0</ele><time>2026-04-07T14:30:47Z</time></trkpt><trkpt lat="43.95468258200984" lon="6.258705374892035"><ele>873.0</ele><time>2026-04-07T14:30:48Z</time></trkpt><trkpt lat="43.954572730223695" lon="6.258858287978948"><ele>873.0</ele><time>2026-04-07T14:30:49Z</time></trkpt><trkpt lat="43.95447320307911" lon="6.2589733951804964"><ele>873.0</ele><time>2026-04-07T14:30:50Z</time></trkpt><trkpt lat="43.954384247617334" lon="6.2590804533048345"><ele>873.0</ele><time>2026-04-07T14:30:51Z</time></trkpt><trkpt lat="43.95431339321397" lon="6.259180265063597"><ele>877.0</ele><time>2026-04-07T14:30:52Z</time></trkpt><trkpt lat="43.9542464846368" lon="6.259242285467327"><ele>881.0</ele><time>2026-04-07T14:30:53Z</time></trkpt><trkpt lat="43.95417409364262" lon="6.259309602583978"><ele>885.0</ele><time>2026-04-07T14:30:54Z</time></trkpt><trkpt lat="43.95408414721427" lon="6.259354356911381"><ele>889.0</ele><time>2026-04-07T14:30:55Z</time></trkpt><trkpt lat="43.95398221805051" lon="6.259379244544194"><ele>893.0</ele><time>2026-04-07T14:30:56Z</time></trkpt><trkpt lat="43.9538641333449" lon="6.2593900683004655"><ele>893.0</ele><time>2026-04-07T14:30:57Z</time></trkpt><trkpt lat="43.95374677099128" lon="6.2593474965758835"><ele>893.0</ele><time>2026-04-07T14:30:58Z</time></trkpt><trkpt lat="43.95362797150678" lon="6.259330390675984"><ele>893.0</ele><time>2026-04-07T14:30:59Z</time></trkpt><trkpt lat="43.9535223066312" lon="6.259290514154904"><ele>893.0</ele><time>2026-04-07T14:31:00Z</time></trkpt><trkpt lat="43.95345168515741" lon="6.259264941990278"><ele>893.0</ele><time>2026-04-07T14:31:01Z</time></trkpt><trkpt lat="43.95338485352045" lon="6.259275450502628"><ele>894.8333333333334</ele><time>2026-04-07T14:31:02Z</time></trkpt><trkpt lat="43.953335893034996" lon="6.259330487389398"><ele>896.6666666666667</ele><time>2026-04-07T14:31:03Z</time></trkpt><trkpt lat="43.953228767248696" lon="6.2593972847627315"><ele>898.5</ele><time>2026-04-07T14:31:05Z</time></trkpt><trkpt lat="43.95314654995637" lon="6.259355518066628"><ele>900.3333333333333</ele><time>2026-04-07T14:31:07Z</time></trkpt><trkpt lat="43.95321272078106" lon="6.259341894564213"><ele>902.1666666666666</ele><time>2026-04-07T14:32:47Z</time></trkpt><trkpt lat="43.9531703240972" lon="6.259413876535945"><ele>904.0</ele><time>2026-04-07T14:33:38Z</time></trkpt><trkpt lat="43.95310651617698" lon="6.259729683077853"><ele>904.4999999999999</ele><time>2026-04-07T14:42:07Z</time></trkpt><trkpt lat="43.95308170250813" lon="6.259818699673104"><ele>905.0</ele><time>2026-04-07T14:42:08Z</time></trkpt><trkpt lat="43.95303745190348" lon="6.259921487068884"><ele>905.5</ele><time>2026-04-07T14:42:09Z</time></trkpt><trkpt lat="43.9529875674376" lon="6.25999189501819"><ele>906.0</ele><time>2026-04-07T14:42:10Z</time></trkpt><trkpt lat="43.95291928498075" lon="6.260064002025364"><ele>906.4999999999999</ele><time>2026-04-07T14:42:11Z</time></trkpt><trkpt lat="43.95288320201538" lon="6.260153835927452"><ele>907.0</ele><time>2026-04-07T14:42:12Z</time></trkpt><trkpt lat="43.95287741527815" lon="6.26027228949318"><ele>907.0</ele><time>2026-04-07T14:42:13Z</time></trkpt><trkpt lat="43.9528844391172" lon="6.260389041669196"><ele>907.0</ele><time>2026-04-07T14:42:14Z</time></trkpt><trkpt lat="43.952898222457016" lon="6.260494330394143"><ele>907.0</ele><time>2026-04-07T14:42:15Z</time></trkpt><trkpt lat="43.95289947819845" lon="6.260663975272913"><ele>907.0</ele><time>2026-04-07T14:42:17Z</time></trkpt><trkpt lat="43.952866518608054" lon="6.26082902916236"><ele>907.0</ele><time>2026-04-07T14:42:19Z</time></trkpt><trkpt lat="43.952819870008035" lon="6.260889426252084"><ele>906.6666666666666</ele><time>2026-04-07T14:42:20Z</time></trkpt><trkpt lat="43.95274911787386" lon="6.2609075192586"><ele>906.3333333333333</ele><time>2026-04-07T14:42:21Z</time></trkpt><trkpt lat="43.952670040978205" lon="6.26090719292121"><ele>906.0</ele><time>2026-04-07T14:42:22Z</time></trkpt><trkpt lat="43.952573644659466" lon="6.260886486580866"><ele>905.6666666666667</ele><time>2026-04-07T14:42:23Z</time></trkpt><trkpt lat="43.952478346033914" lon="6.2608902987784"><ele>905.3333333333334</ele><time>2026-04-07T14:42:24Z</time></trkpt><trkpt lat="43.95238862247696" lon="6.260916845098242"><ele>905.0</ele><time>2026-04-07T14:42:25Z</time></trkpt><trkpt lat="43.95229931475443" lon="6.2609519084824345"><ele>905.0</ele><time>2026-04-07T14:42:26Z</time></trkpt><trkpt lat="43.95221115050814" lon="6.2609809531333696"><ele>905.0</ele><time>2026-04-07T14:42:27Z</time></trkpt><trkpt lat="43.95211767002305" lon="6.260992385394458"><ele>905.0</ele><time>2026-04-07T14:42:28Z</time></trkpt><trkpt lat="43.95202483469" lon="6.260994268999259"><ele>905.0</ele><time>2026-04-07T14:42:29Z</time></trkpt><trkpt lat="43.9519294064008" lon="6.261025511027347"><ele>905.0</ele><time>2026-04-07T14:42:30Z</time></trkpt><trkpt lat="43.951830446722965" lon="6.261079538514596"><ele>905.0</ele><time>2026-04-07T14:42:31.001Z</time></trkpt><trkpt lat="43.95172998488198" lon="6.261160462877476"><ele>905.0</ele><time>2026-04-07T14:42:32.001Z</time></trkpt><trkpt lat="43.95162937571072" lon="6.2612622780633815"><ele>905.0</ele><time>2026-04-07T14:42:33.001Z</time></trkpt><trkpt lat="43.95152935818284" lon="6.261375571519818"><ele>905.0</ele><time>2026-04-07T14:42:34Z</time></trkpt><trkpt lat="43.951438774327904" lon="6.261492247770446"><ele>904.4</ele><time>2026-04-07T14:42:35Z</time></trkpt><trkpt lat="43.951357882589654" lon="6.261623533448051"><ele>903.8</ele><time>2026-04-07T14:42:36Z</time></trkpt><trkpt lat="43.951275687232176" lon="6.2617371572309635"><ele>903.2</ele><time>2026-04-07T14:42:37Z</time></trkpt><trkpt lat="43.951203807302804" lon="6.261837813749301"><ele>902.6</ele><time>2026-04-07T14:42:38Z</time></trkpt><trkpt lat="43.9511461862642" lon="6.261933806018426"><ele>902.0</ele><time>2026-04-07T14:42:39Z</time></trkpt><trkpt lat="43.951091671121475" lon="6.262017615171874"><ele>902.0000000000001</ele><time>2026-04-07T14:42:40Z</time></trkpt><trkpt lat="43.951036515993756" lon="6.26206415926292"><ele>902.0</ele><time>2026-04-07T14:42:41Z</time></trkpt><trkpt lat="43.9509674381942" lon="6.262057041436716"><ele>902.0</ele><time>2026-04-07T14:42:42Z</time></trkpt><trkpt lat="43.950884707759734" lon="6.262018709928381"><ele>902.0</ele><time>2026-04-07T14:42:43Z</time></trkpt><trkpt lat="43.95078400638464" lon="6.261998780044825"><ele>902.0000000000001</ele><time>2026-04-07T14:42:44Z</time></trkpt><trkpt lat="43.950672761610804" lon="6.262034738986858"><ele>902.0</ele><time>2026-04-07T14:42:45Z</time></trkpt><trkpt lat="43.950566001025045" lon="6.262116319683485"><ele>901.0</ele><time>2026-04-07T14:42:46Z</time></trkpt><trkpt lat="43.95046846770916" lon="6.262221662211162"><ele>900.0</ele><time>2026-04-07T14:42:47Z</time></trkpt><trkpt lat="43.95037303736299" lon="6.262322365426806"><ele>899.0</ele><time>2026-04-07T14:42:48Z</time></trkpt><trkpt lat="43.95028001124675" lon="6.262417519677983"><ele>898.0</ele><time>2026-04-07T14:42:49Z</time></trkpt><trkpt lat="43.950187395981736" lon="6.2625067231011435"><ele>898.0</ele><time>2026-04-07T14:42:50Z</time></trkpt><trkpt lat="43.95008858893589" lon="6.262573012188309"><ele>898.0</ele><time>2026-04-07T14:42:51Z</time></trkpt><trkpt lat="43.94999495430487" lon="6.262625336245742"><ele>898.0</ele><time>2026-04-07T14:42:52Z</time></trkpt><trkpt lat="43.949906420659" lon="6.262656299266752"><ele>898.0</ele><time>2026-04-07T14:42:53Z</time></trkpt><trkpt lat="43.94983496879044" lon="6.26267115178175"><ele>898.0</ele><time>2026-04-07T14:42:54Z</time></trkpt><trkpt lat="43.94972702827696" lon="6.2626831369515745"><ele>898.9999999999999</ele><time>2026-04-07T14:42:56Z</time></trkpt><trkpt lat="43.94961013779843" lon="6.2627057178208725"><ele>900.0</ele><time>2026-04-07T14:42:58Z</time></trkpt><trkpt lat="43.949544037318645" lon="6.262713007463538"><ele>901.0</ele><time>2026-04-07T14:42:59Z</time></trkpt><trkpt lat="43.94946310131063" lon="6.262715659613404"><ele>902.0</ele><time>2026-04-07T14:43:00Z</time></trkpt><trkpt lat="43.94937700419374" lon="6.26272707941352"><ele>902.9999999999999</ele><time>2026-04-07T14:43:01Z</time></trkpt><trkpt lat="43.94930772769574" lon="6.2627364486725945"><ele>904.0</ele><time>2026-04-07T14:43:02Z</time></trkpt><trkpt lat="43.949225364790564" lon="6.262762441438111"><ele>903.4999999999999</ele><time>2026-04-07T14:43:03Z</time></trkpt><trkpt lat="43.949140919495186" lon="6.262800727841598"><ele>903.0</ele><time>2026-04-07T14:43:04Z</time></trkpt><trkpt lat="43.94905880817849" lon="6.2628610706010175"><ele>902.5</ele><time>2026-04-07T14:43:05Z</time></trkpt><trkpt lat="43.94897757803883" lon="6.262920901555262"><ele>902.0</ele><time>2026-04-07T14:43:06Z</time></trkpt><trkpt lat="43.94890368000503" lon="6.262965115238921"><ele>901.4999999999999</ele><time>2026-04-07T14:43:07Z</time></trkpt><trkpt lat="43.94882535616634" lon="6.263003496219568"><ele>901.0</ele><time>2026-04-07T14:43:08Z</time></trkpt><trkpt lat="43.948748788497994" lon="6.263038905792052"><ele>901.0</ele><time>2026-04-07T14:43:09Z</time></trkpt><trkpt lat="43.94866551411982" lon="6.263065516704933"><ele>900.9999999999999</ele><time>2026-04-07T14:43:10Z</time></trkpt><trkpt lat="43.94857191881008" lon="6.263080523426479"><ele>900.9999999999999</ele><time>2026-04-07T14:43:11Z</time></trkpt><trkpt lat="43.948467177920286" lon="6.263084173388394"><ele>901.0</ele><time>2026-04-07T14:43:12Z</time></trkpt><trkpt lat="43.94835145281256" lon="6.2630813213522245"><ele>901.0</ele><time>2026-04-07T14:43:13Z</time></trkpt><trkpt lat="43.948240728968344" lon="6.263067976272413"><ele>901.8</ele><time>2026-04-07T14:43:14Z</time></trkpt><trkpt lat="43.94813878488803" lon="6.263036372450197"><ele>902.5999999999999</ele><time>2026-04-07T14:43:15Z</time></trkpt><trkpt lat="43.9480390525214" lon="6.262991214164928"><ele>903.4</ele><time>2026-04-07T14:43:16Z</time></trkpt><trkpt lat="43.9479450427031" lon="6.262921206163099"><ele>904.2</ele><time>2026-04-07T14:43:17Z</time></trkpt><trkpt lat="43.947847136474586" lon="6.262842410828119"><ele>905.0</ele><time>2026-04-07T14:43:18Z</time></trkpt><trkpt lat="43.9477460655072" lon="6.262744298551752"><ele>905.0</ele><time>2026-04-07T14:43:19Z</time></trkpt><trkpt lat="43.94763996536797" lon="6.262644815539899"><ele>905.0</ele><time>2026-04-07T14:43:20Z</time></trkpt><trkpt lat="43.94753076646878" lon="6.262555432300121"><ele>905.0</ele><time>2026-04-07T14:43:21Z</time></trkpt><trkpt lat="43.947428273893905" lon="6.262460924761655"><ele>905.0</ele><time>2026-04-07T14:43:22Z</time></trkpt><trkpt lat="43.94732622995188" lon="6.262371711230665"><ele>905.2</ele><time>2026-04-07T14:43:23Z</time></trkpt><trkpt lat="43.94722559649434" lon="6.262288279506177"><ele>905.4</ele><time>2026-04-07T14:43:24Z</time></trkpt><trkpt lat="43.94712968434535" lon="6.2622041006105915"><ele>905.5999999999999</ele><time>2026-04-07T14:43:25Z</time></trkpt><trkpt lat="43.94705154562372" lon="6.262140540539935"><ele>905.8</ele><time>2026-04-07T14:43:26Z</time></trkpt><trkpt lat="43.946981041921305" lon="6.262102522445966"><ele>906.0</ele><time>2026-04-07T14:43:27Z</time></trkpt><trkpt lat="43.946861434354155" lon="6.262107102363663"><ele>906.0</ele><time>2026-04-07T14:43:29Z</time></trkpt><trkpt lat="43.94677401507074" lon="6.262207599074577"><ele>905.9999999999999</ele><time>2026-04-07T14:43:31Z</time></trkpt><trkpt lat="43.9467475588059" lon="6.262352683977938"><ele>905.9999999999999</ele><time>2026-04-07T14:43:33Z</time></trkpt><trkpt lat="43.94674182136601" lon="6.262444909599574"><ele>906.0</ele><time>2026-04-07T14:43:34Z</time></trkpt><trkpt lat="43.946720274547545" lon="6.262590842386211"><ele>906.0</ele><time>2026-04-07T14:43:36Z</time></trkpt><trkpt lat="43.94671447364109" lon="6.26268564472494"><ele>906.0</ele><time>2026-04-07T14:43:38Z</time></trkpt><trkpt lat="43.94673643184005" lon="6.262791022154829"><ele>905.9999999999999</ele><time>2026-04-07T14:43:59Z</time></trkpt><trkpt lat="43.94674079364052" lon="6.262881065127565"><ele>905.9999999999999</ele><time>2026-04-07T14:44:00Z</time></trkpt><trkpt lat="43.94677619013519" lon="6.263024261691111"><ele>906.0</ele><time>2026-04-07T14:44:02Z</time></trkpt><trkpt lat="43.94685664880702" lon="6.263238632913308"><ele>906.0</ele><time>2026-04-07T14:44:04Z</time></trkpt><trkpt lat="43.94692154953498" lon="6.263334298890179"><ele>906.1666666666666</ele><time>2026-04-07T14:44:05Z</time></trkpt><trkpt lat="43.94699247286183" lon="6.263429850882393"><ele>906.3333333333333</ele><time>2026-04-07T14:44:06Z</time></trkpt><trkpt lat="43.94706276697962" lon="6.263509394364467"><ele>906.5</ele><time>2026-04-07T14:44:07Z</time></trkpt><trkpt lat="43.947122265644" lon="6.263587559253451"><ele>906.6666666666666</ele><time>2026-04-07T14:44:08Z</time></trkpt><trkpt lat="43.947170787517535" lon="6.2636644585627765"><ele>906.8333333333333</ele><time>2026-04-07T14:44:09Z</time></trkpt><trkpt lat="43.947199853502916" lon="6.263747180120009"><ele>907.0</ele><time>2026-04-07T14:44:10Z</time></trkpt><trkpt lat="43.94716648734276" lon="6.263861536456002"><ele>907.0</ele><time>2026-04-07T14:44:12Z</time></trkpt><trkpt lat="43.9470553860921" lon="6.263879993867002"><ele>907.0</ele><time>2026-04-07T14:44:14Z</time></trkpt><trkpt lat="43.946927003066676" lon="6.263849504216935"><ele>907.0</ele><time>2026-04-07T14:44:16Z</time></trkpt><trkpt lat="43.94684984819445" lon="6.263850959348746"><ele>907.0</ele><time>2026-04-07T14:44:17Z</time></trkpt><trkpt lat="43.9467676267312" lon="6.2638467182295114"><ele>907.0</ele><time>2026-04-07T14:44:18Z</time></trkpt><trkpt lat="43.946681014064254" lon="6.263837981347316"><ele>909.2</ele><time>2026-04-07T14:44:19Z</time></trkpt><trkpt lat="43.94659869490512" lon="6.263849953264583"><ele>911.4000000000001</ele><time>2026-04-07T14:44:20Z</time></trkpt><trkpt lat="43.946502620263686" lon="6.263885879560436"><ele>913.5999999999999</ele><time>2026-04-07T14:44:21Z</time></trkpt><trkpt lat="43.94640873846136" lon="6.26392872682271"><ele>915.8</ele><time>2026-04-07T14:44:22Z</time></trkpt><trkpt lat="43.94631689816465" lon="6.263980190996632"><ele>918.0</ele><time>2026-04-07T14:44:23Z</time></trkpt><trkpt lat="43.946224151762706" lon="6.26403967497214"><ele>918.0</ele><time>2026-04-07T14:44:24Z</time></trkpt><trkpt lat="43.94613224761769" lon="6.264104131281847"><ele>918.0</ele><time>2026-04-07T14:44:25Z</time></trkpt><trkpt lat="43.946035207217804" lon="6.2641610676662625"><ele>918.0</ele><time>2026-04-07T14:44:26Z</time></trkpt><trkpt lat="43.945919964473305" lon="6.264209724606604"><ele>918.0</ele><time>2026-04-07T14:44:27Z</time></trkpt><trkpt lat="43.945797640638695" lon="6.264254002665792"><ele>919.8</ele><time>2026-04-07T14:44:28Z</time></trkpt><trkpt lat="43.94568728313596" lon="6.264306175712949"><ele>921.5999999999999</ele><time>2026-04-07T14:44:29Z</time></trkpt><trkpt lat="43.945579238432686" lon="6.2643496372525505"><ele>923.4000000000001</ele><time>2026-04-07T14:44:30Z</time></trkpt><trkpt lat="43.9454798401484" lon="6.264377834468431"><ele>925.2</ele><time>2026-04-07T14:44:31Z</time></trkpt><trkpt lat="43.94539578628192" lon="6.26438449504043"><ele>927.0</ele><time>2026-04-07T14:44:32Z</time></trkpt><trkpt lat="43.945330105885475" lon="6.264356319542071"><ele>927.0</ele><time>2026-04-07T14:44:34Z</time></trkpt><trkpt lat="43.94531886300282" lon="6.264233220323719"><ele>927.0</ele><time>2026-04-07T14:44:37.001Z</time></trkpt><trkpt lat="43.94539528361756" lon="6.264128680302407"><ele>927.0</ele><time>2026-04-07T14:44:39.001Z</time></trkpt><trkpt lat="43.94550613456731" lon="6.264097900903321"><ele>927.0</ele><time>2026-04-07T14:44:41.001Z</time></trkpt><trkpt lat="43.945571517235976" lon="6.26406030579621"><ele>927.0</ele><time>2026-04-07T14:44:42.001Z</time></trkpt><trkpt lat="43.94562963304761" lon="6.264017389707751"><ele>927.0</ele><time>2026-04-07T14:44:43.001Z</time></trkpt><trkpt lat="43.94569547635329" lon="6.263902906811016"><ele>927.0</ele><time>2026-04-07T14:44:45.001Z</time></trkpt><trkpt lat="43.94566211091475" lon="6.263766985856906"><ele>927.0</ele><time>2026-04-07T14:44:47.001Z</time></trkpt><trkpt lat="43.94555732612431" lon="6.263734639147518"><ele>927.0</ele><time>2026-04-07T14:44:49.001Z</time></trkpt><trkpt lat="43.945447153535646" lon="6.263825196433961"><ele>927.0</ele><time>2026-04-07T14:44:51.001Z</time></trkpt><trkpt lat="43.94538785731895" lon="6.263894333686591"><ele>927.0</ele><time>2026-04-07T14:44:52.001Z</time></trkpt><trkpt lat="43.9453132890589" lon="6.263962486750641"><ele>927.0</ele><time>2026-04-07T14:44:53.001Z</time></trkpt><trkpt lat="43.94523293793385" lon="6.264009102005379"><ele>927.0</ele><time>2026-04-07T14:44:54.001Z</time></trkpt><trkpt lat="43.945144928750864" lon="6.264036467827304"><ele>927.0</ele><time>2026-04-07T14:44:55.001Z</time></trkpt><trkpt lat="43.945055513279705" lon="6.2640570398342685"><ele>927.0</ele><time>2026-04-07T14:44:56.001Z</time></trkpt><trkpt lat="43.94495807773632" lon="6.264076626160719"><ele>927.0</ele><time>2026-04-07T14:44:57.001Z</time></trkpt><trkpt lat="43.94484997062055" lon="6.264104897970865"><ele>928.8</ele><time>2026-04-07T14:44:58.001Z</time></trkpt><trkpt lat="43.944738034892715" lon="6.264143353144237"><ele>930.6</ele><time>2026-04-07T14:44:59.001Z</time></trkpt><trkpt lat="43.94464660970694" lon="6.264195884725974"><ele>932.3999999999999</ele><time>2026-04-07T14:45:00.001Z</time></trkpt><trkpt lat="43.94457223212496" lon="6.264245489590653"><ele>934.1999999999999</ele><time>2026-04-07T14:45:02.001Z</time></trkpt><trkpt lat="43.9445119546967" lon="6.264210927262603"><ele>936.0</ele><time>2026-04-07T14:46:57.001Z</time></trkpt><trkpt lat="43.94442200697951" lon="6.26417634892652"><ele>936.0</ele><time>2026-04-07T14:46:59.001Z</time></trkpt><trkpt lat="43.94431506786357" lon="6.2642013476544305"><ele>936.0</ele><time>2026-04-07T14:47:01.001Z</time></trkpt><trkpt lat="43.94425242763731" lon="6.2642104360992334"><ele>936.0</ele><time>2026-04-07T14:47:02.001Z</time></trkpt><trkpt lat="43.94418422376095" lon="6.264227188790698"><ele>936.0</ele><time>2026-04-07T14:47:03.001Z</time></trkpt><trkpt lat="43.944112716263625" lon="6.264229928428112"><ele>936.0</ele><time>2026-04-07T14:47:04.001Z</time></trkpt><trkpt lat="43.94400396359443" lon="6.264183653458725"><ele>936.0</ele><time>2026-04-07T14:47:06.001Z</time></trkpt><trkpt lat="43.943941577731046" lon="6.2640855890997775"><ele>935.1999999999999</ele><time>2026-04-07T14:47:08.001Z</time></trkpt><trkpt lat="43.943949691548504" lon="6.2639048719015396"><ele>934.3999999999999</ele><time>2026-04-07T14:47:10.001Z</time></trkpt><trkpt lat="43.9439603612274" lon="6.2638069086678385"><ele>933.6</ele><time>2026-04-07T14:47:11.001Z</time></trkpt><trkpt lat="43.943910794974784" lon="6.263706791897625"><ele>932.8</ele><time>2026-04-07T14:47:13.001Z</time></trkpt><trkpt lat="43.94381715673446" lon="6.263627253650425"><ele>932.0</ele><time>2026-04-07T14:47:15.001Z</time></trkpt><trkpt lat="43.943738595929446" lon="6.263588175745354"><ele>932.0000000000001</ele><time>2026-04-07T14:47:17.001Z</time></trkpt><trkpt lat="43.943643237816545" lon="6.263591837247616"><ele>932.0</ele><time>2026-04-07T14:47:19.001Z</time></trkpt><trkpt lat="43.943549814773604" lon="6.263539539086361"><ele>932.0</ele><time>2026-04-07T14:47:21.001Z</time></trkpt><trkpt lat="43.9434977759992" lon="6.26348553494039"><ele>932.0</ele><time>2026-04-07T14:47:22.001Z</time></trkpt><trkpt lat="43.943430138103245" lon="6.263412237920309"><ele>932.0000000000001</ele><time>2026-04-07T14:47:23.001Z</time></trkpt><trkpt lat="43.943374671993624" lon="6.263340795717597"><ele>932.0</ele><time>2026-04-07T14:47:24.001Z</time></trkpt><trkpt lat="43.94332297170354" lon="6.263267610909435"><ele>932.2</ele><time>2026-04-07T14:47:25.001Z</time></trkpt><trkpt lat="43.94321305846747" lon="6.263148030733692"><ele>932.4000000000001</ele><time>2026-04-07T14:47:27.001Z</time></trkpt><trkpt lat="43.943151476345164" lon="6.263084570729309"><ele>932.5999999999999</ele><time>2026-04-07T14:47:28.001Z</time></trkpt><trkpt lat="43.943092233621755" lon="6.263022816824802"><ele>932.8</ele><time>2026-04-07T14:47:29.001Z</time></trkpt><trkpt lat="43.94298397901619" lon="6.2629338017073115"><ele>933.0</ele><time>2026-04-07T14:47:31.001Z</time></trkpt><trkpt lat="43.942919591063834" lon="6.262898611046498"><ele>933.0</ele><time>2026-04-07T14:47:32.001Z</time></trkpt><trkpt lat="43.9428627378876" lon="6.262855628356268"><ele>933.0</ele><time>2026-04-07T14:47:33Z</time></trkpt><trkpt lat="43.94276998687674" lon="6.262786476181279"><ele>933.0</ele><time>2026-04-07T14:47:35Z</time></trkpt><trkpt lat="43.94266307551213" lon="6.262768029096047"><ele>933.0</ele><time>2026-04-07T14:47:37Z</time></trkpt><trkpt lat="43.942558750161695" lon="6.262735113058259"><ele>933.0</ele><time>2026-04-07T14:47:39Z</time></trkpt><trkpt lat="43.94249254574208" lon="6.262697264775484"><ele>933.6666666666666</ele><time>2026-04-07T14:47:41Z</time></trkpt><trkpt lat="43.94246732626292" lon="6.262547744740458"><ele>934.3333333333333</ele><time>2026-04-07T14:47:44Z</time></trkpt><trkpt lat="43.942496880888086" lon="6.2624455981672895"><ele>935.0</ele><time>2026-04-07T14:47:46Z</time></trkpt><trkpt lat="43.942523501876046" lon="6.262325905035338"><ele>935.6666666666666</ele><time>2026-04-07T14:47:49Z</time></trkpt><trkpt lat="43.942541955360255" lon="6.262204062611134"><ele>936.3333333333333</ele><time>2026-04-07T14:47:51Z</time></trkpt><trkpt lat="43.942528379044006" lon="6.2621067152497245"><ele>937.0</ele><time>2026-04-07T14:47:54Z</time></trkpt><trkpt lat="43.94254338312502" lon="6.262011494557255"><ele>937.4999999999999</ele><time>2026-04-07T14:47:57Z</time></trkpt><trkpt lat="43.94253641880144" lon="6.261913649014619"><ele>938.0</ele><time>2026-04-07T14:47:59Z</time></trkpt><trkpt lat="43.94253789276693" lon="6.261774819954874"><ele>938.5</ele><time>2026-04-07T14:48:01Z</time></trkpt><trkpt lat="43.94254670179422" lon="6.261681619899459"><ele>939.0</ele><time>2026-04-07T14:48:02Z</time></trkpt><trkpt lat="43.94255130961343" lon="6.261582953861923"><ele>939.4999999999999</ele><time>2026-04-07T14:48:03Z</time></trkpt><trkpt lat="43.942557403733986" lon="6.261445778376738"><ele>940.0</ele><time>2026-04-07T14:48:05Z</time></trkpt><trkpt lat="43.94255795703093" lon="6.261310063060174"><ele>941.6666666666666</ele><time>2026-04-07T14:48:07Z</time></trkpt><trkpt lat="43.942585383406666" lon="6.261145531517024"><ele>943.3333333333333</ele><time>2026-04-07T14:48:09Z</time></trkpt><trkpt lat="43.9426178531293" lon="6.261069888507685"><ele>945.0</ele><time>2026-04-07T14:48:10Z</time></trkpt><trkpt lat="43.94269581450576" lon="6.260972416622509"><ele>946.6666666666667</ele><time>2026-04-07T14:48:12Z</time></trkpt><trkpt lat="43.94270705963534" lon="6.260862894966719"><ele>948.3333333333334</ele><time>2026-04-07T14:48:14Z</time></trkpt><trkpt lat="43.94269318391254" lon="6.260776267538956"><ele>950.0</ele><time>2026-04-07T14:48:15Z</time></trkpt><trkpt lat="43.942665029514735" lon="6.260681675254124"><ele>951.5000000000001</ele><time>2026-04-07T14:48:16Z</time></trkpt><trkpt lat="43.942622248097976" lon="6.2606109866547195"><ele>953.0</ele><time>2026-04-07T14:48:17Z</time></trkpt><trkpt lat="43.94257384651663" lon="6.260542758102132"><ele>954.5</ele><time>2026-04-07T14:48:18Z</time></trkpt><trkpt lat="43.94249445033136" lon="6.260442887447152"><ele>956.0</ele><time>2026-04-07T14:48:20Z</time></trkpt><trkpt lat="43.94242907025286" lon="6.260383854580678"><ele>957.5000000000001</ele><time>2026-04-07T14:48:22Z</time></trkpt><trkpt lat="43.94235002876008" lon="6.260339204646604"><ele>959.0</ele><time>2026-04-07T14:48:25Z</time></trkpt><trkpt lat="43.94226761989441" lon="6.260330874732955"><ele>959.0000000000001</ele><time>2026-04-07T14:48:27Z</time></trkpt><trkpt lat="43.94216562772186" lon="6.260309474103897"><ele>959.0</ele><time>2026-04-07T14:48:29Z</time></trkpt><trkpt lat="43.94208475008502" lon="6.260294916222815"><ele>959.0</ele><time>2026-04-07T14:48:31Z</time></trkpt><trkpt lat="43.942038998942316" lon="6.260222847831127"><ele>959.0</ele><time>2026-04-07T14:48:33Z</time></trkpt><trkpt lat="43.94205937071628" lon="6.2601355064757005"><ele>959.0000000000001</ele><time>2026-04-07T14:48:35Z</time></trkpt><trkpt lat="43.94213524469096" lon="6.26002408981497"><ele>959.0</ele><time>2026-04-07T14:48:37Z</time></trkpt><trkpt lat="43.942215077070266" lon="6.259919562901265"><ele>959.0000000000001</ele><time>2026-04-07T14:48:39Z</time></trkpt><trkpt lat="43.942267042710114" lon="6.259850603279306"><ele>959.0</ele><time>2026-04-07T14:48:40Z</time></trkpt><trkpt lat="43.942328580594996" lon="6.259764633823924"><ele>959.0</ele><time>2026-04-07T14:48:41Z</time></trkpt><trkpt lat="43.94238766000014" lon="6.259706950269267"><ele>959.0</ele><time>2026-04-07T14:48:42Z</time></trkpt><trkpt lat="43.94247371215448" lon="6.259696219025018"><ele>959.0000000000001</ele><time>2026-04-07T14:48:44Z</time></trkpt><trkpt lat="43.942568596257054" lon="6.259713742441073"><ele>959.0</ele><time>2026-04-07T14:48:46Z</time></trkpt><trkpt lat="43.942634396353604" lon="6.259710262576425"><ele>958.0</ele><time>2026-04-07T14:48:47Z</time></trkpt><trkpt lat="43.94275184232519" lon="6.259712574241938"><ele>957.0000000000001</ele><time>2026-04-07T14:48:49Z</time></trkpt><trkpt lat="43.942862804233386" lon="6.259720502898887"><ele>956.0000000000001</ele><time>2026-04-07T14:48:51Z</time></trkpt><trkpt lat="43.942930055777644" lon="6.259732977654487"><ele>955.0</ele><time>2026-04-07T14:48:53Z</time></trkpt><trkpt lat="43.94292441023543" lon="6.2596381145258615"><ele>954.0</ele><time>2026-04-07T14:48:58Z</time></trkpt><trkpt lat="43.94281834419472" lon="6.259568770916777"><ele>954.0</ele><time>2026-04-07T14:49:06Z</time></trkpt><trkpt lat="43.94276127380304" lon="6.259530474805276"><ele>954.0</ele><time>2026-04-07T14:49:07Z</time></trkpt><trkpt lat="43.942697037594755" lon="6.259480425851779"><ele>954.0</ele><time>2026-04-07T14:49:08Z</time></trkpt><trkpt lat="43.9426154650658" lon="6.259429288888125"><ele>954.0</ele><time>2026-04-07T14:49:09Z</time></trkpt><trkpt lat="43.942532852546485" lon="6.259386820846775"><ele>954.0</ele><time>2026-04-07T14:49:10Z</time></trkpt><trkpt lat="43.94245083034569" lon="6.259356985980917"><ele>954.0</ele><time>2026-04-07T14:49:11Z</time></trkpt><trkpt lat="43.9423183627766" lon="6.259346777016524"><ele>956.2</ele><time>2026-04-07T14:49:13Z</time></trkpt><trkpt lat="43.942181461468444" lon="6.2593500325862035"><ele>958.4000000000001</ele><time>2026-04-07T14:49:15Z</time></trkpt><trkpt lat="43.94206401561401" lon="6.259276975484999"><ele>960.6</ele><time>2026-04-07T14:49:17Z</time></trkpt><trkpt lat="43.94201370781801" lon="6.259209796052686"><ele>962.8</ele><time>2026-04-07T14:49:18Z</time></trkpt><trkpt lat="43.94196667062605" lon="6.259146286280637"><ele>965.0</ele><time>2026-04-07T14:49:19Z</time></trkpt><trkpt lat="43.94185334936337" lon="6.25908437337275"><ele>965.0</ele><time>2026-04-07T14:49:21Z</time></trkpt><trkpt lat="43.941729612952074" lon="6.259096831769939"><ele>965.0</ele><time>2026-04-07T14:49:23Z</time></trkpt><trkpt lat="43.9416329418631" lon="6.259072566505145"><ele>965.0</ele><time>2026-04-07T14:49:25Z</time></trkpt><trkpt lat="43.94151506731679" lon="6.259037962877789"><ele>965.0</ele><time>2026-04-07T14:49:27Z</time></trkpt><trkpt lat="43.9414346621343" lon="6.2590033288440585"><ele>965.0</ele><time>2026-04-07T14:49:28Z</time></trkpt><trkpt lat="43.9413772539292" lon="6.258955662457682"><ele>967.8333333333334</ele><time>2026-04-07T14:49:29Z</time></trkpt><trkpt lat="43.94132502767935" lon="6.258902374014532"><ele>970.6666666666667</ele><time>2026-04-07T14:49:30Z</time></trkpt><trkpt lat="43.941267723263074" lon="6.258851029520256"><ele>973.5</ele><time>2026-04-07T14:49:31Z</time></trkpt><trkpt lat="43.94120077313476" lon="6.258802493133116"><ele>976.3333333333333</ele><time>2026-04-07T14:49:32Z</time></trkpt><trkpt lat="43.94107908067408" lon="6.258750519912992"><ele>979.1666666666666</ele><time>2026-04-07T14:49:34Z</time></trkpt><trkpt lat="43.94100182176242" lon="6.258748806043212"><ele>982.0</ele><time>2026-04-07T14:49:35Z</time></trkpt><trkpt lat="43.94092782931323" lon="6.258761636088853"><ele>984.9999999999999</ele><time>2026-04-07T14:49:36Z</time></trkpt><trkpt lat="43.940808500752276" lon="6.258797983132963"><ele>988.0</ele><time>2026-04-07T14:49:38Z</time></trkpt><trkpt lat="43.9407421400144" lon="6.258828272997952"><ele>991.0</ele><time>2026-04-07T14:49:39Z</time></trkpt><trkpt lat="43.94067770986268" lon="6.258865941740587"><ele>994.0</ele><time>2026-04-07T14:49:40Z</time></trkpt><trkpt lat="43.940605214541925" lon="6.258938154768659"><ele>996.9999999999999</ele><time>2026-04-07T14:49:41Z</time></trkpt><trkpt lat="43.940532885698964" lon="6.258940507209489"><ele>1000.0</ele><time>2026-04-07T14:49:43Z</time></trkpt><trkpt lat="43.94047161821733" lon="6.258885619206169"><ele>1000.0</ele><time>2026-04-07T14:49:46Z</time></trkpt><trkpt lat="43.94041883646212" lon="6.258757793179868"><ele>1000.0</ele><time>2026-04-07T14:49:48Z</time></trkpt><trkpt lat="43.940349350212955" lon="6.258657446164056"><ele>1000.0</ele><time>2026-04-07T14:49:50Z</time></trkpt><trkpt lat="43.9402354096349" lon="6.258634434883214"><ele>1000.0</ele><time>2026-04-07T14:49:52Z</time></trkpt><trkpt lat="43.940106002709435" lon="6.258658486244158"><ele>1002.4999999999999</ele><time>2026-04-07T14:49:54Z</time></trkpt><trkpt lat="43.939984533982795" lon="6.258601420526833"><ele>1005.0</ele><time>2026-04-07T14:49:56Z</time></trkpt><trkpt lat="43.93991588607831" lon="6.258558022691381"><ele>1007.5</ele><time>2026-04-07T14:49:57Z</time></trkpt><trkpt lat="43.93984726714544" lon="6.258567259392668"><ele>1010.0</ele><time>2026-04-07T14:49:59Z</time></trkpt><trkpt lat="43.93977336808205" lon="6.2585450732900565"><ele>1012.4999999999999</ele><time>2026-04-07T14:50:04Z</time></trkpt><trkpt lat="43.93970295295427" lon="6.2585334068443075"><ele>1015.0</ele><time>2026-04-07T14:50:59Z</time></trkpt><trkpt lat="43.939608791412724" lon="6.2585008409812115"><ele>1015.0</ele><time>2026-04-07T14:51:01Z</time></trkpt><trkpt lat="43.9395474416061" lon="6.258385244690107"><ele>1015.0</ele><time>2026-04-07T14:51:03Z</time></trkpt><trkpt lat="43.93945701224667" lon="6.258300591303343"><ele>1015.0</ele><time>2026-04-07T14:51:05Z</time></trkpt><trkpt lat="43.93935886635841" lon="6.25821447666121"><ele>1015.0</ele><time>2026-04-07T14:51:07Z</time></trkpt><trkpt lat="43.93930232780503" lon="6.258079951396778"><ele>1015.0</ele><time>2026-04-07T14:51:09Z</time></trkpt><trkpt lat="43.93925169121297" lon="6.25795787116647"><ele>1014.4999999999999</ele><time>2026-04-07T14:51:11Z</time></trkpt><trkpt lat="43.93923498346833" lon="6.257799119949969"><ele>1014.0</ele><time>2026-04-07T14:51:13Z</time></trkpt><trkpt lat="43.93923540526972" lon="6.257698197542568"><ele>1013.5</ele><time>2026-04-07T14:51:14Z</time></trkpt><trkpt lat="43.939220894794765" lon="6.257590262875327"><ele>1013.0</ele><time>2026-04-07T14:51:15Z</time></trkpt><trkpt lat="43.93919842637464" lon="6.257430564191623"><ele>1012.4999999999999</ele><time>2026-04-07T14:51:17Z</time></trkpt><trkpt lat="43.93916598053304" lon="6.257354121314361"><ele>1012.0</ele><time>2026-04-07T14:51:18Z</time></trkpt><trkpt lat="43.93912204967014" lon="6.257286690685733"><ele>1012.8333333333333</ele><time>2026-04-07T14:51:19Z</time></trkpt><trkpt lat="43.939035856549275" lon="6.257178092215479"><ele>1013.6666666666666</ele><time>2026-04-07T14:51:21Z</time></trkpt><trkpt lat="43.938973200096655" lon="6.257145692134771"><ele>1014.5</ele><time>2026-04-07T14:51:22Z</time></trkpt><trkpt lat="43.938889782906614" lon="6.257097602766494"><ele>1015.3333333333333</ele><time>2026-04-07T14:51:23Z</time></trkpt><trkpt lat="43.938795686197224" lon="6.257072545721559"><ele>1016.1666666666666</ele><time>2026-04-07T14:51:24Z</time></trkpt><trkpt lat="43.93873284870116" lon="6.257077938483436"><ele>1017.0</ele><time>2026-04-07T14:51:25Z</time></trkpt><trkpt lat="43.93866131554386" lon="6.2570357339455125"><ele>1017.0</ele><time>2026-04-07T14:51:26Z</time></trkpt><trkpt lat="43.938581154864025" lon="6.2570085629167"><ele>1017.0</ele><time>2026-04-07T14:51:27Z</time></trkpt><trkpt lat="43.9385148963451" lon="6.256989793636847"><ele>1017.0</ele><time>2026-04-07T14:51:28Z</time></trkpt><trkpt lat="43.93844585931398" lon="6.256992227472368"><ele>1017.0</ele><time>2026-04-07T14:51:29Z</time></trkpt><trkpt lat="43.93837754146783" lon="6.256980891878121"><ele>1017.0</ele><time>2026-04-07T14:51:30Z</time></trkpt><trkpt lat="43.93825667805401" lon="6.256993604410041"><ele>1017.0</ele><time>2026-04-07T14:51:32Z</time></trkpt><trkpt lat="43.938154759846675" lon="6.257020565551947"><ele>1014.3333333333334</ele><time>2026-04-07T14:51:34Z</time></trkpt><trkpt lat="43.938093494886935" lon="6.2569853344560595"><ele>1011.6666666666667</ele><time>2026-04-07T14:51:36Z</time></trkpt><trkpt lat="43.9381115074842" lon="6.25684864897371"><ele>1009.0</ele><time>2026-04-07T14:51:38Z</time></trkpt><trkpt lat="43.93817124629044" lon="6.256704633757419"><ele>1006.3333333333334</ele><time>2026-04-07T14:51:40Z</time></trkpt><trkpt lat="43.93818266743411" lon="6.256604449602651"><ele>1003.6666666666667</ele><time>2026-04-07T14:51:41Z</time></trkpt><trkpt lat="43.93821405919443" lon="6.256516309703009"><ele>1001.0</ele><time>2026-04-07T14:51:42Z</time></trkpt><trkpt lat="43.93824573028503" lon="6.256414401160661"><ele>1000.7142857142858</ele><time>2026-04-07T14:51:43Z</time></trkpt><trkpt lat="43.93827580150741" lon="6.256317636743659"><ele>1000.4285714285714</ele><time>2026-04-07T14:51:44Z</time></trkpt><trkpt lat="43.93830272852404" lon="6.256227994641981"><ele>1000.1428571428571</ele><time>2026-04-07T14:51:45Z</time></trkpt><trkpt lat="43.93832345281512" lon="6.256130427720175"><ele>999.8571428571429</ele><time>2026-04-07T14:51:46Z</time></trkpt><trkpt lat="43.93832560295805" lon="6.256041109181108"><ele>999.5714285714287</ele><time>2026-04-07T14:51:47Z</time></trkpt><trkpt lat="43.93832463374516" lon="6.255950786957297"><ele>999.2857142857143</ele><time>2026-04-07T14:51:48Z</time></trkpt><trkpt lat="43.93832119526016" lon="6.255855491211623"><ele>999.0</ele><time>2026-04-07T14:51:49Z</time></trkpt><trkpt lat="43.93832326068893" lon="6.255696555479362"><ele>999.4000000000001</ele><time>2026-04-07T14:51:51Z</time></trkpt><trkpt lat="43.93829458835468" lon="6.255573830286718"><ele>999.8000000000001</ele><time>2026-04-07T14:51:53Z</time></trkpt><trkpt lat="43.938205620763696" lon="6.255453195165537"><ele>1000.1999999999999</ele><time>2026-04-07T14:51:55Z</time></trkpt><trkpt lat="43.93813980854795" lon="6.255425756514556"><ele>1000.5999999999999</ele><time>2026-04-07T14:51:56Z</time></trkpt><trkpt lat="43.93802973090914" lon="6.255441764816308"><ele>1001.0</ele><time>2026-04-07T14:51:58Z</time></trkpt><trkpt lat="43.937961516338234" lon="6.255458943104587"><ele>1001.0000000000001</ele><time>2026-04-07T14:51:59Z</time></trkpt><trkpt lat="43.93788715286376" lon="6.255482082159353"><ele>1001.0</ele><time>2026-04-07T14:52:00Z</time></trkpt><trkpt lat="43.9378031537774" lon="6.255515930515611"><ele>1001.0</ele><time>2026-04-07T14:52:01Z</time></trkpt><trkpt lat="43.937729141012774" lon="6.255569161939958"><ele>1001.0</ele><time>2026-04-07T14:52:02Z</time></trkpt><trkpt lat="43.937668698535965" lon="6.255605847275432"><ele>1001.0000000000001</ele><time>2026-04-07T14:52:03Z</time></trkpt><trkpt lat="43.937578219216924" lon="6.255627693600462"><ele>1001.0</ele><time>2026-04-07T14:52:04Z</time></trkpt><trkpt lat="43.93751120240822" lon="6.255611139656195"><ele>1001.1999999999999</ele><time>2026-04-07T14:52:05Z</time></trkpt><trkpt lat="43.93742531023169" lon="6.255593946446868"><ele>1001.3999999999999</ele><time>2026-04-07T14:52:06Z</time></trkpt><trkpt lat="43.937329830352304" lon="6.255606540929617"><ele>1001.6</ele><time>2026-04-07T14:52:07Z</time></trkpt><trkpt lat="43.93723317158998" lon="6.255633331693615"><ele>1001.8</ele><time>2026-04-07T14:52:08Z</time></trkpt><trkpt lat="43.93714874307738" lon="6.25566737333141"><ele>1002.0</ele><time>2026-04-07T14:52:09Z</time></trkpt><trkpt lat="43.93707293070989" lon="6.255713376914116"><ele>1000.5</ele><time>2026-04-07T14:52:10Z</time></trkpt><trkpt lat="43.93699854772159" lon="6.255762289672297"><ele>999.0</ele><time>2026-04-07T14:52:11Z</time></trkpt><trkpt lat="43.93690855879012" lon="6.255786019018193"><ele>997.5</ele><time>2026-04-07T14:52:12Z</time></trkpt><trkpt lat="43.936842301155" lon="6.255839999725485"><ele>996.0</ele><time>2026-04-07T14:52:13Z</time></trkpt><trkpt lat="43.93675153987396" lon="6.2558753576321715"><ele>994.5</ele><time>2026-04-07T14:52:14Z</time></trkpt><trkpt lat="43.936666749786525" lon="6.255924029901549"><ele>993.0</ele><time>2026-04-07T14:52:15Z</time></trkpt><trkpt lat="43.93658415478716" lon="6.255965054011482"><ele>993.0</ele><time>2026-04-07T14:52:16Z</time></trkpt><trkpt lat="43.936502611904665" lon="6.255996415655892"><ele>993.0</ele><time>2026-04-07T14:52:17Z</time></trkpt><trkpt lat="43.936426058733595" lon="6.256037841330485"><ele>993.0</ele><time>2026-04-07T14:52:18Z</time></trkpt><trkpt lat="43.936341817231295" lon="6.256054357495882"><ele>993.0</ele><time>2026-04-07T14:52:19Z</time></trkpt><trkpt lat="43.9362492668816" lon="6.256047380189066"><ele>993.0</ele><time>2026-04-07T14:52:20Z</time></trkpt><trkpt lat="43.93614529859663" lon="6.256082266187342"><ele>993.0</ele><time>2026-04-07T14:52:21Z</time></trkpt><trkpt lat="43.93605192822455" lon="6.256093592379872"><ele>993.0</ele><time>2026-04-07T14:52:22Z</time></trkpt><trkpt lat="43.93596557568633" lon="6.256088864045594"><ele>993.0</ele><time>2026-04-07T14:52:23Z</time></trkpt><trkpt lat="43.93587683745934" lon="6.256100875075918"><ele>993.0</ele><time>2026-04-07T14:52:24Z</time></trkpt><trkpt lat="43.93577797038197" lon="6.256110332143757"><ele>993.0</ele><time>2026-04-07T14:52:25Z</time></trkpt><trkpt lat="43.93570693444133" lon="6.256117292551619"><ele>993.0</ele><time>2026-04-07T14:52:26Z</time></trkpt><trkpt lat="43.93562418376978" lon="6.256145118763249"><ele>992.1666666666666</ele><time>2026-04-07T14:52:27Z</time></trkpt><trkpt lat="43.93554517859134" lon="6.256140926408898"><ele>991.3333333333333</ele><time>2026-04-07T14:52:28Z</time></trkpt><trkpt lat="43.93546545344207" lon="6.256124392848897"><ele>990.5</ele><time>2026-04-07T14:52:29Z</time></trkpt><trkpt lat="43.93539093657756" lon="6.256115431306025"><ele>989.6666666666666</ele><time>2026-04-07T14:52:30Z</time></trkpt><trkpt lat="43.935318638731026" lon="6.256098549471495"><ele>988.8333333333333</ele><time>2026-04-07T14:52:31Z</time></trkpt><trkpt lat="43.93524147715363" lon="6.256063215738006"><ele>988.0</ele><time>2026-04-07T14:52:32Z</time></trkpt><trkpt lat="43.93515689613139" lon="6.256040514678628"><ele>987.9999999999999</ele><time>2026-04-07T14:52:33Z</time></trkpt><trkpt lat="43.9350760341359" lon="6.256007285147608"><ele>988.0</ele><time>2026-04-07T14:52:34Z</time></trkpt><trkpt lat="43.934990536971355" lon="6.255978375475215"><ele>988.0</ele><time>2026-04-07T14:52:35Z</time></trkpt><trkpt lat="43.934900686421436" lon="6.255962694063946"><ele>988.0</ele><time>2026-04-07T14:52:36Z</time></trkpt><trkpt lat="43.934811049373664" lon="6.255942913913851"><ele>987.9999999999999</ele><time>2026-04-07T14:52:37Z</time></trkpt><trkpt lat="43.93472259721942" lon="6.255930878671871"><ele>988.0</ele><time>2026-04-07T14:52:38Z</time></trkpt><trkpt lat="43.93464183184234" lon="6.2559210097626385"><ele>987.1666666666666</ele><time>2026-04-07T14:52:39Z</time></trkpt><trkpt lat="43.93455655431384" lon="6.255917274641581"><ele>986.3333333333333</ele><time>2026-04-07T14:52:40Z</time></trkpt><trkpt lat="43.934475633199824" lon="6.255887488516102"><ele>985.5</ele><time>2026-04-07T14:52:41Z</time></trkpt><trkpt lat="43.93439625610626" lon="6.255877189872751"><ele>984.6666666666667</ele><time>2026-04-07T14:52:42Z</time></trkpt><trkpt lat="43.93432421809999" lon="6.2558626338945515"><ele>983.8333333333334</ele><time>2026-04-07T14:52:43Z</time></trkpt><trkpt lat="43.93425598087479" lon="6.255848946853437"><ele>983.0</ele><time>2026-04-07T14:52:44Z</time></trkpt><trkpt lat="43.934154966066274" lon="6.255851772789764"><ele>981.8</ele><time>2026-04-07T14:52:46Z</time></trkpt><trkpt lat="43.934059865854586" lon="6.255955184786192"><ele>980.5999999999999</ele><time>2026-04-07T14:52:48Z</time></trkpt><trkpt lat="43.93400775318845" lon="6.256055626637899"><ele>979.4000000000001</ele><time>2026-04-07T14:52:50Z</time></trkpt><trkpt lat="43.934008027392245" lon="6.256171308737974"><ele>978.2</ele><time>2026-04-07T14:52:52Z</time></trkpt><trkpt lat="43.93413136322099" lon="6.256278799349708"><ele>977.0</ele><time>2026-04-07T14:52:54Z</time></trkpt><trkpt lat="43.93419336457527" lon="6.256343194799989"><ele>975.8</ele><time>2026-04-07T14:52:55Z</time></trkpt><trkpt lat="43.93422148770662" lon="6.256480909741834"><ele>974.6</ele><time>2026-04-07T14:52:57Z</time></trkpt><trkpt lat="43.93412135021647" lon="6.256549616862927"><ele>973.3999999999999</ele><time>2026-04-07T14:52:59Z</time></trkpt><trkpt lat="43.934008684379556" lon="6.256557409549109"><ele>972.1999999999999</ele><time>2026-04-07T14:53:01Z</time></trkpt><trkpt lat="43.93394373544512" lon="6.256553365420947"><ele>971.0</ele><time>2026-04-07T14:53:02Z</time></trkpt><trkpt lat="43.93386191452186" lon="6.256528022416316"><ele>971.0</ele><time>2026-04-07T14:53:03Z</time></trkpt><trkpt lat="43.93378278211691" lon="6.25651637890464"><ele>970.9999999999999</ele><time>2026-04-07T14:53:04Z</time></trkpt><trkpt lat="43.93371469860744" lon="6.256583139910872"><ele>970.9999999999999</ele><time>2026-04-07T14:53:05Z</time></trkpt><trkpt lat="43.93359926656732" lon="6.2566765198314185"><ele>971.0</ele><time>2026-04-07T14:53:07Z</time></trkpt><trkpt lat="43.93348786615146" lon="6.2567392823400105"><ele>971.0</ele><time>2026-04-07T14:53:09Z</time></trkpt><trkpt lat="43.93342713025933" lon="6.256786175238949"><ele>971.0000000000001</ele><time>2026-04-07T14:53:10Z</time></trkpt><trkpt lat="43.933360396432974" lon="6.25685892970093"><ele>971.0</ele><time>2026-04-07T14:53:11Z</time></trkpt><trkpt lat="43.93330426167634" lon="6.256932939060401"><ele>971.0</ele><time>2026-04-07T14:53:12Z</time></trkpt><trkpt lat="43.93320036031056" lon="6.257042684669274"><ele>971.0</ele><time>2026-04-07T14:53:14Z</time></trkpt><trkpt lat="43.9331270480603" lon="6.257098651150519"><ele>971.0000000000001</ele><time>2026-04-07T14:53:15Z</time></trkpt><trkpt lat="43.93308670333221" lon="6.257183136996703"><ele>971.0</ele><time>2026-04-07T14:53:16Z</time></trkpt><trkpt lat="43.93304148019255" lon="6.257263204009564"><ele>970.6666666666667</ele><time>2026-04-07T14:53:17Z</time></trkpt><trkpt lat="43.93297167812081" lon="6.2573048616595575"><ele>970.3333333333334</ele><time>2026-04-07T14:53:18Z</time></trkpt><trkpt lat="43.93290076942201" lon="6.257338181782412"><ele>970.0</ele><time>2026-04-07T14:53:19Z</time></trkpt><trkpt lat="43.932835707069586" lon="6.257373821332549"><ele>969.6666666666667</ele><time>2026-04-07T14:53:20Z</time></trkpt><trkpt lat="43.932770433598755" lon="6.257429718656833"><ele>969.3333333333334</ele><time>2026-04-07T14:53:21Z</time></trkpt><trkpt lat="43.932699750100255" lon="6.257460087231431"><ele>969.0</ele><time>2026-04-07T14:53:22Z</time></trkpt><trkpt lat="43.93262636369625" lon="6.257527769302338"><ele>969.0</ele><time>2026-04-07T14:53:23Z</time></trkpt><trkpt lat="43.93256401624314" lon="6.257541967223744"><ele>969.0</ele><time>2026-04-07T14:53:24Z</time></trkpt><trkpt lat="43.93245795807226" lon="6.25759380955342"><ele>969.0</ele><time>2026-04-07T14:53:26Z</time></trkpt><trkpt lat="43.93234814182489" lon="6.257620324260911"><ele>969.0</ele><time>2026-04-07T14:53:28Z</time></trkpt><trkpt lat="43.932281151303634" lon="6.25759190245288"><ele>969.0</ele><time>2026-04-07T14:53:29Z</time></trkpt><trkpt lat="43.93221366974752" lon="6.257544123113451"><ele>969.0</ele><time>2026-04-07T14:53:30Z</time></trkpt><trkpt lat="43.9321496226212" lon="6.25751728430212"><ele>967.5</ele><time>2026-04-07T14:53:31Z</time></trkpt><trkpt lat="43.93204479839329" lon="6.257518519236384"><ele>966.0</ele><time>2026-04-07T14:53:33Z</time></trkpt><trkpt lat="43.931996174109884" lon="6.2575870593031535"><ele>964.5</ele><time>2026-04-07T14:53:34Z</time></trkpt><trkpt lat="43.93191851708954" lon="6.257622097250509"><ele>963.0</ele><time>2026-04-07T14:53:35Z</time></trkpt><trkpt lat="43.93184905461944" lon="6.257664916045763"><ele>961.5</ele><time>2026-04-07T14:53:36Z</time></trkpt><trkpt lat="43.93177886109511" lon="6.257704674104483"><ele>960.0</ele><time>2026-04-07T14:53:37Z</time></trkpt><trkpt lat="43.931717219462435" lon="6.257736602409214"><ele>959.1666666666666</ele><time>2026-04-07T14:53:38Z</time></trkpt><trkpt lat="43.93164470259348" lon="6.2577714644919675"><ele>958.3333333333333</ele><time>2026-04-07T14:53:39Z</time></trkpt><trkpt lat="43.93153353937994" lon="6.257806453114852"><ele>957.5</ele><time>2026-04-07T14:53:41Z</time></trkpt><trkpt lat="43.93145314498733" lon="6.257839297263713"><ele>956.6666666666666</ele><time>2026-04-07T14:53:43Z</time></trkpt><trkpt lat="43.931428748072" lon="6.257937932476005"><ele>955.8333333333333</ele><time>2026-04-07T14:53:45Z</time></trkpt><trkpt lat="43.931417437857455" lon="6.258028522525712"><ele>955.0</ele><time>2026-04-07T14:53:47Z</time></trkpt><trkpt lat="43.931372147942405" lon="6.2581148375591305"><ele>954.4</ele><time>2026-04-07T14:53:53Z</time></trkpt><trkpt lat="43.93130257180673" lon="6.258276972133142"><ele>953.8</ele><time>2026-04-07T14:53:55Z</time></trkpt><trkpt lat="43.931244911876576" lon="6.258391681003272"><ele>953.2</ele><time>2026-04-07T14:53:57Z</time></trkpt><trkpt lat="43.93119940733384" lon="6.258487891456868"><ele>952.6</ele><time>2026-04-07T14:53:59Z</time></trkpt><trkpt lat="43.93111898032272" lon="6.258514267699037"><ele>952.0</ele><time>2026-04-07T14:54:01Z</time></trkpt><trkpt lat="43.931038343914786" lon="6.258574779416025"><ele>951.9999999999999</ele><time>2026-04-07T14:54:03Z</time></trkpt><trkpt lat="43.93098288902372" lon="6.258632013568892"><ele>952.0</ele><time>2026-04-07T14:54:05Z</time></trkpt><trkpt lat="43.93094799716885" lon="6.258708198949379"><ele>952.0</ele><time>2026-04-07T14:54:07Z</time></trkpt><trkpt lat="43.930925439684195" lon="6.2587986096573465"><ele>952.0</ele><time>2026-04-07T14:54:12Z</time></trkpt><trkpt lat="43.930957812261475" lon="6.258681740812904"><ele>951.9999999999999</ele><time>2026-04-07T14:54:33Z</time></trkpt><trkpt lat="43.93102815745319" lon="6.258520010155506"><ele>952.0</ele><time>2026-04-07T14:54:52Z</time></trkpt><trkpt lat="43.93115931642675" lon="6.258549450222561"><ele>951.9999999999999</ele><time>2026-04-07T14:54:53Z</time></trkpt><trkpt lat="43.93121260951191" lon="6.258498778010376"><ele>952.0</ele><time>2026-04-07T14:54:54Z</time></trkpt><trkpt lat="43.931276393877454" lon="6.258415849540907"><ele>952.0</ele><time>2026-04-07T14:54:56Z</time></trkpt><trkpt lat="43.93134480282756" lon="6.258292198480453"><ele>952.0</ele><time>2026-04-07T14:54:58Z</time></trkpt><trkpt lat="43.93137779800309" lon="6.258195960688192"><ele>951.9999999999999</ele><time>2026-04-07T14:54:59Z</time></trkpt><trkpt lat="43.93141453156669" lon="6.2581184242667245"><ele>952.0</ele><time>2026-04-07T14:55:00Z</time></trkpt><trkpt lat="43.93143994644654" lon="6.2579826569528825"><ele>951.9999999999999</ele><time>2026-04-07T14:55:02Z</time></trkpt><trkpt lat="43.93140746355761" lon="6.25789705009859"><ele>952.0</ele><time>2026-04-07T14:55:21Z</time></trkpt><trkpt lat="43.93141595970632" lon="6.257990830973346"><ele>952.0</ele><time>2026-04-07T14:55:27Z</time></trkpt><trkpt lat="43.931385078538604" lon="6.258126897280798"><ele>952.0</ele><time>2026-04-07T14:55:30Z</time></trkpt><trkpt lat="43.93133510606478" lon="6.258204543059061"><ele>951.9999999999999</ele><time>2026-04-07T14:55:36Z</time></trkpt><trkpt lat="43.931292854540374" lon="6.258275924324908"><ele>952.0</ele><time>2026-04-07T14:55:39Z</time></trkpt><trkpt lat="43.93126811198628" lon="6.258381661387987"><ele>952.0</ele><time>2026-04-07T14:55:40Z</time></trkpt><trkpt lat="43.931186347643" lon="6.258462942168391"><ele>952.0</ele><time>2026-04-07T14:55:42Z</time></trkpt><trkpt lat="43.93107544385509" lon="6.258545483511511"><ele>952.0</ele><time>2026-04-07T14:55:44Z</time></trkpt><trkpt lat="43.93100665462252" lon="6.25859543958244"><ele>952.0</ele><time>2026-04-07T14:55:46Z</time></trkpt><trkpt lat="43.93092636131796" lon="6.258665004349066"><ele>952.0</ele><time>2026-04-07T14:55:48Z</time></trkpt><trkpt lat="43.930861463295244" lon="6.258721230918585"><ele>949.75</ele><time>2026-04-07T14:55:50Z</time></trkpt><trkpt lat="43.93069711855531" lon="6.258549039023045"><ele>947.5</ele><time>2026-04-07T14:55:52Z</time></trkpt><trkpt lat="43.93062426991328" lon="6.258616196932105"><ele>945.25</ele><time>2026-04-07T14:55:54Z</time></trkpt><trkpt lat="43.93053487360814" lon="6.258681393153677"><ele>943.0</ele><time>2026-04-07T14:55:56Z</time></trkpt><trkpt lat="43.93044869875386" lon="6.258721893515036"><ele>943.0</ele><time>2026-04-07T14:55:58Z</time></trkpt><trkpt lat="43.930365424519536" lon="6.258754354303375"><ele>943.0</ele><time>2026-04-07T14:56:00Z</time></trkpt><trkpt lat="43.930249228207856" lon="6.258797582107753"><ele>943.0</ele><time>2026-04-07T14:56:02Z</time></trkpt><trkpt lat="43.93018888273643" lon="6.258824410558078"><ele>943.0</ele><time>2026-04-07T14:56:03Z</time></trkpt><trkpt lat="43.93010222852166" lon="6.258881431514485"><ele>943.0</ele><time>2026-04-07T14:56:05Z</time></trkpt><trkpt lat="43.930031961353855" lon="6.258944703166884"><ele>942.1666666666666</ele><time>2026-04-07T14:56:13Z</time></trkpt><trkpt lat="43.93004071278762" lon="6.259100785268213"><ele>941.3333333333333</ele><time>2026-04-07T14:56:15Z</time></trkpt><trkpt lat="43.93007509402572" lon="6.259212062732982"><ele>940.5</ele><time>2026-04-07T14:56:17Z</time></trkpt><trkpt lat="43.93008199828259" lon="6.25930658710863"><ele>939.6666666666667</ele><time>2026-04-07T14:56:20Z</time></trkpt><trkpt lat="43.93005664645559" lon="6.259398038112181"><ele>938.8333333333334</ele><time>2026-04-07T14:56:22Z</time></trkpt><trkpt lat="43.930088612937425" lon="6.259497890492387"><ele>938.0</ele><time>2026-04-07T14:56:24Z</time></trkpt><trkpt lat="43.93016560731976" lon="6.259543925696422"><ele>938.0000000000001</ele><time>2026-04-07T14:56:26Z</time></trkpt><trkpt lat="43.93024734558234" lon="6.259485823729658"><ele>938.0</ele><time>2026-04-07T14:56:28Z</time></trkpt><trkpt lat="43.93030617853859" lon="6.259435858731078"><ele>938.0</ele><time>2026-04-07T14:56:29Z</time></trkpt><trkpt lat="43.93036196289683" lon="6.259378212684025"><ele>938.0</ele><time>2026-04-07T14:56:30Z</time></trkpt><trkpt lat="43.93041956385328" lon="6.259307464254126"><ele>938.0000000000001</ele><time>2026-04-07T14:56:31Z</time></trkpt><trkpt lat="43.930485127504745" lon="6.259227765392564"><ele>938.0</ele><time>2026-04-07T14:56:32Z</time></trkpt><trkpt lat="43.93056706746189" lon="6.2591281754126165"><ele>938.0000000000001</ele><time>2026-04-07T14:56:34Z</time></trkpt><trkpt lat="43.93067078614639" lon="6.2590704073217545"><ele>938.0</ele><time>2026-04-07T14:56:36Z</time></trkpt><trkpt lat="43.930748059761996" lon="6.259090841252554"><ele>938.0</ele><time>2026-04-07T14:56:37Z</time></trkpt><trkpt lat="43.930817191532" lon="6.259141366357169"><ele>938.0</ele><time>2026-04-07T14:56:38Z</time></trkpt><trkpt lat="43.93088706080128" lon="6.259200620907813"><ele>938.0000000000001</ele><time>2026-04-07T14:56:39Z</time></trkpt><trkpt lat="43.93098116501021" lon="6.259161014244541"><ele>938.0</ele><time>2026-04-07T14:56:41Z</time></trkpt><trkpt lat="43.93101983542606" lon="6.259040140205414"><ele>940.3333333333334</ele><time>2026-04-07T14:56:43Z</time></trkpt><trkpt lat="43.931025646405985" lon="6.258951020203348"><ele>942.6666666666667</ele><time>2026-04-07T14:56:44Z</time></trkpt><trkpt lat="43.931030741593645" lon="6.258797107066286"><ele>945.0</ele><time>2026-04-07T14:56:46Z</time></trkpt><trkpt lat="43.93101015444921" lon="6.258711870862547"><ele>947.3333333333333</ele><time>2026-04-07T14:56:47Z</time></trkpt><trkpt lat="43.930999901698925" lon="6.258593893627823"><ele>949.6666666666666</ele><time>2026-04-07T14:56:49Z</time></trkpt><trkpt lat="43.93108630971866" lon="6.258567775735023"><ele>952.0</ele><time>2026-04-07T14:56:52Z</time></trkpt><trkpt lat="43.93117968658099" lon="6.258525503094884"><ele>952.0</ele><time>2026-04-07T14:56:54Z</time></trkpt><trkpt lat="43.931232804592426" lon="6.258462867745743"><ele>952.0</ele><time>2026-04-07T14:56:55Z</time></trkpt><trkpt lat="43.93128717889041" lon="6.258387695581454"><ele>952.0</ele><time>2026-04-07T14:56:56Z</time></trkpt><trkpt lat="43.93133070573672" lon="6.258306743326837"><ele>952.0</ele><time>2026-04-07T14:56:57Z</time></trkpt><trkpt lat="43.93136030272028" lon="6.258224318126554"><ele>952.0</ele><time>2026-04-07T14:56:58Z</time></trkpt><trkpt lat="43.931397160162916" lon="6.258146141913052"><ele>952.0</ele><time>2026-04-07T14:56:59Z</time></trkpt><trkpt lat="43.93142645740617" lon="6.258039975023242"><ele>952.0</ele><time>2026-04-07T14:57:01Z</time></trkpt><trkpt lat="43.93145926561666" lon="6.257900455569027"><ele>952.0</ele><time>2026-04-07T14:57:03Z</time></trkpt><trkpt lat="43.931385917468326" lon="6.257929708511242"><ele>952.0</ele><time>2026-04-07T14:57:12Z</time></trkpt><trkpt lat="43.931386375426925" lon="6.258173436725718"><ele>952.0</ele><time>2026-04-07T14:57:13Z</time></trkpt><trkpt lat="43.931319992689765" lon="6.2581893390303875"><ele>952.0</ele><time>2026-04-07T14:57:18Z</time></trkpt><trkpt lat="43.93125410644465" lon="6.2581773388340665"><ele>952.0</ele><time>2026-04-07T14:57:20Z</time></trkpt><trkpt lat="43.931154158678574" lon="6.25822502742143"><ele>951.9999999999999</ele><time>2026-04-07T14:57:22Z</time></trkpt><trkpt lat="43.931067457545915" lon="6.258323701760175"><ele>952.0</ele><time>2026-04-07T14:57:24Z</time></trkpt><trkpt lat="43.93102201352677" lon="6.2583855311557715"><ele>952.0</ele><time>2026-04-07T14:57:25Z</time></trkpt><trkpt lat="43.93096203554334" lon="6.2584431612874525"><ele>952.0</ele><time>2026-04-07T14:57:26Z</time></trkpt><trkpt lat="43.93089019526105" lon="6.258510156447899"><ele>951.9999999999999</ele><time>2026-04-07T14:57:27Z</time></trkpt><trkpt lat="43.93078252117101" lon="6.258554150871087"><ele>952.0</ele><time>2026-04-07T14:57:29Z</time></trkpt><trkpt lat="43.930679429723945" lon="6.25858131177767"><ele>950.2</ele><time>2026-04-07T14:57:31Z</time></trkpt><trkpt lat="43.9305939272586" lon="6.258655707478329"><ele>948.4000000000001</ele><time>2026-04-07T14:57:33Z</time></trkpt><trkpt lat="43.93050059673394" lon="6.258709876198584"><ele>946.5999999999999</ele><time>2026-04-07T14:57:35Z</time></trkpt><trkpt lat="43.93039989266181" lon="6.258755030825496"><ele>944.8</ele><time>2026-04-07T14:57:37Z</time></trkpt><trkpt lat="43.93034023897695" lon="6.258785821910791"><ele>943.0</ele><time>2026-04-07T14:57:38Z</time></trkpt><trkpt lat="43.93022465410678" lon="6.258820957133022"><ele>942.9999999999999</ele><time>2026-04-07T14:57:40Z</time></trkpt><trkpt lat="43.93012854120301" lon="6.258873296379077"><ele>943.0</ele><time>2026-04-07T14:57:42Z</time></trkpt><trkpt lat="43.93007681087121" lon="6.258930956153819"><ele>943.0</ele><time>2026-04-07T14:57:44Z</time></trkpt><trkpt lat="43.93004519913531" lon="6.259035166345935"><ele>943.0</ele><time>2026-04-07T14:57:46Z</time></trkpt><trkpt lat="43.930041782820716" lon="6.259149986950179"><ele>942.9999999999999</ele><time>2026-04-07T14:57:48Z</time></trkpt><trkpt lat="43.93007101221343" lon="6.259254822438535"><ele>943.0</ele><time>2026-04-07T14:58:17Z</time></trkpt><trkpt lat="43.93014380316917" lon="6.259280066505759"><ele>942.0</ele><time>2026-04-07T14:58:19Z</time></trkpt><trkpt lat="43.93026785429348" lon="6.259246294343536"><ele>941.0</ele><time>2026-04-07T14:58:21Z</time></trkpt><trkpt lat="43.930408965123206" lon="6.259169307450007"><ele>940.0</ele><time>2026-04-07T14:58:23Z</time></trkpt><trkpt lat="43.9304918670242" lon="6.259134786392769"><ele>939.0</ele><time>2026-04-07T14:58:24Z</time></trkpt><trkpt lat="43.93056409306577" lon="6.259105984778766"><ele>938.0</ele><time>2026-04-07T14:58:25Z</time></trkpt><trkpt lat="43.93065149838342" lon="6.259093245941279"><ele>938.0</ele><time>2026-04-07T14:58:26Z</time></trkpt><trkpt lat="43.93078669413096" lon="6.259133745603999"><ele>938.0</ele><time>2026-04-07T14:58:28Z</time></trkpt><trkpt lat="43.930858446154865" lon="6.259172178059531"><ele>938.0</ele><time>2026-04-07T14:58:29Z</time></trkpt><trkpt lat="43.930921726082566" lon="6.259198436857265"><ele>938.0</ele><time>2026-04-07T14:58:30Z</time></trkpt><trkpt lat="43.93101492170406" lon="6.259135719203343"><ele>938.0</ele><time>2026-04-07T14:58:32Z</time></trkpt><trkpt lat="43.93104337581204" lon="6.25901614642992"><ele>940.8</ele><time>2026-04-07T14:58:34Z</time></trkpt><trkpt lat="43.93102454765718" lon="6.258863491065431"><ele>943.5999999999999</ele><time>2026-04-07T14:58:36Z</time></trkpt><trkpt lat="43.93102088787425" lon="6.258737365735221"><ele>946.4000000000001</ele><time>2026-04-07T14:58:37Z</time></trkpt><trkpt lat="43.93100198874956" lon="6.258649787622506"><ele>949.2</ele><time>2026-04-07T14:58:38Z</time></trkpt><trkpt lat="43.93105396023928" lon="6.258559263068911"><ele>952.0</ele><time>2026-04-07T14:58:41Z</time></trkpt><trkpt lat="43.93116707854747" lon="6.258536048462369"><ele>952.0</ele><time>2026-04-07T14:58:47Z</time></trkpt><trkpt lat="43.93123519477644" lon="6.258485083873588"><ele>952.0</ele><time>2026-04-07T14:58:49Z</time></trkpt><trkpt lat="43.931285669454525" lon="6.258383261747486"><ele>952.0</ele><time>2026-04-07T14:58:58Z</time></trkpt><trkpt lat="43.93134053358898" lon="6.258265382570488"><ele>952.0</ele><time>2026-04-07T14:59:00Z</time></trkpt><trkpt lat="43.93139135948086" lon="6.258160156918246"><ele>952.0</ele><time>2026-04-07T14:59:01Z</time></trkpt><trkpt lat="43.93142891543378" lon="6.258033598575432"><ele>952.4999999999999</ele><time>2026-04-07T14:59:02Z</time></trkpt><trkpt lat="43.93145693224535" lon="6.257916126237502"><ele>953.0</ele><time>2026-04-07T14:59:03Z</time></trkpt><trkpt lat="43.931539152924415" lon="6.257852336600693"><ele>953.5</ele><time>2026-04-07T14:59:05Z</time></trkpt><trkpt lat="43.93162209996961" lon="6.2578338350075065"><ele>954.0</ele><time>2026-04-07T14:59:06Z</time></trkpt><trkpt lat="43.931701720568924" lon="6.257804291504533"><ele>954.4999999999999</ele><time>2026-04-07T14:59:07Z</time></trkpt><trkpt lat="43.931782111773614" lon="6.257746209423748"><ele>955.0</ele><time>2026-04-07T14:59:08Z</time></trkpt><trkpt lat="43.93187172647497" lon="6.25769318000829"><ele>956.0</ele><time>2026-04-07T14:59:09Z</time></trkpt><trkpt lat="43.93194570508767" lon="6.257646192700672"><ele>957.0</ele><time>2026-04-07T14:59:10Z</time></trkpt><trkpt lat="43.93202241440624" lon="6.2576019369107145"><ele>958.0</ele><time>2026-04-07T14:59:11Z</time></trkpt><trkpt lat="43.93211854041165" lon="6.257552169145658"><ele>959.0</ele><time>2026-04-07T14:59:13Z</time></trkpt><trkpt lat="43.93223146043838" lon="6.257609480177017"><ele>960.0</ele><time>2026-04-07T14:59:15Z</time></trkpt><trkpt lat="43.93231289642353" lon="6.257664740588694"><ele>960.0</ele><time>2026-04-07T14:59:16Z</time></trkpt><trkpt lat="43.93237977736955" lon="6.257663184995675"><ele>960.0</ele><time>2026-04-07T14:59:17Z</time></trkpt><trkpt lat="43.93249173327541" lon="6.257627199952346"><ele>960.0</ele><time>2026-04-07T14:59:19Z</time></trkpt><trkpt lat="43.93262352037495" lon="6.257583622284582"><ele>960.0</ele><time>2026-04-07T14:59:21Z</time></trkpt><trkpt lat="43.932686573907425" lon="6.257519401664392"><ele>960.0</ele><time>2026-04-07T14:59:22Z</time></trkpt><trkpt lat="43.93275578576747" lon="6.257460884567634"><ele>961.5</ele><time>2026-04-07T14:59:23Z</time></trkpt><trkpt lat="43.93283398091848" lon="6.2574235877330855"><ele>963.0</ele><time>2026-04-07T14:59:24Z</time></trkpt><trkpt lat="43.932918246317875" lon="6.2573804083647495"><ele>964.5</ele><time>2026-04-07T14:59:25Z</time></trkpt><trkpt lat="43.932998700926014" lon="6.2573249212863775"><ele>966.0</ele><time>2026-04-07T14:59:26Z</time></trkpt><trkpt lat="43.933069844514286" lon="6.257278631826861"><ele>967.5</ele><time>2026-04-07T14:59:27Z</time></trkpt><trkpt lat="43.93311404916141" lon="6.257198259928883"><ele>969.0</ele><time>2026-04-07T14:59:28Z</time></trkpt><trkpt lat="43.933154546985946" lon="6.257127722651014"><ele>969.3333333333334</ele><time>2026-04-07T14:59:29Z</time></trkpt><trkpt lat="43.93321522057448" lon="6.257070748900431"><ele>969.6666666666667</ele><time>2026-04-07T14:59:30Z</time></trkpt><trkpt lat="43.93327741297921" lon="6.257019147667291"><ele>970.0</ele><time>2026-04-07T14:59:31Z</time></trkpt><trkpt lat="43.93334431491525" lon="6.256944666077457"><ele>970.3333333333334</ele><time>2026-04-07T14:59:32Z</time></trkpt><trkpt lat="43.933400165504366" lon="6.256881665118986"><ele>970.6666666666667</ele><time>2026-04-07T14:59:33Z</time></trkpt><trkpt lat="43.93346519147788" lon="6.256811141319683"><ele>971.0</ele><time>2026-04-07T14:59:34Z</time></trkpt><trkpt lat="43.93352321834316" lon="6.256767526992381"><ele>971.0</ele><time>2026-04-07T14:59:35Z</time></trkpt><trkpt lat="43.93358812214473" lon="6.25672758456132"><ele>971.0000000000001</ele><time>2026-04-07T14:59:36Z</time></trkpt><trkpt lat="43.933652045598855" lon="6.256682477311393"><ele>971.0</ele><time>2026-04-07T14:59:37Z</time></trkpt><trkpt lat="43.93370974828693" lon="6.256632590334461"><ele>971.0</ele><time>2026-04-07T14:59:38Z</time></trkpt><trkpt lat="43.93376520847284" lon="6.2565863632422545"><ele>971.0000000000001</ele><time>2026-04-07T14:59:39Z</time></trkpt><trkpt lat="43.93382524779417" lon="6.256559385490895"><ele>971.0</ele><time>2026-04-07T14:59:40Z</time></trkpt><trkpt lat="43.93389126124549" lon="6.256562200219508"><ele>971.0</ele><time>2026-04-07T14:59:41Z</time></trkpt><trkpt lat="43.93400082081764" lon="6.256625808143421"><ele>971.0</ele><time>2026-04-07T14:59:43Z</time></trkpt><trkpt lat="43.93406753326909" lon="6.256617867067472"><ele>971.0000000000001</ele><time>2026-04-07T14:59:45Z</time></trkpt><trkpt lat="43.93412714421048" lon="6.256588495942995"><ele>971.0</ele><time>2026-04-07T14:59:47Z</time></trkpt><trkpt lat="43.93418923756898" lon="6.256515481609728"><ele>971.0</ele><time>2026-04-07T14:59:49Z</time></trkpt><trkpt lat="43.93422662594653" lon="6.256435910136766"><ele>971.0000000000001</ele><time>2026-04-07T14:59:50Z</time></trkpt><trkpt lat="43.93421991133812" lon="6.256332092885955"><ele>971.0</ele><time>2026-04-07T14:59:51Z</time></trkpt><trkpt lat="43.93415153523099" lon="6.256244700186387"><ele>971.0</ele><time>2026-04-07T14:59:52Z</time></trkpt><trkpt lat="43.93407068281295" lon="6.256176972994581"><ele>972.0000000000001</ele><time>2026-04-07T14:59:53Z</time></trkpt><trkpt lat="43.93402377244191" lon="6.256116955099508"><ele>973.0</ele><time>2026-04-07T14:59:55Z</time></trkpt><trkpt lat="43.93406715826823" lon="6.255981081822568"><ele>974.0</ele><time>2026-04-07T14:59:58Z</time></trkpt><trkpt lat="43.934165161049144" lon="6.255889754940207"><ele>975.0</ele><time>2026-04-07T15:00:00Z</time></trkpt><trkpt lat="43.934228438057836" lon="6.255883022529587"><ele>976.0000000000001</ele><time>2026-04-07T15:00:01Z</time></trkpt><trkpt lat="43.93431714536205" lon="6.255905935244745"><ele>977.0</ele><time>2026-04-07T15:00:02Z</time></trkpt><trkpt lat="43.934433013258115" lon="6.255946990753682"><ele>978.5</ele><time>2026-04-07T15:00:03Z</time></trkpt><trkpt lat="43.93454140896935" lon="6.255956713802939"><ele>980.0</ele><time>2026-04-07T15:00:04Z</time></trkpt><trkpt lat="43.93466018612497" lon="6.255953290594418"><ele>981.5</ele><time>2026-04-07T15:00:05Z</time></trkpt><trkpt lat="43.93480027436683" lon="6.255953532591361"><ele>983.0</ele><time>2026-04-07T15:00:06Z</time></trkpt><trkpt lat="43.934949356155485" lon="6.255990622819156"><ele>984.25</ele><time>2026-04-07T15:00:07Z</time></trkpt><trkpt lat="43.93508636100606" lon="6.2560398960987245"><ele>985.5</ele><time>2026-04-07T15:00:08Z</time></trkpt><trkpt lat="43.93521400001895" lon="6.256082048928105"><ele>986.75</ele><time>2026-04-07T15:00:09Z</time></trkpt><trkpt lat="43.93531793946532" lon="6.256133177951306"><ele>988.0</ele><time>2026-04-07T15:00:10Z</time></trkpt><trkpt lat="43.93541760926129" lon="6.256169911622127"><ele>988.0</ele><time>2026-04-07T15:00:11Z</time></trkpt><trkpt lat="43.935511790428635" lon="6.2561835546199145"><ele>988.0</ele><time>2026-04-07T15:00:12Z</time></trkpt><trkpt lat="43.93561352322266" lon="6.256160443286603"><ele>988.0</ele><time>2026-04-07T15:00:13Z</time></trkpt><trkpt lat="43.93571705696064" lon="6.256149091651529"><ele>988.0</ele><time>2026-04-07T15:00:14Z</time></trkpt><trkpt lat="43.935840441402505" lon="6.256130614236791"><ele>988.0</ele><time>2026-04-07T15:00:15Z</time></trkpt><trkpt lat="43.935985552841686" lon="6.25613245527773"><ele>989.6666666666666</ele><time>2026-04-07T15:00:16Z</time></trkpt><trkpt lat="43.93614990773725" lon="6.256089742836042"><ele>991.3333333333333</ele><time>2026-04-07T15:00:17Z</time></trkpt><trkpt lat="43.936300479257106" lon="6.256085869709596"><ele>993.0</ele><time>2026-04-07T15:00:18Z</time></trkpt><trkpt lat="43.93643436016452" lon="6.256041606296737"><ele>993.0</ele><time>2026-04-07T15:00:19Z</time></trkpt><trkpt lat="43.93653146940099" lon="6.25602703701362"><ele>993.0</ele><time>2026-04-07T15:00:20Z</time></trkpt><trkpt lat="43.9366044448555" lon="6.256008603755406"><ele>993.0</ele><time>2026-04-07T15:00:21Z</time></trkpt><trkpt lat="43.93667751330464" lon="6.255967668043457"><ele>993.0</ele><time>2026-04-07T15:00:22Z</time></trkpt><trkpt lat="43.93676685285202" lon="6.255897112094087"><ele>993.0</ele><time>2026-04-07T15:00:23Z</time></trkpt><trkpt lat="43.93688050994013" lon="6.255836021094641"><ele>992.75</ele><time>2026-04-07T15:00:24Z</time></trkpt><trkpt lat="43.93699168922202" lon="6.255792134148331"><ele>992.5</ele><time>2026-04-07T15:00:25Z</time></trkpt><trkpt lat="43.93710054733759" lon="6.255737896879979"><ele>992.25</ele><time>2026-04-07T15:00:26Z</time></trkpt><trkpt lat="43.937211919594205" lon="6.255691051077467"><ele>992.0</ele><time>2026-04-07T15:00:27Z</time></trkpt><trkpt lat="43.93733789149748" lon="6.255653781197328"><ele>992.0</ele><time>2026-04-07T15:00:28Z</time></trkpt><trkpt lat="43.937459325718294" lon="6.255643274034004"><ele>992.0</ele><time>2026-04-07T15:00:29Z</time></trkpt><trkpt lat="43.93755658155659" lon="6.25564723992453"><ele>992.0</ele><time>2026-04-07T15:00:30Z</time></trkpt><trkpt lat="43.93763749603046" lon="6.255655741168448"><ele>992.0</ele><time>2026-04-07T15:00:31Z</time></trkpt><trkpt lat="43.93773695567591" lon="6.255624806159787"><ele>992.0</ele><time>2026-04-07T15:00:32Z</time></trkpt><trkpt lat="43.93785037473386" lon="6.255555315000271"><ele>993.8</ele><time>2026-04-07T15:00:33Z</time></trkpt><trkpt lat="43.937956661601014" lon="6.2554873727217295"><ele>995.6</ele><time>2026-04-07T15:00:34Z</time></trkpt><trkpt lat="43.93802828312827" lon="6.255473628025461"><ele>997.3999999999999</ele><time>2026-04-07T15:00:35Z</time></trkpt><trkpt lat="43.9380984387265" lon="6.2554535845878005"><ele>999.1999999999999</ele><time>2026-04-07T15:00:36Z</time></trkpt><trkpt lat="43.93819362131787" lon="6.255491021507182"><ele>1001.0</ele><time>2026-04-07T15:00:38Z</time></trkpt><trkpt lat="43.938283529777" lon="6.255580793907163"><ele>1000.5999999999999</ele><time>2026-04-07T15:00:40Z</time></trkpt><trkpt lat="43.93831244165943" lon="6.255674047245938"><ele>1000.1999999999999</ele><time>2026-04-07T15:00:41Z</time></trkpt><trkpt lat="43.938294247211175" lon="6.255787167442412"><ele>999.8000000000001</ele><time>2026-04-07T15:00:42Z</time></trkpt><trkpt lat="43.93829647391756" lon="6.255916930738124"><ele>999.4000000000001</ele><time>2026-04-07T15:00:43Z</time></trkpt><trkpt lat="43.93830554333862" lon="6.256066029648091"><ele>999.0</ele><time>2026-04-07T15:00:44Z</time></trkpt><trkpt lat="43.938283384290074" lon="6.256209384226258"><ele>999.0</ele><time>2026-04-07T15:00:45Z</time></trkpt><trkpt lat="43.93826634771755" lon="6.256329064533035"><ele>999.0000000000001</ele><time>2026-04-07T15:00:46Z</time></trkpt><trkpt lat="43.93822360584393" lon="6.256445129298539"><ele>999.0000000000001</ele><time>2026-04-07T15:00:47Z</time></trkpt><trkpt lat="43.93818475569158" lon="6.256583123220502"><ele>999.0</ele><time>2026-04-07T15:00:48Z</time></trkpt><trkpt lat="43.93813907822326" lon="6.256729147737021"><ele>999.0</ele><time>2026-04-07T15:00:49Z</time></trkpt><trkpt lat="43.93810129724489" lon="6.256833738727734"><ele>999.3333333333334</ele><time>2026-04-07T15:00:50Z</time></trkpt><trkpt lat="43.93807262024628" lon="6.25692326624731"><ele>999.6666666666667</ele><time>2026-04-07T15:00:51Z</time></trkpt><trkpt lat="43.9380761008178" lon="6.257020607260255"><ele>1000.0</ele><time>2026-04-07T15:00:53Z</time></trkpt><trkpt lat="43.93817733400738" lon="6.257078352166042"><ele>1000.3333333333334</ele><time>2026-04-07T15:00:55Z</time></trkpt><trkpt lat="43.9382394045837" lon="6.257058609064495"><ele>1000.6666666666667</ele><time>2026-04-07T15:00:56Z</time></trkpt><trkpt lat="43.938307630890364" lon="6.257043948732774"><ele>1001.0</ele><time>2026-04-07T15:00:57Z</time></trkpt><trkpt lat="43.93838953190676" lon="6.257030676151179"><ele>1004.1999999999999</ele><time>2026-04-07T15:00:58Z</time></trkpt><trkpt lat="43.93847906879717" lon="6.257030477977263"><ele>1007.3999999999999</ele><time>2026-04-07T15:00:59Z</time></trkpt><trkpt lat="43.93859088421969" lon="6.2570392139651805"><ele>1010.6</ele><time>2026-04-07T15:01:00Z</time></trkpt><trkpt lat="43.938673908284464" lon="6.2570733778566625"><ele>1013.8</ele><time>2026-04-07T15:01:01Z</time></trkpt><trkpt lat="43.93876712338416" lon="6.257098567653447"><ele>1017.0</ele><time>2026-04-07T15:01:02Z</time></trkpt><trkpt lat="43.938855458409016" lon="6.25711883790471"><ele>1017.0</ele><time>2026-04-07T15:01:03Z</time></trkpt><trkpt lat="43.93892307208847" lon="6.257134637798439"><ele>1017.0</ele><time>2026-04-07T15:01:04Z</time></trkpt><trkpt lat="43.93901188904215" lon="6.257187503256444"><ele>1017.0</ele><time>2026-04-07T15:01:06Z</time></trkpt><trkpt lat="43.939094896048935" lon="6.257293110815465"><ele>1017.0</ele><time>2026-04-07T15:01:08Z</time></trkpt><trkpt lat="43.93914868033915" lon="6.257346743470997"><ele>1017.0</ele><time>2026-04-07T15:01:09Z</time></trkpt><trkpt lat="43.9391876890029" lon="6.257445129604763"><ele>1017.0</ele><time>2026-04-07T15:01:10Z</time></trkpt><trkpt lat="43.939208350312285" lon="6.257604723704186"><ele>1016.6</ele><time>2026-04-07T15:01:12Z</time></trkpt><trkpt lat="43.93921042305251" lon="6.2577811565194335"><ele>1016.2</ele><time>2026-04-07T15:01:14Z</time></trkpt><trkpt lat="43.93921512605375" lon="6.257872437212562"><ele>1015.8</ele><time>2026-04-07T15:01:15Z</time></trkpt><trkpt lat="43.939221750200446" lon="6.257966500691936"><ele>1015.4</ele><time>2026-04-07T15:01:16Z</time></trkpt><trkpt lat="43.93923505229911" lon="6.258051991259823"><ele>1015.0</ele><time>2026-04-07T15:01:18Z</time></trkpt><trkpt lat="43.939329409465884" lon="6.258167568682548"><ele>1014.9999999999999</ele><time>2026-04-07T15:01:21Z</time></trkpt><trkpt lat="43.93937616667497" lon="6.258262762586453"><ele>1015.0</ele><time>2026-04-07T15:01:22Z</time></trkpt><trkpt lat="43.939445792001436" lon="6.25832260055614"><ele>1015.0</ele><time>2026-04-07T15:01:23Z</time></trkpt><trkpt lat="43.93950628538571" lon="6.25837082949053"><ele>1015.0</ele><time>2026-04-07T15:01:24Z</time></trkpt><trkpt lat="43.93956809938581" lon="6.258411080315287"><ele>1014.9999999999999</ele><time>2026-04-07T15:01:25Z</time></trkpt><trkpt lat="43.93960078709892" lon="6.258500201867661"><ele>1015.0</ele><time>2026-04-07T15:01:26Z</time></trkpt><trkpt lat="43.939656699593336" lon="6.258624204744279"><ele>1015.0</ele><time>2026-04-07T15:01:28Z</time></trkpt><trkpt lat="43.93966590710188" lon="6.258727479011702"><ele>1015.0</ele><time>2026-04-07T15:01:30Z</time></trkpt><trkpt lat="43.939603269194755" lon="6.258982516092769"><ele>1015.0</ele><time>2026-04-07T15:02:21Z</time></trkpt><trkpt lat="43.93957664331302" lon="6.259120292975212"><ele>1015.0</ele><time>2026-04-07T15:02:23Z</time></trkpt><trkpt lat="43.93953909614195" lon="6.259226100523055"><ele>1015.2</ele><time>2026-04-07T15:02:24Z</time></trkpt><trkpt lat="43.939491846977" lon="6.259341860040025"><ele>1015.4</ele><time>2026-04-07T15:02:25Z</time></trkpt><trkpt lat="43.93941769254758" lon="6.259440443986964"><ele>1015.5999999999999</ele><time>2026-04-07T15:02:26Z</time></trkpt><trkpt lat="43.939364496776946" lon="6.259565746222631"><ele>1015.8</ele><time>2026-04-07T15:02:27Z</time></trkpt><trkpt lat="43.93932141351236" lon="6.259696160720987"><ele>1016.0</ele><time>2026-04-07T15:02:28Z</time></trkpt><trkpt lat="43.93928439785174" lon="6.259830334462825"><ele>1017.1999999999999</ele><time>2026-04-07T15:02:29Z</time></trkpt><trkpt lat="43.93923265264162" lon="6.259969267165162"><ele>1018.3999999999999</ele><time>2026-04-07T15:02:30Z</time></trkpt><trkpt lat="43.9391543336955" lon="6.260094868702649"><ele>1019.6</ele><time>2026-04-07T15:02:31Z</time></trkpt><trkpt lat="43.93907875043597" lon="6.260191977748691"><ele>1020.8</ele><time>2026-04-07T15:02:32Z</time></trkpt><trkpt lat="43.93901872068071" lon="6.260262487596808"><ele>1022.0</ele><time>2026-04-07T15:02:33Z</time></trkpt><trkpt lat="43.93895882731257" lon="6.2603294530114795"><ele>1022.8333333333334</ele><time>2026-04-07T15:02:34Z</time></trkpt><trkpt lat="43.93889712281494" lon="6.26040715949822"><ele>1023.6666666666667</ele><time>2026-04-07T15:02:35Z</time></trkpt><trkpt lat="43.938819096901604" lon="6.2604712028936325"><ele>1024.5</ele><time>2026-04-07T15:02:36Z</time></trkpt><trkpt lat="43.938748157435846" lon="6.260550111203264"><ele>1025.3333333333333</ele><time>2026-04-07T15:02:37Z</time></trkpt><trkpt lat="43.93866465642411" lon="6.260597577042969"><ele>1026.1666666666665</ele><time>2026-04-07T15:02:38Z</time></trkpt><trkpt lat="43.93858994247516" lon="6.260644188198784"><ele>1027.0</ele><time>2026-04-07T15:02:39Z</time></trkpt><trkpt lat="43.93852242300819" lon="6.260675558823577"><ele>1028.2</ele><time>2026-04-07T15:02:40Z</time></trkpt><trkpt lat="43.938384968417566" lon="6.26064898182499"><ele>1029.4</ele><time>2026-04-07T15:02:42Z</time></trkpt><trkpt lat="43.93829148161471" lon="6.260635794005596"><ele>1030.6</ele><time>2026-04-07T15:02:43Z</time></trkpt><trkpt lat="43.93819699881815" lon="6.260621601240011"><ele>1031.8</ele><time>2026-04-07T15:02:44Z</time></trkpt><trkpt lat="43.938121077798264" lon="6.260631904139715"><ele>1033.0</ele><time>2026-04-07T15:02:45Z</time></trkpt><trkpt lat="43.93803802442138" lon="6.260659892192428"><ele>1033.0</ele><time>2026-04-07T15:02:47Z</time></trkpt><trkpt lat="43.93802037999385" lon="6.260794311645755"><ele>1033.0</ele><time>2026-04-07T15:02:49Z</time></trkpt><trkpt lat="43.938078128108806" lon="6.260946504907943"><ele>1033.0</ele><time>2026-04-07T15:02:51Z</time></trkpt><trkpt lat="43.938151960832116" lon="6.261025120292578"><ele>1033.0</ele><time>2026-04-07T15:02:52Z</time></trkpt><trkpt lat="43.93824040814611" lon="6.261105107283972"><ele>1033.0</ele><time>2026-04-07T15:02:53Z</time></trkpt><trkpt lat="43.9383327747326" lon="6.261163283346119"><ele>1033.0</ele><time>2026-04-07T15:02:54Z</time></trkpt><trkpt lat="43.93841293001269" lon="6.2612207612528294"><ele>1033.0</ele><time>2026-04-07T15:02:55Z</time></trkpt><trkpt lat="43.93848242181393" lon="6.261276925263097"><ele>1033.0</ele><time>2026-04-07T15:02:56Z</time></trkpt><trkpt lat="43.938538879124145" lon="6.261356714083735"><ele>1033.0</ele><time>2026-04-07T15:02:57Z</time></trkpt><trkpt lat="43.93858368112205" lon="6.2614513928378654"><ele>1033.0</ele><time>2026-04-07T15:02:58Z</time></trkpt><trkpt lat="43.938633643616015" lon="6.261556560341035"><ele>1033.0</ele><time>2026-04-07T15:02:59Z</time></trkpt><trkpt lat="43.93864872311588" lon="6.261641877201696"><ele>1033.0</ele><time>2026-04-07T15:03:00Z</time></trkpt><trkpt lat="43.93869306662564" lon="6.261711265992149"><ele>1033.0</ele><time>2026-04-07T15:03:01Z</time></trkpt><trkpt lat="43.93873541918433" lon="6.261862017354638"><ele>1033.0</ele><time>2026-04-07T15:03:03Z</time></trkpt><trkpt lat="43.93878037320422" lon="6.261943448314029"><ele>1033.0</ele><time>2026-04-07T15:03:05Z</time></trkpt><trkpt lat="43.93879329157083" lon="6.262045560689361"><ele>1033.0</ele><time>2026-04-07T15:03:12Z</time></trkpt><trkpt lat="43.938847184913165" lon="6.262111440493945"><ele>1033.0</ele><time>2026-04-07T15:03:15Z</time></trkpt><trkpt lat="43.93886005553989" lon="6.262207727657007"><ele>1031.1666666666665</ele><time>2026-04-07T15:03:18Z</time></trkpt><trkpt lat="43.93887603087543" lon="6.2622981386729615"><ele>1029.3333333333333</ele><time>2026-04-07T15:03:41Z</time></trkpt><trkpt lat="43.938876604823506" lon="6.262439831727637"><ele>1027.5</ele><time>2026-04-07T15:03:43Z</time></trkpt><trkpt lat="43.938864116469034" lon="6.262553643754296"><ele>1025.6666666666667</ele><time>2026-04-07T15:03:44Z</time></trkpt><trkpt lat="43.938842839077104" lon="6.2626809364305185"><ele>1023.8333333333334</ele><time>2026-04-07T15:03:45Z</time></trkpt><trkpt lat="43.93882179674718" lon="6.262800798651699"><ele>1022.0</ele><time>2026-04-07T15:03:46Z</time></trkpt><trkpt lat="43.938799393252275" lon="6.26290672156652"><ele>1022.0000000000001</ele><time>2026-04-07T15:03:47Z</time></trkpt><trkpt lat="43.9387845914639" lon="6.263015615387479"><ele>1022.0</ele><time>2026-04-07T15:03:48Z</time></trkpt><trkpt lat="43.93878189677063" lon="6.263120737276367"><ele>1022.0</ele><time>2026-04-07T15:03:49Z</time></trkpt><trkpt lat="43.93878623659745" lon="6.263229813888584"><ele>1022.0</ele><time>2026-04-07T15:03:50Z</time></trkpt><trkpt lat="43.93878280667904" lon="6.263358117033631"><ele>1022.0000000000001</ele><time>2026-04-07T15:03:51Z</time></trkpt><trkpt lat="43.93881195820073" lon="6.263463598731892"><ele>1022.0</ele><time>2026-04-07T15:03:52Z</time></trkpt><trkpt lat="43.938809786431065" lon="6.26358009970945"><ele>1020.6</ele><time>2026-04-07T15:03:53Z</time></trkpt><trkpt lat="43.93879304468637" lon="6.263683260234342"><ele>1019.2</ele><time>2026-04-07T15:03:54Z</time></trkpt><trkpt lat="43.938726771057006" lon="6.263745543539396"><ele>1017.8</ele><time>2026-04-07T15:03:55Z</time></trkpt><trkpt lat="43.938699346867395" lon="6.263895644862309"><ele>1016.4</ele><time>2026-04-07T15:03:57Z</time></trkpt><trkpt lat="43.93870354269883" lon="6.264055294642231"><ele>1015.0</ele><time>2026-04-07T15:03:59Z</time></trkpt><trkpt lat="43.93877114571226" lon="6.264187269491908"><ele>1014.25</ele><time>2026-04-07T15:04:01Z</time></trkpt><trkpt lat="43.93883369262753" lon="6.264309889948422"><ele>1013.5</ele><time>2026-04-07T15:04:03Z</time></trkpt><trkpt lat="43.938849526635664" lon="6.2644472233167745"><ele>1012.75</ele><time>2026-04-07T15:04:05Z</time></trkpt><trkpt lat="43.938758247738605" lon="6.2645730495810765"><ele>1012.0</ele><time>2026-04-07T15:04:07Z</time></trkpt><trkpt lat="43.93869854316415" lon="6.264720827437387"><ele>1012.1666666666666</ele><time>2026-04-07T15:04:09Z</time></trkpt><trkpt lat="43.93864857236601" lon="6.264790250524661"><ele>1012.3333333333333</ele><time>2026-04-07T15:04:10Z</time></trkpt><trkpt lat="43.938586369568554" lon="6.264852994664593"><ele>1012.5</ele><time>2026-04-07T15:04:11Z</time></trkpt><trkpt lat="43.93850370142943" lon="6.264899688926301"><ele>1012.6666666666667</ele><time>2026-04-07T15:04:12Z</time></trkpt><trkpt lat="43.93840552893605" lon="6.264888825584788"><ele>1012.8333333333334</ele><time>2026-04-07T15:04:13Z</time></trkpt><trkpt lat="43.938308912887074" lon="6.264927120791183"><ele>1013.0</ele><time>2026-04-07T15:04:14Z</time></trkpt><trkpt lat="43.938197424817865" lon="6.264936548905206"><ele>1014.2</ele><time>2026-04-07T15:04:15Z</time></trkpt><trkpt lat="43.93805994380178" lon="6.264966186870369"><ele>1015.4</ele><time>2026-04-07T15:04:16Z</time></trkpt><trkpt lat="43.93794795938987" lon="6.265066653904427"><ele>1016.6000000000001</ele><time>2026-04-07T15:04:17Z</time></trkpt><trkpt lat="43.93792439030378" lon="6.265165112893796"><ele>1017.8000000000001</ele><time>2026-04-07T15:04:19Z</time></trkpt><trkpt lat="43.937907043800685" lon="6.265258552575743"><ele>1019.0</ele><time>2026-04-07T15:04:20Z</time></trkpt><trkpt lat="43.937928789373224" lon="6.265341379563831"><ele>1019.0000000000001</ele><time>2026-04-07T15:04:21Z</time></trkpt><trkpt lat="43.93798779475518" lon="6.265390472651305"><ele>1019.0</ele><time>2026-04-07T15:04:22Z</time></trkpt><trkpt lat="43.93806906765422" lon="6.265385106640332"><ele>1019.0</ele><time>2026-04-07T15:04:23Z</time></trkpt><trkpt lat="43.93813631648624" lon="6.265318286496248"><ele>1019.0</ele><time>2026-04-07T15:04:24Z</time></trkpt><trkpt lat="43.9381800460815" lon="6.265226237417981"><ele>1019.0000000000001</ele><time>2026-04-07T15:04:25Z</time></trkpt><trkpt lat="43.93824634334287" lon="6.265153988151371"><ele>1019.0</ele><time>2026-04-07T15:04:26Z</time></trkpt><trkpt lat="43.93833204592407" lon="6.2651331585073216"><ele>1017.8000000000001</ele><time>2026-04-07T15:04:27Z</time></trkpt><trkpt lat="43.93842159025733" lon="6.265166044158762"><ele>1016.6000000000001</ele><time>2026-04-07T15:04:28Z</time></trkpt><trkpt lat="43.938516436164534" lon="6.265218176753031"><ele>1015.4</ele><time>2026-04-07T15:04:29Z</time></trkpt><trkpt lat="43.938619934047395" lon="6.265258149902244"><ele>1014.2</ele><time>2026-04-07T15:04:30Z</time></trkpt><trkpt lat="43.93870955376496" lon="6.265252579782075"><ele>1013.0</ele><time>2026-04-07T15:04:31Z</time></trkpt><trkpt lat="43.938778556726966" lon="6.2652612014869"><ele>1013.0000000000001</ele><time>2026-04-07T15:04:32Z</time></trkpt><trkpt lat="43.93889014993147" lon="6.2653034458037515"><ele>1013.0</ele><time>2026-04-07T15:04:34Z</time></trkpt><trkpt lat="43.93891540376321" lon="6.265388098225545"><ele>1013.0</ele><time>2026-04-07T15:04:35Z</time></trkpt><trkpt lat="43.93888215269163" lon="6.265487829452288"><ele>1013.0</ele><time>2026-04-07T15:04:36Z</time></trkpt><trkpt lat="43.93883575970393" lon="6.2655614742992265"><ele>1013.0000000000001</ele><time>2026-04-07T15:04:37Z</time></trkpt><trkpt lat="43.93875770691507" lon="6.265595057014548"><ele>1013.0</ele><time>2026-04-07T15:04:38Z</time></trkpt><trkpt lat="43.938682200292654" lon="6.265641931751108"><ele>1015.5000000000001</ele><time>2026-04-07T15:04:39Z</time></trkpt><trkpt lat="43.93859420788925" lon="6.265705063794053"><ele>1018.0</ele><time>2026-04-07T15:04:40Z</time></trkpt><trkpt lat="43.93854938934735" lon="6.265773302461533"><ele>1020.5</ele><time>2026-04-07T15:04:41Z</time></trkpt><trkpt lat="43.93848480233346" lon="6.265829206061116"><ele>1023.0</ele><time>2026-04-07T15:04:42Z</time></trkpt><trkpt lat="43.93842080820554" lon="6.265907236779"><ele>1025.5</ele><time>2026-04-07T15:04:43Z</time></trkpt><trkpt lat="43.93836357997934" lon="6.266005979195932"><ele>1028.0</ele><time>2026-04-07T15:04:44Z</time></trkpt><trkpt lat="43.938319277562414" lon="6.266126581116926"><ele>1028.2</ele><time>2026-04-07T15:04:45Z</time></trkpt><trkpt lat="43.93828349259352" lon="6.266250387449139"><ele>1028.4</ele><time>2026-04-07T15:04:46Z</time></trkpt><trkpt lat="43.938241761351826" lon="6.2663859954828744"><ele>1028.6000000000001</ele><time>2026-04-07T15:04:47Z</time></trkpt><trkpt lat="43.93819720897368" lon="6.266512406716327"><ele>1028.8</ele><time>2026-04-07T15:04:48Z</time></trkpt><trkpt lat="43.93813930873017" lon="6.26663040358608"><ele>1029.0</ele><time>2026-04-07T15:04:49Z</time></trkpt><trkpt lat="43.93806842553392" lon="6.266732081134976"><ele>1033.0</ele><time>2026-04-07T15:04:50Z</time></trkpt><trkpt lat="43.93797824350558" lon="6.266802862560751"><ele>1037.0</ele><time>2026-04-07T15:04:51Z</time></trkpt><trkpt lat="43.937892207832355" lon="6.266871435804284"><ele>1041.0</ele><time>2026-04-07T15:04:52Z</time></trkpt><trkpt lat="43.93780068749517" lon="6.2669260609901505"><ele>1045.0</ele><time>2026-04-07T15:04:53Z</time></trkpt><trkpt lat="43.937714359754736" lon="6.266978608311559"><ele>1049.0</ele><time>2026-04-07T15:04:54Z</time></trkpt><trkpt lat="43.93762149700797" lon="6.2670390979329085"><ele>1050.8</ele><time>2026-04-07T15:04:55Z</time></trkpt><trkpt lat="43.93753755929901" lon="6.267119268315617"><ele>1052.6000000000001</ele><time>2026-04-07T15:04:56Z</time></trkpt><trkpt lat="43.93744672413832" lon="6.26719427954622"><ele>1054.4</ele><time>2026-04-07T15:04:57Z</time></trkpt><trkpt lat="43.937358626953774" lon="6.2672795687588385"><ele>1056.2</ele><time>2026-04-07T15:04:58Z</time></trkpt><trkpt lat="43.93726881779942" lon="6.26736687112693"><ele>1058.0</ele><time>2026-04-07T15:04:59Z</time></trkpt><trkpt lat="43.93716463462417" lon="6.267409438982326"><ele>1058.0</ele><time>2026-04-07T15:05:00Z</time></trkpt><trkpt lat="43.93705988595706" lon="6.26746853988774"><ele>1058.0</ele><time>2026-04-07T15:05:01Z</time></trkpt><trkpt lat="43.93696570607441" lon="6.267551191158992"><ele>1058.0</ele><time>2026-04-07T15:05:02Z</time></trkpt><trkpt lat="43.93686278637084" lon="6.267611545600926"><ele>1058.0</ele><time>2026-04-07T15:05:03Z</time></trkpt><trkpt lat="43.9367736091359" lon="6.267678420174455"><ele>1058.0</ele><time>2026-04-07T15:05:04Z</time></trkpt><trkpt lat="43.93669685938434" lon="6.267738368171483"><ele>1059.2</ele><time>2026-04-07T15:05:05Z</time></trkpt><trkpt lat="43.936629832589354" lon="6.267803629652656"><ele>1060.4</ele><time>2026-04-07T15:05:06Z</time></trkpt><trkpt lat="43.93657412700057" lon="6.26789346463601"><ele>1061.6000000000001</ele><time>2026-04-07T15:05:07Z</time></trkpt><trkpt lat="43.936534675700905" lon="6.268016169766326"><ele>1062.8</ele><time>2026-04-07T15:05:08Z</time></trkpt><trkpt lat="43.936501179161375" lon="6.268169331610536"><ele>1064.0</ele><time>2026-04-07T15:05:09Z</time></trkpt><trkpt lat="43.93646166888429" lon="6.2683124346175925"><ele>1064.0</ele><time>2026-04-07T15:05:10Z</time></trkpt><trkpt lat="43.936400001135226" lon="6.268449501386298"><ele>1064.0</ele><time>2026-04-07T15:05:11Z</time></trkpt><trkpt lat="43.93633436774843" lon="6.2685759394044265"><ele>1064.0</ele><time>2026-04-07T15:05:12Z</time></trkpt><trkpt lat="43.93628592534359" lon="6.268711791033538"><ele>1064.0</ele><time>2026-04-07T15:05:13Z</time></trkpt><trkpt lat="43.93624909893366" lon="6.268856945391854"><ele>1064.0</ele><time>2026-04-07T15:05:14Z</time></trkpt><trkpt lat="43.93621726791697" lon="6.269006736711123"><ele>1068.5</ele><time>2026-04-07T15:05:15Z</time></trkpt><trkpt lat="43.93619245531893" lon="6.269161499553996"><ele>1073.0</ele><time>2026-04-07T15:05:16Z</time></trkpt><trkpt lat="43.93617671458568" lon="6.269320248689152"><ele>1077.5</ele><time>2026-04-07T15:05:17Z</time></trkpt><trkpt lat="43.93616690215808" lon="6.26947995383907"><ele>1082.0</ele><time>2026-04-07T15:05:18Z</time></trkpt><trkpt lat="43.936156593551395" lon="6.2696271996142965"><ele>1082.0</ele><time>2026-04-07T15:05:19Z</time></trkpt><trkpt lat="43.93610573868238" lon="6.269749907843948"><ele>1082.0</ele><time>2026-04-07T15:05:20Z</time></trkpt><trkpt lat="43.936079656296855" lon="6.26988422232415"><ele>1082.0</ele><time>2026-04-07T15:05:21Z</time></trkpt><trkpt lat="43.93602622342441" lon="6.270013177082573"><ele>1082.0</ele><time>2026-04-07T15:05:22Z</time></trkpt><trkpt lat="43.93598193869109" lon="6.270153452655448"><ele>1082.0</ele><time>2026-04-07T15:05:23Z</time></trkpt><trkpt lat="43.93593073681646" lon="6.270294663309296"><ele>1077.25</ele><time>2026-04-07T15:05:24Z</time></trkpt><trkpt lat="43.93586590926196" lon="6.2704253723099725"><ele>1072.5</ele><time>2026-04-07T15:05:25Z</time></trkpt><trkpt lat="43.93577347474843" lon="6.270538519531566"><ele>1067.75</ele><time>2026-04-07T15:05:26Z</time></trkpt><trkpt lat="43.935688679074566" lon="6.2706573410553945"><ele>1063.0</ele><time>2026-04-07T15:05:27Z</time></trkpt><trkpt lat="43.935609596259944" lon="6.270746290161732"><ele>1063.0</ele><time>2026-04-07T15:05:28Z</time></trkpt><trkpt lat="43.93556173473569" lon="6.2708505932429"><ele>1063.0</ele><time>2026-04-07T15:05:29Z</time></trkpt><trkpt lat="43.93554826373357" lon="6.271010910657478"><ele>1063.0</ele><time>2026-04-07T15:05:31Z</time></trkpt><trkpt lat="43.93560299918574" lon="6.271099160139047"><ele>1063.0</ele><time>2026-04-07T15:05:32Z</time></trkpt><trkpt lat="43.93568311441447" lon="6.271199788734548"><ele>1063.0</ele><time>2026-04-07T15:05:33Z</time></trkpt><trkpt lat="43.935767209077845" lon="6.271324555317787"><ele>1063.0</ele><time>2026-04-07T15:05:34Z</time></trkpt><trkpt lat="43.93584700271017" lon="6.271449836293495"><ele>1063.0</ele><time>2026-04-07T15:05:35Z</time></trkpt><trkpt lat="43.93591684843713" lon="6.271569000953421"><ele>1063.0</ele><time>2026-04-07T15:05:36Z</time></trkpt><trkpt lat="43.9359691297356" lon="6.2716878679973505"><ele>1063.0</ele><time>2026-04-07T15:05:37Z</time></trkpt><trkpt lat="43.93600194105647" lon="6.27181109450629"><ele>1063.0</ele><time>2026-04-07T15:05:38Z</time></trkpt><trkpt lat="43.93601044620664" lon="6.271935866360934"><ele>1062.6</ele><time>2026-04-07T15:05:39Z</time></trkpt><trkpt lat="43.935991891955034" lon="6.272056454018033"><ele>1062.1999999999998</ele><time>2026-04-07T15:05:40Z</time></trkpt><trkpt lat="43.93593227433706" lon="6.272183648202102"><ele>1061.8</ele><time>2026-04-07T15:05:41Z</time></trkpt><trkpt lat="43.93587430689386" lon="6.272321784060616"><ele>1061.3999999999999</ele><time>2026-04-07T15:05:42Z</time></trkpt><trkpt lat="43.935790696302774" lon="6.272443988340412"><ele>1061.0</ele><time>2026-04-07T15:05:43Z</time></trkpt><trkpt lat="43.93570177451945" lon="6.272586886311688"><ele>1062.5</ele><time>2026-04-07T15:05:44Z</time></trkpt><trkpt lat="43.93561291811784" lon="6.272741468362651"><ele>1064.0</ele><time>2026-04-07T15:05:45Z</time></trkpt><trkpt lat="43.935530427771376" lon="6.27290448590537"><ele>1065.5</ele><time>2026-04-07T15:05:46Z</time></trkpt><trkpt lat="43.935463556778416" lon="6.273057765035559"><ele>1067.0</ele><time>2026-04-07T15:05:47Z</time></trkpt><trkpt lat="43.93540007144955" lon="6.273220858717588"><ele>1069.0</ele><time>2026-04-07T15:05:48Z</time></trkpt><trkpt lat="43.93533251468335" lon="6.273371050874958"><ele>1071.0</ele><time>2026-04-07T15:05:49Z</time></trkpt><trkpt lat="43.93525903417807" lon="6.273509045181632"><ele>1073.0</ele><time>2026-04-07T15:05:50Z</time></trkpt><trkpt lat="43.93519508871609" lon="6.273669296425622"><ele>1075.0</ele><time>2026-04-07T15:05:51Z</time></trkpt><trkpt lat="43.935155461752885" lon="6.273832104795297"><ele>1076.5</ele><time>2026-04-07T15:05:52Z</time></trkpt><trkpt lat="43.93511256065559" lon="6.27400012398333"><ele>1078.0</ele><time>2026-04-07T15:05:53Z</time></trkpt><trkpt lat="43.93504051976056" lon="6.274136647801431"><ele>1079.5</ele><time>2026-04-07T15:05:54Z</time></trkpt><trkpt lat="43.93491937286626" lon="6.274208576277429"><ele>1081.0</ele><time>2026-04-07T15:05:55Z</time></trkpt><trkpt lat="43.93479932354207" lon="6.27429930189784"><ele>1081.0</ele><time>2026-04-07T15:05:56Z</time></trkpt><trkpt lat="43.934692952807204" lon="6.274418581086651"><ele>1081.0</ele><time>2026-04-07T15:05:57Z</time></trkpt><trkpt lat="43.934570471633315" lon="6.274518496564577"><ele>1081.0</ele><time>2026-04-07T15:05:58Z</time></trkpt><trkpt lat="43.934457197797585" lon="6.274620075507415"><ele>1081.0</ele><time>2026-04-07T15:05:59Z</time></trkpt><trkpt lat="43.93434141574441" lon="6.274682095772553"><ele>1082.5</ele><time>2026-04-07T15:06:00Z</time></trkpt><trkpt lat="43.93420572736615" lon="6.274674400526763"><ele>1084.0</ele><time>2026-04-07T15:06:01Z</time></trkpt><trkpt lat="43.93409352699423" lon="6.274765906925142"><ele>1085.5</ele><time>2026-04-07T15:06:02Z</time></trkpt><trkpt lat="43.93397594159244" lon="6.274859527689355"><ele>1087.0</ele><time>2026-04-07T15:06:03Z</time></trkpt><trkpt lat="43.933863484355555" lon="6.274968631382293"><ele>1087.0</ele><time>2026-04-07T15:06:04Z</time></trkpt><trkpt lat="43.933763152442516" lon="6.2750671720953"><ele>1087.0</ele><time>2026-04-07T15:06:05Z</time></trkpt><trkpt lat="43.9336570414042" lon="6.275145401708542"><ele>1087.0</ele><time>2026-04-07T15:06:06Z</time></trkpt><trkpt lat="43.93355068735183" lon="6.275190829584392"><ele>1087.0</ele><time>2026-04-07T15:06:07Z</time></trkpt><trkpt lat="43.933440528740476" lon="6.275162967469993"><ele>1087.75</ele><time>2026-04-07T15:06:08Z</time></trkpt><trkpt lat="43.93333106549167" lon="6.275132740939569"><ele>1088.5</ele><time>2026-04-07T15:06:09Z</time></trkpt><trkpt lat="43.93321123486122" lon="6.27511291393907"><ele>1089.25</ele><time>2026-04-07T15:06:10Z</time></trkpt><trkpt lat="43.93310986115434" lon="6.275043261025463"><ele>1090.0</ele><time>2026-04-07T15:06:11Z</time></trkpt><trkpt lat="43.933035454522816" lon="6.274921571850619"><ele>1090.0</ele><time>2026-04-07T15:06:12Z</time></trkpt><trkpt lat="43.93296653415844" lon="6.274798064393962"><ele>1090.0</ele><time>2026-04-07T15:06:13Z</time></trkpt><trkpt lat="43.932902298530344" lon="6.274655326302054"><ele>1090.0</ele><time>2026-04-07T15:06:14Z</time></trkpt><trkpt lat="43.932823361428696" lon="6.274517842137552"><ele>1090.0</ele><time>2026-04-07T15:06:15Z</time></trkpt><trkpt lat="43.93276612759183" lon="6.274367638717"><ele>1090.8</ele><time>2026-04-07T15:06:16Z</time></trkpt><trkpt lat="43.93270926071001" lon="6.27424024402234"><ele>1091.6</ele><time>2026-04-07T15:06:17Z</time></trkpt><trkpt lat="43.93264451592337" lon="6.2741357964452025"><ele>1092.4</ele><time>2026-04-07T15:06:18Z</time></trkpt><trkpt lat="43.9325525993278" lon="6.274087552694257"><ele>1093.2</ele><time>2026-04-07T15:06:19Z</time></trkpt><trkpt lat="43.932446465608365" lon="6.274085193735997"><ele>1094.0</ele><time>2026-04-07T15:06:20Z</time></trkpt><trkpt lat="43.93233249003351" lon="6.274093641714523"><ele>1094.0</ele><time>2026-04-07T15:06:21Z</time></trkpt><trkpt lat="43.93221997387578" lon="6.274119812138972"><ele>1094.0</ele><time>2026-04-07T15:06:22Z</time></trkpt><trkpt lat="43.93210969141903" lon="6.274168817778099"><ele>1094.0</ele><time>2026-04-07T15:06:23Z</time></trkpt><trkpt lat="43.93198905710249" lon="6.274223617535078"><ele>1094.0</ele><time>2026-04-07T15:06:24Z</time></trkpt><trkpt lat="43.93187386993259" lon="6.274284041598239"><ele>1094.0</ele><time>2026-04-07T15:06:25Z</time></trkpt><trkpt lat="43.931762630486546" lon="6.274328928834738"><ele>1094.0</ele><time>2026-04-07T15:06:26Z</time></trkpt><trkpt lat="43.93166901211727" lon="6.274370350140991"><ele>1094.0</ele><time>2026-04-07T15:06:27Z</time></trkpt><trkpt lat="43.9315876390485" lon="6.274359188509503"><ele>1094.0</ele><time>2026-04-07T15:06:28Z</time></trkpt><trkpt lat="43.93151518311432" lon="6.274356128593356"><ele>1094.0</ele><time>2026-04-07T15:06:29Z</time></trkpt><trkpt lat="43.93145447158185" lon="6.27427339645508"><ele>1093.2</ele><time>2026-04-07T15:06:30Z</time></trkpt><trkpt lat="43.931405762778404" lon="6.274147212448302"><ele>1092.4</ele><time>2026-04-07T15:06:31Z</time></trkpt><trkpt lat="43.93138071014395" lon="6.274004403496062"><ele>1091.6</ele><time>2026-04-07T15:06:32Z</time></trkpt><trkpt lat="43.93133894301227" lon="6.273876294025272"><ele>1090.8</ele><time>2026-04-07T15:06:33Z</time></trkpt><trkpt lat="43.93125565698227" lon="6.27376227790446"><ele>1090.0</ele><time>2026-04-07T15:06:34Z</time></trkpt><trkpt lat="43.931156653424495" lon="6.273699107544716"><ele>1090.0</ele><time>2026-04-07T15:06:35Z</time></trkpt><trkpt lat="43.9310456876956" lon="6.273664684555288"><ele>1090.0</ele><time>2026-04-07T15:06:36Z</time></trkpt><trkpt lat="43.930933747265556" lon="6.273592208562095"><ele>1090.0</ele><time>2026-04-07T15:06:37Z</time></trkpt><trkpt lat="43.930818150860475" lon="6.273524884475653"><ele>1090.0</ele><time>2026-04-07T15:06:38Z</time></trkpt><trkpt lat="43.93071360847406" lon="6.27343796717213"><ele>1091.5</ele><time>2026-04-07T15:06:39Z</time></trkpt><trkpt lat="43.93061709736318" lon="6.273339138301841"><ele>1093.0</ele><time>2026-04-07T15:06:40Z</time></trkpt><trkpt lat="43.93053218372416" lon="6.273222569113322"><ele>1094.5</ele><time>2026-04-07T15:06:41Z</time></trkpt><trkpt lat="43.93043633442414" lon="6.273109038941892"><ele>1096.0</ele><time>2026-04-07T15:06:42Z</time></trkpt><trkpt lat="43.930353262638796" lon="6.272978859143543"><ele>1096.0</ele><time>2026-04-07T15:06:43Z</time></trkpt><trkpt lat="43.930264822604826" lon="6.272836823633378"><ele>1096.0</ele><time>2026-04-07T15:06:44Z</time></trkpt><trkpt lat="43.93014978421383" lon="6.272760023775622"><ele>1096.0</ele><time>2026-04-07T15:06:45Z</time></trkpt><trkpt lat="43.93006699548257" lon="6.272660312978637"><ele>1096.0</ele><time>2026-04-07T15:06:46Z</time></trkpt><trkpt lat="43.930000392840874" lon="6.272536910857176"><ele>1098.6</ele><time>2026-04-07T15:06:47Z</time></trkpt><trkpt lat="43.92995564898325" lon="6.272417070143941"><ele>1101.1999999999998</ele><time>2026-04-07T15:06:48Z</time></trkpt><trkpt lat="43.92988006047979" lon="6.2723291284288925"><ele>1103.8000000000002</ele><time>2026-04-07T15:06:49Z</time></trkpt><trkpt lat="43.92977658785114" lon="6.27230282277597"><ele>1106.4</ele><time>2026-04-07T15:06:50Z</time></trkpt><trkpt lat="43.92965788868217" lon="6.272296280337415"><ele>1109.0</ele><time>2026-04-07T15:06:51Z</time></trkpt><trkpt lat="43.92954521595237" lon="6.272272878984828"><ele>1109.0</ele><time>2026-04-07T15:06:52Z</time></trkpt><trkpt lat="43.92943334995353" lon="6.272228174335826"><ele>1109.0</ele><time>2026-04-07T15:06:53Z</time></trkpt><trkpt lat="43.9293315289815" lon="6.272176796911998"><ele>1109.0</ele><time>2026-04-07T15:06:54Z</time></trkpt><trkpt lat="43.92924163687349" lon="6.272100881264756"><ele>1109.0</ele><time>2026-04-07T15:06:55Z</time></trkpt><trkpt lat="43.92918069763353" lon="6.2719968555759795"><ele>1109.0</ele><time>2026-04-07T15:06:56Z</time></trkpt><trkpt lat="43.929129250074936" lon="6.271866192943341"><ele>1111.0</ele><time>2026-04-07T15:06:57Z</time></trkpt><trkpt lat="43.92905284913429" lon="6.27173297945103"><ele>1113.0</ele><time>2026-04-07T15:06:58Z</time></trkpt><trkpt lat="43.92896649174503" lon="6.271600103052791"><ele>1115.0</ele><time>2026-04-07T15:06:59Z</time></trkpt><trkpt lat="43.92887988650989" lon="6.271569951457658"><ele>1117.0</ele><time>2026-04-07T15:07:01Z</time></trkpt><trkpt lat="43.92878427095052" lon="6.271570470719617"><ele>1119.0</ele><time>2026-04-07T15:07:02Z</time></trkpt><trkpt lat="43.9286713466495" lon="6.271579874552481"><ele>1119.0</ele><time>2026-04-07T15:07:03Z</time></trkpt><trkpt lat="43.928550210867634" lon="6.271600070412326"><ele>1119.0</ele><time>2026-04-07T15:07:04Z</time></trkpt><trkpt lat="43.92843902881804" lon="6.271617398263834"><ele>1119.0</ele><time>2026-04-07T15:07:05Z</time></trkpt><trkpt lat="43.92833379649436" lon="6.271655934934639"><ele>1119.0</ele><time>2026-04-07T15:07:06Z</time></trkpt><trkpt lat="43.92823364967019" lon="6.271726560682192"><ele>1119.25</ele><time>2026-04-07T15:07:07Z</time></trkpt><trkpt lat="43.92815067921505" lon="6.2718354008214945"><ele>1119.5</ele><time>2026-04-07T15:07:08Z</time></trkpt><trkpt lat="43.9280726023617" lon="6.27197196903647"><ele>1119.75</ele><time>2026-04-07T15:07:09Z</time></trkpt><trkpt lat="43.92799374785624" lon="6.272104835458801"><ele>1120.0</ele><time>2026-04-07T15:07:10Z</time></trkpt><trkpt lat="43.92791268150127" lon="6.272237100049794"><ele>1123.2</ele><time>2026-04-07T15:07:11Z</time></trkpt><trkpt lat="43.9278222647442" lon="6.272336357592285"><ele>1126.4</ele><time>2026-04-07T15:07:12Z</time></trkpt><trkpt lat="43.92772240061252" lon="6.272397989632049"><ele>1129.6</ele><time>2026-04-07T15:07:13Z</time></trkpt><trkpt lat="43.9276229138665" lon="6.272442223585288"><ele>1132.8</ele><time>2026-04-07T15:07:14Z</time></trkpt><trkpt lat="43.92751435689824" lon="6.272446602876806"><ele>1136.0</ele><time>2026-04-07T15:07:15Z</time></trkpt><trkpt lat="43.92740977165108" lon="6.2724658334940795"><ele>1136.0</ele><time>2026-04-07T15:07:16Z</time></trkpt><trkpt lat="43.92730662523455" lon="6.272462373031489"><ele>1136.0</ele><time>2026-04-07T15:07:17Z</time></trkpt><trkpt lat="43.92720223607806" lon="6.272429087169942"><ele>1136.0</ele><time>2026-04-07T15:07:18Z</time></trkpt><trkpt lat="43.927093656128704" lon="6.272372803721396"><ele>1136.0</ele><time>2026-04-07T15:07:19Z</time></trkpt><trkpt lat="43.9269807905734" lon="6.2723026124275725"><ele>1133.75</ele><time>2026-04-07T15:07:20Z</time></trkpt><trkpt lat="43.926878703438824" lon="6.2722198643169484"><ele>1131.5</ele><time>2026-04-07T15:07:21Z</time></trkpt><trkpt lat="43.92679979724149" lon="6.272118781376732"><ele>1129.25</ele><time>2026-04-07T15:07:22Z</time></trkpt><trkpt lat="43.92674654209554" lon="6.271983660402122"><ele>1127.0</ele><time>2026-04-07T15:07:23Z</time></trkpt><trkpt lat="43.926671927250275" lon="6.2718585719770505"><ele>1127.0</ele><time>2026-04-07T15:07:24Z</time></trkpt><trkpt lat="43.92659049988809" lon="6.271748544572586"><ele>1127.0</ele><time>2026-04-07T15:07:25Z</time></trkpt><trkpt lat="43.926513956197624" lon="6.271646017427865"><ele>1127.0</ele><time>2026-04-07T15:07:26Z</time></trkpt><trkpt lat="43.926409421324216" lon="6.27158248667444"><ele>1127.0</ele><time>2026-04-07T15:07:27Z</time></trkpt><trkpt lat="43.92630731369473" lon="6.2715324349456445"><ele>1127.0</ele><time>2026-04-07T15:07:28Z</time></trkpt><trkpt lat="43.92621280444275" lon="6.271490123445566"><ele>1127.0</ele><time>2026-04-07T15:07:29Z</time></trkpt><trkpt lat="43.92612253284297" lon="6.271474594996518"><ele>1127.0</ele><time>2026-04-07T15:07:30Z</time></trkpt><trkpt lat="43.926054417999815" lon="6.271484882716446"><ele>1127.0</ele><time>2026-04-07T15:07:31Z</time></trkpt><trkpt lat="43.92600228115297" lon="6.271553428101001"><ele>1127.0</ele><time>2026-04-07T15:07:32Z</time></trkpt><trkpt lat="43.92598398889071" lon="6.2716770035539415"><ele>1127.0</ele><time>2026-04-07T15:07:33Z</time></trkpt><trkpt lat="43.92595729058633" lon="6.271823805762687"><ele>1127.0</ele><time>2026-04-07T15:07:34Z</time></trkpt><trkpt lat="43.92589673092989" lon="6.271974507996763"><ele>1126.5</ele><time>2026-04-07T15:07:35Z</time></trkpt><trkpt lat="43.925776122916446" lon="6.272095015943808"><ele>1126.0</ele><time>2026-04-07T15:07:36Z</time></trkpt><trkpt lat="43.925663220997635" lon="6.2722116452506445"><ele>1125.5</ele><time>2026-04-07T15:07:37Z</time></trkpt><trkpt lat="43.92554742943971" lon="6.27230938839176"><ele>1125.0</ele><time>2026-04-07T15:07:38Z</time></trkpt><trkpt lat="43.92542701834254" lon="6.272391896638219"><ele>1124.75</ele><time>2026-04-07T15:07:39Z</time></trkpt><trkpt lat="43.92530235759633" lon="6.272467027304709"><ele>1124.5</ele><time>2026-04-07T15:07:40Z</time></trkpt><trkpt lat="43.92517887324116" lon="6.272549932348264"><ele>1124.25</ele><time>2026-04-07T15:07:41Z</time></trkpt><trkpt lat="43.92504776730544" lon="6.272609252507476"><ele>1124.0</ele><time>2026-04-07T15:07:42Z</time></trkpt><trkpt lat="43.924925739752744" lon="6.272688029290844"><ele>1124.0</ele><time>2026-04-07T15:07:43Z</time></trkpt><trkpt lat="43.924816358982206" lon="6.2727892056832175"><ele>1124.0</ele><time>2026-04-07T15:07:44Z</time></trkpt><trkpt lat="43.92471614851922" lon="6.272892676328444"><ele>1124.0</ele><time>2026-04-07T15:07:45Z</time></trkpt><trkpt lat="43.92461337102687" lon="6.272985178177662"><ele>1124.0</ele><time>2026-04-07T15:07:46Z</time></trkpt><trkpt lat="43.92448406482366" lon="6.273000095217877"><ele>1124.0</ele><time>2026-04-07T15:07:47Z</time></trkpt><trkpt lat="43.92438350599244" lon="6.272990956679124"><ele>1124.0</ele><time>2026-04-07T15:07:48Z</time></trkpt><trkpt lat="43.92425801334039" lon="6.272994326159356"><ele>1124.0</ele><time>2026-04-07T15:07:49Z</time></trkpt><trkpt lat="43.92411203582056" lon="6.2730024037849414"><ele>1124.0</ele><time>2026-04-07T15:07:50Z</time></trkpt><trkpt lat="43.92397136385368" lon="6.273017352394973"><ele>1122.0</ele><time>2026-04-07T15:07:51Z</time></trkpt><trkpt lat="43.92383418431945" lon="6.273032376465941"><ele>1120.0</ele><time>2026-04-07T15:07:52Z</time></trkpt><trkpt lat="43.923716675993646" lon="6.273057955894115"><ele>1118.0</ele><time>2026-04-07T15:07:53Z</time></trkpt><trkpt lat="43.923611393259115" lon="6.273091198841922"><ele>1116.0</ele><time>2026-04-07T15:07:54Z</time></trkpt><trkpt lat="43.92353479605039" lon="6.273082985387085"><ele>1114.0</ele><time>2026-04-07T15:07:55Z</time></trkpt><trkpt lat="43.92344202477301" lon="6.2730765121785765"><ele>1113.0</ele><time>2026-04-07T15:07:56Z</time></trkpt><trkpt lat="43.92327931228858" lon="6.272957361061075"><ele>1112.0</ele><time>2026-04-07T15:07:57Z</time></trkpt><trkpt lat="43.92312055037393" lon="6.272926519386861"><ele>1111.0</ele><time>2026-04-07T15:07:58Z</time></trkpt><trkpt lat="43.92300533329219" lon="6.272887474634167"><ele>1111.0</ele><time>2026-04-07T15:07:59Z</time></trkpt><trkpt lat="43.922872313683285" lon="6.272871650461985"><ele>1111.0</ele><time>2026-04-07T15:08:00Z</time></trkpt><trkpt lat="43.92275265526663" lon="6.272854022973965"><ele>1111.0</ele><time>2026-04-07T15:08:01Z</time></trkpt><trkpt lat="43.92263818570952" lon="6.27282439234705"><ele>1111.0</ele><time>2026-04-07T15:08:02Z</time></trkpt><trkpt lat="43.922547433243004" lon="6.272788660858952"><ele>1112.2</ele><time>2026-04-07T15:08:03Z</time></trkpt><trkpt lat="43.922470761950265" lon="6.272774445639462"><ele>1113.3999999999999</ele><time>2026-04-07T15:08:04Z</time></trkpt><trkpt lat="43.92238750051432" lon="6.272826043891195"><ele>1114.6</ele><time>2026-04-07T15:08:05Z</time></trkpt><trkpt lat="43.92230671906841" lon="6.272919180663808"><ele>1115.8</ele><time>2026-04-07T15:08:06Z</time></trkpt><trkpt lat="43.92220784187134" lon="6.2730252694246165"><ele>1117.0</ele><time>2026-04-07T15:08:07Z</time></trkpt><trkpt lat="43.92208688708056" lon="6.273086132482018"><ele>1120.25</ele><time>2026-04-07T15:08:08Z</time></trkpt><trkpt lat="43.92195933215434" lon="6.27314643400539"><ele>1123.5</ele><time>2026-04-07T15:08:09Z</time></trkpt><trkpt lat="43.921839483867736" lon="6.273206205134766"><ele>1126.75</ele><time>2026-04-07T15:08:10Z</time></trkpt><trkpt lat="43.921719617491426" lon="6.273296720402585"><ele>1130.0</ele><time>2026-04-07T15:08:11Z</time></trkpt><trkpt lat="43.921597164730755" lon="6.273370685363086"><ele>1130.0</ele><time>2026-04-07T15:08:12Z</time></trkpt><trkpt lat="43.92147580389229" lon="6.273447355994965"><ele>1130.0</ele><time>2026-04-07T15:08:13Z</time></trkpt><trkpt lat="43.92135047548044" lon="6.273480246303048"><ele>1130.0</ele><time>2026-04-07T15:08:14Z</time></trkpt><trkpt lat="43.92122410707831" lon="6.273524432309719"><ele>1130.0</ele><time>2026-04-07T15:08:15Z</time></trkpt><trkpt lat="43.92108775913273" lon="6.273556367398522"><ele>1130.0</ele><time>2026-04-07T15:08:16Z</time></trkpt><trkpt lat="43.92095918416185" lon="6.2736225321190835"><ele>1130.0</ele><time>2026-04-07T15:08:17Z</time></trkpt><trkpt lat="43.92083083695875" lon="6.273672796806903"><ele>1130.0</ele><time>2026-04-07T15:08:18Z</time></trkpt><trkpt lat="43.9207148763169" lon="6.273727650538378"><ele>1130.0</ele><time>2026-04-07T15:08:19Z</time></trkpt><trkpt lat="43.92060283445701" lon="6.273765784348952"><ele>1128.4</ele><time>2026-04-07T15:08:20Z</time></trkpt><trkpt lat="43.92052084797669" lon="6.27383260001634"><ele>1126.8</ele><time>2026-04-07T15:08:21Z</time></trkpt><trkpt lat="43.92045047849391" lon="6.273949923105633"><ele>1125.2</ele><time>2026-04-07T15:08:22Z</time></trkpt><trkpt lat="43.92038474676204" lon="6.274070712519436"><ele>1123.6</ele><time>2026-04-07T15:08:23Z</time></trkpt><trkpt lat="43.92030075028854" lon="6.274136872041488"><ele>1122.0</ele><time>2026-04-07T15:08:24Z</time></trkpt><trkpt lat="43.92022259472109" lon="6.274196035537838"><ele>1123.0</ele><time>2026-04-07T15:08:25Z</time></trkpt><trkpt lat="43.920158277992606" lon="6.274269276173454"><ele>1124.0</ele><time>2026-04-07T15:08:26Z</time></trkpt><trkpt lat="43.92008415995275" lon="6.274324479428837"><ele>1125.0</ele><time>2026-04-07T15:08:27Z</time></trkpt><trkpt lat="43.9200185595822" lon="6.274385968123199"><ele>1126.0</ele><time>2026-04-07T15:08:28Z</time></trkpt><trkpt lat="43.91995896807242" lon="6.274461250243921"><ele>1127.0</ele><time>2026-04-07T15:08:29Z</time></trkpt><trkpt lat="43.91989103417323" lon="6.274559492951377"><ele>1128.0</ele><time>2026-04-07T15:08:30Z</time></trkpt><trkpt lat="43.91981299074443" lon="6.274664110666909"><ele>1128.0</ele><time>2026-04-07T15:08:31Z</time></trkpt><trkpt lat="43.91971416822317" lon="6.274759754019488"><ele>1128.0</ele><time>2026-04-07T15:08:32Z</time></trkpt><trkpt lat="43.9196112881682" lon="6.2748442780685325"><ele>1128.0</ele><time>2026-04-07T15:08:33Z</time></trkpt><trkpt lat="43.91950025557732" lon="6.274912857208432"><ele>1128.0</ele><time>2026-04-07T15:08:34Z</time></trkpt><trkpt lat="43.919401616086" lon="6.274967730971622"><ele>1127.2</ele><time>2026-04-07T15:08:35Z</time></trkpt><trkpt lat="43.91933077778195" lon="6.275042465221462"><ele>1126.4</ele><time>2026-04-07T15:08:36Z</time></trkpt><trkpt lat="43.91929356342535" lon="6.275161050711071"><ele>1125.6000000000001</ele><time>2026-04-07T15:08:37Z</time></trkpt><trkpt lat="43.91926344316593" lon="6.27531015345726"><ele>1124.8</ele><time>2026-04-07T15:08:38Z</time></trkpt><trkpt lat="43.91920267590422" lon="6.275448808150846"><ele>1124.0</ele><time>2026-04-07T15:08:39Z</time></trkpt><trkpt lat="43.91908730743982" lon="6.275495654794821"><ele>1124.0</ele><time>2026-04-07T15:08:40Z</time></trkpt><trkpt lat="43.91898672110819" lon="6.275582585183096"><ele>1124.0</ele><time>2026-04-07T15:08:41Z</time></trkpt><trkpt lat="43.918889656730734" lon="6.27563346820312"><ele>1124.0</ele><time>2026-04-07T15:08:42Z</time></trkpt><trkpt lat="43.91882257007775" lon="6.275710544011062"><ele>1124.0</ele><time>2026-04-07T15:08:43Z</time></trkpt><trkpt lat="43.918775291312286" lon="6.275825638010681"><ele>1124.0</ele><time>2026-04-07T15:08:44Z</time></trkpt><trkpt lat="43.91874661684462" lon="6.275984609064504"><ele>1128.5</ele><time>2026-04-07T15:08:45Z</time></trkpt><trkpt lat="43.918722967660706" lon="6.276143175733024"><ele>1133.0</ele><time>2026-04-07T15:08:46Z</time></trkpt><trkpt lat="43.91865850975549" lon="6.276291910549087"><ele>1137.5</ele><time>2026-04-07T15:08:47Z</time></trkpt><trkpt lat="43.918581090549644" lon="6.276416140667434"><ele>1142.0</ele><time>2026-04-07T15:08:48Z</time></trkpt><trkpt lat="43.91848544845671" lon="6.276512502212532"><ele>1140.5</ele><time>2026-04-07T15:08:49Z</time></trkpt><trkpt lat="43.91837096634913" lon="6.276606776034902"><ele>1139.0</ele><time>2026-04-07T15:08:50Z</time></trkpt><trkpt lat="43.91826440883011" lon="6.276713976603036"><ele>1137.5</ele><time>2026-04-07T15:08:51Z</time></trkpt><trkpt lat="43.9181407305674" lon="6.276812326681308"><ele>1136.0</ele><time>2026-04-07T15:08:52Z</time></trkpt><trkpt lat="43.91802600863069" lon="6.276920643999308"><ele>1136.0</ele><time>2026-04-07T15:08:53Z</time></trkpt><trkpt lat="43.9179143798081" lon="6.277038262107528"><ele>1136.0</ele><time>2026-04-07T15:08:54Z</time></trkpt><trkpt lat="43.91781789577271" lon="6.27718083555263"><ele>1136.0</ele><time>2026-04-07T15:08:55Z</time></trkpt><trkpt lat="43.917720841201465" lon="6.2773241210228505"><ele>1136.0</ele><time>2026-04-07T15:08:56Z</time></trkpt><trkpt lat="43.91761114391428" lon="6.277415954907989"><ele>1135.75</ele><time>2026-04-07T15:08:57Z</time></trkpt><trkpt lat="43.91751991976512" lon="6.277532451872806"><ele>1135.5</ele><time>2026-04-07T15:08:58Z</time></trkpt><trkpt lat="43.91742723354654" lon="6.277631707205464"><ele>1135.25</ele><time>2026-04-07T15:08:59Z</time></trkpt><trkpt lat="43.917345749702704" lon="6.277765799161277"><ele>1135.0</ele><time>2026-04-07T15:09:00Z</time></trkpt><trkpt lat="43.917290639669126" lon="6.277917791253957"><ele>1135.0</ele><time>2026-04-07T15:09:01Z</time></trkpt><trkpt lat="43.917265242041665" lon="6.278072356529275"><ele>1135.0</ele><time>2026-04-07T15:09:02Z</time></trkpt><trkpt lat="43.91725227414768" lon="6.278240090864275"><ele>1135.0</ele><time>2026-04-07T15:09:03Z</time></trkpt><trkpt lat="43.917251068153035" lon="6.2784206594055165"><ele>1135.0</ele><time>2026-04-07T15:09:04Z</time></trkpt><trkpt lat="43.91724294218197" lon="6.278585316766436"><ele>1138.25</ele><time>2026-04-07T15:09:05Z</time></trkpt><trkpt lat="43.91722288329741" lon="6.278748341855185"><ele>1141.5</ele><time>2026-04-07T15:09:06Z</time></trkpt><trkpt lat="43.917229155979285" lon="6.278906753422717"><ele>1144.75</ele><time>2026-04-07T15:09:07Z</time></trkpt><trkpt lat="43.91726537980756" lon="6.27908000467028"><ele>1148.0</ele><time>2026-04-07T15:09:08Z</time></trkpt><trkpt lat="43.91730885255439" lon="6.279251620533465"><ele>1148.0</ele><time>2026-04-07T15:09:09Z</time></trkpt><trkpt lat="43.91733646519518" lon="6.279435904753043"><ele>1148.0</ele><time>2026-04-07T15:09:10Z</time></trkpt><trkpt lat="43.91737985131126" lon="6.279622623032278"><ele>1148.0</ele><time>2026-04-07T15:09:11Z</time></trkpt><trkpt lat="43.91744159357933" lon="6.279797821956715"><ele>1148.0</ele><time>2026-04-07T15:09:12Z</time></trkpt><trkpt lat="43.9175063743757" lon="6.2799667126271395"><ele>1146.0</ele><time>2026-04-07T15:09:13Z</time></trkpt><trkpt lat="43.91754160642966" lon="6.280131771636332"><ele>1144.0</ele><time>2026-04-07T15:09:14Z</time></trkpt><trkpt lat="43.91757041900638" lon="6.280281528598522"><ele>1142.0</ele><time>2026-04-07T15:09:15Z</time></trkpt><trkpt lat="43.917579440451654" lon="6.28043249897848"><ele>1140.0</ele><time>2026-04-07T15:09:16Z</time></trkpt><trkpt lat="43.917515028331096" lon="6.28056179981282"><ele>1141.75</ele><time>2026-04-07T15:09:17Z</time></trkpt><trkpt lat="43.9174847505272" lon="6.280720173260057"><ele>1143.5</ele><time>2026-04-07T15:09:18Z</time></trkpt><trkpt lat="43.91743074674127" lon="6.280882876143083"><ele>1145.25</ele><time>2026-04-07T15:09:19Z</time></trkpt><trkpt lat="43.917374682374536" lon="6.281051323584123"><ele>1147.0</ele><time>2026-04-07T15:09:20Z</time></trkpt><trkpt lat="43.91732629733919" lon="6.281219345707232"><ele>1147.0</ele><time>2026-04-07T15:09:21Z</time></trkpt><trkpt lat="43.91727655254252" lon="6.281384000003955"><ele>1147.0</ele><time>2026-04-07T15:09:22Z</time></trkpt><trkpt lat="43.91719011169442" lon="6.28153263456403"><ele>1147.0</ele><time>2026-04-07T15:09:23Z</time></trkpt><trkpt lat="43.917103636193225" lon="6.281670710522219"><ele>1147.0</ele><time>2026-04-07T15:09:24Z</time></trkpt><trkpt lat="43.917018943112275" lon="6.28182709774437"><ele>1149.5</ele><time>2026-04-07T15:09:25Z</time></trkpt><trkpt lat="43.916905075101134" lon="6.281914819079709"><ele>1152.0</ele><time>2026-04-07T15:09:26Z</time></trkpt><trkpt lat="43.916787543120265" lon="6.281975824666218"><ele>1154.5</ele><time>2026-04-07T15:09:27Z</time></trkpt><trkpt lat="43.91665273079167" lon="6.2820124122210235"><ele>1157.0</ele><time>2026-04-07T15:09:28Z</time></trkpt><trkpt lat="43.91651491270078" lon="6.282075374397837"><ele>1155.75</ele><time>2026-04-07T15:09:29Z</time></trkpt><trkpt lat="43.916385244440846" lon="6.282120021755901"><ele>1154.5</ele><time>2026-04-07T15:09:30Z</time></trkpt><trkpt lat="43.916276199806305" lon="6.282218505965571"><ele>1153.25</ele><time>2026-04-07T15:09:31Z</time></trkpt><trkpt lat="43.91618185649695" lon="6.282363925735896"><ele>1152.0</ele><time>2026-04-07T15:09:32Z</time></trkpt><trkpt lat="43.91609264722697" lon="6.282519297986659"><ele>1152.0</ele><time>2026-04-07T15:09:33Z</time></trkpt><trkpt lat="43.91600005942106" lon="6.282679710285288"><ele>1152.0</ele><time>2026-04-07T15:09:34Z</time></trkpt><trkpt lat="43.915919036445196" lon="6.282846492385929"><ele>1152.0</ele><time>2026-04-07T15:09:35Z</time></trkpt><trkpt lat="43.91585057056155" lon="6.283030427868583"><ele>1152.0</ele><time>2026-04-07T15:09:36Z</time></trkpt><trkpt lat="43.915787456701025" lon="6.283232933130824"><ele>1150.6666666666667</ele><time>2026-04-07T15:09:37Z</time></trkpt><trkpt lat="43.91572856267926" lon="6.283431264515359"><ele>1149.3333333333335</ele><time>2026-04-07T15:09:38Z</time></trkpt><trkpt lat="43.91567077481094" lon="6.283635160811008"><ele>1148.0</ele><time>2026-04-07T15:09:39Z</time></trkpt><trkpt lat="43.91560374058265" lon="6.283833036865898"><ele>1152.3333333333335</ele><time>2026-04-07T15:09:40Z</time></trkpt><trkpt lat="43.91552609519707" lon="6.284023527714569"><ele>1156.6666666666667</ele><time>2026-04-07T15:09:41Z</time></trkpt><trkpt lat="43.915446738975795" lon="6.284214430604756"><ele>1161.0</ele><time>2026-04-07T15:09:42Z</time></trkpt><trkpt lat="43.91534888754958" lon="6.284381272040067"><ele>1161.0</ele><time>2026-04-07T15:09:43Z</time></trkpt><trkpt lat="43.915284429518216" lon="6.284555143747478"><ele>1161.0</ele><time>2026-04-07T15:09:44Z</time></trkpt><trkpt lat="43.91522005332733" lon="6.284725272695332"><ele>1161.0</ele><time>2026-04-07T15:09:45Z</time></trkpt><trkpt lat="43.91516599922856" lon="6.284893183034971"><ele>1161.0</ele><time>2026-04-07T15:09:46Z</time></trkpt><trkpt lat="43.915133466399624" lon="6.285066011408281"><ele>1163.25</ele><time>2026-04-07T15:09:47Z</time></trkpt><trkpt lat="43.91512997302446" lon="6.285257956435352"><ele>1165.5</ele><time>2026-04-07T15:09:48Z</time></trkpt><trkpt lat="43.91515518119626" lon="6.285447582620031"><ele>1167.75</ele><time>2026-04-07T15:09:49Z</time></trkpt><trkpt lat="43.91518365313589" lon="6.285644993043677"><ele>1170.0</ele><time>2026-04-07T15:09:50Z</time></trkpt><trkpt lat="43.915197198708505" lon="6.285843427300008"><ele>1170.25</ele><time>2026-04-07T15:09:51Z</time></trkpt><trkpt lat="43.91522176227184" lon="6.2860341166533455"><ele>1170.5</ele><time>2026-04-07T15:09:52Z</time></trkpt><trkpt lat="43.91524279898668" lon="6.2862098235347545"><ele>1170.75</ele><time>2026-04-07T15:09:53Z</time></trkpt><trkpt lat="43.9152585879398" lon="6.286382272348647"><ele>1171.0</ele><time>2026-04-07T15:09:54Z</time></trkpt><trkpt lat="43.91524013857633" lon="6.2865390206720875"><ele>1170.6</ele><time>2026-04-07T15:09:55Z</time></trkpt><trkpt lat="43.91521511011453" lon="6.286688967465932"><ele>1170.1999999999998</ele><time>2026-04-07T15:09:56Z</time></trkpt><trkpt lat="43.91522010299746" lon="6.28682565164542"><ele>1169.8000000000002</ele><time>2026-04-07T15:09:57Z</time></trkpt><trkpt lat="43.915231767182824" lon="6.28695389696123"><ele>1169.4</ele><time>2026-04-07T15:09:58Z</time></trkpt><trkpt lat="43.91528077445989" lon="6.287080531299463"><ele>1169.0</ele><time>2026-04-07T15:09:59Z</time></trkpt><trkpt lat="43.91533837574717" lon="6.287203520807311"><ele>1168.2</ele><time>2026-04-07T15:10:00Z</time></trkpt><trkpt lat="43.91539037006318" lon="6.287334841911985"><ele>1167.4</ele><time>2026-04-07T15:10:01Z</time></trkpt><trkpt lat="43.91539063921936" lon="6.287470658935482"><ele>1166.6</ele><time>2026-04-07T15:10:02Z</time></trkpt><trkpt lat="43.91537494484137" lon="6.287592656528792"><ele>1165.8</ele><time>2026-04-07T15:10:03Z</time></trkpt><trkpt lat="43.91535389368579" lon="6.287722762157255"><ele>1165.0</ele><time>2026-04-07T15:10:04Z</time></trkpt><trkpt lat="43.915309569992345" lon="6.287824300584626"><ele>1165.0</ele><time>2026-04-07T15:10:05Z</time></trkpt><trkpt lat="43.91524166652537" lon="6.287902958926117"><ele>1165.0</ele><time>2026-04-07T15:10:06Z</time></trkpt><trkpt lat="43.915147406863035" lon="6.287921140725109"><ele>1165.0</ele><time>2026-04-07T15:10:07Z</time></trkpt><trkpt lat="43.91505683781957" lon="6.287984483485027"><ele>1165.0</ele><time>2026-04-07T15:10:08Z</time></trkpt><trkpt lat="43.91496470540278" lon="6.288078182908112"><ele>1165.0</ele><time>2026-04-07T15:10:09Z</time></trkpt><trkpt lat="43.91486362743861" lon="6.288175200704373"><ele>1162.0</ele><time>2026-04-07T15:10:10Z</time></trkpt><trkpt lat="43.91477090450742" lon="6.288291754987704"><ele>1159.0</ele><time>2026-04-07T15:10:11Z</time></trkpt><trkpt lat="43.91467947635434" lon="6.288405877385747"><ele>1156.0</ele><time>2026-04-07T15:10:12Z</time></trkpt><trkpt lat="43.914586314065474" lon="6.288506994902302"><ele>1153.0</ele><time>2026-04-07T15:10:13Z</time></trkpt><trkpt lat="43.91449211675275" lon="6.288597416444608"><ele>1153.0</ele><time>2026-04-07T15:10:14Z</time></trkpt><trkpt lat="43.91440021331022" lon="6.288692339395793"><ele>1153.0</ele><time>2026-04-07T15:10:15Z</time></trkpt><trkpt lat="43.91431330899334" lon="6.288792645923485"><ele>1153.0</ele><time>2026-04-07T15:10:16Z</time></trkpt><trkpt lat="43.9142299050211" lon="6.28887370727333"><ele>1153.0</ele><time>2026-04-07T15:10:17Z</time></trkpt><trkpt lat="43.9141533133343" lon="6.288948250551073"><ele>1153.0</ele><time>2026-04-07T15:10:18Z</time></trkpt><trkpt lat="43.91408479714244" lon="6.28899942247797"><ele>1153.0</ele><time>2026-04-07T15:10:19Z</time></trkpt><trkpt lat="43.9140083385862" lon="6.2890152212242025"><ele>1153.0</ele><time>2026-04-07T15:10:20Z</time></trkpt><trkpt lat="43.91394526170721" lon="6.2890595491458114"><ele>1153.0</ele><time>2026-04-07T15:10:21Z</time></trkpt><trkpt lat="43.91387905980459" lon="6.289059733305401"><ele>1153.0</ele><time>2026-04-07T15:10:22Z</time></trkpt><trkpt lat="43.913815946671285" lon="6.289045305035169"><ele>1153.0</ele><time>2026-04-07T15:10:23Z</time></trkpt><trkpt lat="43.913712395613594" lon="6.289089412531391"><ele>1153.0</ele><time>2026-04-07T15:10:25Z</time></trkpt><trkpt lat="43.91361994470292" lon="6.289168344818128"><ele>1153.0</ele><time>2026-04-07T15:10:27Z</time></trkpt><trkpt lat="43.913526604957276" lon="6.2892154133730775"><ele>1153.0</ele><time>2026-04-07T15:10:29Z</time></trkpt><trkpt lat="43.913452519784286" lon="6.289251059272238"><ele>1153.0</ele><time>2026-04-07T15:10:31Z</time></trkpt><trkpt lat="43.91337942315847" lon="6.2892983721467814"><ele>1153.0</ele><time>2026-04-07T15:10:33Z</time></trkpt><trkpt lat="43.91330342399658" lon="6.289325939125312"><ele>1153.0</ele><time>2026-04-07T15:10:36Z</time></trkpt><trkpt lat="43.913233695334114" lon="6.289405296022476"><ele>1153.0</ele><time>2026-04-07T15:12:46Z</time></trkpt><trkpt lat="43.91314403825472" lon="6.289519435086882"><ele>1153.5714285714287</ele><time>2026-04-07T15:12:48Z</time></trkpt><trkpt lat="43.91310174661557" lon="6.289597384867008"><ele>1154.1428571428573</ele><time>2026-04-07T15:12:49Z</time></trkpt><trkpt lat="43.91306579822775" lon="6.289697310691525"><ele>1154.7142857142858</ele><time>2026-04-07T15:12:50Z</time></trkpt><trkpt lat="43.91303964845901" lon="6.289793200868442"><ele>1155.2857142857142</ele><time>2026-04-07T15:12:51Z</time></trkpt><trkpt lat="43.91302176695403" lon="6.28989736576685"><ele>1155.8571428571427</ele><time>2026-04-07T15:12:52Z</time></trkpt><trkpt lat="43.91299801593285" lon="6.2899898884247545"><ele>1156.4285714285713</ele><time>2026-04-07T15:12:53Z</time></trkpt><trkpt lat="43.9129741722615" lon="6.29008244993185"><ele>1157.0</ele><time>2026-04-07T15:12:54Z</time></trkpt><trkpt lat="43.91294290334038" lon="6.290173590577742"><ele>1157.0</ele><time>2026-04-07T15:12:55Z</time></trkpt><trkpt lat="43.91289641784979" lon="6.290270137864127"><ele>1157.0</ele><time>2026-04-07T15:12:56Z</time></trkpt><trkpt lat="43.91283727159019" lon="6.290360375438169"><ele>1157.0</ele><time>2026-04-07T15:12:57Z</time></trkpt><trkpt lat="43.9127810794059" lon="6.290439163132659"><ele>1157.0</ele><time>2026-04-07T15:12:58Z</time></trkpt><trkpt lat="43.91272687526365" lon="6.290505458828733"><ele>1157.0</ele><time>2026-04-07T15:12:59Z</time></trkpt><trkpt lat="43.91267711200186" lon="6.29056972568638"><ele>1157.0</ele><time>2026-04-07T15:13:00Z</time></trkpt><trkpt lat="43.912603013918726" lon="6.290607064443784"><ele>1158.2</ele><time>2026-04-07T15:13:01Z</time></trkpt><trkpt lat="43.91252169088615" lon="6.29064401699446"><ele>1159.4</ele><time>2026-04-07T15:13:02Z</time></trkpt><trkpt lat="43.91246569121271" lon="6.290718492704931"><ele>1160.6</ele><time>2026-04-07T15:13:03Z</time></trkpt><trkpt lat="43.912360721571915" lon="6.290739450916514"><ele>1161.8</ele><time>2026-04-07T15:13:05Z</time></trkpt><trkpt lat="43.912281519660894" lon="6.2906351330637404"><ele>1163.0</ele><time>2026-04-07T15:13:07Z</time></trkpt><trkpt lat="43.912222742292585" lon="6.290576516767535"><ele>1161.0</ele><time>2026-04-07T15:13:08Z</time></trkpt><trkpt lat="43.912187232928915" lon="6.290481335746397"><ele>1159.0</ele><time>2026-04-07T15:13:09Z</time></trkpt><trkpt lat="43.91215816462618" lon="6.29037085105812"><ele>1157.0</ele><time>2026-04-07T15:13:10Z</time></trkpt><trkpt lat="43.91213030543123" lon="6.290270583464859"><ele>1155.0</ele><time>2026-04-07T15:13:11Z</time></trkpt><trkpt lat="43.91208309610217" lon="6.29018091036317"><ele>1153.0</ele><time>2026-04-07T15:13:12Z</time></trkpt><trkpt lat="43.91199108200011" lon="6.290114888531474"><ele>1151.0</ele><time>2026-04-07T15:13:13Z</time></trkpt><trkpt lat="43.91190213635612" lon="6.290042241258992"><ele>1151.0</ele><time>2026-04-07T15:13:14Z</time></trkpt><trkpt lat="43.911813536284676" lon="6.289952284063417"><ele>1151.0</ele><time>2026-04-07T15:13:15Z</time></trkpt><trkpt lat="43.911726592538386" lon="6.289864252881239"><ele>1151.0</ele><time>2026-04-07T15:13:16Z</time></trkpt><trkpt lat="43.9116761070609" lon="6.289776803549184"><ele>1151.0</ele><time>2026-04-07T15:13:17Z</time></trkpt><trkpt lat="43.91161644190071" lon="6.289688173749831"><ele>1151.0</ele><time>2026-04-07T15:13:18Z</time></trkpt><trkpt lat="43.91153244964142" lon="6.289623213665707"><ele>1150.3999999999999</ele><time>2026-04-07T15:13:19Z</time></trkpt><trkpt lat="43.91143664122221" lon="6.289567628406206"><ele>1149.8</ele><time>2026-04-07T15:13:20Z</time></trkpt><trkpt lat="43.91134681011239" lon="6.289508587685824"><ele>1149.1999999999998</ele><time>2026-04-07T15:13:21Z</time></trkpt><trkpt lat="43.91125291017495" lon="6.2894442973814"><ele>1148.6</ele><time>2026-04-07T15:13:22Z</time></trkpt><trkpt lat="43.91116271673526" lon="6.289375401753658"><ele>1148.0</ele><time>2026-04-07T15:13:23Z</time></trkpt><trkpt lat="43.911077328048606" lon="6.289297289704418"><ele>1148.0</ele><time>2026-04-07T15:13:24Z</time></trkpt><trkpt lat="43.910995611842196" lon="6.289217514649569"><ele>1148.0</ele><time>2026-04-07T15:13:25Z</time></trkpt><trkpt lat="43.91092300771441" lon="6.289142174050973"><ele>1148.0</ele><time>2026-04-07T15:13:26Z</time></trkpt><trkpt lat="43.910852026005756" lon="6.289076855311553"><ele>1148.0</ele><time>2026-04-07T15:13:27Z</time></trkpt><trkpt lat="43.910760846838166" lon="6.289081767838021"><ele>1148.0</ele><time>2026-04-07T15:13:28Z</time></trkpt><trkpt lat="43.91067566838075" lon="6.289043802674414"><ele>1148.3333333333335</ele><time>2026-04-07T15:13:29Z</time></trkpt><trkpt lat="43.91059973081278" lon="6.289015079457595"><ele>1148.6666666666667</ele><time>2026-04-07T15:13:30Z</time></trkpt><trkpt lat="43.910526035140656" lon="6.288952931454444"><ele>1149.0</ele><time>2026-04-07T15:13:31Z</time></trkpt><trkpt lat="43.91048156460595" lon="6.288874443273643"><ele>1149.3333333333333</ele><time>2026-04-07T15:13:32Z</time></trkpt><trkpt lat="43.91039913774414" lon="6.2887520680937135"><ele>1149.6666666666665</ele><time>2026-04-07T15:13:33Z</time></trkpt><trkpt lat="43.91033509265111" lon="6.288666794342001"><ele>1150.0</ele><time>2026-04-07T15:13:34Z</time></trkpt><trkpt lat="43.910278993586644" lon="6.288599000509235"><ele>1150.0</ele><time>2026-04-07T15:13:35Z</time></trkpt><trkpt lat="43.91020469468722" lon="6.288526733845654"><ele>1150.0</ele><time>2026-04-07T15:13:36Z</time></trkpt><trkpt lat="43.91011662362961" lon="6.288494510345345"><ele>1150.0</ele><time>2026-04-07T15:13:37Z</time></trkpt><trkpt lat="43.910057719957265" lon="6.28844417623963"><ele>1150.0</ele><time>2026-04-07T15:13:38Z</time></trkpt><trkpt lat="43.90998288387223" lon="6.288373056004884"><ele>1150.0</ele><time>2026-04-07T15:13:39Z</time></trkpt><trkpt lat="43.90995311802648" lon="6.288280231756349"><ele>1150.0</ele><time>2026-04-07T15:13:40Z</time></trkpt><trkpt lat="43.90993029504483" lon="6.288182227565047"><ele>1150.8</ele><time>2026-04-07T15:13:41Z</time></trkpt><trkpt lat="43.90988614381606" lon="6.288076075621469"><ele>1151.6</ele><time>2026-04-07T15:13:42Z</time></trkpt><trkpt lat="43.90980792089764" lon="6.28796015766424"><ele>1152.4</ele><time>2026-04-07T15:13:44Z</time></trkpt><trkpt lat="43.909689605190856" lon="6.287905907316426"><ele>1153.2</ele><time>2026-04-07T15:13:46Z</time></trkpt><trkpt lat="43.90961264216622" lon="6.287944468971461"><ele>1154.0</ele><time>2026-04-07T15:13:47Z</time></trkpt><trkpt lat="43.90952156885041" lon="6.287964262097325"><ele>1154.0</ele><time>2026-04-07T15:13:48Z</time></trkpt><trkpt lat="43.909431627958135" lon="6.287992587458317"><ele>1154.0</ele><time>2026-04-07T15:13:49Z</time></trkpt><trkpt lat="43.909335058347004" lon="6.2880184952255895"><ele>1154.0</ele><time>2026-04-07T15:13:50Z</time></trkpt><trkpt lat="43.90924218693914" lon="6.288044740825953"><ele>1154.0</ele><time>2026-04-07T15:13:51Z</time></trkpt><trkpt lat="43.909156747443845" lon="6.288060341527537"><ele>1154.0</ele><time>2026-04-07T15:13:52Z</time></trkpt><trkpt lat="43.90909896555852" lon="6.2881008656347515"><ele>1154.0</ele><time>2026-04-07T15:13:53Z</time></trkpt><trkpt lat="43.90903779043645" lon="6.2882567594618335"><ele>1157.4</ele><time>2026-04-07T15:13:55Z</time></trkpt><trkpt lat="43.90902773778191" lon="6.288358281026532"><ele>1160.8000000000002</ele><time>2026-04-07T15:13:56Z</time></trkpt><trkpt lat="43.90900385813219" lon="6.288476398916505"><ele>1164.1999999999998</ele><time>2026-04-07T15:13:57Z</time></trkpt><trkpt lat="43.908954825716336" lon="6.288590935397496"><ele>1167.6</ele><time>2026-04-07T15:13:58Z</time></trkpt><trkpt lat="43.90888844352575" lon="6.288698514293229"><ele>1171.0</ele><time>2026-04-07T15:13:59Z</time></trkpt><trkpt lat="43.908809349336615" lon="6.2887934922817"><ele>1171.0</ele><time>2026-04-07T15:14:00Z</time></trkpt><trkpt lat="43.90872985862914" lon="6.288861398298748"><ele>1171.0</ele><time>2026-04-07T15:14:01Z</time></trkpt><trkpt lat="43.908644999422584" lon="6.288925058766932"><ele>1171.0</ele><time>2026-04-07T15:14:02Z</time></trkpt><trkpt lat="43.90856596363239" lon="6.288983683995979"><ele>1171.0</ele><time>2026-04-07T15:14:03Z</time></trkpt><trkpt lat="43.90848850563291" lon="6.288962820548139"><ele>1171.0</ele><time>2026-04-07T15:14:04Z</time></trkpt><trkpt lat="43.908422106460364" lon="6.288981576855918"><ele>1171.0</ele><time>2026-04-07T15:14:05Z</time></trkpt><trkpt lat="43.90832914613032" lon="6.288989215954684"><ele>1172.5</ele><time>2026-04-07T15:14:06Z</time></trkpt><trkpt lat="43.90824579020842" lon="6.289015637878165"><ele>1174.0</ele><time>2026-04-07T15:14:07Z</time></trkpt><trkpt lat="43.90815550498166" lon="6.289084857692822"><ele>1175.5</ele><time>2026-04-07T15:14:08Z</time></trkpt><trkpt lat="43.9080904402503" lon="6.289157832341519"><ele>1177.0</ele><time>2026-04-07T15:14:09Z</time></trkpt><trkpt lat="43.90802338138523" lon="6.289236938225964"><ele>1178.5</ele><time>2026-04-07T15:14:10Z</time></trkpt><trkpt lat="43.90795155953016" lon="6.2892972469526285"><ele>1180.0</ele><time>2026-04-07T15:14:11Z</time></trkpt><trkpt lat="43.90787420153831" lon="6.2893275507492294"><ele>1180.0</ele><time>2026-04-07T15:14:12Z</time></trkpt><trkpt lat="43.90778144785665" lon="6.289332762590098"><ele>1180.0</ele><time>2026-04-07T15:14:13Z</time></trkpt><trkpt lat="43.90769046725404" lon="6.289366246154809"><ele>1180.0</ele><time>2026-04-07T15:14:14Z</time></trkpt><trkpt lat="43.90759815963643" lon="6.289393668988492"><ele>1180.0</ele><time>2026-04-07T15:14:15Z</time></trkpt><trkpt lat="43.90750983710777" lon="6.289400890859778"><ele>1180.0</ele><time>2026-04-07T15:14:16Z</time></trkpt><trkpt lat="43.907419779607125" lon="6.289435399651096"><ele>1178.2</ele><time>2026-04-07T15:14:17Z</time></trkpt><trkpt lat="43.90731651614789" lon="6.289476941756395"><ele>1176.4</ele><time>2026-04-07T15:14:18Z</time></trkpt><trkpt lat="43.90723698479632" lon="6.289583597668664"><ele>1174.6</ele><time>2026-04-07T15:14:19Z</time></trkpt><trkpt lat="43.90715303589342" lon="6.289685601508004"><ele>1172.8</ele><time>2026-04-07T15:14:20Z</time></trkpt><trkpt lat="43.907070348781794" lon="6.2897920438634705"><ele>1171.0</ele><time>2026-04-07T15:14:21Z</time></trkpt><trkpt lat="43.90699047500211" lon="6.2898973396448845"><ele>1173.25</ele><time>2026-04-07T15:14:22Z</time></trkpt><trkpt lat="43.90690371026727" lon="6.2900077216017065"><ele>1175.5</ele><time>2026-04-07T15:14:23Z</time></trkpt><trkpt lat="43.90681534820588" lon="6.290122258937865"><ele>1177.75</ele><time>2026-04-07T15:14:24Z</time></trkpt><trkpt lat="43.906718315418956" lon="6.290224322257705"><ele>1180.0</ele><time>2026-04-07T15:14:25Z</time></trkpt><trkpt lat="43.9066298223421" lon="6.290334643746948"><ele>1180.0</ele><time>2026-04-07T15:14:26Z</time></trkpt><trkpt lat="43.90652660582885" lon="6.2904102373572846"><ele>1180.0</ele><time>2026-04-07T15:14:27Z</time></trkpt><trkpt lat="43.90643633157261" lon="6.290472626821534"><ele>1180.0</ele><time>2026-04-07T15:14:28Z</time></trkpt><trkpt lat="43.90635019817358" lon="6.290530349476858"><ele>1180.0</ele><time>2026-04-07T15:14:29Z</time></trkpt><trkpt lat="43.906281878709066" lon="6.290589797435885"><ele>1180.0</ele><time>2026-04-07T15:14:30Z</time></trkpt><trkpt lat="43.906201789146756" lon="6.290653681844179"><ele>1181.2</ele><time>2026-04-07T15:14:31Z</time></trkpt><trkpt lat="43.90611246380129" lon="6.290749487186999"><ele>1182.4</ele><time>2026-04-07T15:14:32Z</time></trkpt><trkpt lat="43.906034713163805" lon="6.290842321682724"><ele>1183.6</ele><time>2026-04-07T15:14:33Z</time></trkpt><trkpt lat="43.905950754885154" lon="6.2909423780147335"><ele>1184.8</ele><time>2026-04-07T15:14:34Z</time></trkpt><trkpt lat="43.90586145230802" lon="6.291037053902042"><ele>1186.0</ele><time>2026-04-07T15:14:35Z</time></trkpt><trkpt lat="43.90576595257904" lon="6.291115300890345"><ele>1186.0</ele><time>2026-04-07T15:14:36Z</time></trkpt><trkpt lat="43.905660842186116" lon="6.291188625491841"><ele>1186.0</ele><time>2026-04-07T15:14:37Z</time></trkpt><trkpt lat="43.905563913414674" lon="6.291272340617804"><ele>1186.0</ele><time>2026-04-07T15:14:38Z</time></trkpt><trkpt lat="43.9054608551085" lon="6.291323487963081"><ele>1186.0</ele><time>2026-04-07T15:14:39Z</time></trkpt><trkpt lat="43.90536845026488" lon="6.29139977493614"><ele>1186.0</ele><time>2026-04-07T15:14:40Z</time></trkpt><trkpt lat="43.90526907369158" lon="6.2914100046969"><ele>1188.6666666666665</ele><time>2026-04-07T15:14:41Z</time></trkpt><trkpt lat="43.90516932214912" lon="6.2914389207332135"><ele>1191.3333333333333</ele><time>2026-04-07T15:14:42Z</time></trkpt><trkpt lat="43.905062338957194" lon="6.291466637233328"><ele>1194.0</ele><time>2026-04-07T15:14:43Z</time></trkpt><trkpt lat="43.90498905205376" lon="6.291485623922907"><ele>1196.6666666666667</ele><time>2026-04-07T15:14:44Z</time></trkpt><trkpt lat="43.90491021459424" lon="6.291521951395797"><ele>1199.3333333333335</ele><time>2026-04-07T15:14:45Z</time></trkpt><trkpt lat="43.90484612798329" lon="6.2915295277831556"><ele>1202.0</ele><time>2026-04-07T15:14:46Z</time></trkpt><trkpt lat="43.9047229772807" lon="6.291480002791064"><ele>1198.0</ele><time>2026-04-07T15:14:48Z</time></trkpt><trkpt lat="43.904695391418876" lon="6.291356621145779"><ele>1194.0</ele><time>2026-04-07T15:14:49Z</time></trkpt><trkpt lat="43.90461954268962" lon="6.291294787152067"><ele>1190.0</ele><time>2026-04-07T15:14:50Z</time></trkpt><trkpt lat="43.90454284137217" lon="6.291243593094248"><ele>1186.0</ele><time>2026-04-07T15:14:51Z</time></trkpt><trkpt lat="43.90443674100068" lon="6.291189693960637"><ele>1182.0</ele><time>2026-04-07T15:14:52Z</time></trkpt><trkpt lat="43.90432668856529" lon="6.291171292214154"><ele>1183.6</ele><time>2026-04-07T15:14:53Z</time></trkpt><trkpt lat="43.90422519978703" lon="6.291150023374537"><ele>1185.2</ele><time>2026-04-07T15:14:54Z</time></trkpt><trkpt lat="43.904124119967236" lon="6.2911288402327035"><ele>1186.8</ele><time>2026-04-07T15:14:55Z</time></trkpt><trkpt lat="43.90401420523888" lon="6.29111811554857"><ele>1188.4</ele><time>2026-04-07T15:14:56Z</time></trkpt><trkpt lat="43.90391412397574" lon="6.291116474247623"><ele>1190.0</ele><time>2026-04-07T15:14:57Z</time></trkpt><trkpt lat="43.903817685816776" lon="6.291166750811847"><ele>1190.0</ele><time>2026-04-07T15:14:58Z</time></trkpt><trkpt lat="43.90372668597637" lon="6.291207390334178"><ele>1190.0</ele><time>2026-04-07T15:14:59Z</time></trkpt><trkpt lat="43.90362337531472" lon="6.291242170197271"><ele>1190.0</ele><time>2026-04-07T15:15:00Z</time></trkpt><trkpt lat="43.90351708554307" lon="6.291292344010876"><ele>1190.0</ele><time>2026-04-07T15:15:01Z</time></trkpt><trkpt lat="43.90340204255459" lon="6.29133716832117"><ele>1190.0</ele><time>2026-04-07T15:15:02Z</time></trkpt><trkpt lat="43.90328566441858" lon="6.291372809980061"><ele>1190.6</ele><time>2026-04-07T15:15:03Z</time></trkpt><trkpt lat="43.90318404587108" lon="6.291372609192687"><ele>1191.2</ele><time>2026-04-07T15:15:04Z</time></trkpt><trkpt lat="43.9030841311677" lon="6.2913844787578475"><ele>1191.8</ele><time>2026-04-07T15:15:05Z</time></trkpt><trkpt lat="43.90300056403462" lon="6.291415501816895"><ele>1192.4</ele><time>2026-04-07T15:15:06Z</time></trkpt><trkpt lat="43.90290653344462" lon="6.291434392869228"><ele>1193.0</ele><time>2026-04-07T15:15:07Z</time></trkpt><trkpt lat="43.902813705617326" lon="6.291462818002855"><ele>1196.6</ele><time>2026-04-07T15:15:08Z</time></trkpt><trkpt lat="43.90271879484618" lon="6.291497762468681"><ele>1200.1999999999998</ele><time>2026-04-07T15:15:09Z</time></trkpt><trkpt lat="43.90261960014406" lon="6.291500431643885"><ele>1203.8</ele><time>2026-04-07T15:15:10Z</time></trkpt><trkpt lat="43.90251810350862" lon="6.291512008177982"><ele>1207.3999999999999</ele><time>2026-04-07T15:15:11Z</time></trkpt><trkpt lat="43.90241741904904" lon="6.291519318224642"><ele>1211.0</ele><time>2026-04-07T15:15:12Z</time></trkpt><trkpt lat="43.902328308804584" lon="6.29150181695472"><ele>1211.0</ele><time>2026-04-07T15:15:13Z</time></trkpt><trkpt lat="43.90224779714549" lon="6.291471934348885"><ele>1211.0</ele><time>2026-04-07T15:15:14Z</time></trkpt><trkpt lat="43.90217506167244" lon="6.2914094536886855"><ele>1211.0</ele><time>2026-04-07T15:15:15Z</time></trkpt><trkpt lat="43.902105950638195" lon="6.291336852104093"><ele>1211.0</ele><time>2026-04-07T15:15:16Z</time></trkpt><trkpt lat="43.902019190894066" lon="6.291285004713865"><ele>1211.0</ele><time>2026-04-07T15:15:17Z</time></trkpt><trkpt lat="43.901923684640046" lon="6.2912247858681445"><ele>1209.1666666666667</ele><time>2026-04-07T15:15:18Z</time></trkpt><trkpt lat="43.90181524883426" lon="6.291205083775829"><ele>1207.3333333333335</ele><time>2026-04-07T15:15:19Z</time></trkpt><trkpt lat="43.90172596130143" lon="6.291172396753241"><ele>1205.5</ele><time>2026-04-07T15:15:20Z</time></trkpt><trkpt lat="43.901662318599406" lon="6.291132620083551"><ele>1203.6666666666667</ele><time>2026-04-07T15:15:21Z</time></trkpt><trkpt lat="43.90161020197092" lon="6.291069259190176"><ele>1201.8333333333333</ele><time>2026-04-07T15:15:22Z</time></trkpt><trkpt lat="43.901538868625344" lon="6.291017309514438"><ele>1200.0</ele><time>2026-04-07T15:15:23Z</time></trkpt><trkpt lat="43.90143873931849" lon="6.2910172822455594"><ele>1200.0</ele><time>2026-04-07T15:15:24Z</time></trkpt><trkpt lat="43.90135588976194" lon="6.291009337769234"><ele>1200.0</ele><time>2026-04-07T15:15:25Z</time></trkpt><trkpt lat="43.90126733604584" lon="6.290991606912974"><ele>1200.0</ele><time>2026-04-07T15:15:26Z</time></trkpt><trkpt lat="43.90119888328121" lon="6.290894927352548"><ele>1200.0</ele><time>2026-04-07T15:15:27Z</time></trkpt><trkpt lat="43.90112249337629" lon="6.290814042801636"><ele>1200.0</ele><time>2026-04-07T15:15:28Z</time></trkpt><trkpt lat="43.90105385878617" lon="6.290727759322453"><ele>1200.0</ele><time>2026-04-07T15:15:29Z</time></trkpt><trkpt lat="43.90097033417697" lon="6.290687654741079"><ele>1200.0</ele><time>2026-04-07T15:15:30Z</time></trkpt><trkpt lat="43.90091898914087" lon="6.290615364414568"><ele>1200.0</ele><time>2026-04-07T15:15:31Z</time></trkpt><trkpt lat="43.90086991115425" lon="6.2905381569767345"><ele>1200.0</ele><time>2026-04-07T15:15:32Z</time></trkpt><trkpt lat="43.900807916620195" lon="6.290469361864395"><ele>1200.0</ele><time>2026-04-07T15:15:33Z</time></trkpt><trkpt lat="43.90073085526006" lon="6.290419198790576"><ele>1200.0</ele><time>2026-04-07T15:15:34Z</time></trkpt><trkpt lat="43.900634789445924" lon="6.290390730453493"><ele>1199.6666666666667</ele><time>2026-04-07T15:15:35Z</time></trkpt><trkpt lat="43.90056637952386" lon="6.290348173532077"><ele>1199.3333333333333</ele><time>2026-04-07T15:15:36Z</time></trkpt><trkpt lat="43.900494319103856" lon="6.290349300324889"><ele>1199.0</ele><time>2026-04-07T15:15:37Z</time></trkpt><trkpt lat="43.90043227740399" lon="6.29037809595131"><ele>1198.6666666666665</ele><time>2026-04-07T15:15:38Z</time></trkpt><trkpt lat="43.90038304099158" lon="6.290466016177304"><ele>1198.3333333333333</ele><time>2026-04-07T15:15:39Z</time></trkpt><trkpt lat="43.900336570377156" lon="6.290535931915728"><ele>1198.0</ele><time>2026-04-07T15:15:40Z</time></trkpt><trkpt lat="43.90028476174955" lon="6.290638140600102"><ele>1197.6</ele><time>2026-04-07T15:15:41Z</time></trkpt><trkpt lat="43.90022275053372" lon="6.290747737791099"><ele>1197.1999999999998</ele><time>2026-04-07T15:15:42Z</time></trkpt><trkpt lat="43.900151033998554" lon="6.290791134007766"><ele>1196.8</ele><time>2026-04-07T15:15:43Z</time></trkpt><trkpt lat="43.90005073345809" lon="6.290783633382545"><ele>1196.3999999999999</ele><time>2026-04-07T15:15:45Z</time></trkpt><trkpt lat="43.899989664022705" lon="6.290659372205512"><ele>1196.0</ele><time>2026-04-07T15:15:47Z</time></trkpt><trkpt lat="43.89995366902081" lon="6.290565732787754"><ele>1196.0</ele><time>2026-04-07T15:15:48Z</time></trkpt><trkpt lat="43.89994177017633" lon="6.290434286558445"><ele>1196.0</ele><time>2026-04-07T15:15:49Z</time></trkpt><trkpt lat="43.89990516427528" lon="6.290294564362344"><ele>1196.0</ele><time>2026-04-07T15:15:51Z</time></trkpt><trkpt lat="43.89983911329857" lon="6.290267596300599"><ele>1196.0</ele><time>2026-04-07T15:15:52Z</time></trkpt><trkpt lat="43.89973241779841" lon="6.290218145932765"><ele>1196.0</ele><time>2026-04-07T15:15:54Z</time></trkpt><trkpt lat="43.89967124220714" lon="6.290178607431145"><ele>1196.0</ele><time>2026-04-07T15:15:55Z</time></trkpt><trkpt lat="43.899595009667365" lon="6.290146965878247"><ele>1196.0</ele><time>2026-04-07T15:15:56Z</time></trkpt><trkpt lat="43.899520572923464" lon="6.290069301324612"><ele>1196.0</ele><time>2026-04-07T15:15:57Z</time></trkpt><trkpt lat="43.89942764512244" lon="6.290066031126726"><ele>1196.0</ele><time>2026-04-07T15:15:58Z</time></trkpt><trkpt lat="43.8993374327371" lon="6.290048317131584"><ele>1196.0</ele><time>2026-04-07T15:15:59Z</time></trkpt><trkpt lat="43.89924696697869" lon="6.2900397726359465"><ele>1196.0</ele><time>2026-04-07T15:16:00Z</time></trkpt><trkpt lat="43.89914545899539" lon="6.290015075511729"><ele>1200.3999999999999</ele><time>2026-04-07T15:16:01Z</time></trkpt><trkpt lat="43.89906508953077" lon="6.289979538026785"><ele>1204.8</ele><time>2026-04-07T15:16:02Z</time></trkpt><trkpt lat="43.89899042892811" lon="6.289920519998501"><ele>1209.1999999999998</ele><time>2026-04-07T15:16:03Z</time></trkpt><trkpt lat="43.89889950293453" lon="6.2898951638993585"><ele>1213.6</ele><time>2026-04-07T15:16:04Z</time></trkpt><trkpt lat="43.898804557441274" lon="6.289915509273016"><ele>1218.0</ele><time>2026-04-07T15:16:05Z</time></trkpt><trkpt lat="43.8987054546082" lon="6.289929010046402"><ele>1218.0</ele><time>2026-04-07T15:16:06Z</time></trkpt><trkpt lat="43.8986224254303" lon="6.289940688365718"><ele>1218.0</ele><time>2026-04-07T15:16:07Z</time></trkpt><trkpt lat="43.898536767975756" lon="6.289943182533111"><ele>1218.0</ele><time>2026-04-07T15:16:08Z</time></trkpt><trkpt lat="43.898448201101715" lon="6.289902613979008"><ele>1218.0</ele><time>2026-04-07T15:16:09Z</time></trkpt><trkpt lat="43.89836054540237" lon="6.289867620590619"><ele>1218.0</ele><time>2026-04-07T15:16:10Z</time></trkpt><trkpt lat="43.898271961968284" lon="6.289836337598609"><ele>1218.0</ele><time>2026-04-07T15:16:11Z</time></trkpt><trkpt lat="43.89820290943397" lon="6.28975097238879"><ele>1217.3333333333333</ele><time>2026-04-07T15:16:12Z</time></trkpt><trkpt lat="43.898144812827546" lon="6.289660068569095"><ele>1216.6666666666667</ele><time>2026-04-07T15:16:13Z</time></trkpt><trkpt lat="43.89808559845106" lon="6.289557630391706"><ele>1216.0</ele><time>2026-04-07T15:16:14Z</time></trkpt><trkpt lat="43.89801749875782" lon="6.289484185868812"><ele>1215.3333333333335</ele><time>2026-04-07T15:16:15Z</time></trkpt><trkpt lat="43.89795308754961" lon="6.2894202921345705"><ele>1214.6666666666667</ele><time>2026-04-07T15:16:16Z</time></trkpt><trkpt lat="43.89786490969992" lon="6.289403622983223"><ele>1214.0</ele><time>2026-04-07T15:16:17Z</time></trkpt><trkpt lat="43.89779563451861" lon="6.289411760137203"><ele>1214.0</ele><time>2026-04-07T15:16:18Z</time></trkpt><trkpt lat="43.897722005208934" lon="6.289442011993989"><ele>1214.0</ele><time>2026-04-07T15:16:19Z</time></trkpt><trkpt lat="43.897652996150434" lon="6.289447385786781"><ele>1214.0</ele><time>2026-04-07T15:16:20Z</time></trkpt><trkpt lat="43.8975433399443" lon="6.289419999645686"><ele>1214.0</ele><time>2026-04-07T15:16:22Z</time></trkpt><trkpt lat="43.89753132905484" lon="6.28929486332784"><ele>1214.0</ele><time>2026-04-07T15:16:23Z</time></trkpt><trkpt lat="43.89748209925742" lon="6.289201202878993"><ele>1214.0</ele><time>2026-04-07T15:16:24Z</time></trkpt><trkpt lat="43.897413767506215" lon="6.289105596733954"><ele>1215.2</ele><time>2026-04-07T15:16:25Z</time></trkpt><trkpt lat="43.89735309040025" lon="6.288995079040463"><ele>1216.4</ele><time>2026-04-07T15:16:26Z</time></trkpt><trkpt lat="43.897288812569485" lon="6.288924852718822"><ele>1217.6</ele><time>2026-04-07T15:16:27Z</time></trkpt><trkpt lat="43.897208905695166" lon="6.288846957385213"><ele>1218.8</ele><time>2026-04-07T15:16:28Z</time></trkpt><trkpt lat="43.897114464330514" lon="6.2887566491163795"><ele>1220.0</ele><time>2026-04-07T15:16:29Z</time></trkpt><trkpt lat="43.89700108532029" lon="6.288699847073959"><ele>1220.0</ele><time>2026-04-07T15:16:30Z</time></trkpt><trkpt lat="43.89690723579233" lon="6.288661982181236"><ele>1220.0</ele><time>2026-04-07T15:16:31Z</time></trkpt><trkpt lat="43.8967990971969" lon="6.288650623200862"><ele>1220.0</ele><time>2026-04-07T15:16:32Z</time></trkpt><trkpt lat="43.89669058056708" lon="6.2886006294724375"><ele>1220.0</ele><time>2026-04-07T15:16:33Z</time></trkpt><trkpt lat="43.89658191816198" lon="6.288564929902666"><ele>1220.0</ele><time>2026-04-07T15:16:34Z</time></trkpt><trkpt lat="43.896478532437506" lon="6.288547911561085"><ele>1221.8</ele><time>2026-04-07T15:16:35Z</time></trkpt><trkpt lat="43.89637905742396" lon="6.288514202367157"><ele>1223.6</ele><time>2026-04-07T15:16:36Z</time></trkpt><trkpt lat="43.89628026388318" lon="6.288520363657494"><ele>1225.4</ele><time>2026-04-07T15:16:37Z</time></trkpt><trkpt lat="43.89619246016117" lon="6.288562214570633"><ele>1227.2</ele><time>2026-04-07T15:16:38Z</time></trkpt><trkpt lat="43.89611013201845" lon="6.2886218352901"><ele>1229.0</ele><time>2026-04-07T15:16:39Z</time></trkpt><trkpt lat="43.89604601186666" lon="6.288665800066823"><ele>1229.0</ele><time>2026-04-07T15:16:40Z</time></trkpt><trkpt lat="43.89598016999309" lon="6.288671276864509"><ele>1229.0</ele><time>2026-04-07T15:16:41Z</time></trkpt><trkpt lat="43.89593843747902" lon="6.288581491538344"><ele>1229.0</ele><time>2026-04-07T15:16:42Z</time></trkpt><trkpt lat="43.89587477431754" lon="6.288527425563305"><ele>1229.0</ele><time>2026-04-07T15:16:43Z</time></trkpt><trkpt lat="43.895787091090654" lon="6.28846984070993"><ele>1229.0</ele><time>2026-04-07T15:16:44Z</time></trkpt><trkpt lat="43.89570128912837" lon="6.288445496791668"><ele>1229.0</ele><time>2026-04-07T15:16:45Z</time></trkpt><trkpt lat="43.89560079302991" lon="6.288392829421915"><ele>1231.0</ele><time>2026-04-07T15:16:46Z</time></trkpt><trkpt lat="43.895499351416525" lon="6.28835378235659"><ele>1233.0</ele><time>2026-04-07T15:16:47Z</time></trkpt><trkpt lat="43.89540436782549" lon="6.2882948387181345"><ele>1235.0</ele><time>2026-04-07T15:16:48Z</time></trkpt><trkpt lat="43.895307814065134" lon="6.288227141022529"><ele>1237.0</ele><time>2026-04-07T15:16:49Z</time></trkpt><trkpt lat="43.89521932719286" lon="6.288171502249653"><ele>1239.0</ele><time>2026-04-07T15:16:50Z</time></trkpt><trkpt lat="43.8951222749759" lon="6.2881291579868375"><ele>1241.4</ele><time>2026-04-07T15:16:51Z</time></trkpt><trkpt lat="43.89502770656532" lon="6.288098397509506"><ele>1243.8000000000002</ele><time>2026-04-07T15:16:52Z</time></trkpt><trkpt lat="43.894931229816144" lon="6.2880861144126134"><ele>1246.1999999999998</ele><time>2026-04-07T15:16:53Z</time></trkpt><trkpt lat="43.89482439602104" lon="6.288083861204638"><ele>1248.6</ele><time>2026-04-07T15:16:54Z</time></trkpt><trkpt lat="43.894724275698266" lon="6.288087054694201"><ele>1251.0</ele><time>2026-04-07T15:16:55Z</time></trkpt><trkpt lat="43.89463515701114" lon="6.288094432750353"><ele>1251.2</ele><time>2026-04-07T15:16:56Z</time></trkpt><trkpt lat="43.89454467819294" lon="6.288122234758272"><ele>1251.3999999999999</ele><time>2026-04-07T15:16:57Z</time></trkpt><trkpt lat="43.8944515777368" lon="6.288179135831234"><ele>1251.6</ele><time>2026-04-07T15:16:58Z</time></trkpt><trkpt lat="43.894365801899504" lon="6.2882582180902"><ele>1251.8</ele><time>2026-04-07T15:16:59Z</time></trkpt><trkpt lat="43.89429540142377" lon="6.288355981894689"><ele>1252.0</ele><time>2026-04-07T15:17:00Z</time></trkpt><trkpt lat="43.89422511707321" lon="6.2884449432437135"><ele>1254.25</ele><time>2026-04-07T15:17:01Z</time></trkpt><trkpt lat="43.89415593222203" lon="6.28845752733026"><ele>1256.5</ele><time>2026-04-07T15:17:02Z</time></trkpt><trkpt lat="43.893987994454406" lon="6.288500335247019"><ele>1258.75</ele><time>2026-04-07T15:17:04Z</time></trkpt><trkpt lat="43.893884498181365" lon="6.288523569709486"><ele>1261.0</ele><time>2026-04-07T15:17:05Z</time></trkpt><trkpt lat="43.893779177996095" lon="6.288544538862385"><ele>1261.0</ele><time>2026-04-07T15:17:06Z</time></trkpt><trkpt lat="43.89367911620367" lon="6.288557711440182"><ele>1261.0</ele><time>2026-04-07T15:17:07Z</time></trkpt><trkpt lat="43.893585374078434" lon="6.288564206169397"><ele>1261.0</ele><time>2026-04-07T15:17:08Z</time></trkpt><trkpt lat="43.89348711191875" lon="6.288568259793249"><ele>1261.0</ele><time>2026-04-07T15:17:09Z</time></trkpt><trkpt lat="43.893391273774824" lon="6.288572260141886"><ele>1261.0</ele><time>2026-04-07T15:17:10Z</time></trkpt><trkpt lat="43.89329983375559" lon="6.288593561406203"><ele>1260.6</ele><time>2026-04-07T15:17:11Z</time></trkpt><trkpt lat="43.893212761948234" lon="6.288588859487412"><ele>1260.1999999999998</ele><time>2026-04-07T15:17:12Z</time></trkpt><trkpt lat="43.89312113286692" lon="6.288584846693546"><ele>1259.8000000000002</ele><time>2026-04-07T15:17:13Z</time></trkpt><trkpt lat="43.893035784764706" lon="6.288582433888333"><ele>1259.4</ele><time>2026-04-07T15:17:14Z</time></trkpt><trkpt lat="43.89294521608889" lon="6.288608258729941"><ele>1259.0</ele><time>2026-04-07T15:17:15Z</time></trkpt><trkpt lat="43.892857916613714" lon="6.288667895058541"><ele>1259.0</ele><time>2026-04-07T15:17:16Z</time></trkpt><trkpt lat="43.89276136534263" lon="6.288745048201923"><ele>1259.0</ele><time>2026-04-07T15:17:17Z</time></trkpt><trkpt lat="43.89267171556935" lon="6.288830522779274"><ele>1259.0</ele><time>2026-04-07T15:17:18Z</time></trkpt><trkpt lat="43.89259578171599" lon="6.288918373914532"><ele>1259.0</ele><time>2026-04-07T15:17:19Z</time></trkpt><trkpt lat="43.89252146902447" lon="6.28901156821271"><ele>1259.0</ele><time>2026-04-07T15:17:20Z</time></trkpt><trkpt lat="43.892456624510025" lon="6.289110295943186"><ele>1257.8</ele><time>2026-04-07T15:17:21Z</time></trkpt><trkpt lat="43.8923920738409" lon="6.289206367953328"><ele>1256.6000000000001</ele><time>2026-04-07T15:17:22Z</time></trkpt><trkpt lat="43.89230169813977" lon="6.289240750678062"><ele>1255.4</ele><time>2026-04-07T15:17:23Z</time></trkpt><trkpt lat="43.892215104130486" lon="6.28929352962879"><ele>1254.2</ele><time>2026-04-07T15:17:24Z</time></trkpt><trkpt lat="43.892131588644126" lon="6.289355626411221"><ele>1253.0</ele><time>2026-04-07T15:17:25Z</time></trkpt><trkpt lat="43.89204414797191" lon="6.289440608565672"><ele>1253.0</ele><time>2026-04-07T15:17:26Z</time></trkpt><trkpt lat="43.89194308725877" lon="6.289473855673273"><ele>1253.0</ele><time>2026-04-07T15:17:27Z</time></trkpt><trkpt lat="43.89184326307057" lon="6.289502081107483"><ele>1253.0</ele><time>2026-04-07T15:17:28Z</time></trkpt><trkpt lat="43.89175301482014" lon="6.28953987732854"><ele>1253.0</ele><time>2026-04-07T15:17:29Z</time></trkpt><trkpt lat="43.89166651563526" lon="6.289612273709501"><ele>1253.0</ele><time>2026-04-07T15:17:30Z</time></trkpt><trkpt lat="43.89157480040094" lon="6.289630275010834"><ele>1251.2</ele><time>2026-04-07T15:17:31Z</time></trkpt><trkpt lat="43.891491107524224" lon="6.289665296634832"><ele>1249.4</ele><time>2026-04-07T15:17:32Z</time></trkpt><trkpt lat="43.891406096390526" lon="6.289604791109491"><ele>1247.6000000000001</ele><time>2026-04-07T15:17:33Z</time></trkpt><trkpt lat="43.891311794556586" lon="6.289606982023777"><ele>1245.8</ele><time>2026-04-07T15:17:34Z</time></trkpt><trkpt lat="43.89122435061526" lon="6.289596456970584"><ele>1244.0</ele><time>2026-04-07T15:17:35Z</time></trkpt><trkpt lat="43.8911354254904" lon="6.289619819164229"><ele>1244.0</ele><time>2026-04-07T15:17:36Z</time></trkpt><trkpt lat="43.89103737803671" lon="6.289681158702579"><ele>1244.0</ele><time>2026-04-07T15:17:37Z</time></trkpt><trkpt lat="43.890928591252845" lon="6.289751906236"><ele>1244.0</ele><time>2026-04-07T15:17:38Z</time></trkpt><trkpt lat="43.89082562144366" lon="6.289836836437595"><ele>1244.0</ele><time>2026-04-07T15:17:39Z</time></trkpt><trkpt lat="43.89071963555786" lon="6.289907777749009"><ele>1245.6000000000001</ele><time>2026-04-07T15:17:40Z</time></trkpt><trkpt lat="43.89061232597916" lon="6.2899471769981705"><ele>1247.2</ele><time>2026-04-07T15:17:41Z</time></trkpt><trkpt lat="43.890512788322376" lon="6.2899820924793906"><ele>1248.8000000000002</ele><time>2026-04-07T15:17:42Z</time></trkpt><trkpt lat="43.89041004393291" lon="6.289993020392503"><ele>1250.4</ele><time>2026-04-07T15:17:43Z</time></trkpt><trkpt lat="43.89032030429411" lon="6.289989903916039"><ele>1252.0</ele><time>2026-04-07T15:17:44Z</time></trkpt><trkpt lat="43.890233272806356" lon="6.28996182057095"><ele>1252.0</ele><time>2026-04-07T15:17:45Z</time></trkpt><trkpt lat="43.89016669344631" lon="6.289892054661995"><ele>1252.0</ele><time>2026-04-07T15:17:46Z</time></trkpt><trkpt lat="43.89008439503833" lon="6.2898049773994735"><ele>1252.0</ele><time>2026-04-07T15:17:47Z</time></trkpt><trkpt lat="43.88999132304831" lon="6.2897250424337905"><ele>1252.0</ele><time>2026-04-07T15:17:48Z</time></trkpt><trkpt lat="43.889880124260436" lon="6.2896773532634676"><ele>1252.0</ele><time>2026-04-07T15:17:49Z</time></trkpt><trkpt lat="43.88977892756276" lon="6.289624591258801"><ele>1249.8333333333333</ele><time>2026-04-07T15:17:50Z</time></trkpt><trkpt lat="43.88969226885622" lon="6.28957944792778"><ele>1247.6666666666665</ele><time>2026-04-07T15:17:51Z</time></trkpt><trkpt lat="43.88959351977471" lon="6.289540651653032"><ele>1245.5</ele><time>2026-04-07T15:17:52Z</time></trkpt><trkpt lat="43.889525462022945" lon="6.289517998652725"><ele>1243.3333333333333</ele><time>2026-04-07T15:17:53Z</time></trkpt><trkpt lat="43.88943773997235" lon="6.289516411595169"><ele>1241.1666666666667</ele><time>2026-04-07T15:17:54Z</time></trkpt><trkpt lat="43.88934899289876" lon="6.289540905587457"><ele>1239.0</ele><time>2026-04-07T15:17:55Z</time></trkpt><trkpt lat="43.889242459239625" lon="6.289591714929089"><ele>1239.0</ele><time>2026-04-07T15:17:56Z</time></trkpt><trkpt lat="43.889131047156454" lon="6.289662309716273"><ele>1239.0</ele><time>2026-04-07T15:17:57Z</time></trkpt><trkpt lat="43.88900992359765" lon="6.289738555106833"><ele>1239.0</ele><time>2026-04-07T15:17:58Z</time></trkpt><trkpt lat="43.88888410429905" lon="6.289771442114384"><ele>1239.0</ele><time>2026-04-07T15:17:59Z</time></trkpt><trkpt lat="43.88875689869301" lon="6.289839159194686"><ele>1243.0</ele><time>2026-04-07T15:18:00Z</time></trkpt><trkpt lat="43.88863008230422" lon="6.289884739369429"><ele>1247.0</ele><time>2026-04-07T15:18:01Z</time></trkpt><trkpt lat="43.888504113892935" lon="6.289931861821328"><ele>1251.0</ele><time>2026-04-07T15:18:02Z</time></trkpt><trkpt lat="43.88837928722813" lon="6.289981595943563"><ele>1255.0</ele><time>2026-04-07T15:18:03Z</time></trkpt><trkpt lat="43.888261481844495" lon="6.290027285172987"><ele>1255.0</ele><time>2026-04-07T15:18:04Z</time></trkpt><trkpt lat="43.888154795198524" lon="6.290067378335395"><ele>1255.0</ele><time>2026-04-07T15:18:05Z</time></trkpt><trkpt lat="43.88806001128278" lon="6.290098139464803"><ele>1255.0</ele><time>2026-04-07T15:18:06Z</time></trkpt><trkpt lat="43.88797733505169" lon="6.290122504962052"><ele>1255.0</ele><time>2026-04-07T15:18:07Z</time></trkpt><trkpt lat="43.88788962414604" lon="6.2901386041196785"><ele>1255.0</ele><time>2026-04-07T15:18:08Z</time></trkpt><trkpt lat="43.88779761002029" lon="6.29017436527712"><ele>1255.0</ele><time>2026-04-07T15:18:09Z</time></trkpt><trkpt lat="43.88771732404996" lon="6.29024583396036"><ele>1255.0</ele><time>2026-04-07T15:18:09.999Z</time></trkpt><trkpt lat="43.887648512628886" lon="6.29034467936603"><ele>1255.0</ele><time>2026-04-07T15:18:11Z</time></trkpt><trkpt lat="43.88756203472083" lon="6.290455603527865"><ele>1255.0</ele><time>2026-04-07T15:18:12Z</time></trkpt><trkpt lat="43.887481093133516" lon="6.290560507742469"><ele>1255.0</ele><time>2026-04-07T15:18:13Z</time></trkpt><trkpt lat="43.88739579001218" lon="6.2906643730649865"><ele>1256.75</ele><time>2026-04-07T15:18:14Z</time></trkpt><trkpt lat="43.88730918185215" lon="6.290763545455812"><ele>1258.5</ele><time>2026-04-07T15:18:15Z</time></trkpt><trkpt lat="43.887216742856914" lon="6.290859342366548"><ele>1260.25</ele><time>2026-04-07T15:18:16Z</time></trkpt><trkpt lat="43.887135379794906" lon="6.290968024116405"><ele>1262.0</ele><time>2026-04-07T15:18:17Z</time></trkpt><trkpt lat="43.88704843740382" lon="6.29106105003508"><ele>1262.0</ele><time>2026-04-07T15:18:18Z</time></trkpt><trkpt lat="43.886980424143836" lon="6.291167607957257"><ele>1262.0</ele><time>2026-04-07T15:18:19Z</time></trkpt><trkpt lat="43.88689080030015" lon="6.291262101514337"><ele>1262.0</ele><time>2026-04-07T15:18:20Z</time></trkpt><trkpt lat="43.88680261043755" lon="6.291360116613524"><ele>1262.0</ele><time>2026-04-07T15:18:21Z</time></trkpt><trkpt lat="43.88671603145132" lon="6.291464286799015"><ele>1262.0</ele><time>2026-04-07T15:18:22Z</time></trkpt><trkpt lat="43.88663254511979" lon="6.291577763754942"><ele>1262.75</ele><time>2026-04-07T15:18:23Z</time></trkpt><trkpt lat="43.88654599516086" lon="6.291682062704791"><ele>1263.5</ele><time>2026-04-07T15:18:24Z</time></trkpt><trkpt lat="43.88645035532614" lon="6.2917787182658405"><ele>1264.25</ele><time>2026-04-07T15:18:25Z</time></trkpt><trkpt lat="43.88635856870415" lon="6.291885602551808"><ele>1265.0</ele><time>2026-04-07T15:18:26Z</time></trkpt><trkpt lat="43.88627961194118" lon="6.291980654832578"><ele>1265.0</ele><time>2026-04-07T15:18:27Z</time></trkpt><trkpt lat="43.88619398145965" lon="6.292082310664613"><ele>1265.0</ele><time>2026-04-07T15:18:28Z</time></trkpt><trkpt lat="43.8861195438643" lon="6.29216795464099"><ele>1265.0</ele><time>2026-04-07T15:18:29Z</time></trkpt><trkpt lat="43.88605855569979" lon="6.292244359764611"><ele>1265.0</ele><time>2026-04-07T15:18:30Z</time></trkpt><trkpt lat="43.88600783014962" lon="6.292300230607599"><ele>1265.0</ele><time>2026-04-07T15:18:31Z</time></trkpt><trkpt lat="43.88597566351267" lon="6.292408122993696"><ele>1265.0</ele><time>2026-04-07T15:18:32Z</time></trkpt><trkpt lat="43.88596182127355" lon="6.292511173154333"><ele>1264.5</ele><time>2026-04-07T15:18:33Z</time></trkpt><trkpt lat="43.88597080168664" lon="6.292621852503138"><ele>1264.0</ele><time>2026-04-07T15:18:34Z</time></trkpt><trkpt lat="43.88596966205316" lon="6.292720018204391"><ele>1263.5</ele><time>2026-04-07T15:18:35Z</time></trkpt><trkpt lat="43.885936463872596" lon="6.292806947502003"><ele>1263.0</ele><time>2026-04-07T15:18:36Z</time></trkpt><trkpt lat="43.88588465690829" lon="6.292884733963237"><ele>1262.5</ele><time>2026-04-07T15:18:37Z</time></trkpt><trkpt lat="43.88581175983744" lon="6.292914138209573"><ele>1262.0</ele><time>2026-04-07T15:18:38Z</time></trkpt><trkpt lat="43.88569362960616" lon="6.292883621616755"><ele>1262.0</ele><time>2026-04-07T15:18:40Z</time></trkpt><trkpt lat="43.88560052535989" lon="6.292800298753069"><ele>1262.0</ele><time>2026-04-07T15:18:42Z</time></trkpt><trkpt lat="43.885518315186964" lon="6.292770534802777"><ele>1262.0</ele><time>2026-04-07T15:18:43Z</time></trkpt><trkpt lat="43.885430786177515" lon="6.2927049784828935"><ele>1262.0</ele><time>2026-04-07T15:18:44Z</time></trkpt><trkpt lat="43.88532689751845" lon="6.292624417088401"><ele>1262.0</ele><time>2026-04-07T15:18:45Z</time></trkpt><trkpt lat="43.885227991094155" lon="6.292540592690087"><ele>1262.0</ele><time>2026-04-07T15:18:46Z</time></trkpt><trkpt lat="43.885145537580364" lon="6.292465104764696"><ele>1262.0</ele><time>2026-04-07T15:18:47Z</time></trkpt><trkpt lat="43.88504468222187" lon="6.292430567872385"><ele>1262.0</ele><time>2026-04-07T15:18:48Z</time></trkpt><trkpt lat="43.88494585966184" lon="6.292402894349198"><ele>1262.0</ele><time>2026-04-07T15:18:49Z</time></trkpt><trkpt lat="43.884847165439936" lon="6.2923781792159135"><ele>1262.0</ele><time>2026-04-07T15:18:50Z</time></trkpt><trkpt lat="43.88474168052421" lon="6.292369106335935"><ele>1263.0</ele><time>2026-04-07T15:18:51Z</time></trkpt><trkpt lat="43.88464634794827" lon="6.292362867125217"><ele>1264.0</ele><time>2026-04-07T15:18:52Z</time></trkpt><trkpt lat="43.8845388260782" lon="6.292362007396128"><ele>1265.0</ele><time>2026-04-07T15:18:53Z</time></trkpt><trkpt lat="43.88445705333428" lon="6.292371879131355"><ele>1266.0</ele><time>2026-04-07T15:18:54Z</time></trkpt><trkpt lat="43.88436921979556" lon="6.292390685380832"><ele>1267.0</ele><time>2026-04-07T15:18:55Z</time></trkpt><trkpt lat="43.88428207144444" lon="6.2924408576647295"><ele>1267.6</ele><time>2026-04-07T15:18:56Z</time></trkpt><trkpt lat="43.884203298683495" lon="6.292514691095904"><ele>1268.2</ele><time>2026-04-07T15:18:57Z</time></trkpt><trkpt lat="43.884118479088215" lon="6.292539474601287"><ele>1268.8</ele><time>2026-04-07T15:18:58Z</time></trkpt><trkpt lat="43.88403234941667" lon="6.292555224166077"><ele>1269.4</ele><time>2026-04-07T15:18:59Z</time></trkpt><trkpt lat="43.88392895673152" lon="6.292557941191513"><ele>1270.0</ele><time>2026-04-07T15:19:00Z</time></trkpt><trkpt lat="43.8838357965751" lon="6.29259291788117"><ele>1270.0</ele><time>2026-04-07T15:19:01Z</time></trkpt><trkpt lat="43.88375008087316" lon="6.292640821706189"><ele>1270.0</ele><time>2026-04-07T15:19:02Z</time></trkpt><trkpt lat="43.88366062298821" lon="6.292721817457943"><ele>1270.0</ele><time>2026-04-07T15:19:03Z</time></trkpt><trkpt lat="43.88357763003795" lon="6.29281299309616"><ele>1270.0</ele><time>2026-04-07T15:19:04Z</time></trkpt><trkpt lat="43.8834897475054" lon="6.292911581582344"><ele>1270.0</ele><time>2026-04-07T15:19:05Z</time></trkpt><trkpt lat="43.883394907780165" lon="6.292982767691008"><ele>1268.4</ele><time>2026-04-07T15:19:06Z</time></trkpt><trkpt lat="43.883313453175326" lon="6.293048463635014"><ele>1266.8</ele><time>2026-04-07T15:19:07Z</time></trkpt><trkpt lat="43.88323989874462" lon="6.293104028323915"><ele>1265.2</ele><time>2026-04-07T15:19:08Z</time></trkpt><trkpt lat="43.88316147087074" lon="6.293188893714401"><ele>1263.6</ele><time>2026-04-07T15:19:09Z</time></trkpt><trkpt lat="43.88308966362079" lon="6.293297818353958"><ele>1262.0</ele><time>2026-04-07T15:19:10Z</time></trkpt><trkpt lat="43.883039748354186" lon="6.293459390724911"><ele>1265.8</ele><time>2026-04-07T15:19:11Z</time></trkpt><trkpt lat="43.882996222679814" lon="6.293610205590341"><ele>1269.6</ele><time>2026-04-07T15:19:12Z</time></trkpt><trkpt lat="43.882943922083015" lon="6.293758010651837"><ele>1273.3999999999999</ele><time>2026-04-07T15:19:13Z</time></trkpt><trkpt lat="43.88289791038912" lon="6.293897864169613"><ele>1277.2</ele><time>2026-04-07T15:19:14Z</time></trkpt><trkpt lat="43.88285409139576" lon="6.294010025792585"><ele>1281.0</ele><time>2026-04-07T15:19:15Z</time></trkpt><trkpt lat="43.88281193666231" lon="6.294100343516018"><ele>1282.0</ele><time>2026-04-07T15:19:16Z</time></trkpt><trkpt lat="43.882742925515814" lon="6.294193335496435"><ele>1283.0</ele><time>2026-04-07T15:19:17Z</time></trkpt><trkpt lat="43.882678276739924" lon="6.294236306293625"><ele>1284.0</ele><time>2026-04-07T15:19:18Z</time></trkpt><trkpt lat="43.88260224887753" lon="6.294242271618621"><ele>1285.0</ele><time>2026-04-07T15:19:19Z</time></trkpt><trkpt lat="43.88250445735136" lon="6.29427503510219"><ele>1286.0</ele><time>2026-04-07T15:19:20Z</time></trkpt><trkpt lat="43.88241170742439" lon="6.294324685667981"><ele>1287.0</ele><time>2026-04-07T15:19:21Z</time></trkpt><trkpt lat="43.88231842067087" lon="6.2943955581568805"><ele>1287.0</ele><time>2026-04-07T15:19:22Z</time></trkpt><trkpt lat="43.88224662226957" lon="6.294449993066867"><ele>1287.0</ele><time>2026-04-07T15:19:23Z</time></trkpt><trkpt lat="43.882175596950056" lon="6.294529387066732"><ele>1287.0</ele><time>2026-04-07T15:19:24Z</time></trkpt><trkpt lat="43.88210373773182" lon="6.294605795013857"><ele>1287.0</ele><time>2026-04-07T15:19:25Z</time></trkpt><trkpt lat="43.88202012900811" lon="6.294691663587641"><ele>1287.0</ele><time>2026-04-07T15:19:26Z</time></trkpt><trkpt lat="43.88196334367265" lon="6.29477949192091"><ele>1289.8333333333333</ele><time>2026-04-07T15:19:27Z</time></trkpt><trkpt lat="43.88190844899369" lon="6.294879734508151"><ele>1292.6666666666667</ele><time>2026-04-07T15:19:28Z</time></trkpt><trkpt lat="43.88184135511441" lon="6.29497415520015"><ele>1295.5</ele><time>2026-04-07T15:19:29Z</time></trkpt><trkpt lat="43.8817768535481" lon="6.295036130622573"><ele>1298.3333333333335</ele><time>2026-04-07T15:19:30Z</time></trkpt><trkpt lat="43.88170103459184" lon="6.295084230170012"><ele>1301.1666666666667</ele><time>2026-04-07T15:19:31Z</time></trkpt><trkpt lat="43.88163831042676" lon="6.29510820133378"><ele>1304.0</ele><time>2026-04-07T15:19:32Z</time></trkpt><trkpt lat="43.88155336531994" lon="6.2950812839225785"><ele>1304.0</ele><time>2026-04-07T15:19:33Z</time></trkpt><trkpt lat="43.881483862477346" lon="6.29502997303437"><ele>1304.0</ele><time>2026-04-07T15:19:34Z</time></trkpt><trkpt lat="43.88139351145224" lon="6.2949723869532805"><ele>1304.0</ele><time>2026-04-07T15:19:35Z</time></trkpt><trkpt lat="43.88132531776967" lon="6.294887228560894"><ele>1304.0</ele><time>2026-04-07T15:19:36Z</time></trkpt><trkpt lat="43.88123703205608" lon="6.294791304666592"><ele>1304.0</ele><time>2026-04-07T15:19:37Z</time></trkpt><trkpt lat="43.88116334026679" lon="6.294713679267616"><ele>1303.5</ele><time>2026-04-07T15:19:38Z</time></trkpt><trkpt lat="43.881098320379685" lon="6.294650690367495"><ele>1303.0</ele><time>2026-04-07T15:19:39Z</time></trkpt><trkpt lat="43.881016568859245" lon="6.294620669893913"><ele>1302.5</ele><time>2026-04-07T15:19:40Z</time></trkpt><trkpt lat="43.880934865625875" lon="6.2946046738201575"><ele>1302.0</ele><time>2026-04-07T15:19:41Z</time></trkpt><trkpt lat="43.88083878241332" lon="6.294571941697663"><ele>1301.5</ele><time>2026-04-07T15:19:42Z</time></trkpt><trkpt lat="43.880740926105624" lon="6.29454769335613"><ele>1301.0</ele><time>2026-04-07T15:19:43Z</time></trkpt><trkpt lat="43.88065251143848" lon="6.294564727272286"><ele>1301.0</ele><time>2026-04-07T15:19:44Z</time></trkpt><trkpt lat="43.88056672398785" lon="6.294607346926408"><ele>1301.0</ele><time>2026-04-07T15:19:45Z</time></trkpt><trkpt lat="43.880468278521526" lon="6.29466101750493"><ele>1301.0</ele><time>2026-04-07T15:19:46Z</time></trkpt><trkpt lat="43.880364222982344" lon="6.294719139612379"><ele>1301.0</ele><time>2026-04-07T15:19:47Z</time></trkpt><trkpt lat="43.880267992962565" lon="6.294785118700384"><ele>1301.0</ele><time>2026-04-07T15:19:48Z</time></trkpt><trkpt lat="43.8801548028476" lon="6.2948048986578495"><ele>1305.4</ele><time>2026-04-07T15:19:49Z</time></trkpt><trkpt lat="43.880044620886856" lon="6.2948423068968955"><ele>1309.8</ele><time>2026-04-07T15:19:50Z</time></trkpt><trkpt lat="43.879953188138415" lon="6.294874462719698"><ele>1314.2</ele><time>2026-04-07T15:19:51Z</time></trkpt><trkpt lat="43.879851141371255" lon="6.294910351373949"><ele>1318.6000000000001</ele><time>2026-04-07T15:19:52Z</time></trkpt><trkpt lat="43.87977110182824" lon="6.2949421667134295"><ele>1323.0</ele><time>2026-04-07T15:19:53Z</time></trkpt><trkpt lat="43.879647610871224" lon="6.294947183989993"><ele>1323.0</ele><time>2026-04-07T15:19:55Z</time></trkpt><trkpt lat="43.87956645898745" lon="6.294801746786897"><ele>1323.0</ele><time>2026-04-07T15:19:57Z</time></trkpt><trkpt lat="43.87953419535598" lon="6.294688792497222"><ele>1323.0</ele><time>2026-04-07T15:19:58Z</time></trkpt><trkpt lat="43.87949917381927" lon="6.29461346131547"><ele>1323.0</ele><time>2026-04-07T15:19:59Z</time></trkpt><trkpt lat="43.879429223851574" lon="6.294573332973733"><ele>1323.0</ele><time>2026-04-07T15:20:00Z</time></trkpt><trkpt lat="43.879347559638454" lon="6.29460525134885"><ele>1323.0</ele><time>2026-04-07T15:20:01Z</time></trkpt><trkpt lat="43.879231545508254" lon="6.294666012096017"><ele>1323.3333333333333</ele><time>2026-04-07T15:20:03Z</time></trkpt><trkpt lat="43.8791798696175" lon="6.294723253919287"><ele>1323.6666666666667</ele><time>2026-04-07T15:20:04Z</time></trkpt><trkpt lat="43.879133132813216" lon="6.294798652793068"><ele>1324.0</ele><time>2026-04-07T15:20:05Z</time></trkpt><trkpt lat="43.879096718465355" lon="6.294906231277301"><ele>1324.3333333333335</ele><time>2026-04-07T15:20:06Z</time></trkpt><trkpt lat="43.879044906180305" lon="6.29503652360204"><ele>1324.6666666666667</ele><time>2026-04-07T15:20:07Z</time></trkpt><trkpt lat="43.87897462947058" lon="6.295137240339484"><ele>1325.0</ele><time>2026-04-07T15:20:08Z</time></trkpt><trkpt lat="43.87890748126588" lon="6.295220636394308"><ele>1325.0</ele><time>2026-04-07T15:20:08.999Z</time></trkpt><trkpt lat="43.878840190519696" lon="6.295286450209497"><ele>1325.0</ele><time>2026-04-07T15:20:09.999Z</time></trkpt><trkpt lat="43.87875877018143" lon="6.295325330716013"><ele>1325.0</ele><time>2026-04-07T15:20:10.999Z</time></trkpt><trkpt lat="43.87867113876787" lon="6.295289599792717"><ele>1325.0</ele><time>2026-04-07T15:20:11.999Z</time></trkpt><trkpt lat="43.878575262948324" lon="6.295284781904874"><ele>1325.0</ele><time>2026-04-07T15:20:12.999Z</time></trkpt><trkpt lat="43.87849836447817" lon="6.295290285457555"><ele>1325.0</ele><time>2026-04-07T15:20:13.999Z</time></trkpt><trkpt lat="43.87841171585445" lon="6.295322989352412"><ele>1325.1666666666667</ele><time>2026-04-07T15:20:14.999Z</time></trkpt><trkpt lat="43.878321364729025" lon="6.295384353766043"><ele>1325.3333333333335</ele><time>2026-04-07T15:20:15.999Z</time></trkpt><trkpt lat="43.87824282517232" lon="6.295451194287827"><ele>1325.5</ele><time>2026-04-07T15:20:17Z</time></trkpt><trkpt lat="43.87818493955181" lon="6.2955286745590255"><ele>1325.6666666666667</ele><time>2026-04-07T15:20:18Z</time></trkpt><trkpt lat="43.878121077885076" lon="6.295577802631177"><ele>1325.8333333333333</ele><time>2026-04-07T15:20:19Z</time></trkpt><trkpt lat="43.87804373072779" lon="6.295564167951813"><ele>1326.0</ele><time>2026-04-07T15:20:20Z</time></trkpt><trkpt lat="43.87794801845877" lon="6.295549449702565"><ele>1326.0</ele><time>2026-04-07T15:20:21Z</time></trkpt><trkpt lat="43.87783719849668" lon="6.295534068812877"><ele>1326.0</ele><time>2026-04-07T15:20:22Z</time></trkpt><trkpt lat="43.87773435545321" lon="6.295517710724736"><ele>1326.0</ele><time>2026-04-07T15:20:23Z</time></trkpt><trkpt lat="43.877648404649946" lon="6.295491757443902"><ele>1326.0</ele><time>2026-04-07T15:20:24Z</time></trkpt><trkpt lat="43.87757240365654" lon="6.295455610391075"><ele>1326.0</ele><time>2026-04-07T15:20:25Z</time></trkpt><trkpt lat="43.87749906235876" lon="6.295408401599632"><ele>1327.0</ele><time>2026-04-07T15:20:26Z</time></trkpt><trkpt lat="43.87744882893921" lon="6.295337784284413"><ele>1328.0</ele><time>2026-04-07T15:20:27Z</time></trkpt><trkpt lat="43.877393529441385" lon="6.295287432141383"><ele>1329.0</ele><time>2026-04-07T15:20:28Z</time></trkpt><trkpt lat="43.87728948306671" lon="6.2952474929311535"><ele>1330.0</ele><time>2026-04-07T15:20:30Z</time></trkpt><trkpt lat="43.87718639919198" lon="6.295248647946279"><ele>1331.0</ele><time>2026-04-07T15:20:32Z</time></trkpt><trkpt lat="43.87704765381371" lon="6.295206890384467"><ele>1331.0</ele><time>2026-04-07T15:20:34Z</time></trkpt><trkpt lat="43.87701645553487" lon="6.295109962310745"><ele>1331.0</ele><time>2026-04-07T15:20:35Z</time></trkpt><trkpt lat="43.87698534256365" lon="6.2949984214931325"><ele>1331.0</ele><time>2026-04-07T15:20:36Z</time></trkpt><trkpt lat="43.87693503915103" lon="6.294918851975598"><ele>1331.0</ele><time>2026-04-07T15:20:37Z</time></trkpt><trkpt lat="43.87688278498243" lon="6.2948494073565495"><ele>1331.0</ele><time>2026-04-07T15:20:38Z</time></trkpt><trkpt lat="43.8768254839112" lon="6.294789353924096"><ele>1331.0</ele><time>2026-04-07T15:20:39Z</time></trkpt><trkpt lat="43.87675976130587" lon="6.294789932574845"><ele>1331.0</ele><time>2026-04-07T15:20:40Z</time></trkpt><trkpt lat="43.87669651893793" lon="6.294784171683861"><ele>1332.0</ele><time>2026-04-07T15:20:41Z</time></trkpt><trkpt lat="43.87663288282158" lon="6.294811636836791"><ele>1333.0</ele><time>2026-04-07T15:20:42Z</time></trkpt><trkpt lat="43.87657097368098" lon="6.294864045423902"><ele>1334.0</ele><time>2026-04-07T15:20:43Z</time></trkpt><trkpt lat="43.87651339033162" lon="6.294937446210513"><ele>1335.0</ele><time>2026-04-07T15:20:44Z</time></trkpt><trkpt lat="43.87646654669578" lon="6.295101182417541"><ele>1336.0</ele><time>2026-04-07T15:20:46Z</time></trkpt><trkpt lat="43.876425169895015" lon="6.295194861380609"><ele>1337.0</ele><time>2026-04-07T15:20:47Z</time></trkpt><trkpt lat="43.876386486412194" lon="6.295323238014922"><ele>1337.0</ele><time>2026-04-07T15:20:48Z</time></trkpt><trkpt lat="43.87634711431191" lon="6.295446330272581"><ele>1337.0</ele><time>2026-04-07T15:20:49Z</time></trkpt><trkpt lat="43.87631434204706" lon="6.295592742482253"><ele>1337.0</ele><time>2026-04-07T15:20:50Z</time></trkpt><trkpt lat="43.87627855809471" lon="6.295712173488678"><ele>1337.0</ele><time>2026-04-07T15:20:51Z</time></trkpt><trkpt lat="43.876254411544565" lon="6.295853085855657"><ele>1337.0</ele><time>2026-04-07T15:20:52Z</time></trkpt><trkpt lat="43.876230567273524" lon="6.295993121696068"><ele>1339.1666666666667</ele><time>2026-04-07T15:20:53Z</time></trkpt><trkpt lat="43.87620334867732" lon="6.296123588759223"><ele>1341.3333333333335</ele><time>2026-04-07T15:20:54Z</time></trkpt><trkpt lat="43.87618678660717" lon="6.296258558973826"><ele>1343.5</ele><time>2026-04-07T15:20:55Z</time></trkpt><trkpt lat="43.87617997303636" lon="6.296356221993649"><ele>1345.6666666666667</ele><time>2026-04-07T15:20:56Z</time></trkpt><trkpt lat="43.87617764151394" lon="6.296471660742197"><ele>1347.8333333333333</ele><time>2026-04-07T15:20:57Z</time></trkpt><trkpt lat="43.876188465770575" lon="6.296587564518538"><ele>1350.0</ele><time>2026-04-07T15:20:58Z</time></trkpt><trkpt lat="43.8762099224984" lon="6.2967116628115045"><ele>1352.0</ele><time>2026-04-07T15:20:59Z</time></trkpt><trkpt lat="43.87621011796483" lon="6.296824016524581"><ele>1354.0</ele><time>2026-04-07T15:21:00Z</time></trkpt><trkpt lat="43.876178799980664" lon="6.296922656146213"><ele>1356.0</ele><time>2026-04-07T15:21:01Z</time></trkpt><trkpt lat="43.87610769782342" lon="6.2969937189373955"><ele>1358.0</ele><time>2026-04-07T15:21:02Z</time></trkpt><trkpt lat="43.87602510651977" lon="6.297102744345982"><ele>1360.0</ele><time>2026-04-07T15:21:03Z</time></trkpt><trkpt lat="43.87596287853826" lon="6.297201416782192"><ele>1359.5</ele><time>2026-04-07T15:21:04Z</time></trkpt><trkpt lat="43.87590169158902" lon="6.2972691594369"><ele>1359.0</ele><time>2026-04-07T15:21:05Z</time></trkpt><trkpt lat="43.87584258823587" lon="6.2973457495001925"><ele>1358.5</ele><time>2026-04-07T15:21:06Z</time></trkpt><trkpt lat="43.87577449773446" lon="6.297399733137302"><ele>1358.0</ele><time>2026-04-07T15:21:07Z</time></trkpt><trkpt lat="43.87569068240251" lon="6.297429132934058"><ele>1357.5</ele><time>2026-04-07T15:21:08Z</time></trkpt><trkpt lat="43.87561048689003" lon="6.297404955898602"><ele>1357.0</ele><time>2026-04-07T15:21:09Z</time></trkpt><trkpt lat="43.875543445913536" lon="6.297349566253745"><ele>1357.0</ele><time>2026-04-07T15:21:10Z</time></trkpt><trkpt lat="43.87545671138618" lon="6.297308182009956"><ele>1357.0</ele><time>2026-04-07T15:21:11Z</time></trkpt><trkpt lat="43.87537900721941" lon="6.297280034214648"><ele>1357.0</ele><time>2026-04-07T15:21:12Z</time></trkpt><trkpt lat="43.875296832422" lon="6.2972764024150125"><ele>1357.0</ele><time>2026-04-07T15:21:13Z</time></trkpt><trkpt lat="43.87519709552116" lon="6.297297456677272"><ele>1357.0</ele><time>2026-04-07T15:21:15Z</time></trkpt><trkpt lat="43.87515269955018" lon="6.297362264462139"><ele>1357.0</ele><time>2026-04-07T15:21:16Z</time></trkpt><trkpt lat="43.875116042731996" lon="6.297447100973226"><ele>1355.0</ele><time>2026-04-07T15:21:17Z</time></trkpt><trkpt lat="43.8750785060182" lon="6.2975446014554795"><ele>1353.0</ele><time>2026-04-07T15:21:18Z</time></trkpt><trkpt lat="43.87503442588592" lon="6.29762719199735"><ele>1351.0</ele><time>2026-04-07T15:21:19Z</time></trkpt><trkpt lat="43.874964511773946" lon="6.297648226119435"><ele>1349.0</ele><time>2026-04-07T15:21:20Z</time></trkpt><trkpt lat="43.87488398063236" lon="6.297706856872563"><ele>1347.0</ele><time>2026-04-07T15:21:21Z</time></trkpt><trkpt lat="43.87479398896105" lon="6.2977226738532"><ele>1345.0</ele><time>2026-04-07T15:21:22Z</time></trkpt><trkpt lat="43.87471850727615" lon="6.297702548245695"><ele>1345.0</ele><time>2026-04-07T15:21:23Z</time></trkpt><trkpt lat="43.87463395071427" lon="6.297666029890962"><ele>1345.0</ele><time>2026-04-07T15:21:24Z</time></trkpt><trkpt lat="43.874566951960524" lon="6.297590616962916"><ele>1345.0</ele><time>2026-04-07T15:21:25Z</time></trkpt><trkpt lat="43.87450276613307" lon="6.297479494392779"><ele>1345.0</ele><time>2026-04-07T15:21:26Z</time></trkpt><trkpt lat="43.874411299195486" lon="6.297383283094556"><ele>1345.0</ele><time>2026-04-07T15:21:27Z</time></trkpt><trkpt lat="43.87431561933022" lon="6.2972818882497315"><ele>1341.1666666666665</ele><time>2026-04-07T15:21:28Z</time></trkpt><trkpt lat="43.87421396400003" lon="6.297224359973438"><ele>1337.3333333333333</ele><time>2026-04-07T15:21:29Z</time></trkpt><trkpt lat="43.874133438132695" lon="6.2971740873157644"><ele>1333.5</ele><time>2026-04-07T15:21:30Z</time></trkpt><trkpt lat="43.87406008078654" lon="6.297122696882769"><ele>1329.6666666666667</ele><time>2026-04-07T15:21:31Z</time></trkpt><trkpt lat="43.873990478329816" lon="6.2970748771244365"><ele>1325.8333333333335</ele><time>2026-04-07T15:21:32Z</time></trkpt><trkpt lat="43.873913166944384" lon="6.2970358887746976"><ele>1322.0</ele><time>2026-04-07T15:21:33Z</time></trkpt><trkpt lat="43.8738373849336" lon="6.297035092748078"><ele>1322.0</ele><time>2026-04-07T15:21:34Z</time></trkpt><trkpt lat="43.873766518491806" lon="6.297054338461977"><ele>1322.0</ele><time>2026-04-07T15:21:35Z</time></trkpt><trkpt lat="43.87367375452739" lon="6.297150573461369"><ele>1322.0</ele><time>2026-04-07T15:21:37Z</time></trkpt><trkpt lat="43.87362104909821" lon="6.297241442765695"><ele>1322.0</ele><time>2026-04-07T15:21:38Z</time></trkpt><trkpt lat="43.87358088393132" lon="6.297341164338221"><ele>1322.0</ele><time>2026-04-07T15:21:39Z</time></trkpt><trkpt lat="43.87353407457868" lon="6.297447500889428"><ele>1322.0</ele><time>2026-04-07T15:21:41Z</time></trkpt><trkpt lat="43.87357058710335" lon="6.29761629196162"><ele>1324.0</ele><time>2026-04-07T15:22:11.999Z</time></trkpt><trkpt lat="43.87343651547216" lon="6.297578337328042"><ele>1326.0</ele><time>2026-04-07T15:22:12.999Z</time></trkpt><trkpt lat="43.87335344384961" lon="6.297676187498036"><ele>1328.0</ele><time>2026-04-07T15:22:14.999Z</time></trkpt><trkpt lat="43.87329453827769" lon="6.2977141247862605"><ele>1330.0</ele><time>2026-04-07T15:22:15.999Z</time></trkpt><trkpt lat="43.873229583998814" lon="6.29772719517"><ele>1332.0</ele><time>2026-04-07T15:22:16.999Z</time></trkpt><trkpt lat="43.873133980549525" lon="6.2977414864053705"><ele>1332.0</ele><time>2026-04-07T15:22:17.999Z</time></trkpt><trkpt lat="43.87304362284472" lon="6.2977581439339785"><ele>1332.0</ele><time>2026-04-07T15:22:18.999Z</time></trkpt><trkpt lat="43.87295805885302" lon="6.297766145961383"><ele>1332.0</ele><time>2026-04-07T15:22:19.999Z</time></trkpt><trkpt lat="43.872881159013914" lon="6.29776554947593"><ele>1332.0</ele><time>2026-04-07T15:22:20.999Z</time></trkpt><trkpt lat="43.87280546633467" lon="6.297790095943121"><ele>1332.0</ele><time>2026-04-07T15:22:22Z</time></trkpt><trkpt lat="43.872730805956735" lon="6.297837698229317"><ele>1332.0</ele><time>2026-04-07T15:22:23Z</time></trkpt><trkpt lat="43.87265551548107" lon="6.297837942552339"><ele>1332.0</ele><time>2026-04-07T15:22:24Z</time></trkpt><trkpt lat="43.87257143418063" lon="6.297848387756264"><ele>1332.0</ele><time>2026-04-07T15:22:26Z</time></trkpt><trkpt lat="43.8725306772011" lon="6.29776310728354"><ele>1332.0</ele><time>2026-04-07T15:22:28Z</time></trkpt><trkpt lat="43.87259978500199" lon="6.297618241251248"><ele>1332.0</ele><time>2026-04-07T15:22:30Z</time></trkpt><trkpt lat="43.87266016046049" lon="6.297541954146243"><ele>1332.0</ele><time>2026-04-07T15:22:31Z</time></trkpt><trkpt lat="43.872726231884926" lon="6.297457119772635"><ele>1332.0</ele><time>2026-04-07T15:22:32Z</time></trkpt><trkpt lat="43.8727897729417" lon="6.297371753933312"><ele>1332.0</ele><time>2026-04-07T15:22:33Z</time></trkpt><trkpt lat="43.872857196875216" lon="6.297266553197395"><ele>1332.0</ele><time>2026-04-07T15:22:34Z</time></trkpt><trkpt lat="43.87292450148871" lon="6.297176317081905"><ele>1332.0</ele><time>2026-04-07T15:22:35Z</time></trkpt><trkpt lat="43.87299213031161" lon="6.297098516916328"><ele>1332.0</ele><time>2026-04-07T15:22:36Z</time></trkpt><trkpt lat="43.873070842426" lon="6.296981584052201"><ele>1329.5</ele><time>2026-04-07T15:22:37Z</time></trkpt><trkpt lat="43.87312689215083" lon="6.2968629537298995"><ele>1327.0</ele><time>2026-04-07T15:22:38Z</time></trkpt><trkpt lat="43.87318878717346" lon="6.296784696299311"><ele>1324.5</ele><time>2026-04-07T15:22:39Z</time></trkpt><trkpt lat="43.873233935925604" lon="6.296708866161416"><ele>1322.0</ele><time>2026-04-07T15:22:40Z</time></trkpt><trkpt lat="43.87327486635581" lon="6.296636428586912"><ele>1319.5</ele><time>2026-04-07T15:22:41Z</time></trkpt><trkpt lat="43.87332346571284" lon="6.2964952054967664"><ele>1317.0</ele><time>2026-04-07T15:22:43Z</time></trkpt><trkpt lat="43.87320626919686" lon="6.296365569346922"><ele>1317.0</ele><time>2026-04-07T15:22:45Z</time></trkpt><trkpt lat="43.87310373145094" lon="6.296465628967971"><ele>1317.0</ele><time>2026-04-07T15:22:46Z</time></trkpt><trkpt lat="43.873042531448014" lon="6.296501343949263"><ele>1317.0</ele><time>2026-04-07T15:22:47Z</time></trkpt><trkpt lat="43.87296863334025" lon="6.29654333520221"><ele>1317.0</ele><time>2026-04-07T15:22:48Z</time></trkpt><trkpt lat="43.872881411130805" lon="6.296592897683055"><ele>1317.0</ele><time>2026-04-07T15:22:49Z</time></trkpt><trkpt lat="43.87279366093617" lon="6.29664275985471"><ele>1317.0</ele><time>2026-04-07T15:22:50Z</time></trkpt><trkpt lat="43.872710309018736" lon="6.296689539741393"><ele>1317.0</ele><time>2026-04-07T15:22:51Z</time></trkpt><trkpt lat="43.87262358514004" lon="6.2967372005225455"><ele>1317.0</ele><time>2026-04-07T15:22:52Z</time></trkpt><trkpt lat="43.87255352591396" lon="6.296788935752912"><ele>1317.0</ele><time>2026-04-07T15:22:53Z</time></trkpt><trkpt lat="43.87245596612791" lon="6.296789045392604"><ele>1317.0</ele><time>2026-04-07T15:22:54Z</time></trkpt><trkpt lat="43.87237951215731" lon="6.296770522995684"><ele>1317.0</ele><time>2026-04-07T15:22:55Z</time></trkpt><trkpt lat="43.8722942481197" lon="6.2967039971177385"><ele>1315.1999999999998</ele><time>2026-04-07T15:22:56Z</time></trkpt><trkpt lat="43.87221371374715" lon="6.2966406207159045"><ele>1313.4</ele><time>2026-04-07T15:22:57Z</time></trkpt><trkpt lat="43.872132521886904" lon="6.29656097204873"><ele>1311.6</ele><time>2026-04-07T15:22:58Z</time></trkpt><trkpt lat="43.87206043228317" lon="6.296462575461282"><ele>1309.8000000000002</ele><time>2026-04-07T15:22:59Z</time></trkpt><trkpt lat="43.87196451488013" lon="6.2963704207315105"><ele>1308.0</ele><time>2026-04-07T15:23:00Z</time></trkpt><trkpt lat="43.8718934149052" lon="6.2962789444691145"><ele>1306.1666666666667</ele><time>2026-04-07T15:23:01Z</time></trkpt><trkpt lat="43.87181926156745" lon="6.29622709338564"><ele>1304.3333333333333</ele><time>2026-04-07T15:23:02Z</time></trkpt><trkpt lat="43.871753772646095" lon="6.296190559276422"><ele>1302.5</ele><time>2026-04-07T15:23:03Z</time></trkpt><trkpt lat="43.87168704256787" lon="6.296181589723331"><ele>1300.6666666666665</ele><time>2026-04-07T15:23:04Z</time></trkpt><trkpt lat="43.871608564006635" lon="6.296202233888921"><ele>1298.8333333333333</ele><time>2026-04-07T15:23:05Z</time></trkpt><trkpt lat="43.87151652217312" lon="6.296221907004755"><ele>1297.0</ele><time>2026-04-07T15:23:06Z</time></trkpt><trkpt lat="43.87141693428554" lon="6.29627421715734"><ele>1296.5</ele><time>2026-04-07T15:23:07Z</time></trkpt><trkpt lat="43.87130968838774" lon="6.296307050166058"><ele>1296.0</ele><time>2026-04-07T15:23:08Z</time></trkpt><trkpt lat="43.87118897730963" lon="6.296312018270706"><ele>1295.5</ele><time>2026-04-07T15:23:09Z</time></trkpt><trkpt lat="43.87107317214632" lon="6.296354969635769"><ele>1295.0</ele><time>2026-04-07T15:23:10Z</time></trkpt><trkpt lat="43.87096947798384" lon="6.296382296967747"><ele>1294.4</ele><time>2026-04-07T15:23:11Z</time></trkpt><trkpt lat="43.87087143210149" lon="6.296405008314601"><ele>1293.8</ele><time>2026-04-07T15:23:12Z</time></trkpt><trkpt lat="43.87076600567062" lon="6.296401687300617"><ele>1293.1999999999998</ele><time>2026-04-07T15:23:13Z</time></trkpt><trkpt lat="43.87067840626426" lon="6.2963893753051385"><ele>1292.6</ele><time>2026-04-07T15:23:14Z</time></trkpt><trkpt lat="43.870590686114156" lon="6.296368521029037"><ele>1292.0</ele><time>2026-04-07T15:23:15Z</time></trkpt><trkpt lat="43.87050987967587" lon="6.296340612409562"><ele>1292.0</ele><time>2026-04-07T15:23:16Z</time></trkpt><trkpt lat="43.870434454070754" lon="6.2963468551108015"><ele>1292.0</ele><time>2026-04-07T15:23:17Z</time></trkpt><trkpt lat="43.870350478823894" lon="6.296404271845416"><ele>1292.0</ele><time>2026-04-07T15:23:18Z</time></trkpt><trkpt lat="43.87026938955523" lon="6.296486806484608"><ele>1292.0</ele><time>2026-04-07T15:23:19Z</time></trkpt><trkpt lat="43.870191822049804" lon="6.2965774221104285"><ele>1292.0</ele><time>2026-04-07T15:23:20Z</time></trkpt><trkpt lat="43.87011988518164" lon="6.296656868011582"><ele>1292.0</ele><time>2026-04-07T15:23:21Z</time></trkpt><trkpt lat="43.87003054658041" lon="6.296730548128859"><ele>1292.0</ele><time>2026-04-07T15:23:22Z</time></trkpt><trkpt lat="43.8699443295647" lon="6.296786541887987"><ele>1292.0</ele><time>2026-04-07T15:23:23Z</time></trkpt><trkpt lat="43.86987212569402" lon="6.296857470913348"><ele>1292.0</ele><time>2026-04-07T15:23:24Z</time></trkpt><trkpt lat="43.86980187746626" lon="6.296931929929624"><ele>1292.0</ele><time>2026-04-07T15:23:25Z</time></trkpt><trkpt lat="43.86974683132144" lon="6.297003982415859"><ele>1292.0</ele><time>2026-04-07T15:23:26Z</time></trkpt><trkpt lat="43.869701300677406" lon="6.297100978326676"><ele>1292.0</ele><time>2026-04-07T15:23:27Z</time></trkpt><trkpt lat="43.86968840238992" lon="6.297206577019954"><ele>1292.0</ele><time>2026-04-07T15:23:28Z</time></trkpt><trkpt lat="43.869649429130945" lon="6.297281701677588"><ele>1292.0</ele><time>2026-04-07T15:23:29Z</time></trkpt><trkpt lat="43.86956170883578" lon="6.297348164664283"><ele>1292.0</ele><time>2026-04-07T15:23:31Z</time></trkpt><trkpt lat="43.86947234690598" lon="6.2972736033693035"><ele>1292.0</ele><time>2026-04-07T15:23:33Z</time></trkpt><trkpt lat="43.869451414668504" lon="6.297188735043477"><ele>1292.0</ele><time>2026-04-07T15:23:34Z</time></trkpt><trkpt lat="43.86942129827063" lon="6.297075474285073"><ele>1292.0</ele><time>2026-04-07T15:23:35Z</time></trkpt><trkpt lat="43.86937407588685" lon="6.2969435191669625"><ele>1292.0</ele><time>2026-04-07T15:23:36Z</time></trkpt><trkpt lat="43.86931200043299" lon="6.296838025948404"><ele>1292.0</ele><time>2026-04-07T15:23:37Z</time></trkpt><trkpt lat="43.86926384765137" lon="6.296743862006507"><ele>1292.0</ele><time>2026-04-07T15:23:38Z</time></trkpt><trkpt lat="43.86918748672374" lon="6.296665316876322"><ele>1292.25</ele><time>2026-04-07T15:23:39Z</time></trkpt><trkpt lat="43.86906407444564" lon="6.2965680015726475"><ele>1292.5</ele><time>2026-04-07T15:23:40Z</time></trkpt><trkpt lat="43.86897403295635" lon="6.296477593540003"><ele>1292.75</ele><time>2026-04-07T15:23:41Z</time></trkpt><trkpt lat="43.8688964609607" lon="6.2963788652633905"><ele>1293.0</ele><time>2026-04-07T15:23:42Z</time></trkpt><trkpt lat="43.86882535456878" lon="6.29627928758181"><ele>1290.2</ele><time>2026-04-07T15:23:43Z</time></trkpt><trkpt lat="43.86876574250695" lon="6.296156796628082"><ele>1287.4</ele><time>2026-04-07T15:23:44Z</time></trkpt><trkpt lat="43.86870298143717" lon="6.29603961269281"><ele>1284.6000000000001</ele><time>2026-04-07T15:23:45Z</time></trkpt><trkpt lat="43.8686342108468" lon="6.29593769408159"><ele>1281.8000000000002</ele><time>2026-04-07T15:23:46Z</time></trkpt><trkpt lat="43.868544539581215" lon="6.29585543285075"><ele>1279.0</ele><time>2026-04-07T15:23:47Z</time></trkpt><trkpt lat="43.86845078871834" lon="6.29575567868961"><ele>1281.3333333333333</ele><time>2026-04-07T15:23:48Z</time></trkpt><trkpt lat="43.8683669446098" lon="6.295692459371762"><ele>1283.6666666666665</ele><time>2026-04-07T15:23:49Z</time></trkpt><trkpt lat="43.868288004049965" lon="6.295654721264188"><ele>1286.0</ele><time>2026-04-07T15:23:50Z</time></trkpt><trkpt lat="43.86820547425419" lon="6.295630950498136"><ele>1288.3333333333333</ele><time>2026-04-07T15:23:51Z</time></trkpt><trkpt lat="43.86811884096715" lon="6.295636684804521"><ele>1290.6666666666667</ele><time>2026-04-07T15:23:52Z</time></trkpt><trkpt lat="43.86803011554641" lon="6.295683104715635"><ele>1293.0</ele><time>2026-04-07T15:23:53Z</time></trkpt><trkpt lat="43.86794565218573" lon="6.295758356506465"><ele>1293.0</ele><time>2026-04-07T15:23:54Z</time></trkpt><trkpt lat="43.86788794663912" lon="6.29585099588371"><ele>1293.0</ele><time>2026-04-07T15:23:55Z</time></trkpt><trkpt lat="43.867836972982765" lon="6.29593565559211"><ele>1293.0</ele><time>2026-04-07T15:23:56Z</time></trkpt><trkpt lat="43.867784965702725" lon="6.296003589511733"><ele>1293.0</ele><time>2026-04-07T15:23:56.999Z</time></trkpt><trkpt lat="43.8677045699454" lon="6.29603464390884"><ele>1293.0</ele><time>2026-04-07T15:23:57.999Z</time></trkpt><trkpt lat="43.86761951592645" lon="6.296012371340316"><ele>1293.0</ele><time>2026-04-07T15:23:58.999Z</time></trkpt><trkpt lat="43.86752764592814" lon="6.29597360040001"><ele>1292.0</ele><time>2026-04-07T15:23:59.999Z</time></trkpt><trkpt lat="43.86743235474873" lon="6.2959213262696645"><ele>1291.0</ele><time>2026-04-07T15:24:00.999Z</time></trkpt><trkpt lat="43.86734224456737" lon="6.295869426710272"><ele>1290.0</ele><time>2026-04-07T15:24:01.999Z</time></trkpt><trkpt lat="43.8672521586251" lon="6.295820111932517"><ele>1289.0</ele><time>2026-04-07T15:24:02.999Z</time></trkpt><trkpt lat="43.86714801556963" lon="6.29580127438764"><ele>1288.0</ele><time>2026-04-07T15:24:03.999Z</time></trkpt><trkpt lat="43.86703562260605" lon="6.295798290132427"><ele>1288.0</ele><time>2026-04-07T15:24:04.999Z</time></trkpt><trkpt lat="43.86692808068227" lon="6.2958092543789705"><ele>1288.0</ele><time>2026-04-07T15:24:05.999Z</time></trkpt><trkpt lat="43.86683078359244" lon="6.295838817560497"><ele>1288.0</ele><time>2026-04-07T15:24:06.999Z</time></trkpt><trkpt lat="43.86674355139927" lon="6.295895105274114"><ele>1288.0</ele><time>2026-04-07T15:24:07.999Z</time></trkpt><trkpt lat="43.86665681086791" lon="6.295926606202687"><ele>1288.0</ele><time>2026-04-07T15:24:08.999Z</time></trkpt><trkpt lat="43.86655456821453" lon="6.295946372046799"><ele>1287.4</ele><time>2026-04-07T15:24:09.999Z</time></trkpt><trkpt lat="43.86646326182723" lon="6.295914249053704"><ele>1286.8000000000002</ele><time>2026-04-07T15:24:10.999Z</time></trkpt><trkpt lat="43.86636886655637" lon="6.295897839595445"><ele>1286.2</ele><time>2026-04-07T15:24:11.999Z</time></trkpt><trkpt lat="43.8663040156538" lon="6.295798367795411"><ele>1285.6</ele><time>2026-04-07T15:24:12.999Z</time></trkpt><trkpt lat="43.86625005398273" lon="6.295696613517147"><ele>1285.0</ele><time>2026-04-07T15:24:13.999Z</time></trkpt><trkpt lat="43.866213194318995" lon="6.295592918523193"><ele>1283.0</ele><time>2026-04-07T15:24:14.999Z</time></trkpt><trkpt lat="43.86615948658041" lon="6.295498144995141"><ele>1281.0</ele><time>2026-04-07T15:24:15.999Z</time></trkpt><trkpt lat="43.866123734385894" lon="6.295406672486418"><ele>1279.0</ele><time>2026-04-07T15:24:16.999Z</time></trkpt><trkpt lat="43.86604808045132" lon="6.295327691271751"><ele>1277.0</ele><time>2026-04-07T15:24:17.999Z</time></trkpt><trkpt lat="43.865951746952554" lon="6.295290134467741"><ele>1275.0</ele><time>2026-04-07T15:24:18.999Z</time></trkpt><trkpt lat="43.865859449344924" lon="6.2952313681275776"><ele>1275.0</ele><time>2026-04-07T15:24:19.999Z</time></trkpt><trkpt lat="43.86574236451714" lon="6.295190780776564"><ele>1275.0</ele><time>2026-04-07T15:24:20.999Z</time></trkpt><trkpt lat="43.86561538145603" lon="6.295158923536069"><ele>1275.0</ele><time>2026-04-07T15:24:21.999Z</time></trkpt><trkpt lat="43.865490943465616" lon="6.2951333421938935"><ele>1275.0</ele><time>2026-04-07T15:24:22.999Z</time></trkpt><trkpt lat="43.86537259832022" lon="6.295111079807257"><ele>1275.0</ele><time>2026-04-07T15:24:23.999Z</time></trkpt><trkpt lat="43.865251452405815" lon="6.295087590543966"><ele>1275.0</ele><time>2026-04-07T15:24:24.999Z</time></trkpt><trkpt lat="43.86513254235218" lon="6.295064628028929"><ele>1275.0</ele><time>2026-04-07T15:24:25.999Z</time></trkpt><trkpt lat="43.865004313649585" lon="6.295045053536727"><ele>1275.0</ele><time>2026-04-07T15:24:26.999Z</time></trkpt><trkpt lat="43.864880283487835" lon="6.295039190976433"><ele>1274.8</ele><time>2026-04-07T15:24:28Z</time></trkpt><trkpt lat="43.864770536169544" lon="6.295047449621814"><ele>1274.6</ele><time>2026-04-07T15:24:29Z</time></trkpt><trkpt lat="43.86466346426769" lon="6.2950746318026365"><ele>1274.4</ele><time>2026-04-07T15:24:30Z</time></trkpt><trkpt lat="43.86456067693493" lon="6.295078075019631"><ele>1274.2</ele><time>2026-04-07T15:24:31Z</time></trkpt><trkpt lat="43.864469368354335" lon="6.295101737107607"><ele>1274.0</ele><time>2026-04-07T15:24:32Z</time></trkpt><trkpt lat="43.86439706898726" lon="6.2951314015290745"><ele>1274.0</ele><time>2026-04-07T15:24:33Z</time></trkpt><trkpt lat="43.864338383258655" lon="6.295194406564971"><ele>1274.0</ele><time>2026-04-07T15:24:34Z</time></trkpt><trkpt lat="43.86430227394733" lon="6.295285156323423"><ele>1274.0</ele><time>2026-04-07T15:24:35Z</time></trkpt><trkpt lat="43.86429277656137" lon="6.295380191820504"><ele>1274.0</ele><time>2026-04-07T15:24:36Z</time></trkpt><trkpt lat="43.86431658488323" lon="6.29548142329745"><ele>1274.0</ele><time>2026-04-07T15:24:37Z</time></trkpt><trkpt lat="43.86436328362339" lon="6.295588772693975"><ele>1274.0</ele><time>2026-04-07T15:24:38Z</time></trkpt><trkpt lat="43.864422730604026" lon="6.295683244221143"><ele>1275.0</ele><time>2026-04-07T15:24:39Z</time></trkpt><trkpt lat="43.86446015339381" lon="6.295796981568174"><ele>1276.0</ele><time>2026-04-07T15:24:40Z</time></trkpt><trkpt lat="43.86449890755319" lon="6.295890915336741"><ele>1277.0</ele><time>2026-04-07T15:24:41Z</time></trkpt><trkpt lat="43.864527226277254" lon="6.295996617733475"><ele>1278.0</ele><time>2026-04-07T15:24:42Z</time></trkpt><trkpt lat="43.8645235530854" lon="6.296110944908844"><ele>1279.0</ele><time>2026-04-07T15:24:43Z</time></trkpt><trkpt lat="43.86450257724267" lon="6.296203438608063"><ele>1280.0</ele><time>2026-04-07T15:24:44Z</time></trkpt><trkpt lat="43.86449545673029" lon="6.29632522083901"><ele>1280.0</ele><time>2026-04-07T15:24:45Z</time></trkpt><trkpt lat="43.86451336153224" lon="6.296419909960666"><ele>1280.0</ele><time>2026-04-07T15:24:46Z</time></trkpt><trkpt lat="43.86453940138067" lon="6.296526535299492"><ele>1280.0</ele><time>2026-04-07T15:24:47Z</time></trkpt><trkpt lat="43.86455093655678" lon="6.296639447779727"><ele>1280.0</ele><time>2026-04-07T15:24:48Z</time></trkpt><trkpt lat="43.86458140701663" lon="6.296742674456261"><ele>1280.0</ele><time>2026-04-07T15:24:49Z</time></trkpt><trkpt lat="43.8646228887004" lon="6.296834959029193"><ele>1280.0</ele><time>2026-04-07T15:24:50Z</time></trkpt><trkpt lat="43.86466926816567" lon="6.296982763431049"><ele>1280.0</ele><time>2026-04-07T15:24:52Z</time></trkpt><trkpt lat="43.86468881731496" lon="6.297148961052852"><ele>1280.0</ele><time>2026-04-07T15:24:54Z</time></trkpt><trkpt lat="43.86462348571866" lon="6.2972927724683565"><ele>1280.0</ele><time>2026-04-07T15:24:56Z</time></trkpt><trkpt lat="43.864559661853875" lon="6.297324994462779"><ele>1280.0</ele><time>2026-04-07T15:24:57Z</time></trkpt><trkpt lat="43.86449227109307" lon="6.297302710778551"><ele>1280.0</ele><time>2026-04-07T15:24:58Z</time></trkpt><trkpt lat="43.8644077590554" lon="6.297302234758939"><ele>1280.25</ele><time>2026-04-07T15:24:59Z</time></trkpt><trkpt lat="43.86430972247073" lon="6.297309871982033"><ele>1280.5</ele><time>2026-04-07T15:25:00Z</time></trkpt><trkpt lat="43.86418591288604" lon="6.297327398759355"><ele>1280.75</ele><time>2026-04-07T15:25:01Z</time></trkpt><trkpt lat="43.86406443549763" lon="6.297349073387713"><ele>1281.0</ele><time>2026-04-07T15:25:02Z</time></trkpt><trkpt lat="43.863950303214956" lon="6.297376242914063"><ele>1278.6</ele><time>2026-04-07T15:25:03Z</time></trkpt><trkpt lat="43.86384518750073" lon="6.297403668675665"><ele>1276.1999999999998</ele><time>2026-04-07T15:25:04Z</time></trkpt><trkpt lat="43.86373676421031" lon="6.29745172612859"><ele>1273.8000000000002</ele><time>2026-04-07T15:25:05Z</time></trkpt><trkpt lat="43.86364363814488" lon="6.297465275466793"><ele>1271.4</ele><time>2026-04-07T15:25:06Z</time></trkpt><trkpt lat="43.86357126621858" lon="6.2974473462547715"><ele>1269.0</ele><time>2026-04-07T15:25:07Z</time></trkpt><trkpt lat="43.86346555262783" lon="6.297492725258089"><ele>1266.5</ele><time>2026-04-07T15:25:09Z</time></trkpt><trkpt lat="43.863377163035324" lon="6.297537061236118"><ele>1264.0</ele><time>2026-04-07T15:25:10Z</time></trkpt><trkpt lat="43.863297329993124" lon="6.297584069309863"><ele>1261.5</ele><time>2026-04-07T15:25:11Z</time></trkpt><trkpt lat="43.863225128879854" lon="6.297655106014985"><ele>1259.0</ele><time>2026-04-07T15:25:12Z</time></trkpt><trkpt lat="43.86316182132813" lon="6.297743828088344"><ele>1256.5</ele><time>2026-04-07T15:25:13Z</time></trkpt><trkpt lat="43.86309506119024" lon="6.2978179813691195"><ele>1254.0</ele><time>2026-04-07T15:25:14Z</time></trkpt><trkpt lat="43.86304521814902" lon="6.297879688420266"><ele>1254.0</ele><time>2026-04-07T15:25:15Z</time></trkpt><trkpt lat="43.863001331633" lon="6.297952558484599"><ele>1254.0</ele><time>2026-04-07T15:25:16Z</time></trkpt><trkpt lat="43.862967355831486" lon="6.298047778527471"><ele>1254.0</ele><time>2026-04-07T15:25:17Z</time></trkpt><trkpt lat="43.86294151027364" lon="6.298138955169483"><ele>1254.0</ele><time>2026-04-07T15:25:18Z</time></trkpt><trkpt lat="43.862921871347694" lon="6.2982565052247725"><ele>1254.0</ele><time>2026-04-07T15:25:19Z</time></trkpt><trkpt lat="43.86290127430368" lon="6.298376714560403"><ele>1254.0</ele><time>2026-04-07T15:25:20Z</time></trkpt><trkpt lat="43.862869277673184" lon="6.298472401252109"><ele>1255.0</ele><time>2026-04-07T15:25:21Z</time></trkpt><trkpt lat="43.862834451957504" lon="6.298563006444194"><ele>1256.0</ele><time>2026-04-07T15:25:22Z</time></trkpt><trkpt lat="43.862748755190054" lon="6.298635449857406"><ele>1257.0</ele><time>2026-04-07T15:25:24Z</time></trkpt><trkpt lat="43.86261618877493" lon="6.29858611510976"><ele>1258.0</ele><time>2026-04-07T15:25:26Z</time></trkpt><trkpt lat="43.86254451559208" lon="6.298504618288127"><ele>1259.0</ele><time>2026-04-07T15:25:27Z</time></trkpt><trkpt lat="43.862476073938744" lon="6.2983905063722485"><ele>1259.0</ele><time>2026-04-07T15:25:28Z</time></trkpt><trkpt lat="43.862400692262035" lon="6.298295229612162"><ele>1259.0</ele><time>2026-04-07T15:25:29Z</time></trkpt><trkpt lat="43.86232130029953" lon="6.298229138645788"><ele>1259.0</ele><time>2026-04-07T15:25:30Z</time></trkpt><trkpt lat="43.86224517906473" lon="6.298164025401831"><ele>1259.0</ele><time>2026-04-07T15:25:31Z</time></trkpt><trkpt lat="43.862167322099445" lon="6.298098701585301"><ele>1259.0</ele><time>2026-04-07T15:25:32Z</time></trkpt><trkpt lat="43.86211024804262" lon="6.298055317108783"><ele>1259.0</ele><time>2026-04-07T15:25:33Z</time></trkpt><trkpt lat="43.86207265647161" lon="6.297973303415358"><ele>1255.5</ele><time>2026-04-07T15:25:34Z</time></trkpt><trkpt lat="43.862045814015474" lon="6.2978569654159084"><ele>1252.0</ele><time>2026-04-07T15:25:35Z</time></trkpt><trkpt lat="43.8620855134723" lon="6.297721156421329"><ele>1248.5</ele><time>2026-04-07T15:25:36Z</time></trkpt><trkpt lat="43.86208276414672" lon="6.297617783592055"><ele>1245.0</ele><time>2026-04-07T15:25:37Z</time></trkpt><trkpt lat="43.862066098362206" lon="6.297528383329364"><ele>1241.5</ele><time>2026-04-07T15:25:38Z</time></trkpt><trkpt lat="43.86205495699622" lon="6.297442426680593"><ele>1238.0</ele><time>2026-04-07T15:25:39Z</time></trkpt><trkpt lat="43.862018363759034" lon="6.297330742234797"><ele>1237.0</ele><time>2026-04-07T15:25:40Z</time></trkpt><trkpt lat="43.86197247703051" lon="6.297225422995259"><ele>1236.0</ele><time>2026-04-07T15:25:41Z</time></trkpt><trkpt lat="43.86190449396748" lon="6.297140627517173"><ele>1235.0</ele><time>2026-04-07T15:25:41.999Z</time></trkpt><trkpt lat="43.861821369128684" lon="6.297088879965978"><ele>1234.0</ele><time>2026-04-07T15:25:42.999Z</time></trkpt><trkpt lat="43.86175899672241" lon="6.297017386350674"><ele>1233.0</ele><time>2026-04-07T15:25:43.999Z</time></trkpt><trkpt lat="43.86168270224995" lon="6.296954677612275"><ele>1232.0</ele><time>2026-04-07T15:25:44.999Z</time></trkpt><trkpt lat="43.861608735214645" lon="6.296870255261047"><ele>1232.0</ele><time>2026-04-07T15:25:45.999Z</time></trkpt><trkpt lat="43.86153038723902" lon="6.296801151026995"><ele>1232.0</ele><time>2026-04-07T15:25:46.999Z</time></trkpt><trkpt lat="43.86144896561506" lon="6.296733385682022"><ele>1232.0</ele><time>2026-04-07T15:25:47.999Z</time></trkpt><trkpt lat="43.86136620049826" lon="6.296667474105793"><ele>1232.0</ele><time>2026-04-07T15:25:48.999Z</time></trkpt><trkpt lat="43.861292710316924" lon="6.296602458924843"><ele>1232.0</ele><time>2026-04-07T15:25:49.999Z</time></trkpt><trkpt lat="43.861219656401815" lon="6.296527892642527"><ele>1232.0</ele><time>2026-04-07T15:25:50.999Z</time></trkpt><trkpt lat="43.861129409823945" lon="6.29646981218012"><ele>1232.0</ele><time>2026-04-07T15:25:51.999Z</time></trkpt><trkpt lat="43.8610385205749" lon="6.296426277182225"><ele>1232.0</ele><time>2026-04-07T15:25:52.999Z</time></trkpt><trkpt lat="43.860949744017795" lon="6.296396665457543"><ele>1232.0</ele><time>2026-04-07T15:25:53.999Z</time></trkpt><trkpt lat="43.86084755736095" lon="6.29638888095881"><ele>1232.0</ele><time>2026-04-07T15:25:54.999Z</time></trkpt><trkpt lat="43.860740497158034" lon="6.296385490088692"><ele>1229.8333333333335</ele><time>2026-04-07T15:25:55.999Z</time></trkpt><trkpt lat="43.860645318164" lon="6.296379120957733"><ele>1227.6666666666667</ele><time>2026-04-07T15:25:56.999Z</time></trkpt><trkpt lat="43.860552539472366" lon="6.29637101255941"><ele>1225.5</ele><time>2026-04-07T15:25:57.999Z</time></trkpt><trkpt lat="43.86049139555891" lon="6.296327321976832"><ele>1223.3333333333333</ele><time>2026-04-07T15:25:58.999Z</time></trkpt><trkpt lat="43.860427368931006" lon="6.296240036646106"><ele>1221.1666666666665</ele><time>2026-04-07T15:26:00.999Z</time></trkpt><trkpt lat="43.860450184590746" lon="6.296138970083815"><ele>1219.0</ele><time>2026-04-07T15:26:02.999Z</time></trkpt><trkpt lat="43.86051781422979" lon="6.296129491643492"><ele>1219.0</ele><time>2026-04-07T15:26:03.999Z</time></trkpt><trkpt lat="43.86060358702988" lon="6.296160185228796"><ele>1219.0</ele><time>2026-04-07T15:26:05.999Z</time></trkpt><trkpt lat="43.860749071294215" lon="6.296183145270903"><ele>1219.0</ele><time>2026-04-07T15:26:07.999Z</time></trkpt><trkpt lat="43.86085309300907" lon="6.29614894656492"><ele>1219.0</ele><time>2026-04-07T15:26:08.999Z</time></trkpt><trkpt lat="43.86094554635368" lon="6.296093102399525"><ele>1219.0</ele><time>2026-04-07T15:26:09.999Z</time></trkpt><trkpt lat="43.86104635918687" lon="6.296061878854302"><ele>1218.1666666666665</ele><time>2026-04-07T15:26:10.999Z</time></trkpt><trkpt lat="43.861128750858924" lon="6.296030974213434"><ele>1217.3333333333333</ele><time>2026-04-07T15:26:11.999Z</time></trkpt><trkpt lat="43.86122255547727" lon="6.2959981002446295"><ele>1216.5</ele><time>2026-04-07T15:26:12.999Z</time></trkpt><trkpt lat="43.86130947273532" lon="6.29597379860432"><ele>1215.6666666666667</ele><time>2026-04-07T15:26:13.999Z</time></trkpt><trkpt lat="43.86139819258727" lon="6.295964264531343"><ele>1214.8333333333335</ele><time>2026-04-07T15:26:14.999Z</time></trkpt><trkpt lat="43.86148449270591" lon="6.295988738296074"><ele>1214.0</ele><time>2026-04-07T15:26:15.999Z</time></trkpt><trkpt lat="43.86158037464803" lon="6.296037660270261"><ele>1214.0</ele><time>2026-04-07T15:26:16.999Z</time></trkpt><trkpt lat="43.86167266524666" lon="6.296089041623599"><ele>1214.0</ele><time>2026-04-07T15:26:17.999Z</time></trkpt><trkpt lat="43.861738829044555" lon="6.296158690301308"><ele>1214.0</ele><time>2026-04-07T15:26:18.999Z</time></trkpt><trkpt lat="43.86185011066915" lon="6.296185732824418"><ele>1214.0</ele><time>2026-04-07T15:26:20.999Z</time></trkpt><trkpt lat="43.8619179753736" lon="6.296033952202363"><ele>1214.0</ele><time>2026-04-07T15:26:22.999Z</time></trkpt><trkpt lat="43.861855515097005" lon="6.295928077643125"><ele>1214.0</ele><time>2026-04-07T15:26:23.999Z</time></trkpt><trkpt lat="43.86180047934352" lon="6.29582579561177"><ele>1214.0</ele><time>2026-04-07T15:26:24.999Z</time></trkpt><trkpt lat="43.86173125055838" lon="6.2957220974059265"><ele>1214.0</ele><time>2026-04-07T15:26:25.999Z</time></trkpt><trkpt lat="43.86164812579236" lon="6.295610823138531"><ele>1214.0</ele><time>2026-04-07T15:26:26.999Z</time></trkpt><trkpt lat="43.861569098903736" lon="6.295522527320715"><ele>1214.0</ele><time>2026-04-07T15:26:27.999Z</time></trkpt><trkpt lat="43.86147870012919" lon="6.295441195140238"><ele>1212.1666666666667</ele><time>2026-04-07T15:26:28.999Z</time></trkpt><trkpt lat="43.861393896830315" lon="6.295393120124329"><ele>1210.3333333333335</ele><time>2026-04-07T15:26:29.999Z</time></trkpt><trkpt lat="43.86131106494406" lon="6.295366632533342"><ele>1208.5</ele><time>2026-04-07T15:26:30.999Z</time></trkpt><trkpt lat="43.861229486317534" lon="6.29537430212211"><ele>1206.6666666666667</ele><time>2026-04-07T15:26:31.999Z</time></trkpt><trkpt lat="43.86116155588208" lon="6.295388865256758"><ele>1204.8333333333333</ele><time>2026-04-07T15:26:32.999Z</time></trkpt><trkpt lat="43.86104280740444" lon="6.295391154304949"><ele>1203.0</ele><time>2026-04-07T15:26:35Z</time></trkpt><trkpt lat="43.860998468625525" lon="6.295324626102032"><ele>1203.0</ele><time>2026-04-07T15:26:36Z</time></trkpt><trkpt lat="43.86097202988621" lon="6.29522415323594"><ele>1203.0</ele><time>2026-04-07T15:26:37Z</time></trkpt><trkpt lat="43.861032025446825" lon="6.295092886223028"><ele>1203.0</ele><time>2026-04-07T15:26:38Z</time></trkpt><trkpt lat="43.861001020028915" lon="6.2949913698918545"><ele>1203.0</ele><time>2026-04-07T15:26:39Z</time></trkpt><trkpt lat="43.86093546595419" lon="6.294907722993864"><ele>1203.0</ele><time>2026-04-07T15:26:40Z</time></trkpt><trkpt lat="43.86083658265743" lon="6.294874234551679"><ele>1202.8333333333333</ele><time>2026-04-07T15:26:41Z</time></trkpt><trkpt lat="43.860753364351275" lon="6.294839563818251"><ele>1202.6666666666667</ele><time>2026-04-07T15:26:42Z</time></trkpt><trkpt lat="43.86066949552206" lon="6.294787099748978"><ele>1202.5</ele><time>2026-04-07T15:26:43Z</time></trkpt><trkpt lat="43.86058546948774" lon="6.294727893633351"><ele>1202.3333333333335</ele><time>2026-04-07T15:26:44Z</time></trkpt><trkpt lat="43.86050558204638" lon="6.294691703905513"><ele>1202.1666666666667</ele><time>2026-04-07T15:26:45Z</time></trkpt><trkpt lat="43.860439781944486" lon="6.294659274655121"><ele>1202.0</ele><time>2026-04-07T15:26:46Z</time></trkpt><trkpt lat="43.860356099422184" lon="6.294584616318043"><ele>1200.8</ele><time>2026-04-07T15:26:48Z</time></trkpt><trkpt lat="43.86038403116416" lon="6.2944210056123815"><ele>1199.6</ele><time>2026-04-07T15:26:50Z</time></trkpt><trkpt lat="43.8604403327074" lon="6.294278630257078"><ele>1198.3999999999999</ele><time>2026-04-07T15:26:52Z</time></trkpt><trkpt lat="43.86051974109308" lon="6.2942229150935844"><ele>1197.2</ele><time>2026-04-07T15:26:53Z</time></trkpt><trkpt lat="43.86058335446152" lon="6.29418965612841"><ele>1196.0</ele><time>2026-04-07T15:26:54Z</time></trkpt><trkpt lat="43.86066343582877" lon="6.294150413684219"><ele>1196.0</ele><time>2026-04-07T15:26:55Z</time></trkpt><trkpt lat="43.860734639495696" lon="6.2940919606629295"><ele>1196.0</ele><time>2026-04-07T15:26:56Z</time></trkpt><trkpt lat="43.86079837042972" lon="6.294020050473909"><ele>1196.0</ele><time>2026-04-07T15:26:57Z</time></trkpt><trkpt lat="43.86087087596904" lon="6.293957791077681"><ele>1196.0</ele><time>2026-04-07T15:26:58Z</time></trkpt><trkpt lat="43.86094135622011" lon="6.2938956706705795"><ele>1196.0</ele><time>2026-04-07T15:26:59Z</time></trkpt><trkpt lat="43.860993067778296" lon="6.293817582972938"><ele>1196.0</ele><time>2026-04-07T15:27:00Z</time></trkpt><trkpt lat="43.861032969516415" lon="6.29370904361893"><ele>1195.5</ele><time>2026-04-07T15:27:01Z</time></trkpt><trkpt lat="43.861043858374266" lon="6.293599059287103"><ele>1195.0</ele><time>2026-04-07T15:27:02Z</time></trkpt><trkpt lat="43.86109112983144" lon="6.293521670949884"><ele>1194.5</ele><time>2026-04-07T15:27:03Z</time></trkpt><trkpt lat="43.86116836443606" lon="6.293434895360009"><ele>1194.0</ele><time>2026-04-07T15:27:04Z</time></trkpt><trkpt lat="43.86124172803238" lon="6.293405367601803"><ele>1193.5</ele><time>2026-04-07T15:27:05Z</time></trkpt><trkpt lat="43.86132943614094" lon="6.29337791149701"><ele>1193.0</ele><time>2026-04-07T15:27:06Z</time></trkpt><trkpt lat="43.861417311620514" lon="6.293350540935996"><ele>1193.0</ele><time>2026-04-07T15:27:07Z</time></trkpt><trkpt lat="43.861497909848616" lon="6.293241735372568"><ele>1193.0</ele><time>2026-04-07T15:27:08Z</time></trkpt><trkpt lat="43.86157379709458" lon="6.293110049949459"><ele>1193.0</ele><time>2026-04-07T15:27:09Z</time></trkpt><trkpt lat="43.86163111368497" lon="6.292992859986439"><ele>1193.0</ele><time>2026-04-07T15:27:10Z</time></trkpt><trkpt lat="43.86167860612018" lon="6.292845561509062"><ele>1193.0</ele><time>2026-04-07T15:27:11Z</time></trkpt><trkpt lat="43.86175272328179" lon="6.292675749699899"><ele>1193.0</ele><time>2026-04-07T15:27:12Z</time></trkpt><trkpt lat="43.86175181156952" lon="6.292417157830164"><ele>1193.0</ele><time>2026-04-07T15:27:13Z</time></trkpt><trkpt lat="43.86178420382282" lon="6.292304751746764"><ele>1193.0</ele><time>2026-04-07T15:27:15Z</time></trkpt><trkpt lat="43.86182123547479" lon="6.2921883094841276"><ele>1193.0</ele><time>2026-04-07T15:27:16Z</time></trkpt><trkpt lat="43.86190044438154" lon="6.292122867337299"><ele>1193.0</ele><time>2026-04-07T15:27:17Z</time></trkpt><trkpt lat="43.86197124762639" lon="6.29202848005931"><ele>1193.0</ele><time>2026-04-07T15:27:18Z</time></trkpt><trkpt lat="43.86205141010121" lon="6.291934532068707"><ele>1193.0</ele><time>2026-04-07T15:27:19Z</time></trkpt><trkpt lat="43.86212881167956" lon="6.291809935660074"><ele>1193.0</ele><time>2026-04-07T15:27:20Z</time></trkpt><trkpt lat="43.86222233344845" lon="6.29168624259048"><ele>1193.0</ele><time>2026-04-07T15:27:21Z</time></trkpt><trkpt lat="43.86232361367977" lon="6.291557862152859"><ele>1193.0</ele><time>2026-04-07T15:27:22Z</time></trkpt><trkpt lat="43.86242259828692" lon="6.291431255811429"><ele>1193.0</ele><time>2026-04-07T15:27:23Z</time></trkpt><trkpt lat="43.862516779318504" lon="6.291309040537053"><ele>1193.0</ele><time>2026-04-07T15:27:24Z</time></trkpt><trkpt lat="43.86260002500515" lon="6.291177025066038"><ele>1192.2</ele><time>2026-04-07T15:27:25Z</time></trkpt><trkpt lat="43.8626691480935" lon="6.291044198108337"><ele>1191.4</ele><time>2026-04-07T15:27:26Z</time></trkpt><trkpt lat="43.862723042323786" lon="6.2909174151297185"><ele>1190.6000000000001</ele><time>2026-04-07T15:27:27Z</time></trkpt><trkpt lat="43.86277162753139" lon="6.29078988650738"><ele>1189.8</ele><time>2026-04-07T15:27:28Z</time></trkpt><trkpt lat="43.862814675307966" lon="6.2906588237139305"><ele>1189.0</ele><time>2026-04-07T15:27:29Z</time></trkpt><trkpt lat="43.86286393487021" lon="6.290548742518383"><ele>1190.8333333333333</ele><time>2026-04-07T15:27:30Z</time></trkpt><trkpt lat="43.862914171905736" lon="6.290457736572286"><ele>1192.6666666666665</ele><time>2026-04-07T15:27:31Z</time></trkpt><trkpt lat="43.86296709413314" lon="6.290371000672854"><ele>1194.5</ele><time>2026-04-07T15:27:31.999Z</time></trkpt><trkpt lat="43.86302964693824" lon="6.2902906493381"><ele>1196.3333333333333</ele><time>2026-04-07T15:27:32.999Z</time></trkpt><trkpt lat="43.86308941726536" lon="6.290194497152084"><ele>1198.1666666666667</ele><time>2026-04-07T15:27:33.999Z</time></trkpt><trkpt lat="43.86314839896089" lon="6.2900991627526315"><ele>1200.0</ele><time>2026-04-07T15:27:34.999Z</time></trkpt><trkpt lat="43.863190402665225" lon="6.290021016386374"><ele>1200.0</ele><time>2026-04-07T15:27:35.999Z</time></trkpt><trkpt lat="43.863275802713616" lon="6.289927066345491"><ele>1200.0</ele><time>2026-04-07T15:27:37.999Z</time></trkpt><trkpt lat="43.86334802038316" lon="6.2898889473226545"><ele>1200.0</ele><time>2026-04-07T15:27:39.999Z</time></trkpt><trkpt lat="43.863384498049804" lon="6.289746228968928"><ele>1200.0</ele><time>2026-04-07T15:29:42.999Z</time></trkpt><trkpt lat="43.86332254978835" lon="6.289647914493036"><ele>1200.0</ele><time>2026-04-07T15:29:44.999Z</time></trkpt><trkpt lat="43.86320043319073" lon="6.2896288134204505"><ele>1200.0</ele><time>2026-04-07T15:29:46.999Z</time></trkpt><trkpt lat="43.863137086962844" lon="6.28970060272319"><ele>1200.0</ele><time>2026-04-07T15:29:47.999Z</time></trkpt><trkpt lat="43.86307687167145" lon="6.28976366494014"><ele>1200.0</ele><time>2026-04-07T15:29:48.999Z</time></trkpt><trkpt lat="43.86300902535503" lon="6.2898379149113826"><ele>1200.0</ele><time>2026-04-07T15:29:49.999Z</time></trkpt><trkpt lat="43.862951754998385" lon="6.289912528126174"><ele>1200.0</ele><time>2026-04-07T15:29:50.999Z</time></trkpt><trkpt lat="43.862899763243234" lon="6.29000326095449"><ele>1200.0</ele><time>2026-04-07T15:29:51.999Z</time></trkpt><trkpt lat="43.8628563885913" lon="6.290091647000594"><ele>1200.0</ele><time>2026-04-07T15:29:52.999Z</time></trkpt><trkpt lat="43.86277303532269" lon="6.290150592628423"><ele>1200.0</ele><time>2026-04-07T15:29:53.999Z</time></trkpt><trkpt lat="43.86268624392806" lon="6.290178743578847"><ele>1200.0</ele><time>2026-04-07T15:29:54.999Z</time></trkpt><trkpt lat="43.86260532771779" lon="6.290222461704658"><ele>1200.0</ele><time>2026-04-07T15:29:55.999Z</time></trkpt><trkpt lat="43.86253285425222" lon="6.290272804739098"><ele>1200.0</ele><time>2026-04-07T15:29:56.999Z</time></trkpt><trkpt lat="43.86247269377746" lon="6.290329773822743"><ele>1200.0</ele><time>2026-04-07T15:29:57.999Z</time></trkpt><trkpt lat="43.862417278287616" lon="6.290388667815028"><ele>1201.0</ele><time>2026-04-07T15:29:58.999Z</time></trkpt><trkpt lat="43.86235963961834" lon="6.290453040375254"><ele>1202.0</ele><time>2026-04-07T15:29:59.999Z</time></trkpt><trkpt lat="43.86230647184433" lon="6.290516527941471"><ele>1203.0</ele><time>2026-04-07T15:30:00.999Z</time></trkpt><trkpt lat="43.86225686109132" lon="6.290575767692792"><ele>1204.0</ele><time>2026-04-07T15:30:01.999Z</time></trkpt><trkpt lat="43.86217998152171" lon="6.290667568799476"><ele>1205.0</ele><time>2026-04-07T15:30:02.999Z</time></trkpt><trkpt lat="43.86210926232477" lon="6.290742893026076"><ele>1206.0</ele><time>2026-04-07T15:30:03.999Z</time></trkpt><trkpt lat="43.86201053813175" lon="6.290807871550296"><ele>1206.0</ele><time>2026-04-07T15:30:04.999Z</time></trkpt><trkpt lat="43.86195188756276" lon="6.290897630957758"><ele>1206.0</ele><time>2026-04-07T15:30:05.999Z</time></trkpt><trkpt lat="43.861890573432326" lon="6.290945797037462"><ele>1206.0</ele><time>2026-04-07T15:30:06.999Z</time></trkpt><trkpt lat="43.861834071765536" lon="6.2910254696500765"><ele>1206.0</ele><time>2026-04-07T15:30:07.999Z</time></trkpt><trkpt lat="43.86177079128639" lon="6.2911019129174335"><ele>1206.0</ele><time>2026-04-07T15:30:08.999Z</time></trkpt><trkpt lat="43.861731520628034" lon="6.291186027384795"><ele>1206.0</ele><time>2026-04-07T15:30:09.999Z</time></trkpt><trkpt lat="43.86165708876594" lon="6.291224607792725"><ele>1210.3333333333333</ele><time>2026-04-07T15:30:10.999Z</time></trkpt><trkpt lat="43.86159496326515" lon="6.2912665371837635"><ele>1214.6666666666667</ele><time>2026-04-07T15:30:11.999Z</time></trkpt><trkpt lat="43.8614877553313" lon="6.2912842510053855"><ele>1219.0</ele><time>2026-04-07T15:30:13.999Z</time></trkpt><trkpt lat="43.861386008398405" lon="6.291192244030274"><ele>1223.3333333333335</ele><time>2026-04-07T15:30:15.999Z</time></trkpt><trkpt lat="43.86133048080601" lon="6.291141220189524"><ele>1227.6666666666667</ele><time>2026-04-07T15:30:16.999Z</time></trkpt><trkpt lat="43.86128325150741" lon="6.291066256839566"><ele>1232.0</ele><time>2026-04-07T15:30:17.999Z</time></trkpt><trkpt lat="43.86123759565052" lon="6.290976968175057"><ele>1232.0</ele><time>2026-04-07T15:30:18.999Z</time></trkpt><trkpt lat="43.861190262393116" lon="6.290888594561844"><ele>1232.0</ele><time>2026-04-07T15:30:19.999Z</time></trkpt><trkpt lat="43.86110946881149" lon="6.290789903417564"><ele>1232.0</ele><time>2026-04-07T15:30:21.999Z</time></trkpt><trkpt lat="43.86104677544743" lon="6.2907771556619565"><ele>1232.0</ele><time>2026-04-07T15:30:22.999Z</time></trkpt><trkpt lat="43.86094470745443" lon="6.2908502198696805"><ele>1232.0</ele><time>2026-04-07T15:30:24.999Z</time></trkpt><trkpt lat="43.86095355705649" lon="6.291018706279169"><ele>1232.0</ele><time>2026-04-07T15:30:26.999Z</time></trkpt><trkpt lat="43.860967506476186" lon="6.291116782107621"><ele>1232.0</ele><time>2026-04-07T15:30:27.999Z</time></trkpt><trkpt lat="43.860989007797784" lon="6.291225365521292"><ele>1232.0</ele><time>2026-04-07T15:30:28.999Z</time></trkpt><trkpt lat="43.86097522204704" lon="6.291338152542155"><ele>1232.0</ele><time>2026-04-07T15:30:29.999Z</time></trkpt><trkpt lat="43.86096174460156" lon="6.291446051776143"><ele>1232.0</ele><time>2026-04-07T15:30:30.999Z</time></trkpt><trkpt lat="43.86094576670998" lon="6.291535918538848"><ele>1232.0</ele><time>2026-04-07T15:30:31.999Z</time></trkpt><trkpt lat="43.860917555838974" lon="6.291629358575345"><ele>1231.6666666666667</ele><time>2026-04-07T15:30:32.999Z</time></trkpt><trkpt lat="43.86087894566303" lon="6.291728584455156"><ele>1231.3333333333335</ele><time>2026-04-07T15:30:33.999Z</time></trkpt><trkpt lat="43.860791943877175" lon="6.2917844171133455"><ele>1231.0</ele><time>2026-04-07T15:30:34.999Z</time></trkpt><trkpt lat="43.86071323369005" lon="6.291827246166872"><ele>1230.6666666666667</ele><time>2026-04-07T15:30:35.999Z</time></trkpt><trkpt lat="43.860641666004014" lon="6.291857090094064"><ele>1230.3333333333333</ele><time>2026-04-07T15:30:36.999Z</time></trkpt><trkpt lat="43.8605582302412" lon="6.29188154550432"><ele>1230.0</ele><time>2026-04-07T15:30:37.999Z</time></trkpt><trkpt lat="43.860493000235785" lon="6.291878166581329"><ele>1230.0</ele><time>2026-04-07T15:30:38.999Z</time></trkpt><trkpt lat="43.86042804961288" lon="6.291865214375269"><ele>1230.0</ele><time>2026-04-07T15:30:39.999Z</time></trkpt><trkpt lat="43.860359989669114" lon="6.291828082301978"><ele>1230.0</ele><time>2026-04-07T15:30:40.999Z</time></trkpt><trkpt lat="43.86030194820834" lon="6.291778225461947"><ele>1230.0</ele><time>2026-04-07T15:30:41.999Z</time></trkpt><trkpt lat="43.86024257731812" lon="6.291717403501712"><ele>1230.0</ele><time>2026-04-07T15:30:42.999Z</time></trkpt><trkpt lat="43.86018265973507" lon="6.291653002756855"><ele>1230.0</ele><time>2026-04-07T15:30:43.999Z</time></trkpt><trkpt lat="43.8601169721034" lon="6.2915758950171945"><ele>1230.0</ele><time>2026-04-07T15:30:44.999Z</time></trkpt><trkpt lat="43.86005406186219" lon="6.291487197147556"><ele>1234.6666666666667</ele><time>2026-04-07T15:30:46Z</time></trkpt><trkpt lat="43.86000743476179" lon="6.291391086617137"><ele>1239.3333333333333</ele><time>2026-04-07T15:30:47Z</time></trkpt><trkpt lat="43.859961341594996" lon="6.291319726012365"><ele>1244.0</ele><time>2026-04-07T15:30:48Z</time></trkpt><trkpt lat="43.859898241083364" lon="6.291253733276802"><ele>1248.6666666666665</ele><time>2026-04-07T15:30:49Z</time></trkpt><trkpt lat="43.85980580726212" lon="6.291208513471795"><ele>1253.3333333333333</ele><time>2026-04-07T15:30:50Z</time></trkpt><trkpt lat="43.85968655243523" lon="6.291196505446081"><ele>1258.0</ele><time>2026-04-07T15:30:51Z</time></trkpt><trkpt lat="43.859555341229765" lon="6.291194876865759"><ele>1258.0</ele><time>2026-04-07T15:30:52Z</time></trkpt><trkpt lat="43.859416134276486" lon="6.291211877478846"><ele>1258.0</ele><time>2026-04-07T15:30:53Z</time></trkpt><trkpt lat="43.859284793437105" lon="6.2912474811889885"><ele>1258.0</ele><time>2026-04-07T15:30:54Z</time></trkpt><trkpt lat="43.85915364479091" lon="6.291291379476359"><ele>1258.0</ele><time>2026-04-07T15:30:55Z</time></trkpt><trkpt lat="43.859044604243735" lon="6.291320522236606"><ele>1256.5</ele><time>2026-04-07T15:30:56Z</time></trkpt><trkpt lat="43.858965304798566" lon="6.291340754300654"><ele>1255.0</ele><time>2026-04-07T15:30:57Z</time></trkpt><trkpt lat="43.85889935823336" lon="6.2913705136815254"><ele>1253.5</ele><time>2026-04-07T15:30:58Z</time></trkpt><trkpt lat="43.858848274404316" lon="6.291446231497521"><ele>1252.0</ele><time>2026-04-07T15:30:59Z</time></trkpt><trkpt lat="43.8588304283103" lon="6.291556950576288"><ele>1250.5</ele><time>2026-04-07T15:31:00Z</time></trkpt><trkpt lat="43.85886096968948" lon="6.291671244170677"><ele>1249.0</ele><time>2026-04-07T15:31:01Z</time></trkpt><trkpt lat="43.85886307339721" lon="6.291765011732704"><ele>1249.0</ele><time>2026-04-07T15:31:02Z</time></trkpt><trkpt lat="43.85886727860851" lon="6.291892918935149"><ele>1249.0</ele><time>2026-04-07T15:31:03Z</time></trkpt><trkpt lat="43.85884672706998" lon="6.292023977980663"><ele>1249.0</ele><time>2026-04-07T15:31:04Z</time></trkpt><trkpt lat="43.85883670234431" lon="6.292151136953862"><ele>1249.0</ele><time>2026-04-07T15:31:05Z</time></trkpt><trkpt lat="43.858857732787754" lon="6.292268451122789"><ele>1249.0</ele><time>2026-04-07T15:31:06Z</time></trkpt><trkpt lat="43.85895930215931" lon="6.292359989597074"><ele>1249.4</ele><time>2026-04-07T15:31:07Z</time></trkpt><trkpt lat="43.859032727397874" lon="6.292466311820321"><ele>1249.8000000000002</ele><time>2026-04-07T15:31:08Z</time></trkpt><trkpt lat="43.85907696730545" lon="6.292567937853537"><ele>1250.1999999999998</ele><time>2026-04-07T15:31:09Z</time></trkpt><trkpt lat="43.85904458407019" lon="6.292701307538103"><ele>1250.6</ele><time>2026-04-07T15:31:11Z</time></trkpt><trkpt lat="43.85894772734054" lon="6.2927855555087095"><ele>1251.0</ele><time>2026-04-07T15:31:13Z</time></trkpt><trkpt lat="43.858855383032115" lon="6.292757263731217"><ele>1251.0</ele><time>2026-04-07T15:31:14Z</time></trkpt><trkpt lat="43.85874057761636" lon="6.292750076582441"><ele>1251.0</ele><time>2026-04-07T15:31:15Z</time></trkpt><trkpt lat="43.858611607313705" lon="6.292720764235788"><ele>1251.0</ele><time>2026-04-07T15:31:16Z</time></trkpt><trkpt lat="43.85848284402446" lon="6.292695110920133"><ele>1251.0</ele><time>2026-04-07T15:31:17Z</time></trkpt><trkpt lat="43.858385320208676" lon="6.292705831591841"><ele>1252.5</ele><time>2026-04-07T15:31:18Z</time></trkpt><trkpt lat="43.85828742227701" lon="6.292716718064986"><ele>1254.0</ele><time>2026-04-07T15:31:19Z</time></trkpt><trkpt lat="43.858201213685625" lon="6.292774647593966"><ele>1255.5</ele><time>2026-04-07T15:31:20Z</time></trkpt><trkpt lat="43.85813256976943" lon="6.292847896320302"><ele>1257.0</ele><time>2026-04-07T15:31:21Z</time></trkpt><trkpt lat="43.85807592790426" lon="6.2929009761617465"><ele>1258.5</ele><time>2026-04-07T15:31:22Z</time></trkpt><trkpt lat="43.85808806987489" lon="6.293030959690666"><ele>1260.0</ele><time>2026-04-07T15:31:23Z</time></trkpt><trkpt lat="43.85810986122617" lon="6.293135989951346"><ele>1260.0</ele><time>2026-04-07T15:31:24Z</time></trkpt><trkpt lat="43.85813998126119" lon="6.293224751055994"><ele>1260.0</ele><time>2026-04-07T15:31:25Z</time></trkpt><trkpt lat="43.85812073117217" lon="6.29338179599878"><ele>1260.0</ele><time>2026-04-07T15:31:27Z</time></trkpt><trkpt lat="43.8580598880313" lon="6.293447246980639"><ele>1260.0</ele><time>2026-04-07T15:31:28Z</time></trkpt><trkpt lat="43.85797654143833" lon="6.293463824546726"><ele>1260.0</ele><time>2026-04-07T15:31:29Z</time></trkpt><trkpt lat="43.85788387388147" lon="6.2935445012773945"><ele>1260.0</ele><time>2026-04-07T15:31:30Z</time></trkpt><trkpt lat="43.85775897478298" lon="6.293634966652374"><ele>1260.0</ele><time>2026-04-07T15:31:31Z</time></trkpt><trkpt lat="43.8576232016181" lon="6.293736306651288"><ele>1260.0</ele><time>2026-04-07T15:31:32Z</time></trkpt><trkpt lat="43.857477532416844" lon="6.293805785349352"><ele>1260.0</ele><time>2026-04-07T15:31:33Z</time></trkpt><trkpt lat="43.85736339273581" lon="6.293843419231989"><ele>1262.8</ele><time>2026-04-07T15:31:34Z</time></trkpt><trkpt lat="43.8572705986086" lon="6.293889723414606"><ele>1265.6</ele><time>2026-04-07T15:31:34.999Z</time></trkpt><trkpt lat="43.85719160509973" lon="6.293988087374629"><ele>1268.4</ele><time>2026-04-07T15:31:35.999Z</time></trkpt><trkpt lat="43.85716615233523" lon="6.294154498808015"><ele>1271.2</ele><time>2026-04-07T15:31:36.999Z</time></trkpt><trkpt lat="43.85713639083148" lon="6.294310746029639"><ele>1274.0</ele><time>2026-04-07T15:31:37.999Z</time></trkpt><trkpt lat="43.85711073547754" lon="6.294455679162252"><ele>1274.0</ele><time>2026-04-07T15:31:38.999Z</time></trkpt><trkpt lat="43.857054651906466" lon="6.294536083513498"><ele>1274.0</ele><time>2026-04-07T15:31:39.999Z</time></trkpt><trkpt lat="43.85697414461021" lon="6.294611645005928"><ele>1274.0</ele><time>2026-04-07T15:31:40.999Z</time></trkpt><trkpt lat="43.85688624173922" lon="6.2947245707176425"><ele>1274.0</ele><time>2026-04-07T15:31:41.999Z</time></trkpt><trkpt lat="43.85677982845077" lon="6.294818604028218"><ele>1274.0</ele><time>2026-04-07T15:31:42.999Z</time></trkpt><trkpt lat="43.85665469654042" lon="6.294927754792425"><ele>1278.6666666666667</ele><time>2026-04-07T15:31:43.999Z</time></trkpt><trkpt lat="43.856512489264226" lon="6.295065122028059"><ele>1283.3333333333333</ele><time>2026-04-07T15:31:44.999Z</time></trkpt><trkpt lat="43.8563589248052" lon="6.29519347108145"><ele>1288.0</ele><time>2026-04-07T15:31:45.999Z</time></trkpt><trkpt lat="43.85619637409604" lon="6.295357563033454"><ele>1288.0</ele><time>2026-04-07T15:31:46.999Z</time></trkpt><trkpt lat="43.8560485488355" lon="6.295510100074879"><ele>1288.0</ele><time>2026-04-07T15:31:47.999Z</time></trkpt><trkpt lat="43.85592222363482" lon="6.2956529441029465"><ele>1288.0</ele><time>2026-04-07T15:31:48.999Z</time></trkpt><trkpt lat="43.85579511425715" lon="6.295793466992955"><ele>1288.0</ele><time>2026-04-07T15:31:49.999Z</time></trkpt><trkpt lat="43.85567809922712" lon="6.2959041433119625"><ele>1288.0</ele><time>2026-04-07T15:31:50.999Z</time></trkpt><trkpt lat="43.85556435189442" lon="6.296014234157752"><ele>1288.0</ele><time>2026-04-07T15:31:51.999Z</time></trkpt><trkpt lat="43.855448300276734" lon="6.296099133996765"><ele>1288.0</ele><time>2026-04-07T15:31:52.999Z</time></trkpt><trkpt lat="43.855360942253256" lon="6.296158145693677"><ele>1288.0</ele><time>2026-04-07T15:31:53.999Z</time></trkpt><trkpt lat="43.85527137718613" lon="6.296162679174567"><ele>1288.0</ele><time>2026-04-07T15:31:54.999Z</time></trkpt><trkpt lat="43.855158084978704" lon="6.296158393694885"><ele>1288.0</ele><time>2026-04-07T15:31:55.999Z</time></trkpt><trkpt lat="43.85501585216304" lon="6.296162609487773"><ele>1288.0</ele><time>2026-04-07T15:31:56.999Z</time></trkpt><trkpt lat="43.85488695685683" lon="6.296216987354064"><ele>1291.5</ele><time>2026-04-07T15:31:57.999Z</time></trkpt><trkpt lat="43.854764495556445" lon="6.296242124582256"><ele>1295.0</ele><time>2026-04-07T15:31:58.999Z</time></trkpt><trkpt lat="43.85464942913089" lon="6.296260339491428"><ele>1298.5</ele><time>2026-04-07T15:31:59.999Z</time></trkpt><trkpt lat="43.85453305965183" lon="6.296276779070179"><ele>1302.0</ele><time>2026-04-07T15:32:00.999Z</time></trkpt><trkpt lat="43.85440200160216" lon="6.296298074057222"><ele>1302.5</ele><time>2026-04-07T15:32:01.999Z</time></trkpt><trkpt lat="43.8542643680024" lon="6.296339372069578"><ele>1303.0</ele><time>2026-04-07T15:32:02.999Z</time></trkpt><trkpt lat="43.854123840828755" lon="6.29639746680426"><ele>1303.5</ele><time>2026-04-07T15:32:03.999Z</time></trkpt><trkpt lat="43.8540183321803" lon="6.296448883702925"><ele>1304.0</ele><time>2026-04-07T15:32:04.999Z</time></trkpt><trkpt lat="43.85390637636076" lon="6.296520718102461"><ele>1298.75</ele><time>2026-04-07T15:32:05.999Z</time></trkpt><trkpt lat="43.853808702101624" lon="6.296616049596226"><ele>1293.5</ele><time>2026-04-07T15:32:06.999Z</time></trkpt><trkpt lat="43.8537184521431" lon="6.296734674004964"><ele>1288.25</ele><time>2026-04-07T15:32:07.999Z</time></trkpt><trkpt lat="43.85364479467591" lon="6.296875029141713"><ele>1283.0</ele><time>2026-04-07T15:32:08.999Z</time></trkpt><trkpt lat="43.85356622436572" lon="6.29697330372833"><ele>1283.0</ele><time>2026-04-07T15:32:09.999Z</time></trkpt><trkpt lat="43.85350664166903" lon="6.2970780960243955"><ele>1283.0</ele><time>2026-04-07T15:32:10.999Z</time></trkpt><trkpt lat="43.85343543157147" lon="6.297162540704503"><ele>1283.0</ele><time>2026-04-07T15:32:11.999Z</time></trkpt><trkpt lat="43.85337810648952" lon="6.297235224947422"><ele>1283.0</ele><time>2026-04-07T15:32:12.999Z</time></trkpt><trkpt lat="43.853323231535185" lon="6.297312084462882"><ele>1283.0</ele><time>2026-04-07T15:32:13.999Z</time></trkpt><trkpt lat="43.85326664868672" lon="6.297362590184964"><ele>1283.0</ele><time>2026-04-07T15:32:14.999Z</time></trkpt><trkpt lat="43.85322368364232" lon="6.297437156584741"><ele>1283.5</ele><time>2026-04-07T15:32:15.999Z</time></trkpt><trkpt lat="43.85309609634487" lon="6.2975389795068395"><ele>1284.0</ele><time>2026-04-07T15:32:17.999Z</time></trkpt><trkpt lat="43.853010558304526" lon="6.297603336834387"><ele>1284.5</ele><time>2026-04-07T15:32:18.999Z</time></trkpt><trkpt lat="43.85291825195627" lon="6.297664497303298"><ele>1285.0</ele><time>2026-04-07T15:32:19.999Z</time></trkpt><trkpt lat="43.85282253034399" lon="6.297726089652565"><ele>1285.0</ele><time>2026-04-07T15:32:20.999Z</time></trkpt><trkpt lat="43.85271980141854" lon="6.297789296537942"><ele>1285.0</ele><time>2026-04-07T15:32:21.999Z</time></trkpt><trkpt lat="43.85261570641117" lon="6.297868608596724"><ele>1285.0</ele><time>2026-04-07T15:32:22.999Z</time></trkpt><trkpt lat="43.85252448759891" lon="6.297942395432285"><ele>1285.0</ele><time>2026-04-07T15:32:23.999Z</time></trkpt><trkpt lat="43.852432911549165" lon="6.298012312367308"><ele>1285.0</ele><time>2026-04-07T15:32:24.999Z</time></trkpt><trkpt lat="43.85233371583884" lon="6.298082248404889"><ele>1285.8</ele><time>2026-04-07T15:32:25.999Z</time></trkpt><trkpt lat="43.852241241454585" lon="6.298142167139776"><ele>1286.6</ele><time>2026-04-07T15:32:26.999Z</time></trkpt><trkpt lat="43.852156186378146" lon="6.2982184577116715"><ele>1287.4</ele><time>2026-04-07T15:32:27.999Z</time></trkpt><trkpt lat="43.852094980277" lon="6.298308651524905"><ele>1288.2</ele><time>2026-04-07T15:32:28.999Z</time></trkpt><trkpt lat="43.85204462799981" lon="6.2983893423464075"><ele>1289.0</ele><time>2026-04-07T15:32:29.999Z</time></trkpt><trkpt lat="43.85205219978645" lon="6.298511278787296"><ele>1289.0</ele><time>2026-04-07T15:32:30.999Z</time></trkpt><trkpt lat="43.85205873545961" lon="6.298630418803195"><ele>1289.0</ele><time>2026-04-07T15:32:31.999Z</time></trkpt><trkpt lat="43.85207612956678" lon="6.2987899059929555"><ele>1289.0</ele><time>2026-04-07T15:32:32.999Z</time></trkpt><trkpt lat="43.85209819714415" lon="6.298966532952125"><ele>1289.0</ele><time>2026-04-07T15:32:33.999Z</time></trkpt><trkpt lat="43.85210234997861" lon="6.29913294125729"><ele>1289.8000000000002</ele><time>2026-04-07T15:32:34.999Z</time></trkpt><trkpt lat="43.85208281769899" lon="6.299284450444379"><ele>1290.6000000000001</ele><time>2026-04-07T15:32:35.999Z</time></trkpt><trkpt lat="43.8520736716303" lon="6.299421073517098"><ele>1291.4</ele><time>2026-04-07T15:32:36.999Z</time></trkpt><trkpt lat="43.85205321694291" lon="6.2995195632245835"><ele>1292.2</ele><time>2026-04-07T15:32:37.999Z</time></trkpt><trkpt lat="43.852018201809955" lon="6.2996021490727205"><ele>1293.0</ele><time>2026-04-07T15:32:38.999Z</time></trkpt><trkpt lat="43.85190629759431" lon="6.299611771608132"><ele>1293.0</ele><time>2026-04-07T15:32:39.999Z</time></trkpt><trkpt lat="43.8518102431664" lon="6.299645920107886"><ele>1293.0</ele><time>2026-04-07T15:32:40.999Z</time></trkpt><trkpt lat="43.85170393760832" lon="6.299693236492281"><ele>1293.0</ele><time>2026-04-07T15:32:41.999Z</time></trkpt><trkpt lat="43.851602978081274" lon="6.299738055181186"><ele>1293.0</ele><time>2026-04-07T15:32:42.999Z</time></trkpt><trkpt lat="43.851491807335044" lon="6.299791709026088"><ele>1293.0</ele><time>2026-04-07T15:32:43.999Z</time></trkpt><trkpt lat="43.85138781183469" lon="6.299860130132745"><ele>1291.8000000000002</ele><time>2026-04-07T15:32:44.999Z</time></trkpt><trkpt lat="43.85129772251195" lon="6.299953111750966"><ele>1290.6</ele><time>2026-04-07T15:32:45.999Z</time></trkpt><trkpt lat="43.85121172896849" lon="6.300013876008634"><ele>1289.4</ele><time>2026-04-07T15:32:46.999Z</time></trkpt><trkpt lat="43.85113385483634" lon="6.300089636256391"><ele>1288.1999999999998</ele><time>2026-04-07T15:32:47.999Z</time></trkpt><trkpt lat="43.85106331919793" lon="6.300140264828966"><ele>1287.0</ele><time>2026-04-07T15:32:48.999Z</time></trkpt><trkpt lat="43.85099278737825" lon="6.300164714565607"><ele>1286.0</ele><time>2026-04-07T15:32:49.999Z</time></trkpt><trkpt lat="43.850912702467895" lon="6.300129534502127"><ele>1285.0</ele><time>2026-04-07T15:32:50.999Z</time></trkpt><trkpt lat="43.85080476095727" lon="6.300128449960102"><ele>1284.0</ele><time>2026-04-07T15:32:52Z</time></trkpt><trkpt lat="43.850696677913774" lon="6.300124379060954"><ele>1283.0</ele><time>2026-04-07T15:32:53Z</time></trkpt><trkpt lat="43.850584664984986" lon="6.3001581864119585"><ele>1282.0</ele><time>2026-04-07T15:32:54Z</time></trkpt><trkpt lat="43.85046661751777" lon="6.300213154100565"><ele>1282.0</ele><time>2026-04-07T15:32:55Z</time></trkpt><trkpt lat="43.85033513591029" lon="6.3002472766323905"><ele>1282.0</ele><time>2026-04-07T15:32:56Z</time></trkpt><trkpt lat="43.85021381518481" lon="6.300287111040634"><ele>1282.0</ele><time>2026-04-07T15:32:57Z</time></trkpt><trkpt lat="43.85010465183844" lon="6.3003192732087925"><ele>1282.0</ele><time>2026-04-07T15:32:58Z</time></trkpt><trkpt lat="43.8500116110042" lon="6.300361720632026"><ele>1283.0</ele><time>2026-04-07T15:32:59Z</time></trkpt><trkpt lat="43.84993041032511" lon="6.300415267068032"><ele>1284.0</ele><time>2026-04-07T15:33:00Z</time></trkpt><trkpt lat="43.84986717872089" lon="6.300493525795022"><ele>1285.0</ele><time>2026-04-07T15:33:01Z</time></trkpt><trkpt lat="43.84980864115205" lon="6.3006059954904385"><ele>1286.0</ele><time>2026-04-07T15:33:02Z</time></trkpt><trkpt lat="43.849767081909526" lon="6.3007359056122025"><ele>1287.0</ele><time>2026-04-07T15:33:03Z</time></trkpt><trkpt lat="43.849723183072314" lon="6.300895382775891"><ele>1288.25</ele><time>2026-04-07T15:33:04Z</time></trkpt><trkpt lat="43.84967397964612" lon="6.301061677834735"><ele>1289.5</ele><time>2026-04-07T15:33:05Z</time></trkpt><trkpt lat="43.84962098229471" lon="6.301223030258146"><ele>1290.75</ele><time>2026-04-07T15:33:06Z</time></trkpt><trkpt lat="43.84955665920313" lon="6.301397845325523"><ele>1292.0</ele><time>2026-04-07T15:33:07Z</time></trkpt><trkpt lat="43.84948835510807" lon="6.301573978883563"><ele>1294.3333333333335</ele><time>2026-04-07T15:33:08Z</time></trkpt><trkpt lat="43.849421913108976" lon="6.30176562016457"><ele>1296.6666666666667</ele><time>2026-04-07T15:33:09Z</time></trkpt><trkpt lat="43.84933689965951" lon="6.301958256298336"><ele>1299.0</ele><time>2026-04-07T15:33:10Z</time></trkpt><trkpt lat="43.84925421337287" lon="6.302141357039561"><ele>1297.0</ele><time>2026-04-07T15:33:11Z</time></trkpt><trkpt lat="43.84916974896292" lon="6.302304011718801"><ele>1295.0</ele><time>2026-04-07T15:33:12Z</time></trkpt><trkpt lat="43.84908064910826" lon="6.302471516560828"><ele>1293.0</ele><time>2026-04-07T15:33:13Z</time></trkpt><trkpt lat="43.84900519929018" lon="6.302640681662757"><ele>1291.0</ele><time>2026-04-07T15:33:14Z</time></trkpt><trkpt lat="43.84893201726739" lon="6.302824970170246"><ele>1291.0</ele><time>2026-04-07T15:33:15Z</time></trkpt><trkpt lat="43.848878353230496" lon="6.303003246725483"><ele>1291.0</ele><time>2026-04-07T15:33:16Z</time></trkpt><trkpt lat="43.848825241969536" lon="6.303176106728772"><ele>1291.0</ele><time>2026-04-07T15:33:17Z</time></trkpt><trkpt lat="43.84877701903295" lon="6.303332299391686"><ele>1291.0</ele><time>2026-04-07T15:33:18Z</time></trkpt><trkpt lat="43.84871746192391" lon="6.303480238982165"><ele>1291.0</ele><time>2026-04-07T15:33:19Z</time></trkpt><trkpt lat="43.84864796553635" lon="6.303624765105133"><ele>1291.0</ele><time>2026-04-07T15:33:20Z</time></trkpt><trkpt lat="43.848562553425275" lon="6.303758482241226"><ele>1291.0</ele><time>2026-04-07T15:33:21Z</time></trkpt><trkpt lat="43.84845479672734" lon="6.3038790654035655"><ele>1291.0</ele><time>2026-04-07T15:33:22Z</time></trkpt><trkpt lat="43.84834220400795" lon="6.304015134820658"><ele>1291.0</ele><time>2026-04-07T15:33:23Z</time></trkpt><trkpt lat="43.84823750911806" lon="6.3041444413709105"><ele>1291.0</ele><time>2026-04-07T15:33:24Z</time></trkpt><trkpt lat="43.84813574919369" lon="6.3042909794574165"><ele>1291.0</ele><time>2026-04-07T15:33:25Z</time></trkpt><trkpt lat="43.84804486191004" lon="6.304435265591114"><ele>1291.0</ele><time>2026-04-07T15:33:26Z</time></trkpt><trkpt lat="43.847966324747404" lon="6.304568766728883"><ele>1291.0</ele><time>2026-04-07T15:33:27Z</time></trkpt><trkpt lat="43.847893987291265" lon="6.304703632597997"><ele>1291.0</ele><time>2026-04-07T15:33:28Z</time></trkpt><trkpt lat="43.84783531101928" lon="6.304841192343927"><ele>1291.0</ele><time>2026-04-07T15:33:29Z</time></trkpt><trkpt lat="43.84779279343924" lon="6.304980035595666"><ele>1291.0</ele><time>2026-04-07T15:33:30Z</time></trkpt><trkpt lat="43.84775247629087" lon="6.305131766552518"><ele>1290.75</ele><time>2026-04-07T15:33:31Z</time></trkpt><trkpt lat="43.84770724565578" lon="6.3052458939313345"><ele>1290.5</ele><time>2026-04-07T15:33:32Z</time></trkpt><trkpt lat="43.84765338673799" lon="6.3053866344029625"><ele>1290.25</ele><time>2026-04-07T15:33:32.999Z</time></trkpt><trkpt lat="43.84757623076417" lon="6.3055408400316"><ele>1290.0</ele><time>2026-04-07T15:33:33.999Z</time></trkpt><trkpt lat="43.84747671428931" lon="6.305627829937266"><ele>1287.75</ele><time>2026-04-07T15:33:34.999Z</time></trkpt><trkpt lat="43.84736567384524" lon="6.305729459224765"><ele>1285.5</ele><time>2026-04-07T15:33:35.999Z</time></trkpt><trkpt lat="43.847246640114406" lon="6.3058429660726585"><ele>1283.25</ele><time>2026-04-07T15:33:36.999Z</time></trkpt><trkpt lat="43.84713402854471" lon="6.306000991636999"><ele>1281.0</ele><time>2026-04-07T15:33:37.999Z</time></trkpt><trkpt lat="43.847030550192116" lon="6.306158388197614"><ele>1281.0</ele><time>2026-04-07T15:33:38.999Z</time></trkpt><trkpt lat="43.84693619563239" lon="6.306314530207864"><ele>1281.0</ele><time>2026-04-07T15:33:39.999Z</time></trkpt><trkpt lat="43.84684226640522" lon="6.3064588057327216"><ele>1281.0</ele><time>2026-04-07T15:33:40.999Z</time></trkpt><trkpt lat="43.846761781935726" lon="6.306585295492057"><ele>1281.0</ele><time>2026-04-07T15:33:41.999Z</time></trkpt><trkpt lat="43.84665981516042" lon="6.306674891417421"><ele>1280.3999999999999</ele><time>2026-04-07T15:33:42.999Z</time></trkpt><trkpt lat="43.846562270931834" lon="6.306755001111468"><ele>1279.8</ele><time>2026-04-07T15:33:43.999Z</time></trkpt><trkpt lat="43.846481618973236" lon="6.306798965098866"><ele>1279.1999999999998</ele><time>2026-04-07T15:33:44.999Z</time></trkpt><trkpt lat="43.84640878307094" lon="6.306843490380868"><ele>1278.6</ele><time>2026-04-07T15:33:45.999Z</time></trkpt><trkpt lat="43.84631343202873" lon="6.306911587615016"><ele>1278.0</ele><time>2026-04-07T15:33:47.999Z</time></trkpt><trkpt lat="43.846311686580684" lon="6.307012405546279"><ele>1278.0</ele><time>2026-04-07T15:33:49.999Z</time></trkpt><trkpt lat="43.8463707886342" lon="6.307058751840262"><ele>1278.0</ele><time>2026-04-07T15:33:51.999Z</time></trkpt><trkpt lat="43.84648622576779" lon="6.307054916632313"><ele>1278.0</ele><time>2026-04-07T15:33:53.999Z</time></trkpt><trkpt lat="43.84655468187193" lon="6.307029102922493"><ele>1278.0</ele><time>2026-04-07T15:33:54.999Z</time></trkpt><trkpt lat="43.84663055831173" lon="6.306993753768375"><ele>1278.0</ele><time>2026-04-07T15:33:55.999Z</time></trkpt><trkpt lat="43.8467181938404" lon="6.306955303810962"><ele>1278.0</ele><time>2026-04-07T15:33:56.999Z</time></trkpt><trkpt lat="43.84681823565419" lon="6.306903576864995"><ele>1275.2</ele><time>2026-04-07T15:33:57.999Z</time></trkpt><trkpt lat="43.84691220500313" lon="6.3068594636207465"><ele>1272.4</ele><time>2026-04-07T15:33:58.999Z</time></trkpt><trkpt lat="43.84699569058825" lon="6.306790573243494"><ele>1269.6000000000001</ele><time>2026-04-07T15:33:59.999Z</time></trkpt><trkpt lat="43.84707072733363" lon="6.306699915618495"><ele>1266.8</ele><time>2026-04-07T15:34:00.999Z</time></trkpt><trkpt lat="43.847165477130815" lon="6.306642473576342"><ele>1264.0</ele><time>2026-04-07T15:34:01.999Z</time></trkpt><trkpt lat="43.847249345859" lon="6.306572037095144"><ele>1264.0</ele><time>2026-04-07T15:34:02.999Z</time></trkpt><trkpt lat="43.847330203887935" lon="6.306523192816578"><ele>1264.0</ele><time>2026-04-07T15:34:03.999Z</time></trkpt><trkpt lat="43.847411054137794" lon="6.306478897203846"><ele>1264.0</ele><time>2026-04-07T15:34:04.999Z</time></trkpt><trkpt lat="43.84749243230539" lon="6.306421949729686"><ele>1264.0</ele><time>2026-04-07T15:34:05.999Z</time></trkpt><trkpt lat="43.8475789822625" lon="6.306382612571541"><ele>1264.0</ele><time>2026-04-07T15:34:06.999Z</time></trkpt><trkpt lat="43.84765942766057" lon="6.306331055074649"><ele>1264.0</ele><time>2026-04-07T15:34:07.999Z</time></trkpt><trkpt lat="43.8477378481123" lon="6.306297923391313"><ele>1264.0</ele><time>2026-04-07T15:34:08.999Z</time></trkpt><trkpt lat="43.84780626799783" lon="6.306261128657584"><ele>1264.0</ele><time>2026-04-07T15:34:09.999Z</time></trkpt><trkpt lat="43.84791900148002" lon="6.306235304361994"><ele>1264.0</ele><time>2026-04-07T15:34:11.999Z</time></trkpt><trkpt lat="43.84802832301046" lon="6.306283164343413"><ele>1264.0</ele><time>2026-04-07T15:34:13.999Z</time></trkpt><trkpt lat="43.84806663192537" lon="6.306352981196776"><ele>1264.0</ele><time>2026-04-07T15:34:14.999Z</time></trkpt><trkpt lat="43.848107260905444" lon="6.306447128925741"><ele>1264.0</ele><time>2026-04-07T15:34:15.999Z</time></trkpt><trkpt lat="43.848144401793675" lon="6.306525659369858"><ele>1264.0</ele><time>2026-04-07T15:34:16.999Z</time></trkpt><trkpt lat="43.848184201962695" lon="6.306610473230069"><ele>1264.0</ele><time>2026-04-07T15:34:17.999Z</time></trkpt><trkpt lat="43.84820482572864" lon="6.306697520301644"><ele>1264.0</ele><time>2026-04-07T15:34:18.999Z</time></trkpt><trkpt lat="43.84826078283395" lon="6.306837098068174"><ele>1264.0</ele><time>2026-04-07T15:34:20.999Z</time></trkpt><trkpt lat="43.84832922009916" lon="6.306876907012438"><ele>1264.0</ele><time>2026-04-07T15:34:21.999Z</time></trkpt><trkpt lat="43.848405073374565" lon="6.3068659201435135"><ele>1264.0</ele><time>2026-04-07T15:34:22.999Z</time></trkpt><trkpt lat="43.84847910339055" lon="6.306866145626595"><ele>1263.8</ele><time>2026-04-07T15:34:23.999Z</time></trkpt><trkpt lat="43.84860597056643" lon="6.306936957970004"><ele>1263.6000000000001</ele><time>2026-04-07T15:34:25.999Z</time></trkpt><trkpt lat="43.848645956360926" lon="6.307025917031924"><ele>1263.4</ele><time>2026-04-07T15:34:26.999Z</time></trkpt><trkpt lat="43.84870346641748" lon="6.307088894886712"><ele>1263.2</ele><time>2026-04-07T15:34:27.999Z</time></trkpt><trkpt lat="43.84875996212368" lon="6.307171342507698"><ele>1263.0</ele><time>2026-04-07T15:34:28.999Z</time></trkpt><trkpt lat="43.848821352639156" lon="6.307274308102261"><ele>1263.0</ele><time>2026-04-07T15:34:29.999Z</time></trkpt><trkpt lat="43.848891006675785" lon="6.307381789517347"><ele>1263.0</ele><time>2026-04-07T15:34:30.999Z</time></trkpt><trkpt lat="43.84895848432132" lon="6.307495234157115"><ele>1263.0</ele><time>2026-04-07T15:34:31.999Z</time></trkpt><trkpt lat="43.84902094878723" lon="6.307618884863897"><ele>1263.0</ele><time>2026-04-07T15:34:32.999Z</time></trkpt><trkpt lat="43.84908029711273" lon="6.307754224250616"><ele>1263.0</ele><time>2026-04-07T15:34:33.999Z</time></trkpt><trkpt lat="43.849129574079214" lon="6.307885763831745"><ele>1263.0</ele><time>2026-04-07T15:34:34.999Z</time></trkpt><trkpt lat="43.84917348907121" lon="6.308017732455655"><ele>1263.0</ele><time>2026-04-07T15:34:35.999Z</time></trkpt><trkpt lat="43.84921747595441" lon="6.30813894983205"><ele>1263.0</ele><time>2026-04-07T15:34:36.999Z</time></trkpt><trkpt lat="43.849252078263156" lon="6.3082603689310925"><ele>1263.0</ele><time>2026-04-07T15:34:37.999Z</time></trkpt><trkpt lat="43.8492900637718" lon="6.308389566717466"><ele>1263.0</ele><time>2026-04-07T15:34:38.999Z</time></trkpt><trkpt lat="43.8493205631934" lon="6.308503109019642"><ele>1264.8</ele><time>2026-04-07T15:34:39.999Z</time></trkpt><trkpt lat="43.84935771414614" lon="6.308628773848793"><ele>1266.6</ele><time>2026-04-07T15:34:40.999Z</time></trkpt><trkpt lat="43.84940037051017" lon="6.308751968725912"><ele>1268.4</ele><time>2026-04-07T15:34:41.999Z</time></trkpt><trkpt lat="43.84945986598271" lon="6.308874984536855"><ele>1270.2</ele><time>2026-04-07T15:34:42.999Z</time></trkpt><trkpt lat="43.849518888709156" lon="6.308981135860355"><ele>1272.0</ele><time>2026-04-07T15:34:43.999Z</time></trkpt><trkpt lat="43.84958851503706" lon="6.309082819086776"><ele>1269.0</ele><time>2026-04-07T15:34:44.999Z</time></trkpt><trkpt lat="43.84965943191538" lon="6.309149526877736"><ele>1266.0</ele><time>2026-04-07T15:34:45.999Z</time></trkpt><trkpt lat="43.849761422772914" lon="6.309207423039459"><ele>1263.0</ele><time>2026-04-07T15:34:47.999Z</time></trkpt><trkpt lat="43.849779750780804" lon="6.309339516447807"><ele>1260.0</ele><time>2026-04-07T15:34:50.999Z</time></trkpt><trkpt lat="43.84971112435571" lon="6.30933371180781"><ele>1257.0</ele><time>2026-04-07T15:34:51.999Z</time></trkpt><trkpt lat="43.849664466745615" lon="6.30927375759646"><ele>1254.0</ele><time>2026-04-07T15:34:52.999Z</time></trkpt><trkpt lat="43.849580448619854" lon="6.309248379145011"><ele>1254.0</ele><time>2026-04-07T15:34:53.999Z</time></trkpt><trkpt lat="43.84949601804246" lon="6.309189640688826"><ele>1254.0</ele><time>2026-04-07T15:34:54.999Z</time></trkpt><trkpt lat="43.84941259732368" lon="6.309144385371528"><ele>1254.0</ele><time>2026-04-07T15:34:55.999Z</time></trkpt><trkpt lat="43.84931724349751" lon="6.3091139287503495"><ele>1254.0</ele><time>2026-04-07T15:34:56.999Z</time></trkpt><trkpt lat="43.8492314286403" lon="6.309073126714463"><ele>1254.0</ele><time>2026-04-07T15:34:58Z</time></trkpt><trkpt lat="43.849159638454736" lon="6.309010557133099"><ele>1252.6000000000001</ele><time>2026-04-07T15:34:59Z</time></trkpt><trkpt lat="43.849100607789126" lon="6.30891644275546"><ele>1251.2</ele><time>2026-04-07T15:35:00Z</time></trkpt><trkpt lat="43.84902366639486" lon="6.308804742244205"><ele>1249.8000000000002</ele><time>2026-04-07T15:35:01Z</time></trkpt><trkpt lat="43.8489379738168" lon="6.308740431659752"><ele>1248.4</ele><time>2026-04-07T15:35:02Z</time></trkpt><trkpt lat="43.84886928176094" lon="6.308651562031735"><ele>1247.0</ele><time>2026-04-07T15:35:03Z</time></trkpt><trkpt lat="43.8487859645373" lon="6.308568162499187"><ele>1247.0</ele><time>2026-04-07T15:35:04Z</time></trkpt><trkpt lat="43.848701576293195" lon="6.308499451951401"><ele>1247.0</ele><time>2026-04-07T15:35:05Z</time></trkpt><trkpt lat="43.848615743620016" lon="6.308413799629792"><ele>1247.0</ele><time>2026-04-07T15:35:06Z</time></trkpt><trkpt lat="43.84853918334169" lon="6.308318831274219"><ele>1247.0</ele><time>2026-04-07T15:35:07Z</time></trkpt><trkpt lat="43.84845676782171" lon="6.308235316780404"><ele>1247.0</ele><time>2026-04-07T15:35:08Z</time></trkpt><trkpt lat="43.84838798064274" lon="6.308177369915293"><ele>1242.6</ele><time>2026-04-07T15:35:09Z</time></trkpt><trkpt lat="43.84833498318499" lon="6.308129895823478"><ele>1238.2</ele><time>2026-04-07T15:35:10Z</time></trkpt><trkpt lat="43.84825489752734" lon="6.308104350440123"><ele>1233.8</ele><time>2026-04-07T15:35:12Z</time></trkpt><trkpt lat="43.84820501898122" lon="6.3081992585582825"><ele>1229.4</ele><time>2026-04-07T15:35:14Z</time></trkpt><trkpt lat="43.848262158796516" lon="6.308332040043516"><ele>1225.0</ele><time>2026-04-07T15:35:16Z</time></trkpt><trkpt lat="43.8483758614651" lon="6.308419584729709"><ele>1225.0</ele><time>2026-04-07T15:35:18Z</time></trkpt><trkpt lat="43.84843136559023" lon="6.308514164660763"><ele>1225.0</ele><time>2026-04-07T15:35:19Z</time></trkpt><trkpt lat="43.84847668517721" lon="6.30859754247589"><ele>1225.0</ele><time>2026-04-07T15:35:20Z</time></trkpt><trkpt lat="43.848508678244905" lon="6.308712736581693"><ele>1225.0</ele><time>2026-04-07T15:35:21Z</time></trkpt><trkpt lat="43.84856016766649" lon="6.308846679229403"><ele>1225.0</ele><time>2026-04-07T15:35:22Z</time></trkpt><trkpt lat="43.84859937504441" lon="6.309007827446585"><ele>1226.8</ele><time>2026-04-07T15:35:23Z</time></trkpt><trkpt lat="43.848659838408324" lon="6.309160220883605"><ele>1228.6</ele><time>2026-04-07T15:35:24Z</time></trkpt><trkpt lat="43.848678808128206" lon="6.309277660530664"><ele>1230.4</ele><time>2026-04-07T15:35:25Z</time></trkpt><trkpt lat="43.84870821620017" lon="6.309411429831501"><ele>1232.2</ele><time>2026-04-07T15:35:25.999Z</time></trkpt><trkpt lat="43.84874298348878" lon="6.309524375995647"><ele>1234.0</ele><time>2026-04-07T15:35:26.999Z</time></trkpt><trkpt lat="43.84877778851077" lon="6.309613756303547"><ele>1234.0</ele><time>2026-04-07T15:35:27.999Z</time></trkpt><trkpt lat="43.84883761090416" lon="6.309692224447434"><ele>1234.0</ele><time>2026-04-07T15:35:28.999Z</time></trkpt><trkpt lat="43.84892338448562" lon="6.30978386896289"><ele>1234.0</ele><time>2026-04-07T15:35:29.999Z</time></trkpt><trkpt lat="43.84902806114457" lon="6.309881013204566"><ele>1234.0</ele><time>2026-04-07T15:35:30.999Z</time></trkpt><trkpt lat="43.84909109590227" lon="6.310001076447357"><ele>1234.0</ele><time>2026-04-07T15:35:31.999Z</time></trkpt><trkpt lat="43.849152242905355" lon="6.310101942519114"><ele>1233.8333333333333</ele><time>2026-04-07T15:35:32.999Z</time></trkpt><trkpt lat="43.849217502571555" lon="6.310182408957491"><ele>1233.6666666666665</ele><time>2026-04-07T15:35:33.999Z</time></trkpt><trkpt lat="43.84927161860736" lon="6.310276049465307"><ele>1233.5</ele><time>2026-04-07T15:35:35.999Z</time></trkpt><trkpt lat="43.849333460479414" lon="6.310310476769774"><ele>1233.3333333333333</ele><time>2026-04-07T15:53:53Z</time></trkpt><trkpt lat="43.849397239379634" lon="6.31030068454509"><ele>1233.1666666666667</ele><time>2026-04-07T15:54:12Z</time></trkpt><trkpt lat="43.849470640729876" lon="6.310322582488532"><ele>1233.0</ele><time>2026-04-07T15:54:14Z</time></trkpt><trkpt lat="43.849584801945475" lon="6.310398828118038"><ele>1233.0</ele><time>2026-04-07T15:54:16Z</time></trkpt><trkpt lat="43.84968739084236" lon="6.310476480341474"><ele>1233.0</ele><time>2026-04-07T15:54:18Z</time></trkpt><trkpt lat="43.849742730195835" lon="6.310532345855945"><ele>1233.0</ele><time>2026-04-07T15:54:19Z</time></trkpt><trkpt lat="43.84980403551848" lon="6.3105819982697415"><ele>1233.0</ele><time>2026-04-07T15:54:20Z</time></trkpt><trkpt lat="43.84988230803659" lon="6.3106453688174895"><ele>1233.0</ele><time>2026-04-07T15:54:21Z</time></trkpt><trkpt lat="43.84994666267395" lon="6.310686679277283"><ele>1233.0</ele><time>2026-04-07T15:54:22Z</time></trkpt><trkpt lat="43.850007542289205" lon="6.31074301703144"><ele>1230.0</ele><time>2026-04-07T15:54:23Z</time></trkpt><trkpt lat="43.85008573186347" lon="6.310855873260423"><ele>1227.0</ele><time>2026-04-07T15:54:25Z</time></trkpt><trkpt lat="43.8500634700231" lon="6.311009830171394"><ele>1224.0</ele><time>2026-04-07T15:54:27Z</time></trkpt><trkpt lat="43.85000838687865" lon="6.311056943405855"><ele>1221.0</ele><time>2026-04-07T15:54:28Z</time></trkpt><trkpt lat="43.84992787142654" lon="6.311042719070816"><ele>1218.0</ele><time>2026-04-07T15:54:29Z</time></trkpt><trkpt lat="43.84982189163048" lon="6.311070449111359"><ele>1218.0</ele><time>2026-04-07T15:54:30Z</time></trkpt><trkpt lat="43.8497184315299" lon="6.311089766423529"><ele>1218.0</ele><time>2026-04-07T15:54:31Z</time></trkpt><trkpt lat="43.84960081166515" lon="6.3111160905277925"><ele>1218.0</ele><time>2026-04-07T15:54:32Z</time></trkpt><trkpt lat="43.84949837864953" lon="6.311184009520185"><ele>1218.0</ele><time>2026-04-07T15:54:33Z</time></trkpt><trkpt lat="43.84940067765905" lon="6.311232331312561"><ele>1218.0</ele><time>2026-04-07T15:54:34Z</time></trkpt><trkpt lat="43.849342254558415" lon="6.311329609607688"><ele>1215.8</ele><time>2026-04-07T15:54:35Z</time></trkpt><trkpt lat="43.849290603566985" lon="6.311422015154833"><ele>1213.6</ele><time>2026-04-07T15:54:36Z</time></trkpt><trkpt lat="43.84924893417321" lon="6.311550959278009"><ele>1211.4</ele><time>2026-04-07T15:54:37Z</time></trkpt><trkpt lat="43.84921469575907" lon="6.311683317149188"><ele>1209.2</ele><time>2026-04-07T15:54:38Z</time></trkpt><trkpt lat="43.84918768620524" lon="6.311839071949831"><ele>1207.0</ele><time>2026-04-07T15:54:39Z</time></trkpt><trkpt lat="43.84917543430549" lon="6.312011356696853"><ele>1207.0</ele><time>2026-04-07T15:54:40Z</time></trkpt><trkpt lat="43.84916849904069" lon="6.31218530442541"><ele>1207.0</ele><time>2026-04-07T15:54:41Z</time></trkpt><trkpt lat="43.84915624896664" lon="6.3123482611621045"><ele>1207.0</ele><time>2026-04-07T15:54:42Z</time></trkpt><trkpt lat="43.84914529524889" lon="6.3125093603080495"><ele>1207.0</ele><time>2026-04-07T15:54:43Z</time></trkpt><trkpt lat="43.84912433044443" lon="6.3126306735071545"><ele>1207.8</ele><time>2026-04-07T15:54:44Z</time></trkpt><trkpt lat="43.84908943922228" lon="6.312708812202667"><ele>1208.6</ele><time>2026-04-07T15:54:45Z</time></trkpt><trkpt lat="43.84900776105064" lon="6.312788225986089"><ele>1209.3999999999999</ele><time>2026-04-07T15:54:46Z</time></trkpt><trkpt lat="43.84894360363682" lon="6.312913510918806"><ele>1210.2</ele><time>2026-04-07T15:54:47Z</time></trkpt><trkpt lat="43.84886543981833" lon="6.313037119953866"><ele>1211.0</ele><time>2026-04-07T15:54:48Z</time></trkpt><trkpt lat="43.848792064237536" lon="6.313161014939071"><ele>1212.0</ele><time>2026-04-07T15:54:49Z</time></trkpt><trkpt lat="43.84873029428357" lon="6.31327722023457"><ele>1213.0</ele><time>2026-04-07T15:54:50Z</time></trkpt><trkpt lat="43.848668396211046" lon="6.313392558682656"><ele>1214.0</ele><time>2026-04-07T15:54:51Z</time></trkpt><trkpt lat="43.84861362670308" lon="6.313505539677129"><ele>1215.0</ele><time>2026-04-07T15:54:52Z</time></trkpt><trkpt lat="43.8485645550578" lon="6.313651219922606"><ele>1216.0</ele><time>2026-04-07T15:54:53Z</time></trkpt><trkpt lat="43.848531568678005" lon="6.31378636073303"><ele>1214.3999999999999</ele><time>2026-04-07T15:54:54Z</time></trkpt><trkpt lat="43.84849333300925" lon="6.3139399122651145"><ele>1212.8</ele><time>2026-04-07T15:54:55Z</time></trkpt><trkpt lat="43.84846328933895" lon="6.314089736813312"><ele>1211.1999999999998</ele><time>2026-04-07T15:54:56Z</time></trkpt><trkpt lat="43.84843950777681" lon="6.3142315494066175"><ele>1209.6</ele><time>2026-04-07T15:54:57Z</time></trkpt><trkpt lat="43.848408216309814" lon="6.314369708506046"><ele>1208.0</ele><time>2026-04-07T15:54:58Z</time></trkpt><trkpt lat="43.848368633213276" lon="6.314491865472116"><ele>1208.0</ele><time>2026-04-07T15:54:59Z</time></trkpt><trkpt lat="43.84832007394544" lon="6.3145936276711"><ele>1208.0</ele><time>2026-04-07T15:55:00Z</time></trkpt><trkpt lat="43.84826005758492" lon="6.314677940053304"><ele>1208.0</ele><time>2026-04-07T15:55:01Z</time></trkpt><trkpt lat="43.84817791642591" lon="6.314748110012591"><ele>1208.0</ele><time>2026-04-07T15:55:02Z</time></trkpt><trkpt lat="43.848075505135434" lon="6.314821544370367"><ele>1208.0</ele><time>2026-04-07T15:55:03Z</time></trkpt><trkpt lat="43.84797060736193" lon="6.314862252106837"><ele>1207.6</ele><time>2026-04-07T15:55:04Z</time></trkpt><trkpt lat="43.847875899936994" lon="6.31493652025397"><ele>1207.1999999999998</ele><time>2026-04-07T15:55:05Z</time></trkpt><trkpt lat="43.84777310652712" lon="6.314993590970628"><ele>1206.8</ele><time>2026-04-07T15:55:06Z</time></trkpt><trkpt lat="43.84767972068867" lon="6.315070215284852"><ele>1206.3999999999999</ele><time>2026-04-07T15:55:07Z</time></trkpt><trkpt lat="43.84759709014443" lon="6.315165838212774"><ele>1206.0</ele><time>2026-04-07T15:55:08Z</time></trkpt><trkpt lat="43.84752159164522" lon="6.315265109306023"><ele>1206.0</ele><time>2026-04-07T15:55:09Z</time></trkpt><trkpt lat="43.847457029585684" lon="6.315353334752802"><ele>1206.0</ele><time>2026-04-07T15:55:10Z</time></trkpt><trkpt lat="43.84738730881452" lon="6.315423448966389"><ele>1206.0</ele><time>2026-04-07T15:55:11Z</time></trkpt><trkpt lat="43.84732696296493" lon="6.315485870946598"><ele>1206.0</ele><time>2026-04-07T15:55:12Z</time></trkpt><trkpt lat="43.84727831466638" lon="6.315546197803259"><ele>1206.0</ele><time>2026-04-07T15:55:13Z</time></trkpt><trkpt lat="43.8472363201035" lon="6.315618042508591"><ele>1206.0</ele><time>2026-04-07T15:55:14Z</time></trkpt><trkpt lat="43.84721880797626" lon="6.315706622176805"><ele>1206.8</ele><time>2026-04-07T15:55:15Z</time></trkpt><trkpt lat="43.847225132892156" lon="6.315819987200246"><ele>1207.6</ele><time>2026-04-07T15:55:16Z</time></trkpt><trkpt lat="43.84725243995781" lon="6.31593873133953"><ele>1208.4</ele><time>2026-04-07T15:55:17Z</time></trkpt><trkpt lat="43.847301074800264" lon="6.316035664185548"><ele>1209.2</ele><time>2026-04-07T15:55:18Z</time></trkpt><trkpt lat="43.84735809420801" lon="6.316149230870961"><ele>1210.0</ele><time>2026-04-07T15:55:19Z</time></trkpt><trkpt lat="43.84740125111132" lon="6.3162860411758865"><ele>1209.8</ele><time>2026-04-07T15:55:20Z</time></trkpt><trkpt lat="43.84745555884438" lon="6.316438862035618"><ele>1209.6</ele><time>2026-04-07T15:55:21Z</time></trkpt><trkpt lat="43.847502990206486" lon="6.316595054980303"><ele>1209.4</ele><time>2026-04-07T15:55:22Z</time></trkpt><trkpt lat="43.847554093372054" lon="6.316725328991382"><ele>1209.2</ele><time>2026-04-07T15:55:23Z</time></trkpt><trkpt lat="43.8475811585373" lon="6.31684536505485"><ele>1209.0</ele><time>2026-04-07T15:55:24Z</time></trkpt><trkpt lat="43.84760527863084" lon="6.3169357524890275"><ele>1209.0</ele><time>2026-04-07T15:55:25Z</time></trkpt><trkpt lat="43.847626558547255" lon="6.317025507928573"><ele>1209.0</ele><time>2026-04-07T15:55:26Z</time></trkpt><trkpt lat="43.84761740784878" lon="6.317190910809297"><ele>1209.0</ele><time>2026-04-07T15:55:28Z</time></trkpt><trkpt lat="43.84751771324952" lon="6.317284858444691"><ele>1209.0</ele><time>2026-04-07T15:55:30Z</time></trkpt><trkpt lat="43.847443694697006" lon="6.317281423540076"><ele>1209.0</ele><time>2026-04-07T15:55:31Z</time></trkpt><trkpt lat="43.847372811537085" lon="6.317213872559243"><ele>1209.0</ele><time>2026-04-07T15:55:32Z</time></trkpt><trkpt lat="43.847287296304444" lon="6.317145540116468"><ele>1209.0</ele><time>2026-04-07T15:55:33Z</time></trkpt><trkpt lat="43.847200363707415" lon="6.317054213955129"><ele>1209.0</ele><time>2026-04-07T15:55:34Z</time></trkpt><trkpt lat="43.847100624398855" lon="6.316937758200585"><ele>1209.0</ele><time>2026-04-07T15:55:35Z</time></trkpt><trkpt lat="43.84699023364726" lon="6.316839899677983"><ele>1209.0</ele><time>2026-04-07T15:55:36Z</time></trkpt><trkpt lat="43.846880106563205" lon="6.316755056832252"><ele>1209.0</ele><time>2026-04-07T15:55:37Z</time></trkpt><trkpt lat="43.84674882724278" lon="6.3167045156491985"><ele>1209.0</ele><time>2026-04-07T15:55:38Z</time></trkpt><trkpt lat="43.846598311612254" lon="6.316660371383092"><ele>1209.0</ele><time>2026-04-07T15:55:39Z</time></trkpt><trkpt lat="43.84644701758784" lon="6.316619843231494"><ele>1208.75</ele><time>2026-04-07T15:55:40Z</time></trkpt><trkpt lat="43.846312076116355" lon="6.316574015390787"><ele>1208.5</ele><time>2026-04-07T15:55:41Z</time></trkpt><trkpt lat="43.84619372836078" lon="6.316568263927402"><ele>1208.25</ele><time>2026-04-07T15:55:42Z</time></trkpt><trkpt lat="43.84607185462098" lon="6.316584332538705"><ele>1208.0</ele><time>2026-04-07T15:55:43Z</time></trkpt><trkpt lat="43.84593664548504" lon="6.316615811779462"><ele>1208.0</ele><time>2026-04-07T15:55:44Z</time></trkpt><trkpt lat="43.84580373359975" lon="6.3166546035427125"><ele>1208.0</ele><time>2026-04-07T15:55:45Z</time></trkpt><trkpt lat="43.84568653953044" lon="6.316683828429938"><ele>1208.0</ele><time>2026-04-07T15:55:46Z</time></trkpt><trkpt lat="43.84559402314222" lon="6.316714969262669"><ele>1208.0</ele><time>2026-04-07T15:55:47Z</time></trkpt><trkpt lat="43.84550077795626" lon="6.316781297544755"><ele>1208.0</ele><time>2026-04-07T15:55:48Z</time></trkpt><trkpt lat="43.84542092904175" lon="6.316855787861512"><ele>1208.0</ele><time>2026-04-07T15:55:49Z</time></trkpt><trkpt lat="43.845352868331275" lon="6.316933926476424"><ele>1208.0</ele><time>2026-04-07T15:55:50Z</time></trkpt><trkpt lat="43.84530754212928" lon="6.317013422075022"><ele>1208.0</ele><time>2026-04-07T15:55:51Z</time></trkpt><trkpt lat="43.845273913637186" lon="6.317094261747"><ele>1208.0</ele><time>2026-04-07T15:55:52Z</time></trkpt><trkpt lat="43.84524908084074" lon="6.317176154576434"><ele>1208.0</ele><time>2026-04-07T15:55:53Z</time></trkpt><trkpt lat="43.84522219547214" lon="6.317262686792048"><ele>1207.1666666666667</ele><time>2026-04-07T15:55:54Z</time></trkpt><trkpt lat="43.84518139117506" lon="6.317332783710107"><ele>1206.3333333333335</ele><time>2026-04-07T15:55:55Z</time></trkpt><trkpt lat="43.84512220817818" lon="6.317371106674912"><ele>1205.5</ele><time>2026-04-07T15:55:56Z</time></trkpt><trkpt lat="43.84503950049747" lon="6.317372030959783"><ele>1204.6666666666667</ele><time>2026-04-07T15:55:57Z</time></trkpt><trkpt lat="43.84495346056767" lon="6.317330220689995"><ele>1203.8333333333333</ele><time>2026-04-07T15:55:58Z</time></trkpt><trkpt lat="43.84487557387369" lon="6.317260352420816"><ele>1203.0</ele><time>2026-04-07T15:55:59Z</time></trkpt><trkpt lat="43.84480538954395" lon="6.3172188062860615"><ele>1203.0</ele><time>2026-04-07T15:56:00Z</time></trkpt><trkpt lat="43.844734357016115" lon="6.317204607121529"><ele>1203.0</ele><time>2026-04-07T15:56:01Z</time></trkpt><trkpt lat="43.844669697506625" lon="6.317212917220176"><ele>1203.0</ele><time>2026-04-07T15:56:02Z</time></trkpt><trkpt lat="43.84454052204107" lon="6.317308372296615"><ele>1203.0</ele><time>2026-04-07T15:56:04Z</time></trkpt><trkpt lat="43.844478407372456" lon="6.317423267233586"><ele>1203.0</ele><time>2026-04-07T15:56:05Z</time></trkpt><trkpt lat="43.844444301441456" lon="6.317555094864619"><ele>1204.0</ele><time>2026-04-07T15:56:06Z</time></trkpt><trkpt lat="43.84443004848907" lon="6.317694126318752"><ele>1205.0</ele><time>2026-04-07T15:56:07Z</time></trkpt><trkpt lat="43.84441110723745" lon="6.31779031012832"><ele>1206.0</ele><time>2026-04-07T15:56:08Z</time></trkpt><trkpt lat="43.84434242530066" lon="6.317849403282271"><ele>1207.0</ele><time>2026-04-07T15:56:09Z</time></trkpt><trkpt lat="43.84423590170318" lon="6.317846755666737"><ele>1208.0</ele><time>2026-04-07T15:56:10Z</time></trkpt><trkpt lat="43.84412717889907" lon="6.317896077572721"><ele>1208.0</ele><time>2026-04-07T15:56:11Z</time></trkpt><trkpt lat="43.843999259533184" lon="6.317910791118689"><ele>1208.0</ele><time>2026-04-07T15:56:12Z</time></trkpt><trkpt lat="43.8438932265348" lon="6.317892401895388"><ele>1208.0</ele><time>2026-04-07T15:56:13Z</time></trkpt><trkpt lat="43.84379317869848" lon="6.317851820113519"><ele>1208.0</ele><time>2026-04-07T15:56:14Z</time></trkpt><trkpt lat="43.84369197759607" lon="6.317865289192013"><ele>1208.0</ele><time>2026-04-07T15:56:15Z</time></trkpt><trkpt lat="43.843580978202205" lon="6.317920958501355"><ele>1208.0</ele><time>2026-04-07T15:56:16Z</time></trkpt><trkpt lat="43.843466690214996" lon="6.317993546552516"><ele>1208.0</ele><time>2026-04-07T15:56:17Z</time></trkpt><trkpt lat="43.84335447620416" lon="6.318087606901911"><ele>1208.0</ele><time>2026-04-07T15:56:18Z</time></trkpt><trkpt lat="43.843256462355164" lon="6.318181762358418"><ele>1208.0</ele><time>2026-04-07T15:56:19Z</time></trkpt><trkpt lat="43.843139505842196" lon="6.318252965066238"><ele>1213.5</ele><time>2026-04-07T15:56:20Z</time></trkpt><trkpt lat="43.8430217181711" lon="6.318348572876402"><ele>1219.0</ele><time>2026-04-07T15:56:21Z</time></trkpt><trkpt lat="43.84288849408621" lon="6.318414360955372"><ele>1224.5</ele><time>2026-04-07T15:56:22Z</time></trkpt><trkpt lat="43.842763467655914" lon="6.3184634399723665"><ele>1230.0</ele><time>2026-04-07T15:56:23Z</time></trkpt><trkpt lat="43.8426422166563" lon="6.318477432491115"><ele>1230.25</ele><time>2026-04-07T15:56:24Z</time></trkpt><trkpt lat="43.842524874551756" lon="6.318431322809407"><ele>1230.5</ele><time>2026-04-07T15:56:25Z</time></trkpt><trkpt lat="43.842400726376056" lon="6.318431494693542"><ele>1230.75</ele><time>2026-04-07T15:56:26Z</time></trkpt><trkpt lat="43.84227561000772" lon="6.318398608780584"><ele>1231.0</ele><time>2026-04-07T15:56:27Z</time></trkpt><trkpt lat="43.84214759288118" lon="6.318370885426155"><ele>1231.0</ele><time>2026-04-07T15:56:28Z</time></trkpt><trkpt lat="43.842018623529256" lon="6.31834234783227"><ele>1231.0</ele><time>2026-04-07T15:56:29Z</time></trkpt><trkpt lat="43.841900000318795" lon="6.31830884184494"><ele>1231.0</ele><time>2026-04-07T15:56:30Z</time></trkpt><trkpt lat="43.84177983125322" lon="6.318287469763298"><ele>1231.0</ele><time>2026-04-07T15:56:31Z</time></trkpt><trkpt lat="43.84165371442411" lon="6.318294355270613"><ele>1232.75</ele><time>2026-04-07T15:56:32Z</time></trkpt><trkpt lat="43.84152391670482" lon="6.318318097784286"><ele>1234.5</ele><time>2026-04-07T15:56:33Z</time></trkpt><trkpt lat="43.84139892428986" lon="6.318355970732529"><ele>1236.25</ele><time>2026-04-07T15:56:34Z</time></trkpt><trkpt lat="43.84127121289139" lon="6.318402994416076"><ele>1238.0</ele><time>2026-04-07T15:56:35Z</time></trkpt><trkpt lat="43.841149213999834" lon="6.318447461889175"><ele>1238.0</ele><time>2026-04-07T15:56:36Z</time></trkpt><trkpt lat="43.841035361146005" lon="6.318519351156896"><ele>1238.0</ele><time>2026-04-07T15:56:37Z</time></trkpt><trkpt lat="43.84091116213993" lon="6.3185672004398254"><ele>1238.0</ele><time>2026-04-07T15:56:38Z</time></trkpt><trkpt lat="43.84080304064994" lon="6.318653315893943"><ele>1238.0</ele><time>2026-04-07T15:56:39Z</time></trkpt><trkpt lat="43.84070189032706" lon="6.3187116530656215"><ele>1236.8</ele><time>2026-04-07T15:56:40Z</time></trkpt><trkpt lat="43.840595510962494" lon="6.318797720061064"><ele>1235.6</ele><time>2026-04-07T15:56:41Z</time></trkpt><trkpt lat="43.84050372897772" lon="6.318893249358537"><ele>1234.4</ele><time>2026-04-07T15:56:42Z</time></trkpt><trkpt lat="43.84042260440225" lon="6.31899553382084"><ele>1233.2</ele><time>2026-04-07T15:56:43Z</time></trkpt><trkpt lat="43.84035384656265" lon="6.319091228172483"><ele>1232.0</ele><time>2026-04-07T15:56:44Z</time></trkpt><trkpt lat="43.840306796582055" lon="6.3191881540903205"><ele>1236.6</ele><time>2026-04-07T15:56:45Z</time></trkpt><trkpt lat="43.840274307614756" lon="6.3193167739616"><ele>1241.2</ele><time>2026-04-07T15:56:46Z</time></trkpt><trkpt lat="43.84025921160767" lon="6.319460979012763"><ele>1245.8</ele><time>2026-04-07T15:56:47Z</time></trkpt><trkpt lat="43.84024785829611" lon="6.319620177266021"><ele>1250.4</ele><time>2026-04-07T15:56:48Z</time></trkpt><trkpt lat="43.84025307215291" lon="6.319783191373518"><ele>1255.0</ele><time>2026-04-07T15:56:49Z</time></trkpt><trkpt lat="43.840273607713236" lon="6.319950017700039"><ele>1258.25</ele><time>2026-04-07T15:56:50Z</time></trkpt><trkpt lat="43.84030198123551" lon="6.3201209044155915"><ele>1261.5</ele><time>2026-04-07T15:56:51Z</time></trkpt><trkpt lat="43.840335605223906" lon="6.32029152545111"><ele>1264.75</ele><time>2026-04-07T15:56:52Z</time></trkpt><trkpt lat="43.840368870795736" lon="6.320466200626072"><ele>1268.0</ele><time>2026-04-07T15:56:53Z</time></trkpt><trkpt lat="43.840399043954214" lon="6.320642051644262"><ele>1268.5</ele><time>2026-04-07T15:56:54Z</time></trkpt><trkpt lat="43.840425186461886" lon="6.32080798361697"><ele>1269.0</ele><time>2026-04-07T15:56:55Z</time></trkpt><trkpt lat="43.84044342528537" lon="6.320980672578652"><ele>1269.5</ele><time>2026-04-07T15:56:56Z</time></trkpt><trkpt lat="43.84045760260885" lon="6.321147392245989"><ele>1270.0</ele><time>2026-04-07T15:56:57Z</time></trkpt><trkpt lat="43.8404686322897" lon="6.321319128300533"><ele>1269.2</ele><time>2026-04-07T15:56:58Z</time></trkpt><trkpt lat="43.84047537408521" lon="6.32147245200536"><ele>1268.4</ele><time>2026-04-07T15:56:59Z</time></trkpt><trkpt lat="43.84048528441799" lon="6.321620299681951"><ele>1267.6</ele><time>2026-04-07T15:57:00Z</time></trkpt><trkpt lat="43.840500882211245" lon="6.321763216398068"><ele>1266.8</ele><time>2026-04-07T15:57:01Z</time></trkpt><trkpt lat="43.840513055701514" lon="6.321916032344006"><ele>1266.0</ele><time>2026-04-07T15:57:02Z</time></trkpt><trkpt lat="43.840512292625604" lon="6.3220578371615614"><ele>1266.0</ele><time>2026-04-07T15:57:03Z</time></trkpt><trkpt lat="43.84050129014071" lon="6.322182800005084"><ele>1266.0</ele><time>2026-04-07T15:57:04Z</time></trkpt><trkpt lat="43.840475383178294" lon="6.322295443522056"><ele>1266.0</ele><time>2026-04-07T15:57:05Z</time></trkpt><trkpt lat="43.84042621644791" lon="6.32239253098778"><ele>1266.0</ele><time>2026-04-07T15:57:06Z</time></trkpt><trkpt lat="43.84036575046683" lon="6.322486993958857"><ele>1266.0</ele><time>2026-04-07T15:57:07Z</time></trkpt><trkpt lat="43.840283644385195" lon="6.322558108845313"><ele>1265.3999999999999</ele><time>2026-04-07T15:57:08Z</time></trkpt><trkpt lat="43.84022353368697" lon="6.322654976080338"><ele>1264.8</ele><time>2026-04-07T15:57:09Z</time></trkpt><trkpt lat="43.84018363085861" lon="6.322767187410949"><ele>1264.1999999999998</ele><time>2026-04-07T15:57:10Z</time></trkpt><trkpt lat="43.84018682234046" lon="6.322909524462779"><ele>1263.6</ele><time>2026-04-07T15:57:11Z</time></trkpt><trkpt lat="43.840197195820195" lon="6.32302856169389"><ele>1263.0</ele><time>2026-04-07T15:57:12Z</time></trkpt><trkpt lat="43.84020230386436" lon="6.3231572794732305"><ele>1263.0</ele><time>2026-04-07T15:57:13Z</time></trkpt><trkpt lat="43.840191765893486" lon="6.323274102169757"><ele>1263.0</ele><time>2026-04-07T15:57:14Z</time></trkpt><trkpt lat="43.84016157836713" lon="6.32338156199981"><ele>1263.0</ele><time>2026-04-07T15:57:15Z</time></trkpt><trkpt lat="43.84011146959445" lon="6.323484397129539"><ele>1263.0</ele><time>2026-04-07T15:57:16Z</time></trkpt><trkpt lat="43.84005234594405" lon="6.32361657964596"><ele>1263.0</ele><time>2026-04-07T15:57:17Z</time></trkpt><trkpt lat="43.83999540287758" lon="6.323748758708922"><ele>1260.6</ele><time>2026-04-07T15:57:18Z</time></trkpt><trkpt lat="43.83994517787989" lon="6.323876543044106"><ele>1258.1999999999998</ele><time>2026-04-07T15:57:19Z</time></trkpt><trkpt lat="43.83989974880146" lon="6.323992653859147"><ele>1255.8</ele><time>2026-04-07T15:57:20Z</time></trkpt><trkpt lat="43.83985721681785" lon="6.324121365286085"><ele>1253.3999999999999</ele><time>2026-04-07T15:57:21Z</time></trkpt><trkpt lat="43.83984016296599" lon="6.324251454844301"><ele>1251.0</ele><time>2026-04-07T15:57:22Z</time></trkpt><trkpt lat="43.83984118590877" lon="6.324385453685338"><ele>1251.0</ele><time>2026-04-07T15:57:23Z</time></trkpt><trkpt lat="43.839865022995276" lon="6.324534916344265"><ele>1251.0</ele><time>2026-04-07T15:57:24Z</time></trkpt><trkpt lat="43.83989918178965" lon="6.324661755109978"><ele>1251.0</ele><time>2026-04-07T15:57:25Z</time></trkpt><trkpt lat="43.83994263993903" lon="6.324787046757113"><ele>1251.0</ele><time>2026-04-07T15:57:26Z</time></trkpt><trkpt lat="43.83998060668558" lon="6.324908557082867"><ele>1251.0</ele><time>2026-04-07T15:57:27Z</time></trkpt><trkpt lat="43.840013191076785" lon="6.325048892191454"><ele>1251.0</ele><time>2026-04-07T15:57:28Z</time></trkpt><trkpt lat="43.84004452366321" lon="6.325173261280853"><ele>1251.0</ele><time>2026-04-07T15:57:29Z</time></trkpt><trkpt lat="43.8400711999189" lon="6.325300136225521"><ele>1251.0</ele><time>2026-04-07T15:57:30Z</time></trkpt><trkpt lat="43.840090585808134" lon="6.3254348149609685"><ele>1251.0</ele><time>2026-04-07T15:57:31Z</time></trkpt><trkpt lat="43.840077280675416" lon="6.325550009665187"><ele>1251.0</ele><time>2026-04-07T15:57:32Z</time></trkpt><trkpt lat="43.84001485003639" lon="6.325637305378731"><ele>1251.0</ele><time>2026-04-07T15:57:33Z</time></trkpt><trkpt lat="43.83993038910778" lon="6.325689034640244"><ele>1251.0</ele><time>2026-04-07T15:57:34Z</time></trkpt><trkpt lat="43.83983030777075" lon="6.325661854964596"><ele>1251.0</ele><time>2026-04-07T15:57:35Z</time></trkpt><trkpt lat="43.83972337476241" lon="6.325666934761743"><ele>1251.0</ele><time>2026-04-07T15:57:36Z</time></trkpt><trkpt lat="43.839610117611855" lon="6.325663188641707"><ele>1251.0</ele><time>2026-04-07T15:57:37Z</time></trkpt><trkpt lat="43.83949502539214" lon="6.325665676703979"><ele>1251.0</ele><time>2026-04-07T15:57:38Z</time></trkpt><trkpt lat="43.839375318876236" lon="6.325651129996901"><ele>1251.0</ele><time>2026-04-07T15:57:39Z</time></trkpt><trkpt lat="43.839260717751515" lon="6.325626845565133"><ele>1251.0</ele><time>2026-04-07T15:57:40Z</time></trkpt><trkpt lat="43.839158226925655" lon="6.325655194835083"><ele>1251.0</ele><time>2026-04-07T15:57:41Z</time></trkpt><trkpt lat="43.83905538497165" lon="6.325717781505083"><ele>1247.5</ele><time>2026-04-07T15:57:42Z</time></trkpt><trkpt lat="43.838952061967525" lon="6.32581583808985"><ele>1244.0</ele><time>2026-04-07T15:57:43Z</time></trkpt><trkpt lat="43.838850377206874" lon="6.325929379886716"><ele>1240.5</ele><time>2026-04-07T15:57:44Z</time></trkpt><trkpt lat="43.83874574036334" lon="6.326030860287033"><ele>1237.0</ele><time>2026-04-07T15:57:45Z</time></trkpt><trkpt lat="43.83861637569711" lon="6.3260511667599735"><ele>1237.0</ele><time>2026-04-07T15:57:46Z</time></trkpt><trkpt lat="43.83847896519571" lon="6.3260873879351465"><ele>1237.0</ele><time>2026-04-07T15:57:47Z</time></trkpt><trkpt lat="43.83834639805091" lon="6.326121482568749"><ele>1237.0</ele><time>2026-04-07T15:57:48Z</time></trkpt><trkpt lat="43.838220678453766" lon="6.32616673352294"><ele>1237.0</ele><time>2026-04-07T15:57:49Z</time></trkpt><trkpt lat="43.83810113723153" lon="6.326204261906109"><ele>1236.0</ele><time>2026-04-07T15:57:50Z</time></trkpt><trkpt lat="43.83799591744541" lon="6.3262300596455825"><ele>1235.0</ele><time>2026-04-07T15:57:51Z</time></trkpt><trkpt lat="43.83790909355334" lon="6.326294868860943"><ele>1234.0</ele><time>2026-04-07T15:57:52Z</time></trkpt><trkpt lat="43.8378378668033" lon="6.3263945195898055"><ele>1233.0</ele><time>2026-04-07T15:57:53Z</time></trkpt><trkpt lat="43.83777806948342" lon="6.326519412312681"><ele>1232.0</ele><time>2026-04-07T15:57:54Z</time></trkpt><trkpt lat="43.837740611596324" lon="6.326661024082338"><ele>1231.5</ele><time>2026-04-07T15:57:55Z</time></trkpt><trkpt lat="43.837715092716365" lon="6.326828423713548"><ele>1231.0</ele><time>2026-04-07T15:57:56Z</time></trkpt><trkpt lat="43.83769446629372" lon="6.326999199960293"><ele>1230.5</ele><time>2026-04-07T15:57:57Z</time></trkpt><trkpt lat="43.83764178070636" lon="6.327152698089345"><ele>1230.0</ele><time>2026-04-07T15:57:58Z</time></trkpt><trkpt lat="43.83760689912001" lon="6.32731012715214"><ele>1230.0</ele><time>2026-04-07T15:57:59Z</time></trkpt><trkpt lat="43.83754957597966" lon="6.327444357999914"><ele>1230.0</ele><time>2026-04-07T15:58:00Z</time></trkpt><trkpt lat="43.837489065732505" lon="6.3275667206462645"><ele>1230.0</ele><time>2026-04-07T15:58:01Z</time></trkpt><trkpt lat="43.83741520192191" lon="6.3276802145562385"><ele>1230.0</ele><time>2026-04-07T15:58:02Z</time></trkpt><trkpt lat="43.837341479930856" lon="6.3277856107436055"><ele>1230.0</ele><time>2026-04-07T15:58:03Z</time></trkpt><trkpt lat="43.83725877421817" lon="6.3278742953224985"><ele>1230.0</ele><time>2026-04-07T15:58:04Z</time></trkpt><trkpt lat="43.83715528446421" lon="6.327890877754637"><ele>1230.0</ele><time>2026-04-07T15:58:05Z</time></trkpt><trkpt lat="43.83706528373577" lon="6.32791386625339"><ele>1230.0</ele><time>2026-04-07T15:58:06Z</time></trkpt><trkpt lat="43.83697700967403" lon="6.3278321877316595"><ele>1230.0</ele><time>2026-04-07T15:58:07Z</time></trkpt><trkpt lat="43.836887005108096" lon="6.32775417458541"><ele>1230.0</ele><time>2026-04-07T15:58:08Z</time></trkpt><trkpt lat="43.83680108034018" lon="6.32764650057695"><ele>1228.25</ele><time>2026-04-07T15:58:09Z</time></trkpt><trkpt lat="43.83670798079103" lon="6.327553465036948"><ele>1226.5</ele><time>2026-04-07T15:58:10Z</time></trkpt><trkpt lat="43.83660226344323" lon="6.3274985496735825"><ele>1224.75</ele><time>2026-04-07T15:58:11Z</time></trkpt><trkpt lat="43.83648954846298" lon="6.3274903406548715"><ele>1223.0</ele><time>2026-04-07T15:58:12Z</time></trkpt><trkpt lat="43.83637140076139" lon="6.327499328547417"><ele>1223.0</ele><time>2026-04-07T15:58:13Z</time></trkpt><trkpt lat="43.83625640348229" lon="6.327534660761432"><ele>1223.0</ele><time>2026-04-07T15:58:14Z</time></trkpt><trkpt lat="43.83614409544565" lon="6.3275976575061055"><ele>1223.0</ele><time>2026-04-07T15:58:15Z</time></trkpt><trkpt lat="43.83604475543308" lon="6.32768278614582"><ele>1223.0</ele><time>2026-04-07T15:58:16Z</time></trkpt><trkpt lat="43.835942004611574" lon="6.327781268439769"><ele>1221.75</ele><time>2026-04-07T15:58:17Z</time></trkpt><trkpt lat="43.835838623428955" lon="6.327882195770549"><ele>1220.5</ele><time>2026-04-07T15:58:18Z</time></trkpt><trkpt lat="43.83573218301984" lon="6.3279796178341945"><ele>1219.25</ele><time>2026-04-07T15:58:19Z</time></trkpt><trkpt lat="43.83563917626152" lon="6.328065834680571"><ele>1218.0</ele><time>2026-04-07T15:58:20Z</time></trkpt><trkpt lat="43.835576787464" lon="6.3281506990280185"><ele>1222.0</ele><time>2026-04-07T15:58:21Z</time></trkpt><trkpt lat="43.835515457858" lon="6.328222619058175"><ele>1226.0</ele><time>2026-04-07T15:58:22Z</time></trkpt><trkpt lat="43.83540074912385" lon="6.3284184021179355"><ele>1230.0</ele><time>2026-04-07T15:58:23Z</time></trkpt><trkpt lat="43.83534925840248" lon="6.3285298696440515"><ele>1234.0</ele><time>2026-04-07T15:58:24Z</time></trkpt><trkpt lat="43.835281284386355" lon="6.328579141650138"><ele>1238.0</ele><time>2026-04-07T15:58:25Z</time></trkpt><trkpt lat="43.83520031420152" lon="6.328510861597851"><ele>1237.2857142857142</ele><time>2026-04-07T15:58:26Z</time></trkpt><trkpt lat="43.83513573879106" lon="6.32846258558482"><ele>1236.5714285714287</ele><time>2026-04-07T15:58:27Z</time></trkpt><trkpt lat="43.83507221978698" lon="6.328429015957255"><ele>1235.857142857143</ele><time>2026-04-07T15:58:28Z</time></trkpt><trkpt lat="43.835022103269615" lon="6.328369268097947"><ele>1235.142857142857</ele><time>2026-04-07T15:58:29Z</time></trkpt><trkpt lat="43.834982218750056" lon="6.328298638077783"><ele>1234.4285714285713</ele><time>2026-04-07T15:58:30Z</time></trkpt><trkpt lat="43.83495326011183" lon="6.328217681292104"><ele>1233.7142857142858</ele><time>2026-04-07T15:58:31Z</time></trkpt><trkpt lat="43.83492724994766" lon="6.328125315368347"><ele>1233.0</ele><time>2026-04-07T15:58:32Z</time></trkpt><trkpt lat="43.83489616051599" lon="6.328030925651815"><ele>1229.8333333333333</ele><time>2026-04-07T15:58:33Z</time></trkpt><trkpt lat="43.83487361874925" lon="6.3279339866492945"><ele>1226.6666666666667</ele><time>2026-04-07T15:58:34Z</time></trkpt><trkpt lat="43.834845349731985" lon="6.327846762185022"><ele>1223.5</ele><time>2026-04-07T15:58:35Z</time></trkpt><trkpt lat="43.83482275173397" lon="6.327755862848426"><ele>1220.3333333333335</ele><time>2026-04-07T15:58:36Z</time></trkpt><trkpt lat="43.83477104866635" lon="6.327689781519144"><ele>1217.1666666666667</ele><time>2026-04-07T15:58:37Z</time></trkpt><trkpt lat="43.8346868199091" lon="6.3275672360455975"><ele>1214.0</ele><time>2026-04-07T15:58:39Z</time></trkpt><trkpt lat="43.83462850873425" lon="6.327517581472341"><ele>1214.0</ele><time>2026-04-07T15:58:40Z</time></trkpt><trkpt lat="43.83456666752898" lon="6.327454427449248"><ele>1214.0</ele><time>2026-04-07T15:58:41Z</time></trkpt><trkpt lat="43.83450227802726" lon="6.327378288545956"><ele>1214.0</ele><time>2026-04-07T15:58:42Z</time></trkpt><trkpt lat="43.83442644597542" lon="6.327308412342074"><ele>1214.0</ele><time>2026-04-07T15:58:43Z</time></trkpt><trkpt lat="43.83434231803596" lon="6.3272627547070295"><ele>1214.0</ele><time>2026-04-07T15:58:44Z</time></trkpt><trkpt lat="43.834256648410836" lon="6.327227510886355"><ele>1214.0</ele><time>2026-04-07T15:58:45Z</time></trkpt><trkpt lat="43.83417358520645" lon="6.327188152931208"><ele>1213.1666666666667</ele><time>2026-04-07T15:58:46Z</time></trkpt><trkpt lat="43.834090250663834" lon="6.327158537026422"><ele>1212.3333333333335</ele><time>2026-04-07T15:58:47Z</time></trkpt><trkpt lat="43.834006383735364" lon="6.327121685281896"><ele>1211.5</ele><time>2026-04-07T15:58:48Z</time></trkpt><trkpt lat="43.833929268111056" lon="6.327074822364851"><ele>1210.6666666666667</ele><time>2026-04-07T15:58:49Z</time></trkpt><trkpt lat="43.83385024808641" lon="6.327030337600583"><ele>1209.8333333333333</ele><time>2026-04-07T15:58:50Z</time></trkpt><trkpt lat="43.83376953832988" lon="6.326990347666729"><ele>1209.0</ele><time>2026-04-07T15:58:51Z</time></trkpt><trkpt lat="43.83368952051402" lon="6.326953179116856"><ele>1209.0</ele><time>2026-04-07T15:58:52Z</time></trkpt><trkpt lat="43.83362381777156" lon="6.3268886926017665"><ele>1209.0</ele><time>2026-04-07T15:58:53Z</time></trkpt><trkpt lat="43.833556889779054" lon="6.326836497644559"><ele>1209.0</ele><time>2026-04-07T15:58:54Z</time></trkpt><trkpt lat="43.83349644072438" lon="6.326769254473172"><ele>1209.0</ele><time>2026-04-07T15:58:55Z</time></trkpt><trkpt lat="43.83343930203664" lon="6.3267064043628976"><ele>1209.0</ele><time>2026-04-07T15:58:56Z</time></trkpt><trkpt lat="43.83339005959656" lon="6.326604636466336"><ele>1209.0</ele><time>2026-04-07T15:58:57Z</time></trkpt><trkpt lat="43.83335203312762" lon="6.326500942725988"><ele>1209.6666666666667</ele><time>2026-04-07T15:58:58Z</time></trkpt><trkpt lat="43.8333156924155" lon="6.3263890802503395"><ele>1210.3333333333333</ele><time>2026-04-07T15:58:59Z</time></trkpt><trkpt lat="43.83328903237093" lon="6.326282453711348"><ele>1211.0</ele><time>2026-04-07T15:59:00Z</time></trkpt><trkpt lat="43.833268943919045" lon="6.326178028253771"><ele>1211.6666666666665</ele><time>2026-04-07T15:59:01Z</time></trkpt><trkpt lat="43.833261436460674" lon="6.326061208954228"><ele>1212.3333333333333</ele><time>2026-04-07T15:59:02Z</time></trkpt><trkpt lat="43.833271385757" lon="6.325945042062858"><ele>1213.0</ele><time>2026-04-07T15:59:03Z</time></trkpt><trkpt lat="43.83331213842683" lon="6.325847660480632"><ele>1213.0</ele><time>2026-04-07T15:59:04Z</time></trkpt><trkpt lat="43.833366743860445" lon="6.325766308713124"><ele>1213.0</ele><time>2026-04-07T15:59:05Z</time></trkpt><trkpt lat="43.83342352838814" lon="6.325700597558758"><ele>1213.0</ele><time>2026-04-07T15:59:06Z</time></trkpt><trkpt lat="43.83348238558028" lon="6.325638873009919"><ele>1213.0</ele><time>2026-04-07T15:59:07Z</time></trkpt><trkpt lat="43.83354031503482" lon="6.32558922757522"><ele>1213.0</ele><time>2026-04-07T15:59:08Z</time></trkpt><trkpt lat="43.83363101238972" lon="6.325479225395197"><ele>1213.0</ele><time>2026-04-07T15:59:10Z</time></trkpt><trkpt lat="43.833682080902555" lon="6.325409725370116"><ele>1210.2</ele><time>2026-04-07T15:59:11Z</time></trkpt><trkpt lat="43.833741321707926" lon="6.325339780814734"><ele>1207.4</ele><time>2026-04-07T15:59:12Z</time></trkpt><trkpt lat="43.833807185099445" lon="6.325257312926102"><ele>1204.6000000000001</ele><time>2026-04-07T15:59:13Z</time></trkpt><trkpt lat="43.83387383596993" lon="6.3251594920038325"><ele>1201.8</ele><time>2026-04-07T15:59:14Z</time></trkpt><trkpt lat="43.83393559415182" lon="6.325064580660835"><ele>1199.0</ele><time>2026-04-07T15:59:15Z</time></trkpt><trkpt lat="43.83399160905423" lon="6.32495777086796"><ele>1199.0</ele><time>2026-04-07T15:59:16Z</time></trkpt><trkpt lat="43.83404850368677" lon="6.324855466890836"><ele>1199.0</ele><time>2026-04-07T15:59:17Z</time></trkpt><trkpt lat="43.83410895324299" lon="6.324752512983777"><ele>1199.0</ele><time>2026-04-07T15:59:18Z</time></trkpt><trkpt lat="43.83415920309964" lon="6.324658128622728"><ele>1199.0</ele><time>2026-04-07T15:59:19Z</time></trkpt><trkpt lat="43.83420078774358" lon="6.324547197973895"><ele>1199.0</ele><time>2026-04-07T15:59:20Z</time></trkpt><trkpt lat="43.834227986637714" lon="6.324439700697549"><ele>1199.0</ele><time>2026-04-07T15:59:21Z</time></trkpt><trkpt lat="43.834239245327815" lon="6.324324171765188"><ele>1198.6000000000001</ele><time>2026-04-07T15:59:22Z</time></trkpt><trkpt lat="43.83422044890217" lon="6.324213589896102"><ele>1198.2</ele><time>2026-04-07T15:59:23Z</time></trkpt><trkpt lat="43.83417388033035" lon="6.324120372186665"><ele>1197.8000000000002</ele><time>2026-04-07T15:59:24Z</time></trkpt><trkpt lat="43.83411347754476" lon="6.324033019567063"><ele>1197.4</ele><time>2026-04-07T15:59:25Z</time></trkpt><trkpt lat="43.83401205648198" lon="6.3239848235194"><ele>1197.0</ele><time>2026-04-07T15:59:26Z</time></trkpt><trkpt lat="43.833907524354814" lon="6.323939588756928"><ele>1193.25</ele><time>2026-04-07T15:59:27Z</time></trkpt><trkpt lat="43.833803047892225" lon="6.323890014657294"><ele>1189.5</ele><time>2026-04-07T15:59:28Z</time></trkpt><trkpt lat="43.83369512743263" lon="6.323837787325823"><ele>1185.75</ele><time>2026-04-07T15:59:29Z</time></trkpt><trkpt lat="43.833586831925885" lon="6.323787205133087"><ele>1182.0</ele><time>2026-04-07T15:59:30Z</time></trkpt><trkpt lat="43.83347793419069" lon="6.323739619686154"><ele>1181.75</ele><time>2026-04-07T15:59:31Z</time></trkpt><trkpt lat="43.8333693172708" lon="6.323700692925171"><ele>1181.5</ele><time>2026-04-07T15:59:32Z</time></trkpt><trkpt lat="43.833250047528644" lon="6.3236993814576365"><ele>1181.25</ele><time>2026-04-07T15:59:33Z</time></trkpt><trkpt lat="43.83313567794335" lon="6.323676055739047"><ele>1181.0</ele><time>2026-04-07T15:59:34Z</time></trkpt><trkpt lat="43.83302032653962" lon="6.323716802057436"><ele>1181.0</ele><time>2026-04-07T15:59:35Z</time></trkpt><trkpt lat="43.83291097997636" lon="6.323748144866204"><ele>1181.0</ele><time>2026-04-07T15:59:36Z</time></trkpt><trkpt lat="43.83281093570866" lon="6.323794873402903"><ele>1181.0</ele><time>2026-04-07T15:59:37Z</time></trkpt><trkpt lat="43.8327143715769" lon="6.323850289033652"><ele>1181.0</ele><time>2026-04-07T15:59:38Z</time></trkpt><trkpt lat="43.832626215189215" lon="6.323919543892224"><ele>1181.0</ele><time>2026-04-07T15:59:39Z</time></trkpt><trkpt lat="43.832531642811205" lon="6.32398223356636"><ele>1183.2</ele><time>2026-04-07T15:59:40Z</time></trkpt><trkpt lat="43.83246452634417" lon="6.3240895106492685"><ele>1185.3999999999999</ele><time>2026-04-07T15:59:41Z</time></trkpt><trkpt lat="43.832393270402356" lon="6.324180396363701"><ele>1187.6</ele><time>2026-04-07T15:59:42Z</time></trkpt><trkpt lat="43.832325521707034" lon="6.324279572627392"><ele>1189.8</ele><time>2026-04-07T15:59:43Z</time></trkpt><trkpt lat="43.83226310574817" lon="6.324377262620408"><ele>1192.0</ele><time>2026-04-07T15:59:44Z</time></trkpt><trkpt lat="43.83218114596123" lon="6.3244521651480765"><ele>1192.0</ele><time>2026-04-07T15:59:45Z</time></trkpt><trkpt lat="43.83207617690933" lon="6.324457047027014"><ele>1192.0</ele><time>2026-04-07T15:59:46Z</time></trkpt><trkpt lat="43.83199023804359" lon="6.324504191050735"><ele>1192.0</ele><time>2026-04-07T15:59:47Z</time></trkpt><trkpt lat="43.83191213109968" lon="6.3245871038300265"><ele>1192.0</ele><time>2026-04-07T15:59:48Z</time></trkpt><trkpt lat="43.83184180411844" lon="6.3246798531485515"><ele>1192.0</ele><time>2026-04-07T15:59:49Z</time></trkpt><trkpt lat="43.831785252851915" lon="6.3248065941301554"><ele>1191.2</ele><time>2026-04-07T15:59:50Z</time></trkpt><trkpt lat="43.8317163125487" lon="6.324927191108386"><ele>1190.4</ele><time>2026-04-07T15:59:51Z</time></trkpt><trkpt lat="43.83161507064351" lon="6.324991277448502"><ele>1189.6</ele><time>2026-04-07T15:59:52Z</time></trkpt><trkpt lat="43.83151612002427" lon="6.32505796872681"><ele>1188.8</ele><time>2026-04-07T15:59:53Z</time></trkpt><trkpt lat="43.83141412736747" lon="6.325116425863835"><ele>1188.0</ele><time>2026-04-07T15:59:54Z</time></trkpt><trkpt lat="43.8313197889012" lon="6.325189887613002"><ele>1188.0</ele><time>2026-04-07T15:59:55Z</time></trkpt><trkpt lat="43.831211814234074" lon="6.325257378082399"><ele>1188.0</ele><time>2026-04-07T15:59:56Z</time></trkpt><trkpt lat="43.83110477162226" lon="6.325313607221476"><ele>1188.0</ele><time>2026-04-07T15:59:57Z</time></trkpt><trkpt lat="43.831001103275504" lon="6.325383653269502"><ele>1188.0</ele><time>2026-04-07T15:59:58Z</time></trkpt><trkpt lat="43.830898574888906" lon="6.325442811063541"><ele>1188.6</ele><time>2026-04-07T15:59:59Z</time></trkpt><trkpt lat="43.83079604920115" lon="6.325508640773626"><ele>1189.1999999999998</ele><time>2026-04-07T16:00:00Z</time></trkpt><trkpt lat="43.830695407640434" lon="6.325561205870157"><ele>1189.8</ele><time>2026-04-07T16:00:01Z</time></trkpt><trkpt lat="43.83058788346117" lon="6.325624913042572"><ele>1190.3999999999999</ele><time>2026-04-07T16:00:02Z</time></trkpt><trkpt lat="43.830487564413225" lon="6.32569203857857"><ele>1191.0</ele><time>2026-04-07T16:00:03Z</time></trkpt><trkpt lat="43.83038731199248" lon="6.325760992703675"><ele>1191.0</ele><time>2026-04-07T16:00:04Z</time></trkpt><trkpt lat="43.83029925878709" lon="6.325843339340033"><ele>1191.0</ele><time>2026-04-07T16:00:05Z</time></trkpt><trkpt lat="43.83022837443563" lon="6.325953133271598"><ele>1191.0</ele><time>2026-04-07T16:00:06Z</time></trkpt><trkpt lat="43.83017317363486" lon="6.326078248061381"><ele>1191.0</ele><time>2026-04-07T16:00:07Z</time></trkpt><trkpt lat="43.830101626129206" lon="6.326171908897001"><ele>1191.0</ele><time>2026-04-07T16:00:08Z</time></trkpt><trkpt lat="43.83004993188199" lon="6.326251917416766"><ele>1188.0</ele><time>2026-04-07T16:00:09Z</time></trkpt><trkpt lat="43.829966228522224" lon="6.326234726209735"><ele>1185.0</ele><time>2026-04-07T16:00:10Z</time></trkpt><trkpt lat="43.82989477479216" lon="6.326221930703267"><ele>1182.0</ele><time>2026-04-07T16:00:11Z</time></trkpt><trkpt lat="43.82983361259535" lon="6.326147331616205"><ele>1179.0</ele><time>2026-04-07T16:00:12Z</time></trkpt><trkpt lat="43.829798501680365" lon="6.326005439370465"><ele>1176.0</ele><time>2026-04-07T16:00:13Z</time></trkpt><trkpt lat="43.829725539277234" lon="6.325896866664696"><ele>1176.0</ele><time>2026-04-07T16:00:14Z</time></trkpt><trkpt lat="43.82965478903561" lon="6.325785036375028"><ele>1176.0</ele><time>2026-04-07T16:00:15Z</time></trkpt><trkpt lat="43.82958491434691" lon="6.325723986535571"><ele>1176.0</ele><time>2026-04-07T16:00:16Z</time></trkpt><trkpt lat="43.82948888540019" lon="6.325715472678396"><ele>1176.0</ele><time>2026-04-07T16:00:17Z</time></trkpt><trkpt lat="43.829375140166384" lon="6.325738997744288"><ele>1176.0</ele><time>2026-04-07T16:00:18Z</time></trkpt><trkpt lat="43.82926563989692" lon="6.325792627301888"><ele>1174.5</ele><time>2026-04-07T16:00:19Z</time></trkpt><trkpt lat="43.82914579390582" lon="6.325836199889218"><ele>1173.0</ele><time>2026-04-07T16:00:20Z</time></trkpt><trkpt lat="43.82904019815321" lon="6.325903439570872"><ele>1171.5</ele><time>2026-04-07T16:00:21Z</time></trkpt><trkpt lat="43.82894548657341" lon="6.325974208021178"><ele>1170.0</ele><time>2026-04-07T16:00:22Z</time></trkpt><trkpt lat="43.82885451896656" lon="6.326074994463247"><ele>1170.0</ele><time>2026-04-07T16:00:23Z</time></trkpt><trkpt lat="43.828754338519026" lon="6.326163962181509"><ele>1170.0</ele><time>2026-04-07T16:00:24Z</time></trkpt><trkpt lat="43.828655406307" lon="6.3262689837999275"><ele>1170.0</ele><time>2026-04-07T16:00:25Z</time></trkpt><trkpt lat="43.82856554876462" lon="6.326377197766189"><ele>1170.0</ele><time>2026-04-07T16:00:26Z</time></trkpt><trkpt lat="43.82846836062728" lon="6.3265065649547765"><ele>1170.25</ele><time>2026-04-07T16:00:27Z</time></trkpt><trkpt lat="43.82837637388964" lon="6.326629778828919"><ele>1170.5</ele><time>2026-04-07T16:00:28Z</time></trkpt><trkpt lat="43.828287187623005" lon="6.326747822975174"><ele>1170.75</ele><time>2026-04-07T16:00:29Z</time></trkpt><trkpt lat="43.828201161503195" lon="6.326878455340952"><ele>1171.0</ele><time>2026-04-07T16:00:30Z</time></trkpt><trkpt lat="43.82812550297499" lon="6.327016175158554"><ele>1171.0</ele><time>2026-04-07T16:00:31Z</time></trkpt><trkpt lat="43.828048753836924" lon="6.327158259325301"><ele>1171.0</ele><time>2026-04-07T16:00:32Z</time></trkpt><trkpt lat="43.827975371634174" lon="6.327294018883151"><ele>1171.0</ele><time>2026-04-07T16:00:33Z</time></trkpt><trkpt lat="43.82790647126685" lon="6.3274231825413345"><ele>1171.0</ele><time>2026-04-07T16:00:34Z</time></trkpt><trkpt lat="43.82784097166439" lon="6.327561251912175"><ele>1176.0</ele><time>2026-04-07T16:00:35Z</time></trkpt><trkpt lat="43.82779568842832" lon="6.327713675898138"><ele>1181.0</ele><time>2026-04-07T16:00:36Z</time></trkpt><trkpt lat="43.827753234866904" lon="6.327873944318582"><ele>1186.0</ele><time>2026-04-07T16:00:37Z</time></trkpt><trkpt lat="43.827695119268924" lon="6.328022826583989"><ele>1191.0</ele><time>2026-04-07T16:00:38Z</time></trkpt><trkpt lat="43.827648789337175" lon="6.328178248753656"><ele>1183.5</ele><time>2026-04-07T16:00:39Z</time></trkpt><trkpt lat="43.827602022589375" lon="6.328330586526114"><ele>1176.0</ele><time>2026-04-07T16:00:40Z</time></trkpt><trkpt lat="43.82757868590642" lon="6.328486942395908"><ele>1168.5</ele><time>2026-04-07T16:00:41Z</time></trkpt><trkpt lat="43.82755604021724" lon="6.328651994764411"><ele>1161.0</ele><time>2026-04-07T16:00:42Z</time></trkpt><trkpt lat="43.82751201469827" lon="6.328826148061618"><ele>1163.5</ele><time>2026-04-07T16:00:43Z</time></trkpt><trkpt lat="43.82745809643414" lon="6.328986430970122"><ele>1166.0</ele><time>2026-04-07T16:00:44Z</time></trkpt><trkpt lat="43.827405051027505" lon="6.329148503417753"><ele>1168.5</ele><time>2026-04-07T16:00:45Z</time></trkpt><trkpt lat="43.82732280118365" lon="6.329306694490086"><ele>1171.0</ele><time>2026-04-07T16:00:46Z</time></trkpt><trkpt lat="43.827233507624776" lon="6.329463944811689"><ele>1171.0</ele><time>2026-04-07T16:00:47Z</time></trkpt><trkpt lat="43.8271464037143" lon="6.329640737261054"><ele>1171.0</ele><time>2026-04-07T16:00:48Z</time></trkpt><trkpt lat="43.82703770768129" lon="6.329805202221153"><ele>1171.0</ele><time>2026-04-07T16:00:49Z</time></trkpt><trkpt lat="43.82693744222905" lon="6.3299708966430135"><ele>1170.25</ele><time>2026-04-07T16:00:50Z</time></trkpt><trkpt lat="43.82685137593939" lon="6.330135915987961"><ele>1169.5</ele><time>2026-04-07T16:00:51Z</time></trkpt><trkpt lat="43.82677867502572" lon="6.330300494050004"><ele>1168.75</ele><time>2026-04-07T16:00:52Z</time></trkpt><trkpt lat="43.826715061316904" lon="6.3304577032876725"><ele>1168.0</ele><time>2026-04-07T16:00:53Z</time></trkpt><trkpt lat="43.826632971404464" lon="6.330570738801995"><ele>1168.0</ele><time>2026-04-07T16:00:54Z</time></trkpt><trkpt lat="43.82653697443817" lon="6.33065529717683"><ele>1168.0</ele><time>2026-04-07T16:00:55Z</time></trkpt><trkpt lat="43.826418545087684" lon="6.330708916237036"><ele>1168.0</ele><time>2026-04-07T16:00:56Z</time></trkpt><trkpt lat="43.82628093098351" lon="6.330727220430889"><ele>1168.0</ele><time>2026-04-07T16:00:57Z</time></trkpt><trkpt lat="43.82613602965854" lon="6.330726794182498"><ele>1168.0</ele><time>2026-04-07T16:00:58Z</time></trkpt><trkpt lat="43.825986069909256" lon="6.330765734185809"><ele>1168.0</ele><time>2026-04-07T16:00:59Z</time></trkpt><trkpt lat="43.825843688161434" lon="6.33081367039131"><ele>1168.0</ele><time>2026-04-07T16:01:00Z</time></trkpt><trkpt lat="43.82570960813029" lon="6.330850005753651"><ele>1168.0</ele><time>2026-04-07T16:01:01Z</time></trkpt><trkpt lat="43.82558401524148" lon="6.3308624707096115"><ele>1166.0</ele><time>2026-04-07T16:01:02Z</time></trkpt><trkpt lat="43.825479873974835" lon="6.330894971217946"><ele>1164.0</ele><time>2026-04-07T16:01:03Z</time></trkpt><trkpt lat="43.825390873122046" lon="6.330892824371764"><ele>1162.0</ele><time>2026-04-07T16:01:04Z</time></trkpt><trkpt lat="43.82531700168164" lon="6.330948266227926"><ele>1160.0</ele><time>2026-04-07T16:01:05Z</time></trkpt><trkpt lat="43.82526045414396" lon="6.331051216861859"><ele>1158.0</ele><time>2026-04-07T16:01:06Z</time></trkpt><trkpt lat="43.82525131906758" lon="6.331186891822141"><ele>1158.0</ele><time>2026-04-07T16:01:07Z</time></trkpt><trkpt lat="43.8252714525326" lon="6.331362183044116"><ele>1158.0</ele><time>2026-04-07T16:01:08Z</time></trkpt><trkpt lat="43.82526176166701" lon="6.3315488022527715"><ele>1158.0</ele><time>2026-04-07T16:01:09Z</time></trkpt><trkpt lat="43.825238474783575" lon="6.331731898730717"><ele>1158.0</ele><time>2026-04-07T16:01:10Z</time></trkpt><trkpt lat="43.82521087248905" lon="6.331911421887877"><ele>1157.25</ele><time>2026-04-07T16:01:11Z</time></trkpt><trkpt lat="43.82513011271254" lon="6.332048684072367"><ele>1156.5</ele><time>2026-04-07T16:01:12Z</time></trkpt><trkpt lat="43.82504555357539" lon="6.332159307852077"><ele>1155.75</ele><time>2026-04-07T16:01:13Z</time></trkpt><trkpt lat="43.82493492457908" lon="6.332226075680676"><ele>1155.0</ele><time>2026-04-07T16:01:14Z</time></trkpt><trkpt lat="43.824813384832616" lon="6.332267395302569"><ele>1155.0</ele><time>2026-04-07T16:01:15Z</time></trkpt><trkpt lat="43.82467705738207" lon="6.332333134742129"><ele>1155.0</ele><time>2026-04-07T16:01:16Z</time></trkpt><trkpt lat="43.82453627781793" lon="6.332350646086947"><ele>1155.0</ele><time>2026-04-07T16:01:17Z</time></trkpt><trkpt lat="43.82439990580842" lon="6.332411568166729"><ele>1155.0</ele><time>2026-04-07T16:01:18Z</time></trkpt><trkpt lat="43.82426733149499" lon="6.332442792844073"><ele>1151.2</ele><time>2026-04-07T16:01:19Z</time></trkpt><trkpt lat="43.82415481840003" lon="6.332464857223592"><ele>1147.4</ele><time>2026-04-07T16:01:20Z</time></trkpt><trkpt lat="43.82404631911709" lon="6.332470320756302"><ele>1143.6</ele><time>2026-04-07T16:01:21Z</time></trkpt><trkpt lat="43.82396852779137" lon="6.332491440685942"><ele>1139.8</ele><time>2026-04-07T16:01:22Z</time></trkpt><trkpt lat="43.82390109990107" lon="6.332560531119152"><ele>1136.0</ele><time>2026-04-07T16:01:23Z</time></trkpt><trkpt lat="43.82385772974973" lon="6.332664335734424"><ele>1136.0</ele><time>2026-04-07T16:01:24Z</time></trkpt><trkpt lat="43.8238446476991" lon="6.332799524615081"><ele>1136.0</ele><time>2026-04-07T16:01:25Z</time></trkpt><trkpt lat="43.82382913858821" lon="6.332958805562672"><ele>1136.0</ele><time>2026-04-07T16:01:26Z</time></trkpt><trkpt lat="43.823806648558666" lon="6.3331366890365635"><ele>1136.0</ele><time>2026-04-07T16:01:27Z</time></trkpt><trkpt lat="43.823781404888045" lon="6.333320363129066"><ele>1138.5</ele><time>2026-04-07T16:01:28Z</time></trkpt><trkpt lat="43.82376292902714" lon="6.333496214600779"><ele>1141.0</ele><time>2026-04-07T16:01:29Z</time></trkpt><trkpt lat="43.823722327012675" lon="6.333680781724988"><ele>1143.5</ele><time>2026-04-07T16:01:30Z</time></trkpt><trkpt lat="43.823685308238396" lon="6.333839329898493"><ele>1146.0</ele><time>2026-04-07T16:01:31Z</time></trkpt><trkpt lat="43.82363530141875" lon="6.333921677300463"><ele>1147.6</ele><time>2026-04-07T16:01:32Z</time></trkpt><trkpt lat="43.823571424549456" lon="6.333987059434828"><ele>1149.1999999999998</ele><time>2026-04-07T16:01:33Z</time></trkpt><trkpt lat="43.823464371408726" lon="6.334019706652247"><ele>1150.8000000000002</ele><time>2026-04-07T16:01:34Z</time></trkpt><trkpt lat="43.82335811411727" lon="6.334094269726019"><ele>1152.4</ele><time>2026-04-07T16:01:35Z</time></trkpt><trkpt lat="43.82327053382756" lon="6.334166701329195"><ele>1154.0</ele><time>2026-04-07T16:01:36Z</time></trkpt><trkpt lat="43.823218491286916" lon="6.334286587973027"><ele>1153.0</ele><time>2026-04-07T16:01:37Z</time></trkpt><trkpt lat="43.823165253463735" lon="6.334433631317381"><ele>1152.0</ele><time>2026-04-07T16:01:38Z</time></trkpt><trkpt lat="43.823076649869456" lon="6.334575455315457"><ele>1151.0</ele><time>2026-04-07T16:01:39Z</time></trkpt><trkpt lat="43.82299238091083" lon="6.3347609977752946"><ele>1150.0</ele><time>2026-04-07T16:01:40Z</time></trkpt><trkpt lat="43.82288081692357" lon="6.3349333574416935"><ele>1150.0</ele><time>2026-04-07T16:01:41Z</time></trkpt><trkpt lat="43.8227707257006" lon="6.335108503106282"><ele>1150.0</ele><time>2026-04-07T16:01:42Z</time></trkpt><trkpt lat="43.822672308253246" lon="6.335264501779626"><ele>1150.0</ele><time>2026-04-07T16:01:43Z</time></trkpt><trkpt lat="43.8225857205658" lon="6.33541253962787"><ele>1145.5</ele><time>2026-04-07T16:01:44Z</time></trkpt><trkpt lat="43.82249328964884" lon="6.335559327304255"><ele>1141.0</ele><time>2026-04-07T16:01:45Z</time></trkpt><trkpt lat="43.82241416044097" lon="6.335719591324707"><ele>1136.5</ele><time>2026-04-07T16:01:46Z</time></trkpt><trkpt lat="43.82238089157318" lon="6.335885649310323"><ele>1132.0</ele><time>2026-04-07T16:01:47Z</time></trkpt><trkpt lat="43.82236576687225" lon="6.336036211563686"><ele>1132.0</ele><time>2026-04-07T16:01:48Z</time></trkpt><trkpt lat="43.82236547589482" lon="6.336254339318126"><ele>1132.0</ele><time>2026-04-07T16:01:49Z</time></trkpt><trkpt lat="43.822379960944055" lon="6.336425125590863"><ele>1132.0</ele><time>2026-04-07T16:01:50Z</time></trkpt><trkpt lat="43.822397945744505" lon="6.336717791747168"><ele>1131.75</ele><time>2026-04-07T16:01:51Z</time></trkpt><trkpt lat="43.822417238419845" lon="6.3369282983944695"><ele>1131.5</ele><time>2026-04-07T16:01:52Z</time></trkpt><trkpt lat="43.82242460678802" lon="6.337133654650228"><ele>1131.25</ele><time>2026-04-07T16:01:53Z</time></trkpt><trkpt lat="43.8223725176802" lon="6.337312337491534"><ele>1131.0</ele><time>2026-04-07T16:01:54Z</time></trkpt><trkpt lat="43.82230994009428" lon="6.33747777031405"><ele>1131.0</ele><time>2026-04-07T16:01:55Z</time></trkpt><trkpt lat="43.82224139757228" lon="6.337641220607187"><ele>1131.0</ele><time>2026-04-07T16:01:56Z</time></trkpt><trkpt lat="43.82216520804574" lon="6.337815658873503"><ele>1131.0</ele><time>2026-04-07T16:01:57Z</time></trkpt><trkpt lat="43.82211856378818" lon="6.338011569246213"><ele>1131.0</ele><time>2026-04-07T16:01:58Z</time></trkpt><trkpt lat="43.82206568375154" lon="6.338199563988959"><ele>1131.5</ele><time>2026-04-07T16:01:59Z</time></trkpt><trkpt lat="43.822023307662164" lon="6.338408677446256"><ele>1132.0</ele><time>2026-04-07T16:02:00Z</time></trkpt><trkpt lat="43.82198253851859" lon="6.338602858201764"><ele>1132.5</ele><time>2026-04-07T16:02:01Z</time></trkpt><trkpt lat="43.821938246864846" lon="6.33878359038681"><ele>1133.0</ele><time>2026-04-07T16:02:02Z</time></trkpt><trkpt lat="43.82187792618891" lon="6.338948960106571"><ele>1129.0</ele><time>2026-04-07T16:02:03Z</time></trkpt><trkpt lat="43.82180815673809" lon="6.339097754618851"><ele>1125.0</ele><time>2026-04-07T16:02:04Z</time></trkpt><trkpt lat="43.82171832708981" lon="6.33918709739775"><ele>1121.0</ele><time>2026-04-07T16:02:05Z</time></trkpt><trkpt lat="43.82163159631567" lon="6.339183779443648"><ele>1117.0</ele><time>2026-04-07T16:02:06Z</time></trkpt><trkpt lat="43.8215438667022" lon="6.339171151609513"><ele>1113.0</ele><time>2026-04-07T16:02:07Z</time></trkpt><trkpt lat="43.82144786387279" lon="6.339184523638285"><ele>1113.0</ele><time>2026-04-07T16:02:08Z</time></trkpt><trkpt lat="43.82135336234705" lon="6.339231642883595"><ele>1113.0</ele><time>2026-04-07T16:02:09Z</time></trkpt><trkpt lat="43.821254253189664" lon="6.3392866517317445"><ele>1113.0</ele><time>2026-04-07T16:02:10Z</time></trkpt><trkpt lat="43.82118316865662" lon="6.339405388953717"><ele>1113.0</ele><time>2026-04-07T16:02:10.999Z</time></trkpt><trkpt lat="43.82113343271894" lon="6.339564166566619"><ele>1113.0</ele><time>2026-04-07T16:02:11.999Z</time></trkpt><trkpt lat="43.82109411933272" lon="6.339747121390974"><ele>1111.25</ele><time>2026-04-07T16:02:12.999Z</time></trkpt><trkpt lat="43.821024847307825" lon="6.339919447565282"><ele>1109.5</ele><time>2026-04-07T16:02:14Z</time></trkpt><trkpt lat="43.82089071496229" lon="6.340011189073731"><ele>1107.75</ele><time>2026-04-07T16:02:15Z</time></trkpt><trkpt lat="43.820755722104366" lon="6.340110834506592"><ele>1106.0</ele><time>2026-04-07T16:02:16Z</time></trkpt><trkpt lat="43.82060939404244" lon="6.340218081966491"><ele>1106.0</ele><time>2026-04-07T16:02:17Z</time></trkpt><trkpt lat="43.82048192025989" lon="6.340327567951331"><ele>1106.0</ele><time>2026-04-07T16:02:18Z</time></trkpt><trkpt lat="43.82036982978375" lon="6.340447267091854"><ele>1106.0</ele><time>2026-04-07T16:02:19Z</time></trkpt><trkpt lat="43.820242263835404" lon="6.340521997052512"><ele>1106.0</ele><time>2026-04-07T16:02:20Z</time></trkpt><trkpt lat="43.82011740657619" lon="6.340554892309728"><ele>1105.25</ele><time>2026-04-07T16:02:21Z</time></trkpt><trkpt lat="43.81998627889537" lon="6.34055613986649"><ele>1104.5</ele><time>2026-04-07T16:02:22Z</time></trkpt><trkpt lat="43.819843141459614" lon="6.340554712271178"><ele>1103.75</ele><time>2026-04-07T16:02:23Z</time></trkpt><trkpt lat="43.819695367917575" lon="6.34055265127921"><ele>1103.0</ele><time>2026-04-07T16:02:24Z</time></trkpt><trkpt lat="43.81955521179152" lon="6.340546088762114"><ele>1103.0</ele><time>2026-04-07T16:02:25Z</time></trkpt><trkpt lat="43.819429194864036" lon="6.34053820790879"><ele>1103.0</ele><time>2026-04-07T16:02:26Z</time></trkpt><trkpt lat="43.819324729491164" lon="6.3405553738152385"><ele>1103.0</ele><time>2026-04-07T16:02:27Z</time></trkpt><trkpt lat="43.81924103292235" lon="6.3405547080367715"><ele>1103.0</ele><time>2026-04-07T16:02:28Z</time></trkpt><trkpt lat="43.81916222420739" lon="6.340591500357648"><ele>1103.0</ele><time>2026-04-07T16:02:29Z</time></trkpt><trkpt lat="43.81908054685677" lon="6.340672527256493"><ele>1099.75</ele><time>2026-04-07T16:02:30Z</time></trkpt><trkpt lat="43.8190040506199" lon="6.340773410020279"><ele>1096.5</ele><time>2026-04-07T16:02:31Z</time></trkpt><trkpt lat="43.81894323893963" lon="6.340898185361599"><ele>1093.25</ele><time>2026-04-07T16:02:32Z</time></trkpt><trkpt lat="43.81889592263372" lon="6.341064549320926"><ele>1090.0</ele><time>2026-04-07T16:02:33Z</time></trkpt><trkpt lat="43.818851278565305" lon="6.341257559971514"><ele>1091.8</ele><time>2026-04-07T16:02:34Z</time></trkpt><trkpt lat="43.81880009703508" lon="6.341440945343389"><ele>1093.6</ele><time>2026-04-07T16:02:35Z</time></trkpt><trkpt lat="43.81875146393184" lon="6.34159367367476"><ele>1095.4</ele><time>2026-04-07T16:02:36Z</time></trkpt><trkpt lat="43.81871644828901" lon="6.341706458843734"><ele>1097.2</ele><time>2026-04-07T16:02:37Z</time></trkpt><trkpt lat="43.81869614241333" lon="6.341801279129242"><ele>1099.0</ele><time>2026-04-07T16:02:38Z</time></trkpt><trkpt lat="43.81869682884972" lon="6.341891760624233"><ele>1099.0</ele><time>2026-04-07T16:02:39Z</time></trkpt><trkpt lat="43.81871633264428" lon="6.34201275006647"><ele>1099.0</ele><time>2026-04-07T16:02:40Z</time></trkpt><trkpt lat="43.81873690100833" lon="6.342156455675171"><ele>1099.0</ele><time>2026-04-07T16:02:41Z</time></trkpt><trkpt lat="43.818732667852416" lon="6.34231120699978"><ele>1099.0</ele><time>2026-04-07T16:02:42Z</time></trkpt><trkpt lat="43.818654712014975" lon="6.342451203091886"><ele>1099.0</ele><time>2026-04-07T16:02:43Z</time></trkpt><trkpt lat="43.81859562282885" lon="6.342615185531851"><ele>1099.5</ele><time>2026-04-07T16:02:44Z</time></trkpt><trkpt lat="43.81852969649462" lon="6.342790591063704"><ele>1100.0</ele><time>2026-04-07T16:02:45Z</time></trkpt><trkpt lat="43.81846012015762" lon="6.342959921929297"><ele>1100.5</ele><time>2026-04-07T16:02:46Z</time></trkpt><trkpt lat="43.81838640371522" lon="6.343119406174364"><ele>1101.0</ele><time>2026-04-07T16:02:47Z</time></trkpt><trkpt lat="43.818312452723426" lon="6.343276528286474"><ele>1097.25</ele><time>2026-04-07T16:02:48Z</time></trkpt><trkpt lat="43.81825365605517" lon="6.343435306259972"><ele>1093.5</ele><time>2026-04-07T16:02:49Z</time></trkpt><trkpt lat="43.81820165616724" lon="6.343600839287544"><ele>1089.75</ele><time>2026-04-07T16:02:50Z</time></trkpt><trkpt lat="43.8181638999632" lon="6.343781195049463"><ele>1086.0</ele><time>2026-04-07T16:02:51Z</time></trkpt><trkpt lat="43.81815416467472" lon="6.343979022899278"><ele>1086.0</ele><time>2026-04-07T16:02:52Z</time></trkpt><trkpt lat="43.81814496710447" lon="6.344186010577463"><ele>1086.0</ele><time>2026-04-07T16:02:53Z</time></trkpt><trkpt lat="43.81813301095774" lon="6.3443435705248685"><ele>1086.0</ele><time>2026-04-07T16:02:54Z</time></trkpt><trkpt lat="43.81811150973134" lon="6.344475354660738"><ele>1086.0</ele><time>2026-04-07T16:02:55Z</time></trkpt><trkpt lat="43.81808797994717" lon="6.3446099177411455"><ele>1085.6</ele><time>2026-04-07T16:02:56Z</time></trkpt><trkpt lat="43.81808961068316" lon="6.3447485963061325"><ele>1085.1999999999998</ele><time>2026-04-07T16:02:57Z</time></trkpt><trkpt lat="43.81812994950852" lon="6.344887109107771"><ele>1084.8000000000002</ele><time>2026-04-07T16:02:58Z</time></trkpt><trkpt lat="43.81817623245782" lon="6.345014239021492"><ele>1084.4</ele><time>2026-04-07T16:02:59Z</time></trkpt><trkpt lat="43.8182284910294" lon="6.345141723233564"><ele>1084.0</ele><time>2026-04-07T16:03:00Z</time></trkpt><trkpt lat="43.81825975933714" lon="6.345273678339561"><ele>1084.0</ele><time>2026-04-07T16:03:01Z</time></trkpt><trkpt lat="43.818247708732244" lon="6.345416574870767"><ele>1084.0</ele><time>2026-04-07T16:03:02Z</time></trkpt><trkpt lat="43.81819624616567" lon="6.34556138598191"><ele>1084.0</ele><time>2026-04-07T16:03:03Z</time></trkpt><trkpt lat="43.8181287033513" lon="6.345706613028476"><ele>1084.0</ele><time>2026-04-07T16:03:04Z</time></trkpt><trkpt lat="43.81803355527883" lon="6.345820713683601"><ele>1084.0</ele><time>2026-04-07T16:03:05Z</time></trkpt><trkpt lat="43.81798701358127" lon="6.345957381912494"><ele>1084.0</ele><time>2026-04-07T16:03:06Z</time></trkpt><trkpt lat="43.81795325940666" lon="6.346098064931499"><ele>1084.0</ele><time>2026-04-07T16:03:07Z</time></trkpt><trkpt lat="43.817929697039816" lon="6.346256097788646"><ele>1084.0</ele><time>2026-04-07T16:03:08Z</time></trkpt><trkpt lat="43.8179162712322" lon="6.346411069898186"><ele>1084.0</ele><time>2026-04-07T16:03:09Z</time></trkpt><trkpt lat="43.817907277225295" lon="6.346566531535747"><ele>1083.5</ele><time>2026-04-07T16:03:10Z</time></trkpt><trkpt lat="43.817895937078426" lon="6.346730069336714"><ele>1083.0</ele><time>2026-04-07T16:03:11Z</time></trkpt><trkpt lat="43.81789269780395" lon="6.34689253417151"><ele>1082.5</ele><time>2026-04-07T16:03:12Z</time></trkpt><trkpt lat="43.817897689119086" lon="6.3470562660247944"><ele>1082.0</ele><time>2026-04-07T16:03:13Z</time></trkpt><trkpt lat="43.81791331719501" lon="6.347205391123455"><ele>1082.2</ele><time>2026-04-07T16:03:14Z</time></trkpt><trkpt lat="43.8179375430206" lon="6.347339046654468"><ele>1082.4</ele><time>2026-04-07T16:03:15Z</time></trkpt><trkpt lat="43.81796001862073" lon="6.347459562224991"><ele>1082.6</ele><time>2026-04-07T16:03:16Z</time></trkpt><trkpt lat="43.817953640324646" lon="6.347562064905564"><ele>1082.8</ele><time>2026-04-07T16:03:17Z</time></trkpt><trkpt lat="43.81796786117255" lon="6.347715623440478"><ele>1083.0</ele><time>2026-04-07T16:03:19Z</time></trkpt><trkpt lat="43.817943287446965" lon="6.347816951710379"><ele>1083.0</ele><time>2026-04-07T16:03:21Z</time></trkpt><trkpt lat="43.81788441113088" lon="6.347890322989194"><ele>1083.0</ele><time>2026-04-07T16:03:24Z</time></trkpt><trkpt lat="43.81792263007053" lon="6.347808253386767"><ele>1083.0</ele><time>2026-04-07T16:04:11Z</time></trkpt><trkpt lat="43.81789858774524" lon="6.3477131969288525"><ele>1083.0</ele><time>2026-04-07T16:04:11.999Z</time></trkpt><trkpt lat="43.817881134790554" lon="6.347583077906513"><ele>1083.0</ele><time>2026-04-07T16:04:12.999Z</time></trkpt><trkpt lat="43.8178388714435" lon="6.34741777781499"><ele>1083.0</ele><time>2026-04-07T16:04:13.999Z</time></trkpt><trkpt lat="43.817780453793674" lon="6.347245762340436"><ele>1082.75</ele><time>2026-04-07T16:04:14.999Z</time></trkpt><trkpt lat="43.81773975713915" lon="6.347061154061915"><ele>1082.5</ele><time>2026-04-07T16:04:15.999Z</time></trkpt><trkpt lat="43.817688170717936" lon="6.346883466918011"><ele>1082.25</ele><time>2026-04-07T16:04:16.999Z</time></trkpt><trkpt lat="43.817611454265624" lon="6.346723872538822"><ele>1082.0</ele><time>2026-04-07T16:04:17.999Z</time></trkpt><trkpt lat="43.81752207522817" lon="6.346579422711246"><ele>1074.75</ele><time>2026-04-07T16:04:19Z</time></trkpt><trkpt lat="43.8174310081623" lon="6.346478202810282"><ele>1067.5</ele><time>2026-04-07T16:04:20Z</time></trkpt><trkpt lat="43.817363755082226" lon="6.346379740151275"><ele>1060.25</ele><time>2026-04-07T16:04:21Z</time></trkpt><trkpt lat="43.817349201889755" lon="6.346228420804867"><ele>1053.0</ele><time>2026-04-07T16:04:22Z</time></trkpt><trkpt lat="43.81728972382596" lon="6.346067741397542"><ele>1053.0</ele><time>2026-04-07T16:04:23Z</time></trkpt><trkpt lat="43.81723048902154" lon="6.345896472505127"><ele>1053.0</ele><time>2026-04-07T16:04:24Z</time></trkpt><trkpt lat="43.81716665339621" lon="6.345761962690947"><ele>1053.0</ele><time>2026-04-07T16:04:25Z</time></trkpt><trkpt lat="43.81708849176315" lon="6.345647302069584"><ele>1053.0</ele><time>2026-04-07T16:04:26Z</time></trkpt><trkpt lat="43.81703613445895" lon="6.345514388543015"><ele>1055.25</ele><time>2026-04-07T16:04:27Z</time></trkpt><trkpt lat="43.816998031363276" lon="6.345343419098102"><ele>1057.5</ele><time>2026-04-07T16:04:28Z</time></trkpt><trkpt lat="43.816952686821416" lon="6.3451500079543015"><ele>1059.75</ele><time>2026-04-07T16:04:29Z</time></trkpt><trkpt lat="43.81691055480872" lon="6.344995438149109"><ele>1062.0</ele><time>2026-04-07T16:04:30Z</time></trkpt><trkpt lat="43.81688606970419" lon="6.344891307735969"><ele>1053.25</ele><time>2026-04-07T16:04:31Z</time></trkpt><trkpt lat="43.81681379740913" lon="6.344793329018344"><ele>1044.5</ele><time>2026-04-07T16:04:33Z</time></trkpt><trkpt lat="43.81672373803823" lon="6.344957118576072"><ele>1035.75</ele><time>2026-04-07T16:04:35Z</time></trkpt><trkpt lat="43.81675022834814" lon="6.345101084734764"><ele>1027.0</ele><time>2026-04-07T16:04:36Z</time></trkpt><trkpt lat="43.81674720267875" lon="6.345253857889164"><ele>1027.0</ele><time>2026-04-07T16:04:37Z</time></trkpt><trkpt lat="43.81673951000539" lon="6.345413911350335"><ele>1027.0</ele><time>2026-04-07T16:04:38Z</time></trkpt><trkpt lat="43.816708345670094" lon="6.34558540455398"><ele>1027.0</ele><time>2026-04-07T16:04:39Z</time></trkpt><trkpt lat="43.81669026695138" lon="6.345764071561934"><ele>1027.0</ele><time>2026-04-07T16:04:40Z</time></trkpt><trkpt lat="43.81667106821751" lon="6.345929998639532"><ele>1026.6</ele><time>2026-04-07T16:04:41Z</time></trkpt><trkpt lat="43.81667419192583" lon="6.346068557230134"><ele>1026.2</ele><time>2026-04-07T16:04:42Z</time></trkpt><trkpt lat="43.81668194018229" lon="6.346178117935392"><ele>1025.8</ele><time>2026-04-07T16:04:43Z</time></trkpt><trkpt lat="43.81663448712701" lon="6.346289395916146"><ele>1025.4</ele><time>2026-04-07T16:04:45Z</time></trkpt><trkpt lat="43.81654993422943" lon="6.346251697252809"><ele>1025.0</ele><time>2026-04-07T16:04:46Z</time></trkpt><trkpt lat="43.8165373876181" lon="6.3460426685135065"><ele>1025.0</ele><time>2026-04-07T16:04:48Z</time></trkpt><trkpt lat="43.816526832926534" lon="6.345900707998433"><ele>1025.0</ele><time>2026-04-07T16:04:49Z</time></trkpt><trkpt lat="43.81647301447625" lon="6.345787665024484"><ele>1025.0</ele><time>2026-04-07T16:04:50Z</time></trkpt><trkpt lat="43.816382224790175" lon="6.3457187372277675"><ele>1025.0</ele><time>2026-04-07T16:04:51Z</time></trkpt><trkpt lat="43.816279518099854" lon="6.345682908998428"><ele>1025.0</ele><time>2026-04-07T16:04:52Z</time></trkpt><trkpt lat="43.816207471873" lon="6.345586319796247"><ele>1025.4</ele><time>2026-04-07T16:04:53Z</time></trkpt><trkpt lat="43.81612724426732" lon="6.345486916215025"><ele>1025.8</ele><time>2026-04-07T16:04:54Z</time></trkpt><trkpt lat="43.816057115858996" lon="6.3453805665427465"><ele>1026.2</ele><time>2026-04-07T16:04:55Z</time></trkpt><trkpt lat="43.81601755518129" lon="6.345270297915189"><ele>1026.6</ele><time>2026-04-07T16:04:56Z</time></trkpt><trkpt lat="43.816020389754435" lon="6.345140894856475"><ele>1027.0</ele><time>2026-04-07T16:04:57Z</time></trkpt><trkpt lat="43.81604851186897" lon="6.345011748466416"><ele>1027.0</ele><time>2026-04-07T16:04:58Z</time></trkpt><trkpt lat="43.81608616337463" lon="6.3448494764347165"><ele>1027.0</ele><time>2026-04-07T16:04:59Z</time></trkpt><trkpt lat="43.81612296962467" lon="6.344686732214965"><ele>1027.0</ele><time>2026-04-07T16:05:00Z</time></trkpt><trkpt lat="43.81614194346867" lon="6.344568828871958"><ele>1027.0</ele><time>2026-04-07T16:05:01Z</time></trkpt><trkpt lat="43.81616772048389" lon="6.344454418769378"><ele>1027.0</ele><time>2026-04-07T16:05:03Z</time></trkpt><trkpt lat="43.81605816674017" lon="6.344428528421396"><ele>1026.0</ele><time>2026-04-07T16:05:05Z</time></trkpt><trkpt lat="43.81600437632076" lon="6.344525244394934"><ele>1025.0</ele><time>2026-04-07T16:05:06Z</time></trkpt><trkpt lat="43.81598205148936" lon="6.344665659606467"><ele>1024.0</ele><time>2026-04-07T16:05:07Z</time></trkpt><trkpt lat="43.815886484969276" lon="6.344770332818801"><ele>1023.0</ele><time>2026-04-07T16:05:08Z</time></trkpt><trkpt lat="43.815782124557245" lon="6.344892094435308"><ele>1016.25</ele><time>2026-04-07T16:05:09Z</time></trkpt><trkpt lat="43.81566254529575" lon="6.344984410633826"><ele>1009.5</ele><time>2026-04-07T16:05:10Z</time></trkpt><trkpt lat="43.81554078280207" lon="6.3450934531138445"><ele>1002.75</ele><time>2026-04-07T16:05:11Z</time></trkpt><trkpt lat="43.815424000742084" lon="6.345241354027288"><ele>996.0</ele><time>2026-04-07T16:05:12Z</time></trkpt><trkpt lat="43.81532248191097" lon="6.345401797504624"><ele>996.0</ele><time>2026-04-07T16:05:13Z</time></trkpt><trkpt lat="43.81520718005857" lon="6.345560465081179"><ele>996.0</ele><time>2026-04-07T16:05:14Z</time></trkpt><trkpt lat="43.81510829707661" lon="6.345700977879748"><ele>996.0</ele><time>2026-04-07T16:05:15Z</time></trkpt><trkpt lat="43.815027692944845" lon="6.345830448633219"><ele>996.0</ele><time>2026-04-07T16:05:16Z</time></trkpt><trkpt lat="43.814944127353506" lon="6.345911559405427"><ele>991.4</ele><time>2026-04-07T16:05:17Z</time></trkpt><trkpt lat="43.81489433179359" lon="6.345992265637509"><ele>986.8</ele><time>2026-04-07T16:05:18Z</time></trkpt><trkpt lat="43.81476022827714" lon="6.345938747884409"><ele>982.1999999999999</ele><time>2026-04-07T16:05:20Z</time></trkpt><trkpt lat="43.81467477739816" lon="6.345835459215101"><ele>977.5999999999999</ele><time>2026-04-07T16:05:21Z</time></trkpt><trkpt lat="43.814601794865084" lon="6.345731077063723"><ele>973.0</ele><time>2026-04-07T16:05:22Z</time></trkpt><trkpt lat="43.81454875849346" lon="6.345627338693863"><ele>971.4</ele><time>2026-04-07T16:05:23Z</time></trkpt><trkpt lat="43.814520493213735" lon="6.345521021038709"><ele>969.8</ele><time>2026-04-07T16:05:24Z</time></trkpt><trkpt lat="43.81450400798962" lon="6.345418622715252"><ele>968.2</ele><time>2026-04-07T16:05:25Z</time></trkpt><trkpt lat="43.81453075238997" lon="6.345278438845817"><ele>966.6</ele><time>2026-04-07T16:05:26Z</time></trkpt><trkpt lat="43.81457297635241" lon="6.345156857535473"><ele>965.0</ele><time>2026-04-07T16:05:27Z</time></trkpt><trkpt lat="43.81461785566535" lon="6.345001324607869"><ele>965.0</ele><time>2026-04-07T16:05:28Z</time></trkpt><trkpt lat="43.8146458481576" lon="6.344826805411485"><ele>965.0</ele><time>2026-04-07T16:05:29Z</time></trkpt><trkpt lat="43.814690448749786" lon="6.344652435611348"><ele>965.0</ele><time>2026-04-07T16:05:30Z</time></trkpt><trkpt lat="43.81472692701045" lon="6.3444985645188465"><ele>965.0</ele><time>2026-04-07T16:05:31Z</time></trkpt><trkpt lat="43.81477795168915" lon="6.3444012442033"><ele>961.2</ele><time>2026-04-07T16:05:32Z</time></trkpt><trkpt lat="43.814872956373016" lon="6.3443705637963665"><ele>957.4</ele><time>2026-04-07T16:05:33Z</time></trkpt><trkpt lat="43.81490891103532" lon="6.344266544736581"><ele>953.5999999999999</ele><time>2026-04-07T16:05:35Z</time></trkpt><trkpt lat="43.81479903418733" lon="6.344236255703706"><ele>949.8</ele><time>2026-04-07T16:05:37Z</time></trkpt><trkpt lat="43.81470233398557" lon="6.344292624864493"><ele>946.0</ele><time>2026-04-07T16:05:38Z</time></trkpt><trkpt lat="43.814584722800326" lon="6.344317756950001"><ele>946.0</ele><time>2026-04-07T16:05:39Z</time></trkpt><trkpt lat="43.814504485238785" lon="6.344394688663456"><ele>945.9999999999999</ele><time>2026-04-07T16:05:40Z</time></trkpt><trkpt lat="43.81442862257315" lon="6.34438834294558"><ele>945.9999999999999</ele><time>2026-04-07T16:05:42Z</time></trkpt><trkpt lat="43.8144941935995" lon="6.344255066893352"><ele>946.0</ele><time>2026-04-07T16:05:44Z</time></trkpt><trkpt lat="43.814572913862094" lon="6.344221860763516"><ele>946.0</ele><time>2026-04-07T16:05:45Z</time></trkpt><trkpt lat="43.81467220257274" lon="6.344118912407433"><ele>946.0</ele><time>2026-04-07T16:05:46Z</time></trkpt><trkpt lat="43.81476269278605" lon="6.343978344924736"><ele>946.0</ele><time>2026-04-07T16:05:47Z</time></trkpt><trkpt lat="43.81488374424934" lon="6.3438204357666885"><ele>946.0</ele><time>2026-04-07T16:05:48Z</time></trkpt><trkpt lat="43.81497033672022" lon="6.3436730716834075"><ele>946.0</ele><time>2026-04-07T16:05:49Z</time></trkpt><trkpt lat="43.81503855678983" lon="6.343513484655168"><ele>949.25</ele><time>2026-04-07T16:05:50Z</time></trkpt><trkpt lat="43.815086686198526" lon="6.343372964911988"><ele>952.5</ele><time>2026-04-07T16:05:51Z</time></trkpt><trkpt lat="43.81512352496528" lon="6.343280743388858"><ele>955.75</ele><time>2026-04-07T16:05:52Z</time></trkpt><trkpt lat="43.81515804795949" lon="6.343141804182063"><ele>959.0</ele><time>2026-04-07T16:05:54Z</time></trkpt><trkpt lat="43.81499834379809" lon="6.343075746020574"><ele>955.1666666666667</ele><time>2026-04-07T16:05:56Z</time></trkpt><trkpt lat="43.814897354069224" lon="6.34308454875936"><ele>951.3333333333334</ele><time>2026-04-07T16:05:57Z</time></trkpt><trkpt lat="43.81485085192993" lon="6.343018481689138"><ele>947.5</ele><time>2026-04-07T16:05:58Z</time></trkpt><trkpt lat="43.81480988988508" lon="6.342930719186352"><ele>943.6666666666667</ele><time>2026-04-07T16:06:00Z</time></trkpt><trkpt lat="43.814885844485836" lon="6.342853922509356"><ele>939.8333333333334</ele><time>2026-04-07T16:06:01Z</time></trkpt><trkpt lat="43.81496192365699" lon="6.342747202172345"><ele>936.0</ele><time>2026-04-07T16:06:02Z</time></trkpt><trkpt lat="43.815078634017794" lon="6.342646853043818"><ele>936.0</ele><time>2026-04-07T16:06:03Z</time></trkpt><trkpt lat="43.81520839738441" lon="6.342595477232063"><ele>936.0</ele><time>2026-04-07T16:06:04Z</time></trkpt><trkpt lat="43.81527339060184" lon="6.342539197907414"><ele>936.0</ele><time>2026-04-07T16:06:05Z</time></trkpt><trkpt lat="43.81517620500298" lon="6.342389734781544"><ele>936.0</ele><time>2026-04-07T16:06:08Z</time></trkpt><trkpt lat="43.81508803647863" lon="6.342490581722718"><ele>936.0</ele><time>2026-04-07T16:06:09Z</time></trkpt><trkpt lat="43.81499085518022" lon="6.342577282673316"><ele>936.0</ele><time>2026-04-07T16:06:09.999Z</time></trkpt><trkpt lat="43.81486483188254" lon="6.342699699350943"><ele>936.0</ele><time>2026-04-07T16:06:10.999Z</time></trkpt><trkpt lat="43.814722467966114" lon="6.342825612357976"><ele>936.0</ele><time>2026-04-07T16:06:11.999Z</time></trkpt><trkpt lat="43.81458017407229" lon="6.342914506052329"><ele>936.0</ele><time>2026-04-07T16:06:12.999Z</time></trkpt><trkpt lat="43.81442415580491" lon="6.342990590904972"><ele>936.0</ele><time>2026-04-07T16:06:13.999Z</time></trkpt><trkpt lat="43.81425147964377" lon="6.343069381064733"><ele>936.0</ele><time>2026-04-07T16:06:14.999Z</time></trkpt><trkpt lat="43.81408483614076" lon="6.343165962357886"><ele>936.3333333333333</ele><time>2026-04-07T16:06:15.999Z</time></trkpt><trkpt lat="43.81393512724466" lon="6.343283491992548"><ele>936.6666666666666</ele><time>2026-04-07T16:06:16.999Z</time></trkpt><trkpt lat="43.81378757281284" lon="6.343436751070711"><ele>937.0</ele><time>2026-04-07T16:06:17.999Z</time></trkpt><trkpt lat="43.81366088308932" lon="6.343579131471093"><ele>937.0</ele><time>2026-04-07T16:06:18.999Z</time></trkpt><trkpt lat="43.81356247946494" lon="6.343698127296524"><ele>937.0</ele><time>2026-04-07T16:06:19.999Z</time></trkpt><trkpt lat="43.813504644395735" lon="6.343886954598058"><ele>937.0</ele><time>2026-04-07T16:06:20.999Z</time></trkpt><trkpt lat="43.813433137751225" lon="6.344076267316139"><ele>937.0</ele><time>2026-04-07T16:06:21.999Z</time></trkpt><trkpt lat="43.813322174365126" lon="6.344193600392093"><ele>940.3333333333333</ele><time>2026-04-07T16:06:22.999Z</time></trkpt><trkpt lat="43.81318598167409" lon="6.344332717793586"><ele>943.6666666666667</ele><time>2026-04-07T16:06:24Z</time></trkpt><trkpt lat="43.81302248935805" lon="6.344523823814632"><ele>947.0</ele><time>2026-04-07T16:06:25Z</time></trkpt><trkpt lat="43.8128631933613" lon="6.344747625396803"><ele>954.5</ele><time>2026-04-07T16:06:26Z</time></trkpt><trkpt lat="43.812699618940236" lon="6.345008808734403"><ele>962.0</ele><time>2026-04-07T16:06:27Z</time></trkpt><trkpt lat="43.81252224019946" lon="6.345275693107231"><ele>962.0</ele><time>2026-04-07T16:06:28Z</time></trkpt><trkpt lat="43.81236994138503" lon="6.345516424502666"><ele>962.0</ele><time>2026-04-07T16:06:29Z</time></trkpt><trkpt lat="43.812238650934404" lon="6.345743134918087"><ele>962.0</ele><time>2026-04-07T16:06:30Z</time></trkpt><trkpt lat="43.812134802238035" lon="6.345934393906537"><ele>961.6666666666667</ele><time>2026-04-07T16:06:31Z</time></trkpt><trkpt lat="43.811992231417946" lon="6.346093366562648"><ele>961.3333333333333</ele><time>2026-04-07T16:06:32Z</time></trkpt><trkpt lat="43.81187712607034" lon="6.34630252635162"><ele>961.0</ele><time>2026-04-07T16:06:33Z</time></trkpt><trkpt lat="43.811766351249375" lon="6.346477483819264"><ele>961.0</ele><time>2026-04-07T16:06:34Z</time></trkpt><trkpt lat="43.81167542103699" lon="6.3466344738185825"><ele>961.0</ele><time>2026-04-07T16:06:35Z</time></trkpt><trkpt lat="43.81158729719035" lon="6.34677722695903"><ele>961.0</ele><time>2026-04-07T16:06:36Z</time></trkpt><trkpt lat="43.811512956317586" lon="6.346892990359052"><ele>961.0</ele><time>2026-04-07T16:06:37Z</time></trkpt><trkpt lat="43.81140524548188" lon="6.34698960101271"><ele>961.0</ele><time>2026-04-07T16:06:38Z</time></trkpt><trkpt lat="43.811281586477236" lon="6.3470999599378395"><ele>961.0</ele><time>2026-04-07T16:06:39Z</time></trkpt><trkpt lat="43.8111526581427" lon="6.347191869257059"><ele>961.0</ele><time>2026-04-07T16:06:40Z</time></trkpt><trkpt lat="43.81104388318144" lon="6.347246855754816"><ele>961.0</ele><time>2026-04-07T16:06:41Z</time></trkpt><trkpt lat="43.810973254492616" lon="6.347259601037483"><ele>958.1999999999999</ele><time>2026-04-07T16:06:42Z</time></trkpt><trkpt lat="43.81088777855027" lon="6.347243097124211"><ele>955.3999999999999</ele><time>2026-04-07T16:06:43Z</time></trkpt><trkpt lat="43.810781594755376" lon="6.347225786675688"><ele>952.6</ele><time>2026-04-07T16:06:44Z</time></trkpt><trkpt lat="43.810672676523986" lon="6.34721720938408"><ele>949.8</ele><time>2026-04-07T16:06:45Z</time></trkpt><trkpt lat="43.81056385595267" lon="6.347167217914477"><ele>947.0</ele><time>2026-04-07T16:06:46Z</time></trkpt><trkpt lat="43.81044907427285" lon="6.347091765222135"><ele>957.3333333333334</ele><time>2026-04-07T16:06:47Z</time></trkpt><trkpt lat="43.81030492264773" lon="6.347068686529517"><ele>967.6666666666667</ele><time>2026-04-07T16:06:48Z</time></trkpt><trkpt lat="43.81014288793376" lon="6.347032369607817"><ele>978.0</ele><time>2026-04-07T16:06:49Z</time></trkpt><trkpt lat="43.80996959282078" lon="6.347000447282658"><ele>978.0</ele><time>2026-04-07T16:06:50Z</time></trkpt><trkpt lat="43.809801013582685" lon="6.346969952296543"><ele>978.0</ele><time>2026-04-07T16:06:51Z</time></trkpt><trkpt lat="43.809635649913616" lon="6.346948462368689"><ele>978.0</ele><time>2026-04-07T16:06:52Z</time></trkpt><trkpt lat="43.80948334928214" lon="6.34693833082905"><ele>978.0</ele><time>2026-04-07T16:06:53Z</time></trkpt><trkpt lat="43.80933273677998" lon="6.3469253414643765"><ele>978.0</ele><time>2026-04-07T16:06:54Z</time></trkpt><trkpt lat="43.80920019941524" lon="6.346907901990656"><ele>978.0</ele><time>2026-04-07T16:06:55Z</time></trkpt><trkpt lat="43.80907184538167" lon="6.34688574312147"><ele>978.0</ele><time>2026-04-07T16:06:56Z</time></trkpt><trkpt lat="43.80895000791266" lon="6.346841241059349"><ele>978.25</ele><time>2026-04-07T16:06:57Z</time></trkpt><trkpt lat="43.808810510682164" lon="6.346761178700706"><ele>978.5</ele><time>2026-04-07T16:06:58Z</time></trkpt><trkpt lat="43.80867230176477" lon="6.346672807053755"><ele>978.75</ele><time>2026-04-07T16:06:59Z</time></trkpt><trkpt lat="43.808551342431166" lon="6.346608720320534"><ele>979.0</ele><time>2026-04-07T16:07:00Z</time></trkpt><trkpt lat="43.80843242004112" lon="6.346538733312039"><ele>978.5</ele><time>2026-04-07T16:07:01Z</time></trkpt><trkpt lat="43.80832829650439" lon="6.346468823285654"><ele>978.0</ele><time>2026-04-07T16:07:02Z</time></trkpt><trkpt lat="43.80823022140943" lon="6.346404521046491"><ele>977.5</ele><time>2026-04-07T16:07:03Z</time></trkpt><trkpt lat="43.80812793453188" lon="6.346333929060452"><ele>977.0</ele><time>2026-04-07T16:07:04Z</time></trkpt><trkpt lat="43.80805614378569" lon="6.346216439175837"><ele>981.0</ele><time>2026-04-07T16:07:05Z</time></trkpt><trkpt lat="43.80799373647884" lon="6.346087629888201"><ele>985.0</ele><time>2026-04-07T16:07:06Z</time></trkpt><trkpt lat="43.807923412816066" lon="6.345960700023551"><ele>989.0</ele><time>2026-04-07T16:07:07Z</time></trkpt><trkpt lat="43.80787191961657" lon="6.345834214523657"><ele>993.0</ele><time>2026-04-07T16:07:08Z</time></trkpt><trkpt lat="43.80781426734461" lon="6.34572133302871"><ele>997.0</ele><time>2026-04-07T16:07:09Z</time></trkpt><trkpt lat="43.80778661302264" lon="6.345597806368318"><ele>999.6</ele><time>2026-04-07T16:07:10Z</time></trkpt><trkpt lat="43.8077802856429" lon="6.345467136981873"><ele>1002.2</ele><time>2026-04-07T16:07:11Z</time></trkpt><trkpt lat="43.807786880333374" lon="6.34531439117826"><ele>1004.8</ele><time>2026-04-07T16:07:12Z</time></trkpt><trkpt lat="43.8077739448506" lon="6.345146713189408"><ele>1007.4</ele><time>2026-04-07T16:07:13Z</time></trkpt><trkpt lat="43.80778318503567" lon="6.344993627573136"><ele>1010.0</ele><time>2026-04-07T16:07:14Z</time></trkpt><trkpt lat="43.807785560606476" lon="6.344870619978946"><ele>1010.0</ele><time>2026-04-07T16:07:15Z</time></trkpt><trkpt lat="43.80777835964744" lon="6.344781811170779"><ele>1010.0</ele><time>2026-04-07T16:07:16Z</time></trkpt><trkpt lat="43.80773812452089" lon="6.344712279210482"><ele>1010.0</ele><time>2026-04-07T16:07:17Z</time></trkpt><trkpt lat="43.80766469541441" lon="6.344654378984457"><ele>1010.0</ele><time>2026-04-07T16:07:18Z</time></trkpt><trkpt lat="43.80754672179561" lon="6.34469392355763"><ele>1010.0</ele><time>2026-04-07T16:07:19Z</time></trkpt><trkpt lat="43.807432081434186" lon="6.344733332200194"><ele>1010.75</ele><time>2026-04-07T16:07:20Z</time></trkpt><trkpt lat="43.807302568001866" lon="6.344711888840022"><ele>1011.5</ele><time>2026-04-07T16:07:21Z</time></trkpt><trkpt lat="43.80716925375887" lon="6.3447113691004855"><ele>1012.25</ele><time>2026-04-07T16:07:22Z</time></trkpt><trkpt lat="43.80702753875134" lon="6.344729563474337"><ele>1013.0</ele><time>2026-04-07T16:07:23Z</time></trkpt><trkpt lat="43.806882741067504" lon="6.344727559757297"><ele>1013.5</ele><time>2026-04-07T16:07:24Z</time></trkpt><trkpt lat="43.8067298323801" lon="6.344706634440662"><ele>1014.0</ele><time>2026-04-07T16:07:25Z</time></trkpt><trkpt lat="43.806590976271586" lon="6.344686265683976"><ele>1014.5</ele><time>2026-04-07T16:07:26Z</time></trkpt><trkpt lat="43.80646914211129" lon="6.3446492126446445"><ele>1015.0</ele><time>2026-04-07T16:07:27Z</time></trkpt><trkpt lat="43.80633529066248" lon="6.34459235044353"><ele>1015.0</ele><time>2026-04-07T16:07:28Z</time></trkpt><trkpt lat="43.806196035240305" lon="6.344526691922592"><ele>1015.0</ele><time>2026-04-07T16:07:29Z</time></trkpt><trkpt lat="43.80604212054215" lon="6.344483676613315"><ele>1015.0</ele><time>2026-04-07T16:07:30Z</time></trkpt><trkpt lat="43.80588954818742" lon="6.344418736527526"><ele>1015.25</ele><time>2026-04-07T16:07:31Z</time></trkpt><trkpt lat="43.805737971193345" lon="6.344379414257167"><ele>1015.5</ele><time>2026-04-07T16:07:32Z</time></trkpt><trkpt lat="43.80559212618535" lon="6.344329448551379"><ele>1015.75</ele><time>2026-04-07T16:07:33Z</time></trkpt><trkpt lat="43.80546516500626" lon="6.34427558293578"><ele>1016.0</ele><time>2026-04-07T16:07:34Z</time></trkpt><trkpt lat="43.805346473044324" lon="6.344219703878226"><ele>1016.0</ele><time>2026-04-07T16:07:35Z</time></trkpt><trkpt lat="43.80521825084565" lon="6.344156599689555"><ele>1015.9999999999999</ele><time>2026-04-07T16:07:36Z</time></trkpt><trkpt lat="43.80509771159847" lon="6.344141827355955"><ele>1015.9999999999999</ele><time>2026-04-07T16:07:37Z</time></trkpt><trkpt lat="43.80501893791558" lon="6.3441974782336885"><ele>1016.0</ele><time>2026-04-07T16:07:38Z</time></trkpt><trkpt lat="43.80493161509815" lon="6.34413983049734"><ele>1016.0</ele><time>2026-04-07T16:07:40Z</time></trkpt><trkpt lat="43.80490084763517" lon="6.344044240205769"><ele>1016.6666666666667</ele><time>2026-04-07T16:07:41Z</time></trkpt><trkpt lat="43.80485262367136" lon="6.34394919261755"><ele>1017.3333333333334</ele><time>2026-04-07T16:07:42Z</time></trkpt><trkpt lat="43.804768917512796" lon="6.343871698546899"><ele>1018.0</ele><time>2026-04-07T16:07:43Z</time></trkpt><trkpt lat="43.80468190218503" lon="6.3438034341113365"><ele>1018.6666666666667</ele><time>2026-04-07T16:07:44Z</time></trkpt><trkpt lat="43.804613097843216" lon="6.343727845071034"><ele>1019.3333333333334</ele><time>2026-04-07T16:07:45Z</time></trkpt><trkpt lat="43.804577401175145" lon="6.343643506037605"><ele>1020.0</ele><time>2026-04-07T16:07:46Z</time></trkpt><trkpt lat="43.80455849087173" lon="6.343545277749756"><ele>1020.8</ele><time>2026-04-07T16:07:47Z</time></trkpt><trkpt lat="43.804479390408034" lon="6.343460779699067"><ele>1021.6</ele><time>2026-04-07T16:07:49Z</time></trkpt><trkpt lat="43.80439605304795" lon="6.343508648956807"><ele>1022.4000000000001</ele><time>2026-04-07T16:07:50Z</time></trkpt><trkpt lat="43.804304925569774" lon="6.343577746591801"><ele>1023.2</ele><time>2026-04-07T16:07:51Z</time></trkpt><trkpt lat="43.80420463568011" lon="6.3436614302747545"><ele>1024.0</ele><time>2026-04-07T16:07:52Z</time></trkpt><trkpt lat="43.80410348905131" lon="6.343734800604893"><ele>1022.0</ele><time>2026-04-07T16:07:53Z</time></trkpt><trkpt lat="43.80403594329573" lon="6.343769917155018"><ele>1020.0000000000001</ele><time>2026-04-07T16:07:54Z</time></trkpt><trkpt lat="43.80393424645924" lon="6.34371801698206"><ele>1018.0000000000001</ele><time>2026-04-07T16:07:56Z</time></trkpt><trkpt lat="43.803886166205594" lon="6.343644528538713"><ele>1016.0</ele><time>2026-04-07T16:07:58Z</time></trkpt><trkpt lat="43.80376837031008" lon="6.343689559059969"><ele>1014.0</ele><time>2026-04-07T16:08:00Z</time></trkpt><trkpt lat="43.80363340187523" lon="6.343744299285403"><ele>1014.0</ele><time>2026-04-07T16:08:02Z</time></trkpt><trkpt lat="43.803526673981054" lon="6.343768960285981"><ele>1014.0</ele><time>2026-04-07T16:08:03Z</time></trkpt><trkpt lat="43.80340596045293" lon="6.343802324254135"><ele>1014.0</ele><time>2026-04-07T16:08:04Z</time></trkpt><trkpt lat="43.803278434414224" lon="6.343816258714846"><ele>1014.0</ele><time>2026-04-07T16:08:05Z</time></trkpt><trkpt lat="43.80315903905169" lon="6.343779350036458"><ele>1013.0</ele><time>2026-04-07T16:08:06Z</time></trkpt><trkpt lat="43.803025605043295" lon="6.343766847221113"><ele>1012.0</ele><time>2026-04-07T16:08:07Z</time></trkpt><trkpt lat="43.802902481239336" lon="6.343723962946367"><ele>1011.0</ele><time>2026-04-07T16:08:08Z</time></trkpt><trkpt lat="43.80275611095349" lon="6.34368748246684"><ele>1010.0</ele><time>2026-04-07T16:08:09Z</time></trkpt><trkpt lat="43.802602197703436" lon="6.343648763865806"><ele>1009.0</ele><time>2026-04-07T16:08:10Z</time></trkpt><trkpt lat="43.8024416554495" lon="6.34360284079014"><ele>1008.0</ele><time>2026-04-07T16:08:11Z</time></trkpt><trkpt lat="43.80228262942222" lon="6.343562167699899"><ele>1007.0</ele><time>2026-04-07T16:08:12Z</time></trkpt><trkpt lat="43.802132156012036" lon="6.343489423887665"><ele>1007.0</ele><time>2026-04-07T16:08:13Z</time></trkpt><trkpt lat="43.80196984809229" lon="6.343423279167798"><ele>1007.0</ele><time>2026-04-07T16:08:14Z</time></trkpt><trkpt lat="43.80180048626196" lon="6.343342053187264"><ele>1007.0</ele><time>2026-04-07T16:08:15Z</time></trkpt><trkpt lat="43.80165358551851" lon="6.343247784491145"><ele>1007.25</ele><time>2026-04-07T16:08:16Z</time></trkpt><trkpt lat="43.801522974499086" lon="6.343156027303612"><ele>1007.5</ele><time>2026-04-07T16:08:17Z</time></trkpt><trkpt lat="43.80141403783067" lon="6.343027328610378"><ele>1007.75</ele><time>2026-04-07T16:08:18Z</time></trkpt><trkpt lat="43.80131872227716" lon="6.342883841125703"><ele>1008.0</ele><time>2026-04-07T16:08:19Z</time></trkpt><trkpt lat="43.801219597532096" lon="6.342774482123723"><ele>1008.0</ele><time>2026-04-07T16:08:20Z</time></trkpt><trkpt lat="43.801097514377155" lon="6.342701309446492"><ele>1008.0</ele><time>2026-04-07T16:08:21Z</time></trkpt><trkpt lat="43.80095249557667" lon="6.342650193699212"><ele>1008.0</ele><time>2026-04-07T16:08:22Z</time></trkpt><trkpt lat="43.80079802633679" lon="6.342619082740579"><ele>1008.0</ele><time>2026-04-07T16:08:23Z</time></trkpt><trkpt lat="43.800646827454315" lon="6.342582509177067"><ele>1010.0</ele><time>2026-04-07T16:08:24Z</time></trkpt><trkpt lat="43.80048907644502" lon="6.342537407520111"><ele>1012.0</ele><time>2026-04-07T16:08:24.999Z</time></trkpt><trkpt lat="43.80034475282097" lon="6.342484737528699"><ele>1014.0</ele><time>2026-04-07T16:08:25.999Z</time></trkpt><trkpt lat="43.80018766340839" lon="6.342437360480848"><ele>1013.3333333333333</ele><time>2026-04-07T16:08:26.999Z</time></trkpt><trkpt lat="43.80003058417247" lon="6.3424002712004475"><ele>1012.6666666666666</ele><time>2026-04-07T16:08:27.999Z</time></trkpt><trkpt lat="43.79988045693795" lon="6.34235201755462"><ele>1012.0</ele><time>2026-04-07T16:08:28.999Z</time></trkpt><trkpt lat="43.79973762731801" lon="6.342307387237762"><ele>1012.0</ele><time>2026-04-07T16:08:30Z</time></trkpt><trkpt lat="43.79960347141895" lon="6.342266128566629"><ele>1012.0</ele><time>2026-04-07T16:08:31Z</time></trkpt><trkpt lat="43.799479672368754" lon="6.3422316651078825"><ele>1012.0</ele><time>2026-04-07T16:08:32Z</time></trkpt><trkpt lat="43.79936681775776" lon="6.342206172292032"><ele>1012.0</ele><time>2026-04-07T16:08:33Z</time></trkpt><trkpt lat="43.799276262757985" lon="6.342134139655857"><ele>1013.6</ele><time>2026-04-07T16:08:34Z</time></trkpt><trkpt lat="43.79919686248631" lon="6.342079952665404"><ele>1015.2</ele><time>2026-04-07T16:08:35Z</time></trkpt><trkpt lat="43.7991515379692" lon="6.341961242882429"><ele>1016.8</ele><time>2026-04-07T16:08:36Z</time></trkpt><trkpt lat="43.79913407372079" lon="6.34183628935444"><ele>1018.4</ele><time>2026-04-07T16:08:37Z</time></trkpt><trkpt lat="43.799106776056036" lon="6.341712650428931"><ele>1020.0</ele><time>2026-04-07T16:08:38Z</time></trkpt><trkpt lat="43.79908510056324" lon="6.341592658072261"><ele>1020.0</ele><time>2026-04-07T16:08:39Z</time></trkpt><trkpt lat="43.799056542477445" lon="6.341459102720025"><ele>1020.0</ele><time>2026-04-07T16:08:40Z</time></trkpt><trkpt lat="43.7990410196753" lon="6.341302538802058"><ele>1020.0</ele><time>2026-04-07T16:08:41Z</time></trkpt><trkpt lat="43.799031425401346" lon="6.341155797954829"><ele>1020.0</ele><time>2026-04-07T16:08:42Z</time></trkpt><trkpt lat="43.799032469938645" lon="6.341015136028742"><ele>1020.0</ele><time>2026-04-07T16:08:43Z</time></trkpt><trkpt lat="43.79904273228454" lon="6.340881858167556"><ele>1020.2</ele><time>2026-04-07T16:08:44Z</time></trkpt><trkpt lat="43.79905865686279" lon="6.340751963346124"><ele>1020.4</ele><time>2026-04-07T16:08:45Z</time></trkpt><trkpt lat="43.79907339547358" lon="6.340607409282945"><ele>1020.5999999999999</ele><time>2026-04-07T16:08:46Z</time></trkpt><trkpt lat="43.79909654942555" lon="6.34046131764491"><ele>1020.8</ele><time>2026-04-07T16:08:47Z</time></trkpt><trkpt lat="43.79913544287864" lon="6.340307954637865"><ele>1021.0</ele><time>2026-04-07T16:08:48Z</time></trkpt><trkpt lat="43.79918707124654" lon="6.340154982769488"><ele>1020.1999999999999</ele><time>2026-04-07T16:08:49Z</time></trkpt><trkpt lat="43.79924822171244" lon="6.340010112111259"><ele>1019.3999999999999</ele><time>2026-04-07T16:08:50Z</time></trkpt><trkpt lat="43.79931818728089" lon="6.339872420327164"><ele>1018.6</ele><time>2026-04-07T16:08:51Z</time></trkpt><trkpt lat="43.79938312650702" lon="6.339760124892211"><ele>1017.8</ele><time>2026-04-07T16:08:52Z</time></trkpt><trkpt lat="43.7994230330978" lon="6.3396623858079515"><ele>1017.0</ele><time>2026-04-07T16:08:53Z</time></trkpt><trkpt lat="43.79942801756986" lon="6.339546508255675"><ele>1017.0</ele><time>2026-04-07T16:08:54Z</time></trkpt><trkpt lat="43.799405361147386" lon="6.3393785758776415"><ele>1017.0</ele><time>2026-04-07T16:08:55Z</time></trkpt><trkpt lat="43.799361950045395" lon="6.339200631505094"><ele>1017.0</ele><time>2026-04-07T16:08:56Z</time></trkpt><trkpt lat="43.79930089954095" lon="6.339003153684582"><ele>1017.0</ele><time>2026-04-07T16:08:57Z</time></trkpt><trkpt lat="43.79923382403997" lon="6.3388450412293444"><ele>1021.0</ele><time>2026-04-07T16:08:58Z</time></trkpt><trkpt lat="43.799151521482514" lon="6.338722801536824"><ele>1025.0</ele><time>2026-04-07T16:08:59Z</time></trkpt><trkpt lat="43.799055237162925" lon="6.338600123846345"><ele>1029.0</ele><time>2026-04-07T16:09:00Z</time></trkpt><trkpt lat="43.79897101921234" lon="6.338458774875499"><ele>1033.0</ele><time>2026-04-07T16:09:01Z</time></trkpt><trkpt lat="43.79892696236871" lon="6.338268001634412"><ele>1033.0</ele><time>2026-04-07T16:09:02Z</time></trkpt><trkpt lat="43.79884009611224" lon="6.338110847876694"><ele>1033.0</ele><time>2026-04-07T16:09:03Z</time></trkpt><trkpt lat="43.798753160580596" lon="6.3379495034943885"><ele>1033.0</ele><time>2026-04-07T16:09:04Z</time></trkpt><trkpt lat="43.79866266378807" lon="6.337802031706412"><ele>1033.0</ele><time>2026-04-07T16:09:05Z</time></trkpt><trkpt lat="43.79858154673497" lon="6.337660348674641"><ele>1032.8</ele><time>2026-04-07T16:09:06Z</time></trkpt><trkpt lat="43.798510615756726" lon="6.3375267870736085"><ele>1032.6</ele><time>2026-04-07T16:09:07Z</time></trkpt><trkpt lat="43.79845419726516" lon="6.337406981768081"><ele>1032.4</ele><time>2026-04-07T16:09:08Z</time></trkpt><trkpt lat="43.798396391755546" lon="6.337329505548824"><ele>1032.2</ele><time>2026-04-07T16:09:09Z</time></trkpt><trkpt lat="43.79832242717959" lon="6.337292000386684"><ele>1032.0</ele><time>2026-04-07T16:09:10Z</time></trkpt><trkpt lat="43.79824254091288" lon="6.337300588236849"><ele>1033.75</ele><time>2026-04-07T16:09:11Z</time></trkpt><trkpt lat="43.79816217658638" lon="6.337373075319327"><ele>1035.5</ele><time>2026-04-07T16:09:12Z</time></trkpt><trkpt lat="43.79807907431803" lon="6.337502855661267"><ele>1037.25</ele><time>2026-04-07T16:09:13Z</time></trkpt><trkpt lat="43.798002182947045" lon="6.3376616788524816"><ele>1039.0</ele><time>2026-04-07T16:09:14Z</time></trkpt><trkpt lat="43.79791570899116" lon="6.337805095746887"><ele>1039.0</ele><time>2026-04-07T16:09:15Z</time></trkpt><trkpt lat="43.797832130250626" lon="6.337941382630297"><ele>1039.0</ele><time>2026-04-07T16:09:16Z</time></trkpt><trkpt lat="43.79775116328859" lon="6.338091091872754"><ele>1039.0</ele><time>2026-04-07T16:09:17Z</time></trkpt><trkpt lat="43.79768056533944" lon="6.33825318545399"><ele>1039.0</ele><time>2026-04-07T16:09:18Z</time></trkpt><trkpt lat="43.797625085554955" lon="6.338419781214637"><ele>1039.25</ele><time>2026-04-07T16:09:19Z</time></trkpt><trkpt lat="43.79758668851175" lon="6.338603923511957"><ele>1039.5</ele><time>2026-04-07T16:09:20Z</time></trkpt><trkpt lat="43.79757123383352" lon="6.338800548807369"><ele>1039.75</ele><time>2026-04-07T16:09:21Z</time></trkpt><trkpt lat="43.797568021060165" lon="6.338994054877818"><ele>1040.0</ele><time>2026-04-07T16:09:22Z</time></trkpt><trkpt lat="43.797561346939055" lon="6.33918729290531"><ele>1041.0</ele><time>2026-04-07T16:09:23Z</time></trkpt><trkpt lat="43.79755058245035" lon="6.339373790760924"><ele>1042.0</ele><time>2026-04-07T16:09:24Z</time></trkpt><trkpt lat="43.797531374866736" lon="6.339570184350463"><ele>1043.0</ele><time>2026-04-07T16:09:25Z</time></trkpt><trkpt lat="43.79749819142662" lon="6.339756612584437"><ele>1044.0</ele><time>2026-04-07T16:09:26Z</time></trkpt><trkpt lat="43.79743387215288" lon="6.339915916870083"><ele>1044.75</ele><time>2026-04-07T16:09:27Z</time></trkpt><trkpt lat="43.79732014955303" lon="6.34001695383416"><ele>1045.5</ele><time>2026-04-07T16:09:28Z</time></trkpt><trkpt lat="43.79719604755105" lon="6.340126615511355"><ele>1046.25</ele><time>2026-04-07T16:09:29Z</time></trkpt><trkpt lat="43.797055485379175" lon="6.34024056316577"><ele>1047.0</ele><time>2026-04-07T16:09:30Z</time></trkpt><trkpt lat="43.79690276299399" lon="6.340331575850427"><ele>1047.3333333333333</ele><time>2026-04-07T16:09:31Z</time></trkpt><trkpt lat="43.79675738842093" lon="6.3404263681512445"><ele>1047.6666666666665</ele><time>2026-04-07T16:09:32Z</time></trkpt><trkpt lat="43.79661113748181" lon="6.340538942153235"><ele>1048.0</ele><time>2026-04-07T16:09:33Z</time></trkpt><trkpt lat="43.79645446010429" lon="6.340650858200369"><ele>1048.0</ele><time>2026-04-07T16:09:34Z</time></trkpt><trkpt lat="43.79629667825969" lon="6.340741109220636"><ele>1048.0</ele><time>2026-04-07T16:09:35Z</time></trkpt><trkpt lat="43.79613197298938" lon="6.340809872566207"><ele>1048.0</ele><time>2026-04-07T16:09:36Z</time></trkpt><trkpt lat="43.795970185782586" lon="6.340858844056184"><ele>1048.3333333333333</ele><time>2026-04-07T16:09:37Z</time></trkpt><trkpt lat="43.79581053327926" lon="6.340887197008831"><ele>1048.6666666666667</ele><time>2026-04-07T16:09:38Z</time></trkpt><trkpt lat="43.79566022126552" lon="6.340913312122942"><ele>1049.0</ele><time>2026-04-07T16:09:39Z</time></trkpt><trkpt lat="43.79551927775935" lon="6.340947175958236"><ele>1049.0</ele><time>2026-04-07T16:09:40Z</time></trkpt><trkpt lat="43.79538799880395" lon="6.340950591693942"><ele>1049.0</ele><time>2026-04-07T16:09:41Z</time></trkpt><trkpt lat="43.795242901603025" lon="6.340871165908136"><ele>1049.0</ele><time>2026-04-07T16:09:42Z</time></trkpt><trkpt lat="43.79507413028103" lon="6.340845587026084"><ele>1047.6666666666667</ele><time>2026-04-07T16:09:43Z</time></trkpt><trkpt lat="43.79491461803666" lon="6.340812769828758"><ele>1046.3333333333333</ele><time>2026-04-07T16:09:44Z</time></trkpt><trkpt lat="43.794750360704604" lon="6.340790287918465"><ele>1045.0</ele><time>2026-04-07T16:09:45Z</time></trkpt><trkpt lat="43.794607249849726" lon="6.340738773247999"><ele>1045.0</ele><time>2026-04-07T16:09:46Z</time></trkpt><trkpt lat="43.79446524427759" lon="6.3407211741146945"><ele>1045.0</ele><time>2026-04-07T16:09:47Z</time></trkpt><trkpt lat="43.79431404967164" lon="6.340756532954669"><ele>1045.0</ele><time>2026-04-07T16:09:48Z</time></trkpt><trkpt lat="43.794148406390974" lon="6.340833657629318"><ele>1043.6666666666665</ele><time>2026-04-07T16:09:49Z</time></trkpt><trkpt lat="43.79398306240887" lon="6.34091603763979"><ele>1042.3333333333333</ele><time>2026-04-07T16:09:50Z</time></trkpt><trkpt lat="43.793821551427094" lon="6.340974448925018"><ele>1041.0</ele><time>2026-04-07T16:09:51Z</time></trkpt><trkpt lat="43.79366193909639" lon="6.341038122877493"><ele>1041.3333333333333</ele><time>2026-04-07T16:09:52Z</time></trkpt><trkpt lat="43.79349850308521" lon="6.3410858884967745"><ele>1041.6666666666665</ele><time>2026-04-07T16:09:53Z</time></trkpt><trkpt lat="43.793338653683115" lon="6.341124327975634"><ele>1042.0</ele><time>2026-04-07T16:09:54Z</time></trkpt><trkpt lat="43.793173608711925" lon="6.341153972064544"><ele>1042.0</ele><time>2026-04-07T16:09:55Z</time></trkpt><trkpt lat="43.79300873550683" lon="6.3411805195039666"><ele>1042.0</ele><time>2026-04-07T16:09:56Z</time></trkpt><trkpt lat="43.79283991973128" lon="6.341215441531169"><ele>1042.0</ele><time>2026-04-07T16:09:57Z</time></trkpt><trkpt lat="43.79267723751054" lon="6.341259933485407"><ele>1043.6666666666665</ele><time>2026-04-07T16:09:58Z</time></trkpt><trkpt lat="43.79251744417492" lon="6.341317665593348"><ele>1045.3333333333333</ele><time>2026-04-07T16:09:59Z</time></trkpt><trkpt lat="43.792362261079916" lon="6.341386362376756"><ele>1047.0</ele><time>2026-04-07T16:10:00Z</time></trkpt><trkpt lat="43.79221332640424" lon="6.341443195199003"><ele>1040.0</ele><time>2026-04-07T16:10:01Z</time></trkpt><trkpt lat="43.792064548834894" lon="6.341489756290885"><ele>1033.0</ele><time>2026-04-07T16:10:02Z</time></trkpt><trkpt lat="43.79191992597012" lon="6.341521416505768"><ele>1026.0</ele><time>2026-04-07T16:10:03Z</time></trkpt><trkpt lat="43.79177450678414" lon="6.341541334115754"><ele>1019.0</ele><time>2026-04-07T16:10:04Z</time></trkpt><trkpt lat="43.79162620774968" lon="6.341532674056046"><ele>1019.0</ele><time>2026-04-07T16:10:05Z</time></trkpt><trkpt lat="43.791466307547466" lon="6.34150235525469"><ele>1019.0</ele><time>2026-04-07T16:10:06Z</time></trkpt><trkpt lat="43.79130880677024" lon="6.341464172448509"><ele>1019.0</ele><time>2026-04-07T16:10:07Z</time></trkpt><trkpt lat="43.79116283613361" lon="6.341408914212008"><ele>1026.3333333333335</ele><time>2026-04-07T16:10:08Z</time></trkpt><trkpt lat="43.79102731448894" lon="6.341335659145738"><ele>1033.6666666666667</ele><time>2026-04-07T16:10:09Z</time></trkpt><trkpt lat="43.790889691973206" lon="6.341314326159937"><ele>1041.0</ele><time>2026-04-07T16:10:10Z</time></trkpt><trkpt lat="43.790720719998866" lon="6.341336229377555"><ele>1041.0</ele><time>2026-04-07T16:10:11Z</time></trkpt><trkpt lat="43.79054531246309" lon="6.3413753300690585"><ele>1041.0</ele><time>2026-04-07T16:10:12Z</time></trkpt><trkpt lat="43.790365225524056" lon="6.341410531472226"><ele>1041.0</ele><time>2026-04-07T16:10:13Z</time></trkpt><trkpt lat="43.79020835904556" lon="6.341468869554913"><ele>1031.3333333333333</ele><time>2026-04-07T16:10:14Z</time></trkpt><trkpt lat="43.79005757069348" lon="6.3415395776535295"><ele>1021.6666666666666</ele><time>2026-04-07T16:10:15Z</time></trkpt><trkpt lat="43.789912353887274" lon="6.341597401636419"><ele>1012.0</ele><time>2026-04-07T16:10:16Z</time></trkpt><trkpt lat="43.78975801127208" lon="6.341615036993372"><ele>1012.0</ele><time>2026-04-07T16:10:17Z</time></trkpt><trkpt lat="43.78961003023849" lon="6.3415971685639185"><ele>1012.0</ele><time>2026-04-07T16:10:18Z</time></trkpt><trkpt lat="43.78946917361721" lon="6.341561644350517"><ele>1012.0</ele><time>2026-04-07T16:10:19Z</time></trkpt><trkpt lat="43.78934584669025" lon="6.341532329570059"><ele>1012.0</ele><time>2026-04-07T16:10:20Z</time></trkpt><trkpt lat="43.78923851173449" lon="6.341503938113097"><ele>1013.25</ele><time>2026-04-07T16:10:21Z</time></trkpt><trkpt lat="43.78912975014186" lon="6.341447403981868"><ele>1014.5</ele><time>2026-04-07T16:10:22Z</time></trkpt><trkpt lat="43.78902614640399" lon="6.341362282663172"><ele>1015.75</ele><time>2026-04-07T16:10:22.999Z</time></trkpt><trkpt lat="43.788941570128635" lon="6.341220773417828"><ele>1017.0</ele><time>2026-04-07T16:10:23.999Z</time></trkpt><trkpt lat="43.78884243515616" lon="6.341062186980077"><ele>1017.0</ele><time>2026-04-07T16:10:24.999Z</time></trkpt><trkpt lat="43.788773605786766" lon="6.340892206208232"><ele>1017.0</ele><time>2026-04-07T16:10:25.999Z</time></trkpt><trkpt lat="43.788741348713565" lon="6.340668079459007"><ele>1017.0</ele><time>2026-04-07T16:10:27.999Z</time></trkpt><trkpt lat="43.78867787045197" lon="6.3405465916803045"><ele>1017.0</ele><time>2026-04-07T16:10:28.999Z</time></trkpt><trkpt lat="43.788592195275044" lon="6.340464857958385"><ele>1013.5</ele><time>2026-04-07T16:10:29.999Z</time></trkpt><trkpt lat="43.788474201565705" lon="6.340433528792261"><ele>1010.0</ele><time>2026-04-07T16:10:30.999Z</time></trkpt><trkpt lat="43.788346127172574" lon="6.340415686326535"><ele>1006.5</ele><time>2026-04-07T16:10:31.999Z</time></trkpt><trkpt lat="43.78824510835202" lon="6.340368414007102"><ele>1003.0</ele><time>2026-04-07T16:10:32.999Z</time></trkpt><trkpt lat="43.788194357904885" lon="6.340248336900629"><ele>1003.0</ele><time>2026-04-07T16:10:33.999Z</time></trkpt><trkpt lat="43.788184995512545" lon="6.340114083865433"><ele>1003.0</ele><time>2026-04-07T16:10:34.999Z</time></trkpt><trkpt lat="43.788148467923115" lon="6.339993866251697"><ele>1003.0</ele><time>2026-04-07T16:10:36Z</time></trkpt><trkpt lat="43.78810013893908" lon="6.3398838022383535"><ele>1003.0</ele><time>2026-04-07T16:10:37Z</time></trkpt><trkpt lat="43.78803445380015" lon="6.339777395920551"><ele>1003.0</ele><time>2026-04-07T16:10:38Z</time></trkpt><trkpt lat="43.787948046333945" lon="6.339693464447435"><ele>1000.6666666666666</ele><time>2026-04-07T16:10:39Z</time></trkpt><trkpt lat="43.787861941031665" lon="6.339649239792775"><ele>998.3333333333333</ele><time>2026-04-07T16:10:40Z</time></trkpt><trkpt lat="43.7877777742298" lon="6.339623367519934"><ele>996.0</ele><time>2026-04-07T16:10:41Z</time></trkpt><trkpt lat="43.787710152779006" lon="6.339594270259519"><ele>993.6666666666667</ele><time>2026-04-07T16:10:42Z</time></trkpt><trkpt lat="43.787650536599934" lon="6.339523675150491"><ele>991.3333333333334</ele><time>2026-04-07T16:10:43Z</time></trkpt><trkpt lat="43.78760796949913" lon="6.339393883986682"><ele>989.0</ele><time>2026-04-07T16:10:44Z</time></trkpt><trkpt lat="43.78754881209088" lon="6.339270731311489"><ele>989.0</ele><time>2026-04-07T16:10:45Z</time></trkpt><trkpt lat="43.787493532423625" lon="6.339156621207712"><ele>989.0000000000001</ele><time>2026-04-07T16:10:46Z</time></trkpt><trkpt lat="43.78742486650284" lon="6.339058438025197"><ele>989.0000000000001</ele><time>2026-04-07T16:10:47Z</time></trkpt><trkpt lat="43.78736999715391" lon="6.33893957583136"><ele>989.0</ele><time>2026-04-07T16:10:48Z</time></trkpt><trkpt lat="43.7873130555869" lon="6.338833985976743"><ele>989.0</ele><time>2026-04-07T16:10:49Z</time></trkpt><trkpt lat="43.787238736611194" lon="6.338765683707726"><ele>986.8000000000001</ele><time>2026-04-07T16:10:50Z</time></trkpt><trkpt lat="43.787142951554905" lon="6.338766044043955"><ele>984.6000000000001</ele><time>2026-04-07T16:10:51Z</time></trkpt><trkpt lat="43.78703598444218" lon="6.33881390032159"><ele>982.4</ele><time>2026-04-07T16:10:52Z</time></trkpt><trkpt lat="43.786924123251865" lon="6.338881550615845"><ele>980.2</ele><time>2026-04-07T16:10:53Z</time></trkpt><trkpt lat="43.786811908985" lon="6.33892583172006"><ele>978.0</ele><time>2026-04-07T16:10:54Z</time></trkpt><trkpt lat="43.78669325621935" lon="6.338958743363813"><ele>978.0</ele><time>2026-04-07T16:10:55Z</time></trkpt><trkpt lat="43.78657745073331" lon="6.338993478251289"><ele>978.0</ele><time>2026-04-07T16:10:56Z</time></trkpt><trkpt lat="43.786469999509904" lon="6.339011742606172"><ele>978.0</ele><time>2026-04-07T16:10:57Z</time></trkpt><trkpt lat="43.78636990726072" lon="6.339017703893612"><ele>978.0</ele><time>2026-04-07T16:10:58Z</time></trkpt><trkpt lat="43.786282291794166" lon="6.338935857737799"><ele>978.0</ele><time>2026-04-07T16:10:59Z</time></trkpt><trkpt lat="43.78615579862242" lon="6.338846446725079"><ele>979.75</ele><time>2026-04-07T16:11:00Z</time></trkpt><trkpt lat="43.7860134568734" lon="6.338802592650127"><ele>981.5</ele><time>2026-04-07T16:11:01Z</time></trkpt><trkpt lat="43.78587987936097" lon="6.338763646238667"><ele>983.25</ele><time>2026-04-07T16:11:02Z</time></trkpt><trkpt lat="43.785743611974084" lon="6.3387747008373605"><ele>985.0</ele><time>2026-04-07T16:11:03Z</time></trkpt><trkpt lat="43.785625569658826" lon="6.338842039814001"><ele>982.5</ele><time>2026-04-07T16:11:04Z</time></trkpt><trkpt lat="43.785527261480105" lon="6.338939420543373"><ele>980.0</ele><time>2026-04-07T16:11:05Z</time></trkpt><trkpt lat="43.7854383882041" lon="6.33903393865905"><ele>977.5</ele><time>2026-04-07T16:11:06Z</time></trkpt><trkpt lat="43.785346692254926" lon="6.339131398809683"><ele>975.0</ele><time>2026-04-07T16:11:07Z</time></trkpt><trkpt lat="43.785238445677535" lon="6.33918181471484"><ele>976.25</ele><time>2026-04-07T16:11:08Z</time></trkpt><trkpt lat="43.785129257764545" lon="6.339241024454693"><ele>977.5</ele><time>2026-04-07T16:11:09Z</time></trkpt><trkpt lat="43.78501217806856" lon="6.33931701617031"><ele>978.75</ele><time>2026-04-07T16:11:10Z</time></trkpt><trkpt lat="43.784888196835844" lon="6.339380065896876"><ele>980.0</ele><time>2026-04-07T16:11:11Z</time></trkpt><trkpt lat="43.784776248399474" lon="6.339442874566455"><ele>980.0</ele><time>2026-04-07T16:11:12Z</time></trkpt><trkpt lat="43.784667119113124" lon="6.339504857496201"><ele>980.0</ele><time>2026-04-07T16:11:13Z</time></trkpt><trkpt lat="43.784549975007764" lon="6.339539870277941"><ele>980.0</ele><time>2026-04-07T16:11:14Z</time></trkpt><trkpt lat="43.7844366431596" lon="6.339568009167957"><ele>980.0</ele><time>2026-04-07T16:11:15Z</time></trkpt><trkpt lat="43.78431112109025" lon="6.339579821952336"><ele>979.5</ele><time>2026-04-07T16:11:16Z</time></trkpt><trkpt lat="43.784174540558894" lon="6.339596985809121"><ele>979.0</ele><time>2026-04-07T16:11:17Z</time></trkpt><trkpt lat="43.78403645955004" lon="6.339594229661963"><ele>978.5</ele><time>2026-04-07T16:11:18Z</time></trkpt><trkpt lat="43.783908998078914" lon="6.339549673753264"><ele>978.0</ele><time>2026-04-07T16:11:19Z</time></trkpt><trkpt lat="43.783802493947526" lon="6.33952977984492"><ele>978.0</ele><time>2026-04-07T16:11:20Z</time></trkpt><trkpt lat="43.78370109800099" lon="6.339526698064511"><ele>978.0</ele><time>2026-04-07T16:11:21Z</time></trkpt><trkpt lat="43.7836044192736" lon="6.339606987512345"><ele>978.0</ele><time>2026-04-07T16:11:22Z</time></trkpt><trkpt lat="43.78350153064017" lon="6.339733931932847"><ele>978.0</ele><time>2026-04-07T16:11:23Z</time></trkpt><trkpt lat="43.78339971465289" lon="6.339852380327126"><ele>975.25</ele><time>2026-04-07T16:11:24Z</time></trkpt><trkpt lat="43.783303510492" lon="6.339962269515283"><ele>972.5</ele><time>2026-04-07T16:11:25Z</time></trkpt><trkpt lat="43.78320887413468" lon="6.340138049226928"><ele>969.75</ele><time>2026-04-07T16:11:26Z</time></trkpt><trkpt lat="43.783187773376746" lon="6.3403172800104945"><ele>967.0</ele><time>2026-04-07T16:11:27Z</time></trkpt><trkpt lat="43.78316236965595" lon="6.340522682137676"><ele>965.2</ele><time>2026-04-07T16:11:29Z</time></trkpt><trkpt lat="43.783117554179675" lon="6.340642781596965"><ele>963.4000000000001</ele><time>2026-04-07T16:11:30Z</time></trkpt><trkpt lat="43.78304587339228" lon="6.340711794404499"><ele>961.5999999999999</ele><time>2026-04-07T16:11:31Z</time></trkpt><trkpt lat="43.78297898026781" lon="6.340749307887033"><ele>959.8</ele><time>2026-04-07T16:11:32Z</time></trkpt><trkpt lat="43.782888125217774" lon="6.340691723761875"><ele>958.0</ele><time>2026-04-07T16:11:33Z</time></trkpt><trkpt lat="43.78279342113136" lon="6.340648286308561"><ele>958.0</ele><time>2026-04-07T16:11:34Z</time></trkpt><trkpt lat="43.78271704712295" lon="6.3405628212407"><ele>958.0</ele><time>2026-04-07T16:11:35Z</time></trkpt><trkpt lat="43.78265165695033" lon="6.340457758285748"><ele>958.0</ele><time>2026-04-07T16:11:36Z</time></trkpt><trkpt lat="43.78257659813069" lon="6.340339226339669"><ele>958.0</ele><time>2026-04-07T16:11:37Z</time></trkpt><trkpt lat="43.78249928228097" lon="6.3402328628683415"><ele>958.0</ele><time>2026-04-07T16:11:38Z</time></trkpt><trkpt lat="43.78244301164467" lon="6.340112107557504"><ele>959.5999999999999</ele><time>2026-04-07T16:11:39Z</time></trkpt><trkpt lat="43.78238520404669" lon="6.3399969706168795"><ele>961.1999999999999</ele><time>2026-04-07T16:11:40Z</time></trkpt><trkpt lat="43.78232207201677" lon="6.339872477186673"><ele>962.8</ele><time>2026-04-07T16:11:41Z</time></trkpt><trkpt lat="43.782253073637115" lon="6.339746458807473"><ele>964.4</ele><time>2026-04-07T16:11:42Z</time></trkpt><trkpt lat="43.78217975106791" lon="6.339615235428988"><ele>966.0</ele><time>2026-04-07T16:11:43Z</time></trkpt><trkpt lat="43.782098965683986" lon="6.339470656083291"><ele>964.0</ele><time>2026-04-07T16:11:44Z</time></trkpt><trkpt lat="43.78201312957182" lon="6.339329988945568"><ele>962.0</ele><time>2026-04-07T16:11:45Z</time></trkpt><trkpt lat="43.78192961463012" lon="6.339207910207053"><ele>960.0</ele><time>2026-04-07T16:11:46Z</time></trkpt><trkpt lat="43.78183076404959" lon="6.339058048313741"><ele>958.0</ele><time>2026-04-07T16:11:47Z</time></trkpt><trkpt lat="43.78172792650624" lon="6.338908827474179"><ele>961.5</ele><time>2026-04-07T16:11:48Z</time></trkpt><trkpt lat="43.781614136144455" lon="6.338777492536108"><ele>965.0</ele><time>2026-04-07T16:11:49Z</time></trkpt><trkpt lat="43.78150578587357" lon="6.33864427503724"><ele>968.5</ele><time>2026-04-07T16:11:50Z</time></trkpt><trkpt lat="43.78139639606259" lon="6.338520650750006"><ele>972.0</ele><time>2026-04-07T16:11:51Z</time></trkpt><trkpt lat="43.78129355979913" lon="6.338397030166035"><ele>972.0</ele><time>2026-04-07T16:11:52Z</time></trkpt><trkpt lat="43.78119366412897" lon="6.338282256973857"><ele>972.0</ele><time>2026-04-07T16:11:53Z</time></trkpt><trkpt lat="43.78110094279573" lon="6.338168135053407"><ele>972.0</ele><time>2026-04-07T16:11:54Z</time></trkpt><trkpt lat="43.78101223651633" lon="6.338062250880322"><ele>972.0</ele><time>2026-04-07T16:11:55Z</time></trkpt><trkpt lat="43.78091974832699" lon="6.337971519307917"><ele>970.4000000000001</ele><time>2026-04-07T16:11:56Z</time></trkpt><trkpt lat="43.780815957546146" lon="6.3379029363943715"><ele>968.8000000000001</ele><time>2026-04-07T16:11:57Z</time></trkpt><trkpt lat="43.780708993917415" lon="6.3378392879613745"><ele>967.2</ele><time>2026-04-07T16:11:58Z</time></trkpt><trkpt lat="43.78060738368789" lon="6.3377682546118725"><ele>965.6</ele><time>2026-04-07T16:11:59Z</time></trkpt><trkpt lat="43.780515778519984" lon="6.337711283172433"><ele>964.0</ele><time>2026-04-07T16:12:00Z</time></trkpt><trkpt lat="43.780434351074945" lon="6.33766227202998"><ele>963.9999999999999</ele><time>2026-04-07T16:12:01Z</time></trkpt><trkpt lat="43.780367272269835" lon="6.337621126093797"><ele>964.0</ele><time>2026-04-07T16:12:02Z</time></trkpt><trkpt lat="43.78026718787988" lon="6.337611758961843"><ele>964.0</ele><time>2026-04-07T16:12:04Z</time></trkpt><trkpt lat="43.780212930874605" lon="6.337685189160962"><ele>964.0</ele><time>2026-04-07T16:12:05Z</time></trkpt><trkpt lat="43.780163576883304" lon="6.337795074621389"><ele>963.9999999999999</ele><time>2026-04-07T16:12:06Z</time></trkpt><trkpt lat="43.780124301358754" lon="6.33791684742024"><ele>964.0</ele><time>2026-04-07T16:12:07Z</time></trkpt><trkpt lat="43.78010415986201" lon="6.338029505120107"><ele>960.4000000000001</ele><time>2026-04-07T16:12:08Z</time></trkpt><trkpt lat="43.78009713630138" lon="6.338121269431379"><ele>956.8000000000001</ele><time>2026-04-07T16:12:09Z</time></trkpt><trkpt lat="43.78008383579066" lon="6.338226209775997"><ele>953.1999999999999</ele><time>2026-04-07T16:12:10Z</time></trkpt><trkpt lat="43.780056802211206" lon="6.338355338911146"><ele>949.5999999999999</ele><time>2026-04-07T16:12:11Z</time></trkpt><trkpt lat="43.780035817133694" lon="6.338492934202179"><ele>946.0</ele><time>2026-04-07T16:12:12Z</time></trkpt><trkpt lat="43.780013993095395" lon="6.3386385930567375"><ele>946.0</ele><time>2026-04-07T16:12:13Z</time></trkpt><trkpt lat="43.77998573216911" lon="6.338790915426542"><ele>945.9999999999999</ele><time>2026-04-07T16:12:14Z</time></trkpt><trkpt lat="43.77995537054299" lon="6.338934854255768"><ele>945.9999999999999</ele><time>2026-04-07T16:12:14.999Z</time></trkpt><trkpt lat="43.77992437999644" lon="6.339067876629179"><ele>946.0</ele><time>2026-04-07T16:12:15.999Z</time></trkpt><trkpt lat="43.77986874678567" lon="6.339170397297667"><ele>946.0</ele><time>2026-04-07T16:12:16.999Z</time></trkpt><trkpt lat="43.779840732243365" lon="6.339272583145882"><ele>944.8333333333333</ele><time>2026-04-07T16:12:17.999Z</time></trkpt><trkpt lat="43.77979029836956" lon="6.339349796089544"><ele>943.6666666666666</ele><time>2026-04-07T16:12:18.999Z</time></trkpt><trkpt lat="43.779753648275175" lon="6.339422804925732"><ele>942.5</ele><time>2026-04-07T16:12:19.999Z</time></trkpt><trkpt lat="43.77970268628683" lon="6.339541621074958"><ele>941.3333333333333</ele><time>2026-04-07T16:12:21.999Z</time></trkpt><trkpt lat="43.77964950766939" lon="6.339621390488964"><ele>940.1666666666666</ele><time>2026-04-07T16:12:24.999Z</time></trkpt><trkpt lat="43.779592106407634" lon="6.339675797508208"><ele>939.0</ele><time>2026-04-07T16:12:27.999Z</time></trkpt><trkpt lat="43.779501041420744" lon="6.339585778405928"><ele>939.0</ele><time>2026-04-07T16:12:28.999Z</time></trkpt><trkpt lat="43.77943929372183" lon="6.339528034980844"><ele>939.0</ele><time>2026-04-07T16:12:29.999Z</time></trkpt><trkpt lat="43.77936937216514" lon="6.3394635171872356"><ele>939.0</ele><time>2026-04-07T16:12:30.999Z</time></trkpt><trkpt lat="43.77929741387458" lon="6.339370526169388"><ele>939.0</ele><time>2026-04-07T16:12:31.999Z</time></trkpt><trkpt lat="43.779238874670185" lon="6.339284787428927"><ele>939.0</ele><time>2026-04-07T16:12:32.999Z</time></trkpt><trkpt lat="43.77917516338223" lon="6.339169927278569"><ele>939.0</ele><time>2026-04-07T16:12:33.999Z</time></trkpt><trkpt lat="43.77910505851202" lon="6.339043609208262"><ele>939.0</ele><time>2026-04-07T16:12:34.999Z</time></trkpt><trkpt lat="43.77904019235853" lon="6.338917596257872"><ele>939.0</ele><time>2026-04-07T16:12:35.999Z</time></trkpt><trkpt lat="43.7789750838507" lon="6.33878206790982"><ele>939.0</ele><time>2026-04-07T16:12:36.999Z</time></trkpt><trkpt lat="43.7789097888179" lon="6.338649246931148"><ele>939.0</ele><time>2026-04-07T16:12:37.999Z</time></trkpt><trkpt lat="43.778841837087974" lon="6.338509054306988"><ele>940.75</ele><time>2026-04-07T16:12:38.999Z</time></trkpt><trkpt lat="43.77877232069415" lon="6.338368963314445"><ele>942.5</ele><time>2026-04-07T16:12:39.999Z</time></trkpt><trkpt lat="43.7786946414685" lon="6.338229370559803"><ele>944.25</ele><time>2026-04-07T16:12:40.999Z</time></trkpt><trkpt lat="43.778617480647966" lon="6.338089495457661"><ele>946.0</ele><time>2026-04-07T16:12:42Z</time></trkpt><trkpt lat="43.778542702455965" lon="6.337940007174052"><ele>946.5</ele><time>2026-04-07T16:12:43Z</time></trkpt><trkpt lat="43.77846420508415" lon="6.337786114172724"><ele>947.0</ele><time>2026-04-07T16:12:44Z</time></trkpt><trkpt lat="43.778379233302225" lon="6.337630291602716"><ele>947.5</ele><time>2026-04-07T16:12:45Z</time></trkpt><trkpt lat="43.778285744879746" lon="6.337461977274844"><ele>948.0</ele><time>2026-04-07T16:12:46Z</time></trkpt><trkpt lat="43.778185954843906" lon="6.337284984797077"><ele>951.0</ele><time>2026-04-07T16:12:47Z</time></trkpt><trkpt lat="43.778079353471604" lon="6.337098837851131"><ele>954.0</ele><time>2026-04-07T16:12:48Z</time></trkpt><trkpt lat="43.77797774247976" lon="6.336907359806534"><ele>957.0</ele><time>2026-04-07T16:12:49Z</time></trkpt><trkpt lat="43.77788658971367" lon="6.336723077981361"><ele>957.0</ele><time>2026-04-07T16:12:50Z</time></trkpt><trkpt lat="43.777803056341845" lon="6.336555881798411"><ele>957.0</ele><time>2026-04-07T16:12:51Z</time></trkpt><trkpt lat="43.7777262065136" lon="6.3363954789134675"><ele>957.0</ele><time>2026-04-07T16:12:52Z</time></trkpt><trkpt lat="43.77766448046942" lon="6.336225285015376"><ele>957.0</ele><time>2026-04-07T16:12:53Z</time></trkpt><trkpt lat="43.777617411339094" lon="6.336031712580643"><ele>959.0</ele><time>2026-04-07T16:12:54Z</time></trkpt><trkpt lat="43.777556696136934" lon="6.3358401030577705"><ele>961.0</ele><time>2026-04-07T16:12:55Z</time></trkpt><trkpt lat="43.7774649899377" lon="6.33565851459255"><ele>963.0</ele><time>2026-04-07T16:12:56Z</time></trkpt><trkpt lat="43.77736585799041" lon="6.335498073271436"><ele>966.5</ele><time>2026-04-07T16:12:57Z</time></trkpt><trkpt lat="43.777262095779705" lon="6.335360368759429"><ele>970.0</ele><time>2026-04-07T16:12:58Z</time></trkpt><trkpt lat="43.77716335429224" lon="6.335230127224208"><ele>973.5</ele><time>2026-04-07T16:12:59Z</time></trkpt><trkpt lat="43.77708093834475" lon="6.335077936434182"><ele>977.0</ele><time>2026-04-07T16:13:00Z</time></trkpt><trkpt lat="43.77700171971854" lon="6.3349131478978755"><ele>977.0</ele><time>2026-04-07T16:13:01Z</time></trkpt><trkpt lat="43.77691940398811" lon="6.334743432036687"><ele>977.0</ele><time>2026-04-07T16:13:02Z</time></trkpt><trkpt lat="43.776837265540166" lon="6.334577365367225"><ele>977.0</ele><time>2026-04-07T16:13:03Z</time></trkpt><trkpt lat="43.77675899972768" lon="6.334405042758615"><ele>977.0</ele><time>2026-04-07T16:13:04Z</time></trkpt><trkpt lat="43.77667891369835" lon="6.3342337942964075"><ele>976.0</ele><time>2026-04-07T16:13:05Z</time></trkpt><trkpt lat="43.7765958610769" lon="6.334064506617116"><ele>975.0</ele><time>2026-04-07T16:13:06Z</time></trkpt><trkpt lat="43.776508721745586" lon="6.333908801476044"><ele>974.0</ele><time>2026-04-07T16:13:07Z</time></trkpt><trkpt lat="43.77641335761242" lon="6.333780155738678"><ele>973.0</ele><time>2026-04-07T16:13:08Z</time></trkpt><trkpt lat="43.776300835417516" lon="6.3336708809567"><ele>973.0</ele><time>2026-04-07T16:13:09Z</time></trkpt><trkpt lat="43.77617264636526" lon="6.333576286295445"><ele>973.0</ele><time>2026-04-07T16:13:10Z</time></trkpt><trkpt lat="43.77603803865074" lon="6.333487568874825"><ele>973.0</ele><time>2026-04-07T16:13:11Z</time></trkpt><trkpt lat="43.77590536103405" lon="6.333413236562509"><ele>973.0</ele><time>2026-04-07T16:13:12Z</time></trkpt><trkpt lat="43.77578969014524" lon="6.333359994798525"><ele>973.0</ele><time>2026-04-07T16:13:13Z</time></trkpt><trkpt lat="43.7756973960572" lon="6.33331349565273"><ele>973.0</ele><time>2026-04-07T16:13:14Z</time></trkpt><trkpt lat="43.77561545038677" lon="6.333256678134801"><ele>973.0</ele><time>2026-04-07T16:13:15Z</time></trkpt><trkpt lat="43.775519672027656" lon="6.333173357809397"><ele>973.0</ele><time>2026-04-07T16:13:16Z</time></trkpt><trkpt lat="43.77542362435034" lon="6.333072432188884"><ele>973.0</ele><time>2026-04-07T16:13:17Z</time></trkpt><trkpt lat="43.77533694649716" lon="6.332955075794186"><ele>975.0</ele><time>2026-04-07T16:13:18Z</time></trkpt><trkpt lat="43.77523674695845" lon="6.332821790782763"><ele>977.0</ele><time>2026-04-07T16:13:19Z</time></trkpt><trkpt lat="43.77512977535689" lon="6.332678320773529"><ele>979.0</ele><time>2026-04-07T16:13:20Z</time></trkpt><trkpt lat="43.77500679484434" lon="6.332536239466716"><ele>981.0</ele><time>2026-04-07T16:13:21Z</time></trkpt><trkpt lat="43.77488826204688" lon="6.332387282538254"><ele>981.0</ele><time>2026-04-07T16:13:22Z</time></trkpt><trkpt lat="43.774784011232576" lon="6.332246990645905"><ele>981.0</ele><time>2026-04-07T16:13:23Z</time></trkpt><trkpt lat="43.774661036145964" lon="6.332118902828579"><ele>981.0</ele><time>2026-04-07T16:13:24Z</time></trkpt><trkpt lat="43.7745223588564" lon="6.332015199583412"><ele>982.6666666666667</ele><time>2026-04-07T16:13:25Z</time></trkpt><trkpt lat="43.77437159845724" lon="6.331931281290598"><ele>984.3333333333334</ele><time>2026-04-07T16:13:26Z</time></trkpt><trkpt lat="43.77420876104197" lon="6.331872339927996"><ele>986.0</ele><time>2026-04-07T16:13:27Z</time></trkpt><trkpt lat="43.77403934150072" lon="6.331834412847136"><ele>986.0</ele><time>2026-04-07T16:13:28Z</time></trkpt><trkpt lat="43.77387992610646" lon="6.331814549197685"><ele>986.0</ele><time>2026-04-07T16:13:29Z</time></trkpt><trkpt lat="43.77373513996714" lon="6.331772627831739"><ele>986.0</ele><time>2026-04-07T16:13:30Z</time></trkpt><trkpt lat="43.77361371959938" lon="6.3316876609977335"><ele>986.0</ele><time>2026-04-07T16:13:31Z</time></trkpt><trkpt lat="43.77351920828205" lon="6.33154175408387"><ele>986.3333333333334</ele><time>2026-04-07T16:13:32Z</time></trkpt><trkpt lat="43.77341977007967" lon="6.331377133895399"><ele>986.6666666666667</ele><time>2026-04-07T16:13:33Z</time></trkpt><trkpt lat="43.773344083231265" lon="6.331176278605245"><ele>987.0</ele><time>2026-04-07T16:13:34Z</time></trkpt><trkpt lat="43.77327530838382" lon="6.330962271347612"><ele>987.0</ele><time>2026-04-07T16:13:35Z</time></trkpt><trkpt lat="43.77320664612558" lon="6.33074820068898"><ele>987.0</ele><time>2026-04-07T16:13:36Z</time></trkpt><trkpt lat="43.773133314595384" lon="6.330535675914485"><ele>987.0</ele><time>2026-04-07T16:13:37Z</time></trkpt><trkpt lat="43.773062765254735" lon="6.330336966666537"><ele>989.75</ele><time>2026-04-07T16:13:38Z</time></trkpt><trkpt lat="43.77299682105653" lon="6.330158752825602"><ele>992.5</ele><time>2026-04-07T16:13:39Z</time></trkpt><trkpt lat="43.77294868261839" lon="6.32998138629182"><ele>995.25</ele><time>2026-04-07T16:13:40Z</time></trkpt><trkpt lat="43.77291537912148" lon="6.329783690746723"><ele>998.0</ele><time>2026-04-07T16:13:41Z</time></trkpt><trkpt lat="43.77288991184075" lon="6.329559258004175"><ele>1000.3333333333334</ele><time>2026-04-07T16:13:42Z</time></trkpt><trkpt lat="43.7728758493479" lon="6.329324582052486"><ele>1002.6666666666667</ele><time>2026-04-07T16:13:43Z</time></trkpt><trkpt lat="43.77287832343068" lon="6.329077984273677"><ele>1005.0</ele><time>2026-04-07T16:13:44Z</time></trkpt><trkpt lat="43.77290218261681" lon="6.3288341363356775"><ele>1006.0</ele><time>2026-04-07T16:13:45Z</time></trkpt><trkpt lat="43.772953012678656" lon="6.328594569110405"><ele>1007.0</ele><time>2026-04-07T16:13:46Z</time></trkpt><trkpt lat="43.7730099441239" lon="6.32836209281362"><ele>1008.0</ele><time>2026-04-07T16:13:47Z</time></trkpt><trkpt lat="43.77304926691643" lon="6.328132573006253"><ele>1008.6666666666667</ele><time>2026-04-07T16:13:48Z</time></trkpt><trkpt lat="43.77306881793963" lon="6.327907324067305"><ele>1009.3333333333334</ele><time>2026-04-07T16:13:49Z</time></trkpt><trkpt lat="43.77307787233384" lon="6.327677637110355"><ele>1010.0</ele><time>2026-04-07T16:13:50Z</time></trkpt><trkpt lat="43.773066345679624" lon="6.327435098887424"><ele>1013.3333333333334</ele><time>2026-04-07T16:13:51Z</time></trkpt><trkpt lat="43.773032885891865" lon="6.327208999992522"><ele>1016.6666666666667</ele><time>2026-04-07T16:13:52Z</time></trkpt><trkpt lat="43.77297017331886" lon="6.3270179212095075"><ele>1020.0</ele><time>2026-04-07T16:13:53Z</time></trkpt><trkpt lat="43.7728742324601" lon="6.326829115779366"><ele>1020.0</ele><time>2026-04-07T16:13:54Z</time></trkpt><trkpt lat="43.77278660427135" lon="6.326655817499894"><ele>1020.0</ele><time>2026-04-07T16:13:55Z</time></trkpt><trkpt lat="43.772730464642024" lon="6.326468185763239"><ele>1020.0</ele><time>2026-04-07T16:13:56Z</time></trkpt><trkpt lat="43.77269937516246" lon="6.326286655269757"><ele>1020.0</ele><time>2026-04-07T16:13:57Z</time></trkpt><trkpt lat="43.772716273352586" lon="6.326081174257335"><ele>1022.6666666666667</ele><time>2026-04-07T16:13:58Z</time></trkpt><trkpt lat="43.77273340838229" lon="6.3258392352136275"><ele>1025.3333333333335</ele><time>2026-04-07T16:13:59Z</time></trkpt><trkpt lat="43.77277943524555" lon="6.3256087895218975"><ele>1028.0</ele><time>2026-04-07T16:14:00Z</time></trkpt><trkpt lat="43.772805319854356" lon="6.325418358820455"><ele>1028.25</ele><time>2026-04-07T16:14:01Z</time></trkpt><trkpt lat="43.77279509018816" lon="6.325257650702771"><ele>1028.5</ele><time>2026-04-07T16:14:02Z</time></trkpt><trkpt lat="43.772728235377336" lon="6.325135541656689"><ele>1028.75</ele><time>2026-04-07T16:14:03Z</time></trkpt><trkpt lat="43.77262152979744" lon="6.325018685742015"><ele>1029.0</ele><time>2026-04-07T16:14:04Z</time></trkpt><trkpt lat="43.77249136467679" lon="6.324850460757467"><ele>1028.0</ele><time>2026-04-07T16:14:05Z</time></trkpt><trkpt lat="43.77237193753336" lon="6.324671718864325"><ele>1027.0</ele><time>2026-04-07T16:14:06Z</time></trkpt><trkpt lat="43.77224087695871" lon="6.324516324762608"><ele>1026.0</ele><time>2026-04-07T16:14:07Z</time></trkpt><trkpt lat="43.77212267265579" lon="6.324355360859975"><ele>1026.0</ele><time>2026-04-07T16:14:08Z</time></trkpt><trkpt lat="43.771963436045844" lon="6.324213678040609"><ele>1026.0</ele><time>2026-04-07T16:14:08.999Z</time></trkpt><trkpt lat="43.77181059591301" lon="6.324147017222585"><ele>1026.0</ele><time>2026-04-07T16:14:09.999Z</time></trkpt><trkpt lat="43.771662848949575" lon="6.324052611127048"><ele>1026.75</ele><time>2026-04-07T16:14:10.999Z</time></trkpt><trkpt lat="43.771567548894616" lon="6.3238978506865235"><ele>1027.5</ele><time>2026-04-07T16:14:11.999Z</time></trkpt><trkpt lat="43.77146259046201" lon="6.323761516787724"><ele>1028.25</ele><time>2026-04-07T16:14:12.999Z</time></trkpt><trkpt lat="43.771352506426695" lon="6.323611639459821"><ele>1029.0</ele><time>2026-04-07T16:14:13.999Z</time></trkpt><trkpt lat="43.771222628574336" lon="6.323447066396516"><ele>1029.0</ele><time>2026-04-07T16:14:14.999Z</time></trkpt><trkpt lat="43.77106408171599" lon="6.32331519473672"><ele>1029.0</ele><time>2026-04-07T16:14:15.999Z</time></trkpt><trkpt lat="43.77092884882125" lon="6.323173101141452"><ele>1029.0</ele><time>2026-04-07T16:14:16.999Z</time></trkpt><trkpt lat="43.77081119582608" lon="6.322999178928512"><ele>1027.3333333333333</ele><time>2026-04-07T16:14:17.999Z</time></trkpt><trkpt lat="43.77070462006111" lon="6.32282271320147"><ele>1025.6666666666665</ele><time>2026-04-07T16:14:18.999Z</time></trkpt><trkpt lat="43.770605082141735" lon="6.3226520673964846"><ele>1024.0</ele><time>2026-04-07T16:14:19.999Z</time></trkpt><trkpt lat="43.77051949170978" lon="6.3224764357847345"><ele>1024.0</ele><time>2026-04-07T16:14:20.999Z</time></trkpt><trkpt lat="43.77043997283414" lon="6.322285646892936"><ele>1024.0</ele><time>2026-04-07T16:14:21.999Z</time></trkpt><trkpt lat="43.77035239405494" lon="6.322088015832336"><ele>1024.0</ele><time>2026-04-07T16:14:22.999Z</time></trkpt><trkpt lat="43.77029370769378" lon="6.321868333839944"><ele>1022.75</ele><time>2026-04-07T16:14:23.999Z</time></trkpt><trkpt lat="43.77024057975279" lon="6.3216681038221365"><ele>1021.5</ele><time>2026-04-07T16:14:24.999Z</time></trkpt><trkpt lat="43.77019198997975" lon="6.321473735821907"><ele>1020.25</ele><time>2026-04-07T16:14:25.999Z</time></trkpt><trkpt lat="43.770158234056396" lon="6.3212779143751625"><ele>1019.0</ele><time>2026-04-07T16:14:26.999Z</time></trkpt><trkpt lat="43.770138063331" lon="6.321067900337095"><ele>1019.0</ele><time>2026-04-07T16:14:27.999Z</time></trkpt><trkpt lat="43.77012632888272" lon="6.32084824318259"><ele>1019.0</ele><time>2026-04-07T16:14:28.999Z</time></trkpt><trkpt lat="43.7701194761835" lon="6.32063067289201"><ele>1019.0</ele><time>2026-04-07T16:14:29.999Z</time></trkpt><trkpt lat="43.770116705205425" lon="6.320406639814494"><ele>1019.5</ele><time>2026-04-07T16:14:30.999Z</time></trkpt><trkpt lat="43.7701166991985" lon="6.320192409067402"><ele>1020.0</ele><time>2026-04-07T16:14:31.999Z</time></trkpt><trkpt lat="43.77011871657555" lon="6.320008656710116"><ele>1020.5</ele><time>2026-04-07T16:14:32.999Z</time></trkpt><trkpt lat="43.770099168647846" lon="6.319847364559044"><ele>1021.0</ele><time>2026-04-07T16:14:33.999Z</time></trkpt><trkpt lat="43.770029268100004" lon="6.319691014801668"><ele>1021.25</ele><time>2026-04-07T16:14:34.999Z</time></trkpt><trkpt lat="43.76995426218206" lon="6.319522302611321"><ele>1021.5</ele><time>2026-04-07T16:14:35.999Z</time></trkpt><trkpt lat="43.769914336600294" lon="6.319347345927012"><ele>1021.75</ele><time>2026-04-07T16:14:36.999Z</time></trkpt><trkpt lat="43.76989849429881" lon="6.319151753125478"><ele>1022.0</ele><time>2026-04-07T16:14:37.999Z</time></trkpt><trkpt lat="43.769928880916" lon="6.318936833341483"><ele>1021.3333333333334</ele><time>2026-04-07T16:14:38.999Z</time></trkpt><trkpt lat="43.769985933103655" lon="6.318706060016559"><ele>1020.6666666666667</ele><time>2026-04-07T16:14:39.999Z</time></trkpt><trkpt lat="43.77004694252274" lon="6.318478432074719"><ele>1020.0</ele><time>2026-04-07T16:14:40.999Z</time></trkpt><trkpt lat="43.77011521332038" lon="6.318246797868058"><ele>1020.0</ele><time>2026-04-07T16:14:41.999Z</time></trkpt><trkpt lat="43.77016991631966" lon="6.318031644037912"><ele>1020.0</ele><time>2026-04-07T16:14:42.999Z</time></trkpt><trkpt lat="43.77023746511455" lon="6.317829160558947"><ele>1020.0</ele><time>2026-04-07T16:14:43.999Z</time></trkpt><trkpt lat="43.77028189045258" lon="6.317654696059428"><ele>1023.75</ele><time>2026-04-07T16:14:44.999Z</time></trkpt><trkpt lat="43.770287189786686" lon="6.317481428974385"><ele>1027.5</ele><time>2026-04-07T16:14:45.999Z</time></trkpt><trkpt lat="43.770233991676164" lon="6.317302888943174"><ele>1031.25</ele><time>2026-04-07T16:14:46.999Z</time></trkpt><trkpt lat="43.77013580737753" lon="6.3171133772592"><ele>1035.0</ele><time>2026-04-07T16:14:48Z</time></trkpt><trkpt lat="43.77003652119523" lon="6.316929881998824"><ele>1035.0</ele><time>2026-04-07T16:14:49Z</time></trkpt><trkpt lat="43.76993496092169" lon="6.316767818841865"><ele>1035.0</ele><time>2026-04-07T16:14:50Z</time></trkpt><trkpt lat="43.769821518318395" lon="6.3166445387239065"><ele>1035.0</ele><time>2026-04-07T16:14:51Z</time></trkpt><trkpt lat="43.76971304888565" lon="6.3165272071288365"><ele>1035.0</ele><time>2026-04-07T16:14:52Z</time></trkpt><trkpt lat="43.76963329481777" lon="6.316387462779008"><ele>1033.5</ele><time>2026-04-07T16:14:53Z</time></trkpt><trkpt lat="43.769599060910394" lon="6.316206052283616"><ele>1032.0</ele><time>2026-04-07T16:14:54Z</time></trkpt><trkpt lat="43.76955055372105" lon="6.316016435180327"><ele>1030.5</ele><time>2026-04-07T16:14:55Z</time></trkpt><trkpt lat="43.76947989404901" lon="6.315861409278611"><ele>1029.0</ele><time>2026-04-07T16:14:56Z</time></trkpt><trkpt lat="43.769352029075" lon="6.315737493004671"><ele>1029.0</ele><time>2026-04-07T16:14:57Z</time></trkpt><trkpt lat="43.76920045650162" lon="6.315622987939641"><ele>1029.0</ele><time>2026-04-07T16:14:58Z</time></trkpt><trkpt lat="43.769049958488544" lon="6.3155072539372625"><ele>1029.0</ele><time>2026-04-07T16:14:59Z</time></trkpt><trkpt lat="43.76890792348358" lon="6.3153904313057065"><ele>1031.5</ele><time>2026-04-07T16:15:00Z</time></trkpt><trkpt lat="43.76877970164491" lon="6.315273340319482"><ele>1034.0</ele><time>2026-04-07T16:15:01Z</time></trkpt><trkpt lat="43.768658706305736" lon="6.315149516723928"><ele>1036.5</ele><time>2026-04-07T16:15:02Z</time></trkpt><trkpt lat="43.76857017708752" lon="6.314992998267254"><ele>1039.0</ele><time>2026-04-07T16:15:03Z</time></trkpt><trkpt lat="43.768546464735586" lon="6.314783303390646"><ele>1041.0</ele><time>2026-04-07T16:15:04Z</time></trkpt><trkpt lat="43.76853574487138" lon="6.314555330141358"><ele>1043.0</ele><time>2026-04-07T16:15:05Z</time></trkpt><trkpt lat="43.76851435544649" lon="6.314328021630541"><ele>1045.0</ele><time>2026-04-07T16:15:06Z</time></trkpt><trkpt lat="43.76847944708603" lon="6.314112114656638"><ele>1036.3333333333333</ele><time>2026-04-07T16:15:07Z</time></trkpt><trkpt lat="43.768440307623685" lon="6.3138937461984375"><ele>1027.6666666666667</ele><time>2026-04-07T16:15:08Z</time></trkpt><trkpt lat="43.76839039099954" lon="6.313683339342687"><ele>1019.0</ele><time>2026-04-07T16:15:09Z</time></trkpt><trkpt lat="43.76832237355435" lon="6.313475331609054"><ele>1019.0</ele><time>2026-04-07T16:15:10Z</time></trkpt><trkpt lat="43.76824787450878" lon="6.313263858208213"><ele>1019.0</ele><time>2026-04-07T16:15:11Z</time></trkpt><trkpt lat="43.76817847926722" lon="6.313060380895873"><ele>1019.0</ele><time>2026-04-07T16:15:12Z</time></trkpt><trkpt lat="43.76811656220429" lon="6.312859789651539"><ele>1021.3333333333334</ele><time>2026-04-07T16:15:13Z</time></trkpt><trkpt lat="43.768042095204095" lon="6.312669655652556"><ele>1023.6666666666667</ele><time>2026-04-07T16:15:14Z</time></trkpt><trkpt lat="43.76795245995768" lon="6.312480430299345"><ele>1026.0</ele><time>2026-04-07T16:15:15Z</time></trkpt><trkpt lat="43.76785427805764" lon="6.312297411065714"><ele>1023.0</ele><time>2026-04-07T16:15:16Z</time></trkpt><trkpt lat="43.767749523336605" lon="6.312130212333553"><ele>1020.0</ele><time>2026-04-07T16:15:17Z</time></trkpt><trkpt lat="43.76763928156736" lon="6.311973371801561"><ele>1017.0</ele><time>2026-04-07T16:15:18Z</time></trkpt><trkpt lat="43.76752770368259" lon="6.311811167544082"><ele>1017.0</ele><time>2026-04-07T16:15:19Z</time></trkpt><trkpt lat="43.76745471548671" lon="6.311613292550265"><ele>1017.0</ele><time>2026-04-07T16:15:20Z</time></trkpt><trkpt lat="43.7673981534851" lon="6.311415382227733"><ele>1017.0</ele><time>2026-04-07T16:15:21Z</time></trkpt><trkpt lat="43.76734739274088" lon="6.311214425480388"><ele>1017.6666666666667</ele><time>2026-04-07T16:15:22Z</time></trkpt><trkpt lat="43.76736039306361" lon="6.311008088958637"><ele>1018.3333333333334</ele><time>2026-04-07T16:15:23Z</time></trkpt><trkpt lat="43.767402633354344" lon="6.310796110390071"><ele>1019.0</ele><time>2026-04-07T16:15:24Z</time></trkpt><trkpt lat="43.76744310572092" lon="6.3105632450136175"><ele>1015.3333333333334</ele><time>2026-04-07T16:15:25Z</time></trkpt><trkpt lat="43.76751511158584" lon="6.310348631864862"><ele>1011.6666666666667</ele><time>2026-04-07T16:15:26Z</time></trkpt><trkpt lat="43.76760387431352" lon="6.310125331735672"><ele>1008.0</ele><time>2026-04-07T16:15:27Z</time></trkpt><trkpt lat="43.767720762756184" lon="6.309931324157438"><ele>1010.3333333333333</ele><time>2026-04-07T16:15:28Z</time></trkpt><trkpt lat="43.7678031856682" lon="6.309700773608043"><ele>1012.6666666666666</ele><time>2026-04-07T16:15:29Z</time></trkpt><trkpt lat="43.767874441613166" lon="6.309468313229376"><ele>1015.0</ele><time>2026-04-07T16:15:30Z</time></trkpt><trkpt lat="43.76795583462851" lon="6.309264289975354"><ele>1015.0</ele><time>2026-04-07T16:15:31Z</time></trkpt><trkpt lat="43.76806504681744" lon="6.309081092917569"><ele>1015.0</ele><time>2026-04-07T16:15:32Z</time></trkpt><trkpt lat="43.768185578971206" lon="6.308927327945177"><ele>1015.0</ele><time>2026-04-07T16:15:33Z</time></trkpt><trkpt lat="43.76831446240507" lon="6.308789583086617"><ele>1009.75</ele><time>2026-04-07T16:15:34Z</time></trkpt><trkpt lat="43.768421058477244" lon="6.308666067861309"><ele>1004.5</ele><time>2026-04-07T16:15:35Z</time></trkpt><trkpt lat="43.7685320982162" lon="6.308603903340514"><ele>999.25</ele><time>2026-04-07T16:15:36Z</time></trkpt><trkpt lat="43.76865145268955" lon="6.308636320627428"><ele>994.0</ele><time>2026-04-07T16:15:37Z</time></trkpt><trkpt lat="43.76876151456825" lon="6.308721237234647"><ele>994.0</ele><time>2026-04-07T16:15:38Z</time></trkpt><trkpt lat="43.76891138128108" lon="6.308814186248378"><ele>994.0</ele><time>2026-04-07T16:15:39Z</time></trkpt><trkpt lat="43.76907877277963" lon="6.308903805069451"><ele>994.0</ele><time>2026-04-07T16:15:40Z</time></trkpt><trkpt lat="43.76924132089404" lon="6.308987035513361"><ele>997.6666666666666</ele><time>2026-04-07T16:15:41Z</time></trkpt><trkpt lat="43.76937340107998" lon="6.309102119351645"><ele>1001.3333333333333</ele><time>2026-04-07T16:15:42Z</time></trkpt><trkpt lat="43.76951532254217" lon="6.309192555668439"><ele>1005.0</ele><time>2026-04-07T16:15:43Z</time></trkpt><trkpt lat="43.76964440162248" lon="6.30929235338461"><ele>1005.0</ele><time>2026-04-07T16:15:44Z</time></trkpt><trkpt lat="43.76977406828303" lon="6.309339580207188"><ele>1005.0</ele><time>2026-04-07T16:15:45Z</time></trkpt><trkpt lat="43.76989739249922" lon="6.309337781046599"><ele>1005.0</ele><time>2026-04-07T16:15:46Z</time></trkpt><trkpt lat="43.77001690996048" lon="6.309279297476682"><ele>1005.0</ele><time>2026-04-07T16:15:47Z</time></trkpt><trkpt lat="43.770118045105384" lon="6.30918125816998"><ele>1005.0</ele><time>2026-04-07T16:15:48Z</time></trkpt><trkpt lat="43.7701871775508" lon="6.309069104912676"><ele>1005.0</ele><time>2026-04-07T16:15:49Z</time></trkpt><trkpt lat="43.77020968277858" lon="6.30892609066464"><ele>1005.0</ele><time>2026-04-07T16:15:50Z</time></trkpt><trkpt lat="43.77018264217142" lon="6.308745103461439"><ele>1005.0</ele><time>2026-04-07T16:15:51Z</time></trkpt><trkpt lat="43.770129361360326" lon="6.308526213225445"><ele>1002.0</ele><time>2026-04-07T16:15:52Z</time></trkpt><trkpt lat="43.77011171142817" lon="6.30828124253925"><ele>999.0</ele><time>2026-04-07T16:15:53Z</time></trkpt><trkpt lat="43.770124644514354" lon="6.308030770980566"><ele>996.0</ele><time>2026-04-07T16:15:54Z</time></trkpt><trkpt lat="43.770174218751514" lon="6.3077955434282895"><ele>996.3333333333333</ele><time>2026-04-07T16:15:55Z</time></trkpt><trkpt lat="43.770205642117865" lon="6.307570499160268"><ele>996.6666666666666</ele><time>2026-04-07T16:15:56Z</time></trkpt><trkpt lat="43.77024900534132" lon="6.307367531609727"><ele>997.0</ele><time>2026-04-07T16:15:57Z</time></trkpt><trkpt lat="43.770312014615264" lon="6.307174928496786"><ele>997.0</ele><time>2026-04-07T16:15:58Z</time></trkpt><trkpt lat="43.77042473868061" lon="6.307010564114671"><ele>997.0</ele><time>2026-04-07T16:15:59Z</time></trkpt><trkpt lat="43.77049957775601" lon="6.306822148186525"><ele>997.0</ele><time>2026-04-07T16:16:00Z</time></trkpt><trkpt lat="43.77057402672653" lon="6.306640484248402"><ele>997.0</ele><time>2026-04-07T16:16:01Z</time></trkpt><trkpt lat="43.77067456881905" lon="6.306533204413307"><ele>997.0</ele><time>2026-04-07T16:16:01.999Z</time></trkpt><trkpt lat="43.77075871293983" lon="6.30643624822397"><ele>997.0</ele><time>2026-04-07T16:16:02.999Z</time></trkpt><trkpt lat="43.77081659459581" lon="6.306329515274594"><ele>997.0</ele><time>2026-04-07T16:16:03.999Z</time></trkpt><trkpt lat="43.770836192679454" lon="6.306211748662516"><ele>997.0</ele><time>2026-04-07T16:16:04.999Z</time></trkpt><trkpt lat="43.77078649751986" lon="6.306077394193252"><ele>997.25</ele><time>2026-04-07T16:16:05.999Z</time></trkpt><trkpt lat="43.770683259729815" lon="6.305940054848666"><ele>997.5</ele><time>2026-04-07T16:16:06.999Z</time></trkpt><trkpt lat="43.77055097086579" lon="6.305805398487193"><ele>997.75</ele><time>2026-04-07T16:16:07.999Z</time></trkpt><trkpt lat="43.770448287308554" lon="6.305691848396492"><ele>998.0</ele><time>2026-04-07T16:16:08.999Z</time></trkpt><trkpt lat="43.77034996408514" lon="6.305578263607323"><ele>999.25</ele><time>2026-04-07T16:16:09.999Z</time></trkpt><trkpt lat="43.77022112385961" lon="6.305528247063701"><ele>1000.5</ele><time>2026-04-07T16:16:10.999Z</time></trkpt><trkpt lat="43.770129606063904" lon="6.305462363856645"><ele>1001.75</ele><time>2026-04-07T16:16:11.999Z</time></trkpt><trkpt lat="43.770063549517744" lon="6.305382295893672"><ele>1003.0</ele><time>2026-04-07T16:16:12.999Z</time></trkpt><trkpt lat="43.76995262403248" lon="6.3051380582340855"><ele>997.0</ele><time>2026-04-07T16:16:13.999Z</time></trkpt><trkpt lat="43.76990926669872" lon="6.304957972669094"><ele>991.0</ele><time>2026-04-07T16:16:14.999Z</time></trkpt><trkpt lat="43.76988215282094" lon="6.3047593478886235"><ele>985.0</ele><time>2026-04-07T16:16:15.999Z</time></trkpt><trkpt lat="43.76987754794261" lon="6.3045533252723045"><ele>979.0</ele><time>2026-04-07T16:16:16.999Z</time></trkpt><trkpt lat="43.76988133789367" lon="6.304343763161676"><ele>978.75</ele><time>2026-04-07T16:16:17.999Z</time></trkpt><trkpt lat="43.76988549781335" lon="6.30414107475833"><ele>978.5</ele><time>2026-04-07T16:16:18.999Z</time></trkpt><trkpt lat="43.76989681489017" lon="6.3039599468497505"><ele>978.25</ele><time>2026-04-07T16:16:19.999Z</time></trkpt><trkpt lat="43.769932702507916" lon="6.30380745500743"><ele>978.0</ele><time>2026-04-07T16:16:20.999Z</time></trkpt><trkpt lat="43.76999953297747" lon="6.303688890521796"><ele>976.0</ele><time>2026-04-07T16:16:21.999Z</time></trkpt><trkpt lat="43.77009240333357" lon="6.30364861136812"><ele>974.0</ele><time>2026-04-07T16:16:22.999Z</time></trkpt><trkpt lat="43.77020043375641" lon="6.303654820529788"><ele>972.0</ele><time>2026-04-07T16:16:23.999Z</time></trkpt><trkpt lat="43.7703440928259" lon="6.303657310388419"><ele>970.0</ele><time>2026-04-07T16:16:24.999Z</time></trkpt><trkpt lat="43.770504012719826" lon="6.303693753107754"><ele>970.0</ele><time>2026-04-07T16:16:25.999Z</time></trkpt><trkpt lat="43.7706524905391" lon="6.303750392422677"><ele>970.0</ele><time>2026-04-07T16:16:26.999Z</time></trkpt><trkpt lat="43.770794166569566" lon="6.303802860586431"><ele>970.0</ele><time>2026-04-07T16:16:27.999Z</time></trkpt><trkpt lat="43.77091189561396" lon="6.303810989935545"><ele>970.0</ele><time>2026-04-07T16:16:28.999Z</time></trkpt><trkpt lat="43.77102392915545" lon="6.3037514780913"><ele>972.0</ele><time>2026-04-07T16:16:29.999Z</time></trkpt><trkpt lat="43.771115680555354" lon="6.303619672246409"><ele>974.0</ele><time>2026-04-07T16:16:30.999Z</time></trkpt><trkpt lat="43.77118168588161" lon="6.303434081397193"><ele>976.0</ele><time>2026-04-07T16:16:31.999Z</time></trkpt><trkpt lat="43.77121980206224" lon="6.303226078296547"><ele>978.0</ele><time>2026-04-07T16:16:32.999Z</time></trkpt><trkpt lat="43.77123150190125" lon="6.303008726708496"><ele>978.0</ele><time>2026-04-07T16:16:33.999Z</time></trkpt><trkpt lat="43.77121602439783" lon="6.30279092240377"><ele>978.0</ele><time>2026-04-07T16:16:34.999Z</time></trkpt><trkpt lat="43.771194108342414" lon="6.30257506281686"><ele>978.0</ele><time>2026-04-07T16:16:35.999Z</time></trkpt><trkpt lat="43.77124348691627" lon="6.302388191501414"><ele>973.0</ele><time>2026-04-07T16:16:36.999Z</time></trkpt><trkpt lat="43.771318919376704" lon="6.302204020809586"><ele>968.0</ele><time>2026-04-07T16:16:37.999Z</time></trkpt><trkpt lat="43.771427611187285" lon="6.302036513892909"><ele>963.0</ele><time>2026-04-07T16:16:38.999Z</time></trkpt><trkpt lat="43.771555017526445" lon="6.301873053922594"><ele>963.0</ele><time>2026-04-07T16:16:39.999Z</time></trkpt><trkpt lat="43.77168041737399" lon="6.301694560323243"><ele>963.0</ele><time>2026-04-07T16:16:40.999Z</time></trkpt><trkpt lat="43.77180654169631" lon="6.301526560263578"><ele>963.0</ele><time>2026-04-07T16:16:41.999Z</time></trkpt><trkpt lat="43.77190860561746" lon="6.301346169387293"><ele>966.0</ele><time>2026-04-07T16:16:42.999Z</time></trkpt><trkpt lat="43.77199097904814" lon="6.301152962301656"><ele>969.0</ele><time>2026-04-07T16:16:43.999Z</time></trkpt><trkpt lat="43.7720479740024" lon="6.300937198335271"><ele>972.0</ele><time>2026-04-07T16:16:44.999Z</time></trkpt><trkpt lat="43.77206845046354" lon="6.300696108838826"><ele>969.3333333333333</ele><time>2026-04-07T16:16:45.999Z</time></trkpt><trkpt lat="43.772047643861825" lon="6.300453108136378"><ele>966.6666666666666</ele><time>2026-04-07T16:16:46.999Z</time></trkpt><trkpt lat="43.771997754496205" lon="6.300208108895282"><ele>964.0</ele><time>2026-04-07T16:16:47.999Z</time></trkpt><trkpt lat="43.771975415782464" lon="6.299958679931839"><ele>962.0</ele><time>2026-04-07T16:16:48.999Z</time></trkpt><trkpt lat="43.77193557021206" lon="6.299717302182505"><ele>960.0</ele><time>2026-04-07T16:16:49.999Z</time></trkpt><trkpt lat="43.771924860590225" lon="6.299485897177747"><ele>958.0</ele><time>2026-04-07T16:16:50.999Z</time></trkpt><trkpt lat="43.77192014547987" lon="6.299283399025862"><ele>958.0</ele><time>2026-04-07T16:16:51.999Z</time></trkpt><trkpt lat="43.77194057131233" lon="6.299129722739827"><ele>958.0</ele><time>2026-04-07T16:16:52.999Z</time></trkpt><trkpt lat="43.772009534961775" lon="6.299032383150018"><ele>958.0</ele><time>2026-04-07T16:16:54Z</time></trkpt><trkpt lat="43.77210045658129" lon="6.298924979717314"><ele>958.0</ele><time>2026-04-07T16:16:55Z</time></trkpt><trkpt lat="43.77223725103428" lon="6.298803894737044"><ele>954.0</ele><time>2026-04-07T16:16:56Z</time></trkpt><trkpt lat="43.772345961411986" lon="6.298632689864284"><ele>950.0</ele><time>2026-04-07T16:16:57Z</time></trkpt><trkpt lat="43.77244229336536" lon="6.2984589553036106"><ele>946.0</ele><time>2026-04-07T16:16:58Z</time></trkpt><trkpt lat="43.772533887034584" lon="6.298281964599675"><ele>946.0</ele><time>2026-04-07T16:16:59Z</time></trkpt><trkpt lat="43.772657119266775" lon="6.298175211842359"><ele>946.0</ele><time>2026-04-07T16:17:00Z</time></trkpt><trkpt lat="43.77280166351159" lon="6.298088727352255"><ele>946.0</ele><time>2026-04-07T16:17:01Z</time></trkpt><trkpt lat="43.77294942643204" lon="6.297988159514104"><ele>947.3333333333333</ele><time>2026-04-07T16:17:02Z</time></trkpt><trkpt lat="43.77308650576328" lon="6.297911065753513"><ele>948.6666666666667</ele><time>2026-04-07T16:17:03Z</time></trkpt><trkpt lat="43.7731964800501" lon="6.297774399044771"><ele>950.0</ele><time>2026-04-07T16:17:04Z</time></trkpt><trkpt lat="43.77326872583822" lon="6.297570853444319"><ele>950.0</ele><time>2026-04-07T16:17:05Z</time></trkpt><trkpt lat="43.77331774539457" lon="6.2973334760998"><ele>950.0</ele><time>2026-04-07T16:17:06Z</time></trkpt><trkpt lat="43.773362758661705" lon="6.297095818688719"><ele>950.0</ele><time>2026-04-07T16:17:07Z</time></trkpt><trkpt lat="43.773427390255144" lon="6.296860009258215"><ele>952.6666666666667</ele><time>2026-04-07T16:17:08Z</time></trkpt><trkpt lat="43.773521986586495" lon="6.2966486863554945"><ele>955.3333333333333</ele><time>2026-04-07T16:17:09Z</time></trkpt><trkpt lat="43.773596863445036" lon="6.296426156441237"><ele>958.0</ele><time>2026-04-07T16:17:10Z</time></trkpt><trkpt lat="43.773713235328046" lon="6.296229180924745"><ele>951.6666666666666</ele><time>2026-04-07T16:17:11Z</time></trkpt><trkpt lat="43.77380638712286" lon="6.296006539856435"><ele>945.3333333333333</ele><time>2026-04-07T16:17:12Z</time></trkpt><trkpt lat="43.77390800561197" lon="6.2957872971827955"><ele>939.0</ele><time>2026-04-07T16:17:13Z</time></trkpt><trkpt lat="43.77398691633183" lon="6.29555913622867"><ele>934.0</ele><time>2026-04-07T16:17:14Z</time></trkpt><trkpt lat="43.77405762784633" lon="6.295330700513223"><ele>929.0</ele><time>2026-04-07T16:17:15Z</time></trkpt><trkpt lat="43.774157636654834" lon="6.295131432002803"><ele>924.0</ele><time>2026-04-07T16:17:16Z</time></trkpt><trkpt lat="43.77426521159029" lon="6.29493661781452"><ele>927.6666666666667</ele><time>2026-04-07T16:17:17Z</time></trkpt><trkpt lat="43.77437315078017" lon="6.294740918874869"><ele>931.3333333333334</ele><time>2026-04-07T16:17:18Z</time></trkpt><trkpt lat="43.774495320832365" lon="6.294582359323203"><ele>935.0</ele><time>2026-04-07T16:17:19Z</time></trkpt><trkpt lat="43.77459994560846" lon="6.294437085760571"><ele>935.0</ele><time>2026-04-07T16:17:20Z</time></trkpt><trkpt lat="43.77468390229569" lon="6.294287483655858"><ele>935.0</ele><time>2026-04-07T16:17:21Z</time></trkpt><trkpt lat="43.77472596301581" lon="6.294109727680775"><ele>935.0</ele><time>2026-04-07T16:17:22Z</time></trkpt><trkpt lat="43.77472564717969" lon="6.29391570560408"><ele>935.0</ele><time>2026-04-07T16:17:23Z</time></trkpt><trkpt lat="43.77467351430641" lon="6.293736414273701"><ele>932.25</ele><time>2026-04-07T16:17:24Z</time></trkpt><trkpt lat="43.77461237790173" lon="6.293572698468344"><ele>929.5</ele><time>2026-04-07T16:17:25Z</time></trkpt><trkpt lat="43.774557778858515" lon="6.29341473880243"><ele>926.75</ele><time>2026-04-07T16:17:26Z</time></trkpt><trkpt lat="43.77456660948703" lon="6.293239979909638"><ele>924.0</ele><time>2026-04-07T16:17:27Z</time></trkpt><trkpt lat="43.77460737670327" lon="6.293079362265873"><ele>918.6666666666667</ele><time>2026-04-07T16:17:28Z</time></trkpt><trkpt lat="43.77466076514862" lon="6.292901873958732"><ele>913.3333333333334</ele><time>2026-04-07T16:17:29Z</time></trkpt><trkpt lat="43.77478922090792" lon="6.2927613811180985"><ele>908.0</ele><time>2026-04-07T16:17:30Z</time></trkpt><trkpt lat="43.77489704908011" lon="6.292592367253833"><ele>908.0</ele><time>2026-04-07T16:17:31Z</time></trkpt><trkpt lat="43.77500302855891" lon="6.2924074716973175"><ele>908.0</ele><time>2026-04-07T16:17:32Z</time></trkpt><trkpt lat="43.77511591515556" lon="6.292233775934141"><ele>908.0</ele><time>2026-04-07T16:17:33Z</time></trkpt><trkpt lat="43.77524905158066" lon="6.292082943501125"><ele>911.0</ele><time>2026-04-07T16:17:34Z</time></trkpt><trkpt lat="43.77536777407653" lon="6.291921699620791"><ele>914.0</ele><time>2026-04-07T16:17:35Z</time></trkpt><trkpt lat="43.775496930937194" lon="6.291795537062914"><ele>917.0</ele><time>2026-04-07T16:17:36Z</time></trkpt><trkpt lat="43.77561847281615" lon="6.2916537585246095"><ele>917.0</ele><time>2026-04-07T16:17:37Z</time></trkpt><trkpt lat="43.775715953805815" lon="6.291487973574429"><ele>917.0</ele><time>2026-04-07T16:17:38Z</time></trkpt><trkpt lat="43.77577972371801" lon="6.291295111701633"><ele>917.0</ele><time>2026-04-07T16:17:39Z</time></trkpt><trkpt lat="43.77581929650815" lon="6.291067123564934"><ele>911.6666666666667</ele><time>2026-04-07T16:17:40Z</time></trkpt><trkpt lat="43.77584603014429" lon="6.290823315771058"><ele>906.3333333333333</ele><time>2026-04-07T16:17:41Z</time></trkpt><trkpt lat="43.775892775121505" lon="6.290612419220304"><ele>901.0</ele><time>2026-04-07T16:17:42Z</time></trkpt><trkpt lat="43.77598079883393" lon="6.29042970014044"><ele>897.75</ele><time>2026-04-07T16:17:43Z</time></trkpt><trkpt lat="43.775988853104174" lon="6.290229735240454"><ele>894.5</ele><time>2026-04-07T16:17:44Z</time></trkpt><trkpt lat="43.77597390345156" lon="6.290028137127066"><ele>891.25</ele><time>2026-04-07T16:17:45Z</time></trkpt><trkpt lat="43.775957444385035" lon="6.289815210862723"><ele>888.0</ele><time>2026-04-07T16:17:46Z</time></trkpt><trkpt lat="43.77600039962698" lon="6.289586692834308"><ele>899.3333333333333</ele><time>2026-04-07T16:17:47Z</time></trkpt><trkpt lat="43.776032919232286" lon="6.2893162946119885"><ele>910.6666666666666</ele><time>2026-04-07T16:17:48Z</time></trkpt><trkpt lat="43.77606584835232" lon="6.289056208187821"><ele>922.0</ele><time>2026-04-07T16:17:49Z</time></trkpt><trkpt lat="43.776077866885956" lon="6.288792457088292"><ele>922.0</ele><time>2026-04-07T16:17:50Z</time></trkpt><trkpt lat="43.77607451593174" lon="6.288518744224196"><ele>922.0</ele><time>2026-04-07T16:17:51Z</time></trkpt><trkpt lat="43.77606672558379" lon="6.288238451851032"><ele>922.0</ele><time>2026-04-07T16:17:52Z</time></trkpt><trkpt lat="43.776070012643395" lon="6.287963030013578"><ele>921.6666666666666</ele><time>2026-04-07T16:17:53Z</time></trkpt><trkpt lat="43.7760839744007" lon="6.287695038943182"><ele>921.3333333333333</ele><time>2026-04-07T16:17:54Z</time></trkpt><trkpt lat="43.77609858482325" lon="6.287435798851159"><ele>921.0</ele><time>2026-04-07T16:17:55Z</time></trkpt><trkpt lat="43.776096174701856" lon="6.2871853763205685"><ele>919.3333333333333</ele><time>2026-04-07T16:17:55.999Z</time></trkpt><trkpt lat="43.77607909660466" lon="6.286942492915269"><ele>917.6666666666666</ele><time>2026-04-07T16:17:56.999Z</time></trkpt><trkpt lat="43.776035911816656" lon="6.286708765220673"><ele>916.0</ele><time>2026-04-07T16:17:57.999Z</time></trkpt><trkpt lat="43.77596144690242" lon="6.286484939274366"><ele>901.0</ele><time>2026-04-07T16:17:58.999Z</time></trkpt><trkpt lat="43.77586476932696" lon="6.286293397018614"><ele>886.0</ele><time>2026-04-07T16:17:59.999Z</time></trkpt><trkpt lat="43.775804272301436" lon="6.286093156692559"><ele>871.0</ele><time>2026-04-07T16:18:00.999Z</time></trkpt><trkpt lat="43.77577170583592" lon="6.285883229868062"><ele>871.0</ele><time>2026-04-07T16:18:01.999Z</time></trkpt><trkpt lat="43.77578386827697" lon="6.285674148901413"><ele>871.0</ele><time>2026-04-07T16:18:02.999Z</time></trkpt><trkpt lat="43.77582349723631" lon="6.285468014275941"><ele>871.0</ele><time>2026-04-07T16:18:03.999Z</time></trkpt><trkpt lat="43.775845419193246" lon="6.285302854579308"><ele>871.0</ele><time>2026-04-07T16:18:04.999Z</time></trkpt><trkpt lat="43.77587591213994" lon="6.285079923242854"><ele>872.0</ele><time>2026-04-07T16:18:05.999Z</time></trkpt><trkpt lat="43.77589290580305" lon="6.284892747995187"><ele>873.0</ele><time>2026-04-07T16:18:06.999Z</time></trkpt><trkpt lat="43.77594878444753" lon="6.284721628941436"><ele>874.0</ele><time>2026-04-07T16:18:07.999Z</time></trkpt><trkpt lat="43.776081164035745" lon="6.284610097277283"><ele>875.0</ele><time>2026-04-07T16:18:08.999Z</time></trkpt><trkpt lat="43.776203085708865" lon="6.2844543652149465"><ele>875.0</ele><time>2026-04-07T16:18:09.999Z</time></trkpt><trkpt lat="43.776300975697694" lon="6.284276437508523"><ele>875.0</ele><time>2026-04-07T16:18:10.999Z</time></trkpt><trkpt lat="43.776366114524315" lon="6.284081805027428"><ele>875.0</ele><time>2026-04-07T16:18:11.999Z</time></trkpt><trkpt lat="43.77647288467381" lon="6.283947184353608"><ele>868.75</ele><time>2026-04-07T16:18:12.999Z</time></trkpt><trkpt lat="43.776598717749074" lon="6.2838308120232265"><ele>862.5</ele><time>2026-04-07T16:18:13.999Z</time></trkpt><trkpt lat="43.77671257523579" lon="6.283692390660823"><ele>856.25</ele><time>2026-04-07T16:18:14.999Z</time></trkpt><trkpt lat="43.776850115439466" lon="6.283626083429682"><ele>850.0</ele><time>2026-04-07T16:18:15.999Z</time></trkpt><trkpt lat="43.77699036772224" lon="6.283623262128492"><ele>850.0</ele><time>2026-04-07T16:18:16.999Z</time></trkpt><trkpt lat="43.77715023121599" lon="6.283633307278627"><ele>850.0</ele><time>2026-04-07T16:18:17.999Z</time></trkpt><trkpt lat="43.777327854760635" lon="6.283619608138043"><ele>850.0</ele><time>2026-04-07T16:18:18.999Z</time></trkpt><trkpt lat="43.77751555383428" lon="6.283628181638095"><ele>849.3333333333333</ele><time>2026-04-07T16:18:19.999Z</time></trkpt><trkpt lat="43.77769877718832" lon="6.283606469938985"><ele>848.6666666666667</ele><time>2026-04-07T16:18:20.999Z</time></trkpt><trkpt lat="43.77787092257014" lon="6.283589297066415"><ele>848.0</ele><time>2026-04-07T16:18:21.999Z</time></trkpt><trkpt lat="43.77804768670322" lon="6.2835490745993665"><ele>848.0</ele><time>2026-04-07T16:18:22.999Z</time></trkpt><trkpt lat="43.77821740672893" lon="6.283487890643265"><ele>848.0</ele><time>2026-04-07T16:18:23.999Z</time></trkpt><trkpt lat="43.778381108523604" lon="6.283424477178409"><ele>848.0</ele><time>2026-04-07T16:18:24.999Z</time></trkpt><trkpt lat="43.77854182029372" lon="6.2833622237185605"><ele>851.6666666666667</ele><time>2026-04-07T16:18:25.999Z</time></trkpt><trkpt lat="43.778699206468474" lon="6.283295111760307"><ele>855.3333333333333</ele><time>2026-04-07T16:18:26.999Z</time></trkpt><trkpt lat="43.778842386660656" lon="6.283188550058439"><ele>859.0</ele><time>2026-04-07T16:18:27.999Z</time></trkpt><trkpt lat="43.778978042874144" lon="6.283077856786753"><ele>853.5</ele><time>2026-04-07T16:18:28.999Z</time></trkpt><trkpt lat="43.77911070992201" lon="6.282969022432891"><ele>848.0</ele><time>2026-04-07T16:18:29.999Z</time></trkpt><trkpt lat="43.77923485160833" lon="6.282880295063593"><ele>842.5</ele><time>2026-04-07T16:18:30.999Z</time></trkpt><trkpt lat="43.77936657205706" lon="6.282810552591466"><ele>837.0</ele><time>2026-04-07T16:18:31.999Z</time></trkpt><trkpt lat="43.77951039369125" lon="6.282764662829539"><ele>837.0</ele><time>2026-04-07T16:18:32.999Z</time></trkpt><trkpt lat="43.779665295360914" lon="6.282734484156579"><ele>837.0</ele><time>2026-04-07T16:18:33.999Z</time></trkpt><trkpt lat="43.779815326441934" lon="6.28271193552746"><ele>837.0</ele><time>2026-04-07T16:18:34.999Z</time></trkpt><trkpt lat="43.77995470745884" lon="6.2826834765270645"><ele>837.0</ele><time>2026-04-07T16:18:35.999Z</time></trkpt><trkpt lat="43.78007776480502" lon="6.282626876202754"><ele>837.8</ele><time>2026-04-07T16:18:36.999Z</time></trkpt><trkpt lat="43.78019770274215" lon="6.282592894963771"><ele>838.6</ele><time>2026-04-07T16:18:37.999Z</time></trkpt><trkpt lat="43.78030346617979" lon="6.282587341218533"><ele>839.4</ele><time>2026-04-07T16:18:38.999Z</time></trkpt><trkpt lat="43.780404829601395" lon="6.282608910694254"><ele>840.1999999999999</ele><time>2026-04-07T16:18:39.999Z</time></trkpt><trkpt lat="43.78050437376185" lon="6.28263261649525"><ele>841.0</ele><time>2026-04-07T16:18:40.999Z</time></trkpt><trkpt lat="43.78059203808467" lon="6.282645480872177"><ele>841.0</ele><time>2026-04-07T16:18:41.999Z</time></trkpt><trkpt lat="43.780675234740926" lon="6.282603522344994"><ele>841.0</ele><time>2026-04-07T16:18:42.999Z</time></trkpt><trkpt lat="43.78073154423764" lon="6.282498745268421"><ele>841.0</ele><time>2026-04-07T16:18:43.999Z</time></trkpt><trkpt lat="43.780735618924254" lon="6.282360249903552"><ele>841.0</ele><time>2026-04-07T16:18:44.999Z</time></trkpt><trkpt lat="43.78072422496196" lon="6.282232938037303"><ele>841.0</ele><time>2026-04-07T16:18:45.999Z</time></trkpt><trkpt lat="43.780628576626896" lon="6.282211098974524"><ele>841.0</ele><time>2026-04-07T16:18:46.999Z</time></trkpt><trkpt lat="43.78051431518084" lon="6.282226475134148"><ele>841.0</ele><time>2026-04-07T16:18:47.999Z</time></trkpt><trkpt lat="43.7803923686104" lon="6.282275990241301"><ele>841.0</ele><time>2026-04-07T16:18:48.999Z</time></trkpt><trkpt lat="43.780258435298265" lon="6.2823335197852614"><ele>841.0</ele><time>2026-04-07T16:18:49.999Z</time></trkpt><trkpt lat="43.78011946532892" lon="6.2823856135799145"><ele>840.0</ele><time>2026-04-07T16:18:50.999Z</time></trkpt><trkpt lat="43.779977087138256" lon="6.282389226732076"><ele>839.0</ele><time>2026-04-07T16:18:51.999Z</time></trkpt><trkpt lat="43.779829259411194" lon="6.282355921938416"><ele>838.0</ele><time>2026-04-07T16:18:52.999Z</time></trkpt><trkpt lat="43.77968499586562" lon="6.282295027904103"><ele>837.0</ele><time>2026-04-07T16:18:53.999Z</time></trkpt><trkpt lat="43.77954249782764" lon="6.282253891842181"><ele>834.0</ele><time>2026-04-07T16:18:54.999Z</time></trkpt><trkpt lat="43.779396712391744" lon="6.282256695079178"><ele>831.0</ele><time>2026-04-07T16:18:55.999Z</time></trkpt><trkpt lat="43.77924704508484" lon="6.282288900555916"><ele>828.0</ele><time>2026-04-07T16:18:56.999Z</time></trkpt><trkpt lat="43.77908827855558" lon="6.28234284621936"><ele>828.0</ele><time>2026-04-07T16:18:57.999Z</time></trkpt><trkpt lat="43.778928158255994" lon="6.282416324918493"><ele>828.0</ele><time>2026-04-07T16:18:58.999Z</time></trkpt><trkpt lat="43.77877971602503" lon="6.282511516628639"><ele>828.0</ele><time>2026-04-07T16:19:00Z</time></trkpt><trkpt lat="43.778637913974066" lon="6.282606119701332"><ele>823.6666666666667</ele><time>2026-04-07T16:19:01Z</time></trkpt><trkpt lat="43.77848502304254" lon="6.282639514404334"><ele>819.3333333333334</ele><time>2026-04-07T16:19:02Z</time></trkpt><trkpt lat="43.778331149068215" lon="6.282641385467025"><ele>815.0</ele><time>2026-04-07T16:19:03Z</time></trkpt><trkpt lat="43.77818276603044" lon="6.282631791633357"><ele>815.0</ele><time>2026-04-07T16:19:04Z</time></trkpt><trkpt lat="43.77803518835845" lon="6.282629257232974"><ele>815.0</ele><time>2026-04-07T16:19:05Z</time></trkpt><trkpt lat="43.77788183969276" lon="6.282636044884223"><ele>815.0</ele><time>2026-04-07T16:19:06Z</time></trkpt><trkpt lat="43.77772919619321" lon="6.282618947047936"><ele>814.6666666666667</ele><time>2026-04-07T16:19:07Z</time></trkpt><trkpt lat="43.77757725099226" lon="6.282588195182147"><ele>814.3333333333333</ele><time>2026-04-07T16:19:08Z</time></trkpt><trkpt lat="43.777418558485586" lon="6.282551338255786"><ele>814.0</ele><time>2026-04-07T16:19:09Z</time></trkpt><trkpt lat="43.77725474734994" lon="6.2825135211242875"><ele>814.0</ele><time>2026-04-07T16:19:10Z</time></trkpt><trkpt lat="43.77709198276792" lon="6.2824699055269955"><ele>814.0</ele><time>2026-04-07T16:19:11Z</time></trkpt><trkpt lat="43.7769359270906" lon="6.282426362923096"><ele>814.0</ele><time>2026-04-07T16:19:12Z</time></trkpt><trkpt lat="43.7767883909876" lon="6.282375701971747"><ele>814.5</ele><time>2026-04-07T16:19:13Z</time></trkpt><trkpt lat="43.7766485452206" lon="6.282337937348318"><ele>815.0</ele><time>2026-04-07T16:19:14Z</time></trkpt><trkpt lat="43.776514695887215" lon="6.28233329908709"><ele>815.5</ele><time>2026-04-07T16:19:15Z</time></trkpt><trkpt lat="43.776388789099094" lon="6.282355923388012"><ele>816.0</ele><time>2026-04-07T16:19:16Z</time></trkpt><trkpt lat="43.77627965516913" lon="6.282392620657242"><ele>816.0</ele><time>2026-04-07T16:19:17Z</time></trkpt><trkpt lat="43.776182285879585" lon="6.282435091415122"><ele>816.0</ele><time>2026-04-07T16:19:18Z</time></trkpt><trkpt lat="43.77609885135187" lon="6.282456626673285"><ele>816.0</ele><time>2026-04-07T16:19:19Z</time></trkpt><trkpt lat="43.77602279509932" lon="6.282425195498943"><ele>816.0</ele><time>2026-04-07T16:19:20Z</time></trkpt><trkpt lat="43.775972263220574" lon="6.282330007634921"><ele>816.0</ele><time>2026-04-07T16:19:21Z</time></trkpt><trkpt lat="43.775983235958236" lon="6.282212362344887"><ele>816.0</ele><time>2026-04-07T16:19:22Z</time></trkpt><trkpt lat="43.77604237085967" lon="6.282123741017147"><ele>811.25</ele><time>2026-04-07T16:19:23Z</time></trkpt><trkpt lat="43.77616061927888" lon="6.282119663207967"><ele>806.5</ele><time>2026-04-07T16:19:24Z</time></trkpt><trkpt lat="43.77630113689984" lon="6.282136059569224"><ele>801.75</ele><time>2026-04-07T16:19:25Z</time></trkpt><trkpt lat="43.776454453014146" lon="6.282133630982967"><ele>797.0</ele><time>2026-04-07T16:19:26Z</time></trkpt><trkpt lat="43.776600806204925" lon="6.282110822183322"><ele>797.0</ele><time>2026-04-07T16:19:27Z</time></trkpt><trkpt lat="43.776746141987445" lon="6.282123015853232"><ele>797.0</ele><time>2026-04-07T16:19:28Z</time></trkpt><trkpt lat="43.77688583041322" lon="6.282116947356515"><ele>797.0</ele><time>2026-04-07T16:19:29Z</time></trkpt><trkpt lat="43.77703453408998" lon="6.2821104872080555"><ele>797.0</ele><time>2026-04-07T16:19:30Z</time></trkpt><trkpt lat="43.7771899927914" lon="6.282081545370849"><ele>795.0</ele><time>2026-04-07T16:19:31Z</time></trkpt><trkpt lat="43.77734991852969" lon="6.282071962439802"><ele>793.0</ele><time>2026-04-07T16:19:32Z</time></trkpt><trkpt lat="43.777518218228245" lon="6.282079477506158"><ele>791.0</ele><time>2026-04-07T16:19:33Z</time></trkpt><trkpt lat="43.7776972689904" lon="6.282046067710306"><ele>791.0</ele><time>2026-04-07T16:19:34Z</time></trkpt><trkpt lat="43.777871354790804" lon="6.2819895936391115"><ele>791.0</ele><time>2026-04-07T16:19:35Z</time></trkpt><trkpt lat="43.77804528261561" lon="6.281895386832508"><ele>791.0</ele><time>2026-04-07T16:19:36Z</time></trkpt><trkpt lat="43.77822556961903" lon="6.281808227138076"><ele>791.0</ele><time>2026-04-07T16:19:37Z</time></trkpt><trkpt lat="43.778395125244316" lon="6.281709140257886"><ele>791.0</ele><time>2026-04-07T16:19:38Z</time></trkpt><trkpt lat="43.778570218475984" lon="6.281623228549953"><ele>791.0</ele><time>2026-04-07T16:19:39Z</time></trkpt><trkpt lat="43.778727112852245" lon="6.281516109507085"><ele>785.6666666666667</ele><time>2026-04-07T16:19:40Z</time></trkpt><trkpt lat="43.77887607649097" lon="6.281393944061347"><ele>780.3333333333333</ele><time>2026-04-07T16:19:41Z</time></trkpt><trkpt lat="43.7790185595462" lon="6.281266512195364"><ele>775.0</ele><time>2026-04-07T16:19:42Z</time></trkpt><trkpt lat="43.7791607742949" lon="6.281130771799658"><ele>775.0</ele><time>2026-04-07T16:19:43Z</time></trkpt><trkpt lat="43.77931045405041" lon="6.281004155982778"><ele>775.0</ele><time>2026-04-07T16:19:44Z</time></trkpt><trkpt lat="43.779475316933826" lon="6.280907679462291"><ele>775.0</ele><time>2026-04-07T16:19:45Z</time></trkpt><trkpt lat="43.77964785891598" lon="6.2808466107124294"><ele>776.3333333333333</ele><time>2026-04-07T16:19:46Z</time></trkpt><trkpt lat="43.77983853785505" lon="6.2807867344261235"><ele>777.6666666666667</ele><time>2026-04-07T16:19:47Z</time></trkpt><trkpt lat="43.780012770242394" lon="6.280681042148108"><ele>779.0</ele><time>2026-04-07T16:19:48Z</time></trkpt><trkpt lat="43.78019150124694" lon="6.28058593667994"><ele>776.3333333333334</ele><time>2026-04-07T16:19:49Z</time></trkpt><trkpt lat="43.780361776740286" lon="6.280479988824602"><ele>773.6666666666667</ele><time>2026-04-07T16:19:50Z</time></trkpt><trkpt lat="43.78052445268565" lon="6.280384368778841"><ele>771.0</ele><time>2026-04-07T16:19:51Z</time></trkpt><trkpt lat="43.7806741154116" lon="6.280258295222575"><ele>771.0</ele><time>2026-04-07T16:19:52Z</time></trkpt><trkpt lat="43.780796432734356" lon="6.280117074557557"><ele>771.0</ele><time>2026-04-07T16:19:53Z</time></trkpt><trkpt lat="43.780870132020475" lon="6.279961463277279"><ele>771.0</ele><time>2026-04-07T16:19:53.999Z</time></trkpt><trkpt lat="43.78091447674431" lon="6.279769778679224"><ele>771.0</ele><time>2026-04-07T16:19:54.999Z</time></trkpt><trkpt lat="43.78092888414647" lon="6.279565409756289"><ele>770.75</ele><time>2026-04-07T16:19:55.999Z</time></trkpt><trkpt lat="43.78093240891491" lon="6.279343129684468"><ele>770.5</ele><time>2026-04-07T16:19:56.999Z</time></trkpt><trkpt lat="43.7809874440537" lon="6.279144417642807"><ele>770.25</ele><time>2026-04-07T16:19:57.999Z</time></trkpt><trkpt lat="43.781045466203786" lon="6.278986950301872"><ele>770.0</ele><time>2026-04-07T16:19:58.999Z</time></trkpt><trkpt lat="43.781163006443805" lon="6.2787972953223194"><ele>770.0</ele><time>2026-04-07T16:19:59.999Z</time></trkpt><trkpt lat="43.78129902087298" lon="6.278623181965737"><ele>770.0</ele><time>2026-04-07T16:20:00.999Z</time></trkpt><trkpt lat="43.781405426168035" lon="6.2784177418691485"><ele>770.0</ele><time>2026-04-07T16:20:01.999Z</time></trkpt><trkpt lat="43.78152380398753" lon="6.278210916295867"><ele>772.0</ele><time>2026-04-07T16:20:02.999Z</time></trkpt><trkpt lat="43.78162878917307" lon="6.2780037062614"><ele>774.0</ele><time>2026-04-07T16:20:03.999Z</time></trkpt><trkpt lat="43.78173108266609" lon="6.277815149381398"><ele>776.0</ele><time>2026-04-07T16:20:04.999Z</time></trkpt><trkpt lat="43.78185232525737" lon="6.2776476314155705"><ele>776.0</ele><time>2026-04-07T16:20:05.999Z</time></trkpt><trkpt lat="43.781957790511534" lon="6.277477207003078"><ele>776.0</ele><time>2026-04-07T16:20:06.999Z</time></trkpt><trkpt lat="43.78204079320262" lon="6.277290382234018"><ele>776.0</ele><time>2026-04-07T16:20:07.999Z</time></trkpt><trkpt lat="43.7821186841128" lon="6.277132492877662"><ele>769.75</ele><time>2026-04-07T16:20:08.999Z</time></trkpt><trkpt lat="43.782221719157214" lon="6.277039114832379"><ele>763.5</ele><time>2026-04-07T16:20:09.999Z</time></trkpt><trkpt lat="43.782343591298435" lon="6.2769953003277905"><ele>757.25</ele><time>2026-04-07T16:20:10.999Z</time></trkpt><trkpt lat="43.78248447560387" lon="6.276973900954929"><ele>751.0</ele><time>2026-04-07T16:20:11.999Z</time></trkpt><trkpt lat="43.78260010886641" lon="6.276910422910562"><ele>756.5</ele><time>2026-04-07T16:20:12.999Z</time></trkpt><trkpt lat="43.78268625565548" lon="6.276806160468286"><ele>762.0</ele><time>2026-04-07T16:20:13.999Z</time></trkpt><trkpt lat="43.78273517529235" lon="6.276623195202557"><ele>767.5</ele><time>2026-04-07T16:20:14.999Z</time></trkpt><trkpt lat="43.78276233667161" lon="6.276394640953153"><ele>773.0</ele><time>2026-04-07T16:20:15.999Z</time></trkpt><trkpt lat="43.78280198299668" lon="6.2761508099012255"><ele>773.0</ele><time>2026-04-07T16:20:16.999Z</time></trkpt><trkpt lat="43.7828448797933" lon="6.275912700093776"><ele>773.0</ele><time>2026-04-07T16:20:17.999Z</time></trkpt><trkpt lat="43.782904334092244" lon="6.2756887953053795"><ele>773.0</ele><time>2026-04-07T16:20:18.999Z</time></trkpt><trkpt lat="43.782988463383695" lon="6.275502141242464"><ele>763.3333333333334</ele><time>2026-04-07T16:20:19.999Z</time></trkpt><trkpt lat="43.78310555642591" lon="6.275343405435678"><ele>753.6666666666667</ele><time>2026-04-07T16:20:20.999Z</time></trkpt><trkpt lat="43.78322625833138" lon="6.275192434840424"><ele>744.0</ele><time>2026-04-07T16:20:21.999Z</time></trkpt><trkpt lat="43.78332464262908" lon="6.2750188723628195"><ele>744.0</ele><time>2026-04-07T16:20:22.999Z</time></trkpt><trkpt lat="43.7834041685144" lon="6.274830357624241"><ele>744.0</ele><time>2026-04-07T16:20:23.999Z</time></trkpt><trkpt lat="43.78345712613207" lon="6.274612010111759"><ele>744.0</ele><time>2026-04-07T16:20:24.999Z</time></trkpt><trkpt lat="43.78347512957727" lon="6.274377820643006"><ele>744.6666666666666</ele><time>2026-04-07T16:20:25.999Z</time></trkpt><trkpt lat="43.78348397275223" lon="6.274155816637602"><ele>745.3333333333333</ele><time>2026-04-07T16:20:26.999Z</time></trkpt><trkpt lat="43.78351806368678" lon="6.273945580577589"><ele>746.0</ele><time>2026-04-07T16:20:27.999Z</time></trkpt><trkpt lat="43.78360876103537" lon="6.273761353831884"><ele>746.0</ele><time>2026-04-07T16:20:28.999Z</time></trkpt><trkpt lat="43.783696630800385" lon="6.273551378628953"><ele>746.0</ele><time>2026-04-07T16:20:29.999Z</time></trkpt><trkpt lat="43.783832786371214" lon="6.273371407971296"><ele>746.0</ele><time>2026-04-07T16:20:30.999Z</time></trkpt><trkpt lat="43.783949374999835" lon="6.273176943790631"><ele>736.6666666666666</ele><time>2026-04-07T16:20:31.999Z</time></trkpt><trkpt lat="43.784052355116344" lon="6.272971541199262"><ele>727.3333333333334</ele><time>2026-04-07T16:20:32.999Z</time></trkpt><trkpt lat="43.784165188191466" lon="6.2728078936782"><ele>718.0</ele><time>2026-04-07T16:20:33.999Z</time></trkpt><trkpt lat="43.78428327510177" lon="6.272676560210484"><ele>728.75</ele><time>2026-04-07T16:20:34.999Z</time></trkpt><trkpt lat="43.78439927767942" lon="6.272603774589461"><ele>739.5</ele><time>2026-04-07T16:20:35.999Z</time></trkpt><trkpt lat="43.78448590957433" lon="6.272522360638661"><ele>750.25</ele><time>2026-04-07T16:20:36.999Z</time></trkpt><trkpt lat="43.78452511577632" lon="6.272382320308994"><ele>761.0</ele><time>2026-04-07T16:20:37.999Z</time></trkpt><trkpt lat="43.78450787023981" lon="6.272200987703728"><ele>761.0</ele><time>2026-04-07T16:20:38.999Z</time></trkpt><trkpt lat="43.78447242146037" lon="6.272007383392765"><ele>761.0</ele><time>2026-04-07T16:20:39.999Z</time></trkpt><trkpt lat="43.78445013341396" lon="6.271801497907052"><ele>761.0</ele><time>2026-04-07T16:20:40.999Z</time></trkpt><trkpt lat="43.784462632270916" lon="6.271591258707216"><ele>761.0</ele><time>2026-04-07T16:20:41.999Z</time></trkpt><trkpt lat="43.784493549350664" lon="6.271383683052014"><ele>761.0</ele><time>2026-04-07T16:20:42.999Z</time></trkpt><trkpt lat="43.78454447596639" lon="6.27119277667381"><ele>761.0</ele><time>2026-04-07T16:20:43.999Z</time></trkpt><trkpt lat="43.7846039011156" lon="6.271022380573665"><ele>761.0</ele><time>2026-04-07T16:20:44.999Z</time></trkpt><trkpt lat="43.784625262853275" lon="6.27083945606134"><ele>761.0</ele><time>2026-04-07T16:20:45.999Z</time></trkpt><trkpt lat="43.784599886100715" lon="6.270651456241596"><ele>765.0</ele><time>2026-04-07T16:20:46.999Z</time></trkpt><trkpt lat="43.78454544562264" lon="6.270445612457211"><ele>769.0</ele><time>2026-04-07T16:20:47.999Z</time></trkpt><trkpt lat="43.78449144826925" lon="6.270234128864027"><ele>773.0</ele><time>2026-04-07T16:20:48.999Z</time></trkpt><trkpt lat="43.784444004993674" lon="6.270032006257395"><ele>773.0</ele><time>2026-04-07T16:20:49.999Z</time></trkpt><trkpt lat="43.78440418216288" lon="6.269838780836539"><ele>773.0</ele><time>2026-04-07T16:20:50.999Z</time></trkpt><trkpt lat="43.78437661317738" lon="6.269632885445548"><ele>773.0</ele><time>2026-04-07T16:20:51.999Z</time></trkpt><trkpt lat="43.78436327461531" lon="6.2694179761579925"><ele>766.6666666666667</ele><time>2026-04-07T16:20:52.999Z</time></trkpt><trkpt lat="43.78435543849967" lon="6.269191252622661"><ele>760.3333333333334</ele><time>2026-04-07T16:20:53.999Z</time></trkpt><trkpt lat="43.78435202447439" lon="6.2689576236211195"><ele>754.0</ele><time>2026-04-07T16:20:54.999Z</time></trkpt><trkpt lat="43.78434533132725" lon="6.268731405546225"><ele>742.3333333333334</ele><time>2026-04-07T16:20:55.999Z</time></trkpt><trkpt lat="43.78433718864898" lon="6.268512525382391"><ele>730.6666666666666</ele><time>2026-04-07T16:20:56.999Z</time></trkpt><trkpt lat="43.78433996864327" lon="6.2683057725876274"><ele>719.0</ele><time>2026-04-07T16:20:57.999Z</time></trkpt><trkpt lat="43.78434126463325" lon="6.26810247652806"><ele>719.0</ele><time>2026-04-07T16:20:58.999Z</time></trkpt><trkpt lat="43.784342741283155" lon="6.267911822512078"><ele>719.0</ele><time>2026-04-07T16:20:59.999Z</time></trkpt><trkpt lat="43.7843694683487" lon="6.267720208552038"><ele>719.0</ele><time>2026-04-07T16:21:00.999Z</time></trkpt><trkpt lat="43.78443588967786" lon="6.267562810561539"><ele>719.0</ele><time>2026-04-07T16:21:01.999Z</time></trkpt><trkpt lat="43.784536455548235" lon="6.267428114728444"><ele>719.6666666666666</ele><time>2026-04-07T16:21:02.999Z</time></trkpt><trkpt lat="43.78467739258364" lon="6.267301025127611"><ele>720.3333333333334</ele><time>2026-04-07T16:21:03.999Z</time></trkpt><trkpt lat="43.784831260404594" lon="6.267197238056253"><ele>721.0</ele><time>2026-04-07T16:21:04.999Z</time></trkpt><trkpt lat="43.78498012713678" lon="6.267084908832501"><ele>713.3333333333334</ele><time>2026-04-07T16:21:06Z</time></trkpt><trkpt lat="43.78510927242498" lon="6.266962637821426"><ele>705.6666666666666</ele><time>2026-04-07T16:21:07Z</time></trkpt><trkpt lat="43.78523316482935" lon="6.266833016820742"><ele>698.0</ele><time>2026-04-07T16:21:08Z</time></trkpt><trkpt lat="43.78536406249273" lon="6.266738909357323"><ele>698.0</ele><time>2026-04-07T16:21:09Z</time></trkpt><trkpt lat="43.785502465102596" lon="6.266703919880627"><ele>698.0</ele><time>2026-04-07T16:21:10Z</time></trkpt><trkpt lat="43.78563697567963" lon="6.266727453215319"><ele>698.0</ele><time>2026-04-07T16:21:11Z</time></trkpt><trkpt lat="43.7857686750318" lon="6.26677688335913"><ele>698.0</ele><time>2026-04-07T16:21:12Z</time></trkpt><trkpt lat="43.78590419725338" lon="6.266793404747098"><ele>692.3333333333333</ele><time>2026-04-07T16:21:13Z</time></trkpt><trkpt lat="43.786033925187915" lon="6.26671085222863"><ele>686.6666666666666</ele><time>2026-04-07T16:21:14Z</time></trkpt><trkpt lat="43.78615610325682" lon="6.266561877815887"><ele>681.0</ele><time>2026-04-07T16:21:15Z</time></trkpt><trkpt lat="43.786269554195044" lon="6.266378240891397"><ele>681.0</ele><time>2026-04-07T16:21:16Z</time></trkpt><trkpt lat="43.786404633370715" lon="6.266237590143204"><ele>681.0</ele><time>2026-04-07T16:21:17Z</time></trkpt><trkpt lat="43.7865566768578" lon="6.266136808853531"><ele>681.0</ele><time>2026-04-07T16:21:18Z</time></trkpt><trkpt lat="43.78671594015256" lon="6.26605154135859"><ele>683.0</ele><time>2026-04-07T16:21:19Z</time></trkpt><trkpt lat="43.78686050967455" lon="6.265948639847752"><ele>685.0</ele><time>2026-04-07T16:21:20Z</time></trkpt><trkpt lat="43.78701446629496" lon="6.265876004276651"><ele>687.0</ele><time>2026-04-07T16:21:21Z</time></trkpt><trkpt lat="43.78716153152167" lon="6.265828826727735"><ele>687.0</ele><time>2026-04-07T16:21:22Z</time></trkpt><trkpt lat="43.7872897160514" lon="6.265790324051989"><ele>687.0</ele><time>2026-04-07T16:21:23Z</time></trkpt><trkpt lat="43.787379440047864" lon="6.265762695264055"><ele>687.0</ele><time>2026-04-07T16:21:24Z</time></trkpt><trkpt lat="43.787462941864135" lon="6.26578555993158"><ele>687.0</ele><time>2026-04-07T16:21:25Z</time></trkpt><trkpt lat="43.78754261708703" lon="6.265868613285874"><ele>687.0</ele><time>2026-04-07T16:21:26Z</time></trkpt><trkpt lat="43.78761945451093" lon="6.266030333793773"><ele>676.6666666666666</ele><time>2026-04-07T16:21:27Z</time></trkpt><trkpt lat="43.78771239164954" lon="6.266199985048873"><ele>666.3333333333333</ele><time>2026-04-07T16:21:28Z</time></trkpt><trkpt lat="43.78784333891476" lon="6.266331833685628"><ele>656.0</ele><time>2026-04-07T16:21:29Z</time></trkpt><trkpt lat="43.7880065087144" lon="6.266407465640121"><ele>672.0</ele><time>2026-04-07T16:21:30Z</time></trkpt><trkpt lat="43.78818006088123" lon="6.266451859451936"><ele>688.0</ele><time>2026-04-07T16:21:31Z</time></trkpt><trkpt lat="43.788338063958676" lon="6.266484244339439"><ele>704.0</ele><time>2026-04-07T16:21:32Z</time></trkpt><trkpt lat="43.78848250318904" lon="6.266532968559368"><ele>707.0</ele><time>2026-04-07T16:21:33Z</time></trkpt><trkpt lat="43.78861522814359" lon="6.266604555383637"><ele>710.0</ele><time>2026-04-07T16:21:34Z</time></trkpt><trkpt lat="43.78873992089571" lon="6.266664626544852"><ele>713.0</ele><time>2026-04-07T16:21:35Z</time></trkpt><trkpt lat="43.7888446329287" lon="6.266675015410241"><ele>716.0</ele><time>2026-04-07T16:21:36Z</time></trkpt><trkpt lat="43.788952324692325" lon="6.266625857121405"><ele>716.0</ele><time>2026-04-07T16:21:37Z</time></trkpt><trkpt lat="43.78904050358719" lon="6.266512660591757"><ele>716.0</ele><time>2026-04-07T16:21:38Z</time></trkpt><trkpt lat="43.789104579909704" lon="6.266366620107946"><ele>716.0</ele><time>2026-04-07T16:21:39Z</time></trkpt><trkpt lat="43.78913657088674" lon="6.266184336771821"><ele>716.0</ele><time>2026-04-07T16:21:40Z</time></trkpt><trkpt lat="43.78913511691062" lon="6.265976190813095"><ele>705.0</ele><time>2026-04-07T16:21:41Z</time></trkpt><trkpt lat="43.78915600015656" lon="6.265787054851348"><ele>694.0</ele><time>2026-04-07T16:21:42Z</time></trkpt><trkpt lat="43.78922314186755" lon="6.265626038466131"><ele>683.0</ele><time>2026-04-07T16:21:42.999Z</time></trkpt><trkpt lat="43.789313027809364" lon="6.265483852630122"><ele>672.0</ele><time>2026-04-07T16:21:43.999Z</time></trkpt><trkpt lat="43.78939833512395" lon="6.2653769656746086"><ele>669.0</ele><time>2026-04-07T16:21:44.999Z</time></trkpt><trkpt lat="43.789506635955384" lon="6.2653011319602205"><ele>666.0</ele><time>2026-04-07T16:21:45.999Z</time></trkpt><trkpt lat="43.78963734163635" lon="6.265279524020308"><ele>663.0</ele><time>2026-04-07T16:21:46.999Z</time></trkpt><trkpt lat="43.78978044008804" lon="6.265300274328725"><ele>660.0</ele><time>2026-04-07T16:21:47.999Z</time></trkpt><trkpt lat="43.78993652776241" lon="6.265324597653012"><ele>660.0</ele><time>2026-04-07T16:21:48.999Z</time></trkpt><trkpt lat="43.79010068353434" lon="6.265318318685404"><ele>660.0</ele><time>2026-04-07T16:21:49.999Z</time></trkpt><trkpt lat="43.79023922858502" lon="6.265270842246914"><ele>660.0</ele><time>2026-04-07T16:21:50.999Z</time></trkpt><trkpt lat="43.790371556096225" lon="6.265205737277573"><ele>660.0</ele><time>2026-04-07T16:21:51.999Z</time></trkpt><trkpt lat="43.79049126757208" lon="6.265148045982466"><ele>659.75</ele><time>2026-04-07T16:21:52.999Z</time></trkpt><trkpt lat="43.79058678404479" lon="6.265084075339726"><ele>659.5</ele><time>2026-04-07T16:21:53.999Z</time></trkpt><trkpt lat="43.79068515135155" lon="6.265018181552619"><ele>659.25</ele><time>2026-04-07T16:21:54.999Z</time></trkpt><trkpt lat="43.790795905831644" lon="6.264991139184276"><ele>659.0</ele><time>2026-04-07T16:21:55.999Z</time></trkpt><trkpt lat="43.790931068627245" lon="6.2650281756902375"><ele>657.25</ele><time>2026-04-07T16:21:56.999Z</time></trkpt><trkpt lat="43.79105267036219" lon="6.265084272023347"><ele>655.5</ele><time>2026-04-07T16:21:57.999Z</time></trkpt><trkpt lat="43.79116078239865" lon="6.26513524780767"><ele>653.75</ele><time>2026-04-07T16:21:58.999Z</time></trkpt><trkpt lat="43.79126488907023" lon="6.265178395137378"><ele>652.0</ele><time>2026-04-07T16:21:59.999Z</time></trkpt><trkpt lat="43.79137538514021" lon="6.265218488817929"><ele>652.0</ele><time>2026-04-07T16:22:00.999Z</time></trkpt><trkpt lat="43.79149154136568" lon="6.265247133289245"><ele>652.0</ele><time>2026-04-07T16:22:01.999Z</time></trkpt><trkpt lat="43.791613339450365" lon="6.265240220759009"><ele>652.0</ele><time>2026-04-07T16:22:02.999Z</time></trkpt><trkpt lat="43.79173409615066" lon="6.265193662853446"><ele>652.0</ele><time>2026-04-07T16:22:03.999Z</time></trkpt><trkpt lat="43.79186643166836" lon="6.265145119330774"><ele>650.6666666666667</ele><time>2026-04-07T16:22:04.999Z</time></trkpt><trkpt lat="43.7920197820703" lon="6.265136028457695"><ele>649.3333333333334</ele><time>2026-04-07T16:22:05.999Z</time></trkpt><trkpt lat="43.79217590942438" lon="6.265167898099637"><ele>648.0</ele><time>2026-04-07T16:22:06.999Z</time></trkpt><trkpt lat="43.792326784644494" lon="6.265189004983078"><ele>648.0</ele><time>2026-04-07T16:22:07.999Z</time></trkpt><trkpt lat="43.79248090009087" lon="6.265186240696281"><ele>648.0</ele><time>2026-04-07T16:22:08.999Z</time></trkpt><trkpt lat="43.79262228329991" lon="6.265208636915424"><ele>648.0</ele><time>2026-04-07T16:22:09.999Z</time></trkpt><trkpt lat="43.79276026266201" lon="6.265171588341604"><ele>648.0</ele><time>2026-04-07T16:22:10.999Z</time></trkpt><trkpt lat="43.79288111982336" lon="6.265094333453308"><ele>652.5</ele><time>2026-04-07T16:22:11.999Z</time></trkpt><trkpt lat="43.79301192820935" lon="6.265094309201013"><ele>657.0</ele><time>2026-04-07T16:22:12.999Z</time></trkpt><trkpt lat="43.79313310230026" lon="6.26512897338388"><ele>661.5</ele><time>2026-04-07T16:22:13.999Z</time></trkpt><trkpt lat="43.7932515239772" lon="6.265067425974127"><ele>666.0</ele><time>2026-04-07T16:22:14.999Z</time></trkpt><trkpt lat="43.79336730259516" lon="6.264977450396022"><ele>666.0</ele><time>2026-04-07T16:22:15.999Z</time></trkpt><trkpt lat="43.793484139327965" lon="6.264886038447674"><ele>666.0</ele><time>2026-04-07T16:22:16.999Z</time></trkpt><trkpt lat="43.79361219160682" lon="6.2648218552792825"><ele>666.0</ele><time>2026-04-07T16:22:17.999Z</time></trkpt><trkpt lat="43.79371296726797" lon="6.264721607099452"><ele>666.0</ele><time>2026-04-07T16:22:18.999Z</time></trkpt><trkpt lat="43.79380064077757" lon="6.264609029278549"><ele>667.5</ele><time>2026-04-07T16:22:19.999Z</time></trkpt><trkpt lat="43.793869643037716" lon="6.264480464494321"><ele>669.0</ele><time>2026-04-07T16:22:20.999Z</time></trkpt><trkpt lat="43.793897676273055" lon="6.264282341967129"><ele>670.5</ele><time>2026-04-07T16:22:21.999Z</time></trkpt><trkpt lat="43.79392587184119" lon="6.2640840348057925"><ele>672.0</ele><time>2026-04-07T16:22:22.999Z</time></trkpt><trkpt lat="43.793990261911716" lon="6.263922627670772"><ele>666.0</ele><time>2026-04-07T16:22:23.999Z</time></trkpt><trkpt lat="43.79407052893926" lon="6.263771806695761"><ele>660.0</ele><time>2026-04-07T16:22:24.999Z</time></trkpt><trkpt lat="43.794164232719965" lon="6.263605142558702"><ele>654.0</ele><time>2026-04-07T16:22:25.999Z</time></trkpt><trkpt lat="43.79424498390043" lon="6.263439145352344"><ele>648.0</ele><time>2026-04-07T16:22:26.999Z</time></trkpt><trkpt lat="43.79433474867542" lon="6.263291008640989"><ele>645.5</ele><time>2026-04-07T16:22:27.999Z</time></trkpt><trkpt lat="43.794422012751916" lon="6.263147523437691"><ele>643.0</ele><time>2026-04-07T16:22:28.999Z</time></trkpt><trkpt lat="43.79450850506022" lon="6.263023067151161"><ele>640.5</ele><time>2026-04-07T16:22:29.999Z</time></trkpt><trkpt lat="43.79454116996861" lon="6.262858385400203"><ele>638.0</ele><time>2026-04-07T16:22:30.999Z</time></trkpt><trkpt lat="43.794564282605016" lon="6.262716095109862"><ele>638.0</ele><time>2026-04-07T16:22:31.999Z</time></trkpt><trkpt lat="43.79460688247443" lon="6.262590458614147"><ele>638.0</ele><time>2026-04-07T16:22:32.999Z</time></trkpt><trkpt lat="43.79467632807103" lon="6.262509850472543"><ele>638.0</ele><time>2026-04-07T16:22:33.999Z</time></trkpt><trkpt lat="43.79476443901491" lon="6.262482476533601"><ele>638.0</ele><time>2026-04-07T16:22:34.999Z</time></trkpt><trkpt lat="43.79485990837936" lon="6.26251152786005"><ele>638.0</ele><time>2026-04-07T16:22:35.999Z</time></trkpt><trkpt lat="43.794940498509725" lon="6.262601833192267"><ele>638.0</ele><time>2026-04-07T16:22:36.999Z</time></trkpt><trkpt lat="43.79503049592275" lon="6.262647774046902"><ele>638.0</ele><time>2026-04-07T16:22:37.999Z</time></trkpt><trkpt lat="43.7951107801588" lon="6.262729737313132"><ele>638.0</ele><time>2026-04-07T16:22:38.999Z</time></trkpt><trkpt lat="43.79516075945213" lon="6.262840247411902"><ele>638.0</ele><time>2026-04-07T16:22:39.999Z</time></trkpt><trkpt lat="43.79523684935815" lon="6.262940067707349"><ele>638.0</ele><time>2026-04-07T16:22:40.999Z</time></trkpt><trkpt lat="43.79529265467585" lon="6.263044089429178"><ele>641.5999999999999</ele><time>2026-04-07T16:22:41.999Z</time></trkpt><trkpt lat="43.79537027830058" lon="6.263140215390784"><ele>645.1999999999999</ele><time>2026-04-07T16:22:42.999Z</time></trkpt><trkpt lat="43.795464118800666" lon="6.263205320300134"><ele>648.8</ele><time>2026-04-07T16:22:43.999Z</time></trkpt><trkpt lat="43.795571754759756" lon="6.263241175602792"><ele>652.4</ele><time>2026-04-07T16:22:44.999Z</time></trkpt><trkpt lat="43.79568138109672" lon="6.263261266723859"><ele>656.0</ele><time>2026-04-07T16:22:45.999Z</time></trkpt><trkpt lat="43.79579156056996" lon="6.263275430282884"><ele>656.0</ele><time>2026-04-07T16:22:46.999Z</time></trkpt><trkpt lat="43.795898648403245" lon="6.263272231338351"><ele>656.0</ele><time>2026-04-07T16:22:47.999Z</time></trkpt><trkpt lat="43.796003705673535" lon="6.263251772060288"><ele>656.0</ele><time>2026-04-07T16:22:48.999Z</time></trkpt><trkpt lat="43.79611953788495" lon="6.263229048011695"><ele>656.0</ele><time>2026-04-07T16:22:49.999Z</time></trkpt><trkpt lat="43.796235979073664" lon="6.263163856284204"><ele>650.0</ele><time>2026-04-07T16:22:50.999Z</time></trkpt><trkpt lat="43.79633878536204" lon="6.2630769517931055"><ele>644.0</ele><time>2026-04-07T16:22:51.999Z</time></trkpt><trkpt lat="43.79644639617897" lon="6.263019628266467"><ele>638.0</ele><time>2026-04-07T16:22:52.999Z</time></trkpt><trkpt lat="43.796556146466955" lon="6.263004192320376"><ele>632.0</ele><time>2026-04-07T16:22:53.999Z</time></trkpt><trkpt lat="43.79666680396" lon="6.262961947240122"><ele>632.0</ele><time>2026-04-07T16:22:54.999Z</time></trkpt><trkpt lat="43.796782556030294" lon="6.2629273696447765"><ele>632.0</ele><time>2026-04-07T16:22:55.999Z</time></trkpt><trkpt lat="43.79688524240766" lon="6.262846450137741"><ele>632.0</ele><time>2026-04-07T16:22:56.999Z</time></trkpt><trkpt lat="43.79697687158646" lon="6.26273043435996"><ele>632.0</ele><time>2026-04-07T16:22:57.999Z</time></trkpt><trkpt lat="43.79709265268101" lon="6.262648653917493"><ele>634.0</ele><time>2026-04-07T16:22:58.999Z</time></trkpt><trkpt lat="43.79722820269811" lon="6.262572362948022"><ele>636.0</ele><time>2026-04-07T16:22:59.999Z</time></trkpt><trkpt lat="43.79735703470679" lon="6.262469935968142"><ele>638.0</ele><time>2026-04-07T16:23:00.999Z</time></trkpt><trkpt lat="43.79747920508647" lon="6.262391207099436"><ele>640.0</ele><time>2026-04-07T16:23:01.999Z</time></trkpt><trkpt lat="43.797565744763865" lon="6.262270865799957"><ele>640.0</ele><time>2026-04-07T16:23:02.999Z</time></trkpt><trkpt lat="43.797649652844534" lon="6.26214936177071"><ele>640.0</ele><time>2026-04-07T16:23:03.999Z</time></trkpt><trkpt lat="43.79773013293108" lon="6.262049481043764"><ele>640.0</ele><time>2026-04-07T16:23:04.999Z</time></trkpt><trkpt lat="43.79780654798673" lon="6.261945018096385"><ele>640.0</ele><time>2026-04-07T16:23:05.999Z</time></trkpt><trkpt lat="43.79790255483386" lon="6.261892808779023"><ele>640.0</ele><time>2026-04-07T16:23:06.999Z</time></trkpt><trkpt lat="43.79799426485792" lon="6.261842441045071"><ele>646.6666666666667</ele><time>2026-04-07T16:23:07.999Z</time></trkpt><trkpt lat="43.79806393355473" lon="6.261781317491594"><ele>653.3333333333334</ele><time>2026-04-07T16:23:08.999Z</time></trkpt><trkpt lat="43.79811880352549" lon="6.261700876500893"><ele>660.0</ele><time>2026-04-07T16:23:09.999Z</time></trkpt><trkpt lat="43.79814557708495" lon="6.261592329670223"><ele>666.6666666666666</ele><time>2026-04-07T16:23:10.999Z</time></trkpt><trkpt lat="43.79813330012631" lon="6.261482188432859"><ele>673.3333333333333</ele><time>2026-04-07T16:23:12Z</time></trkpt><trkpt lat="43.798099270838655" lon="6.261390848426856"><ele>680.0</ele><time>2026-04-07T16:23:13Z</time></trkpt><trkpt lat="43.79804630874901" lon="6.26130396559796"><ele>680.0</ele><time>2026-04-07T16:23:14Z</time></trkpt><trkpt lat="43.797992684458684" lon="6.261223683179204"><ele>680.0</ele><time>2026-04-07T16:23:15Z</time></trkpt><trkpt lat="43.79795161446123" lon="6.261157359525217"><ele>680.0</ele><time>2026-04-07T16:23:16Z</time></trkpt><trkpt lat="43.79791597233807" lon="6.261084642258666"><ele>680.0</ele><time>2026-04-07T16:23:17Z</time></trkpt><trkpt lat="43.7978493478441" lon="6.260922679578107"><ele>680.0</ele><time>2026-04-07T16:23:19Z</time></trkpt><trkpt lat="43.797848045637274" lon="6.260834105538858"><ele>680.0</ele><time>2026-04-07T16:23:20Z</time></trkpt><trkpt lat="43.797837400038375" lon="6.260723816405907"><ele>680.0</ele><time>2026-04-07T16:23:21Z</time></trkpt><trkpt lat="43.79787198282268" lon="6.26062383858698"><ele>680.0</ele><time>2026-04-07T16:23:22Z</time></trkpt><trkpt lat="43.7979484255945" lon="6.260535515194764"><ele>680.0</ele><time>2026-04-07T16:23:23Z</time></trkpt><trkpt lat="43.798016187736366" lon="6.260446600321415"><ele>680.0</ele><time>2026-04-07T16:23:24Z</time></trkpt><trkpt lat="43.79807031358164" lon="6.260323639589282"><ele>680.0</ele><time>2026-04-07T16:23:25Z</time></trkpt><trkpt lat="43.798121391475746" lon="6.260210489336709"><ele>676.3333333333333</ele><time>2026-04-07T16:23:26Z</time></trkpt><trkpt lat="43.79816015760929" lon="6.260098009253592"><ele>672.6666666666666</ele><time>2026-04-07T16:23:27Z</time></trkpt><trkpt lat="43.79820491423349" lon="6.259996937971289"><ele>669.0</ele><time>2026-04-07T16:23:28Z</time></trkpt><trkpt lat="43.79826531084892" lon="6.259908181505085"><ele>665.3333333333334</ele><time>2026-04-07T16:23:29Z</time></trkpt><trkpt lat="43.7983410644279" lon="6.259833981118896"><ele>661.6666666666667</ele><time>2026-04-07T16:23:30Z</time></trkpt><trkpt lat="43.79841515652127" lon="6.259776048090117"><ele>658.0</ele><time>2026-04-07T16:23:31Z</time></trkpt><trkpt lat="43.798497859699985" lon="6.259722313631855"><ele>654.1999999999999</ele><time>2026-04-07T16:23:32Z</time></trkpt><trkpt lat="43.79859637404988" lon="6.259683989766257"><ele>650.4</ele><time>2026-04-07T16:23:33Z</time></trkpt><trkpt lat="43.798708678366495" lon="6.2596785764299"><ele>646.5999999999999</ele><time>2026-04-07T16:23:34Z</time></trkpt><trkpt lat="43.79880462031184" lon="6.259648308916032"><ele>642.8</ele><time>2026-04-07T16:23:35Z</time></trkpt><trkpt lat="43.798909980700074" lon="6.259624122822829"><ele>639.0</ele><time>2026-04-07T16:23:36Z</time></trkpt><trkpt lat="43.79900934278172" lon="6.2595772367703"><ele>639.0</ele><time>2026-04-07T16:23:37Z</time></trkpt><trkpt lat="43.79910631838899" lon="6.259508964553846"><ele>639.0</ele><time>2026-04-07T16:23:38Z</time></trkpt><trkpt lat="43.7992203434302" lon="6.259494458262305"><ele>639.0</ele><time>2026-04-07T16:23:39Z</time></trkpt><trkpt lat="43.799339743617296" lon="6.2594939948600095"><ele>639.0</ele><time>2026-04-07T16:23:40Z</time></trkpt><trkpt lat="43.79945771296833" lon="6.259512371936651"><ele>635.0</ele><time>2026-04-07T16:23:40.999Z</time></trkpt><trkpt lat="43.79956740367381" lon="6.25956747087002"><ele>631.0</ele><time>2026-04-07T16:23:41.999Z</time></trkpt><trkpt lat="43.79966635151206" lon="6.259657187042863"><ele>627.0</ele><time>2026-04-07T16:23:42.999Z</time></trkpt><trkpt lat="43.799791833966985" lon="6.259700060100898"><ele>623.0</ele><time>2026-04-07T16:23:43.999Z</time></trkpt><trkpt lat="43.79990901458137" lon="6.259724011783957"><ele>623.0</ele><time>2026-04-07T16:23:44.999Z</time></trkpt><trkpt lat="43.80003500672957" lon="6.259706407726982"><ele>623.0</ele><time>2026-04-07T16:23:45.999Z</time></trkpt><trkpt lat="43.800165802498256" lon="6.259675407066642"><ele>623.0</ele><time>2026-04-07T16:23:46.999Z</time></trkpt><trkpt lat="43.80028986627915" lon="6.259700374489902"><ele>623.0</ele><time>2026-04-07T16:23:47.999Z</time></trkpt><trkpt lat="43.800406232811284" lon="6.2596925576075515"><ele>623.0</ele><time>2026-04-07T16:23:48.999Z</time></trkpt><trkpt lat="43.800502905471106" lon="6.259721284295044"><ele>623.0</ele><time>2026-04-07T16:23:49.999Z</time></trkpt><trkpt lat="43.80058917787092" lon="6.259710937860399"><ele>623.0</ele><time>2026-04-07T16:23:50.999Z</time></trkpt><trkpt lat="43.800665753035986" lon="6.259647622955576"><ele>623.0</ele><time>2026-04-07T16:23:51.999Z</time></trkpt><trkpt lat="43.80073120925472" lon="6.259542488036169"><ele>623.0</ele><time>2026-04-07T16:23:52.999Z</time></trkpt><trkpt lat="43.80077250620565" lon="6.259407903487771"><ele>623.0</ele><time>2026-04-07T16:23:53.999Z</time></trkpt><trkpt lat="43.800784106241856" lon="6.259250906551283"><ele>623.0</ele><time>2026-04-07T16:23:54.999Z</time></trkpt><trkpt lat="43.80077995229776" lon="6.259087960403454"><ele>623.0</ele><time>2026-04-07T16:23:55.999Z</time></trkpt><trkpt lat="43.80078426709863" lon="6.258934726266759"><ele>623.0</ele><time>2026-04-07T16:23:56.999Z</time></trkpt><trkpt lat="43.8007834668217" lon="6.258788732527258"><ele>623.0</ele><time>2026-04-07T16:23:57.999Z</time></trkpt><trkpt lat="43.80082737398768" lon="6.2586725747972904"><ele>623.0</ele><time>2026-04-07T16:23:58.999Z</time></trkpt><trkpt lat="43.80083500391796" lon="6.258565705944069"><ele>623.0</ele><time>2026-04-07T16:23:59.999Z</time></trkpt><trkpt lat="43.80082825609858" lon="6.25843306574953"><ele>623.0</ele><time>2026-04-07T16:24:00.999Z</time></trkpt><trkpt lat="43.80079918941369" lon="6.258302554011493"><ele>623.0</ele><time>2026-04-07T16:24:01.999Z</time></trkpt><trkpt lat="43.80074407492632" lon="6.258192467191234"><ele>623.0</ele><time>2026-04-07T16:24:02.999Z</time></trkpt><trkpt lat="43.80069409448228" lon="6.258099864495493"><ele>623.0</ele><time>2026-04-07T16:24:03.999Z</time></trkpt><trkpt lat="43.80065417177569" lon="6.25800888957884"><ele>623.0</ele><time>2026-04-07T16:24:04.999Z</time></trkpt><trkpt lat="43.800592548049295" lon="6.257935826213104"><ele>623.0</ele><time>2026-04-07T16:24:05.999Z</time></trkpt><trkpt lat="43.80051540992813" lon="6.257882750116052"><ele>623.0</ele><time>2026-04-07T16:24:06.999Z</time></trkpt><trkpt lat="43.800441512076205" lon="6.257821342694282"><ele>623.0</ele><time>2026-04-07T16:24:07.999Z</time></trkpt><trkpt lat="43.8003873585025" lon="6.257741549200179"><ele>623.0</ele><time>2026-04-07T16:24:08.999Z</time></trkpt><trkpt lat="43.8003475740919" lon="6.257632905304863"><ele>627.0</ele><time>2026-04-07T16:24:09.999Z</time></trkpt><trkpt lat="43.80031849532251" lon="6.257533966797969"><ele>631.0</ele><time>2026-04-07T16:24:10.999Z</time></trkpt><trkpt lat="43.8002904924108" lon="6.25744560652162"><ele>635.0</ele><time>2026-04-07T16:24:11.999Z</time></trkpt><trkpt lat="43.80026709013064" lon="6.257353445725696"><ele>639.0</ele><time>2026-04-07T16:24:12.999Z</time></trkpt><trkpt lat="43.80027364090185" lon="6.257264831425834"><ele>643.0</ele><time>2026-04-07T16:24:13.999Z</time></trkpt><trkpt lat="43.8003448238297" lon="6.257219762267497"><ele>647.0</ele><time>2026-04-07T16:24:14.999Z</time></trkpt><trkpt lat="43.8004189593718" lon="6.257199849930554"><ele>651.0</ele><time>2026-04-07T16:24:15.999Z</time></trkpt><trkpt lat="43.80050420506282" lon="6.257132148633572"><ele>651.0</ele><time>2026-04-07T16:24:16.999Z</time></trkpt><trkpt lat="43.80060489664885" lon="6.25702721448181"><ele>651.0</ele><time>2026-04-07T16:24:17.999Z</time></trkpt><trkpt lat="43.80069937863794" lon="6.256865099462831"><ele>651.0</ele><time>2026-04-07T16:24:18.999Z</time></trkpt><trkpt lat="43.80079728133784" lon="6.2567184959856315"><ele>651.0</ele><time>2026-04-07T16:24:19.999Z</time></trkpt><trkpt lat="43.8008968507856" lon="6.256562270053596"><ele>657.6666666666666</ele><time>2026-04-07T16:24:20.999Z</time></trkpt><trkpt lat="43.801024032776404" lon="6.25645142613709"><ele>664.3333333333333</ele><time>2026-04-07T16:24:21.999Z</time></trkpt><trkpt lat="43.801150620068384" lon="6.256320264908672"><ele>671.0</ele><time>2026-04-07T16:24:22.999Z</time></trkpt><trkpt lat="43.801272894774456" lon="6.256195608934623"><ele>671.0</ele><time>2026-04-07T16:24:23.999Z</time></trkpt><trkpt lat="43.80137087124014" lon="6.256063749033081"><ele>671.0</ele><time>2026-04-07T16:24:24.999Z</time></trkpt><trkpt lat="43.801444254820304" lon="6.255925418453962"><ele>671.0</ele><time>2026-04-07T16:24:25.999Z</time></trkpt><trkpt lat="43.80152670369223" lon="6.255809344269151"><ele>671.0</ele><time>2026-04-07T16:24:26.999Z</time></trkpt><trkpt lat="43.80161068282427" lon="6.255700795068767"><ele>671.0</ele><time>2026-04-07T16:24:27.999Z</time></trkpt><trkpt lat="43.801707952172876" lon="6.255628458561363"><ele>671.0</ele><time>2026-04-07T16:24:28.999Z</time></trkpt><trkpt lat="43.80183422479627" lon="6.25556046353152"><ele>671.0</ele><time>2026-04-07T16:24:29.999Z</time></trkpt><trkpt lat="43.80198886226995" lon="6.255489531733933"><ele>671.0</ele><time>2026-04-07T16:24:30.999Z</time></trkpt><trkpt lat="43.80212174118485" lon="6.255384718116247"><ele>671.75</ele><time>2026-04-07T16:24:31.999Z</time></trkpt><trkpt lat="43.80221403643703" lon="6.255249342388631"><ele>672.5</ele><time>2026-04-07T16:24:32.999Z</time></trkpt><trkpt lat="43.80227169240137" lon="6.2550962719761944"><ele>673.25</ele><time>2026-04-07T16:24:33.999Z</time></trkpt><trkpt lat="43.8023227628507" lon="6.254956680982022"><ele>674.0</ele><time>2026-04-07T16:24:34.999Z</time></trkpt><trkpt lat="43.80235969505462" lon="6.254810749445021"><ele>665.4000000000001</ele><time>2026-04-07T16:24:35.999Z</time></trkpt><trkpt lat="43.80238953797039" lon="6.2546649569200365"><ele>656.8000000000001</ele><time>2026-04-07T16:24:36.999Z</time></trkpt><trkpt lat="43.802420274935024" lon="6.254534223210094"><ele>648.2</ele><time>2026-04-07T16:24:37.999Z</time></trkpt><trkpt lat="43.80246555524841" lon="6.2544173425633245"><ele>639.6</ele><time>2026-04-07T16:24:38.999Z</time></trkpt><trkpt lat="43.80253557697431" lon="6.254343180357769"><ele>631.0</ele><time>2026-04-07T16:24:39.999Z</time></trkpt><trkpt lat="43.80263209099503" lon="6.254342329542372"><ele>634.0</ele><time>2026-04-07T16:24:40.999Z</time></trkpt><trkpt lat="43.80272741071527" lon="6.254300554387793"><ele>637.0</ele><time>2026-04-07T16:24:41.999Z</time></trkpt><trkpt lat="43.80282847079619" lon="6.254311633859754"><ele>640.0</ele><time>2026-04-07T16:24:42.999Z</time></trkpt><trkpt lat="43.802924178074" lon="6.254370976038896"><ele>643.0</ele><time>2026-04-07T16:24:43.999Z</time></trkpt><trkpt lat="43.803048735099644" lon="6.254409787834913"><ele>646.0</ele><time>2026-04-07T16:24:44.999Z</time></trkpt><trkpt lat="43.80316441284029" lon="6.254451540821097"><ele>646.0</ele><time>2026-04-07T16:24:45.999Z</time></trkpt><trkpt lat="43.80326658703991" lon="6.254468254598776"><ele>646.0</ele><time>2026-04-07T16:24:46.999Z</time></trkpt><trkpt lat="43.80336253148531" lon="6.254453476988594"><ele>646.0</ele><time>2026-04-07T16:24:47.999Z</time></trkpt><trkpt lat="43.80345241371661" lon="6.254410509861198"><ele>646.0</ele><time>2026-04-07T16:24:48.999Z</time></trkpt><trkpt lat="43.80355068717413" lon="6.254333349586597"><ele>646.0</ele><time>2026-04-07T16:24:49.999Z</time></trkpt><trkpt lat="43.80364939258212" lon="6.2542574642745015"><ele>648.8333333333334</ele><time>2026-04-07T16:24:50.999Z</time></trkpt><trkpt lat="43.80372795409442" lon="6.254173285880728"><ele>651.6666666666667</ele><time>2026-04-07T16:24:51.999Z</time></trkpt><trkpt lat="43.80377954169102" lon="6.254072725107183"><ele>654.5</ele><time>2026-04-07T16:24:52.999Z</time></trkpt><trkpt lat="43.80383681736578" lon="6.254003379062239"><ele>657.3333333333334</ele><time>2026-04-07T16:24:53.999Z</time></trkpt><trkpt lat="43.80391150749733" lon="6.253950420350351"><ele>660.1666666666666</ele><time>2026-04-07T16:24:54.999Z</time></trkpt><trkpt lat="43.80400254789778" lon="6.253944817442052"><ele>663.0</ele><time>2026-04-07T16:24:55.999Z</time></trkpt><trkpt lat="43.80409843169806" lon="6.25403604689243"><ele>663.0</ele><time>2026-04-07T16:24:56.999Z</time></trkpt><trkpt lat="43.8042003285616" lon="6.254084553382217"><ele>663.0</ele><time>2026-04-07T16:24:57.999Z</time></trkpt><trkpt lat="43.80430222766764" lon="6.254135585128722"><ele>663.0</ele><time>2026-04-07T16:24:58.999Z</time></trkpt><trkpt lat="43.8044270134764" lon="6.254064002975481"><ele>663.0</ele><time>2026-04-07T16:24:59.999Z</time></trkpt><trkpt lat="43.80453071068039" lon="6.253985467669638"><ele>665.0</ele><time>2026-04-07T16:25:00.999Z</time></trkpt><trkpt lat="43.80463827026576" lon="6.253965982536565"><ele>667.0</ele><time>2026-04-07T16:25:01.999Z</time></trkpt><trkpt lat="43.804738219140276" lon="6.253990139127288"><ele>669.0</ele><time>2026-04-07T16:25:02.999Z</time></trkpt><trkpt lat="43.804877857047835" lon="6.25400887098196"><ele>671.0</ele><time>2026-04-07T16:25:03.999Z</time></trkpt><trkpt lat="43.805047126450006" lon="6.25402396786872"><ele>667.3333333333333</ele><time>2026-04-07T16:25:04.999Z</time></trkpt><trkpt lat="43.805247682196466" lon="6.254007996271368"><ele>663.6666666666666</ele><time>2026-04-07T16:25:05.999Z</time></trkpt><trkpt lat="43.80547603137404" lon="6.2540131316926395"><ele>660.0</ele><time>2026-04-07T16:25:06.999Z</time></trkpt><trkpt lat="43.80564155260891" lon="6.254044966680672"><ele>660.0</ele><time>2026-04-07T16:25:07.999Z</time></trkpt><trkpt lat="43.80575212613617" lon="6.2540785114701265"><ele>660.0</ele><time>2026-04-07T16:25:08.999Z</time></trkpt><trkpt lat="43.805839979870726" lon="6.254116446541104"><ele>660.0</ele><time>2026-04-07T16:25:09.999Z</time></trkpt><trkpt lat="43.805918971416425" lon="6.254228433886009"><ele>660.0</ele><time>2026-04-07T16:25:10.999Z</time></trkpt><trkpt lat="43.80599769051956" lon="6.25436734069818"><ele>660.0</ele><time>2026-04-07T16:25:11.999Z</time></trkpt><trkpt lat="43.80609393168078" lon="6.254493139838633"><ele>654.75</ele><time>2026-04-07T16:25:12.999Z</time></trkpt><trkpt lat="43.806205772532635" lon="6.254561826039654"><ele>649.5</ele><time>2026-04-07T16:25:13.999Z</time></trkpt><trkpt lat="43.806328673520376" lon="6.254610985540621"><ele>644.25</ele><time>2026-04-07T16:25:14.999Z</time></trkpt><trkpt lat="43.80644215257017" lon="6.254605925423524"><ele>639.0</ele><time>2026-04-07T16:25:15.999Z</time></trkpt><trkpt lat="43.80653332725928" lon="6.254520309026477"><ele>639.0</ele><time>2026-04-07T16:25:17Z</time></trkpt><trkpt lat="43.80662619775622" lon="6.254413641196291"><ele>639.0</ele><time>2026-04-07T16:25:18Z</time></trkpt><trkpt lat="43.80674604278043" lon="6.254418998336033"><ele>639.0</ele><time>2026-04-07T16:25:19Z</time></trkpt><trkpt lat="43.806878997867784" lon="6.254480468133215"><ele>639.0</ele><time>2026-04-07T16:25:20Z</time></trkpt><trkpt lat="43.807054872850834" lon="6.254544091296409"><ele>637.0</ele><time>2026-04-07T16:25:21Z</time></trkpt><trkpt lat="43.80721805457063" lon="6.254631751826463"><ele>635.0</ele><time>2026-04-07T16:25:22Z</time></trkpt><trkpt lat="43.807389096897374" lon="6.254704462044765"><ele>633.0</ele><time>2026-04-07T16:25:23Z</time></trkpt><trkpt lat="43.807569354870374" lon="6.254762587079147"><ele>644.6666666666666</ele><time>2026-04-07T16:25:24Z</time></trkpt><trkpt lat="43.807762001011895" lon="6.254815187757094"><ele>656.3333333333333</ele><time>2026-04-07T16:25:25Z</time></trkpt><trkpt lat="43.80794945949747" lon="6.254838571007172"><ele>668.0</ele><time>2026-04-07T16:25:26Z</time></trkpt><trkpt lat="43.80814028623222" lon="6.254855608617342"><ele>668.0</ele><time>2026-04-07T16:25:27Z</time></trkpt><trkpt lat="43.80832000471283" lon="6.254870856137589"><ele>668.0</ele><time>2026-04-07T16:25:28Z</time></trkpt><trkpt lat="43.808482826958816" lon="6.254866467365007"><ele>668.0</ele><time>2026-04-07T16:25:29Z</time></trkpt><trkpt lat="43.80861980138445" lon="6.254802004580981"><ele>661.25</ele><time>2026-04-07T16:25:30Z</time></trkpt><trkpt lat="43.80873667781199" lon="6.25467526580436"><ele>654.5</ele><time>2026-04-07T16:25:31Z</time></trkpt><trkpt lat="43.808827710517456" lon="6.254520999239009"><ele>647.75</ele><time>2026-04-07T16:25:32Z</time></trkpt><trkpt lat="43.80894277004442" lon="6.254448245397496"><ele>641.0</ele><time>2026-04-07T16:25:33Z</time></trkpt><trkpt lat="43.80906297808664" lon="6.254472686160694"><ele>641.0</ele><time>2026-04-07T16:25:34Z</time></trkpt><trkpt lat="43.809204168701875" lon="6.254517989083614"><ele>641.0</ele><time>2026-04-07T16:25:35Z</time></trkpt><trkpt lat="43.80935921204286" lon="6.25458066754685"><ele>641.0</ele><time>2026-04-07T16:25:36Z</time></trkpt><trkpt lat="43.80951330300523" lon="6.254641999505034"><ele>644.3333333333333</ele><time>2026-04-07T16:25:37Z</time></trkpt><trkpt lat="43.80966908882756" lon="6.254746690368752"><ele>647.6666666666666</ele><time>2026-04-07T16:25:38Z</time></trkpt><trkpt lat="43.809802124555574" lon="6.254896498791552"><ele>651.0</ele><time>2026-04-07T16:25:39Z</time></trkpt><trkpt lat="43.8099034269873" lon="6.255055902618161"><ele>651.0</ele><time>2026-04-07T16:25:39.999Z</time></trkpt><trkpt lat="43.80998336609331" lon="6.255228839047642"><ele>651.0</ele><time>2026-04-07T16:25:40.999Z</time></trkpt><trkpt lat="43.810057621677814" lon="6.25540068480541"><ele>651.0</ele><time>2026-04-07T16:25:41.999Z</time></trkpt><trkpt lat="43.81014818725581" lon="6.2555403044197595"><ele>651.0</ele><time>2026-04-07T16:25:42.999Z</time></trkpt><trkpt lat="43.81027782802262" lon="6.255608258022499"><ele>649.0</ele><time>2026-04-07T16:25:43.999Z</time></trkpt><trkpt lat="43.81041088538144" lon="6.255650540152971"><ele>647.0</ele><time>2026-04-07T16:25:44.999Z</time></trkpt><trkpt lat="43.81053464933343" lon="6.255644174624823"><ele>645.0</ele><time>2026-04-07T16:25:45.999Z</time></trkpt><trkpt lat="43.810645415887315" lon="6.255581694069199"><ele>643.0</ele><time>2026-04-07T16:25:46.999Z</time></trkpt><trkpt lat="43.81071089687709" lon="6.255417300263411"><ele>643.0</ele><time>2026-04-07T16:25:47.999Z</time></trkpt><trkpt lat="43.81077952744006" lon="6.255275568129508"><ele>643.0</ele><time>2026-04-07T16:25:48.999Z</time></trkpt><trkpt lat="43.81087931041662" lon="6.255166234935817"><ele>643.0</ele><time>2026-04-07T16:25:49.999Z</time></trkpt><trkpt lat="43.811023195960416" lon="6.255137647023269"><ele>643.0</ele><time>2026-04-07T16:25:50.999Z</time></trkpt><trkpt lat="43.811106581603795" lon="6.255170030566861"><ele>643.3333333333334</ele><time>2026-04-07T16:25:51.999Z</time></trkpt><trkpt lat="43.811255000055816" lon="6.255230324507355"><ele>643.6666666666666</ele><time>2026-04-07T16:25:52.999Z</time></trkpt><trkpt lat="43.81142079096711" lon="6.255240350254173"><ele>644.0</ele><time>2026-04-07T16:25:53.999Z</time></trkpt><trkpt lat="43.811595412805396" lon="6.2552639472850915"><ele>644.0</ele><time>2026-04-07T16:25:54.999Z</time></trkpt><trkpt lat="43.81177652638022" lon="6.255246571885508"><ele>644.0</ele><time>2026-04-07T16:25:55.999Z</time></trkpt><trkpt lat="43.81194389450815" lon="6.255226893220244"><ele>644.0</ele><time>2026-04-07T16:25:56.999Z</time></trkpt><trkpt lat="43.81209634563307" lon="6.255229006433041"><ele>649.0</ele><time>2026-04-07T16:25:57.999Z</time></trkpt><trkpt lat="43.8122160240104" lon="6.255227448066028"><ele>654.0</ele><time>2026-04-07T16:25:58.999Z</time></trkpt><trkpt lat="43.81230244612977" lon="6.255155444432312"><ele>659.0</ele><time>2026-04-07T16:25:59.999Z</time></trkpt><trkpt lat="43.8123480928429" lon="6.255006123883975"><ele>664.0</ele><time>2026-04-07T16:26:00.999Z</time></trkpt><trkpt lat="43.8123398298691" lon="6.254832139114045"><ele>660.5</ele><time>2026-04-07T16:26:01.999Z</time></trkpt><trkpt lat="43.812283793442475" lon="6.254668557351672"><ele>657.0</ele><time>2026-04-07T16:26:02.999Z</time></trkpt><trkpt lat="43.81222597244493" lon="6.254521442758312"><ele>653.5</ele><time>2026-04-07T16:26:03.999Z</time></trkpt><trkpt lat="43.812254599742175" lon="6.254370594987715"><ele>650.0</ele><time>2026-04-07T16:26:04.999Z</time></trkpt><trkpt lat="43.812313435053014" lon="6.254207919288232"><ele>650.0</ele><time>2026-04-07T16:26:05.999Z</time></trkpt><trkpt lat="43.812374287782525" lon="6.254016949268807"><ele>650.0</ele><time>2026-04-07T16:26:06.999Z</time></trkpt><trkpt lat="43.81246679653781" lon="6.253838848304593"><ele>650.0</ele><time>2026-04-07T16:26:07.999Z</time></trkpt><trkpt lat="43.81259857296342" lon="6.253714544788108"><ele>657.3333333333333</ele><time>2026-04-07T16:26:08.999Z</time></trkpt><trkpt lat="43.81275278751867" lon="6.253575146244026"><ele>664.6666666666666</ele><time>2026-04-07T16:26:09.999Z</time></trkpt><trkpt lat="43.81286096162477" lon="6.25341705100991"><ele>672.0</ele><time>2026-04-07T16:26:10.999Z</time></trkpt><trkpt lat="43.81295277542866" lon="6.253251369457604"><ele>671.0</ele><time>2026-04-07T16:26:11.999Z</time></trkpt><trkpt lat="43.81298505567721" lon="6.2530432927602755"><ele>670.0</ele><time>2026-04-07T16:26:12.999Z</time></trkpt><trkpt lat="43.81297178371523" lon="6.252809462555636"><ele>669.0</ele><time>2026-04-07T16:26:13.999Z</time></trkpt><trkpt lat="43.81292634935922" lon="6.25254260789529"><ele>667.6666666666666</ele><time>2026-04-07T16:26:14.999Z</time></trkpt><trkpt lat="43.812911535398676" lon="6.252280062563486"><ele>666.3333333333333</ele><time>2026-04-07T16:26:15.999Z</time></trkpt><trkpt lat="43.81287091273551" lon="6.252025718597577"><ele>665.0</ele><time>2026-04-07T16:26:16.999Z</time></trkpt><trkpt lat="43.812845681392204" lon="6.251784563424313"><ele>665.0</ele><time>2026-04-07T16:26:17.999Z</time></trkpt><trkpt lat="43.8128205911622" lon="6.251534570200879"><ele>665.0</ele><time>2026-04-07T16:26:18.999Z</time></trkpt><trkpt lat="43.81280497364954" lon="6.251284345234133"><ele>665.0</ele><time>2026-04-07T16:26:19.999Z</time></trkpt><trkpt lat="43.81278829906402" lon="6.25103252185395"><ele>663.0</ele><time>2026-04-07T16:26:20.999Z</time></trkpt><trkpt lat="43.81276729370637" lon="6.250800049269772"><ele>661.0</ele><time>2026-04-07T16:26:21.999Z</time></trkpt><trkpt lat="43.812803329225765" lon="6.25059485300544"><ele>659.0</ele><time>2026-04-07T16:26:22.999Z</time></trkpt><trkpt lat="43.81283394341379" lon="6.250417892820671"><ele>656.2</ele><time>2026-04-07T16:26:23.999Z</time></trkpt><trkpt lat="43.812868926531465" lon="6.250305801371428"><ele>653.4000000000001</ele><time>2026-04-07T16:26:24.999Z</time></trkpt><trkpt lat="43.81295531870921" lon="6.25027192664306"><ele>650.6</ele><time>2026-04-07T16:26:25.999Z</time></trkpt><trkpt lat="43.813051099326735" lon="6.25029897251821"><ele>647.8</ele><time>2026-04-07T16:26:26.999Z</time></trkpt><trkpt lat="43.81311332971534" lon="6.250433787160601"><ele>645.0</ele><time>2026-04-07T16:26:27.999Z</time></trkpt><trkpt lat="43.81322730608886" lon="6.250503141753989"><ele>645.0</ele><time>2026-04-07T16:26:28.999Z</time></trkpt><trkpt lat="43.81334999073114" lon="6.250536465409172"><ele>645.0</ele><time>2026-04-07T16:26:29.999Z</time></trkpt><trkpt lat="43.8135030456015" lon="6.250491873778894"><ele>645.0</ele><time>2026-04-07T16:26:30.999Z</time></trkpt><trkpt lat="43.81366534824768" lon="6.2503944445052095"><ele>651.3333333333334</ele><time>2026-04-07T16:26:31.999Z</time></trkpt><trkpt lat="43.81382258692391" lon="6.250310223262847"><ele>657.6666666666667</ele><time>2026-04-07T16:26:32.999Z</time></trkpt><trkpt lat="43.81394982126655" lon="6.250208168770312"><ele>664.0</ele><time>2026-04-07T16:26:33.999Z</time></trkpt><trkpt lat="43.81407812674323" lon="6.25014359117142"><ele>664.0</ele><time>2026-04-07T16:26:34.999Z</time></trkpt><trkpt lat="43.81419078724216" lon="6.250072703302365"><ele>664.0</ele><time>2026-04-07T16:26:35.999Z</time></trkpt><trkpt lat="43.81428715671484" lon="6.2499824017204055"><ele>664.0</ele><time>2026-04-07T16:26:36.999Z</time></trkpt><trkpt lat="43.81435334928955" lon="6.2498739956129"><ele>664.0</ele><time>2026-04-07T16:26:37.999Z</time></trkpt><trkpt lat="43.8143707488419" lon="6.249741779910982"><ele>664.0</ele><time>2026-04-07T16:26:38.999Z</time></trkpt><trkpt lat="43.81431745949067" lon="6.249605605635972"><ele>662.75</ele><time>2026-04-07T16:26:39.999Z</time></trkpt><trkpt lat="43.8142355891093" lon="6.249464170469723"><ele>661.5</ele><time>2026-04-07T16:26:40.999Z</time></trkpt><trkpt lat="43.81421963261889" lon="6.24929819262643"><ele>660.25</ele><time>2026-04-07T16:26:41.999Z</time></trkpt><trkpt lat="43.81424388903619" lon="6.249137980139646"><ele>659.0</ele><time>2026-04-07T16:26:42.999Z</time></trkpt><trkpt lat="43.814278377129355" lon="6.248956100682651"><ele>662.5</ele><time>2026-04-07T16:26:43.999Z</time></trkpt><trkpt lat="43.81435322605702" lon="6.248785679651396"><ele>666.0</ele><time>2026-04-07T16:26:44.999Z</time></trkpt><trkpt lat="43.814442096684395" lon="6.248623038726176"><ele>669.5</ele><time>2026-04-07T16:26:45.999Z</time></trkpt><trkpt lat="43.81455526853457" lon="6.2484872029724094"><ele>673.0</ele><time>2026-04-07T16:26:46.999Z</time></trkpt><trkpt lat="43.81467067048272" lon="6.248357895726036"><ele>673.0</ele><time>2026-04-07T16:26:47.999Z</time></trkpt><trkpt lat="43.81479215102313" lon="6.248279445935101"><ele>673.0</ele><time>2026-04-07T16:26:48.999Z</time></trkpt><trkpt lat="43.8149109277493" lon="6.248193674007983"><ele>673.0</ele><time>2026-04-07T16:26:49.999Z</time></trkpt><trkpt lat="43.81502586768849" lon="6.248133945634115"><ele>673.0</ele><time>2026-04-07T16:26:50.999Z</time></trkpt><trkpt lat="43.81512353062918" lon="6.248060060852127"><ele>671.75</ele><time>2026-04-07T16:26:51.999Z</time></trkpt><trkpt lat="43.81517520357139" lon="6.2479259770321836"><ele>670.5</ele><time>2026-04-07T16:26:52.999Z</time></trkpt><trkpt lat="43.8151615073644" lon="6.247748217448166"><ele>669.25</ele><time>2026-04-07T16:26:53.999Z</time></trkpt><trkpt lat="43.815106458321594" lon="6.247563788900516"><ele>668.0</ele><time>2026-04-07T16:26:54.999Z</time></trkpt><trkpt lat="43.81506644891661" lon="6.24739025368946"><ele>669.3333333333333</ele><time>2026-04-07T16:26:55.999Z</time></trkpt><trkpt lat="43.81507841537176" lon="6.247214298133657"><ele>670.6666666666666</ele><time>2026-04-07T16:26:56.999Z</time></trkpt><trkpt lat="43.81513436001447" lon="6.247014555078663"><ele>672.0</ele><time>2026-04-07T16:26:57.999Z</time></trkpt><trkpt lat="43.81521519082561" lon="6.246804900251276"><ele>672.75</ele><time>2026-04-07T16:26:58.999Z</time></trkpt><trkpt lat="43.81526115191301" lon="6.246608076395852"><ele>673.5</ele><time>2026-04-07T16:26:59.999Z</time></trkpt><trkpt lat="43.81525569114018" lon="6.246434835870098"><ele>674.25</ele><time>2026-04-07T16:27:00.999Z</time></trkpt><trkpt lat="43.81519037502876" lon="6.246273230188451"><ele>675.0</ele><time>2026-04-07T16:27:01.999Z</time></trkpt><trkpt lat="43.81508855776701" lon="6.2461315629319625"><ele>675.0</ele><time>2026-04-07T16:27:02.999Z</time></trkpt><trkpt lat="43.8150033678615" lon="6.246003267149122"><ele>675.0</ele><time>2026-04-07T16:27:03.999Z</time></trkpt><trkpt lat="43.8149367274874" lon="6.245881225043777"><ele>675.0</ele><time>2026-04-07T16:27:04.999Z</time></trkpt><trkpt lat="43.81487578029058" lon="6.245750924199767"><ele>675.0</ele><time>2026-04-07T16:27:05.999Z</time></trkpt><trkpt lat="43.814829628024334" lon="6.245621962987876"><ele>675.75</ele><time>2026-04-07T16:27:06.999Z</time></trkpt><trkpt lat="43.81480678609833" lon="6.24547052503415"><ele>676.5</ele><time>2026-04-07T16:27:07.999Z</time></trkpt><trkpt lat="43.81475763755385" lon="6.245304785142081"><ele>677.25</ele><time>2026-04-07T16:27:08.999Z</time></trkpt><trkpt lat="43.81473235581023" lon="6.245114890897087"><ele>678.0</ele><time>2026-04-07T16:27:09.999Z</time></trkpt><trkpt lat="43.8147378148636" lon="6.244921158706955"><ele>677.0</ele><time>2026-04-07T16:27:10.999Z</time></trkpt><trkpt lat="43.814745672044076" lon="6.244754035460209"><ele>676.0</ele><time>2026-04-07T16:27:11.999Z</time></trkpt><trkpt lat="43.81475054496673" lon="6.244563400708933"><ele>675.0</ele><time>2026-04-07T16:27:12.999Z</time></trkpt><trkpt lat="43.81478327578725" lon="6.244363004034155"><ele>674.0</ele><time>2026-04-07T16:27:13.999Z</time></trkpt><trkpt lat="43.81482989438216" lon="6.2441876004568835"><ele>674.0</ele><time>2026-04-07T16:27:14.999Z</time></trkpt><trkpt lat="43.814862063573294" lon="6.244007687261778"><ele>674.0</ele><time>2026-04-07T16:27:15.999Z</time></trkpt><trkpt lat="43.81491206747747" lon="6.2438343708085045"><ele>674.0</ele><time>2026-04-07T16:27:16.999Z</time></trkpt><trkpt lat="43.81498290198125" lon="6.243491023614023"><ele>671.0</ele><time>2026-04-07T16:27:18.999Z</time></trkpt><trkpt lat="43.81504055846626" lon="6.243342526648821"><ele>668.0</ele><time>2026-04-07T16:27:19.999Z</time></trkpt><trkpt lat="43.81512340832657" lon="6.243196616514212"><ele>665.0</ele><time>2026-04-07T16:27:20.999Z</time></trkpt><trkpt lat="43.815247489285866" lon="6.2430687226748445"><ele>662.0</ele><time>2026-04-07T16:27:21.999Z</time></trkpt><trkpt lat="43.815374039377694" lon="6.242933391703573"><ele>661.0</ele><time>2026-04-07T16:27:23Z</time></trkpt><trkpt lat="43.81551183315153" lon="6.242825529793098"><ele>660.0</ele><time>2026-04-07T16:27:24Z</time></trkpt><trkpt lat="43.81565651874757" lon="6.24276343635991"><ele>659.0</ele><time>2026-04-07T16:27:25Z</time></trkpt><trkpt lat="43.81580268842384" lon="6.242718416409542"><ele>659.0</ele><time>2026-04-07T16:27:26Z</time></trkpt><trkpt lat="43.81594270550047" lon="6.242655099953233"><ele>659.0</ele><time>2026-04-07T16:27:27Z</time></trkpt><trkpt lat="43.81608486486074" lon="6.2426137725292"><ele>659.0</ele><time>2026-04-07T16:27:28Z</time></trkpt><trkpt lat="43.81622216448591" lon="6.242549424791774"><ele>659.0</ele><time>2026-04-07T16:27:29Z</time></trkpt><trkpt lat="43.81636756269434" lon="6.242531435038003"><ele>659.0</ele><time>2026-04-07T16:27:30Z</time></trkpt><trkpt lat="43.81651577122549" lon="6.24250902298119"><ele>659.0</ele><time>2026-04-07T16:27:31Z</time></trkpt><trkpt lat="43.816655358806" lon="6.242565263295827"><ele>659.0</ele><time>2026-04-07T16:27:32Z</time></trkpt><trkpt lat="43.81677901399718" lon="6.24262722915065"><ele>659.0</ele><time>2026-04-07T16:27:33Z</time></trkpt><trkpt lat="43.81688808296805" lon="6.2427417575115"><ele>659.0</ele><time>2026-04-07T16:27:34Z</time></trkpt><trkpt lat="43.81699246762705" lon="6.242878023964596"><ele>659.0</ele><time>2026-04-07T16:27:35Z</time></trkpt><trkpt lat="43.81710070263213" lon="6.243001336578318"><ele>659.0</ele><time>2026-04-07T16:27:36Z</time></trkpt><trkpt lat="43.817211113938434" lon="6.2431238798557995"><ele>659.0</ele><time>2026-04-07T16:27:37Z</time></trkpt><trkpt lat="43.81731491571331" lon="6.243220275641012"><ele>660.4000000000001</ele><time>2026-04-07T16:27:38Z</time></trkpt><trkpt lat="43.81737198244794" lon="6.243350910834794"><ele>661.8</ele><time>2026-04-07T16:27:39Z</time></trkpt><trkpt lat="43.81742768769616" lon="6.2434643128401"><ele>663.2</ele><time>2026-04-07T16:27:40Z</time></trkpt><trkpt lat="43.81747584495058" lon="6.2435685812979305"><ele>664.5999999999999</ele><time>2026-04-07T16:27:41Z</time></trkpt><trkpt lat="43.817561495029615" lon="6.243604436677946"><ele>666.0</ele><time>2026-04-07T16:27:41.999Z</time></trkpt><trkpt lat="43.81764641423948" lon="6.243612206391635"><ele>666.0</ele><time>2026-04-07T16:27:42.999Z</time></trkpt><trkpt lat="43.81774522119309" lon="6.243511145645248"><ele>666.0</ele><time>2026-04-07T16:27:43.999Z</time></trkpt><trkpt lat="43.81778606512985" lon="6.243354817500641"><ele>666.0</ele><time>2026-04-07T16:27:44.999Z</time></trkpt><trkpt lat="43.817818026968084" lon="6.243200006954648"><ele>666.0</ele><time>2026-04-07T16:27:45.999Z</time></trkpt><trkpt lat="43.8178591934241" lon="6.243044798819031"><ele>666.0</ele><time>2026-04-07T16:27:46.999Z</time></trkpt><trkpt lat="43.81789787957622" lon="6.242882059990932"><ele>666.0</ele><time>2026-04-07T16:27:47.999Z</time></trkpt><trkpt lat="43.81794251955546" lon="6.242714574885625"><ele>666.0</ele><time>2026-04-07T16:27:48.999Z</time></trkpt><trkpt lat="43.81798966505252" lon="6.242539270485092"><ele>666.0</ele><time>2026-04-07T16:27:49.999Z</time></trkpt><trkpt lat="43.81801910901574" lon="6.242353131138899"><ele>665.5</ele><time>2026-04-07T16:27:50.999Z</time></trkpt><trkpt lat="43.8180552983821" lon="6.242174627170164"><ele>665.0</ele><time>2026-04-07T16:27:51.999Z</time></trkpt><trkpt lat="43.81807570519093" lon="6.241990639117902"><ele>664.5</ele><time>2026-04-07T16:27:52.999Z</time></trkpt><trkpt lat="43.81806486973561" lon="6.241796245636667"><ele>664.0</ele><time>2026-04-07T16:27:53.999Z</time></trkpt><trkpt lat="43.81802805004197" lon="6.2415863535626155"><ele>662.75</ele><time>2026-04-07T16:27:54.999Z</time></trkpt><trkpt lat="43.81801679156658" lon="6.24138283591343"><ele>661.5</ele><time>2026-04-07T16:27:55.999Z</time></trkpt><trkpt lat="43.81798613794775" lon="6.241188270487451"><ele>660.25</ele><time>2026-04-07T16:27:56.999Z</time></trkpt><trkpt lat="43.81801100667982" lon="6.24098431044701"><ele>659.0</ele><time>2026-04-07T16:27:57.999Z</time></trkpt><trkpt lat="43.818049032804915" lon="6.240765761897418"><ele>658.6666666666666</ele><time>2026-04-07T16:27:58.999Z</time></trkpt><trkpt lat="43.818098821431484" lon="6.240558935798049"><ele>658.3333333333334</ele><time>2026-04-07T16:27:59.999Z</time></trkpt><trkpt lat="43.818126882757866" lon="6.240346792395004"><ele>658.0</ele><time>2026-04-07T16:28:00.999Z</time></trkpt><trkpt lat="43.81815738180433" lon="6.240134000409091"><ele>658.0</ele><time>2026-04-07T16:28:01.999Z</time></trkpt><trkpt lat="43.81816534553596" lon="6.239915194894495"><ele>658.0</ele><time>2026-04-07T16:28:02.999Z</time></trkpt><trkpt lat="43.81818573191898" lon="6.239713793074901"><ele>658.0</ele><time>2026-04-07T16:28:03.999Z</time></trkpt><trkpt lat="43.818219042444" lon="6.239510817654076"><ele>657.5</ele><time>2026-04-07T16:28:04.999Z</time></trkpt><trkpt lat="43.81827054940272" lon="6.239321401681596"><ele>657.0</ele><time>2026-04-07T16:28:05.999Z</time></trkpt><trkpt lat="43.818325734810514" lon="6.2391431364733965"><ele>656.5</ele><time>2026-04-07T16:28:06.999Z</time></trkpt><trkpt lat="43.81839377222546" lon="6.238953611760136"><ele>656.0</ele><time>2026-04-07T16:28:07.999Z</time></trkpt><trkpt lat="43.8184531272652" lon="6.238800193155936"><ele>658.0</ele><time>2026-04-07T16:28:08.999Z</time></trkpt><trkpt lat="43.81851543904636" lon="6.238634208505738"><ele>660.0</ele><time>2026-04-07T16:28:09.999Z</time></trkpt><trkpt lat="43.81857680992072" lon="6.238481845476665"><ele>662.0</ele><time>2026-04-07T16:28:10.999Z</time></trkpt><trkpt lat="43.81865567529528" lon="6.238334705023844"><ele>664.0</ele><time>2026-04-07T16:28:11.999Z</time></trkpt><trkpt lat="43.81873067389185" lon="6.238196762780474"><ele>663.25</ele><time>2026-04-07T16:28:12.999Z</time></trkpt><trkpt lat="43.81880511822108" lon="6.238040683108866"><ele>662.5</ele><time>2026-04-07T16:28:13.999Z</time></trkpt><trkpt lat="43.818876459678165" lon="6.237875781774627"><ele>661.75</ele><time>2026-04-07T16:28:14.999Z</time></trkpt><trkpt lat="43.818937179931275" lon="6.237728247195292"><ele>661.0</ele><time>2026-04-07T16:28:15.999Z</time></trkpt><trkpt lat="43.818980741948785" lon="6.237588572877613"><ele>661.0</ele><time>2026-04-07T16:28:16.999Z</time></trkpt><trkpt lat="43.81900126465915" lon="6.237443374427101"><ele>661.0</ele><time>2026-04-07T16:28:17.999Z</time></trkpt><trkpt lat="43.81900087625379" lon="6.237272998992929"><ele>661.0</ele><time>2026-04-07T16:28:18.999Z</time></trkpt><trkpt lat="43.81897836908346" lon="6.2371049662738605"><ele>661.0</ele><time>2026-04-07T16:28:19.999Z</time></trkpt><trkpt lat="43.81894999812775" lon="6.236949933700462"><ele>661.0</ele><time>2026-04-07T16:28:20.999Z</time></trkpt><trkpt lat="43.81893739007075" lon="6.236802413259766"><ele>661.0</ele><time>2026-04-07T16:28:21.999Z</time></trkpt><trkpt lat="43.81896442608" lon="6.236649366702843"><ele>661.0</ele><time>2026-04-07T16:28:22.999Z</time></trkpt><trkpt lat="43.818994167043286" lon="6.236507232587286"><ele>661.0</ele><time>2026-04-07T16:28:23.999Z</time></trkpt><trkpt lat="43.819050899029946" lon="6.236339214130949"><ele>659.0</ele><time>2026-04-07T16:28:24.999Z</time></trkpt><trkpt lat="43.8190975108534" lon="6.23619544572544"><ele>657.0</ele><time>2026-04-07T16:28:25.999Z</time></trkpt><trkpt lat="43.81912958760888" lon="6.236056632201397"><ele>655.0</ele><time>2026-04-07T16:28:26.999Z</time></trkpt><trkpt lat="43.81916345582871" lon="6.235836694599307"><ele>653.0</ele><time>2026-04-07T16:28:27.999Z</time></trkpt><trkpt lat="43.81915753166957" lon="6.235664134947989"><ele>651.25</ele><time>2026-04-07T16:28:28.999Z</time></trkpt><trkpt lat="43.819143848850665" lon="6.23549622727024"><ele>649.5</ele><time>2026-04-07T16:28:29.999Z</time></trkpt><trkpt lat="43.81913582481344" lon="6.23533062354815"><ele>647.75</ele><time>2026-04-07T16:28:30.999Z</time></trkpt><trkpt lat="43.81912537704358" lon="6.235171870399381"><ele>646.0</ele><time>2026-04-07T16:28:31.999Z</time></trkpt><trkpt lat="43.81913848702952" lon="6.2350169408435265"><ele>646.0</ele><time>2026-04-07T16:28:32.999Z</time></trkpt><trkpt lat="43.819174421079495" lon="6.234862794836283"><ele>646.0</ele><time>2026-04-07T16:28:33.999Z</time></trkpt><trkpt lat="43.81923300780641" lon="6.23472243484282"><ele>646.0</ele><time>2026-04-07T16:28:34.999Z</time></trkpt><trkpt lat="43.81932030187677" lon="6.2346016661257755"><ele>646.0</ele><time>2026-04-07T16:28:35.999Z</time></trkpt><trkpt lat="43.81942737228431" lon="6.234508571679674"><ele>643.5</ele><time>2026-04-07T16:28:36.999Z</time></trkpt><trkpt lat="43.819545315934306" lon="6.234450463343095"><ele>641.0</ele><time>2026-04-07T16:28:37.999Z</time></trkpt><trkpt lat="43.819653802019424" lon="6.2344456923628915"><ele>638.5</ele><time>2026-04-07T16:28:38.999Z</time></trkpt><trkpt lat="43.819779058560336" lon="6.2344549923644585"><ele>636.0</ele><time>2026-04-07T16:28:39.999Z</time></trkpt><trkpt lat="43.81990214259426" lon="6.2344292742006004"><ele>636.0</ele><time>2026-04-07T16:28:40.999Z</time></trkpt><trkpt lat="43.82000969309642" lon="6.234361453932627"><ele>636.0</ele><time>2026-04-07T16:28:41.999Z</time></trkpt><trkpt lat="43.82009600237216" lon="6.23423777021583"><ele>636.0</ele><time>2026-04-07T16:28:42.999Z</time></trkpt><trkpt lat="43.82016051001483" lon="6.234082354486491"><ele>636.0</ele><time>2026-04-07T16:28:43.999Z</time></trkpt><trkpt lat="43.820194691133125" lon="6.233908175627185"><ele>633.5</ele><time>2026-04-07T16:28:44.999Z</time></trkpt><trkpt lat="43.82025420592537" lon="6.233773886534566"><ele>631.0</ele><time>2026-04-07T16:28:45.999Z</time></trkpt><trkpt lat="43.82035060376179" lon="6.233699007801531"><ele>628.5</ele><time>2026-04-07T16:28:46.999Z</time></trkpt><trkpt lat="43.820453624829426" lon="6.2336438040575155"><ele>626.0</ele><time>2026-04-07T16:28:47.999Z</time></trkpt><trkpt lat="43.82057962379744" lon="6.233613676509101"><ele>626.0</ele><time>2026-04-07T16:28:48.999Z</time></trkpt><trkpt lat="43.82070664467765" lon="6.23353865571832"><ele>626.0</ele><time>2026-04-07T16:28:49.999Z</time></trkpt><trkpt lat="43.82080595062855" lon="6.233477953709113"><ele>626.0</ele><time>2026-04-07T16:28:50.999Z</time></trkpt><trkpt lat="43.82089484351568" lon="6.233369401040501"><ele>626.0</ele><time>2026-04-07T16:28:51.999Z</time></trkpt><trkpt lat="43.8209748570137" lon="6.233238137281718"><ele>624.75</ele><time>2026-04-07T16:28:52.999Z</time></trkpt><trkpt lat="43.82106868322429" lon="6.233100811918662"><ele>623.5</ele><time>2026-04-07T16:28:53.999Z</time></trkpt><trkpt lat="43.82114805185382" lon="6.232964792995948"><ele>622.25</ele><time>2026-04-07T16:28:54.999Z</time></trkpt><trkpt lat="43.82122559927228" lon="6.232820870765711"><ele>621.0</ele><time>2026-04-07T16:28:55.999Z</time></trkpt><trkpt lat="43.821324428995226" lon="6.232688509446522"><ele>621.0</ele><time>2026-04-07T16:28:56.999Z</time></trkpt><trkpt lat="43.821449254906646" lon="6.232602679100022"><ele>621.0</ele><time>2026-04-07T16:28:57.999Z</time></trkpt><trkpt lat="43.82155663074022" lon="6.2325147693005905"><ele>621.0</ele><time>2026-04-07T16:28:58.999Z</time></trkpt><trkpt lat="43.82167109256418" lon="6.232434942271315"><ele>621.0</ele><time>2026-04-07T16:28:59.999Z</time></trkpt><trkpt lat="43.821806345228026" lon="6.232366566633575"><ele>617.25</ele><time>2026-04-07T16:29:00.999Z</time></trkpt><trkpt lat="43.8219412725777" lon="6.232296730763194"><ele>613.5</ele><time>2026-04-07T16:29:01.999Z</time></trkpt><trkpt lat="43.82206943257509" lon="6.232219041192158"><ele>609.75</ele><time>2026-04-07T16:29:02.999Z</time></trkpt><trkpt lat="43.82219985797112" lon="6.232173809481137"><ele>606.0</ele><time>2026-04-07T16:29:03.999Z</time></trkpt><trkpt lat="43.82233131606561" lon="6.232137713931883"><ele>606.0</ele><time>2026-04-07T16:29:04.999Z</time></trkpt><trkpt lat="43.8224631512846" lon="6.2321155672563116"><ele>606.0</ele><time>2026-04-07T16:29:05.999Z</time></trkpt><trkpt lat="43.82259260347571" lon="6.232100184266587"><ele>606.0</ele><time>2026-04-07T16:29:06.999Z</time></trkpt><trkpt lat="43.82271650952759" lon="6.232109194342564"><ele>606.0</ele><time>2026-04-07T16:29:07.999Z</time></trkpt><trkpt lat="43.822844163065376" lon="6.232128021831951"><ele>605.0</ele><time>2026-04-07T16:29:08.999Z</time></trkpt><trkpt lat="43.82296147465075" lon="6.232191153570306"><ele>604.0</ele><time>2026-04-07T16:29:09.999Z</time></trkpt><trkpt lat="43.823081496038135" lon="6.232310939756973"><ele>603.0</ele><time>2026-04-07T16:29:10.999Z</time></trkpt><trkpt lat="43.823215009187585" lon="6.2324206771928"><ele>602.0</ele><time>2026-04-07T16:29:11.999Z</time></trkpt><trkpt lat="43.82339253834757" lon="6.232525508655603"><ele>604.0</ele><time>2026-04-07T16:29:12.999Z</time></trkpt><trkpt lat="43.823533641694475" lon="6.232595505937316"><ele>606.0</ele><time>2026-04-07T16:29:13.999Z</time></trkpt><trkpt lat="43.82361457497349" lon="6.2325708506259305"><ele>608.0</ele><time>2026-04-07T16:29:14.999Z</time></trkpt><trkpt lat="43.8237415502058" lon="6.232534517522233"><ele>610.0</ele><time>2026-04-07T16:29:15.999Z</time></trkpt><trkpt lat="43.823874107699154" lon="6.2324868158052995"><ele>610.0</ele><time>2026-04-07T16:29:16.999Z</time></trkpt><trkpt lat="43.82399989530285" lon="6.232397706716301"><ele>610.0</ele><time>2026-04-07T16:29:17.999Z</time></trkpt><trkpt lat="43.82411804569445" lon="6.232297565891543"><ele>610.0</ele><time>2026-04-07T16:29:18.999Z</time></trkpt><trkpt lat="43.82424862415447" lon="6.232237839169987"><ele>610.0</ele><time>2026-04-07T16:29:19.999Z</time></trkpt><trkpt lat="43.82434956252481" lon="6.232136897335321"><ele>608.0</ele><time>2026-04-07T16:29:20.999Z</time></trkpt><trkpt lat="43.82447094268568" lon="6.232017581239868"><ele>606.0</ele><time>2026-04-07T16:29:21.999Z</time></trkpt><trkpt lat="43.82457818819157" lon="6.2318711746391084"><ele>604.0</ele><time>2026-04-07T16:29:22.999Z</time></trkpt><trkpt lat="43.82467897236987" lon="6.231729343233421"><ele>602.0</ele><time>2026-04-07T16:29:23.999Z</time></trkpt><trkpt lat="43.82478208935806" lon="6.231594195117983"><ele>602.5</ele><time>2026-04-07T16:29:24.999Z</time></trkpt><trkpt lat="43.8248850969123" lon="6.2314691324605915"><ele>603.0</ele><time>2026-04-07T16:29:25.999Z</time></trkpt><trkpt lat="43.82498240761243" lon="6.231347864421133"><ele>603.5</ele><time>2026-04-07T16:29:26.999Z</time></trkpt><trkpt lat="43.82507849788325" lon="6.231227369047413"><ele>604.0</ele><time>2026-04-07T16:29:28Z</time></trkpt><trkpt lat="43.825176219918454" lon="6.231103056935123"><ele>604.0</ele><time>2026-04-07T16:29:29Z</time></trkpt><trkpt lat="43.825273441085635" lon="6.230974396656144"><ele>604.0</ele><time>2026-04-07T16:29:30Z</time></trkpt><trkpt lat="43.82538144272101" lon="6.230852256238974"><ele>604.0</ele><time>2026-04-07T16:29:31Z</time></trkpt><trkpt lat="43.82545278442909" lon="6.230692276470483"><ele>604.0</ele><time>2026-04-07T16:29:32Z</time></trkpt><trkpt lat="43.82550470960802" lon="6.230526950671609"><ele>601.0</ele><time>2026-04-07T16:29:33Z</time></trkpt><trkpt lat="43.82551792706275" lon="6.230350607979421"><ele>598.0</ele><time>2026-04-07T16:29:34Z</time></trkpt><trkpt lat="43.82552400193492" lon="6.230175695764918"><ele>595.0</ele><time>2026-04-07T16:29:35Z</time></trkpt><trkpt lat="43.82553453874999" lon="6.230004172105221"><ele>592.0</ele><time>2026-04-07T16:29:36Z</time></trkpt><trkpt lat="43.8255433706138" lon="6.229848043597956"><ele>589.6</ele><time>2026-04-07T16:29:37Z</time></trkpt><trkpt lat="43.825538750970225" lon="6.229704863291925"><ele>587.2</ele><time>2026-04-07T16:29:38Z</time></trkpt><trkpt lat="43.82557026477743" lon="6.229576556981206"><ele>584.8</ele><time>2026-04-07T16:29:39Z</time></trkpt><trkpt lat="43.82562653816672" lon="6.22946741545628"><ele>582.4</ele><time>2026-04-07T16:29:40Z</time></trkpt><trkpt lat="43.825713869165234" lon="6.229373311777349"><ele>580.0</ele><time>2026-04-07T16:29:41Z</time></trkpt><trkpt lat="43.825825023922334" lon="6.2293091008871695"><ele>580.0</ele><time>2026-04-07T16:29:42Z</time></trkpt><trkpt lat="43.825953474047196" lon="6.229255970192709"><ele>580.0</ele><time>2026-04-07T16:29:42.999Z</time></trkpt><trkpt lat="43.826076030620094" lon="6.229189169740304"><ele>580.0</ele><time>2026-04-07T16:29:43.999Z</time></trkpt><trkpt lat="43.82619828284659" lon="6.2291416465938525"><ele>580.0</ele><time>2026-04-07T16:29:44.999Z</time></trkpt><trkpt lat="43.82632202514266" lon="6.229087634317351"><ele>580.0</ele><time>2026-04-07T16:29:45.999Z</time></trkpt><trkpt lat="43.82645105342127" lon="6.2290368625285675"><ele>580.0</ele><time>2026-04-07T16:29:46.999Z</time></trkpt><trkpt lat="43.826579476335525" lon="6.22896285548696"><ele>580.0</ele><time>2026-04-07T16:29:47.999Z</time></trkpt><trkpt lat="43.826720067146894" lon="6.228906217333551"><ele>580.0</ele><time>2026-04-07T16:29:48.999Z</time></trkpt><trkpt lat="43.82684799357866" lon="6.228801696628613"><ele>577.5</ele><time>2026-04-07T16:29:49.999Z</time></trkpt><trkpt lat="43.82697399395627" lon="6.228689352145999"><ele>575.0</ele><time>2026-04-07T16:29:50.999Z</time></trkpt><trkpt lat="43.82709912861021" lon="6.228579290361641"><ele>572.5</ele><time>2026-04-07T16:29:51.999Z</time></trkpt><trkpt lat="43.82721131918137" lon="6.228461303108992"><ele>570.0</ele><time>2026-04-07T16:29:52.999Z</time></trkpt><trkpt lat="43.82733114277149" lon="6.228361888896584"><ele>570.0</ele><time>2026-04-07T16:29:53.999Z</time></trkpt><trkpt lat="43.82744728713148" lon="6.228257467403593"><ele>570.0</ele><time>2026-04-07T16:29:54.999Z</time></trkpt><trkpt lat="43.8275637828356" lon="6.228165027218756"><ele>570.0</ele><time>2026-04-07T16:29:55.999Z</time></trkpt><trkpt lat="43.82768071058799" lon="6.228112095917522"><ele>570.0</ele><time>2026-04-07T16:29:56.999Z</time></trkpt><trkpt lat="43.82779028275697" lon="6.228065855789727"><ele>568.0</ele><time>2026-04-07T16:29:57.999Z</time></trkpt><trkpt lat="43.8278888192564" lon="6.228014228484486"><ele>566.0</ele><time>2026-04-07T16:29:58.999Z</time></trkpt><trkpt lat="43.827987543274276" lon="6.227997754911671"><ele>564.0</ele><time>2026-04-07T16:29:59.999Z</time></trkpt><trkpt lat="43.828080737522015" lon="6.227976468004682"><ele>562.0</ele><time>2026-04-07T16:30:00.999Z</time></trkpt><trkpt lat="43.82814262963299" lon="6.227923969268734"><ele>560.0</ele><time>2026-04-07T16:30:01.999Z</time></trkpt><trkpt lat="43.8281728531126" lon="6.227831111228167"><ele>558.0</ele><time>2026-04-07T16:30:02.999Z</time></trkpt><trkpt lat="43.82817019772734" lon="6.227719876834169"><ele>558.0</ele><time>2026-04-07T16:30:03.999Z</time></trkpt><trkpt lat="43.82811531851262" lon="6.227631886239963"><ele>558.0</ele><time>2026-04-07T16:30:04.999Z</time></trkpt><trkpt lat="43.82803137123806" lon="6.227581646481851"><ele>558.0</ele><time>2026-04-07T16:30:05.999Z</time></trkpt><trkpt lat="43.82791631642878" lon="6.227574269686877"><ele>558.0</ele><time>2026-04-07T16:30:06.999Z</time></trkpt><trkpt lat="43.82780071666977" lon="6.227566707739161"><ele>558.0</ele><time>2026-04-07T16:30:07.999Z</time></trkpt><trkpt lat="43.82769212088987" lon="6.227557162695766"><ele>558.4</ele><time>2026-04-07T16:30:08.999Z</time></trkpt><trkpt lat="43.82759981366237" lon="6.227539076884306"><ele>558.8</ele><time>2026-04-07T16:30:09.999Z</time></trkpt><trkpt lat="43.827525445634585" lon="6.227527073098994"><ele>559.2</ele><time>2026-04-07T16:30:10.999Z</time></trkpt><trkpt lat="43.82740523217723" lon="6.227518693014987"><ele>559.6</ele><time>2026-04-07T16:30:12.999Z</time></trkpt><trkpt lat="43.827333320180486" lon="6.227405500369618"><ele>560.0</ele><time>2026-04-07T16:30:14.999Z</time></trkpt><trkpt lat="43.8273598818536" lon="6.227300057279582"><ele>558.4</ele><time>2026-04-07T16:30:15.999Z</time></trkpt><trkpt lat="43.827418512488315" lon="6.227208962266218"><ele>556.8</ele><time>2026-04-07T16:30:16.999Z</time></trkpt><trkpt lat="43.82752866372485" lon="6.227162885974294"><ele>555.2</ele><time>2026-04-07T16:30:17.999Z</time></trkpt><trkpt lat="43.827611164125926" lon="6.227093246444439"><ele>553.6</ele><time>2026-04-07T16:30:18.999Z</time></trkpt><trkpt lat="43.827692277155265" lon="6.227005052809577"><ele>552.0</ele><time>2026-04-07T16:30:19.999Z</time></trkpt><trkpt lat="43.827787777044726" lon="6.226911874778384"><ele>551.5</ele><time>2026-04-07T16:30:20.999Z</time></trkpt><trkpt lat="43.827900526993645" lon="6.226832534455316"><ele>551.0</ele><time>2026-04-07T16:30:21.999Z</time></trkpt><trkpt lat="43.82799594056893" lon="6.226718665867655"><ele>550.5</ele><time>2026-04-07T16:30:22.999Z</time></trkpt><trkpt lat="43.828102196167144" lon="6.226639551805013"><ele>550.0</ele><time>2026-04-07T16:30:23.999Z</time></trkpt><trkpt lat="43.828210744395825" lon="6.226575146254834"><ele>550.0</ele><time>2026-04-07T16:30:24.999Z</time></trkpt><trkpt lat="43.82832765323315" lon="6.226574852467918"><ele>550.0</ele><time>2026-04-07T16:30:25.999Z</time></trkpt><trkpt lat="43.82843664529518" lon="6.226616715813139"><ele>550.0</ele><time>2026-04-07T16:30:26.999Z</time></trkpt><trkpt lat="43.82852873032459" lon="6.226699975083386"><ele>550.0</ele><time>2026-04-07T16:30:27.999Z</time></trkpt><trkpt lat="43.82860050846189" lon="6.226820214038003"><ele>548.8</ele><time>2026-04-07T16:30:28.999Z</time></trkpt><trkpt lat="43.828682445012554" lon="6.226919707838425"><ele>547.6</ele><time>2026-04-07T16:30:29.999Z</time></trkpt><trkpt lat="43.828748834058054" lon="6.227033376534816"><ele>546.4</ele><time>2026-04-07T16:30:30.999Z</time></trkpt><trkpt lat="43.82881202555626" lon="6.227152595216605"><ele>545.2</ele><time>2026-04-07T16:30:32Z</time></trkpt><trkpt lat="43.82886829024141" lon="6.227273178678492"><ele>544.0</ele><time>2026-04-07T16:30:33Z</time></trkpt><trkpt lat="43.828915405044896" lon="6.227399201044409"><ele>544.0</ele><time>2026-04-07T16:30:34Z</time></trkpt><trkpt lat="43.82895662592922" lon="6.227521296028321"><ele>544.0</ele><time>2026-04-07T16:30:35Z</time></trkpt><trkpt lat="43.82899110684236" lon="6.227635258686735"><ele>544.0</ele><time>2026-04-07T16:30:36Z</time></trkpt><trkpt lat="43.8290209206663" lon="6.227752431172369"><ele>544.0</ele><time>2026-04-07T16:30:37Z</time></trkpt><trkpt lat="43.82904768399414" lon="6.227858979880894"><ele>544.0</ele><time>2026-04-07T16:30:38Z</time></trkpt><trkpt lat="43.82906683946913" lon="6.2279494277584835"><ele>544.0</ele><time>2026-04-07T16:30:39Z</time></trkpt><trkpt lat="43.82910895080777" lon="6.228026134640729"><ele>544.0</ele><time>2026-04-07T16:30:40Z</time></trkpt><trkpt lat="43.8291769267314" lon="6.228047972991986"><ele>544.0</ele><time>2026-04-07T16:30:41Z</time></trkpt><trkpt lat="43.82925064779081" lon="6.228020831538446"><ele>544.0</ele><time>2026-04-07T16:30:42Z</time></trkpt><trkpt lat="43.82931196336334" lon="6.227955160311652"><ele>544.0</ele><time>2026-04-07T16:30:43Z</time></trkpt><trkpt lat="43.82934451629329" lon="6.227852275694899"><ele>544.0</ele><time>2026-04-07T16:30:44Z</time></trkpt><trkpt lat="43.82931847453613" lon="6.227728160992374"><ele>544.0</ele><time>2026-04-07T16:30:45Z</time></trkpt><trkpt lat="43.82925192154032" lon="6.2276164520927795"><ele>544.0</ele><time>2026-04-07T16:30:46Z</time></trkpt><trkpt lat="43.82917620782214" lon="6.2274986561618135"><ele>544.0</ele><time>2026-04-07T16:30:47Z</time></trkpt><trkpt lat="43.82910385138645" lon="6.227361986799695"><ele>544.0</ele><time>2026-04-07T16:30:48Z</time></trkpt><trkpt lat="43.829042655901894" lon="6.227235210477251"><ele>544.0</ele><time>2026-04-07T16:30:49Z</time></trkpt><trkpt lat="43.828988107037105" lon="6.2271112863353375"><ele>542.0</ele><time>2026-04-07T16:30:50Z</time></trkpt><trkpt lat="43.828961271361514" lon="6.2269849535730755"><ele>540.0</ele><time>2026-04-07T16:30:51Z</time></trkpt><trkpt lat="43.82893084244056" lon="6.226848086114286"><ele>538.0</ele><time>2026-04-07T16:30:52Z</time></trkpt><trkpt lat="43.82890554165942" lon="6.226733977669021"><ele>536.0</ele><time>2026-04-07T16:30:53Z</time></trkpt><trkpt lat="43.828871410042474" lon="6.226580041900761"><ele>534.0</ele><time>2026-04-07T16:30:54Z</time></trkpt><trkpt lat="43.82882516523021" lon="6.226427556569779"><ele>532.0</ele><time>2026-04-07T16:30:55Z</time></trkpt><trkpt lat="43.82876837486594" lon="6.2262907329901935"><ele>530.0</ele><time>2026-04-07T16:30:56Z</time></trkpt><trkpt lat="43.82869369357247" lon="6.226164799662947"><ele>528.0</ele><time>2026-04-07T16:30:57Z</time></trkpt><trkpt lat="43.82860366751305" lon="6.226070640719902"><ele>526.0</ele><time>2026-04-07T16:30:58Z</time></trkpt><trkpt lat="43.828552913858886" lon="6.2259613413637895"><ele>524.0</ele><time>2026-04-07T16:30:59Z</time></trkpt><trkpt lat="43.82849709253222" lon="6.22587342807236"><ele>525.0</ele><time>2026-04-07T16:31:00Z</time></trkpt><trkpt lat="43.82842896979118" lon="6.225785481607716"><ele>526.0</ele><time>2026-04-07T16:31:01Z</time></trkpt><trkpt lat="43.82839497245752" lon="6.225677529510846"><ele>527.0</ele><time>2026-04-07T16:31:02Z</time></trkpt><trkpt lat="43.82833755631899" lon="6.225591086322245"><ele>528.0</ele><time>2026-04-07T16:31:03Z</time></trkpt><trkpt lat="43.82829890332924" lon="6.225491818088526"><ele>529.0</ele><time>2026-04-07T16:31:04Z</time></trkpt><trkpt lat="43.828252799053274" lon="6.225397635624005"><ele>530.0</ele><time>2026-04-07T16:31:05Z</time></trkpt><trkpt lat="43.828213494296946" lon="6.225308529612058"><ele>530.0</ele><time>2026-04-07T16:31:06Z</time></trkpt><trkpt lat="43.82817575274354" lon="6.225210682489698"><ele>530.0</ele><time>2026-04-07T16:31:07Z</time></trkpt><trkpt lat="43.82814797797644" lon="6.225130347734328"><ele>530.0</ele><time>2026-04-07T16:31:08Z</time></trkpt><trkpt lat="43.828112897433506" lon="6.225009797260669"><ele>530.0</ele><time>2026-04-07T16:31:10Z</time></trkpt><trkpt lat="43.828109608159956" lon="6.224892337376269"><ele>530.0</ele><time>2026-04-07T16:31:27Z</time></trkpt><trkpt lat="43.82813996781428" lon="6.224760136767087"><ele>530.0</ele><time>2026-04-07T16:31:29Z</time></trkpt><trkpt lat="43.82821618869164" lon="6.224716461480367"><ele>528.5</ele><time>2026-04-07T16:31:30Z</time></trkpt><trkpt lat="43.82831689025641" lon="6.2247025618978675"><ele>527.0</ele><time>2026-04-07T16:31:31Z</time></trkpt><trkpt lat="43.828420480033635" lon="6.224708871977387"><ele>525.5</ele><time>2026-04-07T16:31:32Z</time></trkpt><trkpt lat="43.82855767505118" lon="6.224712523908977"><ele>524.0</ele><time>2026-04-07T16:31:33Z</time></trkpt><trkpt lat="43.82868306885484" lon="6.22473543332402"><ele>523.5</ele><time>2026-04-07T16:31:34Z</time></trkpt><trkpt lat="43.82882080479865" lon="6.224764594053447"><ele>523.0</ele><time>2026-04-07T16:31:35Z</time></trkpt><trkpt lat="43.82896576919545" lon="6.224803135942162"><ele>522.5</ele><time>2026-04-07T16:31:36Z</time></trkpt><trkpt lat="43.82911507694349" lon="6.224838491100247"><ele>522.0</ele><time>2026-04-07T16:31:37Z</time></trkpt><trkpt lat="43.82926664541168" lon="6.2248625928518315"><ele>521.6666666666666</ele><time>2026-04-07T16:31:38Z</time></trkpt><trkpt lat="43.829426477888" lon="6.224882034889824"><ele>521.3333333333333</ele><time>2026-04-07T16:31:39Z</time></trkpt><trkpt lat="43.829591938311154" lon="6.224904155568959"><ele>521.0</ele><time>2026-04-07T16:31:40Z</time></trkpt><trkpt lat="43.82972998569847" lon="6.224923492085482"><ele>521.0</ele><time>2026-04-07T16:31:41Z</time></trkpt><trkpt lat="43.829893779535745" lon="6.224960989062423"><ele>521.0</ele><time>2026-04-07T16:31:42Z</time></trkpt><trkpt lat="43.83005477762788" lon="6.224990807247151"><ele>521.0</ele><time>2026-04-07T16:31:43Z</time></trkpt><trkpt lat="43.83022374344542" lon="6.225013654982555"><ele>523.0</ele><time>2026-04-07T16:31:44Z</time></trkpt><trkpt lat="43.83039282886065" lon="6.22502133577959"><ele>525.0</ele><time>2026-04-07T16:31:45Z</time></trkpt><trkpt lat="43.83055535308877" lon="6.225024061263542"><ele>527.0</ele><time>2026-04-07T16:31:46Z</time></trkpt><trkpt lat="43.83070582449711" lon="6.224985166582051"><ele>527.0</ele><time>2026-04-07T16:31:47Z</time></trkpt><trkpt lat="43.83085835544475" lon="6.224944578729196"><ele>527.0</ele><time>2026-04-07T16:31:48Z</time></trkpt><trkpt lat="43.83101533924863" lon="6.224879428191787"><ele>527.0</ele><time>2026-04-07T16:31:49Z</time></trkpt><trkpt lat="43.83117868464081" lon="6.224786249952219"><ele>528.3333333333333</ele><time>2026-04-07T16:31:50Z</time></trkpt><trkpt lat="43.83132210309906" lon="6.224658212395547"><ele>529.6666666666666</ele><time>2026-04-07T16:31:51Z</time></trkpt><trkpt lat="43.83145009968059" lon="6.224493526746973"><ele>531.0</ele><time>2026-04-07T16:31:52Z</time></trkpt><trkpt lat="43.831569694529456" lon="6.22431295298528"><ele>531.0</ele><time>2026-04-07T16:31:53Z</time></trkpt><trkpt lat="43.831687803867354" lon="6.2241339934036315"><ele>531.0</ele><time>2026-04-07T16:31:54Z</time></trkpt><trkpt lat="43.83181079563984" lon="6.223952578667236"><ele>531.0</ele><time>2026-04-07T16:31:55Z</time></trkpt><trkpt lat="43.831926163463926" lon="6.223762606462413"><ele>533.0</ele><time>2026-04-07T16:31:56Z</time></trkpt><trkpt lat="43.83203365338482" lon="6.223569275642804"><ele>535.0</ele><time>2026-04-07T16:31:57Z</time></trkpt><trkpt lat="43.83215136030824" lon="6.223379838945845"><ele>537.0</ele><time>2026-04-07T16:31:58Z</time></trkpt><trkpt lat="43.83226735692492" lon="6.223185606721501"><ele>535.0</ele><time>2026-04-07T16:31:59Z</time></trkpt><trkpt lat="43.83238562502" lon="6.222992930119741"><ele>533.0</ele><time>2026-04-07T16:32:00Z</time></trkpt><trkpt lat="43.832505244203915" lon="6.222797436092903"><ele>531.0</ele><time>2026-04-07T16:32:01Z</time></trkpt><trkpt lat="43.83261858826472" lon="6.222604909937067"><ele>532.0</ele><time>2026-04-07T16:32:02Z</time></trkpt><trkpt lat="43.832729697823325" lon="6.222412441333988"><ele>533.0</ele><time>2026-04-07T16:32:03Z</time></trkpt><trkpt lat="43.83284615655036" lon="6.222225128168481"><ele>534.0</ele><time>2026-04-07T16:32:04Z</time></trkpt><trkpt lat="43.83296664741119" lon="6.222046656315304"><ele>534.0</ele><time>2026-04-07T16:32:05Z</time></trkpt><trkpt lat="43.83309253270046" lon="6.221875171640342"><ele>534.0</ele><time>2026-04-07T16:32:06Z</time></trkpt><trkpt lat="43.833223165846945" lon="6.221704594726135"><ele>534.0</ele><time>2026-04-07T16:32:07Z</time></trkpt><trkpt lat="43.83335854529672" lon="6.221538622565468"><ele>535.0</ele><time>2026-04-07T16:32:08Z</time></trkpt><trkpt lat="43.83350510013578" lon="6.221381991783936"><ele>536.0</ele><time>2026-04-07T16:32:09Z</time></trkpt><trkpt lat="43.83369076019623" lon="6.22128655984485"><ele>537.0</ele><time>2026-04-07T16:32:10Z</time></trkpt><trkpt lat="43.833881231737976" lon="6.221183460040326"><ele>537.0</ele><time>2026-04-07T16:32:11Z</time></trkpt><trkpt lat="43.83406061124937" lon="6.2210651942954565"><ele>537.0</ele><time>2026-04-07T16:32:12Z</time></trkpt><trkpt lat="43.8342165286966" lon="6.220952524298772"><ele>537.0</ele><time>2026-04-07T16:32:13Z</time></trkpt><trkpt lat="43.834339780371444" lon="6.220848219536143"><ele>540.0</ele><time>2026-04-07T16:32:14Z</time></trkpt><trkpt lat="43.834459682661034" lon="6.220790963746439"><ele>543.0</ele><time>2026-04-07T16:32:15Z</time></trkpt><trkpt lat="43.83456421567055" lon="6.220796539023633"><ele>546.0</ele><time>2026-04-07T16:32:16Z</time></trkpt><trkpt lat="43.83463637697568" lon="6.220865485071523"><ele>549.0</ele><time>2026-04-07T16:32:17Z</time></trkpt><trkpt lat="43.83464966086149" lon="6.220995528631884"><ele>552.0</ele><time>2026-04-07T16:32:18Z</time></trkpt><trkpt lat="43.83461763974954" lon="6.221121847788753"><ele>552.0</ele><time>2026-04-07T16:32:19Z</time></trkpt><trkpt lat="43.834562826497624" lon="6.221247411602788"><ele>552.0</ele><time>2026-04-07T16:32:20Z</time></trkpt><trkpt lat="43.83447159608262" lon="6.221360562895891"><ele>552.0</ele><time>2026-04-07T16:32:21Z</time></trkpt><trkpt lat="43.834365258216245" lon="6.221475127836512"><ele>552.0</ele><time>2026-04-07T16:32:22Z</time></trkpt><trkpt lat="43.834168418139164" lon="6.221724155176625"><ele>550.4</ele><time>2026-04-07T16:32:24Z</time></trkpt><trkpt lat="43.83408360522771" lon="6.2218342711617245"><ele>548.8000000000001</ele><time>2026-04-07T16:32:25Z</time></trkpt><trkpt lat="43.83400729396635" lon="6.22193623125254"><ele>547.2</ele><time>2026-04-07T16:32:26Z</time></trkpt><trkpt lat="43.833961634021875" lon="6.222047284935549"><ele>545.6</ele><time>2026-04-07T16:32:27Z</time></trkpt><trkpt lat="43.83395329312515" lon="6.2221746029337845"><ele>544.0</ele><time>2026-04-07T16:32:28Z</time></trkpt><trkpt lat="43.833991537010014" lon="6.222292045147846"><ele>544.0</ele><time>2026-04-07T16:32:29Z</time></trkpt><trkpt lat="43.834084246752255" lon="6.222349927993109"><ele>544.0</ele><time>2026-04-07T16:32:30Z</time></trkpt><trkpt lat="43.834180437552554" lon="6.222383789783417"><ele>544.0</ele><time>2026-04-07T16:32:31Z</time></trkpt><trkpt lat="43.83427537769386" lon="6.222266858203497"><ele>544.0</ele><time>2026-04-07T16:32:32Z</time></trkpt><trkpt lat="43.83436324197613" lon="6.222150815446019"><ele>544.0</ele><time>2026-04-07T16:32:33Z</time></trkpt><trkpt lat="43.834478885860484" lon="6.222027626603296"><ele>547.5</ele><time>2026-04-07T16:32:34Z</time></trkpt><trkpt lat="43.83463186186061" lon="6.2219717313152865"><ele>551.0</ele><time>2026-04-07T16:32:35Z</time></trkpt><trkpt lat="43.83476386868752" lon="6.221945579898401"><ele>554.5</ele><time>2026-04-07T16:32:36Z</time></trkpt><trkpt lat="43.834873480279995" lon="6.22189680045438"><ele>558.0</ele><time>2026-04-07T16:32:37Z</time></trkpt><trkpt lat="43.834985726623756" lon="6.221833071373231"><ele>558.0</ele><time>2026-04-07T16:32:38Z</time></trkpt><trkpt lat="43.835062583333674" lon="6.221700069668154"><ele>558.0</ele><time>2026-04-07T16:32:39Z</time></trkpt><trkpt lat="43.835102498382824" lon="6.221504127388349"><ele>558.0</ele><time>2026-04-07T16:32:40Z</time></trkpt><trkpt lat="43.83515496105599" lon="6.221297606047379"><ele>558.0</ele><time>2026-04-07T16:32:41Z</time></trkpt><trkpt lat="43.835269754590335" lon="6.221145334359626"><ele>559.75</ele><time>2026-04-07T16:32:42Z</time></trkpt><trkpt lat="43.83536861911073" lon="6.221023001162637"><ele>561.5</ele><time>2026-04-07T16:32:43Z</time></trkpt><trkpt lat="43.83547097593312" lon="6.220940957646423"><ele>563.25</ele><time>2026-04-07T16:32:44Z</time></trkpt><trkpt lat="43.835603898954666" lon="6.220924451722906"><ele>565.0</ele><time>2026-04-07T16:32:45Z</time></trkpt><trkpt lat="43.835773468592066" lon="6.220922190572506"><ele>565.0</ele><time>2026-04-07T16:32:46Z</time></trkpt><trkpt lat="43.8359201528501" lon="6.220888651115863"><ele>565.0</ele><time>2026-04-07T16:32:47Z</time></trkpt><trkpt lat="43.83604561640539" lon="6.220816853876246"><ele>565.0</ele><time>2026-04-07T16:32:48Z</time></trkpt><trkpt lat="43.8361693644513" lon="6.220724290952303"><ele>565.0</ele><time>2026-04-07T16:32:49Z</time></trkpt><trkpt lat="43.836302597479246" lon="6.220706958638203"><ele>566.75</ele><time>2026-04-07T16:32:50Z</time></trkpt><trkpt lat="43.83643648725307" lon="6.220704399057945"><ele>568.5</ele><time>2026-04-07T16:32:51Z</time></trkpt><trkpt lat="43.836567138063074" lon="6.220738713026731"><ele>570.25</ele><time>2026-04-07T16:32:52Z</time></trkpt><trkpt lat="43.836698780903404" lon="6.220781476732701"><ele>572.0</ele><time>2026-04-07T16:32:53Z</time></trkpt><trkpt lat="43.83683451308587" lon="6.220825925496748"><ele>572.75</ele><time>2026-04-07T16:32:54Z</time></trkpt><trkpt lat="43.83697360875887" lon="6.22085876853799"><ele>573.5</ele><time>2026-04-07T16:32:55Z</time></trkpt><trkpt lat="43.837104996974226" lon="6.22090445990599"><ele>574.25</ele><time>2026-04-07T16:32:56Z</time></trkpt><trkpt lat="43.837234611926924" lon="6.220936438077061"><ele>575.0</ele><time>2026-04-07T16:32:57Z</time></trkpt><trkpt lat="43.837350909895314" lon="6.220984639500996"><ele>575.0</ele><time>2026-04-07T16:32:58Z</time></trkpt><trkpt lat="43.83746812127947" lon="6.221045315942779"><ele>575.0</ele><time>2026-04-07T16:32:59Z</time></trkpt><trkpt lat="43.837582683132865" lon="6.2211062822203385"><ele>575.0</ele><time>2026-04-07T16:33:00Z</time></trkpt><trkpt lat="43.83769487709948" lon="6.221176193302081"><ele>575.0</ele><time>2026-04-07T16:33:01Z</time></trkpt><trkpt lat="43.83780767136925" lon="6.221268250958356"><ele>576.25</ele><time>2026-04-07T16:33:02Z</time></trkpt><trkpt lat="43.837914450976" lon="6.22137487963705"><ele>577.5</ele><time>2026-04-07T16:33:03Z</time></trkpt><trkpt lat="43.83801092893773" lon="6.221508743637204"><ele>578.75</ele><time>2026-04-07T16:33:04Z</time></trkpt><trkpt lat="43.83806797578566" lon="6.221668369907913"><ele>580.0</ele><time>2026-04-07T16:33:05Z</time></trkpt><trkpt lat="43.83812801054923" lon="6.221797025230625"><ele>582.0</ele><time>2026-04-07T16:33:06Z</time></trkpt><trkpt lat="43.83822838332217" lon="6.221835788417111"><ele>584.0</ele><time>2026-04-07T16:33:07Z</time></trkpt><trkpt lat="43.838344994299796" lon="6.221779971729408"><ele>586.0</ele><time>2026-04-07T16:33:08Z</time></trkpt><trkpt lat="43.83844921652622" lon="6.221675389485871"><ele>588.0</ele><time>2026-04-07T16:33:09Z</time></trkpt><trkpt lat="43.83853376822192" lon="6.22151548568766"><ele>587.25</ele><time>2026-04-07T16:33:10Z</time></trkpt><trkpt lat="43.8386114635643" lon="6.221340083452034"><ele>586.5</ele><time>2026-04-07T16:33:11Z</time></trkpt><trkpt lat="43.83871500195846" lon="6.221234587983722"><ele>585.75</ele><time>2026-04-07T16:33:12Z</time></trkpt><trkpt lat="43.838838317877425" lon="6.221237513538389"><ele>585.0</ele><time>2026-04-07T16:33:13Z</time></trkpt><trkpt lat="43.83896881057391" lon="6.2212412789446"><ele>585.0</ele><time>2026-04-07T16:33:14Z</time></trkpt><trkpt lat="43.83908066705755" lon="6.221344578683896"><ele>585.0</ele><time>2026-04-07T16:33:15Z</time></trkpt><trkpt lat="43.83918809821655" lon="6.221473521267905"><ele>585.0</ele><time>2026-04-07T16:33:16Z</time></trkpt><trkpt lat="43.83928966285411" lon="6.2215993981687365"><ele>585.0</ele><time>2026-04-07T16:33:17Z</time></trkpt><trkpt lat="43.839359075327735" lon="6.221731174853453"><ele>586.5</ele><time>2026-04-07T16:33:18Z</time></trkpt><trkpt lat="43.839437099372134" lon="6.221840317573691"><ele>588.0</ele><time>2026-04-07T16:33:19Z</time></trkpt><trkpt lat="43.83953330760512" lon="6.221925622520703"><ele>589.5</ele><time>2026-04-07T16:33:20Z</time></trkpt><trkpt lat="43.83964637772601" lon="6.221979994801851"><ele>591.0</ele><time>2026-04-07T16:33:21Z</time></trkpt><trkpt lat="43.83986043424082" lon="6.22200805868474"><ele>591.0</ele><time>2026-04-07T16:33:23Z</time></trkpt><trkpt lat="43.83993576142129" lon="6.222004109260521"><ele>591.0</ele><time>2026-04-07T16:33:24Z</time></trkpt><trkpt lat="43.84004385386162" lon="6.221993118772523"><ele>591.0</ele><time>2026-04-07T16:33:26Z</time></trkpt><trkpt lat="43.84013077587925" lon="6.221978758248571"><ele>591.0</ele><time>2026-04-07T16:33:28Z</time></trkpt><trkpt lat="43.840207841545435" lon="6.221963107512996"><ele>591.0</ele><time>2026-04-07T16:33:30Z</time></trkpt><trkpt lat="43.840342998372066" lon="6.221929035610267"><ele>593.0</ele><time>2026-04-07T16:33:32Z</time></trkpt><trkpt lat="43.840472958022964" lon="6.221868753140123"><ele>595.0</ele><time>2026-04-07T16:33:33Z</time></trkpt><trkpt lat="43.8405349460251" lon="6.221823672545761"><ele>597.0</ele><time>2026-04-07T16:33:34Z</time></trkpt><trkpt lat="43.84061420326091" lon="6.221751664171955"><ele>599.0</ele><time>2026-04-07T16:33:35Z</time></trkpt><trkpt lat="43.84069653147639" lon="6.221684591501118"><ele>601.0</ele><time>2026-04-07T16:33:36Z</time></trkpt><trkpt lat="43.84077772691538" lon="6.22161829740943"><ele>601.0</ele><time>2026-04-07T16:33:37Z</time></trkpt><trkpt lat="43.84085554120597" lon="6.221552127838765"><ele>601.0</ele><time>2026-04-07T16:33:38Z</time></trkpt><trkpt lat="43.84092818801162" lon="6.221488597501568"><ele>601.0</ele><time>2026-04-07T16:33:39Z</time></trkpt><trkpt lat="43.84098890995901" lon="6.221434197283633"><ele>601.0</ele><time>2026-04-07T16:33:40Z</time></trkpt><trkpt lat="43.841107699764585" lon="6.221377895278712"><ele>601.0</ele><time>2026-04-07T16:33:42Z</time></trkpt><trkpt lat="43.841172193396915" lon="6.221383178641203"><ele>601.0</ele><time>2026-04-07T16:33:43Z</time></trkpt><trkpt lat="43.84123677665259" lon="6.221394098585924"><ele>600.4</ele><time>2026-04-07T16:33:44Z</time></trkpt><trkpt lat="43.84130663630266" lon="6.221361268262335"><ele>599.8</ele><time>2026-04-07T16:33:45Z</time></trkpt><trkpt lat="43.841357711405855" lon="6.221280015311976"><ele>599.1999999999999</ele><time>2026-04-07T16:33:46Z</time></trkpt><trkpt lat="43.8413878222721" lon="6.2211332262657475"><ele>598.6</ele><time>2026-04-07T16:33:47Z</time></trkpt><trkpt lat="43.84143840113595" lon="6.220979684508395"><ele>598.0</ele><time>2026-04-07T16:33:48Z</time></trkpt><trkpt lat="43.84153996477443" lon="6.220832814381678"><ele>598.0</ele><time>2026-04-07T16:33:49Z</time></trkpt><trkpt lat="43.84165276011235" lon="6.220689212651828"><ele>598.0</ele><time>2026-04-07T16:33:50Z</time></trkpt><trkpt lat="43.84177411557672" lon="6.220519662849286"><ele>598.0</ele><time>2026-04-07T16:33:51Z</time></trkpt><trkpt lat="43.84188408679861" lon="6.220354210867852"><ele>595.0</ele><time>2026-04-07T16:33:52Z</time></trkpt><trkpt lat="43.8420127969016" lon="6.220225022953832"><ele>592.0</ele><time>2026-04-07T16:33:53Z</time></trkpt><trkpt lat="43.84213627539559" lon="6.220104412979248"><ele>589.0</ele><time>2026-04-07T16:33:54Z</time></trkpt><trkpt lat="43.8422606202038" lon="6.2199853722902825"><ele>589.0</ele><time>2026-04-07T16:33:55Z</time></trkpt><trkpt lat="43.842396553540894" lon="6.219903924091695"><ele>589.0</ele><time>2026-04-07T16:33:56Z</time></trkpt><trkpt lat="43.842533294208316" lon="6.219824720621964"><ele>589.0</ele><time>2026-04-07T16:33:57Z</time></trkpt><trkpt lat="43.84267634929339" lon="6.219785916101311"><ele>589.0</ele><time>2026-04-07T16:33:58Z</time></trkpt><trkpt lat="43.842813424435285" lon="6.21971525431914"><ele>585.0</ele><time>2026-04-07T16:33:59Z</time></trkpt><trkpt lat="43.84296488055835" lon="6.219674356948583"><ele>581.0</ele><time>2026-04-07T16:34:00Z</time></trkpt><trkpt lat="43.84312083962726" lon="6.219627465175164"><ele>577.0</ele><time>2026-04-07T16:34:01Z</time></trkpt><trkpt lat="43.84327868134714" lon="6.219573915169759"><ele>577.0</ele><time>2026-04-07T16:34:02Z</time></trkpt><trkpt lat="43.84343892986552" lon="6.219531863245619"><ele>577.0</ele><time>2026-04-07T16:34:03Z</time></trkpt><trkpt lat="43.84361065051936" lon="6.219487418572152"><ele>577.0</ele><time>2026-04-07T16:34:04Z</time></trkpt><trkpt lat="43.84378168108244" lon="6.219430204849318"><ele>578.3333333333334</ele><time>2026-04-07T16:34:05Z</time></trkpt><trkpt lat="43.843954396799255" lon="6.21935007335285"><ele>579.6666666666666</ele><time>2026-04-07T16:34:06Z</time></trkpt><trkpt lat="43.844117983617416" lon="6.219252070647279"><ele>581.0</ele><time>2026-04-07T16:34:07Z</time></trkpt><trkpt lat="43.844271188579754" lon="6.219132318899758"><ele>581.3333333333333</ele><time>2026-04-07T16:34:08Z</time></trkpt><trkpt lat="43.844407793636606" lon="6.218998334566853"><ele>581.6666666666666</ele><time>2026-04-07T16:34:09Z</time></trkpt><trkpt lat="43.844522550402225" lon="6.218843411296169"><ele>582.0</ele><time>2026-04-07T16:34:10Z</time></trkpt><trkpt lat="43.84462363689625" lon="6.218678102436838"><ele>579.75</ele><time>2026-04-07T16:34:11Z</time></trkpt><trkpt lat="43.84471073155076" lon="6.218515956114929"><ele>577.5</ele><time>2026-04-07T16:34:12Z</time></trkpt><trkpt lat="43.8447784575843" lon="6.21835286034585"><ele>575.25</ele><time>2026-04-07T16:34:13Z</time></trkpt><trkpt lat="43.84486188178501" lon="6.218151808309571"><ele>573.0</ele><time>2026-04-07T16:34:14Z</time></trkpt><trkpt lat="43.84492278949219" lon="6.217962758896994"><ele>572.0</ele><time>2026-04-07T16:34:15Z</time></trkpt><trkpt lat="43.84496280171946" lon="6.217770293554055"><ele>571.0</ele><time>2026-04-07T16:34:16Z</time></trkpt><trkpt lat="43.84498768309658" lon="6.2175592969070514"><ele>570.0</ele><time>2026-04-07T16:34:17Z</time></trkpt><trkpt lat="43.84500284252614" lon="6.217323920108825"><ele>569.6666666666666</ele><time>2026-04-07T16:34:18Z</time></trkpt><trkpt lat="43.845001528626916" lon="6.217090967508384"><ele>569.3333333333333</ele><time>2026-04-07T16:34:19Z</time></trkpt><trkpt lat="43.84497578862987" lon="6.216869161566071"><ele>569.0</ele><time>2026-04-07T16:34:20Z</time></trkpt><trkpt lat="43.84493815471012" lon="6.21666454506393"><ele>570.3333333333333</ele><time>2026-04-07T16:34:21Z</time></trkpt><trkpt lat="43.844890639454874" lon="6.216468967687243"><ele>571.6666666666666</ele><time>2026-04-07T16:34:22Z</time></trkpt><trkpt lat="43.844775167869706" lon="6.2161467374667705"><ele>573.0</ele><time>2026-04-07T16:34:24Z</time></trkpt><trkpt lat="43.84471186250306" lon="6.216041493029755"><ele>573.0</ele><time>2026-04-07T16:34:25Z</time></trkpt><trkpt lat="43.84465616737754" lon="6.215944686400707"><ele>573.0</ele><time>2026-04-07T16:34:26Z</time></trkpt><trkpt lat="43.844631671023535" lon="6.2158345558038"><ele>573.0</ele><time>2026-04-07T16:34:27Z</time></trkpt><trkpt lat="43.84461603367074" lon="6.215719283038249"><ele>573.0</ele><time>2026-04-07T16:34:28Z</time></trkpt><trkpt lat="43.844552089320025" lon="6.215605990776744"><ele>573.0</ele><time>2026-04-07T16:34:29Z</time></trkpt><trkpt lat="43.844452868104355" lon="6.215517853514419"><ele>572.8</ele><time>2026-04-07T16:34:30Z</time></trkpt><trkpt lat="43.84434913623201" lon="6.215439072137727"><ele>572.5999999999999</ele><time>2026-04-07T16:34:31Z</time></trkpt><trkpt lat="43.844279578743205" lon="6.2153386847676675"><ele>572.4000000000001</ele><time>2026-04-07T16:34:32Z</time></trkpt><trkpt lat="43.844235216739044" lon="6.215250160794279"><ele>572.2</ele><time>2026-04-07T16:34:33Z</time></trkpt><trkpt lat="43.844192928194474" lon="6.215184697717066"><ele>572.0</ele><time>2026-04-07T16:34:34Z</time></trkpt><trkpt lat="43.844132606543475" lon="6.2150658878023455"><ele>572.0</ele><time>2026-04-07T16:34:36Z</time></trkpt><trkpt lat="43.844126024804616" lon="6.214953622105165"><ele>572.0</ele><time>2026-04-07T16:34:39Z</time></trkpt><trkpt lat="43.844088093602146" lon="6.214857265908843"><ele>572.0</ele><time>2026-04-07T16:34:43Z</time></trkpt><trkpt lat="43.84403578301807" lon="6.214780297043157"><ele>572.0</ele><time>2026-04-07T16:35:42Z</time></trkpt><trkpt lat="43.84398996243113" lon="6.214705195077685"><ele>572.0</ele><time>2026-04-07T16:38:53Z</time></trkpt><trkpt lat="43.84391461691064" lon="6.214677267012789"><ele>572.0</ele><time>2026-04-07T16:42:48Z</time></trkpt><trkpt lat="43.843930428686434" lon="6.2148451751432745"><ele>572.0</ele><time>2026-04-07T16:42:53Z</time></trkpt><trkpt lat="43.84397632669403" lon="6.214916032014054"><ele>572.0</ele><time>2026-04-07T16:42:54Z</time></trkpt><trkpt lat="43.844018118393066" lon="6.214986145839289"><ele>572.0</ele><time>2026-04-07T16:42:55Z</time></trkpt><trkpt lat="43.8440961840783" lon="6.2151134877800684"><ele>572.0</ele><time>2026-04-07T16:42:57Z</time></trkpt><trkpt lat="43.84414670502867" lon="6.215175042852017"><ele>572.0</ele><time>2026-04-07T16:42:58Z</time></trkpt><trkpt lat="43.84420501220223" lon="6.215251711103015"><ele>572.0</ele><time>2026-04-07T16:42:59Z</time></trkpt><trkpt lat="43.84425340278956" lon="6.2153340399917205"><ele>572.1428571428571</ele><time>2026-04-07T16:43:00Z</time></trkpt><trkpt lat="43.8442998535921" lon="6.215416806290032"><ele>572.2857142857142</ele><time>2026-04-07T16:43:01Z</time></trkpt><trkpt lat="43.84434628119795" lon="6.215478962272006"><ele>572.4285714285714</ele><time>2026-04-07T16:43:02Z</time></trkpt><trkpt lat="43.84439777504659" lon="6.215541951391612"><ele>572.5714285714286</ele><time>2026-04-07T16:43:03Z</time></trkpt><trkpt lat="43.844433258535226" lon="6.215628595392905"><ele>572.7142857142858</ele><time>2026-04-07T16:43:04Z</time></trkpt><trkpt lat="43.844460766786106" lon="6.215733435460775"><ele>572.8571428571429</ele><time>2026-04-07T16:43:05Z</time></trkpt><trkpt lat="43.84449462852955" lon="6.215833784266834"><ele>573.0</ele><time>2026-04-07T16:43:06Z</time></trkpt><trkpt lat="43.84455220115783" lon="6.215911708380681"><ele>573.0</ele><time>2026-04-07T16:43:07Z</time></trkpt><trkpt lat="43.844610786158626" lon="6.216001169426983"><ele>573.0</ele><time>2026-04-07T16:43:08Z</time></trkpt><trkpt lat="43.844690956522015" lon="6.216074782963363"><ele>573.0</ele><time>2026-04-07T16:43:09Z</time></trkpt><trkpt lat="43.84474726488088" lon="6.216201648146481"><ele>573.0</ele><time>2026-04-07T16:43:10Z</time></trkpt><trkpt lat="43.844796919231854" lon="6.216338250212536"><ele>573.0</ele><time>2026-04-07T16:43:11Z</time></trkpt><trkpt lat="43.844842903779245" lon="6.216487971196794"><ele>572.1999999999999</ele><time>2026-04-07T16:43:12Z</time></trkpt><trkpt lat="43.844883030131946" lon="6.21664531024289"><ele>571.4</ele><time>2026-04-07T16:43:13Z</time></trkpt><trkpt lat="43.844910775093346" lon="6.2167892882861135"><ele>570.5999999999999</ele><time>2026-04-07T16:43:14Z</time></trkpt><trkpt lat="43.844931380367285" lon="6.216935810164627"><ele>569.8</ele><time>2026-04-07T16:43:15Z</time></trkpt><trkpt lat="43.84494570773122" lon="6.217091140640916"><ele>569.0</ele><time>2026-04-07T16:43:16Z</time></trkpt><trkpt lat="43.84495400099928" lon="6.217260678693273"><ele>569.25</ele><time>2026-04-07T16:43:17Z</time></trkpt><trkpt lat="43.844945309500545" lon="6.217438448132875"><ele>569.5</ele><time>2026-04-07T16:43:18Z</time></trkpt><trkpt lat="43.844931825167166" lon="6.2176004625725305"><ele>569.75</ele><time>2026-04-07T16:43:19Z</time></trkpt><trkpt lat="43.84491356459631" lon="6.217762550704427"><ele>570.0</ele><time>2026-04-07T16:43:20Z</time></trkpt><trkpt lat="43.84487996160808" lon="6.217930804900718"><ele>570.0</ele><time>2026-04-07T16:43:21Z</time></trkpt><trkpt lat="43.84483321163911" lon="6.2181021504411715"><ele>570.0</ele><time>2026-04-07T16:43:22Z</time></trkpt><trkpt lat="43.84478107549822" lon="6.218260599418109"><ele>570.0</ele><time>2026-04-07T16:43:23Z</time></trkpt><trkpt lat="43.84471694657886" lon="6.218402492925701"><ele>570.0</ele><time>2026-04-07T16:43:24Z</time></trkpt><trkpt lat="43.84465018480585" lon="6.2185360433157"><ele>570.75</ele><time>2026-04-07T16:43:25Z</time></trkpt><trkpt lat="43.84457212133707" lon="6.218670008481318"><ele>571.5</ele><time>2026-04-07T16:43:26Z</time></trkpt><trkpt lat="43.84448283012642" lon="6.218805151334984"><ele>572.25</ele><time>2026-04-07T16:43:27Z</time></trkpt><trkpt lat="43.84438043082239" lon="6.218934131700154"><ele>573.0</ele><time>2026-04-07T16:43:28Z</time></trkpt><trkpt lat="43.84426831681575" lon="6.219056809751568"><ele>575.6666666666666</ele><time>2026-04-07T16:43:29Z</time></trkpt><trkpt lat="43.84414327432655" lon="6.2191641539146945"><ele>578.3333333333333</ele><time>2026-04-07T16:43:30Z</time></trkpt><trkpt lat="43.843997102909746" lon="6.219258054399142"><ele>581.0</ele><time>2026-04-07T16:43:31Z</time></trkpt><trkpt lat="43.843840988801496" lon="6.219333392448056"><ele>581.0</ele><time>2026-04-07T16:43:32Z</time></trkpt><trkpt lat="43.84367898749738" lon="6.219397566885408"><ele>581.0</ele><time>2026-04-07T16:43:33Z</time></trkpt><trkpt lat="43.8435064642338" lon="6.219457949085578"><ele>581.0</ele><time>2026-04-07T16:43:34Z</time></trkpt><trkpt lat="43.843329579021784" lon="6.219518450674943"><ele>579.6666666666666</ele><time>2026-04-07T16:43:35Z</time></trkpt><trkpt lat="43.843163418198074" lon="6.219564986520232"><ele>578.3333333333334</ele><time>2026-04-07T16:43:36Z</time></trkpt><trkpt lat="43.84299826277444" lon="6.2196174051804345"><ele>577.0</ele><time>2026-04-07T16:43:37Z</time></trkpt><trkpt lat="43.842836474000336" lon="6.219675891593537"><ele>577.0</ele><time>2026-04-07T16:43:38Z</time></trkpt><trkpt lat="43.84267861313007" lon="6.219729485593523"><ele>577.0</ele><time>2026-04-07T16:43:39Z</time></trkpt><trkpt lat="43.84252489679443" lon="6.21979125314248"><ele>577.0</ele><time>2026-04-07T16:43:40Z</time></trkpt><trkpt lat="43.84237613570852" lon="6.219869602541798"><ele>581.0</ele><time>2026-04-07T16:43:41Z</time></trkpt><trkpt lat="43.84223502445239" lon="6.219961640649942"><ele>585.0</ele><time>2026-04-07T16:43:42Z</time></trkpt><trkpt lat="43.842099188066825" lon="6.220065691759961"><ele>589.0</ele><time>2026-04-07T16:43:43Z</time></trkpt><trkpt lat="43.84197129426243" lon="6.2201963114981496"><ele>589.0</ele><time>2026-04-07T16:43:44Z</time></trkpt><trkpt lat="43.84185052176175" lon="6.2203416932583355"><ele>589.0</ele><time>2026-04-07T16:43:45Z</time></trkpt><trkpt lat="43.8417424451184" lon="6.220484797861798"><ele>589.0</ele><time>2026-04-07T16:43:46Z</time></trkpt><trkpt lat="43.84164195967835" lon="6.220622640429078"><ele>590.5</ele><time>2026-04-07T16:43:47Z</time></trkpt><trkpt lat="43.84155626896036" lon="6.220746483531449"><ele>592.0</ele><time>2026-04-07T16:43:48Z</time></trkpt><trkpt lat="43.841493421847666" lon="6.220837474451946"><ele>593.5</ele><time>2026-04-07T16:43:49Z</time></trkpt><trkpt lat="43.841444724994396" lon="6.220916236520754"><ele>595.0</ele><time>2026-04-07T16:43:50Z</time></trkpt><trkpt lat="43.84139529864984" lon="6.2209910553242445"><ele>596.5</ele><time>2026-04-07T16:43:51Z</time></trkpt><trkpt lat="43.8413356493837" lon="6.221057953413467"><ele>598.0</ele><time>2026-04-07T16:43:52Z</time></trkpt><trkpt lat="43.84125489731919" lon="6.221117482781844"><ele>598.0</ele><time>2026-04-07T16:43:53Z</time></trkpt><trkpt lat="43.8411677957974" lon="6.221199812083739"><ele>598.0</ele><time>2026-04-07T16:43:54Z</time></trkpt><trkpt lat="43.84108251184252" lon="6.221310767276152"><ele>598.0</ele><time>2026-04-07T16:43:55Z</time></trkpt><trkpt lat="43.84097859572795" lon="6.221413332595618"><ele>598.0</ele><time>2026-04-07T16:43:56Z</time></trkpt><trkpt lat="43.840870203880684" lon="6.221497634104328"><ele>598.75</ele><time>2026-04-07T16:43:57Z</time></trkpt><trkpt lat="43.84076803190055" lon="6.221580281725842"><ele>599.5</ele><time>2026-04-07T16:43:58Z</time></trkpt><trkpt lat="43.84066167606869" lon="6.2216687935037305"><ele>600.25</ele><time>2026-04-07T16:43:59Z</time></trkpt><trkpt lat="43.84055200509769" lon="6.221762625601836"><ele>601.0</ele><time>2026-04-07T16:44:00Z</time></trkpt><trkpt lat="43.84043205649423" lon="6.221844045998051"><ele>601.0</ele><time>2026-04-07T16:44:01Z</time></trkpt><trkpt lat="43.84029664786141" lon="6.221904405345001"><ele>601.0</ele><time>2026-04-07T16:44:02Z</time></trkpt><trkpt lat="43.84014827730934" lon="6.221930655083085"><ele>601.0</ele><time>2026-04-07T16:44:03Z</time></trkpt><trkpt lat="43.84000304367009" lon="6.221933127786708"><ele>601.0</ele><time>2026-04-07T16:44:04Z</time></trkpt><trkpt lat="43.83986350509642" lon="6.221937726459016"><ele>598.5</ele><time>2026-04-07T16:44:05Z</time></trkpt><trkpt lat="43.8397264370416" lon="6.221923753426492"><ele>596.0</ele><time>2026-04-07T16:44:06Z</time></trkpt><trkpt lat="43.839592587689005" lon="6.221878296891878"><ele>593.5</ele><time>2026-04-07T16:44:07Z</time></trkpt><trkpt lat="43.83946759111862" lon="6.221798756944025"><ele>591.0</ele><time>2026-04-07T16:44:08Z</time></trkpt><trkpt lat="43.839367281618046" lon="6.221674875439262"><ele>592.25</ele><time>2026-04-07T16:44:09Z</time></trkpt><trkpt lat="43.83927494066829" lon="6.221538262052703"><ele>593.5</ele><time>2026-04-07T16:44:10Z</time></trkpt><trkpt lat="43.83917938982979" lon="6.22139917549812"><ele>594.75</ele><time>2026-04-07T16:44:11Z</time></trkpt><trkpt lat="43.83907181570066" lon="6.221287534168975"><ele>596.0</ele><time>2026-04-07T16:44:12Z</time></trkpt><trkpt lat="43.83895766401496" lon="6.2212184293205555"><ele>593.25</ele><time>2026-04-07T16:44:13Z</time></trkpt><trkpt lat="43.838842551655105" lon="6.221195646862667"><ele>590.5</ele><time>2026-04-07T16:44:14Z</time></trkpt><trkpt lat="43.838727966420684" lon="6.221218924490476"><ele>587.75</ele><time>2026-04-07T16:44:15Z</time></trkpt><trkpt lat="43.83862601562716" lon="6.221284316759414"><ele>585.0</ele><time>2026-04-07T16:44:16Z</time></trkpt><trkpt lat="43.83854729571911" lon="6.221394577912807"><ele>585.6</ele><time>2026-04-07T16:44:17Z</time></trkpt><trkpt lat="43.83848585590236" lon="6.221535025893184"><ele>586.2</ele><time>2026-04-07T16:44:18Z</time></trkpt><trkpt lat="43.838418306215694" lon="6.221668006195463"><ele>586.8</ele><time>2026-04-07T16:44:19Z</time></trkpt><trkpt lat="43.83832569116316" lon="6.221751917136608"><ele>587.4</ele><time>2026-04-07T16:44:20Z</time></trkpt><trkpt lat="43.83822926612908" lon="6.221774496968603"><ele>588.0</ele><time>2026-04-07T16:44:21Z</time></trkpt><trkpt lat="43.83814186122945" lon="6.221722495516367"><ele>588.0</ele><time>2026-04-07T16:44:22Z</time></trkpt><trkpt lat="43.838076286040355" lon="6.221625321410849"><ele>588.0</ele><time>2026-04-07T16:44:23Z</time></trkpt><trkpt lat="43.838026001977724" lon="6.221494233572044"><ele>588.0</ele><time>2026-04-07T16:44:24Z</time></trkpt><trkpt lat="43.83795820487855" lon="6.221371957145339"><ele>588.0</ele><time>2026-04-07T16:44:25Z</time></trkpt><trkpt lat="43.83784784810756" lon="6.221264271890629"><ele>588.0</ele><time>2026-04-07T16:44:26Z</time></trkpt><trkpt lat="43.83772357850543" lon="6.221167397870039"><ele>584.75</ele><time>2026-04-07T16:44:27Z</time></trkpt><trkpt lat="43.837598436823754" lon="6.221090988192167"><ele>581.5</ele><time>2026-04-07T16:44:28Z</time></trkpt><trkpt lat="43.83746604520481" lon="6.2210187683961555"><ele>578.25</ele><time>2026-04-07T16:44:29Z</time></trkpt><trkpt lat="43.837324902546165" lon="6.220956512453099"><ele>575.0</ele><time>2026-04-07T16:44:30Z</time></trkpt><trkpt lat="43.837175531117325" lon="6.220901389712138"><ele>575.0</ele><time>2026-04-07T16:44:31Z</time></trkpt><trkpt lat="43.83701739187822" lon="6.2208438343289885"><ele>575.0</ele><time>2026-04-07T16:44:32Z</time></trkpt><trkpt lat="43.836858950789" lon="6.220792831867808"><ele>575.0</ele><time>2026-04-07T16:44:33Z</time></trkpt><trkpt lat="43.83670811737027" lon="6.220740589331446"><ele>574.25</ele><time>2026-04-07T16:44:34Z</time></trkpt><trkpt lat="43.83657351077526" lon="6.220694774161964"><ele>573.5</ele><time>2026-04-07T16:44:35Z</time></trkpt><trkpt lat="43.836451431228596" lon="6.220667612936093"><ele>572.75</ele><time>2026-04-07T16:44:36Z</time></trkpt><trkpt lat="43.83632528787884" lon="6.220660035183544"><ele>572.0</ele><time>2026-04-07T16:44:37Z</time></trkpt><trkpt lat="43.83619987818577" lon="6.220685892417325"><ele>572.0</ele><time>2026-04-07T16:44:38Z</time></trkpt><trkpt lat="43.83606939127269" lon="6.220754191761867"><ele>572.0</ele><time>2026-04-07T16:44:39Z</time></trkpt><trkpt lat="43.8359332605718" lon="6.220829188472332"><ele>572.0</ele><time>2026-04-07T16:44:40Z</time></trkpt><trkpt lat="43.835792788566444" lon="6.220871724368765"><ele>572.0</ele><time>2026-04-07T16:44:41Z</time></trkpt><trkpt lat="43.83565627997439" lon="6.220875857654558"><ele>570.25</ele><time>2026-04-07T16:44:42Z</time></trkpt><trkpt lat="43.83553172055236" lon="6.220881121986594"><ele>568.5</ele><time>2026-04-07T16:44:43Z</time></trkpt><trkpt lat="43.8354163783761" lon="6.220938792797172"><ele>566.75</ele><time>2026-04-07T16:44:44Z</time></trkpt><trkpt lat="43.83530159921536" lon="6.221047440261029"><ele>565.0</ele><time>2026-04-07T16:44:45Z</time></trkpt><trkpt lat="43.83519275510727" lon="6.221188209736708"><ele>563.25</ele><time>2026-04-07T16:44:46Z</time></trkpt><trkpt lat="43.83510790852057" lon="6.221344772986581"><ele>561.5</ele><time>2026-04-07T16:44:47Z</time></trkpt><trkpt lat="43.835054722728906" lon="6.221515199240743"><ele>559.75</ele><time>2026-04-07T16:44:48Z</time></trkpt><trkpt lat="43.83501396377068" lon="6.221669491127308"><ele>558.0</ele><time>2026-04-07T16:44:49Z</time></trkpt><trkpt lat="43.83494685289052" lon="6.221787443490083"><ele>558.0</ele><time>2026-04-07T16:44:50Z</time></trkpt><trkpt lat="43.83484990182967" lon="6.221873262465405"><ele>558.0</ele><time>2026-04-07T16:44:51Z</time></trkpt><trkpt lat="43.834729573663076" lon="6.221906093328336"><ele>558.0</ele><time>2026-04-07T16:44:52Z</time></trkpt><trkpt lat="43.83459918205794" lon="6.221936424612183"><ele>558.0</ele><time>2026-04-07T16:44:53Z</time></trkpt><trkpt lat="43.834483529004864" lon="6.222010753011016"><ele>558.0</ele><time>2026-04-07T16:44:54Z</time></trkpt><trkpt lat="43.834382748287496" lon="6.222099040060176"><ele>558.0</ele><time>2026-04-07T16:44:55Z</time></trkpt><trkpt lat="43.83430415585033" lon="6.2221870852096375"><ele>558.0</ele><time>2026-04-07T16:44:56Z</time></trkpt><trkpt lat="43.834238484866766" lon="6.222256677543552"><ele>558.0</ele><time>2026-04-07T16:44:57Z</time></trkpt><trkpt lat="43.834174398344295" lon="6.222308550315722"><ele>558.0</ele><time>2026-04-07T16:44:58Z</time></trkpt><trkpt lat="43.8341063115977" lon="6.222333198481953"><ele>558.0</ele><time>2026-04-07T16:44:59Z</time></trkpt><trkpt lat="43.834004621674715" lon="6.222272759103385"><ele>555.1999999999999</ele><time>2026-04-07T16:45:00Z</time></trkpt><trkpt lat="43.833994072359694" lon="6.222124915822903"><ele>552.4</ele><time>2026-04-07T16:45:01Z</time></trkpt><trkpt lat="43.83398328449605" lon="6.221994931955591"><ele>549.5999999999999</ele><time>2026-04-07T16:45:02Z</time></trkpt><trkpt lat="43.83408368820866" lon="6.221897777590541"><ele>546.8</ele><time>2026-04-07T16:45:03Z</time></trkpt><trkpt lat="43.83417782095429" lon="6.221783622333773"><ele>544.0</ele><time>2026-04-07T16:45:04Z</time></trkpt><trkpt lat="43.83427604949636" lon="6.221655571105282"><ele>546.0</ele><time>2026-04-07T16:45:05Z</time></trkpt><trkpt lat="43.834392749673384" lon="6.221498289890589"><ele>548.0</ele><time>2026-04-07T16:45:06Z</time></trkpt><trkpt lat="43.834499612653325" lon="6.221357650060045"><ele>550.0</ele><time>2026-04-07T16:45:07Z</time></trkpt><trkpt lat="43.83458487625613" lon="6.221218397292594"><ele>552.0</ele><time>2026-04-07T16:45:08Z</time></trkpt><trkpt lat="43.834662614486376" lon="6.221125024681617"><ele>552.0</ele><time>2026-04-07T16:45:09Z</time></trkpt><trkpt lat="43.83470772778847" lon="6.221028674829143"><ele>552.0</ele><time>2026-04-07T16:45:10Z</time></trkpt><trkpt lat="43.83471132592516" lon="6.220914212345516"><ele>552.0</ele><time>2026-04-07T16:45:11Z</time></trkpt><trkpt lat="43.83466525097388" lon="6.220802886897002"><ele>552.0</ele><time>2026-04-07T16:45:12Z</time></trkpt><trkpt lat="43.83458302382999" lon="6.220736264293719"><ele>552.0</ele><time>2026-04-07T16:45:13Z</time></trkpt><trkpt lat="43.834483707664184" lon="6.220721447163404"><ele>552.0</ele><time>2026-04-07T16:45:14Z</time></trkpt><trkpt lat="43.83436256943434" lon="6.220765798674229"><ele>552.0</ele><time>2026-04-07T16:45:15Z</time></trkpt><trkpt lat="43.83423436806331" lon="6.220854559072575"><ele>552.0</ele><time>2026-04-07T16:45:16Z</time></trkpt><trkpt lat="43.834091961290426" lon="6.220971040825517"><ele>552.0</ele><time>2026-04-07T16:45:17Z</time></trkpt><trkpt lat="43.8339354802333" lon="6.221083166268731"><ele>547.0</ele><time>2026-04-07T16:45:18Z</time></trkpt><trkpt lat="43.833782887922716" lon="6.2211830652758175"><ele>542.0</ele><time>2026-04-07T16:45:19Z</time></trkpt><trkpt lat="43.83362739375785" lon="6.221274958101108"><ele>537.0</ele><time>2026-04-07T16:45:20Z</time></trkpt><trkpt lat="43.8334606766056" lon="6.221375553824544"><ele>536.0</ele><time>2026-04-07T16:45:21Z</time></trkpt><trkpt lat="43.833301572028276" lon="6.221540599706298"><ele>535.0</ele><time>2026-04-07T16:45:22Z</time></trkpt><trkpt lat="43.833156357958515" lon="6.2217363412767845"><ele>534.0</ele><time>2026-04-07T16:45:23Z</time></trkpt><trkpt lat="43.83302905319781" lon="6.221928695430273"><ele>534.0</ele><time>2026-04-07T16:45:24Z</time></trkpt><trkpt lat="43.83290258948062" lon="6.222115769591841"><ele>534.0</ele><time>2026-04-07T16:45:25Z</time></trkpt><trkpt lat="43.832776938072904" lon="6.222308352220134"><ele>534.0</ele><time>2026-04-07T16:45:26Z</time></trkpt><trkpt lat="43.832656021438055" lon="6.222518373825216"><ele>533.0</ele><time>2026-04-07T16:45:27Z</time></trkpt><trkpt lat="43.83253183028983" lon="6.222727826198136"><ele>532.0</ele><time>2026-04-07T16:45:28Z</time></trkpt><trkpt lat="43.832399889962176" lon="6.222930480755651"><ele>531.0</ele><time>2026-04-07T16:45:29Z</time></trkpt><trkpt lat="43.83227005913729" lon="6.223135014425896"><ele>533.0</ele><time>2026-04-07T16:45:30Z</time></trkpt><trkpt lat="43.83214614001206" lon="6.223341833378349"><ele>535.0</ele><time>2026-04-07T16:45:31Z</time></trkpt><trkpt lat="43.83202505362147" lon="6.223546544971181"><ele>537.0</ele><time>2026-04-07T16:45:32Z</time></trkpt><trkpt lat="43.83190340610086" lon="6.223742307146931"><ele>535.0</ele><time>2026-04-07T16:45:33Z</time></trkpt><trkpt lat="43.83178209239313" lon="6.223926898125873"><ele>533.0</ele><time>2026-04-07T16:45:34Z</time></trkpt><trkpt lat="43.83166257267799" lon="6.224103968598964"><ele>531.0</ele><time>2026-04-07T16:45:35Z</time></trkpt><trkpt lat="43.831552680597575" lon="6.224270080151358"><ele>531.0</ele><time>2026-04-07T16:45:36Z</time></trkpt><trkpt lat="43.83144620119991" lon="6.224428703599049"><ele>531.0</ele><time>2026-04-07T16:45:37Z</time></trkpt><trkpt lat="43.831327407644885" lon="6.224580360522194"><ele>531.0</ele><time>2026-04-07T16:45:38Z</time></trkpt><trkpt lat="43.83119268482718" lon="6.224716235286343"><ele>529.6666666666666</ele><time>2026-04-07T16:45:39Z</time></trkpt><trkpt lat="43.83103988069999" lon="6.224821382778301"><ele>528.3333333333333</ele><time>2026-04-07T16:45:40Z</time></trkpt><trkpt lat="43.83088237870258" lon="6.224900762202812"><ele>527.0</ele><time>2026-04-07T16:45:41Z</time></trkpt><trkpt lat="43.83071760556497" lon="6.2249474978917325"><ele>527.0</ele><time>2026-04-07T16:45:42Z</time></trkpt><trkpt lat="43.83054452303047" lon="6.224977614670743"><ele>527.0</ele><time>2026-04-07T16:45:43Z</time></trkpt><trkpt lat="43.830365332244135" lon="6.224994532650616"><ele>527.0</ele><time>2026-04-07T16:45:44Z</time></trkpt><trkpt lat="43.83018546905892" lon="6.224985096931742"><ele>525.0</ele><time>2026-04-07T16:45:45Z</time></trkpt><trkpt lat="43.830010516530585" lon="6.224956150300155"><ele>523.0</ele><time>2026-04-07T16:45:46Z</time></trkpt><trkpt lat="43.82983282587064" lon="6.224919900853603"><ele>521.0</ele><time>2026-04-07T16:45:47Z</time></trkpt><trkpt lat="43.82965275318884" lon="6.224899142768392"><ele>521.0</ele><time>2026-04-07T16:45:48Z</time></trkpt><trkpt lat="43.829467498394585" lon="6.224871086632352"><ele>521.0</ele><time>2026-04-07T16:45:49Z</time></trkpt><trkpt lat="43.82928571860316" lon="6.224832616160193"><ele>521.0</ele><time>2026-04-07T16:45:50Z</time></trkpt><trkpt lat="43.829111349756" lon="6.224796367524938"><ele>520.6666666666666</ele><time>2026-04-07T16:45:51Z</time></trkpt><trkpt lat="43.82894341931863" lon="6.224770764928109"><ele>520.3333333333334</ele><time>2026-04-07T16:45:52Z</time></trkpt><trkpt lat="43.828781013231755" lon="6.224741680304007"><ele>520.0</ele><time>2026-04-07T16:45:53Z</time></trkpt><trkpt lat="43.82863256756591" lon="6.224704690044097"><ele>520.0</ele><time>2026-04-07T16:45:54Z</time></trkpt><trkpt lat="43.82849517887319" lon="6.224663247258691"><ele>520.0</ele><time>2026-04-07T16:45:55Z</time></trkpt><trkpt lat="43.82837918946123" lon="6.224642572470823"><ele>520.0</ele><time>2026-04-07T16:45:56Z</time></trkpt><trkpt lat="43.8283005807394" lon="6.224640996089098"><ele>520.0</ele><time>2026-04-07T16:45:57Z</time></trkpt><trkpt lat="43.828176793262074" lon="6.224629355824301"><ele>520.8</ele><time>2026-04-07T16:45:59Z</time></trkpt><trkpt lat="43.82809755725121" lon="6.224603151796407"><ele>521.6</ele><time>2026-04-07T16:46:00Z</time></trkpt><trkpt lat="43.82799747898789" lon="6.224582429936536"><ele>522.4</ele><time>2026-04-07T16:46:01Z</time></trkpt><trkpt lat="43.82788038174587" lon="6.224596588117107"><ele>523.2</ele><time>2026-04-07T16:46:02Z</time></trkpt><trkpt lat="43.82774962962973" lon="6.224607471514304"><ele>524.0</ele><time>2026-04-07T16:46:03Z</time></trkpt><trkpt lat="43.82760474307758" lon="6.2245896495783315"><ele>524.5</ele><time>2026-04-07T16:46:04Z</time></trkpt><trkpt lat="43.827472610127806" lon="6.2245723786394125"><ele>525.0</ele><time>2026-04-07T16:46:05Z</time></trkpt><trkpt lat="43.82734881737569" lon="6.22457131099417"><ele>525.5</ele><time>2026-04-07T16:46:06Z</time></trkpt><trkpt lat="43.82722393734962" lon="6.224575712565801"><ele>526.0</ele><time>2026-04-07T16:46:07Z</time></trkpt><trkpt lat="43.82709453809675" lon="6.224589814636685"><ele>526.0</ele><time>2026-04-07T16:46:08Z</time></trkpt><trkpt lat="43.82694801113126" lon="6.224609367046959"><ele>526.0</ele><time>2026-04-07T16:46:09Z</time></trkpt><trkpt lat="43.82678810330699" lon="6.224639449329366"><ele>526.0</ele><time>2026-04-07T16:46:10Z</time></trkpt><trkpt lat="43.8266228401959" lon="6.224669040383096"><ele>524.3333333333334</ele><time>2026-04-07T16:46:11Z</time></trkpt><trkpt lat="43.82645169829313" lon="6.22468310309635"><ele>522.6666666666666</ele><time>2026-04-07T16:46:12Z</time></trkpt><trkpt lat="43.826283736584095" lon="6.2246889189449455"><ele>521.0</ele><time>2026-04-07T16:46:13Z</time></trkpt><trkpt lat="43.82611417025121" lon="6.22469104701029"><ele>519.3333333333333</ele><time>2026-04-07T16:46:14Z</time></trkpt><trkpt lat="43.82593659352979" lon="6.224691244269828"><ele>517.6666666666666</ele><time>2026-04-07T16:46:15Z</time></trkpt><trkpt lat="43.82574850973985" lon="6.224689749836296"><ele>516.0</ele><time>2026-04-07T16:46:16Z</time></trkpt><trkpt lat="43.82555610630032" lon="6.224685674873845"><ele>516.0</ele><time>2026-04-07T16:46:17Z</time></trkpt><trkpt lat="43.82536677799054" lon="6.22468295048517"><ele>516.0</ele><time>2026-04-07T16:46:18Z</time></trkpt><trkpt lat="43.825181981653415" lon="6.224676082543035"><ele>516.0</ele><time>2026-04-07T16:46:19Z</time></trkpt><trkpt lat="43.82500184965799" lon="6.224665033491002"><ele>515.3333333333334</ele><time>2026-04-07T16:46:20Z</time></trkpt><trkpt lat="43.824822620672855" lon="6.22463069055072"><ele>514.6666666666667</ele><time>2026-04-07T16:46:21Z</time></trkpt><trkpt lat="43.824646288246264" lon="6.224582114657512"><ele>514.0</ele><time>2026-04-07T16:46:22Z</time></trkpt><trkpt lat="43.82447083250758" lon="6.224523983117684"><ele>513.0</ele><time>2026-04-07T16:46:23Z</time></trkpt><trkpt lat="43.82429942335129" lon="6.224460347340279"><ele>512.0</ele><time>2026-04-07T16:46:24Z</time></trkpt><trkpt lat="43.82413638488262" lon="6.224399270541978"><ele>511.0</ele><time>2026-04-07T16:46:25Z</time></trkpt><trkpt lat="43.82397452609981" lon="6.224361579094046"><ele>511.0</ele><time>2026-04-07T16:46:26Z</time></trkpt><trkpt lat="43.82380722490589" lon="6.224360115640528"><ele>511.0</ele><time>2026-04-07T16:46:27Z</time></trkpt><trkpt lat="43.82363057555039" lon="6.224399601098847"><ele>511.0</ele><time>2026-04-07T16:46:28Z</time></trkpt><trkpt lat="43.82344720702706" lon="6.2244724802875036"><ele>510.0</ele><time>2026-04-07T16:46:29Z</time></trkpt><trkpt lat="43.82325931287314" lon="6.224566052143818"><ele>509.0</ele><time>2026-04-07T16:46:30Z</time></trkpt><trkpt lat="43.823069000121784" lon="6.224675577525557"><ele>508.0</ele><time>2026-04-07T16:46:31Z</time></trkpt><trkpt lat="43.822878987765506" lon="6.224800891449344"><ele>509.0</ele><time>2026-04-07T16:46:32Z</time></trkpt><trkpt lat="43.822688260968455" lon="6.224927134430397"><ele>510.0</ele><time>2026-04-07T16:46:33Z</time></trkpt><trkpt lat="43.82249696251654" lon="6.2250506816379945"><ele>511.0</ele><time>2026-04-07T16:46:34Z</time></trkpt><trkpt lat="43.8223068548804" lon="6.225180593354644"><ele>511.0</ele><time>2026-04-07T16:46:35Z</time></trkpt><trkpt lat="43.82210926139393" lon="6.225314438782658"><ele>511.0</ele><time>2026-04-07T16:46:36Z</time></trkpt><trkpt lat="43.821903303318344" lon="6.22544512366068"><ele>511.0</ele><time>2026-04-07T16:46:37Z</time></trkpt><trkpt lat="43.82169864065264" lon="6.225566287415273"><ele>513.0</ele><time>2026-04-07T16:46:38Z</time></trkpt><trkpt lat="43.82150489814636" lon="6.2256841577561115"><ele>515.0</ele><time>2026-04-07T16:46:39Z</time></trkpt><trkpt lat="43.82132711904922" lon="6.225794714065132"><ele>517.0</ele><time>2026-04-07T16:46:40Z</time></trkpt><trkpt lat="43.82115551757685" lon="6.22589929742695"><ele>517.0</ele><time>2026-04-07T16:46:41Z</time></trkpt><trkpt lat="43.82099332640736" lon="6.2259956920556965"><ele>517.0</ele><time>2026-04-07T16:46:42Z</time></trkpt><trkpt lat="43.820841225536086" lon="6.22608585395838"><ele>517.0</ele><time>2026-04-07T16:46:43Z</time></trkpt><trkpt lat="43.82069295310069" lon="6.226164853514349"><ele>513.6666666666667</ele><time>2026-04-07T16:46:44Z</time></trkpt><trkpt lat="43.820545939150556" lon="6.226238659928351"><ele>510.33333333333337</ele><time>2026-04-07T16:46:45Z</time></trkpt><trkpt lat="43.82038626166508" lon="6.226319016354276"><ele>507.0</ele><time>2026-04-07T16:46:46Z</time></trkpt><trkpt lat="43.82021476230934" lon="6.226409564468726"><ele>508.0</ele><time>2026-04-07T16:46:47Z</time></trkpt><trkpt lat="43.82002921539504" lon="6.2264954719297405"><ele>509.0</ele><time>2026-04-07T16:46:48Z</time></trkpt><trkpt lat="43.81982785747099" lon="6.226562982028913"><ele>510.0</ele><time>2026-04-07T16:46:49Z</time></trkpt><trkpt lat="43.819614461108536" lon="6.226606129391473"><ele>510.0</ele><time>2026-04-07T16:46:50Z</time></trkpt><trkpt lat="43.81939306863975" lon="6.226622070374582"><ele>510.0</ele><time>2026-04-07T16:46:51Z</time></trkpt><trkpt lat="43.81916729316118" lon="6.226618247792072"><ele>510.0</ele><time>2026-04-07T16:46:52Z</time></trkpt><trkpt lat="43.818940338846176" lon="6.226597518160941"><ele>509.33333333333337</ele><time>2026-04-07T16:46:53Z</time></trkpt><trkpt lat="43.81871451602472" lon="6.226586279816018"><ele>508.6666666666667</ele><time>2026-04-07T16:46:54Z</time></trkpt><trkpt lat="43.818496999629154" lon="6.226580814854235"><ele>508.0</ele><time>2026-04-07T16:46:55Z</time></trkpt><trkpt lat="43.81828302227021" lon="6.226573622911694"><ele>507.33333333333337</ele><time>2026-04-07T16:46:56Z</time></trkpt><trkpt lat="43.81806959025377" lon="6.226559592914781"><ele>506.66666666666663</ele><time>2026-04-07T16:46:57Z</time></trkpt><trkpt lat="43.817851493614064" lon="6.226546657090003"><ele>506.0</ele><time>2026-04-07T16:46:58Z</time></trkpt><trkpt lat="43.81763024862729" lon="6.226535338175416"><ele>505.3333333333333</ele><time>2026-04-07T16:46:59Z</time></trkpt><trkpt lat="43.81740717514336" lon="6.226517074079025"><ele>504.66666666666663</ele><time>2026-04-07T16:47:00Z</time></trkpt><trkpt lat="43.817184551463534" lon="6.226503320689361"><ele>504.0</ele><time>2026-04-07T16:47:01Z</time></trkpt><trkpt lat="43.81696335391135" lon="6.226495767269994"><ele>503.0</ele><time>2026-04-07T16:47:02Z</time></trkpt><trkpt lat="43.816743705763635" lon="6.226488634658801"><ele>502.0</ele><time>2026-04-07T16:47:03Z</time></trkpt><trkpt lat="43.81652668471031" lon="6.226476930795404"><ele>501.0</ele><time>2026-04-07T16:47:04Z</time></trkpt><trkpt lat="43.8163139599147" lon="6.226463316572514"><ele>498.0</ele><time>2026-04-07T16:47:05Z</time></trkpt><trkpt lat="43.81610194736951" lon="6.226449260854134"><ele>495.0</ele><time>2026-04-07T16:47:06Z</time></trkpt><trkpt lat="43.81589173200038" lon="6.226438152595482"><ele>492.0</ele><time>2026-04-07T16:47:07Z</time></trkpt><trkpt lat="43.815684105220626" lon="6.226429231362774"><ele>492.0</ele><time>2026-04-07T16:47:08Z</time></trkpt><trkpt lat="43.815477780649694" lon="6.226419110292338"><ele>492.0</ele><time>2026-04-07T16:47:09Z</time></trkpt><trkpt lat="43.815273910098895" lon="6.226405453754954"><ele>492.0</ele><time>2026-04-07T16:47:10Z</time></trkpt><trkpt lat="43.815070778882244" lon="6.226391341070705"><ele>492.0</ele><time>2026-04-07T16:47:11Z</time></trkpt><trkpt lat="43.81486978251927" lon="6.226379129439716"><ele>492.0</ele><time>2026-04-07T16:47:12Z</time></trkpt><trkpt lat="43.81466948155839" lon="6.226367318452723"><ele>492.0</ele><time>2026-04-07T16:47:13Z</time></trkpt><trkpt lat="43.814469602565964" lon="6.226356161806116"><ele>491.66666666666663</ele><time>2026-04-07T16:47:14Z</time></trkpt><trkpt lat="43.81426307286479" lon="6.226344358084518"><ele>491.3333333333333</ele><time>2026-04-07T16:47:15Z</time></trkpt><trkpt lat="43.81405277054716" lon="6.22632926115756"><ele>491.0</ele><time>2026-04-07T16:47:16Z</time></trkpt><trkpt lat="43.81383817891017" lon="6.226316005064738"><ele>491.0</ele><time>2026-04-07T16:47:17Z</time></trkpt><trkpt lat="43.81362306032958" lon="6.226316956350832"><ele>491.0</ele><time>2026-04-07T16:47:18Z</time></trkpt><trkpt lat="43.81341132394278" lon="6.226344095803025"><ele>491.0</ele><time>2026-04-07T16:47:19Z</time></trkpt><trkpt lat="43.813205343517915" lon="6.226408187820977"><ele>490.66666666666663</ele><time>2026-04-07T16:47:20Z</time></trkpt><trkpt lat="43.81300708500987" lon="6.2265141184257375"><ele>490.33333333333337</ele><time>2026-04-07T16:47:21Z</time></trkpt><trkpt lat="43.81281866321447" lon="6.2266545735097365"><ele>490.0</ele><time>2026-04-07T16:47:22Z</time></trkpt><trkpt lat="43.81263914132384" lon="6.226817317950408"><ele>489.33333333333337</ele><time>2026-04-07T16:47:23Z</time></trkpt><trkpt lat="43.81245564678215" lon="6.226969450423119"><ele>488.66666666666663</ele><time>2026-04-07T16:47:24Z</time></trkpt><trkpt lat="43.812264587352935" lon="6.227095170271776"><ele>488.0</ele><time>2026-04-07T16:47:25Z</time></trkpt><trkpt lat="43.81206752928201" lon="6.227201665424882"><ele>488.0</ele><time>2026-04-07T16:47:26Z</time></trkpt><trkpt lat="43.8118692974282" lon="6.227298546058104"><ele>488.0</ele><time>2026-04-07T16:47:27Z</time></trkpt><trkpt lat="43.81167124428618" lon="6.2273817769589765"><ele>488.0</ele><time>2026-04-07T16:47:28Z</time></trkpt><trkpt lat="43.81147468349291" lon="6.227460768155108"><ele>487.66666666666663</ele><time>2026-04-07T16:47:29Z</time></trkpt><trkpt lat="43.81128063250024" lon="6.227544945919542"><ele>487.33333333333337</ele><time>2026-04-07T16:47:30Z</time></trkpt><trkpt lat="43.81109093230062" lon="6.22763465028881"><ele>487.0</ele><time>2026-04-07T16:47:31Z</time></trkpt><trkpt lat="43.810900370203704" lon="6.227718341705471"><ele>487.0</ele><time>2026-04-07T16:47:32Z</time></trkpt><trkpt lat="43.810706763909685" lon="6.227797685197824"><ele>487.0</ele><time>2026-04-07T16:47:33Z</time></trkpt><trkpt lat="43.810516939744474" lon="6.227880288550907"><ele>487.0</ele><time>2026-04-07T16:47:34Z</time></trkpt><trkpt lat="43.8103274164184" lon="6.227969934132616"><ele>487.0</ele><time>2026-04-07T16:47:35Z</time></trkpt><trkpt lat="43.810144532257226" lon="6.228053791820697"><ele>487.0</ele><time>2026-04-07T16:47:36Z</time></trkpt><trkpt lat="43.80996699719283" lon="6.228131243527509"><ele>487.0</ele><time>2026-04-07T16:47:37Z</time></trkpt><trkpt lat="43.80979493208875" lon="6.228206000495786"><ele>487.0</ele><time>2026-04-07T16:47:38Z</time></trkpt><trkpt lat="43.809626081498344" lon="6.228273314393262"><ele>487.0</ele><time>2026-04-07T16:47:39Z</time></trkpt><trkpt lat="43.809463215442904" lon="6.228343096264006"><ele>487.0</ele><time>2026-04-07T16:47:40Z</time></trkpt><trkpt lat="43.809301656473146" lon="6.228424872006525"><ele>486.0</ele><time>2026-04-07T16:47:41Z</time></trkpt><trkpt lat="43.80914167117162" lon="6.228518875097254"><ele>485.0</ele><time>2026-04-07T16:47:42Z</time></trkpt><trkpt lat="43.80898832980625" lon="6.228630403430187"><ele>484.0</ele><time>2026-04-07T16:47:43Z</time></trkpt><trkpt lat="43.80884851423936" lon="6.228761077576885"><ele>484.0</ele><time>2026-04-07T16:47:44Z</time></trkpt><trkpt lat="43.80872157030354" lon="6.228909646830945"><ele>484.0</ele><time>2026-04-07T16:47:45Z</time></trkpt><trkpt lat="43.80860711996286" lon="6.229070457442494"><ele>484.0</ele><time>2026-04-07T16:47:46Z</time></trkpt><trkpt lat="43.80850221778478" lon="6.229241024025218"><ele>484.0</ele><time>2026-04-07T16:47:47Z</time></trkpt><trkpt lat="43.808410690651996" lon="6.2294256483871"><ele>484.0</ele><time>2026-04-07T16:47:48Z</time></trkpt><trkpt lat="43.80833459600241" lon="6.229606996249284"><ele>484.0</ele><time>2026-04-07T16:47:49Z</time></trkpt><trkpt lat="43.808268896287224" lon="6.229785182985384"><ele>486.0</ele><time>2026-04-07T16:47:50Z</time></trkpt><trkpt lat="43.80821370608072" lon="6.2299682338301805"><ele>488.0</ele><time>2026-04-07T16:47:51Z</time></trkpt><trkpt lat="43.808173965530784" lon="6.230154065500011"><ele>490.0</ele><time>2026-04-07T16:47:52Z</time></trkpt><trkpt lat="43.80814726473755" lon="6.230362004508526"><ele>492.0</ele><time>2026-04-07T16:47:53Z</time></trkpt><trkpt lat="43.808131641808586" lon="6.230573744899442"><ele>494.33333333333337</ele><time>2026-04-07T16:47:54Z</time></trkpt><trkpt lat="43.808125830083874" lon="6.230784561679799"><ele>496.6666666666667</ele><time>2026-04-07T16:47:55Z</time></trkpt><trkpt lat="43.80813167284679" lon="6.2310091103639795"><ele>499.0</ele><time>2026-04-07T16:47:56Z</time></trkpt><trkpt lat="43.808152280589454" lon="6.23123683167747"><ele>499.0</ele><time>2026-04-07T16:47:57Z</time></trkpt><trkpt lat="43.808192564968266" lon="6.231464910147354"><ele>499.0</ele><time>2026-04-07T16:47:58Z</time></trkpt><trkpt lat="43.808242980049734" lon="6.231685913025417"><ele>499.0</ele><time>2026-04-07T16:47:59Z</time></trkpt><trkpt lat="43.808300381838215" lon="6.231893809052398"><ele>500.0</ele><time>2026-04-07T16:48:00Z</time></trkpt><trkpt lat="43.80836531856613" lon="6.23209225919818"><ele>501.0</ele><time>2026-04-07T16:48:01Z</time></trkpt><trkpt lat="43.80842416104272" lon="6.232287762949278"><ele>502.0</ele><time>2026-04-07T16:48:02Z</time></trkpt><trkpt lat="43.80847485978352" lon="6.232484742290643"><ele>504.5</ele><time>2026-04-07T16:48:03Z</time></trkpt><trkpt lat="43.80851852094616" lon="6.232682418708033"><ele>507.0</ele><time>2026-04-07T16:48:04Z</time></trkpt><trkpt lat="43.808566097594024" lon="6.232869419570834"><ele>509.5</ele><time>2026-04-07T16:48:05Z</time></trkpt><trkpt lat="43.80860174850263" lon="6.233057383878184"><ele>512.0</ele><time>2026-04-07T16:48:06Z</time></trkpt><trkpt lat="43.808614172060274" lon="6.233259591411363"><ele>512.0</ele><time>2026-04-07T16:48:07Z</time></trkpt><trkpt lat="43.808602251643336" lon="6.233467479720782"><ele>512.0</ele><time>2026-04-07T16:48:08Z</time></trkpt><trkpt lat="43.80856833549445" lon="6.233674400094911"><ele>512.0</ele><time>2026-04-07T16:48:09Z</time></trkpt><trkpt lat="43.8085172523349" lon="6.2338771884320625"><ele>513.3333333333333</ele><time>2026-04-07T16:48:10Z</time></trkpt><trkpt lat="43.808441914266105" lon="6.234064875953756"><ele>514.6666666666666</ele><time>2026-04-07T16:48:11Z</time></trkpt><trkpt lat="43.8083469603226" lon="6.234236406496808"><ele>516.0</ele><time>2026-04-07T16:48:12Z</time></trkpt><trkpt lat="43.80823672358759" lon="6.234393885795992"><ele>516.0</ele><time>2026-04-07T16:48:13Z</time></trkpt><trkpt lat="43.808116278499995" lon="6.234526779706222"><ele>516.0</ele><time>2026-04-07T16:48:14Z</time></trkpt><trkpt lat="43.807984681723674" lon="6.234631613008975"><ele>516.0</ele><time>2026-04-07T16:48:15Z</time></trkpt><trkpt lat="43.80784058477464" lon="6.23471275904293"><ele>516.0</ele><time>2026-04-07T16:48:16Z</time></trkpt><trkpt lat="43.80768873590257" lon="6.234766635582854"><ele>516.0</ele><time>2026-04-07T16:48:17Z</time></trkpt><trkpt lat="43.807533421968735" lon="6.234775196063759"><ele>516.0</ele><time>2026-04-07T16:48:18Z</time></trkpt><trkpt lat="43.807372692748594" lon="6.23476261790926"><ele>516.6666666666666</ele><time>2026-04-07T16:48:19Z</time></trkpt><trkpt lat="43.80721380877744" lon="6.234738668896196"><ele>517.3333333333333</ele><time>2026-04-07T16:48:20Z</time></trkpt><trkpt lat="43.80705467741364" lon="6.2346857664333735"><ele>518.0</ele><time>2026-04-07T16:48:21Z</time></trkpt><trkpt lat="43.80688698695937" lon="6.234621804153842"><ele>519.3333333333333</ele><time>2026-04-07T16:48:22Z</time></trkpt><trkpt lat="43.80671037630447" lon="6.234559679392536"><ele>520.6666666666666</ele><time>2026-04-07T16:48:23Z</time></trkpt><trkpt lat="43.80653052035683" lon="6.234499464889447"><ele>522.0</ele><time>2026-04-07T16:48:24Z</time></trkpt><trkpt lat="43.80635919336408" lon="6.234438799140294"><ele>522.0</ele><time>2026-04-07T16:48:25Z</time></trkpt><trkpt lat="43.80618410813738" lon="6.23438004796715"><ele>522.0</ele><time>2026-04-07T16:48:26Z</time></trkpt><trkpt lat="43.80600477294933" lon="6.2343231311816565"><ele>522.0</ele><time>2026-04-07T16:48:27Z</time></trkpt><trkpt lat="43.80582445586529" lon="6.234260172194469"><ele>522.3333333333334</ele><time>2026-04-07T16:48:28Z</time></trkpt><trkpt lat="43.80564866887286" lon="6.23419648230817"><ele>522.6666666666667</ele><time>2026-04-07T16:48:29Z</time></trkpt><trkpt lat="43.805478206821604" lon="6.2341383172018725"><ele>523.0</ele><time>2026-04-07T16:48:30Z</time></trkpt><trkpt lat="43.805311522312806" lon="6.234082536899629"><ele>524.3333333333334</ele><time>2026-04-07T16:48:31Z</time></trkpt><trkpt lat="43.80514696262956" lon="6.234027530915103"><ele>525.6666666666666</ele><time>2026-04-07T16:48:32Z</time></trkpt><trkpt lat="43.804981004891786" lon="6.233975394377651"><ele>527.0</ele><time>2026-04-07T16:48:33Z</time></trkpt><trkpt lat="43.80481557175263" lon="6.233919866677797"><ele>524.3333333333333</ele><time>2026-04-07T16:48:34Z</time></trkpt><trkpt lat="43.804652856450815" lon="6.233859657584064"><ele>521.6666666666666</ele><time>2026-04-07T16:48:35Z</time></trkpt><trkpt lat="43.80449285837366" lon="6.233801296077708"><ele>519.0</ele><time>2026-04-07T16:48:36Z</time></trkpt><trkpt lat="43.80433471603722" lon="6.233749348590033"><ele>520.6666666666666</ele><time>2026-04-07T16:48:37Z</time></trkpt><trkpt lat="43.8041789898724" lon="6.2336930313286265"><ele>522.3333333333333</ele><time>2026-04-07T16:48:38Z</time></trkpt><trkpt lat="43.80402220413154" lon="6.233663591362113"><ele>524.0</ele><time>2026-04-07T16:48:39Z</time></trkpt><trkpt lat="43.80387039844482" lon="6.233681600194192"><ele>524.0</ele><time>2026-04-07T16:48:40Z</time></trkpt><trkpt lat="43.80372446791365" lon="6.233743237285835"><ele>524.0</ele><time>2026-04-07T16:48:41Z</time></trkpt><trkpt lat="43.80358409716361" lon="6.233840136299407"><ele>524.0</ele><time>2026-04-07T16:48:42Z</time></trkpt><trkpt lat="43.80345865880164" lon="6.233976157572027"><ele>526.6666666666666</ele><time>2026-04-07T16:48:43Z</time></trkpt><trkpt lat="43.803358925614575" lon="6.234147662129734"><ele>529.3333333333334</ele><time>2026-04-07T16:48:44Z</time></trkpt><trkpt lat="43.80328491218784" lon="6.234347822961784"><ele>532.0</ele><time>2026-04-07T16:48:45Z</time></trkpt><trkpt lat="43.80323782351956" lon="6.2345639378385265"><ele>532.0</ele><time>2026-04-07T16:48:46Z</time></trkpt><trkpt lat="43.80323119800216" lon="6.234786258253007"><ele>532.0</ele><time>2026-04-07T16:48:47Z</time></trkpt><trkpt lat="43.80325776063844" lon="6.235005021520739"><ele>532.0</ele><time>2026-04-07T16:48:48Z</time></trkpt><trkpt lat="43.8033121524448" lon="6.235218279244475"><ele>530.0</ele><time>2026-04-07T16:48:49Z</time></trkpt><trkpt lat="43.803396758856756" lon="6.235421978517422"><ele>528.0</ele><time>2026-04-07T16:48:50Z</time></trkpt><trkpt lat="43.80349650030245" lon="6.2356114904676945"><ele>526.0</ele><time>2026-04-07T16:48:51Z</time></trkpt><trkpt lat="43.80359930392692" lon="6.235792385923154"><ele>530.0</ele><time>2026-04-07T16:48:52Z</time></trkpt><trkpt lat="43.80369269808334" lon="6.235979661892148"><ele>534.0</ele><time>2026-04-07T16:48:53Z</time></trkpt><trkpt lat="43.80378167693376" lon="6.236170335202891"><ele>538.0</ele><time>2026-04-07T16:48:54Z</time></trkpt><trkpt lat="43.80387346962791" lon="6.236361015517424"><ele>534.3333333333334</ele><time>2026-04-07T16:48:55Z</time></trkpt><trkpt lat="43.80396755814229" lon="6.236552355869158"><ele>530.6666666666666</ele><time>2026-04-07T16:48:56Z</time></trkpt><trkpt lat="43.80405841047619" lon="6.236745403792744"><ele>527.0</ele><time>2026-04-07T16:48:57Z</time></trkpt><trkpt lat="43.80413791171964" lon="6.236947117004127"><ele>527.0</ele><time>2026-04-07T16:48:58Z</time></trkpt><trkpt lat="43.80419943820813" lon="6.237161294932414"><ele>527.0</ele><time>2026-04-07T16:48:59Z</time></trkpt><trkpt lat="43.8042384184013" lon="6.237388116250499"><ele>527.0</ele><time>2026-04-07T16:49:00Z</time></trkpt><trkpt lat="43.804262182348424" lon="6.237622739918862"><ele>523.6666666666666</ele><time>2026-04-07T16:49:01Z</time></trkpt><trkpt lat="43.804261918395945" lon="6.237876174237754"><ele>520.3333333333334</ele><time>2026-04-07T16:49:02Z</time></trkpt><trkpt lat="43.804238204137214" lon="6.238125540790759"><ele>517.0</ele><time>2026-04-07T16:49:03Z</time></trkpt><trkpt lat="43.8042014623169" lon="6.238368491859771"><ele>515.0</ele><time>2026-04-07T16:49:04Z</time></trkpt><trkpt lat="43.804158593244566" lon="6.238607769458698"><ele>513.0</ele><time>2026-04-07T16:49:05Z</time></trkpt><trkpt lat="43.8041242236292" lon="6.238847646027145"><ele>511.0</ele><time>2026-04-07T16:49:06Z</time></trkpt><trkpt lat="43.80410231772363" lon="6.239083112814879"><ele>510.6666666666667</ele><time>2026-04-07T16:49:07Z</time></trkpt><trkpt lat="43.804086865216895" lon="6.239319150342705"><ele>510.33333333333337</ele><time>2026-04-07T16:49:08Z</time></trkpt><trkpt lat="43.80408043310124" lon="6.23955499732395"><ele>510.0</ele><time>2026-04-07T16:49:09Z</time></trkpt><trkpt lat="43.80408834371083" lon="6.239791307389148"><ele>511.0</ele><time>2026-04-07T16:49:10Z</time></trkpt><trkpt lat="43.80411007382321" lon="6.2400287881302425"><ele>512.0</ele><time>2026-04-07T16:49:11Z</time></trkpt><trkpt lat="43.8041444580648" lon="6.240268507691251"><ele>513.0</ele><time>2026-04-07T16:49:12Z</time></trkpt><trkpt lat="43.804181793124606" lon="6.240514400277269"><ele>510.66666666666663</ele><time>2026-04-07T16:49:13Z</time></trkpt><trkpt lat="43.80421532011301" lon="6.240762676631276"><ele>508.3333333333333</ele><time>2026-04-07T16:49:14Z</time></trkpt><trkpt lat="43.8042370161537" lon="6.241011245977183"><ele>506.0</ele><time>2026-04-07T16:49:15Z</time></trkpt><trkpt lat="43.80424802798741" lon="6.241249108274492"><ele>503.66666666666663</ele><time>2026-04-07T16:49:16Z</time></trkpt><trkpt lat="43.80425283286785" lon="6.241483917469122"><ele>501.33333333333337</ele><time>2026-04-07T16:49:17Z</time></trkpt><trkpt lat="43.80425212448391" lon="6.241723834514071"><ele>499.0</ele><time>2026-04-07T16:49:18Z</time></trkpt><trkpt lat="43.80423905609514" lon="6.241968609096097"><ele>499.0</ele><time>2026-04-07T16:49:19Z</time></trkpt><trkpt lat="43.80421944522006" lon="6.242214024979358"><ele>499.0</ele><time>2026-04-07T16:49:20Z</time></trkpt><trkpt lat="43.80420410394829" lon="6.242459058456394"><ele>499.0</ele><time>2026-04-07T16:49:21Z</time></trkpt><trkpt lat="43.80419342673356" lon="6.242700978028688"><ele>498.33333333333337</ele><time>2026-04-07T16:49:22Z</time></trkpt><trkpt lat="43.804181325592786" lon="6.242939854289466"><ele>497.66666666666663</ele><time>2026-04-07T16:49:23Z</time></trkpt><trkpt lat="43.80416825134694" lon="6.2431790969757595"><ele>497.0</ele><time>2026-04-07T16:49:24Z</time></trkpt><trkpt lat="43.80416709437582" lon="6.243418271712077"><ele>496.3333333333333</ele><time>2026-04-07T16:49:25Z</time></trkpt><trkpt lat="43.80417960959381" lon="6.243657408865888"><ele>495.66666666666663</ele><time>2026-04-07T16:49:26Z</time></trkpt><trkpt lat="43.80419988760883" lon="6.2438916690890895"><ele>495.0</ele><time>2026-04-07T16:49:27Z</time></trkpt><trkpt lat="43.80422317361218" lon="6.244124377333791"><ele>493.66666666666663</ele><time>2026-04-07T16:49:28Z</time></trkpt><trkpt lat="43.80424035252988" lon="6.244362127134582"><ele>492.3333333333333</ele><time>2026-04-07T16:49:29Z</time></trkpt><trkpt lat="43.80424444099648" lon="6.244604997747069"><ele>491.0</ele><time>2026-04-07T16:49:30Z</time></trkpt><trkpt lat="43.80423106696346" lon="6.244851194657492"><ele>489.3333333333333</ele><time>2026-04-07T16:49:31Z</time></trkpt><trkpt lat="43.804206043778734" lon="6.245098382125948"><ele>487.66666666666663</ele><time>2026-04-07T16:49:32Z</time></trkpt><trkpt lat="43.80417534983061" lon="6.24534635152146"><ele>486.0</ele><time>2026-04-07T16:49:33Z</time></trkpt><trkpt lat="43.80414900978656" lon="6.245596087911718"><ele>484.0</ele><time>2026-04-07T16:49:34Z</time></trkpt><trkpt lat="43.80412420997377" lon="6.245847036067499"><ele>482.0</ele><time>2026-04-07T16:49:35Z</time></trkpt><trkpt lat="43.80409562334784" lon="6.246093768253588"><ele>480.0</ele><time>2026-04-07T16:49:36Z</time></trkpt><trkpt lat="43.804066660129884" lon="6.246333774166248"><ele>482.0</ele><time>2026-04-07T16:49:37Z</time></trkpt><trkpt lat="43.8040414348305" lon="6.24656684155828"><ele>484.0</ele><time>2026-04-07T16:49:38Z</time></trkpt><trkpt lat="43.804016750356745" lon="6.246793528633345"><ele>486.0</ele><time>2026-04-07T16:49:39Z</time></trkpt><trkpt lat="43.80398805695189" lon="6.247021433585309"><ele>486.0</ele><time>2026-04-07T16:49:40Z</time></trkpt><trkpt lat="43.80394765313511" lon="6.247258314876855"><ele>486.0</ele><time>2026-04-07T16:49:41Z</time></trkpt><trkpt lat="43.80388313784351" lon="6.247492257585357"><ele>486.0</ele><time>2026-04-07T16:49:42Z</time></trkpt><trkpt lat="43.803798795485235" lon="6.247714460089981"><ele>487.0</ele><time>2026-04-07T16:49:43Z</time></trkpt><trkpt lat="43.80368980764117" lon="6.247923127161482"><ele>488.0</ele><time>2026-04-07T16:49:44Z</time></trkpt><trkpt lat="43.80356317764978" lon="6.248118319717747"><ele>489.0</ele><time>2026-04-07T16:49:45Z</time></trkpt><trkpt lat="43.80343197574066" lon="6.248309274478911"><ele>489.0</ele><time>2026-04-07T16:49:46Z</time></trkpt><trkpt lat="43.803309433371" lon="6.248495462943157"><ele>489.0</ele><time>2026-04-07T16:49:47Z</time></trkpt><trkpt lat="43.80319732794502" lon="6.248670861079731"><ele>489.0</ele><time>2026-04-07T16:49:48Z</time></trkpt><trkpt lat="43.803106379896455" lon="6.248844075560131"><ele>493.0</ele><time>2026-04-07T16:49:49Z</time></trkpt><trkpt lat="43.803045333471474" lon="6.24903220834503"><ele>497.0</ele><time>2026-04-07T16:49:50Z</time></trkpt><trkpt lat="43.80301854591196" lon="6.249243440107945"><ele>501.0</ele><time>2026-04-07T16:49:51Z</time></trkpt><trkpt lat="43.80299649028226" lon="6.249445404455814"><ele>501.0</ele><time>2026-04-07T16:49:52Z</time></trkpt><trkpt lat="43.80294795411816" lon="6.249625069161059"><ele>501.0</ele><time>2026-04-07T16:49:53Z</time></trkpt><trkpt lat="43.80287409434261" lon="6.249779487938606"><ele>501.0</ele><time>2026-04-07T16:49:54Z</time></trkpt><trkpt lat="43.80276756869979" lon="6.249878661833308"><ele>501.0</ele><time>2026-04-07T16:49:55Z</time></trkpt><trkpt lat="43.80264212332532" lon="6.249937489576327"><ele>498.0</ele><time>2026-04-07T16:49:56Z</time></trkpt><trkpt lat="43.8024978225152" lon="6.249941170188725"><ele>495.0</ele><time>2026-04-07T16:49:57Z</time></trkpt><trkpt lat="43.802355056471356" lon="6.249885547460796"><ele>492.0</ele><time>2026-04-07T16:49:58Z</time></trkpt><trkpt lat="43.802216315440134" lon="6.2497895106922705"><ele>489.0</ele><time>2026-04-07T16:49:59Z</time></trkpt><trkpt lat="43.80207500073627" lon="6.249675064311001"><ele>485.66666666666663</ele><time>2026-04-07T16:50:00Z</time></trkpt><trkpt lat="43.801920616030955" lon="6.2495680691749875"><ele>482.3333333333333</ele><time>2026-04-07T16:50:01Z</time></trkpt><trkpt lat="43.801763386956324" lon="6.249453235145022"><ele>479.0</ele><time>2026-04-07T16:50:02Z</time></trkpt><trkpt lat="43.801616295781805" lon="6.249341167972589"><ele>478.3333333333333</ele><time>2026-04-07T16:50:03Z</time></trkpt><trkpt lat="43.8014757789373" lon="6.24923642353018"><ele>477.66666666666663</ele><time>2026-04-07T16:50:04Z</time></trkpt><trkpt lat="43.80133895787259" lon="6.24913362710169"><ele>477.0</ele><time>2026-04-07T16:50:05Z</time></trkpt><trkpt lat="43.8012092551328" lon="6.249018471010071"><ele>474.66666666666663</ele><time>2026-04-07T16:50:06Z</time></trkpt><trkpt lat="43.801097430310996" lon="6.248882398612509"><ele>472.3333333333333</ele><time>2026-04-07T16:50:07Z</time></trkpt><trkpt lat="43.801001256776175" lon="6.248711185547979"><ele>470.0</ele><time>2026-04-07T16:50:08Z</time></trkpt><trkpt lat="43.80091745409221" lon="6.248515903849257"><ele>475.3333333333333</ele><time>2026-04-07T16:50:09Z</time></trkpt><trkpt lat="43.800836703373044" lon="6.248308531001471"><ele>480.66666666666663</ele><time>2026-04-07T16:50:10Z</time></trkpt><trkpt lat="43.800750447101706" lon="6.248105064781381"><ele>486.0</ele><time>2026-04-07T16:50:11Z</time></trkpt><trkpt lat="43.80065962303054" lon="6.247913935957767"><ele>486.0</ele><time>2026-04-07T16:50:12Z</time></trkpt><trkpt lat="43.80056978853559" lon="6.2477270512519"><ele>486.0</ele><time>2026-04-07T16:50:13Z</time></trkpt><trkpt lat="43.80048851869494" lon="6.247529608483708"><ele>486.0</ele><time>2026-04-07T16:50:14Z</time></trkpt><trkpt lat="43.80040811378098" lon="6.247327494208631"><ele>483.66666666666663</ele><time>2026-04-07T16:50:15Z</time></trkpt><trkpt lat="43.800322747869764" lon="6.247124762493764"><ele>481.3333333333333</ele><time>2026-04-07T16:50:16Z</time></trkpt><trkpt lat="43.80023052317105" lon="6.246920452194125"><ele>479.0</ele><time>2026-04-07T16:50:17Z</time></trkpt><trkpt lat="43.80013658861235" lon="6.24672125127163"><ele>481.66666666666663</ele><time>2026-04-07T16:50:18Z</time></trkpt><trkpt lat="43.80004048670699" lon="6.246529831066427"><ele>484.33333333333337</ele><time>2026-04-07T16:50:19Z</time></trkpt><trkpt lat="43.79993701448259" lon="6.246341845095356"><ele>487.0</ele><time>2026-04-07T16:50:20Z</time></trkpt><trkpt lat="43.799820559254236" lon="6.2461543890143725"><ele>487.0</ele><time>2026-04-07T16:50:21Z</time></trkpt><trkpt lat="43.79969573764137" lon="6.245969401024754"><ele>487.0</ele><time>2026-04-07T16:50:22Z</time></trkpt><trkpt lat="43.79956464584234" lon="6.245787384984606"><ele>487.0</ele><time>2026-04-07T16:50:23Z</time></trkpt><trkpt lat="43.79942868523457" lon="6.245609515416124"><ele>488.6666666666667</ele><time>2026-04-07T16:50:24Z</time></trkpt><trkpt lat="43.79928811544626" lon="6.245435446697018"><ele>490.33333333333337</ele><time>2026-04-07T16:50:25Z</time></trkpt><trkpt lat="43.79914127029097" lon="6.245269950009574"><ele>492.0</ele><time>2026-04-07T16:50:26Z</time></trkpt><trkpt lat="43.79898451745459" lon="6.245118831364746"><ele>492.0</ele><time>2026-04-07T16:50:27Z</time></trkpt><trkpt lat="43.798821235252646" lon="6.244976592222085"><ele>492.0</ele><time>2026-04-07T16:50:28Z</time></trkpt><trkpt lat="43.798652805761044" lon="6.244840578690908"><ele>492.0</ele><time>2026-04-07T16:50:29Z</time></trkpt><trkpt lat="43.79848326548203" lon="6.244707549034859"><ele>492.33333333333337</ele><time>2026-04-07T16:50:30Z</time></trkpt><trkpt lat="43.7983152631601" lon="6.244575128783062"><ele>492.6666666666667</ele><time>2026-04-07T16:50:31Z</time></trkpt><trkpt lat="43.79815336712146" lon="6.244444803462827"><ele>493.0</ele><time>2026-04-07T16:50:32Z</time></trkpt><trkpt lat="43.797996131178884" lon="6.244317716421277"><ele>493.0</ele><time>2026-04-07T16:50:33Z</time></trkpt><trkpt lat="43.7978452808546" lon="6.244199412240636"><ele>493.0</ele><time>2026-04-07T16:50:34Z</time></trkpt><trkpt lat="43.797699072584045" lon="6.2440824163635495"><ele>493.0</ele><time>2026-04-07T16:50:35Z</time></trkpt><trkpt lat="43.797565216033504" lon="6.243956866180641"><ele>494.0</ele><time>2026-04-07T16:50:36Z</time></trkpt><trkpt lat="43.797439723933856" lon="6.243819864961798"><ele>495.0</ele><time>2026-04-07T16:50:37Z</time></trkpt><trkpt lat="43.797318733762445" lon="6.243666806986409"><ele>496.0</ele><time>2026-04-07T16:50:38Z</time></trkpt><trkpt lat="43.79720942128042" lon="6.24349820339204"><ele>496.0</ele><time>2026-04-07T16:50:39Z</time></trkpt><trkpt lat="43.797114369761" lon="6.243306913945597"><ele>496.0</ele><time>2026-04-07T16:50:40Z</time></trkpt><trkpt lat="43.79702913776893" lon="6.243099866063563"><ele>496.0</ele><time>2026-04-07T16:50:41Z</time></trkpt><trkpt lat="43.79695439401968" lon="6.24288278449787"><ele>494.33333333333337</ele><time>2026-04-07T16:50:42Z</time></trkpt><trkpt lat="43.79689891268133" lon="6.2426565487401335"><ele>492.66666666666663</ele><time>2026-04-07T16:50:43Z</time></trkpt><trkpt lat="43.7968621401932" lon="6.242429987852808"><ele>491.0</ele><time>2026-04-07T16:50:44Z</time></trkpt><trkpt lat="43.796836126686316" lon="6.242200633634047"><ele>490.0</ele><time>2026-04-07T16:50:45Z</time></trkpt><trkpt lat="43.796826163806436" lon="6.241964402654403"><ele>489.0</ele><time>2026-04-07T16:50:46Z</time></trkpt><trkpt lat="43.796832204759994" lon="6.241728504845342"><ele>488.0</ele><time>2026-04-07T16:50:47Z</time></trkpt><trkpt lat="43.79685076091542" lon="6.241491746393706"><ele>488.0</ele><time>2026-04-07T16:50:48Z</time></trkpt><trkpt lat="43.79687789120648" lon="6.241252529633779"><ele>488.0</ele><time>2026-04-07T16:50:49Z</time></trkpt><trkpt lat="43.796904600725654" lon="6.241008479156234"><ele>488.0</ele><time>2026-04-07T16:50:50Z</time></trkpt><trkpt lat="43.7969299214906" lon="6.240755896754803"><ele>487.3333333333333</ele><time>2026-04-07T16:50:51Z</time></trkpt><trkpt lat="43.79695736184121" lon="6.240498507159892"><ele>486.66666666666663</ele><time>2026-04-07T16:50:52Z</time></trkpt><trkpt lat="43.796986085128474" lon="6.240246850799249"><ele>486.0</ele><time>2026-04-07T16:50:53Z</time></trkpt><trkpt lat="43.79701327009513" lon="6.239998790031617"><ele>486.0</ele><time>2026-04-07T16:50:54Z</time></trkpt><trkpt lat="43.79704146756926" lon="6.239754790861982"><ele>486.0</ele><time>2026-04-07T16:50:55Z</time></trkpt><trkpt lat="43.79707148365628" lon="6.23951401356253"><ele>486.0</ele><time>2026-04-07T16:50:56Z</time></trkpt><trkpt lat="43.79709988855516" lon="6.239277082109176"><ele>486.0</ele><time>2026-04-07T16:50:57Z</time></trkpt><trkpt lat="43.79712688785408" lon="6.239041808649723"><ele>486.0</ele><time>2026-04-07T16:50:58Z</time></trkpt><trkpt lat="43.797153908398414" lon="6.2388138423623865"><ele>486.0</ele><time>2026-04-07T16:50:59Z</time></trkpt><trkpt lat="43.797181428722034" lon="6.238592568019518"><ele>485.33333333333337</ele><time>2026-04-07T16:51:00Z</time></trkpt><trkpt lat="43.797202839002274" lon="6.238374650275273"><ele>484.6666666666667</ele><time>2026-04-07T16:51:01Z</time></trkpt><trkpt lat="43.79720618297364" lon="6.238162323483181"><ele>484.0</ele><time>2026-04-07T16:51:02Z</time></trkpt><trkpt lat="43.79717403844997" lon="6.237949954650115"><ele>481.6666666666667</ele><time>2026-04-07T16:51:03Z</time></trkpt><trkpt lat="43.79711314305865" lon="6.237746884617431"><ele>479.33333333333337</ele><time>2026-04-07T16:51:04Z</time></trkpt><trkpt lat="43.79702203933582" lon="6.237560864395124"><ele>477.0</ele><time>2026-04-07T16:51:05Z</time></trkpt><trkpt lat="43.79690439180104" lon="6.237411417530982"><ele>479.33333333333337</ele><time>2026-04-07T16:51:06Z</time></trkpt><trkpt lat="43.796760843176614" lon="6.237307440571043"><ele>481.6666666666667</ele><time>2026-04-07T16:51:07Z</time></trkpt><trkpt lat="43.796593223870445" lon="6.237236070427957"><ele>484.0</ele><time>2026-04-07T16:51:08Z</time></trkpt><trkpt lat="43.79641530204736" lon="6.237178229132898"><ele>484.0</ele><time>2026-04-07T16:51:09Z</time></trkpt><trkpt lat="43.79623914533843" lon="6.237124774032406"><ele>484.0</ele><time>2026-04-07T16:51:10Z</time></trkpt><trkpt lat="43.796077040464006" lon="6.237066267243493"><ele>484.0</ele><time>2026-04-07T16:51:11Z</time></trkpt><trkpt lat="43.795922043841905" lon="6.23700780841254"><ele>485.33333333333337</ele><time>2026-04-07T16:51:12Z</time></trkpt><trkpt lat="43.795773317253534" lon="6.2369374475054995"><ele>486.66666666666663</ele><time>2026-04-07T16:51:13Z</time></trkpt><trkpt lat="43.79564305608055" lon="6.236815906365111"><ele>488.0</ele><time>2026-04-07T16:51:14Z</time></trkpt><trkpt lat="43.7955418058676" lon="6.236654664630054"><ele>487.3333333333333</ele><time>2026-04-07T16:51:15Z</time></trkpt><trkpt lat="43.79547261613149" lon="6.2364594667257816"><ele>486.66666666666663</ele><time>2026-04-07T16:51:16Z</time></trkpt><trkpt lat="43.79542729871906" lon="6.236242941068242"><ele>486.0</ele><time>2026-04-07T16:51:17Z</time></trkpt><trkpt lat="43.79541335055693" lon="6.236016671200408"><ele>486.0</ele><time>2026-04-07T16:51:18Z</time></trkpt><trkpt lat="43.79545363528029" lon="6.235794529453611"><ele>486.0</ele><time>2026-04-07T16:51:19Z</time></trkpt><trkpt lat="43.79550285982148" lon="6.235560008286398"><ele>486.0</ele><time>2026-04-07T16:51:20Z</time></trkpt><trkpt lat="43.795575879057694" lon="6.235326381949087"><ele>487.0</ele><time>2026-04-07T16:51:21Z</time></trkpt><trkpt lat="43.79564627405896" lon="6.2350838736258165"><ele>488.0</ele><time>2026-04-07T16:51:22Z</time></trkpt><trkpt lat="43.79571106740862" lon="6.234841413651468"><ele>489.0</ele><time>2026-04-07T16:51:23Z</time></trkpt><trkpt lat="43.795770307423915" lon="6.234610541662965"><ele>491.0</ele><time>2026-04-07T16:51:24Z</time></trkpt><trkpt lat="43.79583003260647" lon="6.234400412685572"><ele>493.0</ele><time>2026-04-07T16:51:25Z</time></trkpt><trkpt lat="43.79588658165081" lon="6.234196191246728"><ele>495.0</ele><time>2026-04-07T16:51:26Z</time></trkpt><trkpt lat="43.79591926151849" lon="6.233984286338157"><ele>493.66666666666663</ele><time>2026-04-07T16:51:27Z</time></trkpt><trkpt lat="43.7959261895889" lon="6.233762719441409"><ele>492.3333333333333</ele><time>2026-04-07T16:51:28Z</time></trkpt><trkpt lat="43.795907664245135" lon="6.233533658543489"><ele>491.0</ele><time>2026-04-07T16:51:29Z</time></trkpt><trkpt lat="43.795868861219674" lon="6.233315643343262"><ele>488.66666666666663</ele><time>2026-04-07T16:51:30Z</time></trkpt><trkpt lat="43.79580707775192" lon="6.233107248895456"><ele>486.33333333333337</ele><time>2026-04-07T16:51:31Z</time></trkpt><trkpt lat="43.795720502930834" lon="6.232905498139724"><ele>484.0</ele><time>2026-04-07T16:51:32Z</time></trkpt><trkpt lat="43.79561571773411" lon="6.232717749671714"><ele>484.0</ele><time>2026-04-07T16:51:33Z</time></trkpt><trkpt lat="43.79548939865522" lon="6.232552133217026"><ele>484.0</ele><time>2026-04-07T16:51:34Z</time></trkpt><trkpt lat="43.79534333970192" lon="6.232420334804248"><ele>484.0</ele><time>2026-04-07T16:51:35Z</time></trkpt><trkpt lat="43.79518467287729" lon="6.232318721566674"><ele>484.0</ele><time>2026-04-07T16:51:36Z</time></trkpt><trkpt lat="43.79501598288266" lon="6.232249070594186"><ele>484.0</ele><time>2026-04-07T16:51:37Z</time></trkpt><trkpt lat="43.794838497549435" lon="6.232213223319041"><ele>484.0</ele><time>2026-04-07T16:51:38Z</time></trkpt><trkpt lat="43.79465743761976" lon="6.232190021032549"><ele>484.0</ele><time>2026-04-07T16:51:39Z</time></trkpt><trkpt lat="43.79447314540143" lon="6.232167189386854"><ele>484.0</ele><time>2026-04-07T16:51:40Z</time></trkpt><trkpt lat="43.7942969508527" lon="6.232135021995501"><ele>484.0</ele><time>2026-04-07T16:51:41Z</time></trkpt><trkpt lat="43.794134135763706" lon="6.232106998792754"><ele>485.5</ele><time>2026-04-07T16:51:42Z</time></trkpt><trkpt lat="43.79397881303905" lon="6.232080010081013"><ele>487.0</ele><time>2026-04-07T16:51:43Z</time></trkpt><trkpt lat="43.79383377371459" lon="6.232043285856221"><ele>488.5</ele><time>2026-04-07T16:51:44Z</time></trkpt><trkpt lat="43.79371495455218" lon="6.231984581206892"><ele>490.0</ele><time>2026-04-07T16:51:45Z</time></trkpt><trkpt lat="43.79361500889518" lon="6.231913630085952"><ele>490.0</ele><time>2026-04-07T16:51:46Z</time></trkpt><trkpt lat="43.7935350526413" lon="6.231843505890184"><ele>490.0</ele><time>2026-04-07T16:51:47Z</time></trkpt><trkpt lat="43.79347200285775" lon="6.231768021655296"><ele>490.0</ele><time>2026-04-07T16:51:48Z</time></trkpt><trkpt lat="43.79343118371137" lon="6.231679206843446"><ele>490.0</ele><time>2026-04-07T16:51:49Z</time></trkpt><trkpt lat="43.79323556771058" lon="6.2317629756604385"><ele>490.4</ele><time>2026-04-07T16:51:51Z</time></trkpt><trkpt lat="43.79315041268341" lon="6.231845619800736"><ele>490.8</ele><time>2026-04-07T16:51:52Z</time></trkpt><trkpt lat="43.79306774690487" lon="6.231935122889135"><ele>491.20000000000005</ele><time>2026-04-07T16:51:53Z</time></trkpt><trkpt lat="43.792975642534266" lon="6.232003456319047"><ele>491.6</ele><time>2026-04-07T16:51:54Z</time></trkpt><trkpt lat="43.792884814940535" lon="6.232042012260937"><ele>492.0</ele><time>2026-04-07T16:51:55Z</time></trkpt><trkpt lat="43.79280485698562" lon="6.2320610550078985"><ele>492.0</ele><time>2026-04-07T16:51:56Z</time></trkpt><trkpt lat="43.792734408617164" lon="6.2321005860453615"><ele>492.0</ele><time>2026-04-07T16:51:57Z</time></trkpt><trkpt lat="43.792672321216116" lon="6.232142550414169"><ele>492.0</ele><time>2026-04-07T16:51:58Z</time></trkpt><trkpt lat="43.79258346842029" lon="6.232187575139048"><ele>492.0</ele><time>2026-04-07T16:52:00Z</time></trkpt><trkpt lat="43.7925220486943" lon="6.232216845394619"><ele>492.0</ele><time>2026-04-07T16:52:02Z</time></trkpt><trkpt lat="43.79243106395762" lon="6.232239960693011"><ele>492.0</ele><time>2026-04-07T16:52:28.999Z</time></trkpt><trkpt lat="43.792315132380466" lon="6.232307107011872"><ele>493.5</ele><time>2026-04-07T16:52:31Z</time></trkpt><trkpt lat="43.792275221044825" lon="6.23237788252016"><ele>495.0</ele><time>2026-04-07T16:52:32Z</time></trkpt><trkpt lat="43.79224802551213" lon="6.232476551989264"><ele>496.5</ele><time>2026-04-07T16:52:33Z</time></trkpt><trkpt lat="43.792255896557194" lon="6.232593202731423"><ele>498.0</ele><time>2026-04-07T16:52:34Z</time></trkpt><trkpt lat="43.79231187217" lon="6.232697104176386"><ele>499.5</ele><time>2026-04-07T16:52:35Z</time></trkpt><trkpt lat="43.7924007405514" lon="6.232766269391966"><ele>501.0</ele><time>2026-04-07T16:52:36Z</time></trkpt><trkpt lat="43.79254900160315" lon="6.232754550943995"><ele>501.0</ele><time>2026-04-07T16:52:37Z</time></trkpt><trkpt lat="43.7926641494263" lon="6.232745400778692"><ele>501.0</ele><time>2026-04-07T16:52:38Z</time></trkpt><trkpt lat="43.7927674932669" lon="6.23273573878772"><ele>501.0</ele><time>2026-04-07T16:52:39Z</time></trkpt><trkpt lat="43.79287864124832" lon="6.232744986540346"><ele>501.0</ele><time>2026-04-07T16:52:40Z</time></trkpt><trkpt lat="43.792989017857415" lon="6.2327955244995445"><ele>501.0</ele><time>2026-04-07T16:52:41Z</time></trkpt><trkpt lat="43.793118571032586" lon="6.232842345389697"><ele>500.66666666666663</ele><time>2026-04-07T16:52:42Z</time></trkpt><trkpt lat="43.793260285966404" lon="6.232893320934862"><ele>500.3333333333333</ele><time>2026-04-07T16:52:43Z</time></trkpt><trkpt lat="43.793413794332885" lon="6.2329621960865795"><ele>500.0</ele><time>2026-04-07T16:52:44Z</time></trkpt><trkpt lat="43.79356522059891" lon="6.233038772392624"><ele>499.3333333333333</ele><time>2026-04-07T16:52:45Z</time></trkpt><trkpt lat="43.79370640279472" lon="6.233112738410192"><ele>498.66666666666663</ele><time>2026-04-07T16:52:46Z</time></trkpt><trkpt lat="43.793860666298485" lon="6.23318292074221"><ele>498.0</ele><time>2026-04-07T16:52:47Z</time></trkpt><trkpt lat="43.794018078650865" lon="6.233247615650953"><ele>499.5</ele><time>2026-04-07T16:52:48Z</time></trkpt><trkpt lat="43.794168713293175" lon="6.2333088220484685"><ele>501.0</ele><time>2026-04-07T16:52:49Z</time></trkpt><trkpt lat="43.79430587022104" lon="6.233357313437347"><ele>502.5</ele><time>2026-04-07T16:52:50Z</time></trkpt><trkpt lat="43.79443373494922" lon="6.233385939149074"><ele>504.0</ele><time>2026-04-07T16:52:51Z</time></trkpt><trkpt lat="43.794547202738094" lon="6.233401707090193"><ele>504.0</ele><time>2026-04-07T16:52:52Z</time></trkpt><trkpt lat="43.794641062327344" lon="6.233441001860283"><ele>504.0</ele><time>2026-04-07T16:52:53Z</time></trkpt><trkpt lat="43.79470741306625" lon="6.233526894585615"><ele>504.0</ele><time>2026-04-07T16:52:54Z</time></trkpt><trkpt lat="43.794721678576884" lon="6.233648687733862"><ele>504.0</ele><time>2026-04-07T16:52:55Z</time></trkpt><trkpt lat="43.79469175727364" lon="6.2337786313456425"><ele>504.0</ele><time>2026-04-07T16:52:56Z</time></trkpt><trkpt lat="43.79462435951333" lon="6.233856456555942"><ele>504.0</ele><time>2026-04-07T16:52:57Z</time></trkpt><trkpt lat="43.79453125627478" lon="6.233871139005014"><ele>504.0</ele><time>2026-04-07T16:52:58Z</time></trkpt><trkpt lat="43.794427455684904" lon="6.233838449004115"><ele>504.0</ele><time>2026-04-07T16:52:59Z</time></trkpt><trkpt lat="43.79431188977965" lon="6.233790188409321"><ele>504.0</ele><time>2026-04-07T16:53:00Z</time></trkpt><trkpt lat="43.794176851419635" lon="6.233765019981367"><ele>506.33333333333337</ele><time>2026-04-07T16:53:01Z</time></trkpt><trkpt lat="43.794023972402236" lon="6.233751157775201"><ele>508.6666666666667</ele><time>2026-04-07T16:53:02Z</time></trkpt><trkpt lat="43.793853512173136" lon="6.233758724837258"><ele>511.0</ele><time>2026-04-07T16:53:03Z</time></trkpt><trkpt lat="43.793689215523166" lon="6.233786151981097"><ele>511.0</ele><time>2026-04-07T16:53:04Z</time></trkpt><trkpt lat="43.79353090506524" lon="6.233830821719455"><ele>511.0</ele><time>2026-04-07T16:53:05Z</time></trkpt><trkpt lat="43.79335996319968" lon="6.2338732577077245"><ele>511.0</ele><time>2026-04-07T16:53:06Z</time></trkpt><trkpt lat="43.793184494797934" lon="6.233916353543462"><ele>515.3333333333334</ele><time>2026-04-07T16:53:07Z</time></trkpt><trkpt lat="43.79300607825152" lon="6.233974086910363"><ele>519.6666666666666</ele><time>2026-04-07T16:53:08Z</time></trkpt><trkpt lat="43.79283168519224" lon="6.234042559590915"><ele>524.0</ele><time>2026-04-07T16:53:09Z</time></trkpt><trkpt lat="43.79266089355207" lon="6.234116164319474"><ele>524.6666666666666</ele><time>2026-04-07T16:53:10Z</time></trkpt><trkpt lat="43.79249766854567" lon="6.234180113546505"><ele>525.3333333333334</ele><time>2026-04-07T16:53:11Z</time></trkpt><trkpt lat="43.79234346725554" lon="6.2342238208823435"><ele>526.0</ele><time>2026-04-07T16:53:12Z</time></trkpt><trkpt lat="43.79220378913785" lon="6.234246546861007"><ele>526.0</ele><time>2026-04-07T16:53:13Z</time></trkpt><trkpt lat="43.79208539064841" lon="6.234254090038612"><ele>526.0</ele><time>2026-04-07T16:53:14Z</time></trkpt><trkpt lat="43.791989683309865" lon="6.234292768523608"><ele>526.0</ele><time>2026-04-07T16:53:15Z</time></trkpt><trkpt lat="43.79192113739494" lon="6.2343848291526855"><ele>526.0</ele><time>2026-04-07T16:53:16Z</time></trkpt><trkpt lat="43.791888618174795" lon="6.234535408875048"><ele>526.0</ele><time>2026-04-07T16:53:17Z</time></trkpt><trkpt lat="43.791874261224756" lon="6.234709565266336"><ele>527.5</ele><time>2026-04-07T16:53:18Z</time></trkpt><trkpt lat="43.791830474481536" lon="6.234875677909312"><ele>529.0</ele><time>2026-04-07T16:53:19Z</time></trkpt><trkpt lat="43.79172848391255" lon="6.235003980998784"><ele>530.5</ele><time>2026-04-07T16:53:20Z</time></trkpt><trkpt lat="43.791597282066625" lon="6.235074255845809"><ele>532.0</ele><time>2026-04-07T16:53:21Z</time></trkpt><trkpt lat="43.7914491928237" lon="6.235114594977992"><ele>532.0</ele><time>2026-04-07T16:53:22Z</time></trkpt><trkpt lat="43.7913044316482" lon="6.2351770274774925"><ele>532.0</ele><time>2026-04-07T16:53:23Z</time></trkpt><trkpt lat="43.79117100420726" lon="6.235267267090117"><ele>532.0</ele><time>2026-04-07T16:53:24Z</time></trkpt><trkpt lat="43.79103527026682" lon="6.235376605606327"><ele>531.3333333333334</ele><time>2026-04-07T16:53:25Z</time></trkpt><trkpt lat="43.790891390003" lon="6.235477109729561"><ele>530.6666666666666</ele><time>2026-04-07T16:53:26Z</time></trkpt><trkpt lat="43.79073175035121" lon="6.235549960742413"><ele>530.0</ele><time>2026-04-07T16:53:27Z</time></trkpt><trkpt lat="43.79056216011512" lon="6.2356066495227935"><ele>533.6666666666666</ele><time>2026-04-07T16:53:28Z</time></trkpt><trkpt lat="43.79038329403266" lon="6.235651502169398"><ele>537.3333333333334</ele><time>2026-04-07T16:53:29Z</time></trkpt><trkpt lat="43.79020089820823" lon="6.235691877685931"><ele>541.0</ele><time>2026-04-07T16:53:30Z</time></trkpt><trkpt lat="43.790015985008836" lon="6.235710995463487"><ele>541.0</ele><time>2026-04-07T16:53:31Z</time></trkpt><trkpt lat="43.789832978622165" lon="6.2357122836943315"><ele>541.0</ele><time>2026-04-07T16:53:32Z</time></trkpt><trkpt lat="43.789662764490984" lon="6.235718222829694"><ele>541.0</ele><time>2026-04-07T16:53:33Z</time></trkpt><trkpt lat="43.78948943736324" lon="6.235750846268002"><ele>542.3333333333334</ele><time>2026-04-07T16:53:34Z</time></trkpt><trkpt lat="43.78931615297944" lon="6.235806119697556"><ele>543.6666666666666</ele><time>2026-04-07T16:53:35Z</time></trkpt><trkpt lat="43.789143871927784" lon="6.235865937643509"><ele>545.0</ele><time>2026-04-07T16:53:36Z</time></trkpt><trkpt lat="43.78898855436889" lon="6.2359310558829035"><ele>545.0</ele><time>2026-04-07T16:53:37Z</time></trkpt><trkpt lat="43.78885108193535" lon="6.235967499356634"><ele>545.0</ele><time>2026-04-07T16:53:38Z</time></trkpt><trkpt lat="43.788730853407145" lon="6.235937204523211"><ele>545.0</ele><time>2026-04-07T16:53:39Z</time></trkpt><trkpt lat="43.78862919499023" lon="6.235841953409077"><ele>545.0</ele><time>2026-04-07T16:53:40Z</time></trkpt><trkpt lat="43.78854011689885" lon="6.235697807933846"><ele>544.5</ele><time>2026-04-07T16:53:41Z</time></trkpt><trkpt lat="43.78845668258677" lon="6.235551483289223"><ele>544.0</ele><time>2026-04-07T16:53:42Z</time></trkpt><trkpt lat="43.788357757556206" lon="6.235442044686854"><ele>543.5</ele><time>2026-04-07T16:53:43Z</time></trkpt><trkpt lat="43.788236187495706" lon="6.235398541474113"><ele>543.0</ele><time>2026-04-07T16:53:44Z</time></trkpt><trkpt lat="43.78810833910916" lon="6.2354240166843455"><ele>543.0</ele><time>2026-04-07T16:53:45Z</time></trkpt><trkpt lat="43.787971229265864" lon="6.235488904553709"><ele>543.0</ele><time>2026-04-07T16:53:46Z</time></trkpt><trkpt lat="43.78782905913632" lon="6.235574077415149"><ele>543.0</ele><time>2026-04-07T16:53:47Z</time></trkpt><trkpt lat="43.78768630677318" lon="6.235689350625303"><ele>546.3333333333334</ele><time>2026-04-07T16:53:48Z</time></trkpt><trkpt lat="43.78754709310044" lon="6.235833437142746"><ele>549.6666666666667</ele><time>2026-04-07T16:53:49Z</time></trkpt><trkpt lat="43.78742739092871" lon="6.23599824744526"><ele>553.0</ele><time>2026-04-07T16:53:50Z</time></trkpt><trkpt lat="43.78732824878525" lon="6.236150284103057"><ele>553.0</ele><time>2026-04-07T16:53:51Z</time></trkpt><trkpt lat="43.78722143952709" lon="6.236264663818826"><ele>553.0</ele><time>2026-04-07T16:53:52Z</time></trkpt><trkpt lat="43.78709959792958" lon="6.23632005395081"><ele>553.0</ele><time>2026-04-07T16:53:53Z</time></trkpt><trkpt lat="43.78696222758554" lon="6.236293110672798"><ele>553.0</ele><time>2026-04-07T16:53:54Z</time></trkpt><trkpt lat="43.78681649417362" lon="6.23626090337531"><ele>553.6666666666667</ele><time>2026-04-07T16:53:55Z</time></trkpt><trkpt lat="43.78666262729464" lon="6.236295610495538"><ele>554.3333333333334</ele><time>2026-04-07T16:53:56Z</time></trkpt><trkpt lat="43.78650312172195" lon="6.236398945680711"><ele>555.0</ele><time>2026-04-07T16:53:57Z</time></trkpt><trkpt lat="43.786352315187436" lon="6.236490246122536"><ele>557.5</ele><time>2026-04-07T16:53:58Z</time></trkpt><trkpt lat="43.78621115148888" lon="6.23653187183788"><ele>560.0</ele><time>2026-04-07T16:53:59Z</time></trkpt><trkpt lat="43.7860723766545" lon="6.236495447983838"><ele>562.5</ele><time>2026-04-07T16:54:00Z</time></trkpt><trkpt lat="43.78594115751462" lon="6.236404198884519"><ele>565.0</ele><time>2026-04-07T16:54:01Z</time></trkpt><trkpt lat="43.785815712044844" lon="6.236279236535686"><ele>565.0</ele><time>2026-04-07T16:54:02Z</time></trkpt><trkpt lat="43.7857004043139" lon="6.2361257151931735"><ele>565.0</ele><time>2026-04-07T16:54:03Z</time></trkpt><trkpt lat="43.78559272052526" lon="6.235953510452397"><ele>565.0</ele><time>2026-04-07T16:54:04Z</time></trkpt><trkpt lat="43.78548468620739" lon="6.235791559771752"><ele>565.0</ele><time>2026-04-07T16:54:05Z</time></trkpt><trkpt lat="43.78538080625623" lon="6.2356429918498355"><ele>565.0</ele><time>2026-04-07T16:54:06Z</time></trkpt><trkpt lat="43.78528558723747" lon="6.2355137025099525"><ele>565.0</ele><time>2026-04-07T16:54:07Z</time></trkpt><trkpt lat="43.785178168951056" lon="6.2354335550680355"><ele>565.0</ele><time>2026-04-07T16:54:08Z</time></trkpt><trkpt lat="43.78505297414949" lon="6.235433219026721"><ele>565.75</ele><time>2026-04-07T16:54:09Z</time></trkpt><trkpt lat="43.78491673189525" lon="6.2354906647470925"><ele>566.5</ele><time>2026-04-07T16:54:10Z</time></trkpt><trkpt lat="43.78477022010782" lon="6.235543436630927"><ele>567.25</ele><time>2026-04-07T16:54:11Z</time></trkpt><trkpt lat="43.784634981946866" lon="6.235514848999943"><ele>568.0</ele><time>2026-04-07T16:54:12Z</time></trkpt><trkpt lat="43.78451926845191" lon="6.235403091228091"><ele>568.0</ele><time>2026-04-07T16:54:13Z</time></trkpt><trkpt lat="43.78441028397245" lon="6.235264510569212"><ele>568.0</ele><time>2026-04-07T16:54:14Z</time></trkpt><trkpt lat="43.784303295104166" lon="6.235139184602231"><ele>568.0</ele><time>2026-04-07T16:54:15Z</time></trkpt><trkpt lat="43.78421574981104" lon="6.235011827773731"><ele>568.0</ele><time>2026-04-07T16:54:16Z</time></trkpt><trkpt lat="43.78415079690265" lon="6.234877752025986"><ele>569.8</ele><time>2026-04-07T16:54:17Z</time></trkpt><trkpt lat="43.78411146190266" lon="6.234731191750336"><ele>571.5999999999999</ele><time>2026-04-07T16:54:18Z</time></trkpt><trkpt lat="43.78412683361067" lon="6.234597238765284"><ele>573.4000000000001</ele><time>2026-04-07T16:54:19Z</time></trkpt><trkpt lat="43.78417572981451" lon="6.234526666587604"><ele>575.2</ele><time>2026-04-07T16:54:20Z</time></trkpt><trkpt lat="43.78426398656291" lon="6.234530684874113"><ele>577.0</ele><time>2026-04-07T16:54:21Z</time></trkpt><trkpt lat="43.78437267752658" lon="6.234507030135707"><ele>577.0</ele><time>2026-04-07T16:54:22Z</time></trkpt><trkpt lat="43.78448966666681" lon="6.234474264856437"><ele>577.0</ele><time>2026-04-07T16:54:23Z</time></trkpt><trkpt lat="43.78460947061126" lon="6.23438431431665"><ele>577.0</ele><time>2026-04-07T16:54:24Z</time></trkpt><trkpt lat="43.78473075453665" lon="6.234250753774909"><ele>577.0</ele><time>2026-04-07T16:54:24.999Z</time></trkpt><trkpt lat="43.784871096958604" lon="6.234137205428575"><ele>577.0</ele><time>2026-04-07T16:54:25.999Z</time></trkpt><trkpt lat="43.7849986186289" lon="6.233985024261763"><ele>577.0</ele><time>2026-04-07T16:54:26.999Z</time></trkpt><trkpt lat="43.785142336399495" lon="6.233845623136351"><ele>577.0</ele><time>2026-04-07T16:54:27.999Z</time></trkpt><trkpt lat="43.78528687384743" lon="6.233703413666511"><ele>576.0</ele><time>2026-04-07T16:54:28.999Z</time></trkpt><trkpt lat="43.78542799871005" lon="6.233565025019767"><ele>575.0</ele><time>2026-04-07T16:54:29.999Z</time></trkpt><trkpt lat="43.785559835743975" lon="6.233426101236368"><ele>574.0</ele><time>2026-04-07T16:54:30.999Z</time></trkpt><trkpt lat="43.78567663741513" lon="6.233274087186788"><ele>571.75</ele><time>2026-04-07T16:54:31.999Z</time></trkpt><trkpt lat="43.78577603440423" lon="6.233109969171228"><ele>569.5</ele><time>2026-04-07T16:54:32.999Z</time></trkpt><trkpt lat="43.78586263525037" lon="6.232955344491171"><ele>567.25</ele><time>2026-04-07T16:54:33.999Z</time></trkpt><trkpt lat="43.785944739799675" lon="6.2328202218491455"><ele>565.0</ele><time>2026-04-07T16:54:34.999Z</time></trkpt><trkpt lat="43.786012177532925" lon="6.232690714122765"><ele>565.0</ele><time>2026-04-07T16:54:35.999Z</time></trkpt><trkpt lat="43.786054834005526" lon="6.232558070309167"><ele>565.0</ele><time>2026-04-07T16:54:37Z</time></trkpt><trkpt lat="43.78606730616123" lon="6.232418972692779"><ele>565.0</ele><time>2026-04-07T16:54:38Z</time></trkpt><trkpt lat="43.78603204986602" lon="6.2322784152636315"><ele>565.0</ele><time>2026-04-07T16:54:39Z</time></trkpt><trkpt lat="43.785948745872716" lon="6.232160664946284"><ele>565.0</ele><time>2026-04-07T16:54:40Z</time></trkpt><trkpt lat="43.785825135800586" lon="6.232096934664473"><ele>571.3333333333334</ele><time>2026-04-07T16:54:41Z</time></trkpt><trkpt lat="43.78567888080231" lon="6.232099505664257"><ele>577.6666666666666</ele><time>2026-04-07T16:54:42Z</time></trkpt><trkpt lat="43.78552386033419" lon="6.23213474590896"><ele>584.0</ele><time>2026-04-07T16:54:43Z</time></trkpt><trkpt lat="43.78537731645385" lon="6.232110627243487"><ele>584.0</ele><time>2026-04-07T16:54:44Z</time></trkpt><trkpt lat="43.785257680110355" lon="6.232033648620208"><ele>584.0</ele><time>2026-04-07T16:54:45Z</time></trkpt><trkpt lat="43.7851348542252" lon="6.231969028981912"><ele>584.0</ele><time>2026-04-07T16:54:46Z</time></trkpt><trkpt lat="43.78501210391139" lon="6.231955441258891"><ele>584.0</ele><time>2026-04-07T16:54:47Z</time></trkpt><trkpt lat="43.78486788786768" lon="6.23200900312367"><ele>585.3333333333333</ele><time>2026-04-07T16:54:48Z</time></trkpt><trkpt lat="43.784717981505864" lon="6.2320756212493205"><ele>586.6666666666666</ele><time>2026-04-07T16:54:49Z</time></trkpt><trkpt lat="43.78457078622961" lon="6.232174170959433"><ele>588.0</ele><time>2026-04-07T16:54:50Z</time></trkpt><trkpt lat="43.78442395205579" lon="6.232293236959578"><ele>590.6666666666666</ele><time>2026-04-07T16:54:51Z</time></trkpt><trkpt lat="43.784286749843176" lon="6.232421634400685"><ele>593.3333333333333</ele><time>2026-04-07T16:54:52Z</time></trkpt><trkpt lat="43.784146371944956" lon="6.2325257964652625"><ele>596.0</ele><time>2026-04-07T16:54:53Z</time></trkpt><trkpt lat="43.78399912961208" lon="6.232584385948183"><ele>596.0</ele><time>2026-04-07T16:54:54Z</time></trkpt><trkpt lat="43.783848493562395" lon="6.23257482663602"><ele>596.0</ele><time>2026-04-07T16:54:55Z</time></trkpt><trkpt lat="43.78371808690791" lon="6.232492764832744"><ele>596.0</ele><time>2026-04-07T16:54:56Z</time></trkpt><trkpt lat="43.78361095921119" lon="6.232405227493696"><ele>596.0</ele><time>2026-04-07T16:54:57Z</time></trkpt><trkpt lat="43.78349438477533" lon="6.232395188300064"><ele>597.25</ele><time>2026-04-07T16:54:58Z</time></trkpt><trkpt lat="43.78336773547167" lon="6.232451748952166"><ele>598.5</ele><time>2026-04-07T16:54:59Z</time></trkpt><trkpt lat="43.78322917236309" lon="6.232536994761084"><ele>599.75</ele><time>2026-04-07T16:55:00Z</time></trkpt><trkpt lat="43.78310514721658" lon="6.232583509054509"><ele>601.0</ele><time>2026-04-07T16:55:01Z</time></trkpt><trkpt lat="43.78299181407548" lon="6.232581442498573"><ele>601.0</ele><time>2026-04-07T16:55:02Z</time></trkpt><trkpt lat="43.78292342937695" lon="6.232481237729649"><ele>601.0</ele><time>2026-04-07T16:55:03Z</time></trkpt><trkpt lat="43.78292601243596" lon="6.232339844510013"><ele>601.0</ele><time>2026-04-07T16:55:04Z</time></trkpt><trkpt lat="43.78290542717005" lon="6.232198799451332"><ele>601.0</ele><time>2026-04-07T16:55:05Z</time></trkpt><trkpt lat="43.78284283511503" lon="6.2320811492933705"><ele>601.0</ele><time>2026-04-07T16:55:06Z</time></trkpt><trkpt lat="43.78273087361343" lon="6.231994557372681"><ele>600.5</ele><time>2026-04-07T16:55:07Z</time></trkpt><trkpt lat="43.7826044759613" lon="6.231917495494018"><ele>600.0</ele><time>2026-04-07T16:55:08Z</time></trkpt><trkpt lat="43.782482244482054" lon="6.231853551004588"><ele>599.5</ele><time>2026-04-07T16:55:09Z</time></trkpt><trkpt lat="43.782366636301724" lon="6.231810541075112"><ele>599.0</ele><time>2026-04-07T16:55:10Z</time></trkpt><trkpt lat="43.78225676134738" lon="6.231816802748335"><ele>599.0</ele><time>2026-04-07T16:55:11Z</time></trkpt><trkpt lat="43.782151184814765" lon="6.2318901619046"><ele>599.0</ele><time>2026-04-07T16:55:12Z</time></trkpt><trkpt lat="43.782060787262665" lon="6.2320262512618525"><ele>599.0</ele><time>2026-04-07T16:55:13Z</time></trkpt><trkpt lat="43.78198563190093" lon="6.232177766661198"><ele>599.0</ele><time>2026-04-07T16:55:14Z</time></trkpt><trkpt lat="43.78192539315501" lon="6.232319587416674"><ele>601.75</ele><time>2026-04-07T16:55:15Z</time></trkpt><trkpt lat="43.781871202766155" lon="6.232465804112268"><ele>604.5</ele><time>2026-04-07T16:55:16Z</time></trkpt><trkpt lat="43.78178937712387" lon="6.232578537420586"><ele>607.25</ele><time>2026-04-07T16:55:17Z</time></trkpt><trkpt lat="43.78168338609325" lon="6.232658708606081"><ele>610.0</ele><time>2026-04-07T16:55:18Z</time></trkpt><trkpt lat="43.78156175836808" lon="6.2327172090560765"><ele>610.25</ele><time>2026-04-07T16:55:19Z</time></trkpt><trkpt lat="43.78143649239018" lon="6.232781757670732"><ele>610.5</ele><time>2026-04-07T16:55:20Z</time></trkpt><trkpt lat="43.78131919990923" lon="6.2328412761849705"><ele>610.75</ele><time>2026-04-07T16:55:21Z</time></trkpt><trkpt lat="43.78120306615194" lon="6.232874112117731"><ele>611.0</ele><time>2026-04-07T16:55:22Z</time></trkpt><trkpt lat="43.78108545604421" lon="6.232836356474595"><ele>611.25</ele><time>2026-04-07T16:55:23Z</time></trkpt><trkpt lat="43.780997803833046" lon="6.232734010975554"><ele>611.5</ele><time>2026-04-07T16:55:24Z</time></trkpt><trkpt lat="43.7809639533159" lon="6.2325760086384685"><ele>611.75</ele><time>2026-04-07T16:55:25Z</time></trkpt><trkpt lat="43.78092664824585" lon="6.232408713445739"><ele>612.0</ele><time>2026-04-07T16:55:26Z</time></trkpt><trkpt lat="43.78090867092274" lon="6.232234109740323"><ele>612.0</ele><time>2026-04-07T16:55:27Z</time></trkpt><trkpt lat="43.780862871616776" lon="6.23207698126048"><ele>612.0</ele><time>2026-04-07T16:55:28Z</time></trkpt><trkpt lat="43.7807758301346" lon="6.23196332114335"><ele>612.0</ele><time>2026-04-07T16:55:29Z</time></trkpt><trkpt lat="43.78066674140866" lon="6.231914652001893"><ele>612.0</ele><time>2026-04-07T16:55:30Z</time></trkpt><trkpt lat="43.78055543322934" lon="6.23193109789222"><ele>612.0</ele><time>2026-04-07T16:55:31Z</time></trkpt><trkpt lat="43.78045474524761" lon="6.232024513448053"><ele>612.0</ele><time>2026-04-07T16:55:32Z</time></trkpt><trkpt lat="43.780387053493406" lon="6.232169470439721"><ele>612.0</ele><time>2026-04-07T16:55:33Z</time></trkpt><trkpt lat="43.78034123164829" lon="6.232336908337912"><ele>612.0</ele><time>2026-04-07T16:55:34Z</time></trkpt><trkpt lat="43.780251661051594" lon="6.23244220396312"><ele>615.0</ele><time>2026-04-07T16:55:35Z</time></trkpt><trkpt lat="43.78013947239282" lon="6.2324646349080774"><ele>618.0</ele><time>2026-04-07T16:55:36Z</time></trkpt><trkpt lat="43.780020885513196" lon="6.232418528109354"><ele>621.0</ele><time>2026-04-07T16:55:37Z</time></trkpt><trkpt lat="43.77989505969778" lon="6.232348947388037"><ele>624.0</ele><time>2026-04-07T16:55:38Z</time></trkpt><trkpt lat="43.77978086882544" lon="6.232345253178924"><ele>624.0</ele><time>2026-04-07T16:55:39Z</time></trkpt><trkpt lat="43.779673591680236" lon="6.2324069971495515"><ele>624.0</ele><time>2026-04-07T16:55:40Z</time></trkpt><trkpt lat="43.77957808774014" lon="6.2325440832938614"><ele>624.0</ele><time>2026-04-07T16:55:41Z</time></trkpt><trkpt lat="43.77950073404962" lon="6.232725852970881"><ele>624.0</ele><time>2026-04-07T16:55:42Z</time></trkpt><trkpt lat="43.77941246396537" lon="6.23288875485261"><ele>624.25</ele><time>2026-04-07T16:55:43Z</time></trkpt><trkpt lat="43.77932379901091" lon="6.23302721908109"><ele>624.5</ele><time>2026-04-07T16:55:44Z</time></trkpt><trkpt lat="43.779244539370026" lon="6.23314891584301"><ele>624.75</ele><time>2026-04-07T16:55:45Z</time></trkpt><trkpt lat="43.77916740514987" lon="6.233242820971076"><ele>625.0</ele><time>2026-04-07T16:55:46Z</time></trkpt><trkpt lat="43.779071509395536" lon="6.233279622513727"><ele>625.0</ele><time>2026-04-07T16:55:47Z</time></trkpt><trkpt lat="43.77896851206901" lon="6.233248109164153"><ele>625.0</ele><time>2026-04-07T16:55:48Z</time></trkpt><trkpt lat="43.77889557445449" lon="6.233167872314445"><ele>625.0</ele><time>2026-04-07T16:55:49Z</time></trkpt><trkpt lat="43.77885300068658" lon="6.233046751209256"><ele>625.0</ele><time>2026-04-07T16:55:50Z</time></trkpt><trkpt lat="43.7788453693515" lon="6.2329006785363115"><ele>625.0</ele><time>2026-04-07T16:55:51Z</time></trkpt><trkpt lat="43.77884016317396" lon="6.232753972322113"><ele>625.0</ele><time>2026-04-07T16:55:52Z</time></trkpt><trkpt lat="43.77879108200231" lon="6.232632882731255"><ele>625.0</ele><time>2026-04-07T16:55:53Z</time></trkpt><trkpt lat="43.77870333032213" lon="6.232551209589066"><ele>625.0</ele><time>2026-04-07T16:55:54Z</time></trkpt><trkpt lat="43.77858163986827" lon="6.232526569476224"><ele>625.0</ele><time>2026-04-07T16:55:55Z</time></trkpt><trkpt lat="43.77844932561875" lon="6.2325351142721646"><ele>627.0</ele><time>2026-04-07T16:55:56Z</time></trkpt><trkpt lat="43.778305024723295" lon="6.232532565904119"><ele>629.0</ele><time>2026-04-07T16:55:57Z</time></trkpt><trkpt lat="43.778149873782894" lon="6.23251911513624"><ele>631.0</ele><time>2026-04-07T16:55:58Z</time></trkpt><trkpt lat="43.778006950826885" lon="6.232500278367292"><ele>633.0</ele><time>2026-04-07T16:55:59Z</time></trkpt><trkpt lat="43.77787990055523" lon="6.232487261411885"><ele>633.0</ele><time>2026-04-07T16:56:00Z</time></trkpt><trkpt lat="43.77776327044619" lon="6.232477612686537"><ele>633.0</ele><time>2026-04-07T16:56:01Z</time></trkpt><trkpt lat="43.77765867098038" lon="6.232494439600548"><ele>633.0</ele><time>2026-04-07T16:56:02Z</time></trkpt><trkpt lat="43.77756249363262" lon="6.232553657644274"><ele>633.0</ele><time>2026-04-07T16:56:03Z</time></trkpt><trkpt lat="43.77750010559053" lon="6.232672435570755"><ele>633.0</ele><time>2026-04-07T16:56:04Z</time></trkpt><trkpt lat="43.77747279135565" lon="6.232835153501468"><ele>634.25</ele><time>2026-04-07T16:56:05Z</time></trkpt><trkpt lat="43.77747045785511" lon="6.233019977434964"><ele>635.5</ele><time>2026-04-07T16:56:06Z</time></trkpt><trkpt lat="43.77744922891251" lon="6.233193959034207"><ele>636.75</ele><time>2026-04-07T16:56:07Z</time></trkpt><trkpt lat="43.77738432425701" lon="6.233317854500825"><ele>638.0</ele><time>2026-04-07T16:56:08Z</time></trkpt><trkpt lat="43.77729266323202" lon="6.233378988490596"><ele>638.0</ele><time>2026-04-07T16:56:09Z</time></trkpt><trkpt lat="43.777193166486704" lon="6.233362499437773"><ele>638.0</ele><time>2026-04-07T16:56:10Z</time></trkpt><trkpt lat="43.77710364993656" lon="6.233288457907346"><ele>638.0</ele><time>2026-04-07T16:56:11Z</time></trkpt><trkpt lat="43.777030322203565" lon="6.233171858204471"><ele>638.0</ele><time>2026-04-07T16:56:12Z</time></trkpt><trkpt lat="43.7769693931974" lon="6.233041421550555"><ele>638.0</ele><time>2026-04-07T16:56:13Z</time></trkpt><trkpt lat="43.77688007774255" lon="6.2329176614349056"><ele>640.0</ele><time>2026-04-07T16:56:14Z</time></trkpt><trkpt lat="43.77679632685616" lon="6.232794203553084"><ele>642.0</ele><time>2026-04-07T16:56:15Z</time></trkpt><trkpt lat="43.77668219260553" lon="6.23267968044567"><ele>644.0</ele><time>2026-04-07T16:56:16Z</time></trkpt><trkpt lat="43.77656497284052" lon="6.232614673527906"><ele>646.0</ele><time>2026-04-07T16:56:17Z</time></trkpt><trkpt lat="43.77643101932094" lon="6.232620713966893"><ele>646.0</ele><time>2026-04-07T16:56:18Z</time></trkpt><trkpt lat="43.77628496269449" lon="6.232661775787919"><ele>646.0</ele><time>2026-04-07T16:56:19Z</time></trkpt><trkpt lat="43.77613083099076" lon="6.232715486565358"><ele>646.0</ele><time>2026-04-07T16:56:19.999Z</time></trkpt><trkpt lat="43.775968899245655" lon="6.232780120961424"><ele>647.3333333333334</ele><time>2026-04-07T16:56:20.999Z</time></trkpt><trkpt lat="43.77580255496331" lon="6.23284091837049"><ele>648.6666666666666</ele><time>2026-04-07T16:56:21.999Z</time></trkpt><trkpt lat="43.7756381471217" lon="6.232905029275353"><ele>650.0</ele><time>2026-04-07T16:56:22.999Z</time></trkpt><trkpt lat="43.77547484153769" lon="6.232985757421973"><ele>650.0</ele><time>2026-04-07T16:56:23.999Z</time></trkpt><trkpt lat="43.7753195289227" lon="6.2330965291613545"><ele>650.0</ele><time>2026-04-07T16:56:24.999Z</time></trkpt><trkpt lat="43.775174786719994" lon="6.233218650092885"><ele>650.0</ele><time>2026-04-07T16:56:25.999Z</time></trkpt><trkpt lat="43.77504142525665" lon="6.233339025356231"><ele>654.3333333333333</ele><time>2026-04-07T16:56:26.999Z</time></trkpt><trkpt lat="43.774897432168075" lon="6.233432404330694"><ele>658.6666666666666</ele><time>2026-04-07T16:56:27.999Z</time></trkpt><trkpt lat="43.77474797247476" lon="6.233474675029238"><ele>663.0</ele><time>2026-04-07T16:56:28.999Z</time></trkpt><trkpt lat="43.77459420958854" lon="6.233477426427176"><ele>663.0</ele><time>2026-04-07T16:56:29.999Z</time></trkpt><trkpt lat="43.77444020476128" lon="6.233445484384983"><ele>663.0</ele><time>2026-04-07T16:56:30.999Z</time></trkpt><trkpt lat="43.774286235080936" lon="6.233377707107634"><ele>663.0</ele><time>2026-04-07T16:56:31.999Z</time></trkpt><trkpt lat="43.77413315022341" lon="6.233277631781004"><ele>664.0</ele><time>2026-04-07T16:56:32.999Z</time></trkpt><trkpt lat="43.773970961737255" lon="6.233181457866149"><ele>665.0</ele><time>2026-04-07T16:56:33.999Z</time></trkpt><trkpt lat="43.77382103195611" lon="6.233099746401646"><ele>666.0</ele><time>2026-04-07T16:56:34.999Z</time></trkpt><trkpt lat="43.77368599449648" lon="6.233007278112187"><ele>668.3333333333334</ele><time>2026-04-07T16:56:35.999Z</time></trkpt><trkpt lat="43.77356839910036" lon="6.232875242162072"><ele>670.6666666666667</ele><time>2026-04-07T16:56:36.999Z</time></trkpt><trkpt lat="43.7734779504616" lon="6.23270177057904"><ele>673.0</ele><time>2026-04-07T16:56:37.999Z</time></trkpt><trkpt lat="43.7734185516087" lon="6.232495997705344"><ele>671.5</ele><time>2026-04-07T16:56:38.999Z</time></trkpt><trkpt lat="43.77336880981129" lon="6.2323052688777505"><ele>670.0</ele><time>2026-04-07T16:56:39.999Z</time></trkpt><trkpt lat="43.77330062491966" lon="6.23215763602918"><ele>668.5</ele><time>2026-04-07T16:56:40.999Z</time></trkpt><trkpt lat="43.773208193589035" lon="6.232056324720771"><ele>667.0</ele><time>2026-04-07T16:56:41.999Z</time></trkpt><trkpt lat="43.77309810255195" lon="6.232020301522854"><ele>667.0</ele><time>2026-04-07T16:56:43Z</time></trkpt><trkpt lat="43.77299344332791" lon="6.232068976552467"><ele>667.0</ele><time>2026-04-07T16:56:44Z</time></trkpt><trkpt lat="43.77291565623861" lon="6.232172592431842"><ele>667.0</ele><time>2026-04-07T16:56:45Z</time></trkpt><trkpt lat="43.77288543694673" lon="6.232324601573751"><ele>667.0</ele><time>2026-04-07T16:56:46Z</time></trkpt><trkpt lat="43.772903278145826" lon="6.232501341288617"><ele>668.5</ele><time>2026-04-07T16:56:47Z</time></trkpt><trkpt lat="43.772963657362425" lon="6.232668007095205"><ele>670.0</ele><time>2026-04-07T16:56:48Z</time></trkpt><trkpt lat="43.77301204082857" lon="6.232842841283054"><ele>671.5</ele><time>2026-04-07T16:56:49Z</time></trkpt><trkpt lat="43.77304219378098" lon="6.233030012923905"><ele>673.0</ele><time>2026-04-07T16:56:50Z</time></trkpt><trkpt lat="43.773046910824384" lon="6.233223017664855"><ele>673.75</ele><time>2026-04-07T16:56:51Z</time></trkpt><trkpt lat="43.77307420975528" lon="6.233399168361005"><ele>674.5</ele><time>2026-04-07T16:56:52Z</time></trkpt><trkpt lat="43.77314814781463" lon="6.233570675709254"><ele>675.25</ele><time>2026-04-07T16:56:53Z</time></trkpt><trkpt lat="43.77324709179466" lon="6.233748853631357"><ele>676.0</ele><time>2026-04-07T16:56:54Z</time></trkpt><trkpt lat="43.773342281894394" lon="6.2339424042725895"><ele>675.6666666666667</ele><time>2026-04-07T16:56:55Z</time></trkpt><trkpt lat="43.773446239514215" lon="6.234133089024195"><ele>675.3333333333334</ele><time>2026-04-07T16:56:56Z</time></trkpt><trkpt lat="43.7735535046815" lon="6.2343093032718855"><ele>675.0</ele><time>2026-04-07T16:56:57Z</time></trkpt><trkpt lat="43.773644454901216" lon="6.23448425155267"><ele>675.0</ele><time>2026-04-07T16:56:58Z</time></trkpt><trkpt lat="43.77372810990256" lon="6.234663079225109"><ele>675.0</ele><time>2026-04-07T16:56:59Z</time></trkpt><trkpt lat="43.77380510241122" lon="6.234860367654641"><ele>675.0</ele><time>2026-04-07T16:57:00Z</time></trkpt><trkpt lat="43.773864189802005" lon="6.235082009501901"><ele>678.0</ele><time>2026-04-07T16:57:01Z</time></trkpt><trkpt lat="43.773940653284384" lon="6.235302616350113"><ele>681.0</ele><time>2026-04-07T16:57:02Z</time></trkpt><trkpt lat="43.77404861083366" lon="6.235518159394343"><ele>684.0</ele><time>2026-04-07T16:57:03Z</time></trkpt><trkpt lat="43.77416589236043" lon="6.235724483903869"><ele>686.6666666666666</ele><time>2026-04-07T16:57:04Z</time></trkpt><trkpt lat="43.774274819796105" lon="6.235921129858165"><ele>689.3333333333333</ele><time>2026-04-07T16:57:05Z</time></trkpt><trkpt lat="43.774376164305245" lon="6.236114776304945"><ele>692.0</ele><time>2026-04-07T16:57:06Z</time></trkpt><trkpt lat="43.774469269817736" lon="6.23629210712882"><ele>692.0</ele><time>2026-04-07T16:57:07Z</time></trkpt><trkpt lat="43.774560146909785" lon="6.236450631494665"><ele>692.0</ele><time>2026-04-07T16:57:08Z</time></trkpt><trkpt lat="43.774659929487555" lon="6.236566517277794"><ele>692.0</ele><time>2026-04-07T16:57:09Z</time></trkpt><trkpt lat="43.77477318529123" lon="6.23661362533261"><ele>692.0</ele><time>2026-04-07T16:57:10Z</time></trkpt><trkpt lat="43.77487880984137" lon="6.236584650479425"><ele>692.0</ele><time>2026-04-07T16:57:11Z</time></trkpt><trkpt lat="43.774965325304805" lon="6.236510357210607"><ele>692.0</ele><time>2026-04-07T16:57:12Z</time></trkpt><trkpt lat="43.775040767111406" lon="6.236396589263565"><ele>692.0</ele><time>2026-04-07T16:57:13Z</time></trkpt><trkpt lat="43.77511890299465" lon="6.236299109122483"><ele>692.0</ele><time>2026-04-07T16:57:14Z</time></trkpt><trkpt lat="43.77520897286375" lon="6.236247146462072"><ele>692.0</ele><time>2026-04-07T16:57:15Z</time></trkpt><trkpt lat="43.775293012685495" lon="6.236277557015264"><ele>692.2</ele><time>2026-04-07T16:57:16Z</time></trkpt><trkpt lat="43.775353060387566" lon="6.236352748034803"><ele>692.4000000000001</ele><time>2026-04-07T16:57:17Z</time></trkpt><trkpt lat="43.77538147944467" lon="6.236462512922703"><ele>692.5999999999999</ele><time>2026-04-07T16:57:18Z</time></trkpt><trkpt lat="43.775363307608465" lon="6.236586912477352"><ele>692.8</ele><time>2026-04-07T16:57:19Z</time></trkpt><trkpt lat="43.77530047807343" lon="6.236684784637335"><ele>693.0</ele><time>2026-04-07T16:57:20Z</time></trkpt><trkpt lat="43.77520322663497" lon="6.236751894856078"><ele>695.25</ele><time>2026-04-07T16:57:21Z</time></trkpt><trkpt lat="43.77509074496255" lon="6.236791934478743"><ele>697.5</ele><time>2026-04-07T16:57:22Z</time></trkpt><trkpt lat="43.77496781913802" lon="6.236852673931788"><ele>699.75</ele><time>2026-04-07T16:57:23Z</time></trkpt><trkpt lat="43.774845386734" lon="6.236932404348163"><ele>702.0</ele><time>2026-04-07T16:57:24Z</time></trkpt><trkpt lat="43.77472688123187" lon="6.236999404207507"><ele>702.0</ele><time>2026-04-07T16:57:25Z</time></trkpt><trkpt lat="43.77460947001444" lon="6.237008800020459"><ele>702.0</ele><time>2026-04-07T16:57:26Z</time></trkpt><trkpt lat="43.77450091931273" lon="6.236959202634022"><ele>702.0</ele><time>2026-04-07T16:57:27Z</time></trkpt><trkpt lat="43.77440723638973" lon="6.2368347670575055"><ele>702.0</ele><time>2026-04-07T16:57:28Z</time></trkpt><trkpt lat="43.77430183074672" lon="6.236707291354232"><ele>699.3333333333334</ele><time>2026-04-07T16:57:29Z</time></trkpt><trkpt lat="43.77416913820158" lon="6.236590991790777"><ele>696.6666666666667</ele><time>2026-04-07T16:57:30Z</time></trkpt><trkpt lat="43.77403099139715" lon="6.236495323517478"><ele>694.0</ele><time>2026-04-07T16:57:31Z</time></trkpt><trkpt lat="43.773906888583625" lon="6.236404278621759"><ele>694.0</ele><time>2026-04-07T16:57:32Z</time></trkpt><trkpt lat="43.77378984036507" lon="6.236289187376454"><ele>694.0</ele><time>2026-04-07T16:57:33Z</time></trkpt><trkpt lat="43.773701576181466" lon="6.236131205926123"><ele>694.0</ele><time>2026-04-07T16:57:34Z</time></trkpt><trkpt lat="43.77365185373035" lon="6.235939919187015"><ele>694.0</ele><time>2026-04-07T16:57:35Z</time></trkpt><trkpt lat="43.773606529288145" lon="6.235753808318815"><ele>695.4000000000001</ele><time>2026-04-07T16:57:36Z</time></trkpt><trkpt lat="43.77355704579987" lon="6.235596010635345"><ele>696.8</ele><time>2026-04-07T16:57:37Z</time></trkpt><trkpt lat="43.7734976770604" lon="6.23545639755689"><ele>698.2</ele><time>2026-04-07T16:57:38Z</time></trkpt><trkpt lat="43.7734294292704" lon="6.23534568487768"><ele>699.5999999999999</ele><time>2026-04-07T16:57:39Z</time></trkpt><trkpt lat="43.77334125792237" lon="6.235279088770857"><ele>701.0</ele><time>2026-04-07T16:57:40Z</time></trkpt><trkpt lat="43.77324248699116" lon="6.23529580481987"><ele>701.0</ele><time>2026-04-07T16:57:41Z</time></trkpt><trkpt lat="43.77315257813412" lon="6.235382835299624"><ele>701.0</ele><time>2026-04-07T16:57:42Z</time></trkpt><trkpt lat="43.77306858147375" lon="6.235510797580908"><ele>701.0</ele><time>2026-04-07T16:57:43Z</time></trkpt><trkpt lat="43.77298160160555" lon="6.235653419353762"><ele>701.0</ele><time>2026-04-07T16:57:44Z</time></trkpt><trkpt lat="43.77287753414223" lon="6.235783152719339"><ele>704.25</ele><time>2026-04-07T16:57:45Z</time></trkpt><trkpt lat="43.772750420299495" lon="6.235888616932327"><ele>707.5</ele><time>2026-04-07T16:57:46Z</time></trkpt><trkpt lat="43.77261653857641" lon="6.235954687151063"><ele>710.75</ele><time>2026-04-07T16:57:47Z</time></trkpt><trkpt lat="43.772464227649266" lon="6.235993438564568"><ele>714.0</ele><time>2026-04-07T16:57:48Z</time></trkpt><trkpt lat="43.77230774622726" lon="6.236036880058721"><ele>714.6666666666666</ele><time>2026-04-07T16:57:49Z</time></trkpt><trkpt lat="43.77215956133292" lon="6.236092856635245"><ele>715.3333333333333</ele><time>2026-04-07T16:57:50Z</time></trkpt><trkpt lat="43.77202178760578" lon="6.236181782223"><ele>716.0</ele><time>2026-04-07T16:57:51Z</time></trkpt><trkpt lat="43.7718953996711" lon="6.236313656684838"><ele>715.25</ele><time>2026-04-07T16:57:52Z</time></trkpt><trkpt lat="43.77177478020861" lon="6.23645976858815"><ele>714.5</ele><time>2026-04-07T16:57:53Z</time></trkpt><trkpt lat="43.771656830187425" lon="6.236590755716519"><ele>713.75</ele><time>2026-04-07T16:57:54Z</time></trkpt><trkpt lat="43.771545619483305" lon="6.236698503327171"><ele>713.0</ele><time>2026-04-07T16:57:55Z</time></trkpt><trkpt lat="43.77145227214878" lon="6.236802942905407"><ele>715.5</ele><time>2026-04-07T16:57:56Z</time></trkpt><trkpt lat="43.771391711570686" lon="6.236937360346502"><ele>718.0</ele><time>2026-04-07T16:57:57Z</time></trkpt><trkpt lat="43.77137614889931" lon="6.237110986190433"><ele>720.5</ele><time>2026-04-07T16:57:58Z</time></trkpt><trkpt lat="43.77139293957891" lon="6.237289542435445"><ele>723.0</ele><time>2026-04-07T16:57:59Z</time></trkpt><trkpt lat="43.77140415538023" lon="6.237458651855096"><ele>725.25</ele><time>2026-04-07T16:58:00Z</time></trkpt><trkpt lat="43.77141126522514" lon="6.237624782694266"><ele>727.5</ele><time>2026-04-07T16:58:01Z</time></trkpt><trkpt lat="43.771427249377595" lon="6.237786663480362"><ele>729.75</ele><time>2026-04-07T16:58:02Z</time></trkpt><trkpt lat="43.77144365253529" lon="6.237938850738379"><ele>732.0</ele><time>2026-04-07T16:58:03Z</time></trkpt><trkpt lat="43.77146750157094" lon="6.238088067835726"><ele>732.75</ele><time>2026-04-07T16:58:04Z</time></trkpt><trkpt lat="43.77152481731813" lon="6.238227732315896"><ele>733.5</ele><time>2026-04-07T16:58:05Z</time></trkpt><trkpt lat="43.77161376355978" lon="6.238344680011798"><ele>734.25</ele><time>2026-04-07T16:58:06Z</time></trkpt><trkpt lat="43.77172989994179" lon="6.2384311345060155"><ele>735.0</ele><time>2026-04-07T16:58:07Z</time></trkpt><trkpt lat="43.77186623839939" lon="6.238500074771796"><ele>735.3333333333334</ele><time>2026-04-07T16:58:08Z</time></trkpt><trkpt lat="43.77200675313741" lon="6.238583012015164"><ele>735.6666666666667</ele><time>2026-04-07T16:58:09Z</time></trkpt><trkpt lat="43.77215395908847" lon="6.2386794740791"><ele>736.0</ele><time>2026-04-07T16:58:10Z</time></trkpt><trkpt lat="43.77230748554988" lon="6.238773661248992"><ele>736.0</ele><time>2026-04-07T16:58:11Z</time></trkpt><trkpt lat="43.77247035577668" lon="6.238850763940947"><ele>736.0</ele><time>2026-04-07T16:58:12Z</time></trkpt><trkpt lat="43.77263965205289" lon="6.23889424639811"><ele>736.0</ele><time>2026-04-07T16:58:13Z</time></trkpt><trkpt lat="43.77280260840143" lon="6.238904583511736"><ele>738.0</ele><time>2026-04-07T16:58:14Z</time></trkpt><trkpt lat="43.77294723838712" lon="6.238916234829273"><ele>740.0</ele><time>2026-04-07T16:58:15Z</time></trkpt><trkpt lat="43.773080841830755" lon="6.238936761805839"><ele>742.0</ele><time>2026-04-07T16:58:16Z</time></trkpt><trkpt lat="43.77321408438662" lon="6.238949037532483"><ele>744.0</ele><time>2026-04-07T16:58:17Z</time></trkpt><trkpt lat="43.77334221275955" lon="6.238922347543943"><ele>744.0</ele><time>2026-04-07T16:58:18Z</time></trkpt><trkpt lat="43.77346785417081" lon="6.238853029119957"><ele>744.0</ele><time>2026-04-07T16:58:19Z</time></trkpt><trkpt lat="43.773585551630596" lon="6.238752936898298"><ele>744.0</ele><time>2026-04-07T16:58:20Z</time></trkpt><trkpt lat="43.773683092747454" lon="6.238639834333942"><ele>744.0</ele><time>2026-04-07T16:58:21Z</time></trkpt><trkpt lat="43.773731343915614" lon="6.238494690612568"><ele>744.2</ele><time>2026-04-07T16:58:22Z</time></trkpt><trkpt lat="43.773739743662205" lon="6.238336720990121"><ele>744.4000000000001</ele><time>2026-04-07T16:58:22.999Z</time></trkpt><trkpt lat="43.77371448180761" lon="6.238191594114011"><ele>744.6</ele><time>2026-04-07T16:58:23.999Z</time></trkpt><trkpt lat="43.773676101782186" lon="6.238047422111724"><ele>744.8</ele><time>2026-04-07T16:58:24.999Z</time></trkpt><trkpt lat="43.773655343919366" lon="6.237905823779502"><ele>745.0</ele><time>2026-04-07T16:58:25.999Z</time></trkpt><trkpt lat="43.77367677193527" lon="6.23777320547613"><ele>742.6</ele><time>2026-04-07T16:58:26.999Z</time></trkpt><trkpt lat="43.77373343688994" lon="6.237697930934998"><ele>740.2</ele><time>2026-04-07T16:58:27.999Z</time></trkpt><trkpt lat="43.773827936117286" lon="6.237611128767484"><ele>737.8</ele><time>2026-04-07T16:58:28.999Z</time></trkpt><trkpt lat="43.773907880545536" lon="6.237644218352264"><ele>735.4</ele><time>2026-04-07T16:58:29.999Z</time></trkpt><trkpt lat="43.7739410131333" lon="6.237783239567619"><ele>733.0</ele><time>2026-04-07T16:58:30.999Z</time></trkpt><trkpt lat="43.77399937228252" lon="6.237855438135687"><ele>733.0</ele><time>2026-04-07T16:58:31.999Z</time></trkpt><trkpt lat="43.77397822434671" lon="6.238017771664"><ele>733.0</ele><time>2026-04-07T16:58:32.999Z</time></trkpt><trkpt lat="43.77400645391736" lon="6.238235797231186"><ele>733.0</ele><time>2026-04-07T16:58:33.999Z</time></trkpt><trkpt lat="43.774075343276294" lon="6.2384596050847385"><ele>737.0</ele><time>2026-04-07T16:58:34.999Z</time></trkpt><trkpt lat="43.77417106022503" lon="6.238678770665714"><ele>741.0</ele><time>2026-04-07T16:58:35.999Z</time></trkpt><trkpt lat="43.7742539890037" lon="6.238867679560763"><ele>745.0</ele><time>2026-04-07T16:58:36.999Z</time></trkpt><trkpt lat="43.77434204451865" lon="6.239032599139564"><ele>746.3333333333334</ele><time>2026-04-07T16:58:37.999Z</time></trkpt><trkpt lat="43.77441487689104" lon="6.239225108273061"><ele>747.6666666666666</ele><time>2026-04-07T16:58:38.999Z</time></trkpt><trkpt lat="43.77449731943614" lon="6.23939691827945"><ele>749.0</ele><time>2026-04-07T16:58:39.999Z</time></trkpt><trkpt lat="43.774605645073784" lon="6.239539831876989"><ele>749.0</ele><time>2026-04-07T16:58:40.999Z</time></trkpt><trkpt lat="43.77473761304984" lon="6.239641930071247"><ele>749.0</ele><time>2026-04-07T16:58:41.999Z</time></trkpt><trkpt lat="43.77486414845145" lon="6.239707330847399"><ele>749.0</ele><time>2026-04-07T16:58:42.999Z</time></trkpt><trkpt lat="43.7749455754519" lon="6.239804035514251"><ele>749.0</ele><time>2026-04-07T16:58:43.999Z</time></trkpt><trkpt lat="43.77499774131211" lon="6.239903163726454"><ele>751.8000000000001</ele><time>2026-04-07T16:58:44.999Z</time></trkpt><trkpt lat="43.77503170112517" lon="6.240020316868544"><ele>754.6</ele><time>2026-04-07T16:58:45.999Z</time></trkpt><trkpt lat="43.77504308394345" lon="6.240153828547017"><ele>757.4</ele><time>2026-04-07T16:58:46.999Z</time></trkpt><trkpt lat="43.77501865072917" lon="6.240273363193076"><ele>760.2</ele><time>2026-04-07T16:58:47.999Z</time></trkpt><trkpt lat="43.77496524322255" lon="6.240422508761945"><ele>763.0</ele><time>2026-04-07T16:58:49Z</time></trkpt><trkpt lat="43.77495906382461" lon="6.240601063620734"><ele>764.4</ele><time>2026-04-07T16:58:50Z</time></trkpt><trkpt lat="43.77500209632079" lon="6.240752764566986"><ele>765.8</ele><time>2026-04-07T16:58:51Z</time></trkpt><trkpt lat="43.775040796521466" lon="6.240870280302344"><ele>767.2</ele><time>2026-04-07T16:58:52Z</time></trkpt><trkpt lat="43.77506655871143" lon="6.240957918638853"><ele>768.6</ele><time>2026-04-07T16:58:53Z</time></trkpt><trkpt lat="43.77509840564379" lon="6.241120408932907"><ele>770.0</ele><time>2026-04-07T16:58:55Z</time></trkpt><trkpt lat="43.77509178066715" lon="6.241290852299537"><ele>770.0000000000001</ele><time>2026-04-07T16:58:57Z</time></trkpt><trkpt lat="43.775069475582136" lon="6.241377648627334"><ele>770.0</ele><time>2026-04-07T16:58:58Z</time></trkpt><trkpt lat="43.775023006761465" lon="6.241466924130226"><ele>770.0</ele><time>2026-04-07T16:58:59Z</time></trkpt><trkpt lat="43.774989965929635" lon="6.241548832564415"><ele>770.0</ele><time>2026-04-07T16:59:00Z</time></trkpt><trkpt lat="43.774946157782374" lon="6.241716804673352"><ele>770.0000000000001</ele><time>2026-04-07T16:59:02Z</time></trkpt><trkpt lat="43.77492315316856" lon="6.2418095291642866"><ele>770.0</ele><time>2026-04-07T16:59:03Z</time></trkpt><trkpt lat="43.77490412056359" lon="6.241912582782032"><ele>770.8</ele><time>2026-04-07T16:59:04Z</time></trkpt><trkpt lat="43.77489568183003" lon="6.2420231996881625"><ele>771.6</ele><time>2026-04-07T16:59:05Z</time></trkpt><trkpt lat="43.77488608780023" lon="6.242149859487141"><ele>772.4000000000001</ele><time>2026-04-07T16:59:06Z</time></trkpt><trkpt lat="43.77488265564278" lon="6.242282865226533"><ele>773.2</ele><time>2026-04-07T16:59:07Z</time></trkpt><trkpt lat="43.774884574922694" lon="6.242421410431232"><ele>774.0</ele><time>2026-04-07T16:59:08Z</time></trkpt><trkpt lat="43.77490769805929" lon="6.2425542413127575"><ele>775.0</ele><time>2026-04-07T16:59:09Z</time></trkpt><trkpt lat="43.774951612859056" lon="6.24267053179983"><ele>776.0</ele><time>2026-04-07T16:59:10Z</time></trkpt><trkpt lat="43.77502241773752" lon="6.2427615293278995"><ele>777.0</ele><time>2026-04-07T16:59:11Z</time></trkpt><trkpt lat="43.77508825726227" lon="6.242835732806248"><ele>778.0</ele><time>2026-04-07T16:59:12Z</time></trkpt><trkpt lat="43.7751886793569" lon="6.242799461186073"><ele>779.0</ele><time>2026-04-07T16:59:13Z</time></trkpt><trkpt lat="43.7752757520012" lon="6.242806861204305"><ele>779.0000000000001</ele><time>2026-04-07T16:59:14Z</time></trkpt><trkpt lat="43.77536607019583" lon="6.242810242369417"><ele>779.0</ele><time>2026-04-07T16:59:15Z</time></trkpt><trkpt lat="43.77545110630818" lon="6.2428190079342185"><ele>779.0</ele><time>2026-04-07T16:59:16Z</time></trkpt><trkpt lat="43.77551554992497" lon="6.24281409321704"><ele>779.0</ele><time>2026-04-07T16:59:17Z</time></trkpt><trkpt lat="43.77562936776046" lon="6.242792778031616"><ele>779.0000000000001</ele><time>2026-04-07T16:59:19Z</time></trkpt><trkpt lat="43.7756934909299" lon="6.242774241055038"><ele>779.0</ele><time>2026-04-07T16:59:20Z</time></trkpt><trkpt lat="43.7758102824179" lon="6.24278147881203"><ele>779.0000000000001</ele><time>2026-04-07T16:59:22Z</time></trkpt><trkpt lat="43.7758674741875" lon="6.242713589661034"><ele>779.0</ele><time>2026-04-07T16:59:23Z</time></trkpt><trkpt lat="43.77593232671205" lon="6.24262781297289"><ele>779.0</ele><time>2026-04-07T16:59:24Z</time></trkpt><trkpt lat="43.77599958469079" lon="6.242570932991404"><ele>779.0</ele><time>2026-04-07T16:59:25Z</time></trkpt><trkpt lat="43.77607975734207" lon="6.242519251085778"><ele>779.0000000000001</ele><time>2026-04-07T16:59:26Z</time></trkpt><trkpt lat="43.77616292898829" lon="6.242490160855551"><ele>779.0</ele><time>2026-04-07T16:59:27Z</time></trkpt><trkpt lat="43.776234901419" lon="6.242472975778063"><ele>779.5000000000001</ele><time>2026-04-07T16:59:28Z</time></trkpt><trkpt lat="43.77630263453626" lon="6.242459162872811"><ele>780.0</ele><time>2026-04-07T16:59:29Z</time></trkpt><trkpt lat="43.77641213993924" lon="6.242490537099598"><ele>780.5</ele><time>2026-04-07T16:59:31Z</time></trkpt><trkpt lat="43.776412658185386" lon="6.242586243889099"><ele>781.0</ele><time>2026-04-07T16:59:33Z</time></trkpt><trkpt lat="43.776415673621685" lon="6.242679012228686"><ele>781.5000000000001</ele><time>2026-04-07T17:00:15Z</time></trkpt><trkpt lat="43.77643891808749" lon="6.242554168808784"><ele>782.0</ele><time>2026-04-07T17:06:18Z</time></trkpt><trkpt lat="43.7763704886425" lon="6.242537665079004"><ele>781.9999999999999</ele><time>2026-04-07T17:06:31.999Z</time></trkpt><trkpt lat="43.77640978973928" lon="6.242465116262098"><ele>782.0</ele><time>2026-04-07T17:17:21.999Z</time></trkpt><trkpt lat="43.776362548857065" lon="6.24253371385113"><ele>782.0</ele><time>2026-04-07T17:18:48.999Z</time></trkpt><trkpt lat="43.77629389589962" lon="6.242483280187977"><ele>782.0</ele><time>2026-04-07T17:31:16.001Z</time></trkpt><trkpt lat="43.7762624104041" lon="6.24255947910034"><ele>782.0</ele><time>2026-04-07T17:49:17Z</time></trkpt><trkpt lat="43.77633045975128" lon="6.242577469667954"><ele>781.9999999999999</ele><time>2026-04-07T17:49:39Z</time></trkpt><trkpt lat="43.77640340451989" lon="6.242596880140719"><ele>782.0</ele><time>2026-04-07T17:49:44Z</time></trkpt><trkpt lat="43.776361127128226" lon="6.242530528413827"><ele>781.9999999999999</ele><time>2026-04-07T17:54:35Z</time></trkpt><trkpt lat="43.77629675752985" lon="6.242554509601153"><ele>782.0</ele><time>2026-04-07T17:54:59.999Z</time></trkpt><trkpt lat="43.776319818146504" lon="6.242640574788939"><ele>782.0</ele><time>2026-04-07T18:00:02Z</time></trkpt><trkpt lat="43.776274894945765" lon="6.242542376434433"><ele>782.0</ele><time>2026-04-07T18:15:28.999Z</time></trkpt><trkpt lat="43.77633931446711" lon="6.242551880673789"><ele>782.0</ele><time>2026-04-07T18:15:52.999Z</time></trkpt><trkpt lat="43.776381707671106" lon="6.2424719882769315"><ele>781.9999999999999</ele><time>2026-04-07T18:16:00.999Z</time></trkpt><trkpt lat="43.776372189932424" lon="6.242382977578895"><ele>782.0</ele><time>2026-04-07T18:16:16.999Z</time></trkpt><trkpt lat="43.77637551321192" lon="6.242483811237034"><ele>781.9999999999999</ele><time>2026-04-07T18:17:14.999Z</time></trkpt><trkpt lat="43.77641183712663" lon="6.242564636493185"><ele>782.0</ele><time>2026-04-07T18:18:44.999Z</time></trkpt><trkpt lat="43.77640743394556" lon="6.242667264651994"><ele>782.0</ele><time>2026-04-07T18:18:51.999Z</time></trkpt><trkpt lat="43.776396624005365" lon="6.242758338157877"><ele>782.0</ele><time>2026-04-07T18:18:57.999Z</time></trkpt><trkpt lat="43.77636726022996" lon="6.2428422976388545"><ele>782.0</ele><time>2026-04-07T18:19:03.999Z</time></trkpt><trkpt lat="43.77630346912285" lon="6.242883679642078"><ele>781.9999999999999</ele><time>2026-04-07T18:19:10.999Z</time></trkpt><trkpt lat="43.776236922056746" lon="6.242916061862983"><ele>782.0</ele><time>2026-04-07T18:19:15.999Z</time></trkpt><trkpt lat="43.7761691760379" lon="6.24294461926295"><ele>781.9999999999999</ele><time>2026-04-07T18:19:22.999Z</time></trkpt><trkpt lat="43.776111462326" lon="6.242983422440406"><ele>782.0</ele><time>2026-04-07T18:19:27.999Z</time></trkpt><trkpt lat="43.77605502779022" lon="6.243027320189863"><ele>782.0</ele><time>2026-04-07T18:19:32.999Z</time></trkpt><trkpt lat="43.7759896115852" lon="6.243047041113917"><ele>782.0</ele><time>2026-04-07T18:19:38.999Z</time></trkpt><trkpt lat="43.775924388376744" lon="6.243071004354442"><ele>782.0</ele><time>2026-04-07T18:19:44.999Z</time></trkpt><trkpt lat="43.77587024467615" lon="6.243136567553756"><ele>781.9999999999999</ele><time>2026-04-07T18:19:51.999Z</time></trkpt><trkpt lat="43.775807330413635" lon="6.24313994902544"><ele>782.0</ele><time>2026-04-07T18:19:57.999Z</time></trkpt><trkpt lat="43.77573220491783" lon="6.243159538804446"><ele>781.5714285714286</ele><time>2026-04-07T18:20:03.999Z</time></trkpt><trkpt lat="43.775666659045484" lon="6.2431731388656875"><ele>781.1428571428571</ele><time>2026-04-07T18:20:08.999Z</time></trkpt><trkpt lat="43.77559507142973" lon="6.243196071868561"><ele>780.7142857142858</ele><time>2026-04-07T18:20:14.999Z</time></trkpt><trkpt lat="43.77552532074606" lon="6.243195933102271"><ele>780.2857142857142</ele><time>2026-04-07T18:20:25.999Z</time></trkpt><trkpt lat="43.77545855214721" lon="6.243201624428164"><ele>779.8571428571429</ele><time>2026-04-07T18:20:40.999Z</time></trkpt><trkpt lat="43.77551552768154" lon="6.243250027196127"><ele>779.4285714285714</ele><time>2026-04-07T18:21:11.999Z</time></trkpt><trkpt lat="43.775576564346714" lon="6.243181827499562"><ele>779.0</ele><time>2026-04-07T18:21:44.061Z</time></trkpt><trkpt lat="43.77546614852738" lon="6.243068786824345"><ele>779.0</ele><time>2026-04-07T18:21:49.419Z</time></trkpt></trkseg></trk></gpx>